<?xml version="1.0" encoding="UTF-8" standalone="no" ?>
<gpx xmlns="http://www.topografix.com/GPX/1/1" xmlns:xsi="http://www.w3.org/2001/XMLSchema-instance" xsi:schemaLocation="http://www.topografix.com/GPX/1/1 http://www.topografix.com/GPX/1/1/gpx.xsd" version="1.1" creator="VisuGPX - https://www.visugpx.com">
  <metadata>
    <name>Tour de Moutiers Mauxfaits</name>
  </metadata>
  <trk>
    <name><![CDATA[Tour de Moutiers Mauxfaits_1]]></name>
    <trkseg>
      <trkpt lat="46.51853" lon="-1.41919">
        <ele>53.4</ele>
        <time>2021-09-21T08:05:05Z</time>
      </trkpt>
      <trkpt lat="46.51853" lon="-1.41919">
        <ele>53.4</ele>
        <time>2021-09-21T08:05:06Z</time>
      </trkpt>
      <trkpt lat="46.51853" lon="-1.41919">
        <ele>53.4</ele>
        <time>2021-09-21T08:05:07Z</time>
      </trkpt>
      <trkpt lat="46.51853" lon="-1.41919">
        <ele>53.4</ele>
        <time>2021-09-21T08:05:08Z</time>
      </trkpt>
      <trkpt lat="46.51853" lon="-1.41919">
        <ele>53.4</ele>
        <time>2021-09-21T08:05:09Z</time>
      </trkpt>
      <trkpt lat="46.51853" lon="-1.41919">
        <ele>53.4</ele>
        <time>2021-09-21T08:05:10Z</time>
      </trkpt>
      <trkpt lat="46.51853" lon="-1.41919">
        <ele>53.4</ele>
        <time>2021-09-21T08:05:11Z</time>
      </trkpt>
      <trkpt lat="46.51853" lon="-1.41919">
        <ele>53.5</ele>
        <time>2021-09-21T08:05:12Z</time>
      </trkpt>
      <trkpt lat="46.51853" lon="-1.41919">
        <ele>53.5</ele>
        <time>2021-09-21T08:05:13Z</time>
      </trkpt>
      <trkpt lat="46.51853" lon="-1.41919">
        <ele>53.5</ele>
        <time>2021-09-21T08:05:14Z</time>
      </trkpt>
      <trkpt lat="46.51854" lon="-1.41919">
        <ele>53.5</ele>
        <time>2021-09-21T08:05:15Z</time>
      </trkpt>
      <trkpt lat="46.51854" lon="-1.41919">
        <ele>53.5</ele>
        <time>2021-09-21T08:05:16Z</time>
      </trkpt>
      <trkpt lat="46.51854" lon="-1.41919">
        <ele>53.5</ele>
        <time>2021-09-21T08:05:17Z</time>
      </trkpt>
      <trkpt lat="46.51854" lon="-1.41919">
        <ele>53.5</ele>
        <time>2021-09-21T08:05:18Z</time>
      </trkpt>
      <trkpt lat="46.51854" lon="-1.41919">
        <ele>53.5</ele>
        <time>2021-09-21T08:05:19Z</time>
      </trkpt>
      <trkpt lat="46.51854" lon="-1.41919">
        <ele>53.5</ele>
        <time>2021-09-21T08:05:20Z</time>
      </trkpt>
      <trkpt lat="46.51855" lon="-1.41919">
        <ele>53.5</ele>
        <time>2021-09-21T08:05:21Z</time>
      </trkpt>
      <trkpt lat="46.51855" lon="-1.41919">
        <ele>53.5</ele>
        <time>2021-09-21T08:05:22Z</time>
      </trkpt>
      <trkpt lat="46.51855" lon="-1.41919">
        <ele>53.5</ele>
        <time>2021-09-21T08:05:23Z</time>
      </trkpt>
      <trkpt lat="46.51855" lon="-1.41919">
        <ele>53.5</ele>
        <time>2021-09-21T08:05:24Z</time>
      </trkpt>
      <trkpt lat="46.51855" lon="-1.41919">
        <ele>53.5</ele>
        <time>2021-09-21T08:05:25Z</time>
      </trkpt>
      <trkpt lat="46.51855" lon="-1.41919">
        <ele>53.5</ele>
        <time>2021-09-21T08:05:26Z</time>
      </trkpt>
      <trkpt lat="46.51854" lon="-1.41919">
        <ele>53.5</ele>
        <time>2021-09-21T08:05:27Z</time>
      </trkpt>
      <trkpt lat="46.51854" lon="-1.41919">
        <ele>53.5</ele>
        <time>2021-09-21T08:05:28Z</time>
      </trkpt>
      <trkpt lat="46.51854" lon="-1.4192">
        <ele>53.5</ele>
        <time>2021-09-21T08:05:29Z</time>
      </trkpt>
      <trkpt lat="46.51854" lon="-1.4192">
        <ele>53.5</ele>
        <time>2021-09-21T08:05:30Z</time>
      </trkpt>
      <trkpt lat="46.51853" lon="-1.4192">
        <ele>53.5</ele>
        <time>2021-09-21T08:05:31Z</time>
      </trkpt>
      <trkpt lat="46.51853" lon="-1.4192">
        <ele>53.6</ele>
        <time>2021-09-21T08:05:32Z</time>
      </trkpt>
      <trkpt lat="46.51852" lon="-1.41921">
        <ele>53.6</ele>
        <time>2021-09-21T08:05:33Z</time>
      </trkpt>
      <trkpt lat="46.51852" lon="-1.41921">
        <ele>53.6</ele>
        <time>2021-09-21T08:05:34Z</time>
      </trkpt>
      <trkpt lat="46.51851" lon="-1.41921">
        <ele>53.6</ele>
        <time>2021-09-21T08:05:35Z</time>
      </trkpt>
      <trkpt lat="46.5185" lon="-1.41922">
        <ele>53.6</ele>
        <time>2021-09-21T08:05:36Z</time>
      </trkpt>
      <trkpt lat="46.51849" lon="-1.41922">
        <ele>53.7</ele>
        <time>2021-09-21T08:05:37Z</time>
      </trkpt>
      <trkpt lat="46.51848" lon="-1.41923">
        <ele>53.7</ele>
        <time>2021-09-21T08:05:38Z</time>
      </trkpt>
      <trkpt lat="46.51847" lon="-1.41923">
        <ele>53.7</ele>
        <time>2021-09-21T08:05:39Z</time>
      </trkpt>
      <trkpt lat="46.51846" lon="-1.41924">
        <ele>53.8</ele>
        <time>2021-09-21T08:05:40Z</time>
      </trkpt>
      <trkpt lat="46.51845" lon="-1.41924">
        <ele>53.8</ele>
        <time>2021-09-21T08:05:41Z</time>
      </trkpt>
      <trkpt lat="46.51844" lon="-1.41925">
        <ele>53.8</ele>
        <time>2021-09-21T08:05:42Z</time>
      </trkpt>
      <trkpt lat="46.51843" lon="-1.41925">
        <ele>53.9</ele>
        <time>2021-09-21T08:05:43Z</time>
      </trkpt>
      <trkpt lat="46.51842" lon="-1.41926">
        <ele>53.9</ele>
        <time>2021-09-21T08:05:44Z</time>
      </trkpt>
      <trkpt lat="46.51841" lon="-1.41926">
        <ele>53.9</ele>
        <time>2021-09-21T08:05:45Z</time>
      </trkpt>
      <trkpt lat="46.5184" lon="-1.41927">
        <ele>54</ele>
        <time>2021-09-21T08:05:46Z</time>
      </trkpt>
      <trkpt lat="46.51839" lon="-1.41927">
        <ele>54</ele>
        <time>2021-09-21T08:05:47Z</time>
      </trkpt>
      <trkpt lat="46.51838" lon="-1.41928">
        <ele>54</ele>
        <time>2021-09-21T08:05:48Z</time>
      </trkpt>
      <trkpt lat="46.51838" lon="-1.41928">
        <ele>54.1</ele>
        <time>2021-09-21T08:05:49Z</time>
      </trkpt>
      <trkpt lat="46.51837" lon="-1.41929">
        <ele>54.1</ele>
        <time>2021-09-21T08:05:50Z</time>
      </trkpt>
      <trkpt lat="46.51836" lon="-1.41929">
        <ele>54.1</ele>
        <time>2021-09-21T08:05:51Z</time>
      </trkpt>
      <trkpt lat="46.51835" lon="-1.41929">
        <ele>54.1</ele>
        <time>2021-09-21T08:05:52Z</time>
      </trkpt>
      <trkpt lat="46.51834" lon="-1.4193">
        <ele>54.2</ele>
        <time>2021-09-21T08:05:53Z</time>
      </trkpt>
      <trkpt lat="46.51833" lon="-1.4193">
        <ele>54.2</ele>
        <time>2021-09-21T08:05:54Z</time>
      </trkpt>
      <trkpt lat="46.51832" lon="-1.41931">
        <ele>54.3</ele>
        <time>2021-09-21T08:05:55Z</time>
      </trkpt>
      <trkpt lat="46.51831" lon="-1.41931">
        <ele>54.3</ele>
        <time>2021-09-21T08:05:56Z</time>
      </trkpt>
      <trkpt lat="46.5183" lon="-1.41932">
        <ele>54.3</ele>
        <time>2021-09-21T08:05:57Z</time>
      </trkpt>
      <trkpt lat="46.51829" lon="-1.41932">
        <ele>54.4</ele>
        <time>2021-09-21T08:05:58Z</time>
      </trkpt>
      <trkpt lat="46.51828" lon="-1.41933">
        <ele>54.4</ele>
        <time>2021-09-21T08:05:59Z</time>
      </trkpt>
      <trkpt lat="46.51827" lon="-1.41933">
        <ele>54.5</ele>
        <time>2021-09-21T08:06:00Z</time>
      </trkpt>
      <trkpt lat="46.51825" lon="-1.41933">
        <ele>54.5</ele>
        <time>2021-09-21T08:06:01Z</time>
      </trkpt>
      <trkpt lat="46.51824" lon="-1.41934">
        <ele>54.5</ele>
        <time>2021-09-21T08:06:02Z</time>
      </trkpt>
      <trkpt lat="46.51823" lon="-1.41934">
        <ele>54.6</ele>
        <time>2021-09-21T08:06:03Z</time>
      </trkpt>
      <trkpt lat="46.51822" lon="-1.41935">
        <ele>54.6</ele>
        <time>2021-09-21T08:06:04Z</time>
      </trkpt>
      <trkpt lat="46.51821" lon="-1.41935">
        <ele>54.7</ele>
        <time>2021-09-21T08:06:05Z</time>
      </trkpt>
      <trkpt lat="46.51819" lon="-1.41936">
        <ele>54.7</ele>
        <time>2021-09-21T08:06:06Z</time>
      </trkpt>
      <trkpt lat="46.51818" lon="-1.41936">
        <ele>54.7</ele>
        <time>2021-09-21T08:06:07Z</time>
      </trkpt>
      <trkpt lat="46.51817" lon="-1.41937">
        <ele>54.8</ele>
        <time>2021-09-21T08:06:08Z</time>
      </trkpt>
      <trkpt lat="46.51815" lon="-1.41937">
        <ele>54.8</ele>
        <time>2021-09-21T08:06:09Z</time>
      </trkpt>
      <trkpt lat="46.51814" lon="-1.41937">
        <ele>54.9</ele>
        <time>2021-09-21T08:06:10Z</time>
      </trkpt>
      <trkpt lat="46.51813" lon="-1.41938">
        <ele>54.9</ele>
        <time>2021-09-21T08:06:11Z</time>
      </trkpt>
      <trkpt lat="46.51812" lon="-1.41938">
        <ele>55</ele>
        <time>2021-09-21T08:06:12Z</time>
      </trkpt>
      <trkpt lat="46.5181" lon="-1.41939">
        <ele>55</ele>
        <time>2021-09-21T08:06:13Z</time>
      </trkpt>
      <trkpt lat="46.51809" lon="-1.41939">
        <ele>55</ele>
        <time>2021-09-21T08:06:14Z</time>
      </trkpt>
      <trkpt lat="46.51808" lon="-1.4194">
        <ele>55.1</ele>
        <time>2021-09-21T08:06:15Z</time>
      </trkpt>
      <trkpt lat="46.51806" lon="-1.4194">
        <ele>55.1</ele>
        <time>2021-09-21T08:06:16Z</time>
      </trkpt>
      <trkpt lat="46.51805" lon="-1.41941">
        <ele>55.1</ele>
        <time>2021-09-21T08:06:17Z</time>
      </trkpt>
      <trkpt lat="46.51804" lon="-1.41941">
        <ele>55.2</ele>
        <time>2021-09-21T08:06:18Z</time>
      </trkpt>
      <trkpt lat="46.51803" lon="-1.41942">
        <ele>55.2</ele>
        <time>2021-09-21T08:06:19Z</time>
      </trkpt>
      <trkpt lat="46.51802" lon="-1.41942">
        <ele>55.3</ele>
        <time>2021-09-21T08:06:20Z</time>
      </trkpt>
      <trkpt lat="46.51801" lon="-1.41943">
        <ele>55.3</ele>
        <time>2021-09-21T08:06:21Z</time>
      </trkpt>
      <trkpt lat="46.518" lon="-1.41944">
        <ele>55.3</ele>
        <time>2021-09-21T08:06:22Z</time>
      </trkpt>
      <trkpt lat="46.51798" lon="-1.41944">
        <ele>55.3</ele>
        <time>2021-09-21T08:06:23Z</time>
      </trkpt>
      <trkpt lat="46.51797" lon="-1.41945">
        <ele>55.4</ele>
        <time>2021-09-21T08:06:24Z</time>
      </trkpt>
      <trkpt lat="46.51796" lon="-1.41945">
        <ele>55.4</ele>
        <time>2021-09-21T08:06:25Z</time>
      </trkpt>
      <trkpt lat="46.51795" lon="-1.41946">
        <ele>55.4</ele>
        <time>2021-09-21T08:06:26Z</time>
      </trkpt>
      <trkpt lat="46.51794" lon="-1.41947">
        <ele>55.4</ele>
        <time>2021-09-21T08:06:27Z</time>
      </trkpt>
      <trkpt lat="46.51793" lon="-1.41948">
        <ele>55.4</ele>
        <time>2021-09-21T08:06:28Z</time>
      </trkpt>
      <trkpt lat="46.51792" lon="-1.41948">
        <ele>55.4</ele>
        <time>2021-09-21T08:06:29Z</time>
      </trkpt>
      <trkpt lat="46.51791" lon="-1.41949">
        <ele>55.5</ele>
        <time>2021-09-21T08:06:30Z</time>
      </trkpt>
      <trkpt lat="46.5179" lon="-1.4195">
        <ele>55.5</ele>
        <time>2021-09-21T08:06:31Z</time>
      </trkpt>
      <trkpt lat="46.51788" lon="-1.4195">
        <ele>55.5</ele>
        <time>2021-09-21T08:06:32Z</time>
      </trkpt>
      <trkpt lat="46.51787" lon="-1.41951">
        <ele>55.5</ele>
        <time>2021-09-21T08:06:33Z</time>
      </trkpt>
      <trkpt lat="46.51786" lon="-1.41951">
        <ele>55.5</ele>
        <time>2021-09-21T08:06:34Z</time>
      </trkpt>
      <trkpt lat="46.51785" lon="-1.41952">
        <ele>55.5</ele>
        <time>2021-09-21T08:06:35Z</time>
      </trkpt>
      <trkpt lat="46.51784" lon="-1.41953">
        <ele>55.5</ele>
        <time>2021-09-21T08:06:36Z</time>
      </trkpt>
      <trkpt lat="46.51782" lon="-1.41953">
        <ele>55.5</ele>
        <time>2021-09-21T08:06:37Z</time>
      </trkpt>
      <trkpt lat="46.51781" lon="-1.41954">
        <ele>55.5</ele>
        <time>2021-09-21T08:06:38Z</time>
      </trkpt>
      <trkpt lat="46.5178" lon="-1.41955">
        <ele>55.5</ele>
        <time>2021-09-21T08:06:39Z</time>
      </trkpt>
      <trkpt lat="46.51779" lon="-1.41955">
        <ele>55.6</ele>
        <time>2021-09-21T08:06:40Z</time>
      </trkpt>
      <trkpt lat="46.51778" lon="-1.41956">
        <ele>55.6</ele>
        <time>2021-09-21T08:06:41Z</time>
      </trkpt>
      <trkpt lat="46.51777" lon="-1.41956">
        <ele>55.6</ele>
        <time>2021-09-21T08:06:42Z</time>
      </trkpt>
      <trkpt lat="46.51775" lon="-1.41957">
        <ele>55.6</ele>
        <time>2021-09-21T08:06:43Z</time>
      </trkpt>
      <trkpt lat="46.51774" lon="-1.41957">
        <ele>55.6</ele>
        <time>2021-09-21T08:06:44Z</time>
      </trkpt>
      <trkpt lat="46.51773" lon="-1.41958">
        <ele>55.7</ele>
        <time>2021-09-21T08:06:45Z</time>
      </trkpt>
      <trkpt lat="46.51772" lon="-1.41959">
        <ele>55.7</ele>
        <time>2021-09-21T08:06:46Z</time>
      </trkpt>
      <trkpt lat="46.51771" lon="-1.41959">
        <ele>55.7</ele>
        <time>2021-09-21T08:06:47Z</time>
      </trkpt>
      <trkpt lat="46.5177" lon="-1.4196">
        <ele>55.7</ele>
        <time>2021-09-21T08:06:48Z</time>
      </trkpt>
      <trkpt lat="46.51769" lon="-1.4196">
        <ele>55.8</ele>
        <time>2021-09-21T08:06:49Z</time>
      </trkpt>
      <trkpt lat="46.51767" lon="-1.41961">
        <ele>55.8</ele>
        <time>2021-09-21T08:06:50Z</time>
      </trkpt>
      <trkpt lat="46.51766" lon="-1.41961">
        <ele>55.8</ele>
        <time>2021-09-21T08:06:51Z</time>
      </trkpt>
      <trkpt lat="46.51765" lon="-1.41962">
        <ele>55.8</ele>
        <time>2021-09-21T08:06:52Z</time>
      </trkpt>
      <trkpt lat="46.51764" lon="-1.41962">
        <ele>55.9</ele>
        <time>2021-09-21T08:06:53Z</time>
      </trkpt>
      <trkpt lat="46.51763" lon="-1.41963">
        <ele>55.9</ele>
        <time>2021-09-21T08:06:54Z</time>
      </trkpt>
      <trkpt lat="46.51762" lon="-1.41963">
        <ele>55.9</ele>
        <time>2021-09-21T08:06:55Z</time>
      </trkpt>
      <trkpt lat="46.51761" lon="-1.41964">
        <ele>55.9</ele>
        <time>2021-09-21T08:06:56Z</time>
      </trkpt>
      <trkpt lat="46.5176" lon="-1.41965">
        <ele>56</ele>
        <time>2021-09-21T08:06:57Z</time>
      </trkpt>
      <trkpt lat="46.51759" lon="-1.41965">
        <ele>56</ele>
        <time>2021-09-21T08:06:58Z</time>
      </trkpt>
      <trkpt lat="46.51758" lon="-1.41966">
        <ele>56</ele>
        <time>2021-09-21T08:06:59Z</time>
      </trkpt>
      <trkpt lat="46.51757" lon="-1.41966">
        <ele>56</ele>
        <time>2021-09-21T08:07:00Z</time>
      </trkpt>
      <trkpt lat="46.51755" lon="-1.41967">
        <ele>56</ele>
        <time>2021-09-21T08:07:01Z</time>
      </trkpt>
      <trkpt lat="46.51754" lon="-1.41967">
        <ele>56</ele>
        <time>2021-09-21T08:07:02Z</time>
      </trkpt>
      <trkpt lat="46.51753" lon="-1.41968">
        <ele>56.1</ele>
        <time>2021-09-21T08:07:03Z</time>
      </trkpt>
      <trkpt lat="46.51752" lon="-1.41969">
        <ele>56.1</ele>
        <time>2021-09-21T08:07:04Z</time>
      </trkpt>
      <trkpt lat="46.51751" lon="-1.41969">
        <ele>56.1</ele>
        <time>2021-09-21T08:07:05Z</time>
      </trkpt>
      <trkpt lat="46.5175" lon="-1.4197">
        <ele>56.1</ele>
        <time>2021-09-21T08:07:06Z</time>
      </trkpt>
      <trkpt lat="46.51749" lon="-1.4197">
        <ele>56.1</ele>
        <time>2021-09-21T08:07:07Z</time>
      </trkpt>
      <trkpt lat="46.51748" lon="-1.41971">
        <ele>56.1</ele>
        <time>2021-09-21T08:07:08Z</time>
      </trkpt>
      <trkpt lat="46.51747" lon="-1.41972">
        <ele>56.2</ele>
        <time>2021-09-21T08:07:09Z</time>
      </trkpt>
      <trkpt lat="46.51746" lon="-1.41972">
        <ele>56.2</ele>
        <time>2021-09-21T08:07:10Z</time>
      </trkpt>
      <trkpt lat="46.51745" lon="-1.41973">
        <ele>56.2</ele>
        <time>2021-09-21T08:07:11Z</time>
      </trkpt>
      <trkpt lat="46.51743" lon="-1.41973">
        <ele>56.2</ele>
        <time>2021-09-21T08:07:12Z</time>
      </trkpt>
      <trkpt lat="46.51742" lon="-1.41974">
        <ele>56.2</ele>
        <time>2021-09-21T08:07:13Z</time>
      </trkpt>
      <trkpt lat="46.51741" lon="-1.41975">
        <ele>56.2</ele>
        <time>2021-09-21T08:07:14Z</time>
      </trkpt>
      <trkpt lat="46.5174" lon="-1.41975">
        <ele>56.2</ele>
        <time>2021-09-21T08:07:15Z</time>
      </trkpt>
      <trkpt lat="46.51739" lon="-1.41976">
        <ele>56.3</ele>
        <time>2021-09-21T08:07:16Z</time>
      </trkpt>
      <trkpt lat="46.51738" lon="-1.41976">
        <ele>56.3</ele>
        <time>2021-09-21T08:07:17Z</time>
      </trkpt>
      <trkpt lat="46.51737" lon="-1.41977">
        <ele>56.3</ele>
        <time>2021-09-21T08:07:18Z</time>
      </trkpt>
      <trkpt lat="46.51736" lon="-1.41978">
        <ele>56.3</ele>
        <time>2021-09-21T08:07:19Z</time>
      </trkpt>
      <trkpt lat="46.51735" lon="-1.41978">
        <ele>56.3</ele>
        <time>2021-09-21T08:07:20Z</time>
      </trkpt>
      <trkpt lat="46.51734" lon="-1.41979">
        <ele>56.4</ele>
        <time>2021-09-21T08:07:21Z</time>
      </trkpt>
      <trkpt lat="46.51732" lon="-1.41979">
        <ele>56.4</ele>
        <time>2021-09-21T08:07:22Z</time>
      </trkpt>
      <trkpt lat="46.51731" lon="-1.4198">
        <ele>56.4</ele>
        <time>2021-09-21T08:07:23Z</time>
      </trkpt>
      <trkpt lat="46.5173" lon="-1.4198">
        <ele>56.4</ele>
        <time>2021-09-21T08:07:24Z</time>
      </trkpt>
      <trkpt lat="46.51729" lon="-1.41981">
        <ele>56.4</ele>
        <time>2021-09-21T08:07:25Z</time>
      </trkpt>
      <trkpt lat="46.51728" lon="-1.41981">
        <ele>56.4</ele>
        <time>2021-09-21T08:07:26Z</time>
      </trkpt>
      <trkpt lat="46.51727" lon="-1.41981">
        <ele>56.5</ele>
        <time>2021-09-21T08:07:27Z</time>
      </trkpt>
      <trkpt lat="46.51726" lon="-1.41982">
        <ele>56.5</ele>
        <time>2021-09-21T08:07:28Z</time>
      </trkpt>
      <trkpt lat="46.51725" lon="-1.41982">
        <ele>56.5</ele>
        <time>2021-09-21T08:07:29Z</time>
      </trkpt>
      <trkpt lat="46.51724" lon="-1.41983">
        <ele>56.5</ele>
        <time>2021-09-21T08:07:30Z</time>
      </trkpt>
      <trkpt lat="46.51723" lon="-1.41983">
        <ele>56.5</ele>
        <time>2021-09-21T08:07:31Z</time>
      </trkpt>
      <trkpt lat="46.51721" lon="-1.41984">
        <ele>56.6</ele>
        <time>2021-09-21T08:07:32Z</time>
      </trkpt>
      <trkpt lat="46.5172" lon="-1.41984">
        <ele>56.6</ele>
        <time>2021-09-21T08:07:33Z</time>
      </trkpt>
      <trkpt lat="46.51719" lon="-1.41985">
        <ele>56.6</ele>
        <time>2021-09-21T08:07:34Z</time>
      </trkpt>
      <trkpt lat="46.51718" lon="-1.41985">
        <ele>56.6</ele>
        <time>2021-09-21T08:07:35Z</time>
      </trkpt>
      <trkpt lat="46.51717" lon="-1.41986">
        <ele>56.6</ele>
        <time>2021-09-21T08:07:36Z</time>
      </trkpt>
      <trkpt lat="46.51716" lon="-1.41986">
        <ele>56.7</ele>
        <time>2021-09-21T08:07:37Z</time>
      </trkpt>
      <trkpt lat="46.51715" lon="-1.41987">
        <ele>56.7</ele>
        <time>2021-09-21T08:07:38Z</time>
      </trkpt>
      <trkpt lat="46.51714" lon="-1.41987">
        <ele>56.7</ele>
        <time>2021-09-21T08:07:39Z</time>
      </trkpt>
      <trkpt lat="46.51712" lon="-1.41988">
        <ele>56.7</ele>
        <time>2021-09-21T08:07:40Z</time>
      </trkpt>
      <trkpt lat="46.51711" lon="-1.41988">
        <ele>56.7</ele>
        <time>2021-09-21T08:07:41Z</time>
      </trkpt>
      <trkpt lat="46.5171" lon="-1.41989">
        <ele>56.8</ele>
        <time>2021-09-21T08:07:42Z</time>
      </trkpt>
      <trkpt lat="46.51709" lon="-1.41989">
        <ele>56.8</ele>
        <time>2021-09-21T08:07:43Z</time>
      </trkpt>
      <trkpt lat="46.51708" lon="-1.4199">
        <ele>56.8</ele>
        <time>2021-09-21T08:07:44Z</time>
      </trkpt>
      <trkpt lat="46.51707" lon="-1.4199">
        <ele>56.8</ele>
        <time>2021-09-21T08:07:45Z</time>
      </trkpt>
      <trkpt lat="46.51706" lon="-1.41991">
        <ele>56.9</ele>
        <time>2021-09-21T08:07:46Z</time>
      </trkpt>
      <trkpt lat="46.51705" lon="-1.41992">
        <ele>56.9</ele>
        <time>2021-09-21T08:07:47Z</time>
      </trkpt>
      <trkpt lat="46.51703" lon="-1.41992">
        <ele>56.9</ele>
        <time>2021-09-21T08:07:48Z</time>
      </trkpt>
      <trkpt lat="46.51702" lon="-1.41993">
        <ele>56.9</ele>
        <time>2021-09-21T08:07:49Z</time>
      </trkpt>
      <trkpt lat="46.51701" lon="-1.41993">
        <ele>56.9</ele>
        <time>2021-09-21T08:07:50Z</time>
      </trkpt>
      <trkpt lat="46.517" lon="-1.41994">
        <ele>57</ele>
        <time>2021-09-21T08:07:51Z</time>
      </trkpt>
      <trkpt lat="46.51699" lon="-1.41995">
        <ele>57</ele>
        <time>2021-09-21T08:07:52Z</time>
      </trkpt>
      <trkpt lat="46.51698" lon="-1.41995">
        <ele>57</ele>
        <time>2021-09-21T08:07:53Z</time>
      </trkpt>
      <trkpt lat="46.51697" lon="-1.41996">
        <ele>57</ele>
        <time>2021-09-21T08:07:54Z</time>
      </trkpt>
      <trkpt lat="46.51696" lon="-1.41996">
        <ele>57</ele>
        <time>2021-09-21T08:07:55Z</time>
      </trkpt>
      <trkpt lat="46.51694" lon="-1.41997">
        <ele>57.1</ele>
        <time>2021-09-21T08:07:56Z</time>
      </trkpt>
      <trkpt lat="46.51693" lon="-1.41997">
        <ele>57.1</ele>
        <time>2021-09-21T08:07:57Z</time>
      </trkpt>
      <trkpt lat="46.51692" lon="-1.41998">
        <ele>57.1</ele>
        <time>2021-09-21T08:07:58Z</time>
      </trkpt>
      <trkpt lat="46.51691" lon="-1.41999">
        <ele>57.1</ele>
        <time>2021-09-21T08:07:59Z</time>
      </trkpt>
      <trkpt lat="46.5169" lon="-1.41999">
        <ele>57.1</ele>
        <time>2021-09-21T08:08:00Z</time>
      </trkpt>
      <trkpt lat="46.51689" lon="-1.42">
        <ele>57.1</ele>
        <time>2021-09-21T08:08:01Z</time>
      </trkpt>
      <trkpt lat="46.51687" lon="-1.42">
        <ele>57.1</ele>
        <time>2021-09-21T08:08:02Z</time>
      </trkpt>
      <trkpt lat="46.51686" lon="-1.42001">
        <ele>57.2</ele>
        <time>2021-09-21T08:08:03Z</time>
      </trkpt>
      <trkpt lat="46.51685" lon="-1.42002">
        <ele>57.2</ele>
        <time>2021-09-21T08:08:04Z</time>
      </trkpt>
      <trkpt lat="46.51684" lon="-1.42002">
        <ele>57.2</ele>
        <time>2021-09-21T08:08:05Z</time>
      </trkpt>
      <trkpt lat="46.51683" lon="-1.42003">
        <ele>57.2</ele>
        <time>2021-09-21T08:08:06Z</time>
      </trkpt>
      <trkpt lat="46.51682" lon="-1.42003">
        <ele>57.2</ele>
        <time>2021-09-21T08:08:07Z</time>
      </trkpt>
      <trkpt lat="46.5168" lon="-1.42004">
        <ele>57.2</ele>
        <time>2021-09-21T08:08:08Z</time>
      </trkpt>
      <trkpt lat="46.51679" lon="-1.42005">
        <ele>57.2</ele>
        <time>2021-09-21T08:08:09Z</time>
      </trkpt>
      <trkpt lat="46.51678" lon="-1.42005">
        <ele>57.3</ele>
        <time>2021-09-21T08:08:10Z</time>
      </trkpt>
      <trkpt lat="46.51677" lon="-1.42006">
        <ele>57.3</ele>
        <time>2021-09-21T08:08:11Z</time>
      </trkpt>
      <trkpt lat="46.51676" lon="-1.42006">
        <ele>57.3</ele>
        <time>2021-09-21T08:08:12Z</time>
      </trkpt>
      <trkpt lat="46.51675" lon="-1.42007">
        <ele>57.3</ele>
        <time>2021-09-21T08:08:13Z</time>
      </trkpt>
      <trkpt lat="46.51673" lon="-1.42008">
        <ele>57.3</ele>
        <time>2021-09-21T08:08:14Z</time>
      </trkpt>
      <trkpt lat="46.51672" lon="-1.42008">
        <ele>57.4</ele>
        <time>2021-09-21T08:08:15Z</time>
      </trkpt>
      <trkpt lat="46.51671" lon="-1.42009">
        <ele>57.4</ele>
        <time>2021-09-21T08:08:16Z</time>
      </trkpt>
      <trkpt lat="46.5167" lon="-1.42009">
        <ele>57.4</ele>
        <time>2021-09-21T08:08:17Z</time>
      </trkpt>
      <trkpt lat="46.51669" lon="-1.4201">
        <ele>57.4</ele>
        <time>2021-09-21T08:08:18Z</time>
      </trkpt>
      <trkpt lat="46.51668" lon="-1.4201">
        <ele>57.5</ele>
        <time>2021-09-21T08:08:19Z</time>
      </trkpt>
      <trkpt lat="46.51666" lon="-1.42011">
        <ele>57.5</ele>
        <time>2021-09-21T08:08:20Z</time>
      </trkpt>
      <trkpt lat="46.51665" lon="-1.42012">
        <ele>57.5</ele>
        <time>2021-09-21T08:08:21Z</time>
      </trkpt>
      <trkpt lat="46.51664" lon="-1.42012">
        <ele>57.5</ele>
        <time>2021-09-21T08:08:22Z</time>
      </trkpt>
      <trkpt lat="46.51663" lon="-1.42013">
        <ele>57.6</ele>
        <time>2021-09-21T08:08:23Z</time>
      </trkpt>
      <trkpt lat="46.51662" lon="-1.42013">
        <ele>57.6</ele>
        <time>2021-09-21T08:08:24Z</time>
      </trkpt>
      <trkpt lat="46.5166" lon="-1.42014">
        <ele>57.6</ele>
        <time>2021-09-21T08:08:25Z</time>
      </trkpt>
      <trkpt lat="46.51659" lon="-1.42014">
        <ele>57.6</ele>
        <time>2021-09-21T08:08:26Z</time>
      </trkpt>
      <trkpt lat="46.51658" lon="-1.42015">
        <ele>57.6</ele>
        <time>2021-09-21T08:08:27Z</time>
      </trkpt>
      <trkpt lat="46.51657" lon="-1.42016">
        <ele>57.6</ele>
        <time>2021-09-21T08:08:28Z</time>
      </trkpt>
      <trkpt lat="46.51656" lon="-1.42016">
        <ele>57.6</ele>
        <time>2021-09-21T08:08:29Z</time>
      </trkpt>
      <trkpt lat="46.51655" lon="-1.42017">
        <ele>57.6</ele>
        <time>2021-09-21T08:08:30Z</time>
      </trkpt>
      <trkpt lat="46.51653" lon="-1.42017">
        <ele>57.6</ele>
        <time>2021-09-21T08:08:31Z</time>
      </trkpt>
      <trkpt lat="46.51652" lon="-1.42018">
        <ele>57.6</ele>
        <time>2021-09-21T08:08:32Z</time>
      </trkpt>
      <trkpt lat="46.51651" lon="-1.42018">
        <ele>57.7</ele>
        <time>2021-09-21T08:08:33Z</time>
      </trkpt>
      <trkpt lat="46.5165" lon="-1.42019">
        <ele>57.7</ele>
        <time>2021-09-21T08:08:34Z</time>
      </trkpt>
      <trkpt lat="46.51649" lon="-1.42019">
        <ele>57.7</ele>
        <time>2021-09-21T08:08:35Z</time>
      </trkpt>
      <trkpt lat="46.51648" lon="-1.4202">
        <ele>57.7</ele>
        <time>2021-09-21T08:08:36Z</time>
      </trkpt>
      <trkpt lat="46.51646" lon="-1.4202">
        <ele>57.7</ele>
        <time>2021-09-21T08:08:37Z</time>
      </trkpt>
      <trkpt lat="46.51645" lon="-1.42021">
        <ele>57.7</ele>
        <time>2021-09-21T08:08:38Z</time>
      </trkpt>
      <trkpt lat="46.51644" lon="-1.42022">
        <ele>57.7</ele>
        <time>2021-09-21T08:08:39Z</time>
      </trkpt>
      <trkpt lat="46.51643" lon="-1.42022">
        <ele>57.7</ele>
        <time>2021-09-21T08:08:40Z</time>
      </trkpt>
      <trkpt lat="46.51642" lon="-1.42023">
        <ele>57.7</ele>
        <time>2021-09-21T08:08:41Z</time>
      </trkpt>
      <trkpt lat="46.51641" lon="-1.42023">
        <ele>57.7</ele>
        <time>2021-09-21T08:08:42Z</time>
      </trkpt>
      <trkpt lat="46.5164" lon="-1.42024">
        <ele>57.8</ele>
        <time>2021-09-21T08:08:43Z</time>
      </trkpt>
      <trkpt lat="46.51638" lon="-1.42024">
        <ele>57.8</ele>
        <time>2021-09-21T08:08:44Z</time>
      </trkpt>
      <trkpt lat="46.51637" lon="-1.42025">
        <ele>57.8</ele>
        <time>2021-09-21T08:08:45Z</time>
      </trkpt>
      <trkpt lat="46.51636" lon="-1.42025">
        <ele>57.8</ele>
        <time>2021-09-21T08:08:46Z</time>
      </trkpt>
      <trkpt lat="46.51635" lon="-1.42026">
        <ele>57.8</ele>
        <time>2021-09-21T08:08:47Z</time>
      </trkpt>
      <trkpt lat="46.51634" lon="-1.42027">
        <ele>57.8</ele>
        <time>2021-09-21T08:08:48Z</time>
      </trkpt>
      <trkpt lat="46.51633" lon="-1.42027">
        <ele>57.9</ele>
        <time>2021-09-21T08:08:49Z</time>
      </trkpt>
      <trkpt lat="46.51631" lon="-1.42028">
        <ele>57.9</ele>
        <time>2021-09-21T08:08:50Z</time>
      </trkpt>
      <trkpt lat="46.5163" lon="-1.42028">
        <ele>57.9</ele>
        <time>2021-09-21T08:08:51Z</time>
      </trkpt>
      <trkpt lat="46.51629" lon="-1.42029">
        <ele>58</ele>
        <time>2021-09-21T08:08:52Z</time>
      </trkpt>
      <trkpt lat="46.51628" lon="-1.4203">
        <ele>58</ele>
        <time>2021-09-21T08:08:53Z</time>
      </trkpt>
      <trkpt lat="46.51627" lon="-1.4203">
        <ele>58</ele>
        <time>2021-09-21T08:08:54Z</time>
      </trkpt>
      <trkpt lat="46.51625" lon="-1.42031">
        <ele>58</ele>
        <time>2021-09-21T08:08:55Z</time>
      </trkpt>
      <trkpt lat="46.51624" lon="-1.42031">
        <ele>58.1</ele>
        <time>2021-09-21T08:08:56Z</time>
      </trkpt>
      <trkpt lat="46.51623" lon="-1.42032">
        <ele>58.1</ele>
        <time>2021-09-21T08:08:57Z</time>
      </trkpt>
      <trkpt lat="46.51622" lon="-1.42033">
        <ele>58.1</ele>
        <time>2021-09-21T08:08:58Z</time>
      </trkpt>
      <trkpt lat="46.51621" lon="-1.42033">
        <ele>58.1</ele>
        <time>2021-09-21T08:08:59Z</time>
      </trkpt>
      <trkpt lat="46.51619" lon="-1.42034">
        <ele>58.2</ele>
        <time>2021-09-21T08:09:00Z</time>
      </trkpt>
      <trkpt lat="46.51618" lon="-1.42035">
        <ele>58.2</ele>
        <time>2021-09-21T08:09:01Z</time>
      </trkpt>
      <trkpt lat="46.51617" lon="-1.42035">
        <ele>58.2</ele>
        <time>2021-09-21T08:09:02Z</time>
      </trkpt>
      <trkpt lat="46.51616" lon="-1.42036">
        <ele>58.2</ele>
        <time>2021-09-21T08:09:03Z</time>
      </trkpt>
      <trkpt lat="46.51615" lon="-1.42036">
        <ele>58.3</ele>
        <time>2021-09-21T08:09:04Z</time>
      </trkpt>
      <trkpt lat="46.51614" lon="-1.42037">
        <ele>58.3</ele>
        <time>2021-09-21T08:09:05Z</time>
      </trkpt>
      <trkpt lat="46.51612" lon="-1.42037">
        <ele>58.3</ele>
        <time>2021-09-21T08:09:06Z</time>
      </trkpt>
      <trkpt lat="46.51611" lon="-1.42038">
        <ele>58.3</ele>
        <time>2021-09-21T08:09:07Z</time>
      </trkpt>
      <trkpt lat="46.5161" lon="-1.42039">
        <ele>58.4</ele>
        <time>2021-09-21T08:09:08Z</time>
      </trkpt>
      <trkpt lat="46.51609" lon="-1.42039">
        <ele>58.4</ele>
        <time>2021-09-21T08:09:09Z</time>
      </trkpt>
      <trkpt lat="46.51608" lon="-1.4204">
        <ele>58.4</ele>
        <time>2021-09-21T08:09:10Z</time>
      </trkpt>
      <trkpt lat="46.51607" lon="-1.4204">
        <ele>58.4</ele>
        <time>2021-09-21T08:09:11Z</time>
      </trkpt>
      <trkpt lat="46.51606" lon="-1.42041">
        <ele>58.4</ele>
        <time>2021-09-21T08:09:12Z</time>
      </trkpt>
      <trkpt lat="46.51605" lon="-1.42041">
        <ele>58.5</ele>
        <time>2021-09-21T08:09:13Z</time>
      </trkpt>
      <trkpt lat="46.51603" lon="-1.42042">
        <ele>58.5</ele>
        <time>2021-09-21T08:09:14Z</time>
      </trkpt>
      <trkpt lat="46.51602" lon="-1.42042">
        <ele>58.5</ele>
        <time>2021-09-21T08:09:15Z</time>
      </trkpt>
      <trkpt lat="46.51601" lon="-1.42043">
        <ele>58.5</ele>
        <time>2021-09-21T08:09:16Z</time>
      </trkpt>
      <trkpt lat="46.516" lon="-1.42043">
        <ele>58.6</ele>
        <time>2021-09-21T08:09:17Z</time>
      </trkpt>
      <trkpt lat="46.51599" lon="-1.42044">
        <ele>58.6</ele>
        <time>2021-09-21T08:09:18Z</time>
      </trkpt>
      <trkpt lat="46.51598" lon="-1.42044">
        <ele>58.6</ele>
        <time>2021-09-21T08:09:19Z</time>
      </trkpt>
      <trkpt lat="46.51597" lon="-1.42045">
        <ele>58.6</ele>
        <time>2021-09-21T08:09:20Z</time>
      </trkpt>
      <trkpt lat="46.51595" lon="-1.42045">
        <ele>58.6</ele>
        <time>2021-09-21T08:09:21Z</time>
      </trkpt>
      <trkpt lat="46.51594" lon="-1.42046">
        <ele>58.7</ele>
        <time>2021-09-21T08:09:22Z</time>
      </trkpt>
      <trkpt lat="46.51593" lon="-1.42046">
        <ele>58.7</ele>
        <time>2021-09-21T08:09:23Z</time>
      </trkpt>
      <trkpt lat="46.51592" lon="-1.42047">
        <ele>58.7</ele>
        <time>2021-09-21T08:09:24Z</time>
      </trkpt>
      <trkpt lat="46.5159" lon="-1.42047">
        <ele>58.7</ele>
        <time>2021-09-21T08:09:25Z</time>
      </trkpt>
      <trkpt lat="46.51589" lon="-1.42048">
        <ele>58.8</ele>
        <time>2021-09-21T08:09:26Z</time>
      </trkpt>
      <trkpt lat="46.51588" lon="-1.42049">
        <ele>58.8</ele>
        <time>2021-09-21T08:09:27Z</time>
      </trkpt>
      <trkpt lat="46.51587" lon="-1.42049">
        <ele>58.8</ele>
        <time>2021-09-21T08:09:28Z</time>
      </trkpt>
      <trkpt lat="46.51585" lon="-1.4205">
        <ele>58.8</ele>
        <time>2021-09-21T08:09:29Z</time>
      </trkpt>
      <trkpt lat="46.51584" lon="-1.4205">
        <ele>58.8</ele>
        <time>2021-09-21T08:09:30Z</time>
      </trkpt>
      <trkpt lat="46.51583" lon="-1.42051">
        <ele>58.9</ele>
        <time>2021-09-21T08:09:31Z</time>
      </trkpt>
      <trkpt lat="46.51582" lon="-1.42051">
        <ele>58.9</ele>
        <time>2021-09-21T08:09:32Z</time>
      </trkpt>
      <trkpt lat="46.5158" lon="-1.42052">
        <ele>58.9</ele>
        <time>2021-09-21T08:09:33Z</time>
      </trkpt>
      <trkpt lat="46.51579" lon="-1.42053">
        <ele>58.9</ele>
        <time>2021-09-21T08:09:34Z</time>
      </trkpt>
      <trkpt lat="46.51578" lon="-1.42053">
        <ele>58.9</ele>
        <time>2021-09-21T08:09:35Z</time>
      </trkpt>
      <trkpt lat="46.51577" lon="-1.42054">
        <ele>58.9</ele>
        <time>2021-09-21T08:09:36Z</time>
      </trkpt>
      <trkpt lat="46.51575" lon="-1.42054">
        <ele>59</ele>
        <time>2021-09-21T08:09:37Z</time>
      </trkpt>
      <trkpt lat="46.51574" lon="-1.42055">
        <ele>59</ele>
        <time>2021-09-21T08:09:38Z</time>
      </trkpt>
      <trkpt lat="46.51573" lon="-1.42055">
        <ele>59</ele>
        <time>2021-09-21T08:09:39Z</time>
      </trkpt>
      <trkpt lat="46.51572" lon="-1.42056">
        <ele>59</ele>
        <time>2021-09-21T08:09:40Z</time>
      </trkpt>
      <trkpt lat="46.51571" lon="-1.42056">
        <ele>59</ele>
        <time>2021-09-21T08:09:41Z</time>
      </trkpt>
      <trkpt lat="46.51569" lon="-1.42057">
        <ele>59</ele>
        <time>2021-09-21T08:09:42Z</time>
      </trkpt>
      <trkpt lat="46.51568" lon="-1.42057">
        <ele>59</ele>
        <time>2021-09-21T08:09:43Z</time>
      </trkpt>
      <trkpt lat="46.51567" lon="-1.42058">
        <ele>59</ele>
        <time>2021-09-21T08:09:44Z</time>
      </trkpt>
      <trkpt lat="46.51566" lon="-1.42058">
        <ele>59</ele>
        <time>2021-09-21T08:09:45Z</time>
      </trkpt>
      <trkpt lat="46.51565" lon="-1.42059">
        <ele>59.1</ele>
        <time>2021-09-21T08:09:46Z</time>
      </trkpt>
      <trkpt lat="46.51564" lon="-1.42059">
        <ele>59.1</ele>
        <time>2021-09-21T08:09:47Z</time>
      </trkpt>
      <trkpt lat="46.51562" lon="-1.4206">
        <ele>59.1</ele>
        <time>2021-09-21T08:09:48Z</time>
      </trkpt>
      <trkpt lat="46.51561" lon="-1.4206">
        <ele>59.1</ele>
        <time>2021-09-21T08:09:49Z</time>
      </trkpt>
      <trkpt lat="46.5156" lon="-1.42061">
        <ele>59.1</ele>
        <time>2021-09-21T08:09:50Z</time>
      </trkpt>
      <trkpt lat="46.51559" lon="-1.42061">
        <ele>59.2</ele>
        <time>2021-09-21T08:09:51Z</time>
      </trkpt>
      <trkpt lat="46.51558" lon="-1.42062">
        <ele>59.2</ele>
        <time>2021-09-21T08:09:52Z</time>
      </trkpt>
      <trkpt lat="46.51557" lon="-1.42062">
        <ele>59.2</ele>
        <time>2021-09-21T08:09:53Z</time>
      </trkpt>
      <trkpt lat="46.51555" lon="-1.42063">
        <ele>59.2</ele>
        <time>2021-09-21T08:09:54Z</time>
      </trkpt>
      <trkpt lat="46.51554" lon="-1.42064">
        <ele>59.3</ele>
        <time>2021-09-21T08:09:55Z</time>
      </trkpt>
      <trkpt lat="46.51553" lon="-1.42064">
        <ele>59.3</ele>
        <time>2021-09-21T08:09:56Z</time>
      </trkpt>
      <trkpt lat="46.51552" lon="-1.42065">
        <ele>59.3</ele>
        <time>2021-09-21T08:09:57Z</time>
      </trkpt>
      <trkpt lat="46.51551" lon="-1.42065">
        <ele>59.4</ele>
        <time>2021-09-21T08:09:58Z</time>
      </trkpt>
      <trkpt lat="46.5155" lon="-1.42066">
        <ele>59.4</ele>
        <time>2021-09-21T08:09:59Z</time>
      </trkpt>
      <trkpt lat="46.51548" lon="-1.42066">
        <ele>59.4</ele>
        <time>2021-09-21T08:10:00Z</time>
      </trkpt>
      <trkpt lat="46.51547" lon="-1.42067">
        <ele>59.5</ele>
        <time>2021-09-21T08:10:01Z</time>
      </trkpt>
      <trkpt lat="46.51546" lon="-1.42067">
        <ele>59.5</ele>
        <time>2021-09-21T08:10:02Z</time>
      </trkpt>
      <trkpt lat="46.51545" lon="-1.42068">
        <ele>59.5</ele>
        <time>2021-09-21T08:10:03Z</time>
      </trkpt>
      <trkpt lat="46.51544" lon="-1.42068">
        <ele>59.5</ele>
        <time>2021-09-21T08:10:04Z</time>
      </trkpt>
      <trkpt lat="46.51543" lon="-1.42069">
        <ele>59.6</ele>
        <time>2021-09-21T08:10:05Z</time>
      </trkpt>
      <trkpt lat="46.51541" lon="-1.42069">
        <ele>59.6</ele>
        <time>2021-09-21T08:10:06Z</time>
      </trkpt>
      <trkpt lat="46.5154" lon="-1.4207">
        <ele>59.6</ele>
        <time>2021-09-21T08:10:07Z</time>
      </trkpt>
      <trkpt lat="46.51539" lon="-1.4207">
        <ele>59.7</ele>
        <time>2021-09-21T08:10:08Z</time>
      </trkpt>
      <trkpt lat="46.51538" lon="-1.42071">
        <ele>59.7</ele>
        <time>2021-09-21T08:10:09Z</time>
      </trkpt>
      <trkpt lat="46.51536" lon="-1.42071">
        <ele>59.7</ele>
        <time>2021-09-21T08:10:10Z</time>
      </trkpt>
      <trkpt lat="46.51535" lon="-1.42072">
        <ele>59.7</ele>
        <time>2021-09-21T08:10:11Z</time>
      </trkpt>
      <trkpt lat="46.51534" lon="-1.42073">
        <ele>59.8</ele>
        <time>2021-09-21T08:10:12Z</time>
      </trkpt>
      <trkpt lat="46.51533" lon="-1.42073">
        <ele>59.8</ele>
        <time>2021-09-21T08:10:13Z</time>
      </trkpt>
      <trkpt lat="46.51532" lon="-1.42074">
        <ele>59.8</ele>
        <time>2021-09-21T08:10:14Z</time>
      </trkpt>
      <trkpt lat="46.5153" lon="-1.42074">
        <ele>59.8</ele>
        <time>2021-09-21T08:10:15Z</time>
      </trkpt>
      <trkpt lat="46.51529" lon="-1.42075">
        <ele>59.8</ele>
        <time>2021-09-21T08:10:16Z</time>
      </trkpt>
      <trkpt lat="46.51528" lon="-1.42075">
        <ele>59.8</ele>
        <time>2021-09-21T08:10:17Z</time>
      </trkpt>
      <trkpt lat="46.51527" lon="-1.42076">
        <ele>59.9</ele>
        <time>2021-09-21T08:10:18Z</time>
      </trkpt>
      <trkpt lat="46.51526" lon="-1.42076">
        <ele>59.9</ele>
        <time>2021-09-21T08:10:19Z</time>
      </trkpt>
      <trkpt lat="46.51524" lon="-1.42077">
        <ele>59.9</ele>
        <time>2021-09-21T08:10:20Z</time>
      </trkpt>
      <trkpt lat="46.51523" lon="-1.42078">
        <ele>59.9</ele>
        <time>2021-09-21T08:10:21Z</time>
      </trkpt>
      <trkpt lat="46.51522" lon="-1.42078">
        <ele>59.9</ele>
        <time>2021-09-21T08:10:22Z</time>
      </trkpt>
      <trkpt lat="46.51521" lon="-1.42079">
        <ele>60</ele>
        <time>2021-09-21T08:10:23Z</time>
      </trkpt>
      <trkpt lat="46.5152" lon="-1.42079">
        <ele>60</ele>
        <time>2021-09-21T08:10:24Z</time>
      </trkpt>
      <trkpt lat="46.51519" lon="-1.4208">
        <ele>60</ele>
        <time>2021-09-21T08:10:25Z</time>
      </trkpt>
      <trkpt lat="46.51517" lon="-1.4208">
        <ele>60</ele>
        <time>2021-09-21T08:10:26Z</time>
      </trkpt>
      <trkpt lat="46.51516" lon="-1.42081">
        <ele>60</ele>
        <time>2021-09-21T08:10:27Z</time>
      </trkpt>
      <trkpt lat="46.51515" lon="-1.42081">
        <ele>60</ele>
        <time>2021-09-21T08:10:28Z</time>
      </trkpt>
      <trkpt lat="46.51514" lon="-1.42082">
        <ele>60.1</ele>
        <time>2021-09-21T08:10:29Z</time>
      </trkpt>
      <trkpt lat="46.51513" lon="-1.42082">
        <ele>60.1</ele>
        <time>2021-09-21T08:10:30Z</time>
      </trkpt>
      <trkpt lat="46.51512" lon="-1.42082">
        <ele>60.1</ele>
        <time>2021-09-21T08:10:31Z</time>
      </trkpt>
      <trkpt lat="46.5151" lon="-1.42083">
        <ele>60.1</ele>
        <time>2021-09-21T08:10:32Z</time>
      </trkpt>
      <trkpt lat="46.51509" lon="-1.42083">
        <ele>60.1</ele>
        <time>2021-09-21T08:10:33Z</time>
      </trkpt>
      <trkpt lat="46.51508" lon="-1.42084">
        <ele>60.1</ele>
        <time>2021-09-21T08:10:34Z</time>
      </trkpt>
      <trkpt lat="46.51507" lon="-1.42084">
        <ele>60.2</ele>
        <time>2021-09-21T08:10:35Z</time>
      </trkpt>
      <trkpt lat="46.51506" lon="-1.42084">
        <ele>60.2</ele>
        <time>2021-09-21T08:10:36Z</time>
      </trkpt>
      <trkpt lat="46.51504" lon="-1.42084">
        <ele>60.2</ele>
        <time>2021-09-21T08:10:37Z</time>
      </trkpt>
      <trkpt lat="46.51503" lon="-1.42084">
        <ele>60.2</ele>
        <time>2021-09-21T08:10:38Z</time>
      </trkpt>
      <trkpt lat="46.51502" lon="-1.42085">
        <ele>60.2</ele>
        <time>2021-09-21T08:10:39Z</time>
      </trkpt>
      <trkpt lat="46.51501" lon="-1.42085">
        <ele>60.2</ele>
        <time>2021-09-21T08:10:40Z</time>
      </trkpt>
      <trkpt lat="46.51499" lon="-1.42085">
        <ele>60.3</ele>
        <time>2021-09-21T08:10:41Z</time>
      </trkpt>
      <trkpt lat="46.51498" lon="-1.42085">
        <ele>60.3</ele>
        <time>2021-09-21T08:10:42Z</time>
      </trkpt>
      <trkpt lat="46.51497" lon="-1.42085">
        <ele>60.3</ele>
        <time>2021-09-21T08:10:43Z</time>
      </trkpt>
      <trkpt lat="46.51495" lon="-1.42085">
        <ele>60.4</ele>
        <time>2021-09-21T08:10:44Z</time>
      </trkpt>
      <trkpt lat="46.51494" lon="-1.42085">
        <ele>60.4</ele>
        <time>2021-09-21T08:10:45Z</time>
      </trkpt>
      <trkpt lat="46.51493" lon="-1.42085">
        <ele>60.4</ele>
        <time>2021-09-21T08:10:46Z</time>
      </trkpt>
      <trkpt lat="46.51491" lon="-1.42085">
        <ele>60.4</ele>
        <time>2021-09-21T08:10:47Z</time>
      </trkpt>
      <trkpt lat="46.5149" lon="-1.42085">
        <ele>60.5</ele>
        <time>2021-09-21T08:10:48Z</time>
      </trkpt>
      <trkpt lat="46.51489" lon="-1.42085">
        <ele>60.5</ele>
        <time>2021-09-21T08:10:49Z</time>
      </trkpt>
      <trkpt lat="46.51487" lon="-1.42086">
        <ele>60.5</ele>
        <time>2021-09-21T08:10:50Z</time>
      </trkpt>
      <trkpt lat="46.51486" lon="-1.42086">
        <ele>60.6</ele>
        <time>2021-09-21T08:10:51Z</time>
      </trkpt>
      <trkpt lat="46.51485" lon="-1.42086">
        <ele>60.6</ele>
        <time>2021-09-21T08:10:52Z</time>
      </trkpt>
      <trkpt lat="46.51484" lon="-1.42086">
        <ele>60.6</ele>
        <time>2021-09-21T08:10:53Z</time>
      </trkpt>
      <trkpt lat="46.51482" lon="-1.42086">
        <ele>60.7</ele>
        <time>2021-09-21T08:10:54Z</time>
      </trkpt>
      <trkpt lat="46.51481" lon="-1.42086">
        <ele>60.7</ele>
        <time>2021-09-21T08:10:55Z</time>
      </trkpt>
      <trkpt lat="46.5148" lon="-1.42087">
        <ele>60.7</ele>
        <time>2021-09-21T08:10:56Z</time>
      </trkpt>
      <trkpt lat="46.51479" lon="-1.42087">
        <ele>60.8</ele>
        <time>2021-09-21T08:10:57Z</time>
      </trkpt>
      <trkpt lat="46.51477" lon="-1.42087">
        <ele>60.8</ele>
        <time>2021-09-21T08:10:58Z</time>
      </trkpt>
      <trkpt lat="46.51476" lon="-1.42087">
        <ele>60.8</ele>
        <time>2021-09-21T08:10:59Z</time>
      </trkpt>
      <trkpt lat="46.51475" lon="-1.42088">
        <ele>60.8</ele>
        <time>2021-09-21T08:11:00Z</time>
      </trkpt>
      <trkpt lat="46.51474" lon="-1.42088">
        <ele>60.9</ele>
        <time>2021-09-21T08:11:01Z</time>
      </trkpt>
      <trkpt lat="46.51473" lon="-1.42088">
        <ele>60.9</ele>
        <time>2021-09-21T08:11:02Z</time>
      </trkpt>
      <trkpt lat="46.51472" lon="-1.42089">
        <ele>60.9</ele>
        <time>2021-09-21T08:11:03Z</time>
      </trkpt>
      <trkpt lat="46.51471" lon="-1.42089">
        <ele>60.9</ele>
        <time>2021-09-21T08:11:04Z</time>
      </trkpt>
      <trkpt lat="46.5147" lon="-1.4209">
        <ele>60.9</ele>
        <time>2021-09-21T08:11:05Z</time>
      </trkpt>
      <trkpt lat="46.51469" lon="-1.4209">
        <ele>60.9</ele>
        <time>2021-09-21T08:11:06Z</time>
      </trkpt>
      <trkpt lat="46.51468" lon="-1.42091">
        <ele>60.9</ele>
        <time>2021-09-21T08:11:07Z</time>
      </trkpt>
      <trkpt lat="46.51467" lon="-1.42092">
        <ele>60.9</ele>
        <time>2021-09-21T08:11:08Z</time>
      </trkpt>
      <trkpt lat="46.51466" lon="-1.42092">
        <ele>61</ele>
        <time>2021-09-21T08:11:09Z</time>
      </trkpt>
      <trkpt lat="46.51465" lon="-1.42093">
        <ele>61</ele>
        <time>2021-09-21T08:11:10Z</time>
      </trkpt>
      <trkpt lat="46.51464" lon="-1.42094">
        <ele>61</ele>
        <time>2021-09-21T08:11:11Z</time>
      </trkpt>
      <trkpt lat="46.51463" lon="-1.42094">
        <ele>61</ele>
        <time>2021-09-21T08:11:12Z</time>
      </trkpt>
      <trkpt lat="46.51462" lon="-1.42095">
        <ele>61</ele>
        <time>2021-09-21T08:11:13Z</time>
      </trkpt>
      <trkpt lat="46.51461" lon="-1.42096">
        <ele>61</ele>
        <time>2021-09-21T08:11:14Z</time>
      </trkpt>
      <trkpt lat="46.5146" lon="-1.42097">
        <ele>61</ele>
        <time>2021-09-21T08:11:15Z</time>
      </trkpt>
      <trkpt lat="46.51459" lon="-1.42097">
        <ele>61</ele>
        <time>2021-09-21T08:11:16Z</time>
      </trkpt>
      <trkpt lat="46.51458" lon="-1.42098">
        <ele>61.1</ele>
        <time>2021-09-21T08:11:17Z</time>
      </trkpt>
      <trkpt lat="46.51457" lon="-1.42099">
        <ele>61.1</ele>
        <time>2021-09-21T08:11:18Z</time>
      </trkpt>
      <trkpt lat="46.51456" lon="-1.42099">
        <ele>61.1</ele>
        <time>2021-09-21T08:11:19Z</time>
      </trkpt>
      <trkpt lat="46.51455" lon="-1.421">
        <ele>61.1</ele>
        <time>2021-09-21T08:11:20Z</time>
      </trkpt>
      <trkpt lat="46.51454" lon="-1.421">
        <ele>61.1</ele>
        <time>2021-09-21T08:11:21Z</time>
      </trkpt>
      <trkpt lat="46.51453" lon="-1.42101">
        <ele>61.1</ele>
        <time>2021-09-21T08:11:22Z</time>
      </trkpt>
      <trkpt lat="46.51452" lon="-1.42102">
        <ele>61.1</ele>
        <time>2021-09-21T08:11:23Z</time>
      </trkpt>
      <trkpt lat="46.51451" lon="-1.42102">
        <ele>61.2</ele>
        <time>2021-09-21T08:11:24Z</time>
      </trkpt>
      <trkpt lat="46.5145" lon="-1.42103">
        <ele>61.2</ele>
        <time>2021-09-21T08:11:25Z</time>
      </trkpt>
      <trkpt lat="46.51449" lon="-1.42104">
        <ele>61.2</ele>
        <time>2021-09-21T08:11:26Z</time>
      </trkpt>
      <trkpt lat="46.51448" lon="-1.42105">
        <ele>61.2</ele>
        <time>2021-09-21T08:11:27Z</time>
      </trkpt>
      <trkpt lat="46.51447" lon="-1.42105">
        <ele>61.2</ele>
        <time>2021-09-21T08:11:28Z</time>
      </trkpt>
      <trkpt lat="46.51446" lon="-1.42106">
        <ele>61.2</ele>
        <time>2021-09-21T08:11:29Z</time>
      </trkpt>
      <trkpt lat="46.51446" lon="-1.42106">
        <ele>61.2</ele>
        <time>2021-09-21T08:11:30Z</time>
      </trkpt>
      <trkpt lat="46.51445" lon="-1.42107">
        <ele>61.3</ele>
        <time>2021-09-21T08:11:31Z</time>
      </trkpt>
      <trkpt lat="46.51445" lon="-1.42107">
        <ele>61.3</ele>
        <time>2021-09-21T08:11:32Z</time>
      </trkpt>
      <trkpt lat="46.51444" lon="-1.42108">
        <ele>61.3</ele>
        <time>2021-09-21T08:11:33Z</time>
      </trkpt>
      <trkpt lat="46.51443" lon="-1.42108">
        <ele>61.3</ele>
        <time>2021-09-21T08:11:34Z</time>
      </trkpt>
      <trkpt lat="46.51442" lon="-1.42109">
        <ele>61.3</ele>
        <time>2021-09-21T08:11:35Z</time>
      </trkpt>
      <trkpt lat="46.51441" lon="-1.42109">
        <ele>61.3</ele>
        <time>2021-09-21T08:11:36Z</time>
      </trkpt>
      <trkpt lat="46.5144" lon="-1.4211">
        <ele>61.3</ele>
        <time>2021-09-21T08:11:37Z</time>
      </trkpt>
      <trkpt lat="46.51439" lon="-1.42111">
        <ele>61.4</ele>
        <time>2021-09-21T08:11:38Z</time>
      </trkpt>
      <trkpt lat="46.51438" lon="-1.42112">
        <ele>61.4</ele>
        <time>2021-09-21T08:11:39Z</time>
      </trkpt>
      <trkpt lat="46.51437" lon="-1.42112">
        <ele>61.4</ele>
        <time>2021-09-21T08:11:40Z</time>
      </trkpt>
      <trkpt lat="46.51436" lon="-1.42113">
        <ele>61.4</ele>
        <time>2021-09-21T08:11:41Z</time>
      </trkpt>
      <trkpt lat="46.51435" lon="-1.42114">
        <ele>61.4</ele>
        <time>2021-09-21T08:11:42Z</time>
      </trkpt>
      <trkpt lat="46.51434" lon="-1.42115">
        <ele>61.5</ele>
        <time>2021-09-21T08:11:43Z</time>
      </trkpt>
      <trkpt lat="46.51433" lon="-1.42116">
        <ele>61.5</ele>
        <time>2021-09-21T08:11:44Z</time>
      </trkpt>
      <trkpt lat="46.51432" lon="-1.42117">
        <ele>61.5</ele>
        <time>2021-09-21T08:11:45Z</time>
      </trkpt>
      <trkpt lat="46.5143" lon="-1.42118">
        <ele>61.5</ele>
        <time>2021-09-21T08:11:46Z</time>
      </trkpt>
      <trkpt lat="46.51429" lon="-1.42119">
        <ele>61.5</ele>
        <time>2021-09-21T08:11:47Z</time>
      </trkpt>
      <trkpt lat="46.51428" lon="-1.42119">
        <ele>61.5</ele>
        <time>2021-09-21T08:11:48Z</time>
      </trkpt>
      <trkpt lat="46.51427" lon="-1.4212">
        <ele>61.6</ele>
        <time>2021-09-21T08:11:49Z</time>
      </trkpt>
      <trkpt lat="46.51426" lon="-1.42121">
        <ele>61.6</ele>
        <time>2021-09-21T08:11:50Z</time>
      </trkpt>
      <trkpt lat="46.51425" lon="-1.42122">
        <ele>61.6</ele>
        <time>2021-09-21T08:11:51Z</time>
      </trkpt>
      <trkpt lat="46.51424" lon="-1.42123">
        <ele>61.6</ele>
        <time>2021-09-21T08:11:52Z</time>
      </trkpt>
      <trkpt lat="46.51422" lon="-1.42124">
        <ele>61.6</ele>
        <time>2021-09-21T08:11:53Z</time>
      </trkpt>
      <trkpt lat="46.51421" lon="-1.42125">
        <ele>61.7</ele>
        <time>2021-09-21T08:11:54Z</time>
      </trkpt>
      <trkpt lat="46.5142" lon="-1.42126">
        <ele>61.7</ele>
        <time>2021-09-21T08:11:55Z</time>
      </trkpt>
      <trkpt lat="46.51419" lon="-1.42127">
        <ele>61.7</ele>
        <time>2021-09-21T08:11:56Z</time>
      </trkpt>
      <trkpt lat="46.51418" lon="-1.42128">
        <ele>61.7</ele>
        <time>2021-09-21T08:11:57Z</time>
      </trkpt>
      <trkpt lat="46.51417" lon="-1.42129">
        <ele>61.7</ele>
        <time>2021-09-21T08:11:58Z</time>
      </trkpt>
      <trkpt lat="46.51416" lon="-1.4213">
        <ele>61.8</ele>
        <time>2021-09-21T08:11:59Z</time>
      </trkpt>
      <trkpt lat="46.51415" lon="-1.42131">
        <ele>61.8</ele>
        <time>2021-09-21T08:12:00Z</time>
      </trkpt>
      <trkpt lat="46.51413" lon="-1.42132">
        <ele>61.8</ele>
        <time>2021-09-21T08:12:01Z</time>
      </trkpt>
      <trkpt lat="46.51412" lon="-1.42133">
        <ele>61.8</ele>
        <time>2021-09-21T08:12:02Z</time>
      </trkpt>
      <trkpt lat="46.51411" lon="-1.42134">
        <ele>61.8</ele>
        <time>2021-09-21T08:12:03Z</time>
      </trkpt>
      <trkpt lat="46.5141" lon="-1.42135">
        <ele>61.9</ele>
        <time>2021-09-21T08:12:04Z</time>
      </trkpt>
      <trkpt lat="46.51409" lon="-1.42136">
        <ele>61.9</ele>
        <time>2021-09-21T08:12:05Z</time>
      </trkpt>
      <trkpt lat="46.51408" lon="-1.42137">
        <ele>61.9</ele>
        <time>2021-09-21T08:12:06Z</time>
      </trkpt>
      <trkpt lat="46.51407" lon="-1.42138">
        <ele>61.9</ele>
        <time>2021-09-21T08:12:07Z</time>
      </trkpt>
      <trkpt lat="46.51406" lon="-1.42139">
        <ele>61.9</ele>
        <time>2021-09-21T08:12:08Z</time>
      </trkpt>
      <trkpt lat="46.51405" lon="-1.4214">
        <ele>61.9</ele>
        <time>2021-09-21T08:12:09Z</time>
      </trkpt>
      <trkpt lat="46.51404" lon="-1.42141">
        <ele>62</ele>
        <time>2021-09-21T08:12:10Z</time>
      </trkpt>
      <trkpt lat="46.51403" lon="-1.42142">
        <ele>62</ele>
        <time>2021-09-21T08:12:11Z</time>
      </trkpt>
      <trkpt lat="46.51402" lon="-1.42143">
        <ele>62</ele>
        <time>2021-09-21T08:12:12Z</time>
      </trkpt>
      <trkpt lat="46.514" lon="-1.42144">
        <ele>62</ele>
        <time>2021-09-21T08:12:13Z</time>
      </trkpt>
      <trkpt lat="46.51399" lon="-1.42145">
        <ele>62</ele>
        <time>2021-09-21T08:12:14Z</time>
      </trkpt>
      <trkpt lat="46.51398" lon="-1.42146">
        <ele>62</ele>
        <time>2021-09-21T08:12:15Z</time>
      </trkpt>
      <trkpt lat="46.51397" lon="-1.42147">
        <ele>62</ele>
        <time>2021-09-21T08:12:16Z</time>
      </trkpt>
      <trkpt lat="46.51396" lon="-1.42148">
        <ele>62.1</ele>
        <time>2021-09-21T08:12:17Z</time>
      </trkpt>
      <trkpt lat="46.51395" lon="-1.42149">
        <ele>62.1</ele>
        <time>2021-09-21T08:12:18Z</time>
      </trkpt>
      <trkpt lat="46.51394" lon="-1.4215">
        <ele>62.1</ele>
        <time>2021-09-21T08:12:19Z</time>
      </trkpt>
      <trkpt lat="46.51393" lon="-1.42151">
        <ele>62.1</ele>
        <time>2021-09-21T08:12:20Z</time>
      </trkpt>
      <trkpt lat="46.51392" lon="-1.42152">
        <ele>62.1</ele>
        <time>2021-09-21T08:12:21Z</time>
      </trkpt>
      <trkpt lat="46.51391" lon="-1.42153">
        <ele>62.1</ele>
        <time>2021-09-21T08:12:22Z</time>
      </trkpt>
      <trkpt lat="46.51389" lon="-1.42154">
        <ele>62.1</ele>
        <time>2021-09-21T08:12:23Z</time>
      </trkpt>
      <trkpt lat="46.51388" lon="-1.42155">
        <ele>62.2</ele>
        <time>2021-09-21T08:12:24Z</time>
      </trkpt>
      <trkpt lat="46.51387" lon="-1.42156">
        <ele>62.2</ele>
        <time>2021-09-21T08:12:25Z</time>
      </trkpt>
      <trkpt lat="46.51386" lon="-1.42157">
        <ele>62.2</ele>
        <time>2021-09-21T08:12:26Z</time>
      </trkpt>
      <trkpt lat="46.51385" lon="-1.42158">
        <ele>62.2</ele>
        <time>2021-09-21T08:12:27Z</time>
      </trkpt>
      <trkpt lat="46.51384" lon="-1.42159">
        <ele>62.2</ele>
        <time>2021-09-21T08:12:28Z</time>
      </trkpt>
      <trkpt lat="46.51382" lon="-1.4216">
        <ele>62.2</ele>
        <time>2021-09-21T08:12:29Z</time>
      </trkpt>
      <trkpt lat="46.51381" lon="-1.42161">
        <ele>62.2</ele>
        <time>2021-09-21T08:12:30Z</time>
      </trkpt>
      <trkpt lat="46.5138" lon="-1.42162">
        <ele>62.3</ele>
        <time>2021-09-21T08:12:31Z</time>
      </trkpt>
      <trkpt lat="46.51379" lon="-1.42163">
        <ele>62.3</ele>
        <time>2021-09-21T08:12:32Z</time>
      </trkpt>
      <trkpt lat="46.51378" lon="-1.42164">
        <ele>62.3</ele>
        <time>2021-09-21T08:12:33Z</time>
      </trkpt>
      <trkpt lat="46.51377" lon="-1.42165">
        <ele>62.3</ele>
        <time>2021-09-21T08:12:34Z</time>
      </trkpt>
      <trkpt lat="46.51376" lon="-1.42166">
        <ele>62.3</ele>
        <time>2021-09-21T08:12:35Z</time>
      </trkpt>
      <trkpt lat="46.51375" lon="-1.42167">
        <ele>62.3</ele>
        <time>2021-09-21T08:12:36Z</time>
      </trkpt>
      <trkpt lat="46.51374" lon="-1.42168">
        <ele>62.3</ele>
        <time>2021-09-21T08:12:37Z</time>
      </trkpt>
      <trkpt lat="46.51373" lon="-1.42169">
        <ele>62.3</ele>
        <time>2021-09-21T08:12:38Z</time>
      </trkpt>
      <trkpt lat="46.51372" lon="-1.4217">
        <ele>62.3</ele>
        <time>2021-09-21T08:12:39Z</time>
      </trkpt>
      <trkpt lat="46.51371" lon="-1.42171">
        <ele>62.3</ele>
        <time>2021-09-21T08:12:40Z</time>
      </trkpt>
      <trkpt lat="46.5137" lon="-1.42172">
        <ele>62.3</ele>
        <time>2021-09-21T08:12:41Z</time>
      </trkpt>
      <trkpt lat="46.51369" lon="-1.42173">
        <ele>62.3</ele>
        <time>2021-09-21T08:12:42Z</time>
      </trkpt>
      <trkpt lat="46.51368" lon="-1.42174">
        <ele>62.3</ele>
        <time>2021-09-21T08:12:43Z</time>
      </trkpt>
      <trkpt lat="46.51367" lon="-1.42174">
        <ele>62.3</ele>
        <time>2021-09-21T08:12:44Z</time>
      </trkpt>
      <trkpt lat="46.51366" lon="-1.42175">
        <ele>62.3</ele>
        <time>2021-09-21T08:12:45Z</time>
      </trkpt>
      <trkpt lat="46.51365" lon="-1.42176">
        <ele>62.3</ele>
        <time>2021-09-21T08:12:46Z</time>
      </trkpt>
      <trkpt lat="46.51364" lon="-1.42177">
        <ele>62.3</ele>
        <time>2021-09-21T08:12:47Z</time>
      </trkpt>
      <trkpt lat="46.51363" lon="-1.42178">
        <ele>62.3</ele>
        <time>2021-09-21T08:12:48Z</time>
      </trkpt>
      <trkpt lat="46.51362" lon="-1.42179">
        <ele>62.3</ele>
        <time>2021-09-21T08:12:49Z</time>
      </trkpt>
      <trkpt lat="46.51361" lon="-1.4218">
        <ele>62.3</ele>
        <time>2021-09-21T08:12:50Z</time>
      </trkpt>
      <trkpt lat="46.5136" lon="-1.4218">
        <ele>62.3</ele>
        <time>2021-09-21T08:12:51Z</time>
      </trkpt>
      <trkpt lat="46.51359" lon="-1.42181">
        <ele>62.3</ele>
        <time>2021-09-21T08:12:52Z</time>
      </trkpt>
      <trkpt lat="46.51358" lon="-1.42182">
        <ele>62.3</ele>
        <time>2021-09-21T08:12:53Z</time>
      </trkpt>
      <trkpt lat="46.51357" lon="-1.42183">
        <ele>62.3</ele>
        <time>2021-09-21T08:12:54Z</time>
      </trkpt>
      <trkpt lat="46.51356" lon="-1.42184">
        <ele>62.3</ele>
        <time>2021-09-21T08:12:55Z</time>
      </trkpt>
      <trkpt lat="46.51355" lon="-1.42185">
        <ele>62.3</ele>
        <time>2021-09-21T08:12:56Z</time>
      </trkpt>
      <trkpt lat="46.51354" lon="-1.42185">
        <ele>62.3</ele>
        <time>2021-09-21T08:12:57Z</time>
      </trkpt>
      <trkpt lat="46.51353" lon="-1.42186">
        <ele>62.3</ele>
        <time>2021-09-21T08:12:58Z</time>
      </trkpt>
      <trkpt lat="46.51352" lon="-1.42187">
        <ele>62.3</ele>
        <time>2021-09-21T08:12:59Z</time>
      </trkpt>
      <trkpt lat="46.51351" lon="-1.42188">
        <ele>62.4</ele>
        <time>2021-09-21T08:13:00Z</time>
      </trkpt>
      <trkpt lat="46.5135" lon="-1.42189">
        <ele>62.4</ele>
        <time>2021-09-21T08:13:01Z</time>
      </trkpt>
      <trkpt lat="46.51349" lon="-1.4219">
        <ele>62.4</ele>
        <time>2021-09-21T08:13:02Z</time>
      </trkpt>
      <trkpt lat="46.51348" lon="-1.42191">
        <ele>62.4</ele>
        <time>2021-09-21T08:13:03Z</time>
      </trkpt>
      <trkpt lat="46.51347" lon="-1.42191">
        <ele>62.4</ele>
        <time>2021-09-21T08:13:04Z</time>
      </trkpt>
      <trkpt lat="46.51346" lon="-1.42192">
        <ele>62.4</ele>
        <time>2021-09-21T08:13:05Z</time>
      </trkpt>
      <trkpt lat="46.51345" lon="-1.42193">
        <ele>62.4</ele>
        <time>2021-09-21T08:13:06Z</time>
      </trkpt>
      <trkpt lat="46.51344" lon="-1.42194">
        <ele>62.5</ele>
        <time>2021-09-21T08:13:07Z</time>
      </trkpt>
      <trkpt lat="46.51343" lon="-1.42195">
        <ele>62.5</ele>
        <time>2021-09-21T08:13:08Z</time>
      </trkpt>
      <trkpt lat="46.51342" lon="-1.42196">
        <ele>62.5</ele>
        <time>2021-09-21T08:13:09Z</time>
      </trkpt>
      <trkpt lat="46.51341" lon="-1.42197">
        <ele>62.5</ele>
        <time>2021-09-21T08:13:10Z</time>
      </trkpt>
      <trkpt lat="46.5134" lon="-1.42198">
        <ele>62.5</ele>
        <time>2021-09-21T08:13:11Z</time>
      </trkpt>
      <trkpt lat="46.51339" lon="-1.42198">
        <ele>62.6</ele>
        <time>2021-09-21T08:13:12Z</time>
      </trkpt>
      <trkpt lat="46.51338" lon="-1.42199">
        <ele>62.6</ele>
        <time>2021-09-21T08:13:13Z</time>
      </trkpt>
      <trkpt lat="46.51337" lon="-1.422">
        <ele>62.6</ele>
        <time>2021-09-21T08:13:14Z</time>
      </trkpt>
      <trkpt lat="46.51336" lon="-1.42201">
        <ele>62.7</ele>
        <time>2021-09-21T08:13:15Z</time>
      </trkpt>
      <trkpt lat="46.51335" lon="-1.42201">
        <ele>62.7</ele>
        <time>2021-09-21T08:13:16Z</time>
      </trkpt>
      <trkpt lat="46.51334" lon="-1.42202">
        <ele>62.7</ele>
        <time>2021-09-21T08:13:17Z</time>
      </trkpt>
      <trkpt lat="46.51333" lon="-1.42202">
        <ele>62.7</ele>
        <time>2021-09-21T08:13:18Z</time>
      </trkpt>
      <trkpt lat="46.51332" lon="-1.42203">
        <ele>62.7</ele>
        <time>2021-09-21T08:13:19Z</time>
      </trkpt>
      <trkpt lat="46.51331" lon="-1.42204">
        <ele>62.8</ele>
        <time>2021-09-21T08:13:20Z</time>
      </trkpt>
      <trkpt lat="46.5133" lon="-1.42205">
        <ele>62.8</ele>
        <time>2021-09-21T08:13:21Z</time>
      </trkpt>
      <trkpt lat="46.5133" lon="-1.42206">
        <ele>62.8</ele>
        <time>2021-09-21T08:13:22Z</time>
      </trkpt>
      <trkpt lat="46.51329" lon="-1.42207">
        <ele>62.8</ele>
        <time>2021-09-21T08:13:23Z</time>
      </trkpt>
      <trkpt lat="46.51329" lon="-1.42208">
        <ele>62.8</ele>
        <time>2021-09-21T08:13:24Z</time>
      </trkpt>
      <trkpt lat="46.51328" lon="-1.42209">
        <ele>62.9</ele>
        <time>2021-09-21T08:13:25Z</time>
      </trkpt>
      <trkpt lat="46.51328" lon="-1.4221">
        <ele>62.9</ele>
        <time>2021-09-21T08:13:26Z</time>
      </trkpt>
      <trkpt lat="46.51327" lon="-1.42211">
        <ele>62.9</ele>
        <time>2021-09-21T08:13:27Z</time>
      </trkpt>
      <trkpt lat="46.51326" lon="-1.42212">
        <ele>62.9</ele>
        <time>2021-09-21T08:13:28Z</time>
      </trkpt>
      <trkpt lat="46.51325" lon="-1.42213">
        <ele>63</ele>
        <time>2021-09-21T08:13:29Z</time>
      </trkpt>
      <trkpt lat="46.51324" lon="-1.42214">
        <ele>63</ele>
        <time>2021-09-21T08:13:30Z</time>
      </trkpt>
      <trkpt lat="46.51323" lon="-1.42215">
        <ele>63</ele>
        <time>2021-09-21T08:13:31Z</time>
      </trkpt>
      <trkpt lat="46.51322" lon="-1.42216">
        <ele>63</ele>
        <time>2021-09-21T08:13:32Z</time>
      </trkpt>
      <trkpt lat="46.51321" lon="-1.42217">
        <ele>63</ele>
        <time>2021-09-21T08:13:33Z</time>
      </trkpt>
      <trkpt lat="46.5132" lon="-1.42218">
        <ele>63</ele>
        <time>2021-09-21T08:13:34Z</time>
      </trkpt>
      <trkpt lat="46.51319" lon="-1.42219">
        <ele>63</ele>
        <time>2021-09-21T08:13:35Z</time>
      </trkpt>
      <trkpt lat="46.51318" lon="-1.4222">
        <ele>63</ele>
        <time>2021-09-21T08:13:36Z</time>
      </trkpt>
      <trkpt lat="46.51316" lon="-1.42221">
        <ele>63</ele>
        <time>2021-09-21T08:13:37Z</time>
      </trkpt>
      <trkpt lat="46.51315" lon="-1.42222">
        <ele>63</ele>
        <time>2021-09-21T08:13:38Z</time>
      </trkpt>
      <trkpt lat="46.51314" lon="-1.42222">
        <ele>63.1</ele>
        <time>2021-09-21T08:13:39Z</time>
      </trkpt>
      <trkpt lat="46.51313" lon="-1.42223">
        <ele>63.1</ele>
        <time>2021-09-21T08:13:40Z</time>
      </trkpt>
      <trkpt lat="46.51312" lon="-1.42224">
        <ele>63.1</ele>
        <time>2021-09-21T08:13:41Z</time>
      </trkpt>
      <trkpt lat="46.51311" lon="-1.42225">
        <ele>63.1</ele>
        <time>2021-09-21T08:13:42Z</time>
      </trkpt>
      <trkpt lat="46.5131" lon="-1.42226">
        <ele>63.1</ele>
        <time>2021-09-21T08:13:43Z</time>
      </trkpt>
      <trkpt lat="46.51309" lon="-1.42227">
        <ele>63.1</ele>
        <time>2021-09-21T08:13:44Z</time>
      </trkpt>
      <trkpt lat="46.51308" lon="-1.42228">
        <ele>63.1</ele>
        <time>2021-09-21T08:13:45Z</time>
      </trkpt>
      <trkpt lat="46.51307" lon="-1.42229">
        <ele>63.1</ele>
        <time>2021-09-21T08:13:46Z</time>
      </trkpt>
      <trkpt lat="46.51306" lon="-1.4223">
        <ele>63.1</ele>
        <time>2021-09-21T08:13:47Z</time>
      </trkpt>
      <trkpt lat="46.51306" lon="-1.42231">
        <ele>63.1</ele>
        <time>2021-09-21T08:13:48Z</time>
      </trkpt>
      <trkpt lat="46.51305" lon="-1.42233">
        <ele>63.1</ele>
        <time>2021-09-21T08:13:49Z</time>
      </trkpt>
      <trkpt lat="46.51304" lon="-1.42234">
        <ele>63.1</ele>
        <time>2021-09-21T08:13:50Z</time>
      </trkpt>
      <trkpt lat="46.51303" lon="-1.42235">
        <ele>63.1</ele>
        <time>2021-09-21T08:13:51Z</time>
      </trkpt>
      <trkpt lat="46.51302" lon="-1.42236">
        <ele>63.2</ele>
        <time>2021-09-21T08:13:52Z</time>
      </trkpt>
      <trkpt lat="46.51302" lon="-1.42238">
        <ele>63.2</ele>
        <time>2021-09-21T08:13:53Z</time>
      </trkpt>
      <trkpt lat="46.51301" lon="-1.42239">
        <ele>63.2</ele>
        <time>2021-09-21T08:13:54Z</time>
      </trkpt>
      <trkpt lat="46.513" lon="-1.4224">
        <ele>63.2</ele>
        <time>2021-09-21T08:13:55Z</time>
      </trkpt>
      <trkpt lat="46.51299" lon="-1.42242">
        <ele>63.2</ele>
        <time>2021-09-21T08:13:56Z</time>
      </trkpt>
      <trkpt lat="46.51299" lon="-1.42243">
        <ele>63.2</ele>
        <time>2021-09-21T08:13:57Z</time>
      </trkpt>
      <trkpt lat="46.51298" lon="-1.42244">
        <ele>63.2</ele>
        <time>2021-09-21T08:13:58Z</time>
      </trkpt>
      <trkpt lat="46.51297" lon="-1.42245">
        <ele>63.3</ele>
        <time>2021-09-21T08:13:59Z</time>
      </trkpt>
      <trkpt lat="46.51296" lon="-1.42247">
        <ele>63.3</ele>
        <time>2021-09-21T08:14:00Z</time>
      </trkpt>
      <trkpt lat="46.51296" lon="-1.42248">
        <ele>63.3</ele>
        <time>2021-09-21T08:14:01Z</time>
      </trkpt>
      <trkpt lat="46.51295" lon="-1.42249">
        <ele>63.3</ele>
        <time>2021-09-21T08:14:02Z</time>
      </trkpt>
      <trkpt lat="46.51294" lon="-1.4225">
        <ele>63.3</ele>
        <time>2021-09-21T08:14:03Z</time>
      </trkpt>
      <trkpt lat="46.51293" lon="-1.42251">
        <ele>63.3</ele>
        <time>2021-09-21T08:14:04Z</time>
      </trkpt>
      <trkpt lat="46.51293" lon="-1.42252">
        <ele>63.3</ele>
        <time>2021-09-21T08:14:05Z</time>
      </trkpt>
      <trkpt lat="46.51292" lon="-1.42253">
        <ele>63.4</ele>
        <time>2021-09-21T08:14:06Z</time>
      </trkpt>
      <trkpt lat="46.51291" lon="-1.42255">
        <ele>63.4</ele>
        <time>2021-09-21T08:14:07Z</time>
      </trkpt>
      <trkpt lat="46.5129" lon="-1.42256">
        <ele>63.4</ele>
        <time>2021-09-21T08:14:08Z</time>
      </trkpt>
      <trkpt lat="46.5129" lon="-1.42257">
        <ele>63.4</ele>
        <time>2021-09-21T08:14:09Z</time>
      </trkpt>
      <trkpt lat="46.51289" lon="-1.42258">
        <ele>63.4</ele>
        <time>2021-09-21T08:14:10Z</time>
      </trkpt>
      <trkpt lat="46.51288" lon="-1.4226">
        <ele>63.4</ele>
        <time>2021-09-21T08:14:11Z</time>
      </trkpt>
      <trkpt lat="46.51287" lon="-1.42261">
        <ele>63.5</ele>
        <time>2021-09-21T08:14:12Z</time>
      </trkpt>
      <trkpt lat="46.51287" lon="-1.42262">
        <ele>63.5</ele>
        <time>2021-09-21T08:14:13Z</time>
      </trkpt>
      <trkpt lat="46.51286" lon="-1.42263">
        <ele>63.5</ele>
        <time>2021-09-21T08:14:14Z</time>
      </trkpt>
      <trkpt lat="46.51285" lon="-1.42265">
        <ele>63.5</ele>
        <time>2021-09-21T08:14:15Z</time>
      </trkpt>
      <trkpt lat="46.51284" lon="-1.42266">
        <ele>63.5</ele>
        <time>2021-09-21T08:14:16Z</time>
      </trkpt>
      <trkpt lat="46.51283" lon="-1.42267">
        <ele>63.6</ele>
        <time>2021-09-21T08:14:17Z</time>
      </trkpt>
      <trkpt lat="46.51282" lon="-1.42269">
        <ele>63.6</ele>
        <time>2021-09-21T08:14:18Z</time>
      </trkpt>
      <trkpt lat="46.51281" lon="-1.4227">
        <ele>63.6</ele>
        <time>2021-09-21T08:14:19Z</time>
      </trkpt>
      <trkpt lat="46.5128" lon="-1.42271">
        <ele>63.6</ele>
        <time>2021-09-21T08:14:20Z</time>
      </trkpt>
      <trkpt lat="46.51279" lon="-1.42272">
        <ele>63.6</ele>
        <time>2021-09-21T08:14:21Z</time>
      </trkpt>
      <trkpt lat="46.51278" lon="-1.42274">
        <ele>63.7</ele>
        <time>2021-09-21T08:14:22Z</time>
      </trkpt>
      <trkpt lat="46.51277" lon="-1.42275">
        <ele>63.7</ele>
        <time>2021-09-21T08:14:23Z</time>
      </trkpt>
      <trkpt lat="46.51276" lon="-1.42276">
        <ele>63.7</ele>
        <time>2021-09-21T08:14:24Z</time>
      </trkpt>
      <trkpt lat="46.51275" lon="-1.42277">
        <ele>63.8</ele>
        <time>2021-09-21T08:14:25Z</time>
      </trkpt>
      <trkpt lat="46.51274" lon="-1.42278">
        <ele>63.8</ele>
        <time>2021-09-21T08:14:26Z</time>
      </trkpt>
      <trkpt lat="46.51273" lon="-1.42279">
        <ele>63.8</ele>
        <time>2021-09-21T08:14:27Z</time>
      </trkpt>
      <trkpt lat="46.51272" lon="-1.4228">
        <ele>63.8</ele>
        <time>2021-09-21T08:14:28Z</time>
      </trkpt>
      <trkpt lat="46.51271" lon="-1.42282">
        <ele>63.9</ele>
        <time>2021-09-21T08:14:29Z</time>
      </trkpt>
      <trkpt lat="46.5127" lon="-1.42283">
        <ele>63.9</ele>
        <time>2021-09-21T08:14:30Z</time>
      </trkpt>
      <trkpt lat="46.5127" lon="-1.42284">
        <ele>63.9</ele>
        <time>2021-09-21T08:14:31Z</time>
      </trkpt>
      <trkpt lat="46.51269" lon="-1.42285">
        <ele>63.9</ele>
        <time>2021-09-21T08:14:32Z</time>
      </trkpt>
      <trkpt lat="46.51268" lon="-1.42286">
        <ele>63.9</ele>
        <time>2021-09-21T08:14:33Z</time>
      </trkpt>
      <trkpt lat="46.51267" lon="-1.42287">
        <ele>64</ele>
        <time>2021-09-21T08:14:34Z</time>
      </trkpt>
      <trkpt lat="46.51266" lon="-1.42288">
        <ele>64</ele>
        <time>2021-09-21T08:14:35Z</time>
      </trkpt>
      <trkpt lat="46.51266" lon="-1.42289">
        <ele>64</ele>
        <time>2021-09-21T08:14:36Z</time>
      </trkpt>
      <trkpt lat="46.51265" lon="-1.4229">
        <ele>64</ele>
        <time>2021-09-21T08:14:37Z</time>
      </trkpt>
      <trkpt lat="46.51264" lon="-1.42291">
        <ele>64</ele>
        <time>2021-09-21T08:14:38Z</time>
      </trkpt>
      <trkpt lat="46.51264" lon="-1.42293">
        <ele>64.1</ele>
        <time>2021-09-21T08:14:39Z</time>
      </trkpt>
      <trkpt lat="46.51263" lon="-1.42294">
        <ele>64.1</ele>
        <time>2021-09-21T08:14:40Z</time>
      </trkpt>
      <trkpt lat="46.51262" lon="-1.42295">
        <ele>64.1</ele>
        <time>2021-09-21T08:14:41Z</time>
      </trkpt>
      <trkpt lat="46.51261" lon="-1.42296">
        <ele>64.1</ele>
        <time>2021-09-21T08:14:42Z</time>
      </trkpt>
      <trkpt lat="46.5126" lon="-1.42298">
        <ele>64.1</ele>
        <time>2021-09-21T08:14:43Z</time>
      </trkpt>
      <trkpt lat="46.5126" lon="-1.42299">
        <ele>64.2</ele>
        <time>2021-09-21T08:14:44Z</time>
      </trkpt>
      <trkpt lat="46.51259" lon="-1.42301">
        <ele>64.2</ele>
        <time>2021-09-21T08:14:45Z</time>
      </trkpt>
      <trkpt lat="46.51258" lon="-1.42302">
        <ele>64.2</ele>
        <time>2021-09-21T08:14:46Z</time>
      </trkpt>
      <trkpt lat="46.51257" lon="-1.42303">
        <ele>64.2</ele>
        <time>2021-09-21T08:14:47Z</time>
      </trkpt>
      <trkpt lat="46.51256" lon="-1.42305">
        <ele>64.2</ele>
        <time>2021-09-21T08:14:48Z</time>
      </trkpt>
      <trkpt lat="46.51255" lon="-1.42306">
        <ele>64.2</ele>
        <time>2021-09-21T08:14:49Z</time>
      </trkpt>
      <trkpt lat="46.51254" lon="-1.42308">
        <ele>64.3</ele>
        <time>2021-09-21T08:14:50Z</time>
      </trkpt>
      <trkpt lat="46.51253" lon="-1.42309">
        <ele>64.3</ele>
        <time>2021-09-21T08:14:51Z</time>
      </trkpt>
      <trkpt lat="46.51252" lon="-1.4231">
        <ele>64.3</ele>
        <time>2021-09-21T08:14:52Z</time>
      </trkpt>
      <trkpt lat="46.51251" lon="-1.42312">
        <ele>64.3</ele>
        <time>2021-09-21T08:14:53Z</time>
      </trkpt>
      <trkpt lat="46.5125" lon="-1.42313">
        <ele>64.3</ele>
        <time>2021-09-21T08:14:54Z</time>
      </trkpt>
      <trkpt lat="46.51249" lon="-1.42314">
        <ele>64.4</ele>
        <time>2021-09-21T08:14:55Z</time>
      </trkpt>
      <trkpt lat="46.51248" lon="-1.42316">
        <ele>64.4</ele>
        <time>2021-09-21T08:14:56Z</time>
      </trkpt>
      <trkpt lat="46.51247" lon="-1.42317">
        <ele>64.4</ele>
        <time>2021-09-21T08:14:57Z</time>
      </trkpt>
      <trkpt lat="46.51246" lon="-1.42318">
        <ele>64.4</ele>
        <time>2021-09-21T08:14:58Z</time>
      </trkpt>
      <trkpt lat="46.51244" lon="-1.42319">
        <ele>64.4</ele>
        <time>2021-09-21T08:14:59Z</time>
      </trkpt>
      <trkpt lat="46.51243" lon="-1.42321">
        <ele>64.5</ele>
        <time>2021-09-21T08:15:00Z</time>
      </trkpt>
      <trkpt lat="46.51242" lon="-1.42322">
        <ele>64.5</ele>
        <time>2021-09-21T08:15:01Z</time>
      </trkpt>
      <trkpt lat="46.51241" lon="-1.42323">
        <ele>64.5</ele>
        <time>2021-09-21T08:15:02Z</time>
      </trkpt>
      <trkpt lat="46.5124" lon="-1.42324">
        <ele>64.5</ele>
        <time>2021-09-21T08:15:03Z</time>
      </trkpt>
      <trkpt lat="46.51239" lon="-1.42325">
        <ele>64.6</ele>
        <time>2021-09-21T08:15:04Z</time>
      </trkpt>
      <trkpt lat="46.51238" lon="-1.42326">
        <ele>64.6</ele>
        <time>2021-09-21T08:15:05Z</time>
      </trkpt>
      <trkpt lat="46.51237" lon="-1.42327">
        <ele>64.6</ele>
        <time>2021-09-21T08:15:06Z</time>
      </trkpt>
      <trkpt lat="46.51236" lon="-1.42328">
        <ele>64.6</ele>
        <time>2021-09-21T08:15:07Z</time>
      </trkpt>
      <trkpt lat="46.51235" lon="-1.42329">
        <ele>64.7</ele>
        <time>2021-09-21T08:15:08Z</time>
      </trkpt>
      <trkpt lat="46.51234" lon="-1.4233">
        <ele>64.7</ele>
        <time>2021-09-21T08:15:09Z</time>
      </trkpt>
      <trkpt lat="46.51233" lon="-1.42331">
        <ele>64.7</ele>
        <time>2021-09-21T08:15:10Z</time>
      </trkpt>
      <trkpt lat="46.51232" lon="-1.42333">
        <ele>64.8</ele>
        <time>2021-09-21T08:15:11Z</time>
      </trkpt>
      <trkpt lat="46.51232" lon="-1.42334">
        <ele>64.8</ele>
        <time>2021-09-21T08:15:12Z</time>
      </trkpt>
      <trkpt lat="46.51231" lon="-1.42335">
        <ele>64.8</ele>
        <time>2021-09-21T08:15:13Z</time>
      </trkpt>
      <trkpt lat="46.5123" lon="-1.42336">
        <ele>64.9</ele>
        <time>2021-09-21T08:15:14Z</time>
      </trkpt>
      <trkpt lat="46.51229" lon="-1.42337">
        <ele>64.9</ele>
        <time>2021-09-21T08:15:15Z</time>
      </trkpt>
      <trkpt lat="46.51228" lon="-1.42338">
        <ele>64.9</ele>
        <time>2021-09-21T08:15:16Z</time>
      </trkpt>
      <trkpt lat="46.51227" lon="-1.42339">
        <ele>65</ele>
        <time>2021-09-21T08:15:17Z</time>
      </trkpt>
      <trkpt lat="46.51226" lon="-1.4234">
        <ele>65</ele>
        <time>2021-09-21T08:15:18Z</time>
      </trkpt>
      <trkpt lat="46.51225" lon="-1.42341">
        <ele>65.1</ele>
        <time>2021-09-21T08:15:19Z</time>
      </trkpt>
      <trkpt lat="46.51224" lon="-1.42342">
        <ele>65.1</ele>
        <time>2021-09-21T08:15:20Z</time>
      </trkpt>
      <trkpt lat="46.51224" lon="-1.42344">
        <ele>65.2</ele>
        <time>2021-09-21T08:15:21Z</time>
      </trkpt>
      <trkpt lat="46.51223" lon="-1.42345">
        <ele>65.2</ele>
        <time>2021-09-21T08:15:22Z</time>
      </trkpt>
      <trkpt lat="46.51222" lon="-1.42346">
        <ele>65.2</ele>
        <time>2021-09-21T08:15:23Z</time>
      </trkpt>
      <trkpt lat="46.51221" lon="-1.42347">
        <ele>65.3</ele>
        <time>2021-09-21T08:15:24Z</time>
      </trkpt>
      <trkpt lat="46.5122" lon="-1.42348">
        <ele>65.3</ele>
        <time>2021-09-21T08:15:25Z</time>
      </trkpt>
      <trkpt lat="46.51219" lon="-1.42349">
        <ele>65.4</ele>
        <time>2021-09-21T08:15:26Z</time>
      </trkpt>
      <trkpt lat="46.51217" lon="-1.4235">
        <ele>65.4</ele>
        <time>2021-09-21T08:15:27Z</time>
      </trkpt>
      <trkpt lat="46.51216" lon="-1.4235">
        <ele>65.5</ele>
        <time>2021-09-21T08:15:28Z</time>
      </trkpt>
      <trkpt lat="46.51215" lon="-1.42351">
        <ele>65.6</ele>
        <time>2021-09-21T08:15:29Z</time>
      </trkpt>
      <trkpt lat="46.51214" lon="-1.42352">
        <ele>65.6</ele>
        <time>2021-09-21T08:15:30Z</time>
      </trkpt>
      <trkpt lat="46.51214" lon="-1.42353">
        <ele>65.6</ele>
        <time>2021-09-21T08:15:31Z</time>
      </trkpt>
      <trkpt lat="46.51213" lon="-1.42355">
        <ele>65.7</ele>
        <time>2021-09-21T08:15:32Z</time>
      </trkpt>
      <trkpt lat="46.51212" lon="-1.42356">
        <ele>65.7</ele>
        <time>2021-09-21T08:15:33Z</time>
      </trkpt>
      <trkpt lat="46.51212" lon="-1.42357">
        <ele>65.8</ele>
        <time>2021-09-21T08:15:34Z</time>
      </trkpt>
      <trkpt lat="46.51211" lon="-1.42358">
        <ele>65.8</ele>
        <time>2021-09-21T08:15:35Z</time>
      </trkpt>
      <trkpt lat="46.5121" lon="-1.42359">
        <ele>65.8</ele>
        <time>2021-09-21T08:15:36Z</time>
      </trkpt>
      <trkpt lat="46.5121" lon="-1.4236">
        <ele>65.9</ele>
        <time>2021-09-21T08:15:37Z</time>
      </trkpt>
      <trkpt lat="46.51209" lon="-1.42361">
        <ele>65.9</ele>
        <time>2021-09-21T08:15:38Z</time>
      </trkpt>
      <trkpt lat="46.51208" lon="-1.42362">
        <ele>65.9</ele>
        <time>2021-09-21T08:15:39Z</time>
      </trkpt>
      <trkpt lat="46.51207" lon="-1.42363">
        <ele>66</ele>
        <time>2021-09-21T08:15:40Z</time>
      </trkpt>
      <trkpt lat="46.51207" lon="-1.42364">
        <ele>66</ele>
        <time>2021-09-21T08:15:41Z</time>
      </trkpt>
      <trkpt lat="46.51206" lon="-1.42365">
        <ele>66</ele>
        <time>2021-09-21T08:15:42Z</time>
      </trkpt>
      <trkpt lat="46.51205" lon="-1.42366">
        <ele>66</ele>
        <time>2021-09-21T08:15:43Z</time>
      </trkpt>
      <trkpt lat="46.51204" lon="-1.42368">
        <ele>66.1</ele>
        <time>2021-09-21T08:15:44Z</time>
      </trkpt>
      <trkpt lat="46.51203" lon="-1.42369">
        <ele>66.1</ele>
        <time>2021-09-21T08:15:45Z</time>
      </trkpt>
      <trkpt lat="46.51202" lon="-1.4237">
        <ele>66.1</ele>
        <time>2021-09-21T08:15:46Z</time>
      </trkpt>
      <trkpt lat="46.51201" lon="-1.42371">
        <ele>66.2</ele>
        <time>2021-09-21T08:15:47Z</time>
      </trkpt>
      <trkpt lat="46.512" lon="-1.42373">
        <ele>66.2</ele>
        <time>2021-09-21T08:15:48Z</time>
      </trkpt>
      <trkpt lat="46.51199" lon="-1.42374">
        <ele>66.2</ele>
        <time>2021-09-21T08:15:49Z</time>
      </trkpt>
      <trkpt lat="46.51199" lon="-1.42375">
        <ele>66.2</ele>
        <time>2021-09-21T08:15:50Z</time>
      </trkpt>
      <trkpt lat="46.51198" lon="-1.42377">
        <ele>66.2</ele>
        <time>2021-09-21T08:15:51Z</time>
      </trkpt>
      <trkpt lat="46.51197" lon="-1.42378">
        <ele>66.3</ele>
        <time>2021-09-21T08:15:52Z</time>
      </trkpt>
      <trkpt lat="46.51196" lon="-1.42379">
        <ele>66.3</ele>
        <time>2021-09-21T08:15:53Z</time>
      </trkpt>
      <trkpt lat="46.51195" lon="-1.4238">
        <ele>66.3</ele>
        <time>2021-09-21T08:15:54Z</time>
      </trkpt>
      <trkpt lat="46.51194" lon="-1.42382">
        <ele>66.3</ele>
        <time>2021-09-21T08:15:55Z</time>
      </trkpt>
      <trkpt lat="46.51193" lon="-1.42383">
        <ele>66.3</ele>
        <time>2021-09-21T08:15:56Z</time>
      </trkpt>
      <trkpt lat="46.51192" lon="-1.42384">
        <ele>66.4</ele>
        <time>2021-09-21T08:15:57Z</time>
      </trkpt>
      <trkpt lat="46.51191" lon="-1.42385">
        <ele>66.4</ele>
        <time>2021-09-21T08:15:58Z</time>
      </trkpt>
      <trkpt lat="46.5119" lon="-1.42387">
        <ele>66.4</ele>
        <time>2021-09-21T08:15:59Z</time>
      </trkpt>
      <trkpt lat="46.51189" lon="-1.42388">
        <ele>66.4</ele>
        <time>2021-09-21T08:16:00Z</time>
      </trkpt>
      <trkpt lat="46.51188" lon="-1.42389">
        <ele>66.4</ele>
        <time>2021-09-21T08:16:01Z</time>
      </trkpt>
      <trkpt lat="46.51187" lon="-1.4239">
        <ele>66.5</ele>
        <time>2021-09-21T08:16:02Z</time>
      </trkpt>
      <trkpt lat="46.51186" lon="-1.42391">
        <ele>66.5</ele>
        <time>2021-09-21T08:16:03Z</time>
      </trkpt>
      <trkpt lat="46.51186" lon="-1.42393">
        <ele>66.5</ele>
        <time>2021-09-21T08:16:04Z</time>
      </trkpt>
      <trkpt lat="46.51185" lon="-1.42394">
        <ele>66.5</ele>
        <time>2021-09-21T08:16:05Z</time>
      </trkpt>
      <trkpt lat="46.51184" lon="-1.42395">
        <ele>66.5</ele>
        <time>2021-09-21T08:16:06Z</time>
      </trkpt>
      <trkpt lat="46.51183" lon="-1.42396">
        <ele>66.6</ele>
        <time>2021-09-21T08:16:07Z</time>
      </trkpt>
      <trkpt lat="46.51182" lon="-1.42397">
        <ele>66.6</ele>
        <time>2021-09-21T08:16:08Z</time>
      </trkpt>
      <trkpt lat="46.51181" lon="-1.42399">
        <ele>66.6</ele>
        <time>2021-09-21T08:16:09Z</time>
      </trkpt>
      <trkpt lat="46.5118" lon="-1.424">
        <ele>66.6</ele>
        <time>2021-09-21T08:16:10Z</time>
      </trkpt>
      <trkpt lat="46.51179" lon="-1.42401">
        <ele>66.7</ele>
        <time>2021-09-21T08:16:11Z</time>
      </trkpt>
      <trkpt lat="46.51178" lon="-1.42402">
        <ele>66.7</ele>
        <time>2021-09-21T08:16:12Z</time>
      </trkpt>
      <trkpt lat="46.51177" lon="-1.42403">
        <ele>66.7</ele>
        <time>2021-09-21T08:16:13Z</time>
      </trkpt>
      <trkpt lat="46.51176" lon="-1.42404">
        <ele>66.7</ele>
        <time>2021-09-21T08:16:14Z</time>
      </trkpt>
      <trkpt lat="46.51176" lon="-1.42406">
        <ele>66.8</ele>
        <time>2021-09-21T08:16:15Z</time>
      </trkpt>
      <trkpt lat="46.51175" lon="-1.42407">
        <ele>66.8</ele>
        <time>2021-09-21T08:16:16Z</time>
      </trkpt>
      <trkpt lat="46.51174" lon="-1.42408">
        <ele>66.8</ele>
        <time>2021-09-21T08:16:17Z</time>
      </trkpt>
      <trkpt lat="46.51173" lon="-1.42409">
        <ele>66.9</ele>
        <time>2021-09-21T08:16:18Z</time>
      </trkpt>
      <trkpt lat="46.51172" lon="-1.4241">
        <ele>66.9</ele>
        <time>2021-09-21T08:16:19Z</time>
      </trkpt>
      <trkpt lat="46.51171" lon="-1.42411">
        <ele>66.9</ele>
        <time>2021-09-21T08:16:20Z</time>
      </trkpt>
      <trkpt lat="46.51171" lon="-1.42412">
        <ele>67</ele>
        <time>2021-09-21T08:16:21Z</time>
      </trkpt>
      <trkpt lat="46.5117" lon="-1.42413">
        <ele>67</ele>
        <time>2021-09-21T08:16:22Z</time>
      </trkpt>
      <trkpt lat="46.51169" lon="-1.42414">
        <ele>67</ele>
        <time>2021-09-21T08:16:23Z</time>
      </trkpt>
      <trkpt lat="46.51168" lon="-1.42415">
        <ele>67</ele>
        <time>2021-09-21T08:16:24Z</time>
      </trkpt>
      <trkpt lat="46.51168" lon="-1.42416">
        <ele>67.1</ele>
        <time>2021-09-21T08:16:25Z</time>
      </trkpt>
      <trkpt lat="46.51167" lon="-1.42417">
        <ele>67.1</ele>
        <time>2021-09-21T08:16:26Z</time>
      </trkpt>
      <trkpt lat="46.51166" lon="-1.42418">
        <ele>67.1</ele>
        <time>2021-09-21T08:16:27Z</time>
      </trkpt>
      <trkpt lat="46.51165" lon="-1.42419">
        <ele>67.1</ele>
        <time>2021-09-21T08:16:28Z</time>
      </trkpt>
      <trkpt lat="46.51165" lon="-1.4242">
        <ele>67.2</ele>
        <time>2021-09-21T08:16:29Z</time>
      </trkpt>
      <trkpt lat="46.51164" lon="-1.42421">
        <ele>67.2</ele>
        <time>2021-09-21T08:16:30Z</time>
      </trkpt>
      <trkpt lat="46.51163" lon="-1.42422">
        <ele>67.2</ele>
        <time>2021-09-21T08:16:31Z</time>
      </trkpt>
      <trkpt lat="46.51163" lon="-1.42423">
        <ele>67.3</ele>
        <time>2021-09-21T08:16:32Z</time>
      </trkpt>
      <trkpt lat="46.51162" lon="-1.42424">
        <ele>67.3</ele>
        <time>2021-09-21T08:16:33Z</time>
      </trkpt>
      <trkpt lat="46.51161" lon="-1.42425">
        <ele>67.3</ele>
        <time>2021-09-21T08:16:34Z</time>
      </trkpt>
      <trkpt lat="46.51161" lon="-1.42426">
        <ele>67.3</ele>
        <time>2021-09-21T08:16:35Z</time>
      </trkpt>
      <trkpt lat="46.5116" lon="-1.42427">
        <ele>67.3</ele>
        <time>2021-09-21T08:16:36Z</time>
      </trkpt>
      <trkpt lat="46.51159" lon="-1.42428">
        <ele>67.4</ele>
        <time>2021-09-21T08:16:37Z</time>
      </trkpt>
      <trkpt lat="46.51159" lon="-1.42429">
        <ele>67.4</ele>
        <time>2021-09-21T08:16:38Z</time>
      </trkpt>
      <trkpt lat="46.51158" lon="-1.4243">
        <ele>67.4</ele>
        <time>2021-09-21T08:16:39Z</time>
      </trkpt>
      <trkpt lat="46.51157" lon="-1.42431">
        <ele>67.4</ele>
        <time>2021-09-21T08:16:40Z</time>
      </trkpt>
      <trkpt lat="46.51156" lon="-1.42432">
        <ele>67.5</ele>
        <time>2021-09-21T08:16:41Z</time>
      </trkpt>
      <trkpt lat="46.51156" lon="-1.42433">
        <ele>67.5</ele>
        <time>2021-09-21T08:16:42Z</time>
      </trkpt>
      <trkpt lat="46.51155" lon="-1.42434">
        <ele>67.5</ele>
        <time>2021-09-21T08:16:43Z</time>
      </trkpt>
      <trkpt lat="46.51154" lon="-1.42435">
        <ele>67.5</ele>
        <time>2021-09-21T08:16:44Z</time>
      </trkpt>
      <trkpt lat="46.51153" lon="-1.42437">
        <ele>67.6</ele>
        <time>2021-09-21T08:16:45Z</time>
      </trkpt>
      <trkpt lat="46.51152" lon="-1.42438">
        <ele>67.6</ele>
        <time>2021-09-21T08:16:46Z</time>
      </trkpt>
      <trkpt lat="46.51152" lon="-1.42439">
        <ele>67.6</ele>
        <time>2021-09-21T08:16:47Z</time>
      </trkpt>
      <trkpt lat="46.51151" lon="-1.42441">
        <ele>67.7</ele>
        <time>2021-09-21T08:16:48Z</time>
      </trkpt>
      <trkpt lat="46.5115" lon="-1.42442">
        <ele>67.7</ele>
        <time>2021-09-21T08:16:49Z</time>
      </trkpt>
      <trkpt lat="46.51149" lon="-1.42443">
        <ele>67.7</ele>
        <time>2021-09-21T08:16:50Z</time>
      </trkpt>
      <trkpt lat="46.51148" lon="-1.42444">
        <ele>67.8</ele>
        <time>2021-09-21T08:16:51Z</time>
      </trkpt>
      <trkpt lat="46.51147" lon="-1.42446">
        <ele>67.8</ele>
        <time>2021-09-21T08:16:52Z</time>
      </trkpt>
      <trkpt lat="46.51146" lon="-1.42447">
        <ele>67.8</ele>
        <time>2021-09-21T08:16:53Z</time>
      </trkpt>
      <trkpt lat="46.51146" lon="-1.42448">
        <ele>67.8</ele>
        <time>2021-09-21T08:16:54Z</time>
      </trkpt>
      <trkpt lat="46.51145" lon="-1.42449">
        <ele>67.9</ele>
        <time>2021-09-21T08:16:55Z</time>
      </trkpt>
      <trkpt lat="46.51144" lon="-1.42449">
        <ele>67.9</ele>
        <time>2021-09-21T08:16:56Z</time>
      </trkpt>
      <trkpt lat="46.51144" lon="-1.4245">
        <ele>67.9</ele>
        <time>2021-09-21T08:16:57Z</time>
      </trkpt>
      <trkpt lat="46.51143" lon="-1.42451">
        <ele>67.9</ele>
        <time>2021-09-21T08:16:58Z</time>
      </trkpt>
      <trkpt lat="46.51143" lon="-1.42452">
        <ele>67.9</ele>
        <time>2021-09-21T08:16:59Z</time>
      </trkpt>
      <trkpt lat="46.51142" lon="-1.42452">
        <ele>68</ele>
        <time>2021-09-21T08:17:00Z</time>
      </trkpt>
      <trkpt lat="46.51142" lon="-1.42453">
        <ele>68</ele>
        <time>2021-09-21T08:17:01Z</time>
      </trkpt>
      <trkpt lat="46.51141" lon="-1.42454">
        <ele>68</ele>
        <time>2021-09-21T08:17:02Z</time>
      </trkpt>
      <trkpt lat="46.5114" lon="-1.42455">
        <ele>68</ele>
        <time>2021-09-21T08:17:03Z</time>
      </trkpt>
      <trkpt lat="46.51139" lon="-1.42456">
        <ele>68.1</ele>
        <time>2021-09-21T08:17:04Z</time>
      </trkpt>
      <trkpt lat="46.51138" lon="-1.42457">
        <ele>68.1</ele>
        <time>2021-09-21T08:17:05Z</time>
      </trkpt>
      <trkpt lat="46.51137" lon="-1.42458">
        <ele>68.1</ele>
        <time>2021-09-21T08:17:06Z</time>
      </trkpt>
      <trkpt lat="46.51137" lon="-1.42459">
        <ele>68.2</ele>
        <time>2021-09-21T08:17:07Z</time>
      </trkpt>
      <trkpt lat="46.51136" lon="-1.42459">
        <ele>68.2</ele>
        <time>2021-09-21T08:17:08Z</time>
      </trkpt>
      <trkpt lat="46.51135" lon="-1.4246">
        <ele>68.2</ele>
        <time>2021-09-21T08:17:09Z</time>
      </trkpt>
      <trkpt lat="46.51134" lon="-1.42461">
        <ele>68.3</ele>
        <time>2021-09-21T08:17:10Z</time>
      </trkpt>
      <trkpt lat="46.51134" lon="-1.42462">
        <ele>68.3</ele>
        <time>2021-09-21T08:17:11Z</time>
      </trkpt>
      <trkpt lat="46.51133" lon="-1.42463">
        <ele>68.3</ele>
        <time>2021-09-21T08:17:12Z</time>
      </trkpt>
      <trkpt lat="46.51132" lon="-1.42463">
        <ele>68.4</ele>
        <time>2021-09-21T08:17:13Z</time>
      </trkpt>
      <trkpt lat="46.5113" lon="-1.42464">
        <ele>68.4</ele>
        <time>2021-09-21T08:17:14Z</time>
      </trkpt>
      <trkpt lat="46.51129" lon="-1.42465">
        <ele>68.5</ele>
        <time>2021-09-21T08:17:15Z</time>
      </trkpt>
      <trkpt lat="46.51127" lon="-1.42467">
        <ele>68.5</ele>
        <time>2021-09-21T08:17:16Z</time>
      </trkpt>
      <trkpt lat="46.51126" lon="-1.42468">
        <ele>68.6</ele>
        <time>2021-09-21T08:17:17Z</time>
      </trkpt>
      <trkpt lat="46.51124" lon="-1.42469">
        <ele>68.7</ele>
        <time>2021-09-21T08:17:18Z</time>
      </trkpt>
      <trkpt lat="46.51123" lon="-1.4247">
        <ele>68.8</ele>
        <time>2021-09-21T08:17:19Z</time>
      </trkpt>
      <trkpt lat="46.51121" lon="-1.42471">
        <ele>68.8</ele>
        <time>2021-09-21T08:17:20Z</time>
      </trkpt>
      <trkpt lat="46.5112" lon="-1.42472">
        <ele>68.9</ele>
        <time>2021-09-21T08:17:21Z</time>
      </trkpt>
      <trkpt lat="46.51118" lon="-1.42473">
        <ele>69</ele>
        <time>2021-09-21T08:17:22Z</time>
      </trkpt>
      <trkpt lat="46.51117" lon="-1.42474">
        <ele>69.1</ele>
        <time>2021-09-21T08:17:23Z</time>
      </trkpt>
      <trkpt lat="46.51116" lon="-1.42475">
        <ele>69.1</ele>
        <time>2021-09-21T08:17:24Z</time>
      </trkpt>
      <trkpt lat="46.51115" lon="-1.42476">
        <ele>69.2</ele>
        <time>2021-09-21T08:17:25Z</time>
      </trkpt>
      <trkpt lat="46.51113" lon="-1.42477">
        <ele>69.3</ele>
        <time>2021-09-21T08:17:26Z</time>
      </trkpt>
      <trkpt lat="46.51112" lon="-1.42478">
        <ele>69.3</ele>
        <time>2021-09-21T08:17:27Z</time>
      </trkpt>
      <trkpt lat="46.51111" lon="-1.42478">
        <ele>69.4</ele>
        <time>2021-09-21T08:17:28Z</time>
      </trkpt>
      <trkpt lat="46.5111" lon="-1.42479">
        <ele>69.4</ele>
        <time>2021-09-21T08:17:29Z</time>
      </trkpt>
      <trkpt lat="46.51109" lon="-1.4248">
        <ele>69.5</ele>
        <time>2021-09-21T08:17:30Z</time>
      </trkpt>
      <trkpt lat="46.51108" lon="-1.42481">
        <ele>69.5</ele>
        <time>2021-09-21T08:17:31Z</time>
      </trkpt>
      <trkpt lat="46.51107" lon="-1.42482">
        <ele>69.6</ele>
        <time>2021-09-21T08:17:32Z</time>
      </trkpt>
      <trkpt lat="46.51106" lon="-1.42483">
        <ele>69.6</ele>
        <time>2021-09-21T08:17:33Z</time>
      </trkpt>
      <trkpt lat="46.51105" lon="-1.42483">
        <ele>69.7</ele>
        <time>2021-09-21T08:17:34Z</time>
      </trkpt>
      <trkpt lat="46.51104" lon="-1.42484">
        <ele>69.8</ele>
        <time>2021-09-21T08:17:35Z</time>
      </trkpt>
      <trkpt lat="46.51104" lon="-1.42485">
        <ele>69.8</ele>
        <time>2021-09-21T08:17:36Z</time>
      </trkpt>
      <trkpt lat="46.51103" lon="-1.42486">
        <ele>69.9</ele>
        <time>2021-09-21T08:17:37Z</time>
      </trkpt>
      <trkpt lat="46.51102" lon="-1.42487">
        <ele>69.9</ele>
        <time>2021-09-21T08:17:38Z</time>
      </trkpt>
      <trkpt lat="46.51101" lon="-1.42488">
        <ele>70</ele>
        <time>2021-09-21T08:17:39Z</time>
      </trkpt>
      <trkpt lat="46.511" lon="-1.42489">
        <ele>70</ele>
        <time>2021-09-21T08:17:40Z</time>
      </trkpt>
      <trkpt lat="46.51099" lon="-1.4249">
        <ele>70.1</ele>
        <time>2021-09-21T08:17:41Z</time>
      </trkpt>
      <trkpt lat="46.51098" lon="-1.42491">
        <ele>70.1</ele>
        <time>2021-09-21T08:17:42Z</time>
      </trkpt>
      <trkpt lat="46.51097" lon="-1.42492">
        <ele>70.2</ele>
        <time>2021-09-21T08:17:43Z</time>
      </trkpt>
      <trkpt lat="46.51096" lon="-1.42493">
        <ele>70.3</ele>
        <time>2021-09-21T08:17:44Z</time>
      </trkpt>
      <trkpt lat="46.51095" lon="-1.42494">
        <ele>70.3</ele>
        <time>2021-09-21T08:17:45Z</time>
      </trkpt>
      <trkpt lat="46.51094" lon="-1.42495">
        <ele>70.4</ele>
        <time>2021-09-21T08:17:46Z</time>
      </trkpt>
      <trkpt lat="46.51093" lon="-1.42496">
        <ele>70.4</ele>
        <time>2021-09-21T08:17:47Z</time>
      </trkpt>
      <trkpt lat="46.51092" lon="-1.42497">
        <ele>70.5</ele>
        <time>2021-09-21T08:17:48Z</time>
      </trkpt>
      <trkpt lat="46.51091" lon="-1.42497">
        <ele>70.5</ele>
        <time>2021-09-21T08:17:49Z</time>
      </trkpt>
      <trkpt lat="46.5109" lon="-1.42498">
        <ele>70.6</ele>
        <time>2021-09-21T08:17:50Z</time>
      </trkpt>
      <trkpt lat="46.5109" lon="-1.42499">
        <ele>70.6</ele>
        <time>2021-09-21T08:17:51Z</time>
      </trkpt>
      <trkpt lat="46.51089" lon="-1.425">
        <ele>70.7</ele>
        <time>2021-09-21T08:17:52Z</time>
      </trkpt>
      <trkpt lat="46.51088" lon="-1.42501">
        <ele>70.7</ele>
        <time>2021-09-21T08:17:53Z</time>
      </trkpt>
      <trkpt lat="46.51087" lon="-1.42502">
        <ele>70.8</ele>
        <time>2021-09-21T08:17:54Z</time>
      </trkpt>
      <trkpt lat="46.51086" lon="-1.42502">
        <ele>70.8</ele>
        <time>2021-09-21T08:17:55Z</time>
      </trkpt>
      <trkpt lat="46.51085" lon="-1.42503">
        <ele>70.8</ele>
        <time>2021-09-21T08:17:56Z</time>
      </trkpt>
      <trkpt lat="46.51084" lon="-1.42504">
        <ele>70.8</ele>
        <time>2021-09-21T08:17:57Z</time>
      </trkpt>
      <trkpt lat="46.51083" lon="-1.42505">
        <ele>70.9</ele>
        <time>2021-09-21T08:17:58Z</time>
      </trkpt>
      <trkpt lat="46.51082" lon="-1.42506">
        <ele>70.9</ele>
        <time>2021-09-21T08:17:59Z</time>
      </trkpt>
      <trkpt lat="46.5108" lon="-1.42507">
        <ele>70.9</ele>
        <time>2021-09-21T08:18:00Z</time>
      </trkpt>
      <trkpt lat="46.51079" lon="-1.42508">
        <ele>71</ele>
        <time>2021-09-21T08:18:01Z</time>
      </trkpt>
      <trkpt lat="46.51078" lon="-1.42509">
        <ele>71</ele>
        <time>2021-09-21T08:18:02Z</time>
      </trkpt>
      <trkpt lat="46.51077" lon="-1.4251">
        <ele>71.1</ele>
        <time>2021-09-21T08:18:03Z</time>
      </trkpt>
      <trkpt lat="46.51076" lon="-1.42511">
        <ele>71.1</ele>
        <time>2021-09-21T08:18:04Z</time>
      </trkpt>
      <trkpt lat="46.51075" lon="-1.42512">
        <ele>71.1</ele>
        <time>2021-09-21T08:18:05Z</time>
      </trkpt>
      <trkpt lat="46.51074" lon="-1.42512">
        <ele>71.1</ele>
        <time>2021-09-21T08:18:06Z</time>
      </trkpt>
      <trkpt lat="46.51074" lon="-1.42513">
        <ele>71.2</ele>
        <time>2021-09-21T08:18:07Z</time>
      </trkpt>
      <trkpt lat="46.51073" lon="-1.42514">
        <ele>71.2</ele>
        <time>2021-09-21T08:18:08Z</time>
      </trkpt>
      <trkpt lat="46.51073" lon="-1.42514">
        <ele>71.2</ele>
        <time>2021-09-21T08:18:09Z</time>
      </trkpt>
      <trkpt lat="46.51072" lon="-1.42515">
        <ele>71.2</ele>
        <time>2021-09-21T08:18:10Z</time>
      </trkpt>
      <trkpt lat="46.51071" lon="-1.42516">
        <ele>71.2</ele>
        <time>2021-09-21T08:18:11Z</time>
      </trkpt>
      <trkpt lat="46.5107" lon="-1.42517">
        <ele>71.3</ele>
        <time>2021-09-21T08:18:12Z</time>
      </trkpt>
      <trkpt lat="46.51069" lon="-1.42518">
        <ele>71.3</ele>
        <time>2021-09-21T08:18:13Z</time>
      </trkpt>
      <trkpt lat="46.51068" lon="-1.42519">
        <ele>71.3</ele>
        <time>2021-09-21T08:18:14Z</time>
      </trkpt>
      <trkpt lat="46.51067" lon="-1.42521">
        <ele>71.3</ele>
        <time>2021-09-21T08:18:15Z</time>
      </trkpt>
      <trkpt lat="46.51066" lon="-1.42522">
        <ele>71.3</ele>
        <time>2021-09-21T08:18:16Z</time>
      </trkpt>
      <trkpt lat="46.51065" lon="-1.42523">
        <ele>71.4</ele>
        <time>2021-09-21T08:18:17Z</time>
      </trkpt>
      <trkpt lat="46.51064" lon="-1.42524">
        <ele>71.4</ele>
        <time>2021-09-21T08:18:18Z</time>
      </trkpt>
      <trkpt lat="46.51063" lon="-1.42526">
        <ele>71.4</ele>
        <time>2021-09-21T08:18:19Z</time>
      </trkpt>
      <trkpt lat="46.51062" lon="-1.42527">
        <ele>71.4</ele>
        <time>2021-09-21T08:18:20Z</time>
      </trkpt>
      <trkpt lat="46.5106" lon="-1.42528">
        <ele>71.4</ele>
        <time>2021-09-21T08:18:21Z</time>
      </trkpt>
      <trkpt lat="46.51059" lon="-1.42529">
        <ele>71.4</ele>
        <time>2021-09-21T08:18:22Z</time>
      </trkpt>
      <trkpt lat="46.51058" lon="-1.42531">
        <ele>71.4</ele>
        <time>2021-09-21T08:18:23Z</time>
      </trkpt>
      <trkpt lat="46.51057" lon="-1.42532">
        <ele>71.4</ele>
        <time>2021-09-21T08:18:24Z</time>
      </trkpt>
      <trkpt lat="46.51056" lon="-1.42533">
        <ele>71.4</ele>
        <time>2021-09-21T08:18:25Z</time>
      </trkpt>
      <trkpt lat="46.51054" lon="-1.42534">
        <ele>71.4</ele>
        <time>2021-09-21T08:18:26Z</time>
      </trkpt>
      <trkpt lat="46.51053" lon="-1.42535">
        <ele>71.4</ele>
        <time>2021-09-21T08:18:27Z</time>
      </trkpt>
      <trkpt lat="46.51052" lon="-1.42536">
        <ele>71.4</ele>
        <time>2021-09-21T08:18:28Z</time>
      </trkpt>
      <trkpt lat="46.51051" lon="-1.42537">
        <ele>71.4</ele>
        <time>2021-09-21T08:18:29Z</time>
      </trkpt>
      <trkpt lat="46.51049" lon="-1.42538">
        <ele>71.4</ele>
        <time>2021-09-21T08:18:30Z</time>
      </trkpt>
      <trkpt lat="46.51048" lon="-1.42539">
        <ele>71.4</ele>
        <time>2021-09-21T08:18:31Z</time>
      </trkpt>
      <trkpt lat="46.51047" lon="-1.4254">
        <ele>71.4</ele>
        <time>2021-09-21T08:18:32Z</time>
      </trkpt>
      <trkpt lat="46.51046" lon="-1.42541">
        <ele>71.4</ele>
        <time>2021-09-21T08:18:33Z</time>
      </trkpt>
      <trkpt lat="46.51045" lon="-1.42542">
        <ele>71.4</ele>
        <time>2021-09-21T08:18:34Z</time>
      </trkpt>
      <trkpt lat="46.51043" lon="-1.42542">
        <ele>71.3</ele>
        <time>2021-09-21T08:18:35Z</time>
      </trkpt>
      <trkpt lat="46.51042" lon="-1.42543">
        <ele>71.3</ele>
        <time>2021-09-21T08:18:36Z</time>
      </trkpt>
      <trkpt lat="46.51041" lon="-1.42543">
        <ele>71.3</ele>
        <time>2021-09-21T08:18:37Z</time>
      </trkpt>
      <trkpt lat="46.5104" lon="-1.42543">
        <ele>71.3</ele>
        <time>2021-09-21T08:18:38Z</time>
      </trkpt>
      <trkpt lat="46.51039" lon="-1.42543">
        <ele>71.3</ele>
        <time>2021-09-21T08:18:39Z</time>
      </trkpt>
      <trkpt lat="46.51038" lon="-1.42542">
        <ele>71.3</ele>
        <time>2021-09-21T08:18:40Z</time>
      </trkpt>
      <trkpt lat="46.51037" lon="-1.42541">
        <ele>71.3</ele>
        <time>2021-09-21T08:18:41Z</time>
      </trkpt>
      <trkpt lat="46.51036" lon="-1.4254">
        <ele>71.2</ele>
        <time>2021-09-21T08:18:42Z</time>
      </trkpt>
      <trkpt lat="46.51035" lon="-1.42539">
        <ele>71.2</ele>
        <time>2021-09-21T08:18:43Z</time>
      </trkpt>
      <trkpt lat="46.51034" lon="-1.42538">
        <ele>71.2</ele>
        <time>2021-09-21T08:18:44Z</time>
      </trkpt>
      <trkpt lat="46.51034" lon="-1.42537">
        <ele>71.2</ele>
        <time>2021-09-21T08:18:45Z</time>
      </trkpt>
      <trkpt lat="46.51033" lon="-1.42536">
        <ele>71.2</ele>
        <time>2021-09-21T08:18:46Z</time>
      </trkpt>
      <trkpt lat="46.51033" lon="-1.42535">
        <ele>71.2</ele>
        <time>2021-09-21T08:18:47Z</time>
      </trkpt>
      <trkpt lat="46.51033" lon="-1.42535">
        <ele>71.2</ele>
        <time>2021-09-21T08:18:48Z</time>
      </trkpt>
      <trkpt lat="46.51033" lon="-1.42535">
        <ele>71.2</ele>
        <time>2021-09-21T08:18:49Z</time>
      </trkpt>
      <trkpt lat="46.51032" lon="-1.42536">
        <ele>71.2</ele>
        <time>2021-09-21T08:18:50Z</time>
      </trkpt>
      <trkpt lat="46.51032" lon="-1.42536">
        <ele>71.2</ele>
        <time>2021-09-21T08:18:51Z</time>
      </trkpt>
      <trkpt lat="46.51032" lon="-1.42535">
        <ele>71.2</ele>
        <time>2021-09-21T08:18:52Z</time>
      </trkpt>
      <trkpt lat="46.51032" lon="-1.42534">
        <ele>71.2</ele>
        <time>2021-09-21T08:18:53Z</time>
      </trkpt>
      <trkpt lat="46.51032" lon="-1.42533">
        <ele>71.3</ele>
        <time>2021-09-21T08:18:54Z</time>
      </trkpt>
      <trkpt lat="46.51032" lon="-1.42532">
        <ele>71.3</ele>
        <time>2021-09-21T08:18:55Z</time>
      </trkpt>
      <trkpt lat="46.51032" lon="-1.42531">
        <ele>71.3</ele>
        <time>2021-09-21T08:18:56Z</time>
      </trkpt>
      <trkpt lat="46.51032" lon="-1.42529">
        <ele>71.3</ele>
        <time>2021-09-21T08:18:57Z</time>
      </trkpt>
      <trkpt lat="46.51032" lon="-1.42528">
        <ele>71.3</ele>
        <time>2021-09-21T08:18:58Z</time>
      </trkpt>
      <trkpt lat="46.51031" lon="-1.42526">
        <ele>71.3</ele>
        <time>2021-09-21T08:18:59Z</time>
      </trkpt>
      <trkpt lat="46.51031" lon="-1.42524">
        <ele>71.3</ele>
        <time>2021-09-21T08:19:00Z</time>
      </trkpt>
      <trkpt lat="46.51031" lon="-1.42523">
        <ele>71.3</ele>
        <time>2021-09-21T08:19:01Z</time>
      </trkpt>
      <trkpt lat="46.5103" lon="-1.42521">
        <ele>71.3</ele>
        <time>2021-09-21T08:19:02Z</time>
      </trkpt>
      <trkpt lat="46.5103" lon="-1.42519">
        <ele>71.3</ele>
        <time>2021-09-21T08:19:03Z</time>
      </trkpt>
      <trkpt lat="46.51029" lon="-1.42518">
        <ele>71.3</ele>
        <time>2021-09-21T08:19:04Z</time>
      </trkpt>
      <trkpt lat="46.51029" lon="-1.42516">
        <ele>71.3</ele>
        <time>2021-09-21T08:19:05Z</time>
      </trkpt>
      <trkpt lat="46.51028" lon="-1.42514">
        <ele>71.3</ele>
        <time>2021-09-21T08:19:06Z</time>
      </trkpt>
      <trkpt lat="46.51028" lon="-1.42513">
        <ele>71.3</ele>
        <time>2021-09-21T08:19:07Z</time>
      </trkpt>
      <trkpt lat="46.51027" lon="-1.42511">
        <ele>71.3</ele>
        <time>2021-09-21T08:19:08Z</time>
      </trkpt>
      <trkpt lat="46.51027" lon="-1.42509">
        <ele>71.3</ele>
        <time>2021-09-21T08:19:09Z</time>
      </trkpt>
      <trkpt lat="46.51026" lon="-1.42507">
        <ele>71.3</ele>
        <time>2021-09-21T08:19:10Z</time>
      </trkpt>
      <trkpt lat="46.51026" lon="-1.42506">
        <ele>71.3</ele>
        <time>2021-09-21T08:19:11Z</time>
      </trkpt>
      <trkpt lat="46.51025" lon="-1.42504">
        <ele>71.3</ele>
        <time>2021-09-21T08:19:12Z</time>
      </trkpt>
      <trkpt lat="46.51025" lon="-1.42502">
        <ele>71.3</ele>
        <time>2021-09-21T08:19:13Z</time>
      </trkpt>
      <trkpt lat="46.51024" lon="-1.425">
        <ele>71.3</ele>
        <time>2021-09-21T08:19:14Z</time>
      </trkpt>
      <trkpt lat="46.51024" lon="-1.42499">
        <ele>71.3</ele>
        <time>2021-09-21T08:19:15Z</time>
      </trkpt>
      <trkpt lat="46.51024" lon="-1.42497">
        <ele>71.3</ele>
        <time>2021-09-21T08:19:16Z</time>
      </trkpt>
      <trkpt lat="46.51023" lon="-1.42495">
        <ele>71.3</ele>
        <time>2021-09-21T08:19:17Z</time>
      </trkpt>
      <trkpt lat="46.51023" lon="-1.42493">
        <ele>71.3</ele>
        <time>2021-09-21T08:19:18Z</time>
      </trkpt>
      <trkpt lat="46.51023" lon="-1.42492">
        <ele>71.3</ele>
        <time>2021-09-21T08:19:19Z</time>
      </trkpt>
      <trkpt lat="46.51022" lon="-1.4249">
        <ele>71.3</ele>
        <time>2021-09-21T08:19:20Z</time>
      </trkpt>
      <trkpt lat="46.51022" lon="-1.42488">
        <ele>71.3</ele>
        <time>2021-09-21T08:19:21Z</time>
      </trkpt>
      <trkpt lat="46.51022" lon="-1.42486">
        <ele>71.3</ele>
        <time>2021-09-21T08:19:22Z</time>
      </trkpt>
      <trkpt lat="46.51022" lon="-1.42485">
        <ele>71.3</ele>
        <time>2021-09-21T08:19:23Z</time>
      </trkpt>
      <trkpt lat="46.51022" lon="-1.42483">
        <ele>71.3</ele>
        <time>2021-09-21T08:19:24Z</time>
      </trkpt>
      <trkpt lat="46.51022" lon="-1.42481">
        <ele>71.3</ele>
        <time>2021-09-21T08:19:25Z</time>
      </trkpt>
      <trkpt lat="46.51022" lon="-1.4248">
        <ele>71.3</ele>
        <time>2021-09-21T08:19:26Z</time>
      </trkpt>
      <trkpt lat="46.51022" lon="-1.42478">
        <ele>71.3</ele>
        <time>2021-09-21T08:19:27Z</time>
      </trkpt>
      <trkpt lat="46.51022" lon="-1.42476">
        <ele>71.3</ele>
        <time>2021-09-21T08:19:28Z</time>
      </trkpt>
      <trkpt lat="46.51022" lon="-1.42475">
        <ele>71.3</ele>
        <time>2021-09-21T08:19:29Z</time>
      </trkpt>
      <trkpt lat="46.51022" lon="-1.42473">
        <ele>71.3</ele>
        <time>2021-09-21T08:19:30Z</time>
      </trkpt>
      <trkpt lat="46.51023" lon="-1.42471">
        <ele>71.3</ele>
        <time>2021-09-21T08:19:31Z</time>
      </trkpt>
      <trkpt lat="46.51023" lon="-1.4247">
        <ele>71.3</ele>
        <time>2021-09-21T08:19:32Z</time>
      </trkpt>
      <trkpt lat="46.51023" lon="-1.42468">
        <ele>71.3</ele>
        <time>2021-09-21T08:19:33Z</time>
      </trkpt>
      <trkpt lat="46.51024" lon="-1.42466">
        <ele>71.3</ele>
        <time>2021-09-21T08:19:34Z</time>
      </trkpt>
      <trkpt lat="46.51024" lon="-1.42465">
        <ele>71.3</ele>
        <time>2021-09-21T08:19:35Z</time>
      </trkpt>
      <trkpt lat="46.51025" lon="-1.42463">
        <ele>71.3</ele>
        <time>2021-09-21T08:19:36Z</time>
      </trkpt>
      <trkpt lat="46.51026" lon="-1.42462">
        <ele>71.3</ele>
        <time>2021-09-21T08:19:37Z</time>
      </trkpt>
      <trkpt lat="46.51026" lon="-1.4246">
        <ele>71.3</ele>
        <time>2021-09-21T08:19:38Z</time>
      </trkpt>
      <trkpt lat="46.51027" lon="-1.42459">
        <ele>71.3</ele>
        <time>2021-09-21T08:19:39Z</time>
      </trkpt>
      <trkpt lat="46.51028" lon="-1.42457">
        <ele>71.3</ele>
        <time>2021-09-21T08:19:40Z</time>
      </trkpt>
      <trkpt lat="46.51029" lon="-1.42456">
        <ele>71.2</ele>
        <time>2021-09-21T08:19:41Z</time>
      </trkpt>
      <trkpt lat="46.5103" lon="-1.42454">
        <ele>71.2</ele>
        <time>2021-09-21T08:19:42Z</time>
      </trkpt>
      <trkpt lat="46.5103" lon="-1.42453">
        <ele>71.2</ele>
        <time>2021-09-21T08:19:43Z</time>
      </trkpt>
      <trkpt lat="46.51031" lon="-1.42451">
        <ele>71.2</ele>
        <time>2021-09-21T08:19:44Z</time>
      </trkpt>
      <trkpt lat="46.51032" lon="-1.4245">
        <ele>71.2</ele>
        <time>2021-09-21T08:19:45Z</time>
      </trkpt>
      <trkpt lat="46.51033" lon="-1.42448">
        <ele>71.1</ele>
        <time>2021-09-21T08:19:46Z</time>
      </trkpt>
      <trkpt lat="46.51034" lon="-1.42447">
        <ele>71.1</ele>
        <time>2021-09-21T08:19:47Z</time>
      </trkpt>
      <trkpt lat="46.51035" lon="-1.42445">
        <ele>71.1</ele>
        <time>2021-09-21T08:19:48Z</time>
      </trkpt>
      <trkpt lat="46.51036" lon="-1.42443">
        <ele>71.1</ele>
        <time>2021-09-21T08:19:49Z</time>
      </trkpt>
      <trkpt lat="46.51037" lon="-1.42442">
        <ele>71</ele>
        <time>2021-09-21T08:19:50Z</time>
      </trkpt>
      <trkpt lat="46.51038" lon="-1.4244">
        <ele>71</ele>
        <time>2021-09-21T08:19:51Z</time>
      </trkpt>
      <trkpt lat="46.51038" lon="-1.42439">
        <ele>71</ele>
        <time>2021-09-21T08:19:52Z</time>
      </trkpt>
      <trkpt lat="46.51039" lon="-1.42437">
        <ele>71</ele>
        <time>2021-09-21T08:19:53Z</time>
      </trkpt>
      <trkpt lat="46.5104" lon="-1.42435">
        <ele>70.9</ele>
        <time>2021-09-21T08:19:54Z</time>
      </trkpt>
      <trkpt lat="46.5104" lon="-1.42433">
        <ele>70.9</ele>
        <time>2021-09-21T08:19:55Z</time>
      </trkpt>
      <trkpt lat="46.51041" lon="-1.42432">
        <ele>70.9</ele>
        <time>2021-09-21T08:19:56Z</time>
      </trkpt>
      <trkpt lat="46.51042" lon="-1.4243">
        <ele>70.8</ele>
        <time>2021-09-21T08:19:57Z</time>
      </trkpt>
      <trkpt lat="46.51042" lon="-1.42428">
        <ele>70.8</ele>
        <time>2021-09-21T08:19:58Z</time>
      </trkpt>
      <trkpt lat="46.51043" lon="-1.42426">
        <ele>70.7</ele>
        <time>2021-09-21T08:19:59Z</time>
      </trkpt>
      <trkpt lat="46.51043" lon="-1.42425">
        <ele>70.7</ele>
        <time>2021-09-21T08:20:00Z</time>
      </trkpt>
      <trkpt lat="46.51044" lon="-1.42423">
        <ele>70.7</ele>
        <time>2021-09-21T08:20:01Z</time>
      </trkpt>
      <trkpt lat="46.51044" lon="-1.42421">
        <ele>70.6</ele>
        <time>2021-09-21T08:20:02Z</time>
      </trkpt>
      <trkpt lat="46.51045" lon="-1.42419">
        <ele>70.6</ele>
        <time>2021-09-21T08:20:03Z</time>
      </trkpt>
      <trkpt lat="46.51045" lon="-1.42417">
        <ele>70.6</ele>
        <time>2021-09-21T08:20:04Z</time>
      </trkpt>
      <trkpt lat="46.51045" lon="-1.42416">
        <ele>70.6</ele>
        <time>2021-09-21T08:20:05Z</time>
      </trkpt>
      <trkpt lat="46.51046" lon="-1.42414">
        <ele>70.5</ele>
        <time>2021-09-21T08:20:06Z</time>
      </trkpt>
      <trkpt lat="46.51046" lon="-1.42412">
        <ele>70.5</ele>
        <time>2021-09-21T08:20:07Z</time>
      </trkpt>
      <trkpt lat="46.51046" lon="-1.4241">
        <ele>70.5</ele>
        <time>2021-09-21T08:20:08Z</time>
      </trkpt>
      <trkpt lat="46.51047" lon="-1.42408">
        <ele>70.5</ele>
        <time>2021-09-21T08:20:09Z</time>
      </trkpt>
      <trkpt lat="46.51047" lon="-1.42407">
        <ele>70.5</ele>
        <time>2021-09-21T08:20:10Z</time>
      </trkpt>
      <trkpt lat="46.51047" lon="-1.42405">
        <ele>70.4</ele>
        <time>2021-09-21T08:20:11Z</time>
      </trkpt>
      <trkpt lat="46.51047" lon="-1.42403">
        <ele>70.4</ele>
        <time>2021-09-21T08:20:12Z</time>
      </trkpt>
      <trkpt lat="46.51048" lon="-1.42401">
        <ele>70.4</ele>
        <time>2021-09-21T08:20:13Z</time>
      </trkpt>
      <trkpt lat="46.51048" lon="-1.424">
        <ele>70.4</ele>
        <time>2021-09-21T08:20:14Z</time>
      </trkpt>
      <trkpt lat="46.51048" lon="-1.42398">
        <ele>70.4</ele>
        <time>2021-09-21T08:20:15Z</time>
      </trkpt>
      <trkpt lat="46.51049" lon="-1.42396">
        <ele>70.3</ele>
        <time>2021-09-21T08:20:16Z</time>
      </trkpt>
      <trkpt lat="46.51049" lon="-1.42394">
        <ele>70.3</ele>
        <time>2021-09-21T08:20:17Z</time>
      </trkpt>
      <trkpt lat="46.51049" lon="-1.42393">
        <ele>70.3</ele>
        <time>2021-09-21T08:20:18Z</time>
      </trkpt>
      <trkpt lat="46.5105" lon="-1.42391">
        <ele>70.3</ele>
        <time>2021-09-21T08:20:19Z</time>
      </trkpt>
      <trkpt lat="46.5105" lon="-1.42389">
        <ele>70.2</ele>
        <time>2021-09-21T08:20:20Z</time>
      </trkpt>
      <trkpt lat="46.5105" lon="-1.42387">
        <ele>70.2</ele>
        <time>2021-09-21T08:20:21Z</time>
      </trkpt>
      <trkpt lat="46.51051" lon="-1.42386">
        <ele>70.2</ele>
        <time>2021-09-21T08:20:22Z</time>
      </trkpt>
      <trkpt lat="46.51051" lon="-1.42384">
        <ele>70.2</ele>
        <time>2021-09-21T08:20:23Z</time>
      </trkpt>
      <trkpt lat="46.51051" lon="-1.42382">
        <ele>70.2</ele>
        <time>2021-09-21T08:20:24Z</time>
      </trkpt>
      <trkpt lat="46.51051" lon="-1.4238">
        <ele>70.1</ele>
        <time>2021-09-21T08:20:25Z</time>
      </trkpt>
      <trkpt lat="46.51051" lon="-1.42378">
        <ele>70.1</ele>
        <time>2021-09-21T08:20:26Z</time>
      </trkpt>
      <trkpt lat="46.51051" lon="-1.42376">
        <ele>70.1</ele>
        <time>2021-09-21T08:20:27Z</time>
      </trkpt>
      <trkpt lat="46.51052" lon="-1.42375">
        <ele>70.1</ele>
        <time>2021-09-21T08:20:28Z</time>
      </trkpt>
      <trkpt lat="46.51052" lon="-1.42373">
        <ele>70</ele>
        <time>2021-09-21T08:20:29Z</time>
      </trkpt>
      <trkpt lat="46.51052" lon="-1.42371">
        <ele>70</ele>
        <time>2021-09-21T08:20:30Z</time>
      </trkpt>
      <trkpt lat="46.51052" lon="-1.42369">
        <ele>70</ele>
        <time>2021-09-21T08:20:31Z</time>
      </trkpt>
      <trkpt lat="46.51052" lon="-1.42367">
        <ele>69.9</ele>
        <time>2021-09-21T08:20:32Z</time>
      </trkpt>
      <trkpt lat="46.51052" lon="-1.42365">
        <ele>69.9</ele>
        <time>2021-09-21T08:20:33Z</time>
      </trkpt>
      <trkpt lat="46.51052" lon="-1.42363">
        <ele>69.9</ele>
        <time>2021-09-21T08:20:34Z</time>
      </trkpt>
      <trkpt lat="46.51053" lon="-1.42362">
        <ele>69.8</ele>
        <time>2021-09-21T08:20:35Z</time>
      </trkpt>
      <trkpt lat="46.51053" lon="-1.4236">
        <ele>69.8</ele>
        <time>2021-09-21T08:20:36Z</time>
      </trkpt>
      <trkpt lat="46.51053" lon="-1.42358">
        <ele>69.8</ele>
        <time>2021-09-21T08:20:37Z</time>
      </trkpt>
      <trkpt lat="46.51053" lon="-1.42356">
        <ele>69.7</ele>
        <time>2021-09-21T08:20:38Z</time>
      </trkpt>
      <trkpt lat="46.51054" lon="-1.42354">
        <ele>69.7</ele>
        <time>2021-09-21T08:20:39Z</time>
      </trkpt>
      <trkpt lat="46.51054" lon="-1.42353">
        <ele>69.6</ele>
        <time>2021-09-21T08:20:40Z</time>
      </trkpt>
      <trkpt lat="46.51054" lon="-1.42351">
        <ele>69.6</ele>
        <time>2021-09-21T08:20:41Z</time>
      </trkpt>
      <trkpt lat="46.51054" lon="-1.42349">
        <ele>69.6</ele>
        <time>2021-09-21T08:20:42Z</time>
      </trkpt>
      <trkpt lat="46.51055" lon="-1.42347">
        <ele>69.5</ele>
        <time>2021-09-21T08:20:43Z</time>
      </trkpt>
      <trkpt lat="46.51055" lon="-1.42346">
        <ele>69.5</ele>
        <time>2021-09-21T08:20:44Z</time>
      </trkpt>
      <trkpt lat="46.51055" lon="-1.42344">
        <ele>69.4</ele>
        <time>2021-09-21T08:20:45Z</time>
      </trkpt>
      <trkpt lat="46.51056" lon="-1.42342">
        <ele>69.4</ele>
        <time>2021-09-21T08:20:46Z</time>
      </trkpt>
      <trkpt lat="46.51056" lon="-1.4234">
        <ele>69.3</ele>
        <time>2021-09-21T08:20:47Z</time>
      </trkpt>
      <trkpt lat="46.51056" lon="-1.42338">
        <ele>69.3</ele>
        <time>2021-09-21T08:20:48Z</time>
      </trkpt>
      <trkpt lat="46.51057" lon="-1.42337">
        <ele>69.2</ele>
        <time>2021-09-21T08:20:49Z</time>
      </trkpt>
      <trkpt lat="46.51057" lon="-1.42335">
        <ele>69.2</ele>
        <time>2021-09-21T08:20:50Z</time>
      </trkpt>
      <trkpt lat="46.51057" lon="-1.42333">
        <ele>69.1</ele>
        <time>2021-09-21T08:20:51Z</time>
      </trkpt>
      <trkpt lat="46.51058" lon="-1.42331">
        <ele>69.1</ele>
        <time>2021-09-21T08:20:52Z</time>
      </trkpt>
      <trkpt lat="46.51058" lon="-1.4233">
        <ele>69.1</ele>
        <time>2021-09-21T08:20:53Z</time>
      </trkpt>
      <trkpt lat="46.51059" lon="-1.42328">
        <ele>69</ele>
        <time>2021-09-21T08:20:54Z</time>
      </trkpt>
      <trkpt lat="46.51059" lon="-1.42326">
        <ele>69</ele>
        <time>2021-09-21T08:20:55Z</time>
      </trkpt>
      <trkpt lat="46.51059" lon="-1.42325">
        <ele>68.9</ele>
        <time>2021-09-21T08:20:56Z</time>
      </trkpt>
      <trkpt lat="46.51059" lon="-1.42323">
        <ele>68.9</ele>
        <time>2021-09-21T08:20:57Z</time>
      </trkpt>
      <trkpt lat="46.5106" lon="-1.42322">
        <ele>68.9</ele>
        <time>2021-09-21T08:20:58Z</time>
      </trkpt>
      <trkpt lat="46.5106" lon="-1.42321">
        <ele>68.8</ele>
        <time>2021-09-21T08:20:59Z</time>
      </trkpt>
      <trkpt lat="46.5106" lon="-1.42319">
        <ele>68.8</ele>
        <time>2021-09-21T08:21:00Z</time>
      </trkpt>
      <trkpt lat="46.5106" lon="-1.42318">
        <ele>68.8</ele>
        <time>2021-09-21T08:21:01Z</time>
      </trkpt>
      <trkpt lat="46.5106" lon="-1.42317">
        <ele>68.8</ele>
        <time>2021-09-21T08:21:02Z</time>
      </trkpt>
      <trkpt lat="46.51061" lon="-1.42316">
        <ele>68.7</ele>
        <time>2021-09-21T08:21:03Z</time>
      </trkpt>
      <trkpt lat="46.51061" lon="-1.42315">
        <ele>68.7</ele>
        <time>2021-09-21T08:21:04Z</time>
      </trkpt>
      <trkpt lat="46.51062" lon="-1.42313">
        <ele>68.7</ele>
        <time>2021-09-21T08:21:05Z</time>
      </trkpt>
      <trkpt lat="46.51062" lon="-1.42312">
        <ele>68.7</ele>
        <time>2021-09-21T08:21:06Z</time>
      </trkpt>
      <trkpt lat="46.51063" lon="-1.4231">
        <ele>68.6</ele>
        <time>2021-09-21T08:21:07Z</time>
      </trkpt>
      <trkpt lat="46.51064" lon="-1.42308">
        <ele>68.6</ele>
        <time>2021-09-21T08:21:08Z</time>
      </trkpt>
      <trkpt lat="46.51065" lon="-1.42306">
        <ele>68.6</ele>
        <time>2021-09-21T08:21:09Z</time>
      </trkpt>
      <trkpt lat="46.51065" lon="-1.42305">
        <ele>68.5</ele>
        <time>2021-09-21T08:21:10Z</time>
      </trkpt>
      <trkpt lat="46.51066" lon="-1.42303">
        <ele>68.5</ele>
        <time>2021-09-21T08:21:11Z</time>
      </trkpt>
      <trkpt lat="46.51067" lon="-1.42301">
        <ele>68.5</ele>
        <time>2021-09-21T08:21:12Z</time>
      </trkpt>
      <trkpt lat="46.51067" lon="-1.42299">
        <ele>68.5</ele>
        <time>2021-09-21T08:21:13Z</time>
      </trkpt>
      <trkpt lat="46.51067" lon="-1.42298">
        <ele>68.5</ele>
        <time>2021-09-21T08:21:14Z</time>
      </trkpt>
      <trkpt lat="46.51067" lon="-1.42296">
        <ele>68.4</ele>
        <time>2021-09-21T08:21:15Z</time>
      </trkpt>
      <trkpt lat="46.51067" lon="-1.42294">
        <ele>68.4</ele>
        <time>2021-09-21T08:21:16Z</time>
      </trkpt>
      <trkpt lat="46.51067" lon="-1.42292">
        <ele>68.4</ele>
        <time>2021-09-21T08:21:17Z</time>
      </trkpt>
      <trkpt lat="46.51067" lon="-1.4229">
        <ele>68.4</ele>
        <time>2021-09-21T08:21:18Z</time>
      </trkpt>
      <trkpt lat="46.51066" lon="-1.42287">
        <ele>68.4</ele>
        <time>2021-09-21T08:21:19Z</time>
      </trkpt>
      <trkpt lat="46.51065" lon="-1.42286">
        <ele>68.3</ele>
        <time>2021-09-21T08:21:20Z</time>
      </trkpt>
      <trkpt lat="46.51065" lon="-1.42285">
        <ele>68.3</ele>
        <time>2021-09-21T08:21:21Z</time>
      </trkpt>
      <trkpt lat="46.51064" lon="-1.42284">
        <ele>68.3</ele>
        <time>2021-09-21T08:21:22Z</time>
      </trkpt>
      <trkpt lat="46.51063" lon="-1.42282">
        <ele>68.3</ele>
        <time>2021-09-21T08:21:23Z</time>
      </trkpt>
      <trkpt lat="46.51062" lon="-1.42281">
        <ele>68.3</ele>
        <time>2021-09-21T08:21:24Z</time>
      </trkpt>
      <trkpt lat="46.51062" lon="-1.4228">
        <ele>68.3</ele>
        <time>2021-09-21T08:21:25Z</time>
      </trkpt>
      <trkpt lat="46.51061" lon="-1.42279">
        <ele>68.3</ele>
        <time>2021-09-21T08:21:26Z</time>
      </trkpt>
      <trkpt lat="46.5106" lon="-1.42278">
        <ele>68.3</ele>
        <time>2021-09-21T08:21:27Z</time>
      </trkpt>
      <trkpt lat="46.51058" lon="-1.42277">
        <ele>68.3</ele>
        <time>2021-09-21T08:21:28Z</time>
      </trkpt>
      <trkpt lat="46.51057" lon="-1.42276">
        <ele>68.3</ele>
        <time>2021-09-21T08:21:29Z</time>
      </trkpt>
      <trkpt lat="46.51056" lon="-1.42276">
        <ele>68.3</ele>
        <time>2021-09-21T08:21:30Z</time>
      </trkpt>
      <trkpt lat="46.51055" lon="-1.42275">
        <ele>68.3</ele>
        <time>2021-09-21T08:21:31Z</time>
      </trkpt>
      <trkpt lat="46.51053" lon="-1.42274">
        <ele>68.3</ele>
        <time>2021-09-21T08:21:32Z</time>
      </trkpt>
      <trkpt lat="46.51052" lon="-1.42274">
        <ele>68.3</ele>
        <time>2021-09-21T08:21:33Z</time>
      </trkpt>
      <trkpt lat="46.51051" lon="-1.42273">
        <ele>68.3</ele>
        <time>2021-09-21T08:21:34Z</time>
      </trkpt>
      <trkpt lat="46.51049" lon="-1.42273">
        <ele>68.3</ele>
        <time>2021-09-21T08:21:35Z</time>
      </trkpt>
      <trkpt lat="46.51048" lon="-1.42272">
        <ele>68.3</ele>
        <time>2021-09-21T08:21:36Z</time>
      </trkpt>
      <trkpt lat="46.51047" lon="-1.42272">
        <ele>68.3</ele>
        <time>2021-09-21T08:21:37Z</time>
      </trkpt>
      <trkpt lat="46.51045" lon="-1.42271">
        <ele>68.4</ele>
        <time>2021-09-21T08:21:38Z</time>
      </trkpt>
      <trkpt lat="46.51044" lon="-1.42271">
        <ele>68.4</ele>
        <time>2021-09-21T08:21:39Z</time>
      </trkpt>
      <trkpt lat="46.51043" lon="-1.4227">
        <ele>68.4</ele>
        <time>2021-09-21T08:21:40Z</time>
      </trkpt>
      <trkpt lat="46.51041" lon="-1.4227">
        <ele>68.4</ele>
        <time>2021-09-21T08:21:41Z</time>
      </trkpt>
      <trkpt lat="46.5104" lon="-1.42269">
        <ele>68.4</ele>
        <time>2021-09-21T08:21:42Z</time>
      </trkpt>
      <trkpt lat="46.51039" lon="-1.42269">
        <ele>68.5</ele>
        <time>2021-09-21T08:21:43Z</time>
      </trkpt>
      <trkpt lat="46.51037" lon="-1.42269">
        <ele>68.5</ele>
        <time>2021-09-21T08:21:44Z</time>
      </trkpt>
      <trkpt lat="46.51036" lon="-1.42269">
        <ele>68.5</ele>
        <time>2021-09-21T08:21:45Z</time>
      </trkpt>
      <trkpt lat="46.51034" lon="-1.42268">
        <ele>68.5</ele>
        <time>2021-09-21T08:21:46Z</time>
      </trkpt>
      <trkpt lat="46.51033" lon="-1.42268">
        <ele>68.6</ele>
        <time>2021-09-21T08:21:47Z</time>
      </trkpt>
      <trkpt lat="46.51031" lon="-1.42268">
        <ele>68.6</ele>
        <time>2021-09-21T08:21:48Z</time>
      </trkpt>
      <trkpt lat="46.5103" lon="-1.42268">
        <ele>68.7</ele>
        <time>2021-09-21T08:21:49Z</time>
      </trkpt>
      <trkpt lat="46.51028" lon="-1.42268">
        <ele>68.7</ele>
        <time>2021-09-21T08:21:50Z</time>
      </trkpt>
      <trkpt lat="46.51027" lon="-1.42268">
        <ele>68.8</ele>
        <time>2021-09-21T08:21:51Z</time>
      </trkpt>
      <trkpt lat="46.51025" lon="-1.42269">
        <ele>68.9</ele>
        <time>2021-09-21T08:21:52Z</time>
      </trkpt>
      <trkpt lat="46.51024" lon="-1.42269">
        <ele>68.8</ele>
        <time>2021-09-21T08:21:53Z</time>
      </trkpt>
      <trkpt lat="46.51022" lon="-1.42269">
        <ele>68.8</ele>
        <time>2021-09-21T08:21:54Z</time>
      </trkpt>
      <trkpt lat="46.51021" lon="-1.4227">
        <ele>68.8</ele>
        <time>2021-09-21T08:21:55Z</time>
      </trkpt>
      <trkpt lat="46.51019" lon="-1.4227">
        <ele>68.7</ele>
        <time>2021-09-21T08:21:56Z</time>
      </trkpt>
      <trkpt lat="46.51018" lon="-1.42271">
        <ele>68.7</ele>
        <time>2021-09-21T08:21:57Z</time>
      </trkpt>
      <trkpt lat="46.51016" lon="-1.42271">
        <ele>68.7</ele>
        <time>2021-09-21T08:21:58Z</time>
      </trkpt>
      <trkpt lat="46.51015" lon="-1.42272">
        <ele>68.6</ele>
        <time>2021-09-21T08:21:59Z</time>
      </trkpt>
      <trkpt lat="46.51014" lon="-1.42273">
        <ele>68.6</ele>
        <time>2021-09-21T08:22:00Z</time>
      </trkpt>
      <trkpt lat="46.51012" lon="-1.42273">
        <ele>68.6</ele>
        <time>2021-09-21T08:22:01Z</time>
      </trkpt>
      <trkpt lat="46.51011" lon="-1.42274">
        <ele>68.6</ele>
        <time>2021-09-21T08:22:02Z</time>
      </trkpt>
      <trkpt lat="46.5101" lon="-1.42275">
        <ele>68.5</ele>
        <time>2021-09-21T08:22:03Z</time>
      </trkpt>
      <trkpt lat="46.51009" lon="-1.42276">
        <ele>68.5</ele>
        <time>2021-09-21T08:22:04Z</time>
      </trkpt>
      <trkpt lat="46.51008" lon="-1.42277">
        <ele>68.5</ele>
        <time>2021-09-21T08:22:05Z</time>
      </trkpt>
      <trkpt lat="46.51008" lon="-1.42278">
        <ele>68.5</ele>
        <time>2021-09-21T08:22:06Z</time>
      </trkpt>
      <trkpt lat="46.51007" lon="-1.42279">
        <ele>68.4</ele>
        <time>2021-09-21T08:22:07Z</time>
      </trkpt>
      <trkpt lat="46.51006" lon="-1.4228">
        <ele>68.4</ele>
        <time>2021-09-21T08:22:08Z</time>
      </trkpt>
      <trkpt lat="46.51005" lon="-1.42281">
        <ele>68.4</ele>
        <time>2021-09-21T08:22:09Z</time>
      </trkpt>
      <trkpt lat="46.51004" lon="-1.42282">
        <ele>68.4</ele>
        <time>2021-09-21T08:22:10Z</time>
      </trkpt>
      <trkpt lat="46.51003" lon="-1.42283">
        <ele>68.3</ele>
        <time>2021-09-21T08:22:11Z</time>
      </trkpt>
      <trkpt lat="46.51002" lon="-1.42284">
        <ele>68.3</ele>
        <time>2021-09-21T08:22:12Z</time>
      </trkpt>
      <trkpt lat="46.51001" lon="-1.42284">
        <ele>68.3</ele>
        <time>2021-09-21T08:22:13Z</time>
      </trkpt>
      <trkpt lat="46.50999" lon="-1.42285">
        <ele>68.2</ele>
        <time>2021-09-21T08:22:14Z</time>
      </trkpt>
      <trkpt lat="46.50998" lon="-1.42286">
        <ele>68.2</ele>
        <time>2021-09-21T08:22:15Z</time>
      </trkpt>
      <trkpt lat="46.50997" lon="-1.42286">
        <ele>68.2</ele>
        <time>2021-09-21T08:22:16Z</time>
      </trkpt>
      <trkpt lat="46.50996" lon="-1.42287">
        <ele>68.2</ele>
        <time>2021-09-21T08:22:17Z</time>
      </trkpt>
      <trkpt lat="46.50995" lon="-1.42287">
        <ele>68.1</ele>
        <time>2021-09-21T08:22:18Z</time>
      </trkpt>
      <trkpt lat="46.50994" lon="-1.42287">
        <ele>68.1</ele>
        <time>2021-09-21T08:22:19Z</time>
      </trkpt>
      <trkpt lat="46.50993" lon="-1.42287">
        <ele>68.1</ele>
        <time>2021-09-21T08:22:20Z</time>
      </trkpt>
      <trkpt lat="46.50992" lon="-1.42287">
        <ele>68.1</ele>
        <time>2021-09-21T08:22:21Z</time>
      </trkpt>
      <trkpt lat="46.50991" lon="-1.42287">
        <ele>68.1</ele>
        <time>2021-09-21T08:22:22Z</time>
      </trkpt>
      <trkpt lat="46.5099" lon="-1.42287">
        <ele>68</ele>
        <time>2021-09-21T08:22:23Z</time>
      </trkpt>
      <trkpt lat="46.50989" lon="-1.42287">
        <ele>68</ele>
        <time>2021-09-21T08:22:24Z</time>
      </trkpt>
      <trkpt lat="46.50988" lon="-1.42287">
        <ele>68</ele>
        <time>2021-09-21T08:22:25Z</time>
      </trkpt>
      <trkpt lat="46.50987" lon="-1.42287">
        <ele>68</ele>
        <time>2021-09-21T08:22:26Z</time>
      </trkpt>
      <trkpt lat="46.50986" lon="-1.42287">
        <ele>67.9</ele>
        <time>2021-09-21T08:22:27Z</time>
      </trkpt>
      <trkpt lat="46.50984" lon="-1.42287">
        <ele>67.9</ele>
        <time>2021-09-21T08:22:28Z</time>
      </trkpt>
      <trkpt lat="46.50983" lon="-1.42287">
        <ele>67.9</ele>
        <time>2021-09-21T08:22:29Z</time>
      </trkpt>
      <trkpt lat="46.50982" lon="-1.42287">
        <ele>67.9</ele>
        <time>2021-09-21T08:22:30Z</time>
      </trkpt>
      <trkpt lat="46.50981" lon="-1.42287">
        <ele>67.8</ele>
        <time>2021-09-21T08:22:31Z</time>
      </trkpt>
      <trkpt lat="46.50979" lon="-1.42288">
        <ele>67.8</ele>
        <time>2021-09-21T08:22:32Z</time>
      </trkpt>
      <trkpt lat="46.50978" lon="-1.42288">
        <ele>67.8</ele>
        <time>2021-09-21T08:22:33Z</time>
      </trkpt>
      <trkpt lat="46.50977" lon="-1.42289">
        <ele>67.7</ele>
        <time>2021-09-21T08:22:34Z</time>
      </trkpt>
      <trkpt lat="46.50976" lon="-1.42289">
        <ele>67.7</ele>
        <time>2021-09-21T08:22:35Z</time>
      </trkpt>
      <trkpt lat="46.50974" lon="-1.4229">
        <ele>67.7</ele>
        <time>2021-09-21T08:22:36Z</time>
      </trkpt>
      <trkpt lat="46.50973" lon="-1.42291">
        <ele>67.7</ele>
        <time>2021-09-21T08:22:37Z</time>
      </trkpt>
      <trkpt lat="46.50972" lon="-1.42291">
        <ele>67.6</ele>
        <time>2021-09-21T08:22:38Z</time>
      </trkpt>
      <trkpt lat="46.50971" lon="-1.42292">
        <ele>67.6</ele>
        <time>2021-09-21T08:22:39Z</time>
      </trkpt>
      <trkpt lat="46.5097" lon="-1.42292">
        <ele>67.6</ele>
        <time>2021-09-21T08:22:40Z</time>
      </trkpt>
      <trkpt lat="46.50969" lon="-1.42293">
        <ele>67.6</ele>
        <time>2021-09-21T08:22:41Z</time>
      </trkpt>
      <trkpt lat="46.50967" lon="-1.42294">
        <ele>67.5</ele>
        <time>2021-09-21T08:22:42Z</time>
      </trkpt>
      <trkpt lat="46.50966" lon="-1.42295">
        <ele>67.5</ele>
        <time>2021-09-21T08:22:43Z</time>
      </trkpt>
      <trkpt lat="46.50965" lon="-1.42295">
        <ele>67.5</ele>
        <time>2021-09-21T08:22:44Z</time>
      </trkpt>
      <trkpt lat="46.50964" lon="-1.42296">
        <ele>67.4</ele>
        <time>2021-09-21T08:22:45Z</time>
      </trkpt>
      <trkpt lat="46.50963" lon="-1.42297">
        <ele>67.4</ele>
        <time>2021-09-21T08:22:46Z</time>
      </trkpt>
      <trkpt lat="46.50962" lon="-1.42297">
        <ele>67.4</ele>
        <time>2021-09-21T08:22:47Z</time>
      </trkpt>
      <trkpt lat="46.50961" lon="-1.42298">
        <ele>67.4</ele>
        <time>2021-09-21T08:22:48Z</time>
      </trkpt>
      <trkpt lat="46.5096" lon="-1.42299">
        <ele>67.3</ele>
        <time>2021-09-21T08:22:49Z</time>
      </trkpt>
      <trkpt lat="46.50958" lon="-1.42299">
        <ele>67.3</ele>
        <time>2021-09-21T08:22:50Z</time>
      </trkpt>
      <trkpt lat="46.50957" lon="-1.423">
        <ele>67.3</ele>
        <time>2021-09-21T08:22:51Z</time>
      </trkpt>
      <trkpt lat="46.50956" lon="-1.42301">
        <ele>67.3</ele>
        <time>2021-09-21T08:22:52Z</time>
      </trkpt>
      <trkpt lat="46.50955" lon="-1.42301">
        <ele>67.2</ele>
        <time>2021-09-21T08:22:53Z</time>
      </trkpt>
      <trkpt lat="46.50954" lon="-1.42302">
        <ele>67.2</ele>
        <time>2021-09-21T08:22:54Z</time>
      </trkpt>
      <trkpt lat="46.50953" lon="-1.42302">
        <ele>67.2</ele>
        <time>2021-09-21T08:22:55Z</time>
      </trkpt>
      <trkpt lat="46.50952" lon="-1.42303">
        <ele>67.2</ele>
        <time>2021-09-21T08:22:56Z</time>
      </trkpt>
      <trkpt lat="46.50951" lon="-1.42304">
        <ele>67.1</ele>
        <time>2021-09-21T08:22:57Z</time>
      </trkpt>
      <trkpt lat="46.5095" lon="-1.42304">
        <ele>67.1</ele>
        <time>2021-09-21T08:22:58Z</time>
      </trkpt>
      <trkpt lat="46.50949" lon="-1.42305">
        <ele>67.1</ele>
        <time>2021-09-21T08:22:59Z</time>
      </trkpt>
      <trkpt lat="46.50948" lon="-1.42305">
        <ele>67.1</ele>
        <time>2021-09-21T08:23:00Z</time>
      </trkpt>
      <trkpt lat="46.50947" lon="-1.42306">
        <ele>67</ele>
        <time>2021-09-21T08:23:01Z</time>
      </trkpt>
      <trkpt lat="46.50946" lon="-1.42306">
        <ele>67</ele>
        <time>2021-09-21T08:23:02Z</time>
      </trkpt>
      <trkpt lat="46.50945" lon="-1.42307">
        <ele>67</ele>
        <time>2021-09-21T08:23:03Z</time>
      </trkpt>
      <trkpt lat="46.50944" lon="-1.42307">
        <ele>67</ele>
        <time>2021-09-21T08:23:04Z</time>
      </trkpt>
      <trkpt lat="46.50943" lon="-1.42308">
        <ele>67</ele>
        <time>2021-09-21T08:23:05Z</time>
      </trkpt>
      <trkpt lat="46.50942" lon="-1.42308">
        <ele>66.9</ele>
        <time>2021-09-21T08:23:06Z</time>
      </trkpt>
      <trkpt lat="46.5094" lon="-1.42308">
        <ele>66.9</ele>
        <time>2021-09-21T08:23:07Z</time>
      </trkpt>
      <trkpt lat="46.50939" lon="-1.42309">
        <ele>66.9</ele>
        <time>2021-09-21T08:23:08Z</time>
      </trkpt>
      <trkpt lat="46.50938" lon="-1.42309">
        <ele>66.8</ele>
        <time>2021-09-21T08:23:09Z</time>
      </trkpt>
      <trkpt lat="46.50936" lon="-1.42309">
        <ele>66.8</ele>
        <time>2021-09-21T08:23:10Z</time>
      </trkpt>
      <trkpt lat="46.50935" lon="-1.4231">
        <ele>66.8</ele>
        <time>2021-09-21T08:23:11Z</time>
      </trkpt>
      <trkpt lat="46.50934" lon="-1.4231">
        <ele>66.7</ele>
        <time>2021-09-21T08:23:12Z</time>
      </trkpt>
      <trkpt lat="46.50932" lon="-1.42311">
        <ele>66.7</ele>
        <time>2021-09-21T08:23:13Z</time>
      </trkpt>
      <trkpt lat="46.50931" lon="-1.42311">
        <ele>66.7</ele>
        <time>2021-09-21T08:23:14Z</time>
      </trkpt>
      <trkpt lat="46.5093" lon="-1.42312">
        <ele>66.7</ele>
        <time>2021-09-21T08:23:15Z</time>
      </trkpt>
      <trkpt lat="46.50929" lon="-1.42313">
        <ele>66.6</ele>
        <time>2021-09-21T08:23:16Z</time>
      </trkpt>
      <trkpt lat="46.50927" lon="-1.42313">
        <ele>66.6</ele>
        <time>2021-09-21T08:23:17Z</time>
      </trkpt>
      <trkpt lat="46.50926" lon="-1.42314">
        <ele>66.6</ele>
        <time>2021-09-21T08:23:18Z</time>
      </trkpt>
      <trkpt lat="46.50925" lon="-1.42315">
        <ele>66.5</ele>
        <time>2021-09-21T08:23:19Z</time>
      </trkpt>
      <trkpt lat="46.50924" lon="-1.42315">
        <ele>66.5</ele>
        <time>2021-09-21T08:23:20Z</time>
      </trkpt>
      <trkpt lat="46.50922" lon="-1.42316">
        <ele>66.5</ele>
        <time>2021-09-21T08:23:21Z</time>
      </trkpt>
      <trkpt lat="46.50921" lon="-1.42317">
        <ele>66.5</ele>
        <time>2021-09-21T08:23:22Z</time>
      </trkpt>
      <trkpt lat="46.5092" lon="-1.42317">
        <ele>66.4</ele>
        <time>2021-09-21T08:23:23Z</time>
      </trkpt>
      <trkpt lat="46.50919" lon="-1.42318">
        <ele>66.4</ele>
        <time>2021-09-21T08:23:24Z</time>
      </trkpt>
      <trkpt lat="46.50918" lon="-1.42318">
        <ele>66.4</ele>
        <time>2021-09-21T08:23:25Z</time>
      </trkpt>
      <trkpt lat="46.50917" lon="-1.42318">
        <ele>66.4</ele>
        <time>2021-09-21T08:23:26Z</time>
      </trkpt>
      <trkpt lat="46.50915" lon="-1.42318">
        <ele>66.3</ele>
        <time>2021-09-21T08:23:27Z</time>
      </trkpt>
      <trkpt lat="46.50914" lon="-1.42318">
        <ele>66.3</ele>
        <time>2021-09-21T08:23:28Z</time>
      </trkpt>
      <trkpt lat="46.50913" lon="-1.42318">
        <ele>66.3</ele>
        <time>2021-09-21T08:23:29Z</time>
      </trkpt>
      <trkpt lat="46.50911" lon="-1.42318">
        <ele>66.2</ele>
        <time>2021-09-21T08:23:30Z</time>
      </trkpt>
      <trkpt lat="46.5091" lon="-1.42318">
        <ele>66.2</ele>
        <time>2021-09-21T08:23:31Z</time>
      </trkpt>
      <trkpt lat="46.50909" lon="-1.42318">
        <ele>66.2</ele>
        <time>2021-09-21T08:23:32Z</time>
      </trkpt>
      <trkpt lat="46.50908" lon="-1.42318">
        <ele>66.2</ele>
        <time>2021-09-21T08:23:33Z</time>
      </trkpt>
      <trkpt lat="46.50907" lon="-1.42319">
        <ele>66.1</ele>
        <time>2021-09-21T08:23:34Z</time>
      </trkpt>
      <trkpt lat="46.50906" lon="-1.42319">
        <ele>66.1</ele>
        <time>2021-09-21T08:23:35Z</time>
      </trkpt>
      <trkpt lat="46.50905" lon="-1.42319">
        <ele>66.1</ele>
        <time>2021-09-21T08:23:36Z</time>
      </trkpt>
      <trkpt lat="46.50904" lon="-1.42319">
        <ele>66.1</ele>
        <time>2021-09-21T08:23:37Z</time>
      </trkpt>
      <trkpt lat="46.50903" lon="-1.42319">
        <ele>66.1</ele>
        <time>2021-09-21T08:23:38Z</time>
      </trkpt>
      <trkpt lat="46.50902" lon="-1.42319">
        <ele>66</ele>
        <time>2021-09-21T08:23:39Z</time>
      </trkpt>
      <trkpt lat="46.509" lon="-1.42319">
        <ele>66</ele>
        <time>2021-09-21T08:23:40Z</time>
      </trkpt>
      <trkpt lat="46.50899" lon="-1.4232">
        <ele>66</ele>
        <time>2021-09-21T08:23:41Z</time>
      </trkpt>
      <trkpt lat="46.50898" lon="-1.4232">
        <ele>65.9</ele>
        <time>2021-09-21T08:23:42Z</time>
      </trkpt>
      <trkpt lat="46.50897" lon="-1.4232">
        <ele>65.9</ele>
        <time>2021-09-21T08:23:43Z</time>
      </trkpt>
      <trkpt lat="46.50895" lon="-1.4232">
        <ele>65.9</ele>
        <time>2021-09-21T08:23:44Z</time>
      </trkpt>
      <trkpt lat="46.50894" lon="-1.4232">
        <ele>65.9</ele>
        <time>2021-09-21T08:23:45Z</time>
      </trkpt>
      <trkpt lat="46.50893" lon="-1.4232">
        <ele>65.8</ele>
        <time>2021-09-21T08:23:46Z</time>
      </trkpt>
      <trkpt lat="46.50891" lon="-1.4232">
        <ele>65.8</ele>
        <time>2021-09-21T08:23:47Z</time>
      </trkpt>
      <trkpt lat="46.5089" lon="-1.4232">
        <ele>65.8</ele>
        <time>2021-09-21T08:23:48Z</time>
      </trkpt>
      <trkpt lat="46.50889" lon="-1.4232">
        <ele>65.7</ele>
        <time>2021-09-21T08:23:49Z</time>
      </trkpt>
      <trkpt lat="46.50887" lon="-1.4232">
        <ele>65.7</ele>
        <time>2021-09-21T08:23:50Z</time>
      </trkpt>
      <trkpt lat="46.50886" lon="-1.4232">
        <ele>65.7</ele>
        <time>2021-09-21T08:23:51Z</time>
      </trkpt>
      <trkpt lat="46.50885" lon="-1.4232">
        <ele>65.7</ele>
        <time>2021-09-21T08:23:52Z</time>
      </trkpt>
      <trkpt lat="46.50884" lon="-1.42321">
        <ele>65.6</ele>
        <time>2021-09-21T08:23:53Z</time>
      </trkpt>
      <trkpt lat="46.50882" lon="-1.42321">
        <ele>65.6</ele>
        <time>2021-09-21T08:23:54Z</time>
      </trkpt>
      <trkpt lat="46.50881" lon="-1.42321">
        <ele>65.6</ele>
        <time>2021-09-21T08:23:55Z</time>
      </trkpt>
      <trkpt lat="46.5088" lon="-1.42321">
        <ele>65.5</ele>
        <time>2021-09-21T08:23:56Z</time>
      </trkpt>
      <trkpt lat="46.50879" lon="-1.42321">
        <ele>65.5</ele>
        <time>2021-09-21T08:23:57Z</time>
      </trkpt>
      <trkpt lat="46.50877" lon="-1.42321">
        <ele>65.5</ele>
        <time>2021-09-21T08:23:58Z</time>
      </trkpt>
      <trkpt lat="46.50876" lon="-1.42321">
        <ele>65.5</ele>
        <time>2021-09-21T08:23:59Z</time>
      </trkpt>
      <trkpt lat="46.50875" lon="-1.42321">
        <ele>65.4</ele>
        <time>2021-09-21T08:24:00Z</time>
      </trkpt>
      <trkpt lat="46.50874" lon="-1.42321">
        <ele>65.4</ele>
        <time>2021-09-21T08:24:01Z</time>
      </trkpt>
      <trkpt lat="46.50873" lon="-1.42321">
        <ele>65.4</ele>
        <time>2021-09-21T08:24:02Z</time>
      </trkpt>
      <trkpt lat="46.50871" lon="-1.42321">
        <ele>65.4</ele>
        <time>2021-09-21T08:24:03Z</time>
      </trkpt>
      <trkpt lat="46.5087" lon="-1.42321">
        <ele>65.3</ele>
        <time>2021-09-21T08:24:04Z</time>
      </trkpt>
      <trkpt lat="46.50869" lon="-1.42321">
        <ele>65.3</ele>
        <time>2021-09-21T08:24:05Z</time>
      </trkpt>
      <trkpt lat="46.50868" lon="-1.42321">
        <ele>65.3</ele>
        <time>2021-09-21T08:24:06Z</time>
      </trkpt>
      <trkpt lat="46.50866" lon="-1.42321">
        <ele>65.3</ele>
        <time>2021-09-21T08:24:07Z</time>
      </trkpt>
      <trkpt lat="46.50865" lon="-1.42321">
        <ele>65.2</ele>
        <time>2021-09-21T08:24:08Z</time>
      </trkpt>
      <trkpt lat="46.50864" lon="-1.42321">
        <ele>65.2</ele>
        <time>2021-09-21T08:24:09Z</time>
      </trkpt>
      <trkpt lat="46.50863" lon="-1.42321">
        <ele>65.2</ele>
        <time>2021-09-21T08:24:10Z</time>
      </trkpt>
      <trkpt lat="46.50861" lon="-1.42321">
        <ele>65.1</ele>
        <time>2021-09-21T08:24:11Z</time>
      </trkpt>
      <trkpt lat="46.5086" lon="-1.42321">
        <ele>65.1</ele>
        <time>2021-09-21T08:24:12Z</time>
      </trkpt>
      <trkpt lat="46.50859" lon="-1.42321">
        <ele>65.1</ele>
        <time>2021-09-21T08:24:13Z</time>
      </trkpt>
      <trkpt lat="46.50858" lon="-1.42321">
        <ele>65.1</ele>
        <time>2021-09-21T08:24:14Z</time>
      </trkpt>
      <trkpt lat="46.50856" lon="-1.42321">
        <ele>65</ele>
        <time>2021-09-21T08:24:15Z</time>
      </trkpt>
      <trkpt lat="46.50855" lon="-1.42321">
        <ele>65</ele>
        <time>2021-09-21T08:24:16Z</time>
      </trkpt>
      <trkpt lat="46.50854" lon="-1.42321">
        <ele>65</ele>
        <time>2021-09-21T08:24:17Z</time>
      </trkpt>
      <trkpt lat="46.50853" lon="-1.42321">
        <ele>64.9</ele>
        <time>2021-09-21T08:24:18Z</time>
      </trkpt>
      <trkpt lat="46.50851" lon="-1.42321">
        <ele>64.9</ele>
        <time>2021-09-21T08:24:19Z</time>
      </trkpt>
      <trkpt lat="46.5085" lon="-1.42321">
        <ele>64.9</ele>
        <time>2021-09-21T08:24:20Z</time>
      </trkpt>
      <trkpt lat="46.50849" lon="-1.42321">
        <ele>64.9</ele>
        <time>2021-09-21T08:24:21Z</time>
      </trkpt>
      <trkpt lat="46.50848" lon="-1.42321">
        <ele>64.8</ele>
        <time>2021-09-21T08:24:22Z</time>
      </trkpt>
      <trkpt lat="46.50847" lon="-1.42321">
        <ele>64.8</ele>
        <time>2021-09-21T08:24:23Z</time>
      </trkpt>
      <trkpt lat="46.50845" lon="-1.42321">
        <ele>64.8</ele>
        <time>2021-09-21T08:24:24Z</time>
      </trkpt>
      <trkpt lat="46.50844" lon="-1.4232">
        <ele>64.8</ele>
        <time>2021-09-21T08:24:25Z</time>
      </trkpt>
      <trkpt lat="46.50843" lon="-1.4232">
        <ele>64.7</ele>
        <time>2021-09-21T08:24:26Z</time>
      </trkpt>
      <trkpt lat="46.50842" lon="-1.4232">
        <ele>64.7</ele>
        <time>2021-09-21T08:24:27Z</time>
      </trkpt>
      <trkpt lat="46.50841" lon="-1.4232">
        <ele>64.7</ele>
        <time>2021-09-21T08:24:28Z</time>
      </trkpt>
      <trkpt lat="46.5084" lon="-1.4232">
        <ele>64.7</ele>
        <time>2021-09-21T08:24:29Z</time>
      </trkpt>
      <trkpt lat="46.50839" lon="-1.4232">
        <ele>64.6</ele>
        <time>2021-09-21T08:24:30Z</time>
      </trkpt>
      <trkpt lat="46.50837" lon="-1.4232">
        <ele>64.6</ele>
        <time>2021-09-21T08:24:31Z</time>
      </trkpt>
      <trkpt lat="46.50836" lon="-1.4232">
        <ele>64.6</ele>
        <time>2021-09-21T08:24:32Z</time>
      </trkpt>
      <trkpt lat="46.50835" lon="-1.4232">
        <ele>64.6</ele>
        <time>2021-09-21T08:24:33Z</time>
      </trkpt>
      <trkpt lat="46.50834" lon="-1.42319">
        <ele>64.5</ele>
        <time>2021-09-21T08:24:34Z</time>
      </trkpt>
      <trkpt lat="46.50833" lon="-1.42319">
        <ele>64.5</ele>
        <time>2021-09-21T08:24:35Z</time>
      </trkpt>
      <trkpt lat="46.50832" lon="-1.42319">
        <ele>64.5</ele>
        <time>2021-09-21T08:24:36Z</time>
      </trkpt>
      <trkpt lat="46.50831" lon="-1.42319">
        <ele>64.5</ele>
        <time>2021-09-21T08:24:37Z</time>
      </trkpt>
      <trkpt lat="46.5083" lon="-1.42319">
        <ele>64.5</ele>
        <time>2021-09-21T08:24:38Z</time>
      </trkpt>
      <trkpt lat="46.5083" lon="-1.42319">
        <ele>64.4</ele>
        <time>2021-09-21T08:24:39Z</time>
      </trkpt>
      <trkpt lat="46.50829" lon="-1.42319">
        <ele>64.4</ele>
        <time>2021-09-21T08:24:40Z</time>
      </trkpt>
      <trkpt lat="46.50828" lon="-1.42319">
        <ele>64.4</ele>
        <time>2021-09-21T08:24:41Z</time>
      </trkpt>
      <trkpt lat="46.50828" lon="-1.42319">
        <ele>64.4</ele>
        <time>2021-09-21T08:24:42Z</time>
      </trkpt>
      <trkpt lat="46.50827" lon="-1.42319">
        <ele>64.4</ele>
        <time>2021-09-21T08:24:43Z</time>
      </trkpt>
      <trkpt lat="46.50827" lon="-1.42319">
        <ele>64.4</ele>
        <time>2021-09-21T08:24:44Z</time>
      </trkpt>
      <trkpt lat="46.50826" lon="-1.42318">
        <ele>64.4</ele>
        <time>2021-09-21T08:24:45Z</time>
      </trkpt>
      <trkpt lat="46.50825" lon="-1.42318">
        <ele>64.3</ele>
        <time>2021-09-21T08:24:46Z</time>
      </trkpt>
      <trkpt lat="46.50824" lon="-1.42318">
        <ele>64.3</ele>
        <time>2021-09-21T08:24:47Z</time>
      </trkpt>
      <trkpt lat="46.50823" lon="-1.42317">
        <ele>64.3</ele>
        <time>2021-09-21T08:24:48Z</time>
      </trkpt>
      <trkpt lat="46.50822" lon="-1.42316">
        <ele>64.3</ele>
        <time>2021-09-21T08:24:49Z</time>
      </trkpt>
      <trkpt lat="46.50821" lon="-1.42316">
        <ele>64.2</ele>
        <time>2021-09-21T08:24:50Z</time>
      </trkpt>
      <trkpt lat="46.5082" lon="-1.42315">
        <ele>64.2</ele>
        <time>2021-09-21T08:24:51Z</time>
      </trkpt>
      <trkpt lat="46.50818" lon="-1.42315">
        <ele>64.2</ele>
        <time>2021-09-21T08:24:52Z</time>
      </trkpt>
      <trkpt lat="46.50817" lon="-1.42314">
        <ele>64.2</ele>
        <time>2021-09-21T08:24:53Z</time>
      </trkpt>
      <trkpt lat="46.50816" lon="-1.42314">
        <ele>64.1</ele>
        <time>2021-09-21T08:24:54Z</time>
      </trkpt>
      <trkpt lat="46.50815" lon="-1.42314">
        <ele>64.1</ele>
        <time>2021-09-21T08:24:55Z</time>
      </trkpt>
      <trkpt lat="46.50813" lon="-1.42313">
        <ele>64.1</ele>
        <time>2021-09-21T08:24:56Z</time>
      </trkpt>
      <trkpt lat="46.50812" lon="-1.42313">
        <ele>64</ele>
        <time>2021-09-21T08:24:57Z</time>
      </trkpt>
      <trkpt lat="46.50811" lon="-1.42313">
        <ele>64</ele>
        <time>2021-09-21T08:24:58Z</time>
      </trkpt>
      <trkpt lat="46.5081" lon="-1.42313">
        <ele>64</ele>
        <time>2021-09-21T08:24:59Z</time>
      </trkpt>
      <trkpt lat="46.50808" lon="-1.42312">
        <ele>64</ele>
        <time>2021-09-21T08:25:00Z</time>
      </trkpt>
      <trkpt lat="46.50807" lon="-1.42312">
        <ele>63.9</ele>
        <time>2021-09-21T08:25:01Z</time>
      </trkpt>
      <trkpt lat="46.50806" lon="-1.42312">
        <ele>63.9</ele>
        <time>2021-09-21T08:25:02Z</time>
      </trkpt>
      <trkpt lat="46.50805" lon="-1.42312">
        <ele>63.9</ele>
        <time>2021-09-21T08:25:03Z</time>
      </trkpt>
      <trkpt lat="46.50804" lon="-1.42311">
        <ele>63.9</ele>
        <time>2021-09-21T08:25:04Z</time>
      </trkpt>
      <trkpt lat="46.50802" lon="-1.42311">
        <ele>63.8</ele>
        <time>2021-09-21T08:25:05Z</time>
      </trkpt>
      <trkpt lat="46.50801" lon="-1.42311">
        <ele>63.8</ele>
        <time>2021-09-21T08:25:06Z</time>
      </trkpt>
      <trkpt lat="46.508" lon="-1.4231">
        <ele>63.8</ele>
        <time>2021-09-21T08:25:07Z</time>
      </trkpt>
      <trkpt lat="46.50799" lon="-1.4231">
        <ele>63.8</ele>
        <time>2021-09-21T08:25:08Z</time>
      </trkpt>
      <trkpt lat="46.50798" lon="-1.4231">
        <ele>63.7</ele>
        <time>2021-09-21T08:25:09Z</time>
      </trkpt>
      <trkpt lat="46.50797" lon="-1.42309">
        <ele>63.7</ele>
        <time>2021-09-21T08:25:10Z</time>
      </trkpt>
      <trkpt lat="46.50796" lon="-1.42309">
        <ele>63.7</ele>
        <time>2021-09-21T08:25:11Z</time>
      </trkpt>
      <trkpt lat="46.50795" lon="-1.42309">
        <ele>63.7</ele>
        <time>2021-09-21T08:25:12Z</time>
      </trkpt>
      <trkpt lat="46.50794" lon="-1.42309">
        <ele>63.6</ele>
        <time>2021-09-21T08:25:13Z</time>
      </trkpt>
      <trkpt lat="46.50792" lon="-1.42309">
        <ele>63.6</ele>
        <time>2021-09-21T08:25:14Z</time>
      </trkpt>
      <trkpt lat="46.50791" lon="-1.42309">
        <ele>63.6</ele>
        <time>2021-09-21T08:25:15Z</time>
      </trkpt>
      <trkpt lat="46.5079" lon="-1.42308">
        <ele>63.6</ele>
        <time>2021-09-21T08:25:16Z</time>
      </trkpt>
      <trkpt lat="46.50789" lon="-1.42308">
        <ele>63.5</ele>
        <time>2021-09-21T08:25:17Z</time>
      </trkpt>
      <trkpt lat="46.50787" lon="-1.42308">
        <ele>63.5</ele>
        <time>2021-09-21T08:25:18Z</time>
      </trkpt>
      <trkpt lat="46.50786" lon="-1.42308">
        <ele>63.5</ele>
        <time>2021-09-21T08:25:19Z</time>
      </trkpt>
      <trkpt lat="46.50785" lon="-1.42308">
        <ele>63.4</ele>
        <time>2021-09-21T08:25:20Z</time>
      </trkpt>
      <trkpt lat="46.50784" lon="-1.42307">
        <ele>63.4</ele>
        <time>2021-09-21T08:25:21Z</time>
      </trkpt>
      <trkpt lat="46.50782" lon="-1.42307">
        <ele>63.4</ele>
        <time>2021-09-21T08:25:22Z</time>
      </trkpt>
      <trkpt lat="46.50781" lon="-1.42306">
        <ele>63.4</ele>
        <time>2021-09-21T08:25:23Z</time>
      </trkpt>
      <trkpt lat="46.5078" lon="-1.42306">
        <ele>63.3</ele>
        <time>2021-09-21T08:25:24Z</time>
      </trkpt>
      <trkpt lat="46.50778" lon="-1.42305">
        <ele>63.3</ele>
        <time>2021-09-21T08:25:25Z</time>
      </trkpt>
      <trkpt lat="46.50777" lon="-1.42305">
        <ele>63.3</ele>
        <time>2021-09-21T08:25:26Z</time>
      </trkpt>
      <trkpt lat="46.50776" lon="-1.42305">
        <ele>63.2</ele>
        <time>2021-09-21T08:25:27Z</time>
      </trkpt>
      <trkpt lat="46.50775" lon="-1.42304">
        <ele>63.2</ele>
        <time>2021-09-21T08:25:28Z</time>
      </trkpt>
      <trkpt lat="46.50773" lon="-1.42304">
        <ele>63.2</ele>
        <time>2021-09-21T08:25:29Z</time>
      </trkpt>
      <trkpt lat="46.50772" lon="-1.42304">
        <ele>63.2</ele>
        <time>2021-09-21T08:25:30Z</time>
      </trkpt>
      <trkpt lat="46.50771" lon="-1.42304">
        <ele>63.1</ele>
        <time>2021-09-21T08:25:31Z</time>
      </trkpt>
      <trkpt lat="46.5077" lon="-1.42304">
        <ele>63.1</ele>
        <time>2021-09-21T08:25:32Z</time>
      </trkpt>
      <trkpt lat="46.50769" lon="-1.42304">
        <ele>63.1</ele>
        <time>2021-09-21T08:25:33Z</time>
      </trkpt>
      <trkpt lat="46.50767" lon="-1.42304">
        <ele>63.1</ele>
        <time>2021-09-21T08:25:34Z</time>
      </trkpt>
      <trkpt lat="46.50766" lon="-1.42304">
        <ele>63</ele>
        <time>2021-09-21T08:25:35Z</time>
      </trkpt>
      <trkpt lat="46.50765" lon="-1.42304">
        <ele>63</ele>
        <time>2021-09-21T08:25:36Z</time>
      </trkpt>
      <trkpt lat="46.50763" lon="-1.42305">
        <ele>63</ele>
        <time>2021-09-21T08:25:37Z</time>
      </trkpt>
      <trkpt lat="46.50762" lon="-1.42305">
        <ele>62.9</ele>
        <time>2021-09-21T08:25:38Z</time>
      </trkpt>
      <trkpt lat="46.5076" lon="-1.42305">
        <ele>62.9</ele>
        <time>2021-09-21T08:25:39Z</time>
      </trkpt>
      <trkpt lat="46.50759" lon="-1.42305">
        <ele>62.9</ele>
        <time>2021-09-21T08:25:40Z</time>
      </trkpt>
      <trkpt lat="46.50758" lon="-1.42305">
        <ele>62.8</ele>
        <time>2021-09-21T08:25:41Z</time>
      </trkpt>
      <trkpt lat="46.50756" lon="-1.42306">
        <ele>62.8</ele>
        <time>2021-09-21T08:25:42Z</time>
      </trkpt>
      <trkpt lat="46.50755" lon="-1.42306">
        <ele>62.8</ele>
        <time>2021-09-21T08:25:43Z</time>
      </trkpt>
      <trkpt lat="46.50753" lon="-1.42306">
        <ele>62.7</ele>
        <time>2021-09-21T08:25:44Z</time>
      </trkpt>
      <trkpt lat="46.50752" lon="-1.42306">
        <ele>62.7</ele>
        <time>2021-09-21T08:25:45Z</time>
      </trkpt>
      <trkpt lat="46.5075" lon="-1.42307">
        <ele>62.7</ele>
        <time>2021-09-21T08:25:46Z</time>
      </trkpt>
      <trkpt lat="46.50749" lon="-1.42307">
        <ele>62.6</ele>
        <time>2021-09-21T08:25:47Z</time>
      </trkpt>
      <trkpt lat="46.50748" lon="-1.42307">
        <ele>62.6</ele>
        <time>2021-09-21T08:25:48Z</time>
      </trkpt>
      <trkpt lat="46.50746" lon="-1.42307">
        <ele>62.6</ele>
        <time>2021-09-21T08:25:49Z</time>
      </trkpt>
      <trkpt lat="46.50745" lon="-1.42307">
        <ele>62.6</ele>
        <time>2021-09-21T08:25:50Z</time>
      </trkpt>
      <trkpt lat="46.50744" lon="-1.42307">
        <ele>62.5</ele>
        <time>2021-09-21T08:25:51Z</time>
      </trkpt>
      <trkpt lat="46.50743" lon="-1.42307">
        <ele>62.5</ele>
        <time>2021-09-21T08:25:52Z</time>
      </trkpt>
      <trkpt lat="46.50742" lon="-1.42307">
        <ele>62.5</ele>
        <time>2021-09-21T08:25:53Z</time>
      </trkpt>
      <trkpt lat="46.5074" lon="-1.42307">
        <ele>62.5</ele>
        <time>2021-09-21T08:25:54Z</time>
      </trkpt>
      <trkpt lat="46.50739" lon="-1.42307">
        <ele>62.4</ele>
        <time>2021-09-21T08:25:55Z</time>
      </trkpt>
      <trkpt lat="46.50738" lon="-1.42307">
        <ele>62.4</ele>
        <time>2021-09-21T08:25:56Z</time>
      </trkpt>
      <trkpt lat="46.50737" lon="-1.42307">
        <ele>62.4</ele>
        <time>2021-09-21T08:25:57Z</time>
      </trkpt>
      <trkpt lat="46.50736" lon="-1.42307">
        <ele>62.4</ele>
        <time>2021-09-21T08:25:58Z</time>
      </trkpt>
      <trkpt lat="46.50735" lon="-1.42307">
        <ele>62.3</ele>
        <time>2021-09-21T08:25:59Z</time>
      </trkpt>
      <trkpt lat="46.50734" lon="-1.42307">
        <ele>62.3</ele>
        <time>2021-09-21T08:26:00Z</time>
      </trkpt>
      <trkpt lat="46.50733" lon="-1.42307">
        <ele>62.3</ele>
        <time>2021-09-21T08:26:01Z</time>
      </trkpt>
      <trkpt lat="46.50731" lon="-1.42307">
        <ele>62.3</ele>
        <time>2021-09-21T08:26:02Z</time>
      </trkpt>
      <trkpt lat="46.5073" lon="-1.42307">
        <ele>62.2</ele>
        <time>2021-09-21T08:26:03Z</time>
      </trkpt>
      <trkpt lat="46.50729" lon="-1.42307">
        <ele>62.2</ele>
        <time>2021-09-21T08:26:04Z</time>
      </trkpt>
      <trkpt lat="46.50728" lon="-1.42308">
        <ele>62.2</ele>
        <time>2021-09-21T08:26:05Z</time>
      </trkpt>
      <trkpt lat="46.50726" lon="-1.42308">
        <ele>62.1</ele>
        <time>2021-09-21T08:26:06Z</time>
      </trkpt>
      <trkpt lat="46.50725" lon="-1.42308">
        <ele>62.1</ele>
        <time>2021-09-21T08:26:07Z</time>
      </trkpt>
      <trkpt lat="46.50724" lon="-1.42308">
        <ele>62.1</ele>
        <time>2021-09-21T08:26:08Z</time>
      </trkpt>
      <trkpt lat="46.50723" lon="-1.42309">
        <ele>62.1</ele>
        <time>2021-09-21T08:26:09Z</time>
      </trkpt>
      <trkpt lat="46.50722" lon="-1.42309">
        <ele>62</ele>
        <time>2021-09-21T08:26:10Z</time>
      </trkpt>
      <trkpt lat="46.50721" lon="-1.42309">
        <ele>62</ele>
        <time>2021-09-21T08:26:11Z</time>
      </trkpt>
      <trkpt lat="46.5072" lon="-1.42309">
        <ele>62</ele>
        <time>2021-09-21T08:26:12Z</time>
      </trkpt>
      <trkpt lat="46.5072" lon="-1.42309">
        <ele>62</ele>
        <time>2021-09-21T08:26:13Z</time>
      </trkpt>
      <trkpt lat="46.50719" lon="-1.42309">
        <ele>62</ele>
        <time>2021-09-21T08:26:14Z</time>
      </trkpt>
      <trkpt lat="46.50719" lon="-1.42309">
        <ele>62</ele>
        <time>2021-09-21T08:26:15Z</time>
      </trkpt>
      <trkpt lat="46.50719" lon="-1.42309">
        <ele>62</ele>
        <time>2021-09-21T08:26:16Z</time>
      </trkpt>
      <trkpt lat="46.50719" lon="-1.42309">
        <ele>62</ele>
        <time>2021-09-21T08:26:17Z</time>
      </trkpt>
      <trkpt lat="46.50719" lon="-1.42308">
        <ele>62</ele>
        <time>2021-09-21T08:26:18Z</time>
      </trkpt>
      <trkpt lat="46.50719" lon="-1.42308">
        <ele>62</ele>
        <time>2021-09-21T08:26:19Z</time>
      </trkpt>
      <trkpt lat="46.50718" lon="-1.42308">
        <ele>62</ele>
        <time>2021-09-21T08:26:20Z</time>
      </trkpt>
      <trkpt lat="46.50718" lon="-1.42308">
        <ele>61.9</ele>
        <time>2021-09-21T08:26:21Z</time>
      </trkpt>
      <trkpt lat="46.50717" lon="-1.42308">
        <ele>61.9</ele>
        <time>2021-09-21T08:26:22Z</time>
      </trkpt>
      <trkpt lat="46.50716" lon="-1.42308">
        <ele>61.9</ele>
        <time>2021-09-21T08:26:23Z</time>
      </trkpt>
      <trkpt lat="46.50714" lon="-1.42308">
        <ele>61.9</ele>
        <time>2021-09-21T08:26:24Z</time>
      </trkpt>
      <trkpt lat="46.50713" lon="-1.42308">
        <ele>61.8</ele>
        <time>2021-09-21T08:26:25Z</time>
      </trkpt>
      <trkpt lat="46.50712" lon="-1.42308">
        <ele>61.8</ele>
        <time>2021-09-21T08:26:26Z</time>
      </trkpt>
      <trkpt lat="46.50711" lon="-1.42308">
        <ele>61.8</ele>
        <time>2021-09-21T08:26:27Z</time>
      </trkpt>
      <trkpt lat="46.50709" lon="-1.42307">
        <ele>61.8</ele>
        <time>2021-09-21T08:26:28Z</time>
      </trkpt>
      <trkpt lat="46.50708" lon="-1.42307">
        <ele>61.7</ele>
        <time>2021-09-21T08:26:29Z</time>
      </trkpt>
      <trkpt lat="46.50707" lon="-1.42307">
        <ele>61.7</ele>
        <time>2021-09-21T08:26:30Z</time>
      </trkpt>
      <trkpt lat="46.50706" lon="-1.42307">
        <ele>61.7</ele>
        <time>2021-09-21T08:26:31Z</time>
      </trkpt>
      <trkpt lat="46.50705" lon="-1.42307">
        <ele>61.7</ele>
        <time>2021-09-21T08:26:32Z</time>
      </trkpt>
      <trkpt lat="46.50704" lon="-1.42307">
        <ele>61.6</ele>
        <time>2021-09-21T08:26:33Z</time>
      </trkpt>
      <trkpt lat="46.50703" lon="-1.42306">
        <ele>61.6</ele>
        <time>2021-09-21T08:26:34Z</time>
      </trkpt>
      <trkpt lat="46.50702" lon="-1.42306">
        <ele>61.6</ele>
        <time>2021-09-21T08:26:35Z</time>
      </trkpt>
      <trkpt lat="46.50701" lon="-1.42306">
        <ele>61.6</ele>
        <time>2021-09-21T08:26:36Z</time>
      </trkpt>
      <trkpt lat="46.507" lon="-1.42306">
        <ele>61.6</ele>
        <time>2021-09-21T08:26:37Z</time>
      </trkpt>
      <trkpt lat="46.50699" lon="-1.42306">
        <ele>61.5</ele>
        <time>2021-09-21T08:26:38Z</time>
      </trkpt>
      <trkpt lat="46.50698" lon="-1.42306">
        <ele>61.5</ele>
        <time>2021-09-21T08:26:39Z</time>
      </trkpt>
      <trkpt lat="46.50697" lon="-1.42306">
        <ele>61.5</ele>
        <time>2021-09-21T08:26:40Z</time>
      </trkpt>
      <trkpt lat="46.50696" lon="-1.42306">
        <ele>61.5</ele>
        <time>2021-09-21T08:26:41Z</time>
      </trkpt>
      <trkpt lat="46.50695" lon="-1.42306">
        <ele>61.5</ele>
        <time>2021-09-21T08:26:42Z</time>
      </trkpt>
      <trkpt lat="46.50694" lon="-1.42305">
        <ele>61.4</ele>
        <time>2021-09-21T08:26:43Z</time>
      </trkpt>
      <trkpt lat="46.50693" lon="-1.42305">
        <ele>61.4</ele>
        <time>2021-09-21T08:26:44Z</time>
      </trkpt>
      <trkpt lat="46.50692" lon="-1.42305">
        <ele>61.4</ele>
        <time>2021-09-21T08:26:45Z</time>
      </trkpt>
      <trkpt lat="46.50691" lon="-1.42305">
        <ele>61.4</ele>
        <time>2021-09-21T08:26:46Z</time>
      </trkpt>
      <trkpt lat="46.50691" lon="-1.42305">
        <ele>61.4</ele>
        <time>2021-09-21T08:26:47Z</time>
      </trkpt>
      <trkpt lat="46.50691" lon="-1.42305">
        <ele>61.3</ele>
        <time>2021-09-21T08:26:48Z</time>
      </trkpt>
      <trkpt lat="46.5069" lon="-1.42305">
        <ele>61.3</ele>
        <time>2021-09-21T08:26:49Z</time>
      </trkpt>
      <trkpt lat="46.5069" lon="-1.42305">
        <ele>61.3</ele>
        <time>2021-09-21T08:26:50Z</time>
      </trkpt>
      <trkpt lat="46.5069" lon="-1.42305">
        <ele>61.3</ele>
        <time>2021-09-21T08:26:51Z</time>
      </trkpt>
      <trkpt lat="46.5069" lon="-1.42305">
        <ele>61.3</ele>
        <time>2021-09-21T08:26:52Z</time>
      </trkpt>
      <trkpt lat="46.5069" lon="-1.42305">
        <ele>61.3</ele>
        <time>2021-09-21T08:26:53Z</time>
      </trkpt>
      <trkpt lat="46.5069" lon="-1.42305">
        <ele>61.3</ele>
        <time>2021-09-21T08:26:54Z</time>
      </trkpt>
      <trkpt lat="46.5069" lon="-1.42305">
        <ele>61.3</ele>
        <time>2021-09-21T08:26:55Z</time>
      </trkpt>
      <trkpt lat="46.5069" lon="-1.42305">
        <ele>61.3</ele>
        <time>2021-09-21T08:26:56Z</time>
      </trkpt>
      <trkpt lat="46.5069" lon="-1.42305">
        <ele>61.3</ele>
        <time>2021-09-21T08:26:57Z</time>
      </trkpt>
      <trkpt lat="46.5069" lon="-1.42305">
        <ele>61.3</ele>
        <time>2021-09-21T08:26:58Z</time>
      </trkpt>
      <trkpt lat="46.5069" lon="-1.42305">
        <ele>61.3</ele>
        <time>2021-09-21T08:26:59Z</time>
      </trkpt>
      <trkpt lat="46.5069" lon="-1.42305">
        <ele>61.3</ele>
        <time>2021-09-21T08:27:00Z</time>
      </trkpt>
      <trkpt lat="46.5069" lon="-1.42305">
        <ele>61.3</ele>
        <time>2021-09-21T08:27:01Z</time>
      </trkpt>
      <trkpt lat="46.5069" lon="-1.42305">
        <ele>61.3</ele>
        <time>2021-09-21T08:27:02Z</time>
      </trkpt>
      <trkpt lat="46.5069" lon="-1.42305">
        <ele>61.3</ele>
        <time>2021-09-21T08:27:03Z</time>
      </trkpt>
      <trkpt lat="46.5069" lon="-1.42305">
        <ele>61.3</ele>
        <time>2021-09-21T08:27:04Z</time>
      </trkpt>
      <trkpt lat="46.5069" lon="-1.42305">
        <ele>61.3</ele>
        <time>2021-09-21T08:27:05Z</time>
      </trkpt>
      <trkpt lat="46.5069" lon="-1.42305">
        <ele>61.3</ele>
        <time>2021-09-21T08:27:06Z</time>
      </trkpt>
      <trkpt lat="46.5069" lon="-1.42304">
        <ele>61.3</ele>
        <time>2021-09-21T08:27:07Z</time>
      </trkpt>
      <trkpt lat="46.50689" lon="-1.42304">
        <ele>61.3</ele>
        <time>2021-09-21T08:27:08Z</time>
      </trkpt>
      <trkpt lat="46.50688" lon="-1.42304">
        <ele>61.3</ele>
        <time>2021-09-21T08:27:09Z</time>
      </trkpt>
      <trkpt lat="46.50687" lon="-1.42304">
        <ele>61.3</ele>
        <time>2021-09-21T08:27:10Z</time>
      </trkpt>
      <trkpt lat="46.50686" lon="-1.42304">
        <ele>61.2</ele>
        <time>2021-09-21T08:27:11Z</time>
      </trkpt>
      <trkpt lat="46.50685" lon="-1.42304">
        <ele>61.2</ele>
        <time>2021-09-21T08:27:12Z</time>
      </trkpt>
      <trkpt lat="46.50684" lon="-1.42304">
        <ele>61.2</ele>
        <time>2021-09-21T08:27:13Z</time>
      </trkpt>
      <trkpt lat="46.50683" lon="-1.42303">
        <ele>61.2</ele>
        <time>2021-09-21T08:27:14Z</time>
      </trkpt>
      <trkpt lat="46.50682" lon="-1.42303">
        <ele>61.2</ele>
        <time>2021-09-21T08:27:15Z</time>
      </trkpt>
      <trkpt lat="46.50682" lon="-1.42302">
        <ele>61.1</ele>
        <time>2021-09-21T08:27:16Z</time>
      </trkpt>
      <trkpt lat="46.50681" lon="-1.42301">
        <ele>61.1</ele>
        <time>2021-09-21T08:27:17Z</time>
      </trkpt>
      <trkpt lat="46.5068" lon="-1.42301">
        <ele>61.1</ele>
        <time>2021-09-21T08:27:18Z</time>
      </trkpt>
      <trkpt lat="46.50679" lon="-1.423">
        <ele>61.1</ele>
        <time>2021-09-21T08:27:19Z</time>
      </trkpt>
      <trkpt lat="46.50678" lon="-1.42299">
        <ele>61</ele>
        <time>2021-09-21T08:27:20Z</time>
      </trkpt>
      <trkpt lat="46.50677" lon="-1.42298">
        <ele>61</ele>
        <time>2021-09-21T08:27:21Z</time>
      </trkpt>
      <trkpt lat="46.50676" lon="-1.42297">
        <ele>61</ele>
        <time>2021-09-21T08:27:22Z</time>
      </trkpt>
      <trkpt lat="46.50675" lon="-1.42296">
        <ele>61</ele>
        <time>2021-09-21T08:27:23Z</time>
      </trkpt>
      <trkpt lat="46.50673" lon="-1.42295">
        <ele>60.9</ele>
        <time>2021-09-21T08:27:24Z</time>
      </trkpt>
      <trkpt lat="46.50672" lon="-1.42294">
        <ele>60.9</ele>
        <time>2021-09-21T08:27:25Z</time>
      </trkpt>
      <trkpt lat="46.50671" lon="-1.42293">
        <ele>60.9</ele>
        <time>2021-09-21T08:27:26Z</time>
      </trkpt>
      <trkpt lat="46.5067" lon="-1.42292">
        <ele>60.8</ele>
        <time>2021-09-21T08:27:27Z</time>
      </trkpt>
      <trkpt lat="46.50669" lon="-1.42291">
        <ele>60.8</ele>
        <time>2021-09-21T08:27:28Z</time>
      </trkpt>
      <trkpt lat="46.50668" lon="-1.42291">
        <ele>60.8</ele>
        <time>2021-09-21T08:27:29Z</time>
      </trkpt>
      <trkpt lat="46.50667" lon="-1.4229">
        <ele>60.8</ele>
        <time>2021-09-21T08:27:30Z</time>
      </trkpt>
      <trkpt lat="46.50666" lon="-1.42289">
        <ele>60.7</ele>
        <time>2021-09-21T08:27:31Z</time>
      </trkpt>
      <trkpt lat="46.50665" lon="-1.42288">
        <ele>60.7</ele>
        <time>2021-09-21T08:27:32Z</time>
      </trkpt>
      <trkpt lat="46.50664" lon="-1.42287">
        <ele>60.7</ele>
        <time>2021-09-21T08:27:33Z</time>
      </trkpt>
      <trkpt lat="46.50664" lon="-1.42286">
        <ele>60.7</ele>
        <time>2021-09-21T08:27:34Z</time>
      </trkpt>
      <trkpt lat="46.50663" lon="-1.42286">
        <ele>60.7</ele>
        <time>2021-09-21T08:27:35Z</time>
      </trkpt>
      <trkpt lat="46.50662" lon="-1.42285">
        <ele>60.6</ele>
        <time>2021-09-21T08:27:36Z</time>
      </trkpt>
      <trkpt lat="46.50661" lon="-1.42284">
        <ele>60.6</ele>
        <time>2021-09-21T08:27:37Z</time>
      </trkpt>
      <trkpt lat="46.5066" lon="-1.42283">
        <ele>60.6</ele>
        <time>2021-09-21T08:27:38Z</time>
      </trkpt>
      <trkpt lat="46.50659" lon="-1.42282">
        <ele>60.6</ele>
        <time>2021-09-21T08:27:39Z</time>
      </trkpt>
      <trkpt lat="46.50658" lon="-1.42281">
        <ele>60.5</ele>
        <time>2021-09-21T08:27:40Z</time>
      </trkpt>
      <trkpt lat="46.50657" lon="-1.4228">
        <ele>60.5</ele>
        <time>2021-09-21T08:27:41Z</time>
      </trkpt>
      <trkpt lat="46.50657" lon="-1.42279">
        <ele>60.5</ele>
        <time>2021-09-21T08:27:42Z</time>
      </trkpt>
      <trkpt lat="46.50656" lon="-1.42278">
        <ele>60.5</ele>
        <time>2021-09-21T08:27:43Z</time>
      </trkpt>
      <trkpt lat="46.50655" lon="-1.42277">
        <ele>60.4</ele>
        <time>2021-09-21T08:27:44Z</time>
      </trkpt>
      <trkpt lat="46.50654" lon="-1.42276">
        <ele>60.4</ele>
        <time>2021-09-21T08:27:45Z</time>
      </trkpt>
      <trkpt lat="46.50653" lon="-1.42275">
        <ele>60.4</ele>
        <time>2021-09-21T08:27:46Z</time>
      </trkpt>
      <trkpt lat="46.50652" lon="-1.42274">
        <ele>60.4</ele>
        <time>2021-09-21T08:27:47Z</time>
      </trkpt>
      <trkpt lat="46.50651" lon="-1.42273">
        <ele>60.3</ele>
        <time>2021-09-21T08:27:48Z</time>
      </trkpt>
      <trkpt lat="46.5065" lon="-1.42272">
        <ele>60.3</ele>
        <time>2021-09-21T08:27:49Z</time>
      </trkpt>
      <trkpt lat="46.5065" lon="-1.42271">
        <ele>60.3</ele>
        <time>2021-09-21T08:27:50Z</time>
      </trkpt>
      <trkpt lat="46.50649" lon="-1.4227">
        <ele>60.3</ele>
        <time>2021-09-21T08:27:51Z</time>
      </trkpt>
      <trkpt lat="46.50648" lon="-1.42269">
        <ele>60.2</ele>
        <time>2021-09-21T08:27:52Z</time>
      </trkpt>
      <trkpt lat="46.50647" lon="-1.42268">
        <ele>60.2</ele>
        <time>2021-09-21T08:27:53Z</time>
      </trkpt>
      <trkpt lat="46.50646" lon="-1.42267">
        <ele>60.2</ele>
        <time>2021-09-21T08:27:54Z</time>
      </trkpt>
      <trkpt lat="46.50645" lon="-1.42266">
        <ele>60.2</ele>
        <time>2021-09-21T08:27:55Z</time>
      </trkpt>
      <trkpt lat="46.50645" lon="-1.42265">
        <ele>60.1</ele>
        <time>2021-09-21T08:27:56Z</time>
      </trkpt>
      <trkpt lat="46.50644" lon="-1.42264">
        <ele>60.1</ele>
        <time>2021-09-21T08:27:57Z</time>
      </trkpt>
      <trkpt lat="46.50643" lon="-1.42263">
        <ele>60.1</ele>
        <time>2021-09-21T08:27:58Z</time>
      </trkpt>
      <trkpt lat="46.50642" lon="-1.42261">
        <ele>60.1</ele>
        <time>2021-09-21T08:27:59Z</time>
      </trkpt>
      <trkpt lat="46.50641" lon="-1.4226">
        <ele>60</ele>
        <time>2021-09-21T08:28:00Z</time>
      </trkpt>
      <trkpt lat="46.50641" lon="-1.42259">
        <ele>60</ele>
        <time>2021-09-21T08:28:01Z</time>
      </trkpt>
      <trkpt lat="46.5064" lon="-1.42258">
        <ele>60</ele>
        <time>2021-09-21T08:28:02Z</time>
      </trkpt>
      <trkpt lat="46.50639" lon="-1.42257">
        <ele>60</ele>
        <time>2021-09-21T08:28:03Z</time>
      </trkpt>
      <trkpt lat="46.50638" lon="-1.42256">
        <ele>59.9</ele>
        <time>2021-09-21T08:28:04Z</time>
      </trkpt>
      <trkpt lat="46.50637" lon="-1.42255">
        <ele>59.9</ele>
        <time>2021-09-21T08:28:05Z</time>
      </trkpt>
      <trkpt lat="46.50637" lon="-1.42254">
        <ele>59.9</ele>
        <time>2021-09-21T08:28:06Z</time>
      </trkpt>
      <trkpt lat="46.50636" lon="-1.42253">
        <ele>59.9</ele>
        <time>2021-09-21T08:28:07Z</time>
      </trkpt>
      <trkpt lat="46.50635" lon="-1.42251">
        <ele>59.9</ele>
        <time>2021-09-21T08:28:08Z</time>
      </trkpt>
      <trkpt lat="46.50634" lon="-1.4225">
        <ele>59.8</ele>
        <time>2021-09-21T08:28:09Z</time>
      </trkpt>
      <trkpt lat="46.50633" lon="-1.42249">
        <ele>59.8</ele>
        <time>2021-09-21T08:28:10Z</time>
      </trkpt>
      <trkpt lat="46.50633" lon="-1.42248">
        <ele>59.8</ele>
        <time>2021-09-21T08:28:11Z</time>
      </trkpt>
      <trkpt lat="46.50632" lon="-1.42247">
        <ele>59.8</ele>
        <time>2021-09-21T08:28:12Z</time>
      </trkpt>
      <trkpt lat="46.50631" lon="-1.42246">
        <ele>59.7</ele>
        <time>2021-09-21T08:28:13Z</time>
      </trkpt>
      <trkpt lat="46.5063" lon="-1.42245">
        <ele>59.7</ele>
        <time>2021-09-21T08:28:14Z</time>
      </trkpt>
      <trkpt lat="46.50629" lon="-1.42243">
        <ele>59.7</ele>
        <time>2021-09-21T08:28:15Z</time>
      </trkpt>
      <trkpt lat="46.50629" lon="-1.42242">
        <ele>59.7</ele>
        <time>2021-09-21T08:28:16Z</time>
      </trkpt>
      <trkpt lat="46.50628" lon="-1.42241">
        <ele>59.6</ele>
        <time>2021-09-21T08:28:17Z</time>
      </trkpt>
      <trkpt lat="46.50627" lon="-1.4224">
        <ele>59.6</ele>
        <time>2021-09-21T08:28:18Z</time>
      </trkpt>
      <trkpt lat="46.50626" lon="-1.42239">
        <ele>59.6</ele>
        <time>2021-09-21T08:28:19Z</time>
      </trkpt>
      <trkpt lat="46.50625" lon="-1.42237">
        <ele>59.6</ele>
        <time>2021-09-21T08:28:20Z</time>
      </trkpt>
      <trkpt lat="46.50624" lon="-1.42236">
        <ele>59.5</ele>
        <time>2021-09-21T08:28:21Z</time>
      </trkpt>
      <trkpt lat="46.50624" lon="-1.42235">
        <ele>59.5</ele>
        <time>2021-09-21T08:28:22Z</time>
      </trkpt>
      <trkpt lat="46.50623" lon="-1.42234">
        <ele>59.5</ele>
        <time>2021-09-21T08:28:23Z</time>
      </trkpt>
      <trkpt lat="46.50622" lon="-1.42233">
        <ele>59.5</ele>
        <time>2021-09-21T08:28:24Z</time>
      </trkpt>
      <trkpt lat="46.50621" lon="-1.42232">
        <ele>59.4</ele>
        <time>2021-09-21T08:28:25Z</time>
      </trkpt>
      <trkpt lat="46.5062" lon="-1.42231">
        <ele>59.4</ele>
        <time>2021-09-21T08:28:26Z</time>
      </trkpt>
      <trkpt lat="46.50619" lon="-1.4223">
        <ele>59.4</ele>
        <time>2021-09-21T08:28:27Z</time>
      </trkpt>
      <trkpt lat="46.50618" lon="-1.42229">
        <ele>59.4</ele>
        <time>2021-09-21T08:28:28Z</time>
      </trkpt>
      <trkpt lat="46.50618" lon="-1.42228">
        <ele>59.3</ele>
        <time>2021-09-21T08:28:29Z</time>
      </trkpt>
      <trkpt lat="46.50617" lon="-1.42227">
        <ele>59.3</ele>
        <time>2021-09-21T08:28:30Z</time>
      </trkpt>
      <trkpt lat="46.50616" lon="-1.42226">
        <ele>59.3</ele>
        <time>2021-09-21T08:28:31Z</time>
      </trkpt>
      <trkpt lat="46.50615" lon="-1.42225">
        <ele>59.3</ele>
        <time>2021-09-21T08:28:32Z</time>
      </trkpt>
      <trkpt lat="46.50614" lon="-1.42225">
        <ele>59.2</ele>
        <time>2021-09-21T08:28:33Z</time>
      </trkpt>
      <trkpt lat="46.50613" lon="-1.42224">
        <ele>59.2</ele>
        <time>2021-09-21T08:28:34Z</time>
      </trkpt>
      <trkpt lat="46.50612" lon="-1.42224">
        <ele>59.2</ele>
        <time>2021-09-21T08:28:35Z</time>
      </trkpt>
      <trkpt lat="46.50611" lon="-1.42224">
        <ele>59.2</ele>
        <time>2021-09-21T08:28:36Z</time>
      </trkpt>
      <trkpt lat="46.5061" lon="-1.42224">
        <ele>59.2</ele>
        <time>2021-09-21T08:28:37Z</time>
      </trkpt>
      <trkpt lat="46.50609" lon="-1.42224">
        <ele>59.1</ele>
        <time>2021-09-21T08:28:38Z</time>
      </trkpt>
      <trkpt lat="46.50608" lon="-1.42223">
        <ele>59.1</ele>
        <time>2021-09-21T08:28:39Z</time>
      </trkpt>
      <trkpt lat="46.50607" lon="-1.42223">
        <ele>59.1</ele>
        <time>2021-09-21T08:28:40Z</time>
      </trkpt>
      <trkpt lat="46.50606" lon="-1.42223">
        <ele>59.1</ele>
        <time>2021-09-21T08:28:41Z</time>
      </trkpt>
      <trkpt lat="46.50605" lon="-1.42223">
        <ele>59</ele>
        <time>2021-09-21T08:28:42Z</time>
      </trkpt>
      <trkpt lat="46.50604" lon="-1.42222">
        <ele>59</ele>
        <time>2021-09-21T08:28:43Z</time>
      </trkpt>
      <trkpt lat="46.50603" lon="-1.42222">
        <ele>59</ele>
        <time>2021-09-21T08:28:44Z</time>
      </trkpt>
      <trkpt lat="46.50602" lon="-1.42221">
        <ele>59</ele>
        <time>2021-09-21T08:28:45Z</time>
      </trkpt>
      <trkpt lat="46.50601" lon="-1.42221">
        <ele>58.9</ele>
        <time>2021-09-21T08:28:46Z</time>
      </trkpt>
      <trkpt lat="46.506" lon="-1.4222">
        <ele>58.9</ele>
        <time>2021-09-21T08:28:47Z</time>
      </trkpt>
      <trkpt lat="46.50599" lon="-1.42219">
        <ele>58.9</ele>
        <time>2021-09-21T08:28:48Z</time>
      </trkpt>
      <trkpt lat="46.50598" lon="-1.42218">
        <ele>58.9</ele>
        <time>2021-09-21T08:28:49Z</time>
      </trkpt>
      <trkpt lat="46.50597" lon="-1.42217">
        <ele>58.8</ele>
        <time>2021-09-21T08:28:50Z</time>
      </trkpt>
      <trkpt lat="46.50596" lon="-1.42217">
        <ele>58.8</ele>
        <time>2021-09-21T08:28:51Z</time>
      </trkpt>
      <trkpt lat="46.50595" lon="-1.42216">
        <ele>58.8</ele>
        <time>2021-09-21T08:28:52Z</time>
      </trkpt>
      <trkpt lat="46.50594" lon="-1.42215">
        <ele>58.8</ele>
        <time>2021-09-21T08:28:53Z</time>
      </trkpt>
      <trkpt lat="46.50593" lon="-1.42214">
        <ele>58.7</ele>
        <time>2021-09-21T08:28:54Z</time>
      </trkpt>
      <trkpt lat="46.50592" lon="-1.42213">
        <ele>58.7</ele>
        <time>2021-09-21T08:28:55Z</time>
      </trkpt>
      <trkpt lat="46.50591" lon="-1.42212">
        <ele>58.7</ele>
        <time>2021-09-21T08:28:56Z</time>
      </trkpt>
      <trkpt lat="46.5059" lon="-1.42211">
        <ele>58.7</ele>
        <time>2021-09-21T08:28:57Z</time>
      </trkpt>
      <trkpt lat="46.50589" lon="-1.4221">
        <ele>58.6</ele>
        <time>2021-09-21T08:28:58Z</time>
      </trkpt>
      <trkpt lat="46.50588" lon="-1.42209">
        <ele>58.6</ele>
        <time>2021-09-21T08:28:59Z</time>
      </trkpt>
      <trkpt lat="46.50587" lon="-1.42208">
        <ele>58.6</ele>
        <time>2021-09-21T08:29:00Z</time>
      </trkpt>
      <trkpt lat="46.50586" lon="-1.42207">
        <ele>58.6</ele>
        <time>2021-09-21T08:29:01Z</time>
      </trkpt>
      <trkpt lat="46.50585" lon="-1.42207">
        <ele>58.5</ele>
        <time>2021-09-21T08:29:02Z</time>
      </trkpt>
      <trkpt lat="46.50584" lon="-1.42206">
        <ele>58.5</ele>
        <time>2021-09-21T08:29:03Z</time>
      </trkpt>
      <trkpt lat="46.50583" lon="-1.42205">
        <ele>58.5</ele>
        <time>2021-09-21T08:29:04Z</time>
      </trkpt>
      <trkpt lat="46.50582" lon="-1.42204">
        <ele>58.5</ele>
        <time>2021-09-21T08:29:05Z</time>
      </trkpt>
      <trkpt lat="46.50581" lon="-1.42204">
        <ele>58.4</ele>
        <time>2021-09-21T08:29:06Z</time>
      </trkpt>
      <trkpt lat="46.5058" lon="-1.42203">
        <ele>58.4</ele>
        <time>2021-09-21T08:29:07Z</time>
      </trkpt>
      <trkpt lat="46.50578" lon="-1.42202">
        <ele>58.4</ele>
        <time>2021-09-21T08:29:08Z</time>
      </trkpt>
      <trkpt lat="46.50577" lon="-1.42201">
        <ele>58.4</ele>
        <time>2021-09-21T08:29:09Z</time>
      </trkpt>
      <trkpt lat="46.50576" lon="-1.42201">
        <ele>58.3</ele>
        <time>2021-09-21T08:29:10Z</time>
      </trkpt>
      <trkpt lat="46.50575" lon="-1.422">
        <ele>58.3</ele>
        <time>2021-09-21T08:29:11Z</time>
      </trkpt>
      <trkpt lat="46.50574" lon="-1.42199">
        <ele>58.3</ele>
        <time>2021-09-21T08:29:12Z</time>
      </trkpt>
      <trkpt lat="46.50573" lon="-1.42198">
        <ele>58.2</ele>
        <time>2021-09-21T08:29:13Z</time>
      </trkpt>
      <trkpt lat="46.50572" lon="-1.42198">
        <ele>58.2</ele>
        <time>2021-09-21T08:29:14Z</time>
      </trkpt>
      <trkpt lat="46.50571" lon="-1.42197">
        <ele>58.2</ele>
        <time>2021-09-21T08:29:15Z</time>
      </trkpt>
      <trkpt lat="46.5057" lon="-1.42196">
        <ele>58.2</ele>
        <time>2021-09-21T08:29:16Z</time>
      </trkpt>
      <trkpt lat="46.50568" lon="-1.42195">
        <ele>58.1</ele>
        <time>2021-09-21T08:29:17Z</time>
      </trkpt>
      <trkpt lat="46.50567" lon="-1.42194">
        <ele>58.1</ele>
        <time>2021-09-21T08:29:18Z</time>
      </trkpt>
      <trkpt lat="46.50566" lon="-1.42193">
        <ele>58.1</ele>
        <time>2021-09-21T08:29:19Z</time>
      </trkpt>
      <trkpt lat="46.50565" lon="-1.42192">
        <ele>58.1</ele>
        <time>2021-09-21T08:29:20Z</time>
      </trkpt>
      <trkpt lat="46.50564" lon="-1.42191">
        <ele>58</ele>
        <time>2021-09-21T08:29:21Z</time>
      </trkpt>
      <trkpt lat="46.50563" lon="-1.4219">
        <ele>58</ele>
        <time>2021-09-21T08:29:22Z</time>
      </trkpt>
      <trkpt lat="46.50562" lon="-1.42189">
        <ele>58</ele>
        <time>2021-09-21T08:29:23Z</time>
      </trkpt>
      <trkpt lat="46.50561" lon="-1.42188">
        <ele>57.9</ele>
        <time>2021-09-21T08:29:24Z</time>
      </trkpt>
      <trkpt lat="46.5056" lon="-1.42187">
        <ele>57.9</ele>
        <time>2021-09-21T08:29:25Z</time>
      </trkpt>
      <trkpt lat="46.50559" lon="-1.42187">
        <ele>57.9</ele>
        <time>2021-09-21T08:29:26Z</time>
      </trkpt>
      <trkpt lat="46.50558" lon="-1.42186">
        <ele>57.9</ele>
        <time>2021-09-21T08:29:27Z</time>
      </trkpt>
      <trkpt lat="46.50557" lon="-1.42185">
        <ele>57.8</ele>
        <time>2021-09-21T08:29:28Z</time>
      </trkpt>
      <trkpt lat="46.50556" lon="-1.42185">
        <ele>57.8</ele>
        <time>2021-09-21T08:29:29Z</time>
      </trkpt>
      <trkpt lat="46.50555" lon="-1.42184">
        <ele>57.8</ele>
        <time>2021-09-21T08:29:30Z</time>
      </trkpt>
      <trkpt lat="46.50554" lon="-1.42184">
        <ele>57.8</ele>
        <time>2021-09-21T08:29:31Z</time>
      </trkpt>
      <trkpt lat="46.50553" lon="-1.42183">
        <ele>57.7</ele>
        <time>2021-09-21T08:29:32Z</time>
      </trkpt>
      <trkpt lat="46.50552" lon="-1.42183">
        <ele>57.7</ele>
        <time>2021-09-21T08:29:33Z</time>
      </trkpt>
      <trkpt lat="46.5055" lon="-1.42182">
        <ele>57.7</ele>
        <time>2021-09-21T08:29:34Z</time>
      </trkpt>
      <trkpt lat="46.50549" lon="-1.42182">
        <ele>57.7</ele>
        <time>2021-09-21T08:29:35Z</time>
      </trkpt>
      <trkpt lat="46.50548" lon="-1.42181">
        <ele>57.6</ele>
        <time>2021-09-21T08:29:36Z</time>
      </trkpt>
      <trkpt lat="46.50547" lon="-1.4218">
        <ele>57.6</ele>
        <time>2021-09-21T08:29:37Z</time>
      </trkpt>
      <trkpt lat="46.50546" lon="-1.4218">
        <ele>57.6</ele>
        <time>2021-09-21T08:29:38Z</time>
      </trkpt>
      <trkpt lat="46.50545" lon="-1.42179">
        <ele>57.6</ele>
        <time>2021-09-21T08:29:39Z</time>
      </trkpt>
      <trkpt lat="46.50543" lon="-1.42178">
        <ele>57.5</ele>
        <time>2021-09-21T08:29:40Z</time>
      </trkpt>
      <trkpt lat="46.50542" lon="-1.42177">
        <ele>57.5</ele>
        <time>2021-09-21T08:29:41Z</time>
      </trkpt>
      <trkpt lat="46.50541" lon="-1.42176">
        <ele>57.5</ele>
        <time>2021-09-21T08:29:42Z</time>
      </trkpt>
      <trkpt lat="46.5054" lon="-1.42175">
        <ele>57.4</ele>
        <time>2021-09-21T08:29:43Z</time>
      </trkpt>
      <trkpt lat="46.50539" lon="-1.42174">
        <ele>57.4</ele>
        <time>2021-09-21T08:29:44Z</time>
      </trkpt>
      <trkpt lat="46.50537" lon="-1.42173">
        <ele>57.4</ele>
        <time>2021-09-21T08:29:45Z</time>
      </trkpt>
      <trkpt lat="46.50536" lon="-1.42173">
        <ele>57.3</ele>
        <time>2021-09-21T08:29:46Z</time>
      </trkpt>
      <trkpt lat="46.50535" lon="-1.42172">
        <ele>57.3</ele>
        <time>2021-09-21T08:29:47Z</time>
      </trkpt>
      <trkpt lat="46.50534" lon="-1.42171">
        <ele>57.3</ele>
        <time>2021-09-21T08:29:48Z</time>
      </trkpt>
      <trkpt lat="46.50533" lon="-1.4217">
        <ele>57.3</ele>
        <time>2021-09-21T08:29:49Z</time>
      </trkpt>
      <trkpt lat="46.50532" lon="-1.42169">
        <ele>57.2</ele>
        <time>2021-09-21T08:29:50Z</time>
      </trkpt>
      <trkpt lat="46.50531" lon="-1.42168">
        <ele>57.2</ele>
        <time>2021-09-21T08:29:51Z</time>
      </trkpt>
      <trkpt lat="46.50529" lon="-1.42168">
        <ele>57.2</ele>
        <time>2021-09-21T08:29:52Z</time>
      </trkpt>
      <trkpt lat="46.50528" lon="-1.42167">
        <ele>57.2</ele>
        <time>2021-09-21T08:29:53Z</time>
      </trkpt>
      <trkpt lat="46.50527" lon="-1.42166">
        <ele>57.1</ele>
        <time>2021-09-21T08:29:54Z</time>
      </trkpt>
      <trkpt lat="46.50526" lon="-1.42165">
        <ele>57.1</ele>
        <time>2021-09-21T08:29:55Z</time>
      </trkpt>
      <trkpt lat="46.50525" lon="-1.42164">
        <ele>57.1</ele>
        <time>2021-09-21T08:29:56Z</time>
      </trkpt>
      <trkpt lat="46.50524" lon="-1.42164">
        <ele>57</ele>
        <time>2021-09-21T08:29:57Z</time>
      </trkpt>
      <trkpt lat="46.50523" lon="-1.42163">
        <ele>57</ele>
        <time>2021-09-21T08:29:58Z</time>
      </trkpt>
      <trkpt lat="46.50522" lon="-1.42162">
        <ele>57</ele>
        <time>2021-09-21T08:29:59Z</time>
      </trkpt>
      <trkpt lat="46.50521" lon="-1.42161">
        <ele>57</ele>
        <time>2021-09-21T08:30:00Z</time>
      </trkpt>
      <trkpt lat="46.5052" lon="-1.4216">
        <ele>56.9</ele>
        <time>2021-09-21T08:30:01Z</time>
      </trkpt>
      <trkpt lat="46.50519" lon="-1.42159">
        <ele>56.9</ele>
        <time>2021-09-21T08:30:02Z</time>
      </trkpt>
      <trkpt lat="46.50518" lon="-1.42158">
        <ele>56.9</ele>
        <time>2021-09-21T08:30:03Z</time>
      </trkpt>
      <trkpt lat="46.50516" lon="-1.42157">
        <ele>56.9</ele>
        <time>2021-09-21T08:30:04Z</time>
      </trkpt>
      <trkpt lat="46.50515" lon="-1.42156">
        <ele>56.8</ele>
        <time>2021-09-21T08:30:05Z</time>
      </trkpt>
      <trkpt lat="46.50514" lon="-1.42155">
        <ele>56.8</ele>
        <time>2021-09-21T08:30:06Z</time>
      </trkpt>
      <trkpt lat="46.50513" lon="-1.42154">
        <ele>56.8</ele>
        <time>2021-09-21T08:30:07Z</time>
      </trkpt>
      <trkpt lat="46.50512" lon="-1.42153">
        <ele>56.7</ele>
        <time>2021-09-21T08:30:08Z</time>
      </trkpt>
      <trkpt lat="46.50511" lon="-1.42152">
        <ele>56.7</ele>
        <time>2021-09-21T08:30:09Z</time>
      </trkpt>
      <trkpt lat="46.5051" lon="-1.42151">
        <ele>56.7</ele>
        <time>2021-09-21T08:30:10Z</time>
      </trkpt>
      <trkpt lat="46.50509" lon="-1.4215">
        <ele>56.7</ele>
        <time>2021-09-21T08:30:11Z</time>
      </trkpt>
      <trkpt lat="46.50508" lon="-1.42149">
        <ele>56.6</ele>
        <time>2021-09-21T08:30:12Z</time>
      </trkpt>
      <trkpt lat="46.50507" lon="-1.42148">
        <ele>56.6</ele>
        <time>2021-09-21T08:30:13Z</time>
      </trkpt>
      <trkpt lat="46.50506" lon="-1.42147">
        <ele>56.6</ele>
        <time>2021-09-21T08:30:14Z</time>
      </trkpt>
      <trkpt lat="46.50504" lon="-1.42146">
        <ele>56.5</ele>
        <time>2021-09-21T08:30:15Z</time>
      </trkpt>
      <trkpt lat="46.50503" lon="-1.42145">
        <ele>56.5</ele>
        <time>2021-09-21T08:30:16Z</time>
      </trkpt>
      <trkpt lat="46.50502" lon="-1.42144">
        <ele>56.5</ele>
        <time>2021-09-21T08:30:17Z</time>
      </trkpt>
      <trkpt lat="46.50501" lon="-1.42143">
        <ele>56.4</ele>
        <time>2021-09-21T08:30:18Z</time>
      </trkpt>
      <trkpt lat="46.505" lon="-1.42142">
        <ele>56.4</ele>
        <time>2021-09-21T08:30:19Z</time>
      </trkpt>
      <trkpt lat="46.50499" lon="-1.42141">
        <ele>56.4</ele>
        <time>2021-09-21T08:30:20Z</time>
      </trkpt>
      <trkpt lat="46.50497" lon="-1.4214">
        <ele>56.4</ele>
        <time>2021-09-21T08:30:21Z</time>
      </trkpt>
      <trkpt lat="46.50496" lon="-1.42139">
        <ele>56.3</ele>
        <time>2021-09-21T08:30:22Z</time>
      </trkpt>
      <trkpt lat="46.50495" lon="-1.42139">
        <ele>56.3</ele>
        <time>2021-09-21T08:30:23Z</time>
      </trkpt>
      <trkpt lat="46.50494" lon="-1.42138">
        <ele>56.3</ele>
        <time>2021-09-21T08:30:24Z</time>
      </trkpt>
      <trkpt lat="46.50493" lon="-1.42137">
        <ele>56.3</ele>
        <time>2021-09-21T08:30:25Z</time>
      </trkpt>
      <trkpt lat="46.50491" lon="-1.42137">
        <ele>56.2</ele>
        <time>2021-09-21T08:30:26Z</time>
      </trkpt>
      <trkpt lat="46.5049" lon="-1.42136">
        <ele>56.2</ele>
        <time>2021-09-21T08:30:27Z</time>
      </trkpt>
      <trkpt lat="46.50489" lon="-1.42135">
        <ele>56.2</ele>
        <time>2021-09-21T08:30:28Z</time>
      </trkpt>
      <trkpt lat="46.50488" lon="-1.42134">
        <ele>56.1</ele>
        <time>2021-09-21T08:30:29Z</time>
      </trkpt>
      <trkpt lat="46.50487" lon="-1.42134">
        <ele>56.1</ele>
        <time>2021-09-21T08:30:30Z</time>
      </trkpt>
      <trkpt lat="46.50486" lon="-1.42133">
        <ele>56.1</ele>
        <time>2021-09-21T08:30:31Z</time>
      </trkpt>
      <trkpt lat="46.50484" lon="-1.42132">
        <ele>56.1</ele>
        <time>2021-09-21T08:30:32Z</time>
      </trkpt>
      <trkpt lat="46.50483" lon="-1.42131">
        <ele>56</ele>
        <time>2021-09-21T08:30:33Z</time>
      </trkpt>
      <trkpt lat="46.50482" lon="-1.42131">
        <ele>56</ele>
        <time>2021-09-21T08:30:34Z</time>
      </trkpt>
      <trkpt lat="46.50481" lon="-1.4213">
        <ele>56</ele>
        <time>2021-09-21T08:30:35Z</time>
      </trkpt>
      <trkpt lat="46.5048" lon="-1.42129">
        <ele>55.9</ele>
        <time>2021-09-21T08:30:36Z</time>
      </trkpt>
      <trkpt lat="46.50479" lon="-1.42128">
        <ele>55.9</ele>
        <time>2021-09-21T08:30:37Z</time>
      </trkpt>
      <trkpt lat="46.50478" lon="-1.42127">
        <ele>55.9</ele>
        <time>2021-09-21T08:30:38Z</time>
      </trkpt>
      <trkpt lat="46.50477" lon="-1.42126">
        <ele>55.9</ele>
        <time>2021-09-21T08:30:39Z</time>
      </trkpt>
      <trkpt lat="46.50476" lon="-1.42125">
        <ele>55.8</ele>
        <time>2021-09-21T08:30:40Z</time>
      </trkpt>
      <trkpt lat="46.50475" lon="-1.42124">
        <ele>55.8</ele>
        <time>2021-09-21T08:30:41Z</time>
      </trkpt>
      <trkpt lat="46.50474" lon="-1.42123">
        <ele>55.8</ele>
        <time>2021-09-21T08:30:42Z</time>
      </trkpt>
      <trkpt lat="46.50473" lon="-1.42122">
        <ele>55.8</ele>
        <time>2021-09-21T08:30:43Z</time>
      </trkpt>
      <trkpt lat="46.50472" lon="-1.42121">
        <ele>55.7</ele>
        <time>2021-09-21T08:30:44Z</time>
      </trkpt>
      <trkpt lat="46.50471" lon="-1.4212">
        <ele>55.7</ele>
        <time>2021-09-21T08:30:45Z</time>
      </trkpt>
      <trkpt lat="46.5047" lon="-1.42118">
        <ele>55.7</ele>
        <time>2021-09-21T08:30:46Z</time>
      </trkpt>
      <trkpt lat="46.50469" lon="-1.42117">
        <ele>55.6</ele>
        <time>2021-09-21T08:30:47Z</time>
      </trkpt>
      <trkpt lat="46.50468" lon="-1.42116">
        <ele>55.6</ele>
        <time>2021-09-21T08:30:48Z</time>
      </trkpt>
      <trkpt lat="46.50467" lon="-1.42115">
        <ele>55.6</ele>
        <time>2021-09-21T08:30:49Z</time>
      </trkpt>
      <trkpt lat="46.50466" lon="-1.42114">
        <ele>55.6</ele>
        <time>2021-09-21T08:30:50Z</time>
      </trkpt>
      <trkpt lat="46.50465" lon="-1.42112">
        <ele>55.5</ele>
        <time>2021-09-21T08:30:51Z</time>
      </trkpt>
      <trkpt lat="46.50464" lon="-1.42111">
        <ele>55.5</ele>
        <time>2021-09-21T08:30:52Z</time>
      </trkpt>
      <trkpt lat="46.50463" lon="-1.4211">
        <ele>55.5</ele>
        <time>2021-09-21T08:30:53Z</time>
      </trkpt>
      <trkpt lat="46.50462" lon="-1.42108">
        <ele>55.4</ele>
        <time>2021-09-21T08:30:54Z</time>
      </trkpt>
      <trkpt lat="46.50462" lon="-1.42107">
        <ele>55.4</ele>
        <time>2021-09-21T08:30:55Z</time>
      </trkpt>
      <trkpt lat="46.50461" lon="-1.42106">
        <ele>55.4</ele>
        <time>2021-09-21T08:30:56Z</time>
      </trkpt>
      <trkpt lat="46.5046" lon="-1.42104">
        <ele>55.4</ele>
        <time>2021-09-21T08:30:57Z</time>
      </trkpt>
      <trkpt lat="46.50459" lon="-1.42103">
        <ele>55.3</ele>
        <time>2021-09-21T08:30:58Z</time>
      </trkpt>
      <trkpt lat="46.50458" lon="-1.42102">
        <ele>55.3</ele>
        <time>2021-09-21T08:30:59Z</time>
      </trkpt>
      <trkpt lat="46.50457" lon="-1.421">
        <ele>55.3</ele>
        <time>2021-09-21T08:31:00Z</time>
      </trkpt>
      <trkpt lat="46.50457" lon="-1.42099">
        <ele>55.3</ele>
        <time>2021-09-21T08:31:01Z</time>
      </trkpt>
      <trkpt lat="46.50456" lon="-1.42098">
        <ele>55.2</ele>
        <time>2021-09-21T08:31:02Z</time>
      </trkpt>
      <trkpt lat="46.50455" lon="-1.42096">
        <ele>55.2</ele>
        <time>2021-09-21T08:31:03Z</time>
      </trkpt>
      <trkpt lat="46.50454" lon="-1.42095">
        <ele>55</ele>
        <time>2021-09-21T08:31:04Z</time>
      </trkpt>
      <trkpt lat="46.50453" lon="-1.42094">
        <ele>54.9</ele>
        <time>2021-09-21T08:31:05Z</time>
      </trkpt>
      <trkpt lat="46.50453" lon="-1.42092">
        <ele>54.9</ele>
        <time>2021-09-21T08:31:06Z</time>
      </trkpt>
      <trkpt lat="46.50452" lon="-1.42091">
        <ele>54.9</ele>
        <time>2021-09-21T08:31:07Z</time>
      </trkpt>
      <trkpt lat="46.50451" lon="-1.4209">
        <ele>54.9</ele>
        <time>2021-09-21T08:31:08Z</time>
      </trkpt>
      <trkpt lat="46.5045" lon="-1.42088">
        <ele>54.9</ele>
        <time>2021-09-21T08:31:09Z</time>
      </trkpt>
      <trkpt lat="46.50449" lon="-1.42087">
        <ele>54.9</ele>
        <time>2021-09-21T08:31:10Z</time>
      </trkpt>
      <trkpt lat="46.50448" lon="-1.42086">
        <ele>54.8</ele>
        <time>2021-09-21T08:31:11Z</time>
      </trkpt>
      <trkpt lat="46.50448" lon="-1.42084">
        <ele>54.8</ele>
        <time>2021-09-21T08:31:12Z</time>
      </trkpt>
      <trkpt lat="46.50448" lon="-1.42083">
        <ele>54.8</ele>
        <time>2021-09-21T08:31:13Z</time>
      </trkpt>
      <trkpt lat="46.50447" lon="-1.42082">
        <ele>54.8</ele>
        <time>2021-09-21T08:31:14Z</time>
      </trkpt>
      <trkpt lat="46.50447" lon="-1.4208">
        <ele>54.8</ele>
        <time>2021-09-21T08:31:15Z</time>
      </trkpt>
      <trkpt lat="46.50446" lon="-1.42079">
        <ele>54.7</ele>
        <time>2021-09-21T08:31:16Z</time>
      </trkpt>
      <trkpt lat="46.50445" lon="-1.42078">
        <ele>54.7</ele>
        <time>2021-09-21T08:31:17Z</time>
      </trkpt>
      <trkpt lat="46.50445" lon="-1.42077">
        <ele>54.7</ele>
        <time>2021-09-21T08:31:18Z</time>
      </trkpt>
      <trkpt lat="46.50445" lon="-1.42077">
        <ele>54.7</ele>
        <time>2021-09-21T08:31:19Z</time>
      </trkpt>
      <trkpt lat="46.50444" lon="-1.42077">
        <ele>54.7</ele>
        <time>2021-09-21T08:31:20Z</time>
      </trkpt>
      <trkpt lat="46.50444" lon="-1.42077">
        <ele>54.7</ele>
        <time>2021-09-21T08:31:21Z</time>
      </trkpt>
      <trkpt lat="46.50444" lon="-1.42077">
        <ele>54.7</ele>
        <time>2021-09-21T08:31:22Z</time>
      </trkpt>
      <trkpt lat="46.50444" lon="-1.42077">
        <ele>54.7</ele>
        <time>2021-09-21T08:31:23Z</time>
      </trkpt>
      <trkpt lat="46.50444" lon="-1.42077">
        <ele>54.7</ele>
        <time>2021-09-21T08:31:24Z</time>
      </trkpt>
      <trkpt lat="46.50444" lon="-1.42077">
        <ele>54.7</ele>
        <time>2021-09-21T08:31:25Z</time>
      </trkpt>
      <trkpt lat="46.50445" lon="-1.42077">
        <ele>54.7</ele>
        <time>2021-09-21T08:31:26Z</time>
      </trkpt>
      <trkpt lat="46.50445" lon="-1.42077">
        <ele>54.7</ele>
        <time>2021-09-21T08:31:27Z</time>
      </trkpt>
      <trkpt lat="46.50446" lon="-1.42076">
        <ele>54.7</ele>
        <time>2021-09-21T08:31:28Z</time>
      </trkpt>
      <trkpt lat="46.50446" lon="-1.42076">
        <ele>54.6</ele>
        <time>2021-09-21T08:31:29Z</time>
      </trkpt>
      <trkpt lat="46.50446" lon="-1.42076">
        <ele>54.6</ele>
        <time>2021-09-21T08:31:30Z</time>
      </trkpt>
      <trkpt lat="46.50446" lon="-1.42075">
        <ele>54.6</ele>
        <time>2021-09-21T08:31:31Z</time>
      </trkpt>
      <trkpt lat="46.50445" lon="-1.42073">
        <ele>54.6</ele>
        <time>2021-09-21T08:31:32Z</time>
      </trkpt>
      <trkpt lat="46.50444" lon="-1.42072">
        <ele>54.6</ele>
        <time>2021-09-21T08:31:33Z</time>
      </trkpt>
      <trkpt lat="46.50444" lon="-1.42071">
        <ele>54.6</ele>
        <time>2021-09-21T08:31:34Z</time>
      </trkpt>
      <trkpt lat="46.50443" lon="-1.42069">
        <ele>54.5</ele>
        <time>2021-09-21T08:31:35Z</time>
      </trkpt>
      <trkpt lat="46.50442" lon="-1.42068">
        <ele>54.5</ele>
        <time>2021-09-21T08:31:36Z</time>
      </trkpt>
      <trkpt lat="46.50441" lon="-1.42067">
        <ele>54.5</ele>
        <time>2021-09-21T08:31:37Z</time>
      </trkpt>
      <trkpt lat="46.5044" lon="-1.42065">
        <ele>54.5</ele>
        <time>2021-09-21T08:31:38Z</time>
      </trkpt>
      <trkpt lat="46.5044" lon="-1.42064">
        <ele>54.4</ele>
        <time>2021-09-21T08:31:39Z</time>
      </trkpt>
      <trkpt lat="46.50439" lon="-1.42063">
        <ele>54.4</ele>
        <time>2021-09-21T08:31:40Z</time>
      </trkpt>
      <trkpt lat="46.50438" lon="-1.42062">
        <ele>54.4</ele>
        <time>2021-09-21T08:31:41Z</time>
      </trkpt>
      <trkpt lat="46.50437" lon="-1.42061">
        <ele>54.4</ele>
        <time>2021-09-21T08:31:42Z</time>
      </trkpt>
      <trkpt lat="46.50436" lon="-1.4206">
        <ele>54.4</ele>
        <time>2021-09-21T08:31:43Z</time>
      </trkpt>
      <trkpt lat="46.50436" lon="-1.42058">
        <ele>54.4</ele>
        <time>2021-09-21T08:31:44Z</time>
      </trkpt>
      <trkpt lat="46.50435" lon="-1.42057">
        <ele>54.3</ele>
        <time>2021-09-21T08:31:45Z</time>
      </trkpt>
      <trkpt lat="46.50434" lon="-1.42056">
        <ele>54.3</ele>
        <time>2021-09-21T08:31:46Z</time>
      </trkpt>
      <trkpt lat="46.50433" lon="-1.42055">
        <ele>54.3</ele>
        <time>2021-09-21T08:31:47Z</time>
      </trkpt>
      <trkpt lat="46.50432" lon="-1.42054">
        <ele>54.3</ele>
        <time>2021-09-21T08:31:48Z</time>
      </trkpt>
      <trkpt lat="46.50431" lon="-1.42052">
        <ele>54.3</ele>
        <time>2021-09-21T08:31:49Z</time>
      </trkpt>
      <trkpt lat="46.5043" lon="-1.42051">
        <ele>54.3</ele>
        <time>2021-09-21T08:31:50Z</time>
      </trkpt>
      <trkpt lat="46.50429" lon="-1.4205">
        <ele>54.3</ele>
        <time>2021-09-21T08:31:51Z</time>
      </trkpt>
      <trkpt lat="46.50428" lon="-1.42049">
        <ele>54.3</ele>
        <time>2021-09-21T08:31:52Z</time>
      </trkpt>
      <trkpt lat="46.50427" lon="-1.42047">
        <ele>54.2</ele>
        <time>2021-09-21T08:31:53Z</time>
      </trkpt>
      <trkpt lat="46.50427" lon="-1.42046">
        <ele>54.2</ele>
        <time>2021-09-21T08:31:54Z</time>
      </trkpt>
      <trkpt lat="46.50426" lon="-1.42045">
        <ele>54.2</ele>
        <time>2021-09-21T08:31:55Z</time>
      </trkpt>
      <trkpt lat="46.50425" lon="-1.42043">
        <ele>54.2</ele>
        <time>2021-09-21T08:31:56Z</time>
      </trkpt>
      <trkpt lat="46.50424" lon="-1.42042">
        <ele>54.2</ele>
        <time>2021-09-21T08:31:57Z</time>
      </trkpt>
      <trkpt lat="46.50423" lon="-1.42041">
        <ele>54.2</ele>
        <time>2021-09-21T08:31:58Z</time>
      </trkpt>
      <trkpt lat="46.50422" lon="-1.42039">
        <ele>54.2</ele>
        <time>2021-09-21T08:31:59Z</time>
      </trkpt>
      <trkpt lat="46.50421" lon="-1.42038">
        <ele>54.2</ele>
        <time>2021-09-21T08:32:00Z</time>
      </trkpt>
      <trkpt lat="46.5042" lon="-1.42037">
        <ele>54.1</ele>
        <time>2021-09-21T08:32:01Z</time>
      </trkpt>
      <trkpt lat="46.50419" lon="-1.42036">
        <ele>54.1</ele>
        <time>2021-09-21T08:32:02Z</time>
      </trkpt>
      <trkpt lat="46.50418" lon="-1.42034">
        <ele>54.1</ele>
        <time>2021-09-21T08:32:03Z</time>
      </trkpt>
      <trkpt lat="46.50417" lon="-1.42033">
        <ele>54.1</ele>
        <time>2021-09-21T08:32:04Z</time>
      </trkpt>
      <trkpt lat="46.50416" lon="-1.42032">
        <ele>54.1</ele>
        <time>2021-09-21T08:32:05Z</time>
      </trkpt>
      <trkpt lat="46.50415" lon="-1.42031">
        <ele>54.1</ele>
        <time>2021-09-21T08:32:06Z</time>
      </trkpt>
      <trkpt lat="46.50414" lon="-1.42029">
        <ele>54.1</ele>
        <time>2021-09-21T08:32:07Z</time>
      </trkpt>
      <trkpt lat="46.50413" lon="-1.42028">
        <ele>54.1</ele>
        <time>2021-09-21T08:32:08Z</time>
      </trkpt>
      <trkpt lat="46.50412" lon="-1.42027">
        <ele>54.1</ele>
        <time>2021-09-21T08:32:09Z</time>
      </trkpt>
      <trkpt lat="46.50411" lon="-1.42026">
        <ele>54.1</ele>
        <time>2021-09-21T08:32:10Z</time>
      </trkpt>
      <trkpt lat="46.5041" lon="-1.42024">
        <ele>54.1</ele>
        <time>2021-09-21T08:32:11Z</time>
      </trkpt>
      <trkpt lat="46.50409" lon="-1.42023">
        <ele>54.1</ele>
        <time>2021-09-21T08:32:12Z</time>
      </trkpt>
      <trkpt lat="46.50408" lon="-1.42022">
        <ele>54.1</ele>
        <time>2021-09-21T08:32:13Z</time>
      </trkpt>
      <trkpt lat="46.50407" lon="-1.42021">
        <ele>54.1</ele>
        <time>2021-09-21T08:32:14Z</time>
      </trkpt>
      <trkpt lat="46.50406" lon="-1.4202">
        <ele>54.1</ele>
        <time>2021-09-21T08:32:15Z</time>
      </trkpt>
      <trkpt lat="46.50405" lon="-1.42018">
        <ele>54.1</ele>
        <time>2021-09-21T08:32:16Z</time>
      </trkpt>
      <trkpt lat="46.50404" lon="-1.42017">
        <ele>54.1</ele>
        <time>2021-09-21T08:32:17Z</time>
      </trkpt>
      <trkpt lat="46.50403" lon="-1.42016">
        <ele>54.1</ele>
        <time>2021-09-21T08:32:18Z</time>
      </trkpt>
      <trkpt lat="46.50402" lon="-1.42015">
        <ele>54</ele>
        <time>2021-09-21T08:32:19Z</time>
      </trkpt>
      <trkpt lat="46.504" lon="-1.42014">
        <ele>54</ele>
        <time>2021-09-21T08:32:20Z</time>
      </trkpt>
      <trkpt lat="46.50399" lon="-1.42013">
        <ele>54</ele>
        <time>2021-09-21T08:32:21Z</time>
      </trkpt>
      <trkpt lat="46.50398" lon="-1.42012">
        <ele>54</ele>
        <time>2021-09-21T08:32:22Z</time>
      </trkpt>
      <trkpt lat="46.50397" lon="-1.4201">
        <ele>54</ele>
        <time>2021-09-21T08:32:23Z</time>
      </trkpt>
      <trkpt lat="46.50396" lon="-1.42009">
        <ele>54</ele>
        <time>2021-09-21T08:32:24Z</time>
      </trkpt>
      <trkpt lat="46.50395" lon="-1.42008">
        <ele>54</ele>
        <time>2021-09-21T08:32:25Z</time>
      </trkpt>
      <trkpt lat="46.50394" lon="-1.42007">
        <ele>54</ele>
        <time>2021-09-21T08:32:26Z</time>
      </trkpt>
      <trkpt lat="46.50393" lon="-1.42006">
        <ele>54</ele>
        <time>2021-09-21T08:32:27Z</time>
      </trkpt>
      <trkpt lat="46.50392" lon="-1.42005">
        <ele>54</ele>
        <time>2021-09-21T08:32:28Z</time>
      </trkpt>
      <trkpt lat="46.50391" lon="-1.42004">
        <ele>54</ele>
        <time>2021-09-21T08:32:29Z</time>
      </trkpt>
      <trkpt lat="46.5039" lon="-1.42003">
        <ele>54</ele>
        <time>2021-09-21T08:32:30Z</time>
      </trkpt>
      <trkpt lat="46.50389" lon="-1.42002">
        <ele>54</ele>
        <time>2021-09-21T08:32:31Z</time>
      </trkpt>
      <trkpt lat="46.50388" lon="-1.42001">
        <ele>54</ele>
        <time>2021-09-21T08:32:32Z</time>
      </trkpt>
      <trkpt lat="46.50387" lon="-1.42">
        <ele>54</ele>
        <time>2021-09-21T08:32:33Z</time>
      </trkpt>
      <trkpt lat="46.50386" lon="-1.41999">
        <ele>54</ele>
        <time>2021-09-21T08:32:34Z</time>
      </trkpt>
      <trkpt lat="46.50385" lon="-1.41998">
        <ele>54</ele>
        <time>2021-09-21T08:32:35Z</time>
      </trkpt>
      <trkpt lat="46.50383" lon="-1.41997">
        <ele>54</ele>
        <time>2021-09-21T08:32:36Z</time>
      </trkpt>
      <trkpt lat="46.50382" lon="-1.41996">
        <ele>54</ele>
        <time>2021-09-21T08:32:37Z</time>
      </trkpt>
      <trkpt lat="46.50381" lon="-1.41995">
        <ele>54</ele>
        <time>2021-09-21T08:32:38Z</time>
      </trkpt>
      <trkpt lat="46.5038" lon="-1.41994">
        <ele>54.1</ele>
        <time>2021-09-21T08:32:39Z</time>
      </trkpt>
      <trkpt lat="46.50379" lon="-1.41993">
        <ele>54.1</ele>
        <time>2021-09-21T08:32:40Z</time>
      </trkpt>
      <trkpt lat="46.50378" lon="-1.41992">
        <ele>54.1</ele>
        <time>2021-09-21T08:32:41Z</time>
      </trkpt>
      <trkpt lat="46.50377" lon="-1.41991">
        <ele>54.1</ele>
        <time>2021-09-21T08:32:42Z</time>
      </trkpt>
      <trkpt lat="46.50376" lon="-1.4199">
        <ele>54.1</ele>
        <time>2021-09-21T08:32:43Z</time>
      </trkpt>
      <trkpt lat="46.50375" lon="-1.41989">
        <ele>54.1</ele>
        <time>2021-09-21T08:32:44Z</time>
      </trkpt>
      <trkpt lat="46.50374" lon="-1.41988">
        <ele>54.2</ele>
        <time>2021-09-21T08:32:45Z</time>
      </trkpt>
      <trkpt lat="46.50373" lon="-1.41987">
        <ele>54.2</ele>
        <time>2021-09-21T08:32:46Z</time>
      </trkpt>
      <trkpt lat="46.50372" lon="-1.41986">
        <ele>54.2</ele>
        <time>2021-09-21T08:32:47Z</time>
      </trkpt>
      <trkpt lat="46.5037" lon="-1.41984">
        <ele>54.2</ele>
        <time>2021-09-21T08:32:48Z</time>
      </trkpt>
      <trkpt lat="46.50369" lon="-1.41983">
        <ele>54.3</ele>
        <time>2021-09-21T08:32:49Z</time>
      </trkpt>
      <trkpt lat="46.50368" lon="-1.41982">
        <ele>54.3</ele>
        <time>2021-09-21T08:32:50Z</time>
      </trkpt>
      <trkpt lat="46.50367" lon="-1.41981">
        <ele>54.3</ele>
        <time>2021-09-21T08:32:51Z</time>
      </trkpt>
      <trkpt lat="46.50366" lon="-1.41979">
        <ele>54.4</ele>
        <time>2021-09-21T08:32:52Z</time>
      </trkpt>
      <trkpt lat="46.50365" lon="-1.41978">
        <ele>54.4</ele>
        <time>2021-09-21T08:32:53Z</time>
      </trkpt>
      <trkpt lat="46.50363" lon="-1.41977">
        <ele>54.4</ele>
        <time>2021-09-21T08:32:54Z</time>
      </trkpt>
      <trkpt lat="46.50362" lon="-1.41976">
        <ele>54.5</ele>
        <time>2021-09-21T08:32:55Z</time>
      </trkpt>
      <trkpt lat="46.50361" lon="-1.41974">
        <ele>54.5</ele>
        <time>2021-09-21T08:32:56Z</time>
      </trkpt>
      <trkpt lat="46.5036" lon="-1.41973">
        <ele>54.5</ele>
        <time>2021-09-21T08:32:57Z</time>
      </trkpt>
      <trkpt lat="46.50359" lon="-1.41972">
        <ele>54.6</ele>
        <time>2021-09-21T08:32:58Z</time>
      </trkpt>
      <trkpt lat="46.50358" lon="-1.41971">
        <ele>54.6</ele>
        <time>2021-09-21T08:32:59Z</time>
      </trkpt>
      <trkpt lat="46.50357" lon="-1.4197">
        <ele>54.6</ele>
        <time>2021-09-21T08:33:00Z</time>
      </trkpt>
      <trkpt lat="46.50356" lon="-1.41969">
        <ele>54.6</ele>
        <time>2021-09-21T08:33:01Z</time>
      </trkpt>
      <trkpt lat="46.50355" lon="-1.41969">
        <ele>54.7</ele>
        <time>2021-09-21T08:33:02Z</time>
      </trkpt>
      <trkpt lat="46.50354" lon="-1.41968">
        <ele>54.7</ele>
        <time>2021-09-21T08:33:03Z</time>
      </trkpt>
      <trkpt lat="46.50353" lon="-1.41967">
        <ele>54.7</ele>
        <time>2021-09-21T08:33:04Z</time>
      </trkpt>
      <trkpt lat="46.50352" lon="-1.41966">
        <ele>54.8</ele>
        <time>2021-09-21T08:33:05Z</time>
      </trkpt>
      <trkpt lat="46.50351" lon="-1.41965">
        <ele>54.8</ele>
        <time>2021-09-21T08:33:06Z</time>
      </trkpt>
      <trkpt lat="46.5035" lon="-1.41964">
        <ele>54.8</ele>
        <time>2021-09-21T08:33:07Z</time>
      </trkpt>
      <trkpt lat="46.50349" lon="-1.41963">
        <ele>54.8</ele>
        <time>2021-09-21T08:33:08Z</time>
      </trkpt>
      <trkpt lat="46.50349" lon="-1.41962">
        <ele>54.8</ele>
        <time>2021-09-21T08:33:09Z</time>
      </trkpt>
      <trkpt lat="46.50348" lon="-1.41961">
        <ele>54.8</ele>
        <time>2021-09-21T08:33:10Z</time>
      </trkpt>
      <trkpt lat="46.50347" lon="-1.41961">
        <ele>54.9</ele>
        <time>2021-09-21T08:33:11Z</time>
      </trkpt>
      <trkpt lat="46.50346" lon="-1.4196">
        <ele>54.9</ele>
        <time>2021-09-21T08:33:12Z</time>
      </trkpt>
      <trkpt lat="46.50345" lon="-1.41959">
        <ele>54.9</ele>
        <time>2021-09-21T08:33:13Z</time>
      </trkpt>
      <trkpt lat="46.50344" lon="-1.41958">
        <ele>54.9</ele>
        <time>2021-09-21T08:33:14Z</time>
      </trkpt>
      <trkpt lat="46.50343" lon="-1.41957">
        <ele>54.9</ele>
        <time>2021-09-21T08:33:15Z</time>
      </trkpt>
      <trkpt lat="46.50342" lon="-1.41956">
        <ele>54.9</ele>
        <time>2021-09-21T08:33:16Z</time>
      </trkpt>
      <trkpt lat="46.50341" lon="-1.41955">
        <ele>55</ele>
        <time>2021-09-21T08:33:17Z</time>
      </trkpt>
      <trkpt lat="46.5034" lon="-1.41954">
        <ele>55</ele>
        <time>2021-09-21T08:33:18Z</time>
      </trkpt>
      <trkpt lat="46.50339" lon="-1.41953">
        <ele>55</ele>
        <time>2021-09-21T08:33:19Z</time>
      </trkpt>
      <trkpt lat="46.50338" lon="-1.41951">
        <ele>55</ele>
        <time>2021-09-21T08:33:20Z</time>
      </trkpt>
      <trkpt lat="46.50337" lon="-1.4195">
        <ele>55</ele>
        <time>2021-09-21T08:33:21Z</time>
      </trkpt>
      <trkpt lat="46.50336" lon="-1.41948">
        <ele>55</ele>
        <time>2021-09-21T08:33:22Z</time>
      </trkpt>
      <trkpt lat="46.50335" lon="-1.41947">
        <ele>55</ele>
        <time>2021-09-21T08:33:23Z</time>
      </trkpt>
      <trkpt lat="46.50334" lon="-1.41945">
        <ele>55</ele>
        <time>2021-09-21T08:33:24Z</time>
      </trkpt>
      <trkpt lat="46.50333" lon="-1.41944">
        <ele>55</ele>
        <time>2021-09-21T08:33:25Z</time>
      </trkpt>
      <trkpt lat="46.50332" lon="-1.41943">
        <ele>55</ele>
        <time>2021-09-21T08:33:26Z</time>
      </trkpt>
      <trkpt lat="46.50331" lon="-1.41942">
        <ele>55</ele>
        <time>2021-09-21T08:33:27Z</time>
      </trkpt>
      <trkpt lat="46.50331" lon="-1.41941">
        <ele>55</ele>
        <time>2021-09-21T08:33:28Z</time>
      </trkpt>
      <trkpt lat="46.5033" lon="-1.4194">
        <ele>55</ele>
        <time>2021-09-21T08:33:29Z</time>
      </trkpt>
      <trkpt lat="46.50329" lon="-1.41939">
        <ele>55</ele>
        <time>2021-09-21T08:33:30Z</time>
      </trkpt>
      <trkpt lat="46.50328" lon="-1.41938">
        <ele>55</ele>
        <time>2021-09-21T08:33:31Z</time>
      </trkpt>
      <trkpt lat="46.50327" lon="-1.41938">
        <ele>55.1</ele>
        <time>2021-09-21T08:33:32Z</time>
      </trkpt>
      <trkpt lat="46.50327" lon="-1.41937">
        <ele>55.1</ele>
        <time>2021-09-21T08:33:33Z</time>
      </trkpt>
      <trkpt lat="46.50326" lon="-1.41936">
        <ele>55.1</ele>
        <time>2021-09-21T08:33:34Z</time>
      </trkpt>
      <trkpt lat="46.50325" lon="-1.41935">
        <ele>55.1</ele>
        <time>2021-09-21T08:33:35Z</time>
      </trkpt>
      <trkpt lat="46.50324" lon="-1.41934">
        <ele>55.1</ele>
        <time>2021-09-21T08:33:36Z</time>
      </trkpt>
      <trkpt lat="46.50323" lon="-1.41933">
        <ele>55.1</ele>
        <time>2021-09-21T08:33:37Z</time>
      </trkpt>
      <trkpt lat="46.50322" lon="-1.41933">
        <ele>55.1</ele>
        <time>2021-09-21T08:33:38Z</time>
      </trkpt>
      <trkpt lat="46.50321" lon="-1.41932">
        <ele>55.1</ele>
        <time>2021-09-21T08:33:39Z</time>
      </trkpt>
      <trkpt lat="46.5032" lon="-1.41931">
        <ele>55.1</ele>
        <time>2021-09-21T08:33:40Z</time>
      </trkpt>
      <trkpt lat="46.50319" lon="-1.41929">
        <ele>55.1</ele>
        <time>2021-09-21T08:33:41Z</time>
      </trkpt>
      <trkpt lat="46.50318" lon="-1.41928">
        <ele>55.1</ele>
        <time>2021-09-21T08:33:42Z</time>
      </trkpt>
      <trkpt lat="46.50317" lon="-1.41927">
        <ele>55.1</ele>
        <time>2021-09-21T08:33:43Z</time>
      </trkpt>
      <trkpt lat="46.50315" lon="-1.41926">
        <ele>55.1</ele>
        <time>2021-09-21T08:33:44Z</time>
      </trkpt>
      <trkpt lat="46.50314" lon="-1.41925">
        <ele>55.1</ele>
        <time>2021-09-21T08:33:45Z</time>
      </trkpt>
      <trkpt lat="46.50313" lon="-1.41924">
        <ele>55.1</ele>
        <time>2021-09-21T08:33:46Z</time>
      </trkpt>
      <trkpt lat="46.50312" lon="-1.41923">
        <ele>55.1</ele>
        <time>2021-09-21T08:33:47Z</time>
      </trkpt>
      <trkpt lat="46.50311" lon="-1.41921">
        <ele>55.1</ele>
        <time>2021-09-21T08:33:48Z</time>
      </trkpt>
      <trkpt lat="46.5031" lon="-1.4192">
        <ele>55.1</ele>
        <time>2021-09-21T08:33:49Z</time>
      </trkpt>
      <trkpt lat="46.50309" lon="-1.41919">
        <ele>55.1</ele>
        <time>2021-09-21T08:33:50Z</time>
      </trkpt>
      <trkpt lat="46.50307" lon="-1.41918">
        <ele>55.1</ele>
        <time>2021-09-21T08:33:51Z</time>
      </trkpt>
      <trkpt lat="46.50306" lon="-1.41916">
        <ele>55.1</ele>
        <time>2021-09-21T08:33:52Z</time>
      </trkpt>
      <trkpt lat="46.50305" lon="-1.41915">
        <ele>55.1</ele>
        <time>2021-09-21T08:33:53Z</time>
      </trkpt>
      <trkpt lat="46.50304" lon="-1.41914">
        <ele>55.1</ele>
        <time>2021-09-21T08:33:54Z</time>
      </trkpt>
      <trkpt lat="46.50303" lon="-1.41913">
        <ele>55.1</ele>
        <time>2021-09-21T08:33:55Z</time>
      </trkpt>
      <trkpt lat="46.50302" lon="-1.41912">
        <ele>55.1</ele>
        <time>2021-09-21T08:33:56Z</time>
      </trkpt>
      <trkpt lat="46.503" lon="-1.4191">
        <ele>55.1</ele>
        <time>2021-09-21T08:33:57Z</time>
      </trkpt>
      <trkpt lat="46.50299" lon="-1.41909">
        <ele>55.1</ele>
        <time>2021-09-21T08:33:58Z</time>
      </trkpt>
      <trkpt lat="46.50298" lon="-1.41908">
        <ele>55.1</ele>
        <time>2021-09-21T08:33:59Z</time>
      </trkpt>
      <trkpt lat="46.50297" lon="-1.41907">
        <ele>55.1</ele>
        <time>2021-09-21T08:34:00Z</time>
      </trkpt>
      <trkpt lat="46.50296" lon="-1.41905">
        <ele>55.1</ele>
        <time>2021-09-21T08:34:01Z</time>
      </trkpt>
      <trkpt lat="46.50295" lon="-1.41904">
        <ele>55.1</ele>
        <time>2021-09-21T08:34:02Z</time>
      </trkpt>
      <trkpt lat="46.50294" lon="-1.41903">
        <ele>55.1</ele>
        <time>2021-09-21T08:34:03Z</time>
      </trkpt>
      <trkpt lat="46.50293" lon="-1.41902">
        <ele>55.1</ele>
        <time>2021-09-21T08:34:04Z</time>
      </trkpt>
      <trkpt lat="46.50292" lon="-1.41901">
        <ele>55.1</ele>
        <time>2021-09-21T08:34:05Z</time>
      </trkpt>
      <trkpt lat="46.50291" lon="-1.419">
        <ele>55.1</ele>
        <time>2021-09-21T08:34:06Z</time>
      </trkpt>
      <trkpt lat="46.5029" lon="-1.41899">
        <ele>55.1</ele>
        <time>2021-09-21T08:34:07Z</time>
      </trkpt>
      <trkpt lat="46.50289" lon="-1.41897">
        <ele>55.1</ele>
        <time>2021-09-21T08:34:08Z</time>
      </trkpt>
      <trkpt lat="46.50287" lon="-1.41896">
        <ele>55.1</ele>
        <time>2021-09-21T08:34:09Z</time>
      </trkpt>
      <trkpt lat="46.50286" lon="-1.41895">
        <ele>55.1</ele>
        <time>2021-09-21T08:34:10Z</time>
      </trkpt>
      <trkpt lat="46.50285" lon="-1.41894">
        <ele>55.1</ele>
        <time>2021-09-21T08:34:11Z</time>
      </trkpt>
      <trkpt lat="46.50284" lon="-1.41893">
        <ele>55.1</ele>
        <time>2021-09-21T08:34:12Z</time>
      </trkpt>
      <trkpt lat="46.50283" lon="-1.41892">
        <ele>55.1</ele>
        <time>2021-09-21T08:34:13Z</time>
      </trkpt>
      <trkpt lat="46.50282" lon="-1.41891">
        <ele>55.1</ele>
        <time>2021-09-21T08:34:14Z</time>
      </trkpt>
      <trkpt lat="46.50281" lon="-1.4189">
        <ele>55.1</ele>
        <time>2021-09-21T08:34:15Z</time>
      </trkpt>
      <trkpt lat="46.5028" lon="-1.41888">
        <ele>55.1</ele>
        <time>2021-09-21T08:34:16Z</time>
      </trkpt>
      <trkpt lat="46.50279" lon="-1.41887">
        <ele>55.1</ele>
        <time>2021-09-21T08:34:17Z</time>
      </trkpt>
      <trkpt lat="46.50278" lon="-1.41886">
        <ele>55.1</ele>
        <time>2021-09-21T08:34:18Z</time>
      </trkpt>
      <trkpt lat="46.50277" lon="-1.41885">
        <ele>55.1</ele>
        <time>2021-09-21T08:34:19Z</time>
      </trkpt>
      <trkpt lat="46.50275" lon="-1.41883">
        <ele>55.1</ele>
        <time>2021-09-21T08:34:20Z</time>
      </trkpt>
      <trkpt lat="46.50274" lon="-1.41882">
        <ele>55.1</ele>
        <time>2021-09-21T08:34:21Z</time>
      </trkpt>
      <trkpt lat="46.50273" lon="-1.41881">
        <ele>55.1</ele>
        <time>2021-09-21T08:34:22Z</time>
      </trkpt>
      <trkpt lat="46.50272" lon="-1.41879">
        <ele>55.1</ele>
        <time>2021-09-21T08:34:23Z</time>
      </trkpt>
      <trkpt lat="46.50271" lon="-1.41878">
        <ele>55.1</ele>
        <time>2021-09-21T08:34:24Z</time>
      </trkpt>
      <trkpt lat="46.5027" lon="-1.41877">
        <ele>55.1</ele>
        <time>2021-09-21T08:34:25Z</time>
      </trkpt>
      <trkpt lat="46.50269" lon="-1.41876">
        <ele>55.1</ele>
        <time>2021-09-21T08:34:26Z</time>
      </trkpt>
      <trkpt lat="46.50268" lon="-1.41874">
        <ele>55</ele>
        <time>2021-09-21T08:34:27Z</time>
      </trkpt>
      <trkpt lat="46.50267" lon="-1.41873">
        <ele>55</ele>
        <time>2021-09-21T08:34:28Z</time>
      </trkpt>
      <trkpt lat="46.50266" lon="-1.41872">
        <ele>55</ele>
        <time>2021-09-21T08:34:29Z</time>
      </trkpt>
      <trkpt lat="46.50265" lon="-1.41871">
        <ele>55</ele>
        <time>2021-09-21T08:34:30Z</time>
      </trkpt>
      <trkpt lat="46.50264" lon="-1.4187">
        <ele>55</ele>
        <time>2021-09-21T08:34:31Z</time>
      </trkpt>
      <trkpt lat="46.50263" lon="-1.41869">
        <ele>55</ele>
        <time>2021-09-21T08:34:32Z</time>
      </trkpt>
      <trkpt lat="46.50262" lon="-1.41868">
        <ele>55</ele>
        <time>2021-09-21T08:34:33Z</time>
      </trkpt>
      <trkpt lat="46.50261" lon="-1.41867">
        <ele>55</ele>
        <time>2021-09-21T08:34:34Z</time>
      </trkpt>
      <trkpt lat="46.5026" lon="-1.41866">
        <ele>55</ele>
        <time>2021-09-21T08:34:35Z</time>
      </trkpt>
      <trkpt lat="46.50258" lon="-1.41865">
        <ele>55</ele>
        <time>2021-09-21T08:34:36Z</time>
      </trkpt>
      <trkpt lat="46.50257" lon="-1.41863">
        <ele>55</ele>
        <time>2021-09-21T08:34:37Z</time>
      </trkpt>
      <trkpt lat="46.50256" lon="-1.41862">
        <ele>54.9</ele>
        <time>2021-09-21T08:34:38Z</time>
      </trkpt>
      <trkpt lat="46.50255" lon="-1.41861">
        <ele>54.9</ele>
        <time>2021-09-21T08:34:39Z</time>
      </trkpt>
      <trkpt lat="46.50254" lon="-1.4186">
        <ele>54.9</ele>
        <time>2021-09-21T08:34:40Z</time>
      </trkpt>
      <trkpt lat="46.50253" lon="-1.41858">
        <ele>54.9</ele>
        <time>2021-09-21T08:34:41Z</time>
      </trkpt>
      <trkpt lat="46.50251" lon="-1.41857">
        <ele>54.9</ele>
        <time>2021-09-21T08:34:42Z</time>
      </trkpt>
      <trkpt lat="46.5025" lon="-1.41856">
        <ele>54.9</ele>
        <time>2021-09-21T08:34:43Z</time>
      </trkpt>
      <trkpt lat="46.50249" lon="-1.41855">
        <ele>54.9</ele>
        <time>2021-09-21T08:34:44Z</time>
      </trkpt>
      <trkpt lat="46.50248" lon="-1.41854">
        <ele>54.9</ele>
        <time>2021-09-21T08:34:45Z</time>
      </trkpt>
      <trkpt lat="46.50247" lon="-1.41853">
        <ele>54.9</ele>
        <time>2021-09-21T08:34:46Z</time>
      </trkpt>
      <trkpt lat="46.50246" lon="-1.41852">
        <ele>54.9</ele>
        <time>2021-09-21T08:34:47Z</time>
      </trkpt>
      <trkpt lat="46.50245" lon="-1.41851">
        <ele>54.9</ele>
        <time>2021-09-21T08:34:48Z</time>
      </trkpt>
      <trkpt lat="46.50244" lon="-1.41849">
        <ele>54.9</ele>
        <time>2021-09-21T08:34:49Z</time>
      </trkpt>
      <trkpt lat="46.50242" lon="-1.41848">
        <ele>54.9</ele>
        <time>2021-09-21T08:34:50Z</time>
      </trkpt>
      <trkpt lat="46.50241" lon="-1.41847">
        <ele>54.8</ele>
        <time>2021-09-21T08:34:51Z</time>
      </trkpt>
      <trkpt lat="46.5024" lon="-1.41846">
        <ele>54.8</ele>
        <time>2021-09-21T08:34:52Z</time>
      </trkpt>
      <trkpt lat="46.50239" lon="-1.41845">
        <ele>54.8</ele>
        <time>2021-09-21T08:34:53Z</time>
      </trkpt>
      <trkpt lat="46.50238" lon="-1.41844">
        <ele>54.8</ele>
        <time>2021-09-21T08:34:54Z</time>
      </trkpt>
      <trkpt lat="46.50237" lon="-1.41843">
        <ele>54.8</ele>
        <time>2021-09-21T08:34:55Z</time>
      </trkpt>
      <trkpt lat="46.50236" lon="-1.41842">
        <ele>54.8</ele>
        <time>2021-09-21T08:34:56Z</time>
      </trkpt>
      <trkpt lat="46.50235" lon="-1.41841">
        <ele>54.8</ele>
        <time>2021-09-21T08:34:57Z</time>
      </trkpt>
      <trkpt lat="46.50234" lon="-1.41839">
        <ele>54.8</ele>
        <time>2021-09-21T08:34:58Z</time>
      </trkpt>
      <trkpt lat="46.50233" lon="-1.41838">
        <ele>54.8</ele>
        <time>2021-09-21T08:34:59Z</time>
      </trkpt>
      <trkpt lat="46.50232" lon="-1.41837">
        <ele>54.8</ele>
        <time>2021-09-21T08:35:00Z</time>
      </trkpt>
      <trkpt lat="46.50231" lon="-1.41836">
        <ele>54.8</ele>
        <time>2021-09-21T08:35:01Z</time>
      </trkpt>
      <trkpt lat="46.5023" lon="-1.41835">
        <ele>54.8</ele>
        <time>2021-09-21T08:35:02Z</time>
      </trkpt>
      <trkpt lat="46.50229" lon="-1.41834">
        <ele>54.8</ele>
        <time>2021-09-21T08:35:03Z</time>
      </trkpt>
      <trkpt lat="46.50228" lon="-1.41833">
        <ele>54.8</ele>
        <time>2021-09-21T08:35:04Z</time>
      </trkpt>
      <trkpt lat="46.50227" lon="-1.41832">
        <ele>54.8</ele>
        <time>2021-09-21T08:35:05Z</time>
      </trkpt>
      <trkpt lat="46.50226" lon="-1.41831">
        <ele>54.8</ele>
        <time>2021-09-21T08:35:06Z</time>
      </trkpt>
      <trkpt lat="46.50225" lon="-1.4183">
        <ele>54.8</ele>
        <time>2021-09-21T08:35:07Z</time>
      </trkpt>
      <trkpt lat="46.50224" lon="-1.41829">
        <ele>54.8</ele>
        <time>2021-09-21T08:35:08Z</time>
      </trkpt>
      <trkpt lat="46.50223" lon="-1.41828">
        <ele>54.8</ele>
        <time>2021-09-21T08:35:09Z</time>
      </trkpt>
      <trkpt lat="46.50222" lon="-1.41827">
        <ele>54.8</ele>
        <time>2021-09-21T08:35:10Z</time>
      </trkpt>
      <trkpt lat="46.50221" lon="-1.41826">
        <ele>54.8</ele>
        <time>2021-09-21T08:35:11Z</time>
      </trkpt>
      <trkpt lat="46.5022" lon="-1.41825">
        <ele>54.8</ele>
        <time>2021-09-21T08:35:12Z</time>
      </trkpt>
      <trkpt lat="46.50219" lon="-1.41824">
        <ele>54.8</ele>
        <time>2021-09-21T08:35:13Z</time>
      </trkpt>
      <trkpt lat="46.50218" lon="-1.41823">
        <ele>54.8</ele>
        <time>2021-09-21T08:35:14Z</time>
      </trkpt>
      <trkpt lat="46.50217" lon="-1.41822">
        <ele>54.8</ele>
        <time>2021-09-21T08:35:15Z</time>
      </trkpt>
      <trkpt lat="46.50216" lon="-1.41821">
        <ele>54.8</ele>
        <time>2021-09-21T08:35:16Z</time>
      </trkpt>
      <trkpt lat="46.50215" lon="-1.4182">
        <ele>54.8</ele>
        <time>2021-09-21T08:35:17Z</time>
      </trkpt>
      <trkpt lat="46.50214" lon="-1.41819">
        <ele>54.9</ele>
        <time>2021-09-21T08:35:18Z</time>
      </trkpt>
      <trkpt lat="46.50213" lon="-1.41818">
        <ele>54.9</ele>
        <time>2021-09-21T08:35:19Z</time>
      </trkpt>
      <trkpt lat="46.50211" lon="-1.41817">
        <ele>54.9</ele>
        <time>2021-09-21T08:35:20Z</time>
      </trkpt>
      <trkpt lat="46.5021" lon="-1.41816">
        <ele>54.9</ele>
        <time>2021-09-21T08:35:21Z</time>
      </trkpt>
      <trkpt lat="46.50209" lon="-1.41815">
        <ele>54.9</ele>
        <time>2021-09-21T08:35:22Z</time>
      </trkpt>
      <trkpt lat="46.50208" lon="-1.41814">
        <ele>54.9</ele>
        <time>2021-09-21T08:35:23Z</time>
      </trkpt>
      <trkpt lat="46.50207" lon="-1.41813">
        <ele>54.9</ele>
        <time>2021-09-21T08:35:24Z</time>
      </trkpt>
      <trkpt lat="46.50206" lon="-1.41813">
        <ele>54.9</ele>
        <time>2021-09-21T08:35:25Z</time>
      </trkpt>
      <trkpt lat="46.50205" lon="-1.41812">
        <ele>55</ele>
        <time>2021-09-21T08:35:26Z</time>
      </trkpt>
      <trkpt lat="46.50204" lon="-1.41811">
        <ele>55</ele>
        <time>2021-09-21T08:35:27Z</time>
      </trkpt>
      <trkpt lat="46.50203" lon="-1.4181">
        <ele>55</ele>
        <time>2021-09-21T08:35:28Z</time>
      </trkpt>
      <trkpt lat="46.50201" lon="-1.41809">
        <ele>55</ele>
        <time>2021-09-21T08:35:29Z</time>
      </trkpt>
      <trkpt lat="46.502" lon="-1.41808">
        <ele>55</ele>
        <time>2021-09-21T08:35:30Z</time>
      </trkpt>
      <trkpt lat="46.50199" lon="-1.41807">
        <ele>55.1</ele>
        <time>2021-09-21T08:35:31Z</time>
      </trkpt>
      <trkpt lat="46.50198" lon="-1.41806">
        <ele>55.1</ele>
        <time>2021-09-21T08:35:32Z</time>
      </trkpt>
      <trkpt lat="46.50197" lon="-1.41805">
        <ele>55.1</ele>
        <time>2021-09-21T08:35:33Z</time>
      </trkpt>
      <trkpt lat="46.50196" lon="-1.41804">
        <ele>55.1</ele>
        <time>2021-09-21T08:35:34Z</time>
      </trkpt>
      <trkpt lat="46.50195" lon="-1.41803">
        <ele>55.2</ele>
        <time>2021-09-21T08:35:35Z</time>
      </trkpt>
      <trkpt lat="46.50194" lon="-1.41802">
        <ele>55.2</ele>
        <time>2021-09-21T08:35:36Z</time>
      </trkpt>
      <trkpt lat="46.50192" lon="-1.41801">
        <ele>55.2</ele>
        <time>2021-09-21T08:35:37Z</time>
      </trkpt>
      <trkpt lat="46.50191" lon="-1.41799">
        <ele>55.3</ele>
        <time>2021-09-21T08:35:38Z</time>
      </trkpt>
      <trkpt lat="46.5019" lon="-1.41798">
        <ele>55.3</ele>
        <time>2021-09-21T08:35:39Z</time>
      </trkpt>
      <trkpt lat="46.50189" lon="-1.41797">
        <ele>55.4</ele>
        <time>2021-09-21T08:35:40Z</time>
      </trkpt>
      <trkpt lat="46.50188" lon="-1.41796">
        <ele>55.4</ele>
        <time>2021-09-21T08:35:41Z</time>
      </trkpt>
      <trkpt lat="46.50187" lon="-1.41795">
        <ele>55.5</ele>
        <time>2021-09-21T08:35:42Z</time>
      </trkpt>
      <trkpt lat="46.50186" lon="-1.41794">
        <ele>55.5</ele>
        <time>2021-09-21T08:35:43Z</time>
      </trkpt>
      <trkpt lat="46.50185" lon="-1.41793">
        <ele>55.5</ele>
        <time>2021-09-21T08:35:44Z</time>
      </trkpt>
      <trkpt lat="46.50183" lon="-1.41792">
        <ele>55.6</ele>
        <time>2021-09-21T08:35:45Z</time>
      </trkpt>
      <trkpt lat="46.50182" lon="-1.41791">
        <ele>55.6</ele>
        <time>2021-09-21T08:35:46Z</time>
      </trkpt>
      <trkpt lat="46.50181" lon="-1.4179">
        <ele>55.7</ele>
        <time>2021-09-21T08:35:47Z</time>
      </trkpt>
      <trkpt lat="46.5018" lon="-1.41789">
        <ele>55.7</ele>
        <time>2021-09-21T08:35:48Z</time>
      </trkpt>
      <trkpt lat="46.50179" lon="-1.41788">
        <ele>55.8</ele>
        <time>2021-09-21T08:35:49Z</time>
      </trkpt>
      <trkpt lat="46.50178" lon="-1.41787">
        <ele>55.8</ele>
        <time>2021-09-21T08:35:50Z</time>
      </trkpt>
      <trkpt lat="46.50177" lon="-1.41786">
        <ele>55.9</ele>
        <time>2021-09-21T08:35:51Z</time>
      </trkpt>
      <trkpt lat="46.50176" lon="-1.41785">
        <ele>55.9</ele>
        <time>2021-09-21T08:35:52Z</time>
      </trkpt>
      <trkpt lat="46.50175" lon="-1.41784">
        <ele>55.9</ele>
        <time>2021-09-21T08:35:53Z</time>
      </trkpt>
      <trkpt lat="46.50174" lon="-1.41783">
        <ele>56</ele>
        <time>2021-09-21T08:35:54Z</time>
      </trkpt>
      <trkpt lat="46.50173" lon="-1.41782">
        <ele>56</ele>
        <time>2021-09-21T08:35:55Z</time>
      </trkpt>
      <trkpt lat="46.50172" lon="-1.41781">
        <ele>56.1</ele>
        <time>2021-09-21T08:35:56Z</time>
      </trkpt>
      <trkpt lat="46.50171" lon="-1.4178">
        <ele>56.1</ele>
        <time>2021-09-21T08:35:57Z</time>
      </trkpt>
      <trkpt lat="46.50169" lon="-1.41779">
        <ele>56.2</ele>
        <time>2021-09-21T08:35:58Z</time>
      </trkpt>
      <trkpt lat="46.50168" lon="-1.41778">
        <ele>56.2</ele>
        <time>2021-09-21T08:35:59Z</time>
      </trkpt>
      <trkpt lat="46.50167" lon="-1.41777">
        <ele>56.2</ele>
        <time>2021-09-21T08:36:00Z</time>
      </trkpt>
      <trkpt lat="46.50166" lon="-1.41776">
        <ele>56.3</ele>
        <time>2021-09-21T08:36:01Z</time>
      </trkpt>
      <trkpt lat="46.50165" lon="-1.41775">
        <ele>56.3</ele>
        <time>2021-09-21T08:36:02Z</time>
      </trkpt>
      <trkpt lat="46.50164" lon="-1.41774">
        <ele>56.4</ele>
        <time>2021-09-21T08:36:03Z</time>
      </trkpt>
      <trkpt lat="46.50164" lon="-1.41773">
        <ele>56.4</ele>
        <time>2021-09-21T08:36:04Z</time>
      </trkpt>
      <trkpt lat="46.50163" lon="-1.41772">
        <ele>56.4</ele>
        <time>2021-09-21T08:36:05Z</time>
      </trkpt>
      <trkpt lat="46.50162" lon="-1.41771">
        <ele>56.5</ele>
        <time>2021-09-21T08:36:06Z</time>
      </trkpt>
      <trkpt lat="46.50161" lon="-1.4177">
        <ele>56.5</ele>
        <time>2021-09-21T08:36:07Z</time>
      </trkpt>
      <trkpt lat="46.5016" lon="-1.4177">
        <ele>56.6</ele>
        <time>2021-09-21T08:36:08Z</time>
      </trkpt>
      <trkpt lat="46.50159" lon="-1.41769">
        <ele>56.6</ele>
        <time>2021-09-21T08:36:09Z</time>
      </trkpt>
      <trkpt lat="46.50158" lon="-1.41768">
        <ele>56.6</ele>
        <time>2021-09-21T08:36:10Z</time>
      </trkpt>
      <trkpt lat="46.50157" lon="-1.41767">
        <ele>56.7</ele>
        <time>2021-09-21T08:36:11Z</time>
      </trkpt>
      <trkpt lat="46.50156" lon="-1.41766">
        <ele>56.7</ele>
        <time>2021-09-21T08:36:12Z</time>
      </trkpt>
      <trkpt lat="46.50155" lon="-1.41765">
        <ele>56.8</ele>
        <time>2021-09-21T08:36:13Z</time>
      </trkpt>
      <trkpt lat="46.50154" lon="-1.41765">
        <ele>56.8</ele>
        <time>2021-09-21T08:36:14Z</time>
      </trkpt>
      <trkpt lat="46.50153" lon="-1.41764">
        <ele>56.8</ele>
        <time>2021-09-21T08:36:15Z</time>
      </trkpt>
      <trkpt lat="46.50152" lon="-1.41763">
        <ele>56.9</ele>
        <time>2021-09-21T08:36:16Z</time>
      </trkpt>
      <trkpt lat="46.50151" lon="-1.41762">
        <ele>56.9</ele>
        <time>2021-09-21T08:36:17Z</time>
      </trkpt>
      <trkpt lat="46.50149" lon="-1.41761">
        <ele>56.9</ele>
        <time>2021-09-21T08:36:18Z</time>
      </trkpt>
      <trkpt lat="46.50148" lon="-1.4176">
        <ele>57</ele>
        <time>2021-09-21T08:36:19Z</time>
      </trkpt>
      <trkpt lat="46.50147" lon="-1.4176">
        <ele>57</ele>
        <time>2021-09-21T08:36:20Z</time>
      </trkpt>
      <trkpt lat="46.50146" lon="-1.41759">
        <ele>57</ele>
        <time>2021-09-21T08:36:21Z</time>
      </trkpt>
      <trkpt lat="46.50145" lon="-1.41758">
        <ele>57.1</ele>
        <time>2021-09-21T08:36:22Z</time>
      </trkpt>
      <trkpt lat="46.50143" lon="-1.41757">
        <ele>57.1</ele>
        <time>2021-09-21T08:36:23Z</time>
      </trkpt>
      <trkpt lat="46.50142" lon="-1.41756">
        <ele>57.1</ele>
        <time>2021-09-21T08:36:24Z</time>
      </trkpt>
      <trkpt lat="46.50141" lon="-1.41755">
        <ele>57.1</ele>
        <time>2021-09-21T08:36:25Z</time>
      </trkpt>
      <trkpt lat="46.5014" lon="-1.41754">
        <ele>57.2</ele>
        <time>2021-09-21T08:36:26Z</time>
      </trkpt>
      <trkpt lat="46.50138" lon="-1.41754">
        <ele>57.2</ele>
        <time>2021-09-21T08:36:27Z</time>
      </trkpt>
      <trkpt lat="46.50137" lon="-1.41753">
        <ele>57.2</ele>
        <time>2021-09-21T08:36:28Z</time>
      </trkpt>
      <trkpt lat="46.50136" lon="-1.41752">
        <ele>57.2</ele>
        <time>2021-09-21T08:36:29Z</time>
      </trkpt>
      <trkpt lat="46.50135" lon="-1.41751">
        <ele>57.2</ele>
        <time>2021-09-21T08:36:30Z</time>
      </trkpt>
      <trkpt lat="46.50133" lon="-1.4175">
        <ele>57.2</ele>
        <time>2021-09-21T08:36:31Z</time>
      </trkpt>
      <trkpt lat="46.50132" lon="-1.41749">
        <ele>57.2</ele>
        <time>2021-09-21T08:36:32Z</time>
      </trkpt>
      <trkpt lat="46.50131" lon="-1.41749">
        <ele>57.2</ele>
        <time>2021-09-21T08:36:33Z</time>
      </trkpt>
      <trkpt lat="46.5013" lon="-1.41748">
        <ele>57.2</ele>
        <time>2021-09-21T08:36:34Z</time>
      </trkpt>
      <trkpt lat="46.50129" lon="-1.41747">
        <ele>57.2</ele>
        <time>2021-09-21T08:36:35Z</time>
      </trkpt>
      <trkpt lat="46.50128" lon="-1.41746">
        <ele>57.2</ele>
        <time>2021-09-21T08:36:36Z</time>
      </trkpt>
      <trkpt lat="46.50127" lon="-1.41746">
        <ele>57.2</ele>
        <time>2021-09-21T08:36:37Z</time>
      </trkpt>
      <trkpt lat="46.50125" lon="-1.41745">
        <ele>57.2</ele>
        <time>2021-09-21T08:36:38Z</time>
      </trkpt>
      <trkpt lat="46.50124" lon="-1.41744">
        <ele>57.2</ele>
        <time>2021-09-21T08:36:39Z</time>
      </trkpt>
      <trkpt lat="46.50123" lon="-1.41743">
        <ele>57.2</ele>
        <time>2021-09-21T08:36:40Z</time>
      </trkpt>
      <trkpt lat="46.50122" lon="-1.41743">
        <ele>57.2</ele>
        <time>2021-09-21T08:36:41Z</time>
      </trkpt>
      <trkpt lat="46.50121" lon="-1.41742">
        <ele>57.2</ele>
        <time>2021-09-21T08:36:42Z</time>
      </trkpt>
      <trkpt lat="46.5012" lon="-1.41741">
        <ele>57.2</ele>
        <time>2021-09-21T08:36:43Z</time>
      </trkpt>
      <trkpt lat="46.50119" lon="-1.4174">
        <ele>57.2</ele>
        <time>2021-09-21T08:36:44Z</time>
      </trkpt>
      <trkpt lat="46.50118" lon="-1.41739">
        <ele>57.2</ele>
        <time>2021-09-21T08:36:45Z</time>
      </trkpt>
      <trkpt lat="46.50117" lon="-1.41739">
        <ele>57.1</ele>
        <time>2021-09-21T08:36:46Z</time>
      </trkpt>
      <trkpt lat="46.50116" lon="-1.41738">
        <ele>57.1</ele>
        <time>2021-09-21T08:36:47Z</time>
      </trkpt>
      <trkpt lat="46.50115" lon="-1.41737">
        <ele>57.1</ele>
        <time>2021-09-21T08:36:48Z</time>
      </trkpt>
      <trkpt lat="46.50114" lon="-1.41736">
        <ele>57.1</ele>
        <time>2021-09-21T08:36:49Z</time>
      </trkpt>
      <trkpt lat="46.50113" lon="-1.41735">
        <ele>57.1</ele>
        <time>2021-09-21T08:36:50Z</time>
      </trkpt>
      <trkpt lat="46.50111" lon="-1.41734">
        <ele>57.1</ele>
        <time>2021-09-21T08:36:51Z</time>
      </trkpt>
      <trkpt lat="46.5011" lon="-1.41733">
        <ele>57.1</ele>
        <time>2021-09-21T08:36:52Z</time>
      </trkpt>
      <trkpt lat="46.50109" lon="-1.41733">
        <ele>57.1</ele>
        <time>2021-09-21T08:36:53Z</time>
      </trkpt>
      <trkpt lat="46.50108" lon="-1.41732">
        <ele>57.1</ele>
        <time>2021-09-21T08:36:54Z</time>
      </trkpt>
      <trkpt lat="46.50107" lon="-1.41731">
        <ele>57.1</ele>
        <time>2021-09-21T08:36:55Z</time>
      </trkpt>
      <trkpt lat="46.50105" lon="-1.4173">
        <ele>57.1</ele>
        <time>2021-09-21T08:36:56Z</time>
      </trkpt>
      <trkpt lat="46.50104" lon="-1.41729">
        <ele>57.1</ele>
        <time>2021-09-21T08:36:57Z</time>
      </trkpt>
      <trkpt lat="46.50103" lon="-1.41728">
        <ele>57.1</ele>
        <time>2021-09-21T08:36:58Z</time>
      </trkpt>
      <trkpt lat="46.50102" lon="-1.41727">
        <ele>57.1</ele>
        <time>2021-09-21T08:36:59Z</time>
      </trkpt>
      <trkpt lat="46.50101" lon="-1.41726">
        <ele>57.1</ele>
        <time>2021-09-21T08:37:00Z</time>
      </trkpt>
      <trkpt lat="46.50099" lon="-1.41725">
        <ele>57.1</ele>
        <time>2021-09-21T08:37:01Z</time>
      </trkpt>
      <trkpt lat="46.50098" lon="-1.41724">
        <ele>57.1</ele>
        <time>2021-09-21T08:37:02Z</time>
      </trkpt>
      <trkpt lat="46.50097" lon="-1.41723">
        <ele>57.1</ele>
        <time>2021-09-21T08:37:03Z</time>
      </trkpt>
      <trkpt lat="46.50096" lon="-1.41722">
        <ele>57.1</ele>
        <time>2021-09-21T08:37:04Z</time>
      </trkpt>
      <trkpt lat="46.50095" lon="-1.41721">
        <ele>57.1</ele>
        <time>2021-09-21T08:37:05Z</time>
      </trkpt>
      <trkpt lat="46.50094" lon="-1.4172">
        <ele>57.1</ele>
        <time>2021-09-21T08:37:06Z</time>
      </trkpt>
      <trkpt lat="46.50092" lon="-1.4172">
        <ele>57.1</ele>
        <time>2021-09-21T08:37:07Z</time>
      </trkpt>
      <trkpt lat="46.50091" lon="-1.41719">
        <ele>57</ele>
        <time>2021-09-21T08:37:08Z</time>
      </trkpt>
      <trkpt lat="46.5009" lon="-1.41718">
        <ele>57</ele>
        <time>2021-09-21T08:37:09Z</time>
      </trkpt>
      <trkpt lat="46.50089" lon="-1.41717">
        <ele>57</ele>
        <time>2021-09-21T08:37:10Z</time>
      </trkpt>
      <trkpt lat="46.50088" lon="-1.41716">
        <ele>57</ele>
        <time>2021-09-21T08:37:11Z</time>
      </trkpt>
      <trkpt lat="46.50087" lon="-1.41715">
        <ele>57</ele>
        <time>2021-09-21T08:37:12Z</time>
      </trkpt>
      <trkpt lat="46.50086" lon="-1.41714">
        <ele>57</ele>
        <time>2021-09-21T08:37:13Z</time>
      </trkpt>
      <trkpt lat="46.50084" lon="-1.41714">
        <ele>57</ele>
        <time>2021-09-21T08:37:14Z</time>
      </trkpt>
      <trkpt lat="46.50083" lon="-1.41713">
        <ele>57</ele>
        <time>2021-09-21T08:37:15Z</time>
      </trkpt>
      <trkpt lat="46.50082" lon="-1.41712">
        <ele>57</ele>
        <time>2021-09-21T08:37:16Z</time>
      </trkpt>
      <trkpt lat="46.50081" lon="-1.41711">
        <ele>57</ele>
        <time>2021-09-21T08:37:17Z</time>
      </trkpt>
      <trkpt lat="46.5008" lon="-1.4171">
        <ele>57</ele>
        <time>2021-09-21T08:37:18Z</time>
      </trkpt>
      <trkpt lat="46.50079" lon="-1.4171">
        <ele>57</ele>
        <time>2021-09-21T08:37:19Z</time>
      </trkpt>
      <trkpt lat="46.50077" lon="-1.41709">
        <ele>57</ele>
        <time>2021-09-21T08:37:20Z</time>
      </trkpt>
      <trkpt lat="46.50076" lon="-1.41708">
        <ele>57</ele>
        <time>2021-09-21T08:37:21Z</time>
      </trkpt>
      <trkpt lat="46.50075" lon="-1.41707">
        <ele>57</ele>
        <time>2021-09-21T08:37:22Z</time>
      </trkpt>
      <trkpt lat="46.50074" lon="-1.41707">
        <ele>57</ele>
        <time>2021-09-21T08:37:23Z</time>
      </trkpt>
      <trkpt lat="46.50073" lon="-1.41706">
        <ele>57</ele>
        <time>2021-09-21T08:37:24Z</time>
      </trkpt>
      <trkpt lat="46.50071" lon="-1.41705">
        <ele>57</ele>
        <time>2021-09-21T08:37:25Z</time>
      </trkpt>
      <trkpt lat="46.5007" lon="-1.41704">
        <ele>57</ele>
        <time>2021-09-21T08:37:26Z</time>
      </trkpt>
      <trkpt lat="46.50069" lon="-1.41704">
        <ele>57</ele>
        <time>2021-09-21T08:37:27Z</time>
      </trkpt>
      <trkpt lat="46.50068" lon="-1.41703">
        <ele>57</ele>
        <time>2021-09-21T08:37:28Z</time>
      </trkpt>
      <trkpt lat="46.50067" lon="-1.41702">
        <ele>56.9</ele>
        <time>2021-09-21T08:37:29Z</time>
      </trkpt>
      <trkpt lat="46.50065" lon="-1.41701">
        <ele>56.9</ele>
        <time>2021-09-21T08:37:30Z</time>
      </trkpt>
      <trkpt lat="46.50064" lon="-1.41701">
        <ele>56.9</ele>
        <time>2021-09-21T08:37:31Z</time>
      </trkpt>
      <trkpt lat="46.50063" lon="-1.417">
        <ele>56.9</ele>
        <time>2021-09-21T08:37:32Z</time>
      </trkpt>
      <trkpt lat="46.50062" lon="-1.41699">
        <ele>56.9</ele>
        <time>2021-09-21T08:37:33Z</time>
      </trkpt>
      <trkpt lat="46.50061" lon="-1.41698">
        <ele>56.9</ele>
        <time>2021-09-21T08:37:34Z</time>
      </trkpt>
      <trkpt lat="46.50059" lon="-1.41697">
        <ele>56.9</ele>
        <time>2021-09-21T08:37:35Z</time>
      </trkpt>
      <trkpt lat="46.50058" lon="-1.41696">
        <ele>56.9</ele>
        <time>2021-09-21T08:37:36Z</time>
      </trkpt>
      <trkpt lat="46.50057" lon="-1.41695">
        <ele>56.9</ele>
        <time>2021-09-21T08:37:37Z</time>
      </trkpt>
      <trkpt lat="46.50056" lon="-1.41694">
        <ele>56.9</ele>
        <time>2021-09-21T08:37:38Z</time>
      </trkpt>
      <trkpt lat="46.50055" lon="-1.41694">
        <ele>56.9</ele>
        <time>2021-09-21T08:37:39Z</time>
      </trkpt>
      <trkpt lat="46.50053" lon="-1.41693">
        <ele>56.9</ele>
        <time>2021-09-21T08:37:40Z</time>
      </trkpt>
      <trkpt lat="46.50052" lon="-1.41692">
        <ele>56.9</ele>
        <time>2021-09-21T08:37:41Z</time>
      </trkpt>
      <trkpt lat="46.50051" lon="-1.41691">
        <ele>56.9</ele>
        <time>2021-09-21T08:37:42Z</time>
      </trkpt>
      <trkpt lat="46.5005" lon="-1.4169">
        <ele>56.9</ele>
        <time>2021-09-21T08:37:43Z</time>
      </trkpt>
      <trkpt lat="46.50049" lon="-1.4169">
        <ele>56.9</ele>
        <time>2021-09-21T08:37:44Z</time>
      </trkpt>
      <trkpt lat="46.50047" lon="-1.41689">
        <ele>56.9</ele>
        <time>2021-09-21T08:37:45Z</time>
      </trkpt>
      <trkpt lat="46.50046" lon="-1.41688">
        <ele>56.9</ele>
        <time>2021-09-21T08:37:46Z</time>
      </trkpt>
      <trkpt lat="46.50045" lon="-1.41688">
        <ele>56.9</ele>
        <time>2021-09-21T08:37:47Z</time>
      </trkpt>
      <trkpt lat="46.50044" lon="-1.41688">
        <ele>56.9</ele>
        <time>2021-09-21T08:37:48Z</time>
      </trkpt>
      <trkpt lat="46.50043" lon="-1.41687">
        <ele>56.9</ele>
        <time>2021-09-21T08:37:49Z</time>
      </trkpt>
      <trkpt lat="46.50042" lon="-1.41687">
        <ele>56.9</ele>
        <time>2021-09-21T08:37:50Z</time>
      </trkpt>
      <trkpt lat="46.5004" lon="-1.41686">
        <ele>56.9</ele>
        <time>2021-09-21T08:37:51Z</time>
      </trkpt>
      <trkpt lat="46.50039" lon="-1.41686">
        <ele>56.9</ele>
        <time>2021-09-21T08:37:52Z</time>
      </trkpt>
      <trkpt lat="46.50038" lon="-1.41686">
        <ele>56.9</ele>
        <time>2021-09-21T08:37:53Z</time>
      </trkpt>
      <trkpt lat="46.50037" lon="-1.41685">
        <ele>56.9</ele>
        <time>2021-09-21T08:37:54Z</time>
      </trkpt>
      <trkpt lat="46.50036" lon="-1.41685">
        <ele>56.9</ele>
        <time>2021-09-21T08:37:55Z</time>
      </trkpt>
      <trkpt lat="46.50035" lon="-1.41684">
        <ele>56.9</ele>
        <time>2021-09-21T08:37:56Z</time>
      </trkpt>
      <trkpt lat="46.50034" lon="-1.41683">
        <ele>56.9</ele>
        <time>2021-09-21T08:37:57Z</time>
      </trkpt>
      <trkpt lat="46.50033" lon="-1.41682">
        <ele>56.9</ele>
        <time>2021-09-21T08:37:58Z</time>
      </trkpt>
      <trkpt lat="46.50032" lon="-1.41681">
        <ele>56.9</ele>
        <time>2021-09-21T08:37:59Z</time>
      </trkpt>
      <trkpt lat="46.50031" lon="-1.4168">
        <ele>56.9</ele>
        <time>2021-09-21T08:38:00Z</time>
      </trkpt>
      <trkpt lat="46.50031" lon="-1.41679">
        <ele>56.9</ele>
        <time>2021-09-21T08:38:01Z</time>
      </trkpt>
      <trkpt lat="46.50029" lon="-1.41678">
        <ele>56.9</ele>
        <time>2021-09-21T08:38:02Z</time>
      </trkpt>
      <trkpt lat="46.50028" lon="-1.41678">
        <ele>56.8</ele>
        <time>2021-09-21T08:38:03Z</time>
      </trkpt>
      <trkpt lat="46.50027" lon="-1.41677">
        <ele>56.8</ele>
        <time>2021-09-21T08:38:04Z</time>
      </trkpt>
      <trkpt lat="46.50026" lon="-1.41676">
        <ele>56.8</ele>
        <time>2021-09-21T08:38:05Z</time>
      </trkpt>
      <trkpt lat="46.50025" lon="-1.41676">
        <ele>56.8</ele>
        <time>2021-09-21T08:38:06Z</time>
      </trkpt>
      <trkpt lat="46.50024" lon="-1.41676">
        <ele>56.8</ele>
        <time>2021-09-21T08:38:07Z</time>
      </trkpt>
      <trkpt lat="46.50023" lon="-1.41677">
        <ele>56.8</ele>
        <time>2021-09-21T08:38:08Z</time>
      </trkpt>
      <trkpt lat="46.50021" lon="-1.41678">
        <ele>56.8</ele>
        <time>2021-09-21T08:38:09Z</time>
      </trkpt>
      <trkpt lat="46.50021" lon="-1.41679">
        <ele>56.7</ele>
        <time>2021-09-21T08:38:10Z</time>
      </trkpt>
      <trkpt lat="46.5002" lon="-1.4168">
        <ele>56.7</ele>
        <time>2021-09-21T08:38:11Z</time>
      </trkpt>
      <trkpt lat="46.50019" lon="-1.41681">
        <ele>56.7</ele>
        <time>2021-09-21T08:38:12Z</time>
      </trkpt>
      <trkpt lat="46.50019" lon="-1.41682">
        <ele>56.7</ele>
        <time>2021-09-21T08:38:13Z</time>
      </trkpt>
      <trkpt lat="46.50018" lon="-1.41683">
        <ele>56.7</ele>
        <time>2021-09-21T08:38:14Z</time>
      </trkpt>
      <trkpt lat="46.50018" lon="-1.41684">
        <ele>56.7</ele>
        <time>2021-09-21T08:38:15Z</time>
      </trkpt>
      <trkpt lat="46.50018" lon="-1.41685">
        <ele>56.7</ele>
        <time>2021-09-21T08:38:16Z</time>
      </trkpt>
      <trkpt lat="46.50018" lon="-1.41685">
        <ele>56.7</ele>
        <time>2021-09-21T08:38:17Z</time>
      </trkpt>
      <trkpt lat="46.50018" lon="-1.41685">
        <ele>56.7</ele>
        <time>2021-09-21T08:38:18Z</time>
      </trkpt>
      <trkpt lat="46.50019" lon="-1.41685">
        <ele>56.7</ele>
        <time>2021-09-21T08:38:19Z</time>
      </trkpt>
      <trkpt lat="46.50019" lon="-1.41684">
        <ele>56.7</ele>
        <time>2021-09-21T08:38:20Z</time>
      </trkpt>
      <trkpt lat="46.50019" lon="-1.41683">
        <ele>56.7</ele>
        <time>2021-09-21T08:38:21Z</time>
      </trkpt>
      <trkpt lat="46.5002" lon="-1.41682">
        <ele>56.7</ele>
        <time>2021-09-21T08:38:22Z</time>
      </trkpt>
      <trkpt lat="46.5002" lon="-1.41681">
        <ele>56.7</ele>
        <time>2021-09-21T08:38:23Z</time>
      </trkpt>
      <trkpt lat="46.50021" lon="-1.4168">
        <ele>56.7</ele>
        <time>2021-09-21T08:38:24Z</time>
      </trkpt>
      <trkpt lat="46.50022" lon="-1.41678">
        <ele>56.7</ele>
        <time>2021-09-21T08:38:25Z</time>
      </trkpt>
      <trkpt lat="46.50022" lon="-1.41677">
        <ele>56.6</ele>
        <time>2021-09-21T08:38:26Z</time>
      </trkpt>
      <trkpt lat="46.50023" lon="-1.41675">
        <ele>56.6</ele>
        <time>2021-09-21T08:38:27Z</time>
      </trkpt>
      <trkpt lat="46.50023" lon="-1.41673">
        <ele>56.6</ele>
        <time>2021-09-21T08:38:28Z</time>
      </trkpt>
      <trkpt lat="46.50023" lon="-1.41672">
        <ele>56.6</ele>
        <time>2021-09-21T08:38:29Z</time>
      </trkpt>
      <trkpt lat="46.50024" lon="-1.4167">
        <ele>56.6</ele>
        <time>2021-09-21T08:38:30Z</time>
      </trkpt>
      <trkpt lat="46.50024" lon="-1.41669">
        <ele>56.6</ele>
        <time>2021-09-21T08:38:31Z</time>
      </trkpt>
      <trkpt lat="46.50024" lon="-1.4167">
        <ele>56.5</ele>
        <time>2021-09-21T08:38:32Z</time>
      </trkpt>
      <trkpt lat="46.50024" lon="-1.4167">
        <ele>56.5</ele>
        <time>2021-09-21T08:38:33Z</time>
      </trkpt>
      <trkpt lat="46.50024" lon="-1.4167">
        <ele>56.5</ele>
        <time>2021-09-21T08:38:34Z</time>
      </trkpt>
      <trkpt lat="46.50023" lon="-1.41671">
        <ele>56.5</ele>
        <time>2021-09-21T08:38:35Z</time>
      </trkpt>
      <trkpt lat="46.50023" lon="-1.41671">
        <ele>56.5</ele>
        <time>2021-09-21T08:38:36Z</time>
      </trkpt>
      <trkpt lat="46.50023" lon="-1.41671">
        <ele>56.5</ele>
        <time>2021-09-21T08:38:37Z</time>
      </trkpt>
      <trkpt lat="46.50023" lon="-1.41671">
        <ele>56.5</ele>
        <time>2021-09-21T08:38:38Z</time>
      </trkpt>
      <trkpt lat="46.50023" lon="-1.41672">
        <ele>56.5</ele>
        <time>2021-09-21T08:38:39Z</time>
      </trkpt>
      <trkpt lat="46.50023" lon="-1.41672">
        <ele>56.5</ele>
        <time>2021-09-21T08:38:40Z</time>
      </trkpt>
      <trkpt lat="46.50022" lon="-1.41672">
        <ele>56.5</ele>
        <time>2021-09-21T08:38:41Z</time>
      </trkpt>
      <trkpt lat="46.50022" lon="-1.41673">
        <ele>56.5</ele>
        <time>2021-09-21T08:38:42Z</time>
      </trkpt>
      <trkpt lat="46.50022" lon="-1.41673">
        <ele>56.5</ele>
        <time>2021-09-21T08:38:43Z</time>
      </trkpt>
      <trkpt lat="46.50022" lon="-1.41673">
        <ele>56.5</ele>
        <time>2021-09-21T08:38:44Z</time>
      </trkpt>
      <trkpt lat="46.50022" lon="-1.41674">
        <ele>56.5</ele>
        <time>2021-09-21T08:38:45Z</time>
      </trkpt>
      <trkpt lat="46.50022" lon="-1.41674">
        <ele>56.5</ele>
        <time>2021-09-21T08:38:46Z</time>
      </trkpt>
      <trkpt lat="46.50021" lon="-1.41674">
        <ele>56.5</ele>
        <time>2021-09-21T08:38:47Z</time>
      </trkpt>
      <trkpt lat="46.50021" lon="-1.41675">
        <ele>56.5</ele>
        <time>2021-09-21T08:38:48Z</time>
      </trkpt>
      <trkpt lat="46.50021" lon="-1.41675">
        <ele>56.5</ele>
        <time>2021-09-21T08:38:49Z</time>
      </trkpt>
      <trkpt lat="46.50021" lon="-1.41675">
        <ele>56.5</ele>
        <time>2021-09-21T08:38:50Z</time>
      </trkpt>
      <trkpt lat="46.50021" lon="-1.41676">
        <ele>56.4</ele>
        <time>2021-09-21T08:38:51Z</time>
      </trkpt>
      <trkpt lat="46.50021" lon="-1.41676">
        <ele>56.4</ele>
        <time>2021-09-21T08:38:52Z</time>
      </trkpt>
      <trkpt lat="46.5002" lon="-1.41676">
        <ele>56.4</ele>
        <time>2021-09-21T08:38:53Z</time>
      </trkpt>
      <trkpt lat="46.5002" lon="-1.41676">
        <ele>56.4</ele>
        <time>2021-09-21T08:38:54Z</time>
      </trkpt>
      <trkpt lat="46.5002" lon="-1.41677">
        <ele>56.4</ele>
        <time>2021-09-21T08:38:55Z</time>
      </trkpt>
      <trkpt lat="46.5002" lon="-1.41677">
        <ele>56.4</ele>
        <time>2021-09-21T08:38:56Z</time>
      </trkpt>
      <trkpt lat="46.5002" lon="-1.41677">
        <ele>56.4</ele>
        <time>2021-09-21T08:38:57Z</time>
      </trkpt>
      <trkpt lat="46.5002" lon="-1.41678">
        <ele>56.4</ele>
        <time>2021-09-21T08:38:58Z</time>
      </trkpt>
      <trkpt lat="46.50019" lon="-1.41678">
        <ele>56.4</ele>
        <time>2021-09-21T08:38:59Z</time>
      </trkpt>
      <trkpt lat="46.50019" lon="-1.41678">
        <ele>56.4</ele>
        <time>2021-09-21T08:39:00Z</time>
      </trkpt>
      <trkpt lat="46.50019" lon="-1.41679">
        <ele>56.4</ele>
        <time>2021-09-21T08:39:01Z</time>
      </trkpt>
      <trkpt lat="46.50019" lon="-1.41679">
        <ele>56.4</ele>
        <time>2021-09-21T08:39:02Z</time>
      </trkpt>
      <trkpt lat="46.50019" lon="-1.41679">
        <ele>56.4</ele>
        <time>2021-09-21T08:39:03Z</time>
      </trkpt>
      <trkpt lat="46.50019" lon="-1.4168">
        <ele>56.4</ele>
        <time>2021-09-21T08:39:04Z</time>
      </trkpt>
      <trkpt lat="46.50019" lon="-1.4168">
        <ele>56.4</ele>
        <time>2021-09-21T08:39:05Z</time>
      </trkpt>
      <trkpt lat="46.50018" lon="-1.4168">
        <ele>56.4</ele>
        <time>2021-09-21T08:39:06Z</time>
      </trkpt>
      <trkpt lat="46.50018" lon="-1.41681">
        <ele>56.4</ele>
        <time>2021-09-21T08:39:07Z</time>
      </trkpt>
      <trkpt lat="46.50018" lon="-1.41681">
        <ele>56.4</ele>
        <time>2021-09-21T08:39:08Z</time>
      </trkpt>
      <trkpt lat="46.50018" lon="-1.41681">
        <ele>56.3</ele>
        <time>2021-09-21T08:39:09Z</time>
      </trkpt>
      <trkpt lat="46.50017" lon="-1.41683">
        <ele>56.3</ele>
        <time>2021-09-21T08:39:10Z</time>
      </trkpt>
      <trkpt lat="46.50016" lon="-1.41684">
        <ele>56.3</ele>
        <time>2021-09-21T08:39:11Z</time>
      </trkpt>
      <trkpt lat="46.50015" lon="-1.41686">
        <ele>56.3</ele>
        <time>2021-09-21T08:39:12Z</time>
      </trkpt>
      <trkpt lat="46.50014" lon="-1.41687">
        <ele>56.2</ele>
        <time>2021-09-21T08:39:13Z</time>
      </trkpt>
      <trkpt lat="46.50014" lon="-1.41689">
        <ele>56.2</ele>
        <time>2021-09-21T08:39:14Z</time>
      </trkpt>
      <trkpt lat="46.50013" lon="-1.41691">
        <ele>56.2</ele>
        <time>2021-09-21T08:39:15Z</time>
      </trkpt>
      <trkpt lat="46.50012" lon="-1.41692">
        <ele>56.2</ele>
        <time>2021-09-21T08:39:16Z</time>
      </trkpt>
      <trkpt lat="46.50011" lon="-1.41694">
        <ele>56.1</ele>
        <time>2021-09-21T08:39:17Z</time>
      </trkpt>
      <trkpt lat="46.50011" lon="-1.41696">
        <ele>56.1</ele>
        <time>2021-09-21T08:39:18Z</time>
      </trkpt>
      <trkpt lat="46.5001" lon="-1.41697">
        <ele>56.1</ele>
        <time>2021-09-21T08:39:19Z</time>
      </trkpt>
      <trkpt lat="46.50009" lon="-1.41699">
        <ele>56.1</ele>
        <time>2021-09-21T08:39:20Z</time>
      </trkpt>
      <trkpt lat="46.50008" lon="-1.417">
        <ele>56</ele>
        <time>2021-09-21T08:39:21Z</time>
      </trkpt>
      <trkpt lat="46.50007" lon="-1.41702">
        <ele>56</ele>
        <time>2021-09-21T08:39:22Z</time>
      </trkpt>
      <trkpt lat="46.50006" lon="-1.41703">
        <ele>56</ele>
        <time>2021-09-21T08:39:23Z</time>
      </trkpt>
      <trkpt lat="46.50005" lon="-1.41704">
        <ele>56</ele>
        <time>2021-09-21T08:39:24Z</time>
      </trkpt>
      <trkpt lat="46.50005" lon="-1.41706">
        <ele>56</ele>
        <time>2021-09-21T08:39:25Z</time>
      </trkpt>
      <trkpt lat="46.50004" lon="-1.41707">
        <ele>56</ele>
        <time>2021-09-21T08:39:26Z</time>
      </trkpt>
      <trkpt lat="46.50003" lon="-1.41708">
        <ele>55.9</ele>
        <time>2021-09-21T08:39:27Z</time>
      </trkpt>
      <trkpt lat="46.50002" lon="-1.4171">
        <ele>55.9</ele>
        <time>2021-09-21T08:39:28Z</time>
      </trkpt>
      <trkpt lat="46.50001" lon="-1.41711">
        <ele>55.9</ele>
        <time>2021-09-21T08:39:29Z</time>
      </trkpt>
      <trkpt lat="46.5" lon="-1.41712">
        <ele>55.9</ele>
        <time>2021-09-21T08:39:30Z</time>
      </trkpt>
      <trkpt lat="46.5" lon="-1.41714">
        <ele>55.9</ele>
        <time>2021-09-21T08:39:31Z</time>
      </trkpt>
      <trkpt lat="46.49999" lon="-1.41715">
        <ele>55.9</ele>
        <time>2021-09-21T08:39:32Z</time>
      </trkpt>
      <trkpt lat="46.49998" lon="-1.41717">
        <ele>55.8</ele>
        <time>2021-09-21T08:39:33Z</time>
      </trkpt>
      <trkpt lat="46.49998" lon="-1.41718">
        <ele>55.8</ele>
        <time>2021-09-21T08:39:34Z</time>
      </trkpt>
      <trkpt lat="46.49997" lon="-1.4172">
        <ele>55.8</ele>
        <time>2021-09-21T08:39:35Z</time>
      </trkpt>
      <trkpt lat="46.49996" lon="-1.41721">
        <ele>55.8</ele>
        <time>2021-09-21T08:39:36Z</time>
      </trkpt>
      <trkpt lat="46.49996" lon="-1.41723">
        <ele>55.8</ele>
        <time>2021-09-21T08:39:37Z</time>
      </trkpt>
      <trkpt lat="46.49995" lon="-1.41725">
        <ele>55.8</ele>
        <time>2021-09-21T08:39:38Z</time>
      </trkpt>
      <trkpt lat="46.49994" lon="-1.41726">
        <ele>55.7</ele>
        <time>2021-09-21T08:39:39Z</time>
      </trkpt>
      <trkpt lat="46.49994" lon="-1.41728">
        <ele>55.7</ele>
        <time>2021-09-21T08:39:40Z</time>
      </trkpt>
      <trkpt lat="46.49993" lon="-1.41729">
        <ele>55.7</ele>
        <time>2021-09-21T08:39:41Z</time>
      </trkpt>
      <trkpt lat="46.49992" lon="-1.41731">
        <ele>55.7</ele>
        <time>2021-09-21T08:39:42Z</time>
      </trkpt>
      <trkpt lat="46.49991" lon="-1.41732">
        <ele>55.7</ele>
        <time>2021-09-21T08:39:43Z</time>
      </trkpt>
      <trkpt lat="46.4999" lon="-1.41734">
        <ele>55.6</ele>
        <time>2021-09-21T08:39:44Z</time>
      </trkpt>
      <trkpt lat="46.4999" lon="-1.41735">
        <ele>55.6</ele>
        <time>2021-09-21T08:39:45Z</time>
      </trkpt>
      <trkpt lat="46.49989" lon="-1.41737">
        <ele>55.6</ele>
        <time>2021-09-21T08:39:46Z</time>
      </trkpt>
      <trkpt lat="46.49988" lon="-1.41738">
        <ele>55.6</ele>
        <time>2021-09-21T08:39:47Z</time>
      </trkpt>
      <trkpt lat="46.49987" lon="-1.4174">
        <ele>55.6</ele>
        <time>2021-09-21T08:39:48Z</time>
      </trkpt>
      <trkpt lat="46.49987" lon="-1.41741">
        <ele>55.5</ele>
        <time>2021-09-21T08:39:49Z</time>
      </trkpt>
      <trkpt lat="46.49986" lon="-1.41742">
        <ele>55.5</ele>
        <time>2021-09-21T08:39:50Z</time>
      </trkpt>
      <trkpt lat="46.49985" lon="-1.41744">
        <ele>55.5</ele>
        <time>2021-09-21T08:39:51Z</time>
      </trkpt>
      <trkpt lat="46.49984" lon="-1.41745">
        <ele>55.5</ele>
        <time>2021-09-21T08:39:52Z</time>
      </trkpt>
      <trkpt lat="46.49983" lon="-1.41747">
        <ele>55.5</ele>
        <time>2021-09-21T08:39:53Z</time>
      </trkpt>
      <trkpt lat="46.49982" lon="-1.41748">
        <ele>55.4</ele>
        <time>2021-09-21T08:39:54Z</time>
      </trkpt>
      <trkpt lat="46.49981" lon="-1.4175">
        <ele>55.4</ele>
        <time>2021-09-21T08:39:55Z</time>
      </trkpt>
      <trkpt lat="46.4998" lon="-1.41751">
        <ele>55.3</ele>
        <time>2021-09-21T08:39:56Z</time>
      </trkpt>
      <trkpt lat="46.49979" lon="-1.41753">
        <ele>55.3</ele>
        <time>2021-09-21T08:39:57Z</time>
      </trkpt>
      <trkpt lat="46.49978" lon="-1.41755">
        <ele>55.2</ele>
        <time>2021-09-21T08:39:58Z</time>
      </trkpt>
      <trkpt lat="46.49976" lon="-1.41757">
        <ele>55.1</ele>
        <time>2021-09-21T08:39:59Z</time>
      </trkpt>
      <trkpt lat="46.49975" lon="-1.41758">
        <ele>55.1</ele>
        <time>2021-09-21T08:40:00Z</time>
      </trkpt>
      <trkpt lat="46.49974" lon="-1.4176">
        <ele>55</ele>
        <time>2021-09-21T08:40:01Z</time>
      </trkpt>
      <trkpt lat="46.49972" lon="-1.41762">
        <ele>54.9</ele>
        <time>2021-09-21T08:40:02Z</time>
      </trkpt>
      <trkpt lat="46.49971" lon="-1.41764">
        <ele>54.9</ele>
        <time>2021-09-21T08:40:03Z</time>
      </trkpt>
      <trkpt lat="46.4997" lon="-1.41765">
        <ele>54.8</ele>
        <time>2021-09-21T08:40:04Z</time>
      </trkpt>
      <trkpt lat="46.49969" lon="-1.41767">
        <ele>54.7</ele>
        <time>2021-09-21T08:40:05Z</time>
      </trkpt>
      <trkpt lat="46.49968" lon="-1.41768">
        <ele>54.7</ele>
        <time>2021-09-21T08:40:06Z</time>
      </trkpt>
      <trkpt lat="46.49967" lon="-1.4177">
        <ele>54.6</ele>
        <time>2021-09-21T08:40:07Z</time>
      </trkpt>
      <trkpt lat="46.49966" lon="-1.41771">
        <ele>54.6</ele>
        <time>2021-09-21T08:40:08Z</time>
      </trkpt>
      <trkpt lat="46.49965" lon="-1.41773">
        <ele>54.5</ele>
        <time>2021-09-21T08:40:09Z</time>
      </trkpt>
      <trkpt lat="46.49964" lon="-1.41774">
        <ele>54.5</ele>
        <time>2021-09-21T08:40:10Z</time>
      </trkpt>
      <trkpt lat="46.49963" lon="-1.41776">
        <ele>54.4</ele>
        <time>2021-09-21T08:40:11Z</time>
      </trkpt>
      <trkpt lat="46.49963" lon="-1.41777">
        <ele>54.4</ele>
        <time>2021-09-21T08:40:12Z</time>
      </trkpt>
      <trkpt lat="46.49962" lon="-1.41779">
        <ele>54.3</ele>
        <time>2021-09-21T08:40:13Z</time>
      </trkpt>
      <trkpt lat="46.49961" lon="-1.4178">
        <ele>54.3</ele>
        <time>2021-09-21T08:40:14Z</time>
      </trkpt>
      <trkpt lat="46.49961" lon="-1.41781">
        <ele>54.2</ele>
        <time>2021-09-21T08:40:15Z</time>
      </trkpt>
      <trkpt lat="46.4996" lon="-1.41783">
        <ele>54.2</ele>
        <time>2021-09-21T08:40:16Z</time>
      </trkpt>
      <trkpt lat="46.49959" lon="-1.41784">
        <ele>54.1</ele>
        <time>2021-09-21T08:40:17Z</time>
      </trkpt>
      <trkpt lat="46.49958" lon="-1.41786">
        <ele>54.1</ele>
        <time>2021-09-21T08:40:18Z</time>
      </trkpt>
      <trkpt lat="46.49958" lon="-1.41787">
        <ele>54</ele>
        <time>2021-09-21T08:40:19Z</time>
      </trkpt>
      <trkpt lat="46.49957" lon="-1.41789">
        <ele>54</ele>
        <time>2021-09-21T08:40:20Z</time>
      </trkpt>
      <trkpt lat="46.49956" lon="-1.41791">
        <ele>53.9</ele>
        <time>2021-09-21T08:40:21Z</time>
      </trkpt>
      <trkpt lat="46.49955" lon="-1.41792">
        <ele>53.9</ele>
        <time>2021-09-21T08:40:22Z</time>
      </trkpt>
      <trkpt lat="46.49955" lon="-1.41794">
        <ele>53.8</ele>
        <time>2021-09-21T08:40:23Z</time>
      </trkpt>
      <trkpt lat="46.49954" lon="-1.41795">
        <ele>53.8</ele>
        <time>2021-09-21T08:40:24Z</time>
      </trkpt>
      <trkpt lat="46.49953" lon="-1.41797">
        <ele>53.7</ele>
        <time>2021-09-21T08:40:25Z</time>
      </trkpt>
      <trkpt lat="46.49952" lon="-1.41798">
        <ele>53.7</ele>
        <time>2021-09-21T08:40:26Z</time>
      </trkpt>
      <trkpt lat="46.49951" lon="-1.418">
        <ele>53.6</ele>
        <time>2021-09-21T08:40:27Z</time>
      </trkpt>
      <trkpt lat="46.4995" lon="-1.41801">
        <ele>53.5</ele>
        <time>2021-09-21T08:40:28Z</time>
      </trkpt>
      <trkpt lat="46.4995" lon="-1.41803">
        <ele>53.5</ele>
        <time>2021-09-21T08:40:29Z</time>
      </trkpt>
      <trkpt lat="46.49949" lon="-1.41804">
        <ele>53.4</ele>
        <time>2021-09-21T08:40:30Z</time>
      </trkpt>
      <trkpt lat="46.49948" lon="-1.41806">
        <ele>53.3</ele>
        <time>2021-09-21T08:40:31Z</time>
      </trkpt>
      <trkpt lat="46.49947" lon="-1.41807">
        <ele>53.3</ele>
        <time>2021-09-21T08:40:32Z</time>
      </trkpt>
      <trkpt lat="46.49946" lon="-1.41809">
        <ele>53.2</ele>
        <time>2021-09-21T08:40:33Z</time>
      </trkpt>
      <trkpt lat="46.49945" lon="-1.4181">
        <ele>53.1</ele>
        <time>2021-09-21T08:40:34Z</time>
      </trkpt>
      <trkpt lat="46.49944" lon="-1.41812">
        <ele>53.1</ele>
        <time>2021-09-21T08:40:35Z</time>
      </trkpt>
      <trkpt lat="46.49943" lon="-1.41813">
        <ele>53</ele>
        <time>2021-09-21T08:40:36Z</time>
      </trkpt>
      <trkpt lat="46.49943" lon="-1.41815">
        <ele>52.9</ele>
        <time>2021-09-21T08:40:37Z</time>
      </trkpt>
      <trkpt lat="46.49942" lon="-1.41816">
        <ele>52.8</ele>
        <time>2021-09-21T08:40:38Z</time>
      </trkpt>
      <trkpt lat="46.49941" lon="-1.41818">
        <ele>52.8</ele>
        <time>2021-09-21T08:40:39Z</time>
      </trkpt>
      <trkpt lat="46.4994" lon="-1.41819">
        <ele>52.7</ele>
        <time>2021-09-21T08:40:40Z</time>
      </trkpt>
      <trkpt lat="46.49939" lon="-1.41821">
        <ele>52.6</ele>
        <time>2021-09-21T08:40:41Z</time>
      </trkpt>
      <trkpt lat="46.49939" lon="-1.41822">
        <ele>52.6</ele>
        <time>2021-09-21T08:40:42Z</time>
      </trkpt>
      <trkpt lat="46.49938" lon="-1.41823">
        <ele>52.5</ele>
        <time>2021-09-21T08:40:43Z</time>
      </trkpt>
      <trkpt lat="46.49937" lon="-1.41825">
        <ele>52.4</ele>
        <time>2021-09-21T08:40:44Z</time>
      </trkpt>
      <trkpt lat="46.49936" lon="-1.41826">
        <ele>52.3</ele>
        <time>2021-09-21T08:40:45Z</time>
      </trkpt>
      <trkpt lat="46.49935" lon="-1.41828">
        <ele>52.3</ele>
        <time>2021-09-21T08:40:46Z</time>
      </trkpt>
      <trkpt lat="46.49935" lon="-1.41829">
        <ele>52.2</ele>
        <time>2021-09-21T08:40:47Z</time>
      </trkpt>
      <trkpt lat="46.49934" lon="-1.4183">
        <ele>52.1</ele>
        <time>2021-09-21T08:40:48Z</time>
      </trkpt>
      <trkpt lat="46.49933" lon="-1.41832">
        <ele>52.1</ele>
        <time>2021-09-21T08:40:49Z</time>
      </trkpt>
      <trkpt lat="46.49932" lon="-1.41833">
        <ele>52</ele>
        <time>2021-09-21T08:40:50Z</time>
      </trkpt>
      <trkpt lat="46.49932" lon="-1.41834">
        <ele>51.9</ele>
        <time>2021-09-21T08:40:51Z</time>
      </trkpt>
      <trkpt lat="46.49931" lon="-1.41835">
        <ele>51.9</ele>
        <time>2021-09-21T08:40:52Z</time>
      </trkpt>
      <trkpt lat="46.4993" lon="-1.41837">
        <ele>51.8</ele>
        <time>2021-09-21T08:40:53Z</time>
      </trkpt>
      <trkpt lat="46.49929" lon="-1.41838">
        <ele>51.8</ele>
        <time>2021-09-21T08:40:54Z</time>
      </trkpt>
      <trkpt lat="46.49929" lon="-1.41839">
        <ele>51.7</ele>
        <time>2021-09-21T08:40:55Z</time>
      </trkpt>
      <trkpt lat="46.49928" lon="-1.4184">
        <ele>51.6</ele>
        <time>2021-09-21T08:40:56Z</time>
      </trkpt>
      <trkpt lat="46.49927" lon="-1.41842">
        <ele>51.6</ele>
        <time>2021-09-21T08:40:57Z</time>
      </trkpt>
      <trkpt lat="46.49927" lon="-1.41843">
        <ele>51.5</ele>
        <time>2021-09-21T08:40:58Z</time>
      </trkpt>
      <trkpt lat="46.49926" lon="-1.41845">
        <ele>51.4</ele>
        <time>2021-09-21T08:40:59Z</time>
      </trkpt>
      <trkpt lat="46.49925" lon="-1.41846">
        <ele>51.3</ele>
        <time>2021-09-21T08:41:00Z</time>
      </trkpt>
      <trkpt lat="46.49924" lon="-1.41848">
        <ele>51.3</ele>
        <time>2021-09-21T08:41:01Z</time>
      </trkpt>
      <trkpt lat="46.49924" lon="-1.4185">
        <ele>51.2</ele>
        <time>2021-09-21T08:41:02Z</time>
      </trkpt>
      <trkpt lat="46.49923" lon="-1.41851">
        <ele>51.1</ele>
        <time>2021-09-21T08:41:03Z</time>
      </trkpt>
      <trkpt lat="46.49922" lon="-1.41853">
        <ele>51</ele>
        <time>2021-09-21T08:41:04Z</time>
      </trkpt>
      <trkpt lat="46.49922" lon="-1.41855">
        <ele>51</ele>
        <time>2021-09-21T08:41:05Z</time>
      </trkpt>
      <trkpt lat="46.49921" lon="-1.41857">
        <ele>50.9</ele>
        <time>2021-09-21T08:41:06Z</time>
      </trkpt>
      <trkpt lat="46.4992" lon="-1.41859">
        <ele>50.8</ele>
        <time>2021-09-21T08:41:07Z</time>
      </trkpt>
      <trkpt lat="46.4992" lon="-1.41861">
        <ele>50.7</ele>
        <time>2021-09-21T08:41:08Z</time>
      </trkpt>
      <trkpt lat="46.4992" lon="-1.41863">
        <ele>50.6</ele>
        <time>2021-09-21T08:41:09Z</time>
      </trkpt>
      <trkpt lat="46.4992" lon="-1.41865">
        <ele>50.6</ele>
        <time>2021-09-21T08:41:10Z</time>
      </trkpt>
      <trkpt lat="46.4992" lon="-1.41867">
        <ele>50.5</ele>
        <time>2021-09-21T08:41:11Z</time>
      </trkpt>
      <trkpt lat="46.4992" lon="-1.4187">
        <ele>50.4</ele>
        <time>2021-09-21T08:41:12Z</time>
      </trkpt>
      <trkpt lat="46.4992" lon="-1.41871">
        <ele>50.3</ele>
        <time>2021-09-21T08:41:13Z</time>
      </trkpt>
      <trkpt lat="46.49921" lon="-1.41873">
        <ele>50.2</ele>
        <time>2021-09-21T08:41:14Z</time>
      </trkpt>
      <trkpt lat="46.49921" lon="-1.41874">
        <ele>50.2</ele>
        <time>2021-09-21T08:41:15Z</time>
      </trkpt>
      <trkpt lat="46.49921" lon="-1.41876">
        <ele>50.1</ele>
        <time>2021-09-21T08:41:16Z</time>
      </trkpt>
      <trkpt lat="46.49922" lon="-1.41877">
        <ele>50</ele>
        <time>2021-09-21T08:41:17Z</time>
      </trkpt>
      <trkpt lat="46.49922" lon="-1.41879">
        <ele>49.9</ele>
        <time>2021-09-21T08:41:18Z</time>
      </trkpt>
      <trkpt lat="46.49922" lon="-1.41881">
        <ele>49.8</ele>
        <time>2021-09-21T08:41:19Z</time>
      </trkpt>
      <trkpt lat="46.49923" lon="-1.41882">
        <ele>49.8</ele>
        <time>2021-09-21T08:41:20Z</time>
      </trkpt>
      <trkpt lat="46.49923" lon="-1.41884">
        <ele>49.7</ele>
        <time>2021-09-21T08:41:21Z</time>
      </trkpt>
      <trkpt lat="46.49924" lon="-1.41885">
        <ele>49.6</ele>
        <time>2021-09-21T08:41:22Z</time>
      </trkpt>
      <trkpt lat="46.49924" lon="-1.41887">
        <ele>49.5</ele>
        <time>2021-09-21T08:41:23Z</time>
      </trkpt>
      <trkpt lat="46.49925" lon="-1.41888">
        <ele>49.4</ele>
        <time>2021-09-21T08:41:24Z</time>
      </trkpt>
      <trkpt lat="46.49925" lon="-1.4189">
        <ele>49.3</ele>
        <time>2021-09-21T08:41:25Z</time>
      </trkpt>
      <trkpt lat="46.49926" lon="-1.41891">
        <ele>49.2</ele>
        <time>2021-09-21T08:41:26Z</time>
      </trkpt>
      <trkpt lat="46.49926" lon="-1.41893">
        <ele>49.1</ele>
        <time>2021-09-21T08:41:27Z</time>
      </trkpt>
      <trkpt lat="46.49927" lon="-1.41894">
        <ele>49</ele>
        <time>2021-09-21T08:41:28Z</time>
      </trkpt>
      <trkpt lat="46.49927" lon="-1.41896">
        <ele>48.9</ele>
        <time>2021-09-21T08:41:29Z</time>
      </trkpt>
      <trkpt lat="46.49928" lon="-1.41897">
        <ele>48.8</ele>
        <time>2021-09-21T08:41:30Z</time>
      </trkpt>
      <trkpt lat="46.49928" lon="-1.41899">
        <ele>48.7</ele>
        <time>2021-09-21T08:41:31Z</time>
      </trkpt>
      <trkpt lat="46.49928" lon="-1.419">
        <ele>48.6</ele>
        <time>2021-09-21T08:41:32Z</time>
      </trkpt>
      <trkpt lat="46.49929" lon="-1.41901">
        <ele>48.5</ele>
        <time>2021-09-21T08:41:33Z</time>
      </trkpt>
      <trkpt lat="46.49929" lon="-1.41903">
        <ele>48.4</ele>
        <time>2021-09-21T08:41:34Z</time>
      </trkpt>
      <trkpt lat="46.4993" lon="-1.41904">
        <ele>48.4</ele>
        <time>2021-09-21T08:41:35Z</time>
      </trkpt>
      <trkpt lat="46.4993" lon="-1.41905">
        <ele>48.3</ele>
        <time>2021-09-21T08:41:36Z</time>
      </trkpt>
      <trkpt lat="46.4993" lon="-1.41907">
        <ele>48.2</ele>
        <time>2021-09-21T08:41:37Z</time>
      </trkpt>
      <trkpt lat="46.49931" lon="-1.41908">
        <ele>48.1</ele>
        <time>2021-09-21T08:41:38Z</time>
      </trkpt>
      <trkpt lat="46.49931" lon="-1.41909">
        <ele>48</ele>
        <time>2021-09-21T08:41:39Z</time>
      </trkpt>
      <trkpt lat="46.49931" lon="-1.4191">
        <ele>47.9</ele>
        <time>2021-09-21T08:41:40Z</time>
      </trkpt>
      <trkpt lat="46.49932" lon="-1.41912">
        <ele>47.8</ele>
        <time>2021-09-21T08:41:41Z</time>
      </trkpt>
      <trkpt lat="46.49932" lon="-1.41913">
        <ele>47.7</ele>
        <time>2021-09-21T08:41:42Z</time>
      </trkpt>
      <trkpt lat="46.49932" lon="-1.41914">
        <ele>47.7</ele>
        <time>2021-09-21T08:41:43Z</time>
      </trkpt>
      <trkpt lat="46.49932" lon="-1.41916">
        <ele>47.6</ele>
        <time>2021-09-21T08:41:44Z</time>
      </trkpt>
      <trkpt lat="46.49932" lon="-1.41917">
        <ele>47.5</ele>
        <time>2021-09-21T08:41:45Z</time>
      </trkpt>
      <trkpt lat="46.49933" lon="-1.41918">
        <ele>47.4</ele>
        <time>2021-09-21T08:41:46Z</time>
      </trkpt>
      <trkpt lat="46.49933" lon="-1.4192">
        <ele>47.3</ele>
        <time>2021-09-21T08:41:47Z</time>
      </trkpt>
      <trkpt lat="46.49933" lon="-1.41921">
        <ele>47.3</ele>
        <time>2021-09-21T08:41:48Z</time>
      </trkpt>
      <trkpt lat="46.49933" lon="-1.41922">
        <ele>47.2</ele>
        <time>2021-09-21T08:41:49Z</time>
      </trkpt>
      <trkpt lat="46.49933" lon="-1.41924">
        <ele>47.1</ele>
        <time>2021-09-21T08:41:50Z</time>
      </trkpt>
      <trkpt lat="46.49933" lon="-1.41925">
        <ele>47.1</ele>
        <time>2021-09-21T08:41:51Z</time>
      </trkpt>
      <trkpt lat="46.49933" lon="-1.41926">
        <ele>47</ele>
        <time>2021-09-21T08:41:52Z</time>
      </trkpt>
      <trkpt lat="46.49933" lon="-1.41927">
        <ele>46.9</ele>
        <time>2021-09-21T08:41:53Z</time>
      </trkpt>
      <trkpt lat="46.49933" lon="-1.41928">
        <ele>46.9</ele>
        <time>2021-09-21T08:41:54Z</time>
      </trkpt>
      <trkpt lat="46.49933" lon="-1.41929">
        <ele>46.8</ele>
        <time>2021-09-21T08:41:55Z</time>
      </trkpt>
      <trkpt lat="46.49933" lon="-1.4193">
        <ele>46.8</ele>
        <time>2021-09-21T08:41:56Z</time>
      </trkpt>
      <trkpt lat="46.49933" lon="-1.41931">
        <ele>46.8</ele>
        <time>2021-09-21T08:41:57Z</time>
      </trkpt>
      <trkpt lat="46.49932" lon="-1.41932">
        <ele>46.7</ele>
        <time>2021-09-21T08:41:58Z</time>
      </trkpt>
      <trkpt lat="46.49932" lon="-1.41933">
        <ele>46.7</ele>
        <time>2021-09-21T08:41:59Z</time>
      </trkpt>
      <trkpt lat="46.49932" lon="-1.41933">
        <ele>46.7</ele>
        <time>2021-09-21T08:42:00Z</time>
      </trkpt>
      <trkpt lat="46.49931" lon="-1.41934">
        <ele>46.6</ele>
        <time>2021-09-21T08:42:01Z</time>
      </trkpt>
      <trkpt lat="46.49931" lon="-1.41935">
        <ele>46.6</ele>
        <time>2021-09-21T08:42:02Z</time>
      </trkpt>
      <trkpt lat="46.4993" lon="-1.41936">
        <ele>46.5</ele>
        <time>2021-09-21T08:42:03Z</time>
      </trkpt>
      <trkpt lat="46.4993" lon="-1.41937">
        <ele>46.5</ele>
        <time>2021-09-21T08:42:04Z</time>
      </trkpt>
      <trkpt lat="46.49929" lon="-1.41938">
        <ele>46.5</ele>
        <time>2021-09-21T08:42:05Z</time>
      </trkpt>
      <trkpt lat="46.49929" lon="-1.41939">
        <ele>46.4</ele>
        <time>2021-09-21T08:42:06Z</time>
      </trkpt>
      <trkpt lat="46.49928" lon="-1.41941">
        <ele>46.4</ele>
        <time>2021-09-21T08:42:07Z</time>
      </trkpt>
      <trkpt lat="46.49927" lon="-1.41942">
        <ele>46.3</ele>
        <time>2021-09-21T08:42:08Z</time>
      </trkpt>
      <trkpt lat="46.49926" lon="-1.41943">
        <ele>46.3</ele>
        <time>2021-09-21T08:42:09Z</time>
      </trkpt>
      <trkpt lat="46.49925" lon="-1.41945">
        <ele>46.3</ele>
        <time>2021-09-21T08:42:10Z</time>
      </trkpt>
      <trkpt lat="46.49925" lon="-1.41946">
        <ele>46.2</ele>
        <time>2021-09-21T08:42:11Z</time>
      </trkpt>
      <trkpt lat="46.49924" lon="-1.41948">
        <ele>46.2</ele>
        <time>2021-09-21T08:42:12Z</time>
      </trkpt>
      <trkpt lat="46.49923" lon="-1.4195">
        <ele>46.2</ele>
        <time>2021-09-21T08:42:13Z</time>
      </trkpt>
      <trkpt lat="46.49922" lon="-1.41951">
        <ele>46.1</ele>
        <time>2021-09-21T08:42:14Z</time>
      </trkpt>
      <trkpt lat="46.49921" lon="-1.41953">
        <ele>46.1</ele>
        <time>2021-09-21T08:42:15Z</time>
      </trkpt>
      <trkpt lat="46.4992" lon="-1.41955">
        <ele>46.1</ele>
        <time>2021-09-21T08:42:16Z</time>
      </trkpt>
      <trkpt lat="46.4992" lon="-1.41957">
        <ele>46.1</ele>
        <time>2021-09-21T08:42:17Z</time>
      </trkpt>
      <trkpt lat="46.49919" lon="-1.41959">
        <ele>46.1</ele>
        <time>2021-09-21T08:42:18Z</time>
      </trkpt>
      <trkpt lat="46.49918" lon="-1.41961">
        <ele>46.1</ele>
        <time>2021-09-21T08:42:19Z</time>
      </trkpt>
      <trkpt lat="46.49917" lon="-1.41962">
        <ele>46</ele>
        <time>2021-09-21T08:42:20Z</time>
      </trkpt>
      <trkpt lat="46.49917" lon="-1.41964">
        <ele>46</ele>
        <time>2021-09-21T08:42:21Z</time>
      </trkpt>
      <trkpt lat="46.49916" lon="-1.41966">
        <ele>46.1</ele>
        <time>2021-09-21T08:42:22Z</time>
      </trkpt>
      <trkpt lat="46.49915" lon="-1.41968">
        <ele>46.1</ele>
        <time>2021-09-21T08:42:23Z</time>
      </trkpt>
      <trkpt lat="46.49915" lon="-1.4197">
        <ele>46.1</ele>
        <time>2021-09-21T08:42:24Z</time>
      </trkpt>
      <trkpt lat="46.49914" lon="-1.41972">
        <ele>46.1</ele>
        <time>2021-09-21T08:42:25Z</time>
      </trkpt>
      <trkpt lat="46.49913" lon="-1.41973">
        <ele>46.1</ele>
        <time>2021-09-21T08:42:26Z</time>
      </trkpt>
      <trkpt lat="46.49913" lon="-1.41975">
        <ele>46.1</ele>
        <time>2021-09-21T08:42:27Z</time>
      </trkpt>
      <trkpt lat="46.49912" lon="-1.41977">
        <ele>46.2</ele>
        <time>2021-09-21T08:42:28Z</time>
      </trkpt>
      <trkpt lat="46.49911" lon="-1.41978">
        <ele>46.2</ele>
        <time>2021-09-21T08:42:29Z</time>
      </trkpt>
      <trkpt lat="46.49911" lon="-1.4198">
        <ele>46.2</ele>
        <time>2021-09-21T08:42:30Z</time>
      </trkpt>
      <trkpt lat="46.4991" lon="-1.41981">
        <ele>46.2</ele>
        <time>2021-09-21T08:42:31Z</time>
      </trkpt>
      <trkpt lat="46.4991" lon="-1.41982">
        <ele>46.2</ele>
        <time>2021-09-21T08:42:32Z</time>
      </trkpt>
      <trkpt lat="46.49909" lon="-1.41984">
        <ele>46.3</ele>
        <time>2021-09-21T08:42:33Z</time>
      </trkpt>
      <trkpt lat="46.49909" lon="-1.41985">
        <ele>46.3</ele>
        <time>2021-09-21T08:42:34Z</time>
      </trkpt>
      <trkpt lat="46.49908" lon="-1.41986">
        <ele>46.3</ele>
        <time>2021-09-21T08:42:35Z</time>
      </trkpt>
      <trkpt lat="46.49908" lon="-1.41988">
        <ele>46.3</ele>
        <time>2021-09-21T08:42:36Z</time>
      </trkpt>
      <trkpt lat="46.49907" lon="-1.41989">
        <ele>46.3</ele>
        <time>2021-09-21T08:42:37Z</time>
      </trkpt>
      <trkpt lat="46.49907" lon="-1.4199">
        <ele>46.4</ele>
        <time>2021-09-21T08:42:38Z</time>
      </trkpt>
      <trkpt lat="46.49906" lon="-1.41991">
        <ele>46.4</ele>
        <time>2021-09-21T08:42:39Z</time>
      </trkpt>
      <trkpt lat="46.49906" lon="-1.41993">
        <ele>46.4</ele>
        <time>2021-09-21T08:42:40Z</time>
      </trkpt>
      <trkpt lat="46.49906" lon="-1.41994">
        <ele>46.4</ele>
        <time>2021-09-21T08:42:41Z</time>
      </trkpt>
      <trkpt lat="46.49905" lon="-1.41995">
        <ele>46.5</ele>
        <time>2021-09-21T08:42:42Z</time>
      </trkpt>
      <trkpt lat="46.49905" lon="-1.41997">
        <ele>46.5</ele>
        <time>2021-09-21T08:42:43Z</time>
      </trkpt>
      <trkpt lat="46.49904" lon="-1.41998">
        <ele>46.5</ele>
        <time>2021-09-21T08:42:44Z</time>
      </trkpt>
      <trkpt lat="46.49904" lon="-1.41999">
        <ele>46.5</ele>
        <time>2021-09-21T08:42:45Z</time>
      </trkpt>
      <trkpt lat="46.49903" lon="-1.42001">
        <ele>46.6</ele>
        <time>2021-09-21T08:42:46Z</time>
      </trkpt>
      <trkpt lat="46.49903" lon="-1.42002">
        <ele>46.6</ele>
        <time>2021-09-21T08:42:47Z</time>
      </trkpt>
      <trkpt lat="46.49902" lon="-1.42004">
        <ele>46.6</ele>
        <time>2021-09-21T08:42:48Z</time>
      </trkpt>
      <trkpt lat="46.49902" lon="-1.42005">
        <ele>46.7</ele>
        <time>2021-09-21T08:42:49Z</time>
      </trkpt>
      <trkpt lat="46.49901" lon="-1.42007">
        <ele>46.7</ele>
        <time>2021-09-21T08:42:50Z</time>
      </trkpt>
      <trkpt lat="46.49901" lon="-1.42008">
        <ele>46.7</ele>
        <time>2021-09-21T08:42:51Z</time>
      </trkpt>
      <trkpt lat="46.499" lon="-1.4201">
        <ele>46.8</ele>
        <time>2021-09-21T08:42:52Z</time>
      </trkpt>
      <trkpt lat="46.499" lon="-1.42011">
        <ele>46.8</ele>
        <time>2021-09-21T08:42:53Z</time>
      </trkpt>
      <trkpt lat="46.49899" lon="-1.42013">
        <ele>46.8</ele>
        <time>2021-09-21T08:42:54Z</time>
      </trkpt>
      <trkpt lat="46.49899" lon="-1.42015">
        <ele>46.8</ele>
        <time>2021-09-21T08:42:55Z</time>
      </trkpt>
      <trkpt lat="46.49898" lon="-1.42016">
        <ele>46.8</ele>
        <time>2021-09-21T08:42:56Z</time>
      </trkpt>
      <trkpt lat="46.49898" lon="-1.42018">
        <ele>46.8</ele>
        <time>2021-09-21T08:42:57Z</time>
      </trkpt>
      <trkpt lat="46.49897" lon="-1.42019">
        <ele>46.8</ele>
        <time>2021-09-21T08:42:58Z</time>
      </trkpt>
      <trkpt lat="46.49897" lon="-1.42021">
        <ele>46.8</ele>
        <time>2021-09-21T08:42:59Z</time>
      </trkpt>
      <trkpt lat="46.49896" lon="-1.42023">
        <ele>46.8</ele>
        <time>2021-09-21T08:43:00Z</time>
      </trkpt>
      <trkpt lat="46.49896" lon="-1.42024">
        <ele>46.8</ele>
        <time>2021-09-21T08:43:01Z</time>
      </trkpt>
      <trkpt lat="46.49896" lon="-1.42026">
        <ele>46.8</ele>
        <time>2021-09-21T08:43:02Z</time>
      </trkpt>
      <trkpt lat="46.49895" lon="-1.42027">
        <ele>46.8</ele>
        <time>2021-09-21T08:43:03Z</time>
      </trkpt>
      <trkpt lat="46.49895" lon="-1.42029">
        <ele>46.8</ele>
        <time>2021-09-21T08:43:04Z</time>
      </trkpt>
      <trkpt lat="46.49895" lon="-1.4203">
        <ele>46.7</ele>
        <time>2021-09-21T08:43:05Z</time>
      </trkpt>
      <trkpt lat="46.49894" lon="-1.42031">
        <ele>46.7</ele>
        <time>2021-09-21T08:43:06Z</time>
      </trkpt>
      <trkpt lat="46.49894" lon="-1.42033">
        <ele>46.7</ele>
        <time>2021-09-21T08:43:07Z</time>
      </trkpt>
      <trkpt lat="46.49894" lon="-1.42034">
        <ele>46.7</ele>
        <time>2021-09-21T08:43:08Z</time>
      </trkpt>
      <trkpt lat="46.49893" lon="-1.42036">
        <ele>46.6</ele>
        <time>2021-09-21T08:43:09Z</time>
      </trkpt>
      <trkpt lat="46.49893" lon="-1.42037">
        <ele>46.6</ele>
        <time>2021-09-21T08:43:10Z</time>
      </trkpt>
      <trkpt lat="46.49892" lon="-1.42038">
        <ele>46.6</ele>
        <time>2021-09-21T08:43:11Z</time>
      </trkpt>
      <trkpt lat="46.49892" lon="-1.4204">
        <ele>46.5</ele>
        <time>2021-09-21T08:43:12Z</time>
      </trkpt>
      <trkpt lat="46.49891" lon="-1.42041">
        <ele>46.5</ele>
        <time>2021-09-21T08:43:13Z</time>
      </trkpt>
      <trkpt lat="46.49891" lon="-1.42043">
        <ele>46.4</ele>
        <time>2021-09-21T08:43:14Z</time>
      </trkpt>
      <trkpt lat="46.4989" lon="-1.42044">
        <ele>46.4</ele>
        <time>2021-09-21T08:43:15Z</time>
      </trkpt>
      <trkpt lat="46.49889" lon="-1.42045">
        <ele>46.3</ele>
        <time>2021-09-21T08:43:16Z</time>
      </trkpt>
      <trkpt lat="46.49888" lon="-1.42047">
        <ele>46.3</ele>
        <time>2021-09-21T08:43:17Z</time>
      </trkpt>
      <trkpt lat="46.49887" lon="-1.42048">
        <ele>46.2</ele>
        <time>2021-09-21T08:43:18Z</time>
      </trkpt>
      <trkpt lat="46.49886" lon="-1.4205">
        <ele>46.1</ele>
        <time>2021-09-21T08:43:19Z</time>
      </trkpt>
      <trkpt lat="46.49885" lon="-1.42051">
        <ele>46.1</ele>
        <time>2021-09-21T08:43:20Z</time>
      </trkpt>
      <trkpt lat="46.49883" lon="-1.42053">
        <ele>46</ele>
        <time>2021-09-21T08:43:21Z</time>
      </trkpt>
      <trkpt lat="46.49882" lon="-1.42054">
        <ele>45.9</ele>
        <time>2021-09-21T08:43:22Z</time>
      </trkpt>
      <trkpt lat="46.49881" lon="-1.42056">
        <ele>45.8</ele>
        <time>2021-09-21T08:43:23Z</time>
      </trkpt>
      <trkpt lat="46.4988" lon="-1.42058">
        <ele>45.8</ele>
        <time>2021-09-21T08:43:24Z</time>
      </trkpt>
      <trkpt lat="46.49878" lon="-1.42059">
        <ele>45.7</ele>
        <time>2021-09-21T08:43:25Z</time>
      </trkpt>
      <trkpt lat="46.49877" lon="-1.42062">
        <ele>45.6</ele>
        <time>2021-09-21T08:43:26Z</time>
      </trkpt>
      <trkpt lat="46.49876" lon="-1.42063">
        <ele>45.6</ele>
        <time>2021-09-21T08:43:27Z</time>
      </trkpt>
      <trkpt lat="46.49875" lon="-1.42065">
        <ele>45.5</ele>
        <time>2021-09-21T08:43:28Z</time>
      </trkpt>
      <trkpt lat="46.49874" lon="-1.42066">
        <ele>45.5</ele>
        <time>2021-09-21T08:43:29Z</time>
      </trkpt>
      <trkpt lat="46.49873" lon="-1.42067">
        <ele>45.4</ele>
        <time>2021-09-21T08:43:30Z</time>
      </trkpt>
      <trkpt lat="46.49872" lon="-1.42069">
        <ele>45.4</ele>
        <time>2021-09-21T08:43:31Z</time>
      </trkpt>
      <trkpt lat="46.49872" lon="-1.4207">
        <ele>45.3</ele>
        <time>2021-09-21T08:43:32Z</time>
      </trkpt>
      <trkpt lat="46.49871" lon="-1.42071">
        <ele>45.3</ele>
        <time>2021-09-21T08:43:33Z</time>
      </trkpt>
      <trkpt lat="46.4987" lon="-1.42073">
        <ele>45.4</ele>
        <time>2021-09-21T08:43:34Z</time>
      </trkpt>
      <trkpt lat="46.49869" lon="-1.42074">
        <ele>45.4</ele>
        <time>2021-09-21T08:43:35Z</time>
      </trkpt>
      <trkpt lat="46.49868" lon="-1.42075">
        <ele>45.4</ele>
        <time>2021-09-21T08:43:36Z</time>
      </trkpt>
      <trkpt lat="46.49867" lon="-1.42076">
        <ele>45.4</ele>
        <time>2021-09-21T08:43:37Z</time>
      </trkpt>
      <trkpt lat="46.49866" lon="-1.42076">
        <ele>45.4</ele>
        <time>2021-09-21T08:43:38Z</time>
      </trkpt>
      <trkpt lat="46.49864" lon="-1.42077">
        <ele>45.4</ele>
        <time>2021-09-21T08:43:39Z</time>
      </trkpt>
      <trkpt lat="46.49863" lon="-1.42078">
        <ele>45.4</ele>
        <time>2021-09-21T08:43:40Z</time>
      </trkpt>
      <trkpt lat="46.49862" lon="-1.42078">
        <ele>45.5</ele>
        <time>2021-09-21T08:43:41Z</time>
      </trkpt>
      <trkpt lat="46.49861" lon="-1.42079">
        <ele>45.5</ele>
        <time>2021-09-21T08:43:42Z</time>
      </trkpt>
      <trkpt lat="46.4986" lon="-1.42079">
        <ele>45.5</ele>
        <time>2021-09-21T08:43:43Z</time>
      </trkpt>
      <trkpt lat="46.49859" lon="-1.42079">
        <ele>45.5</ele>
        <time>2021-09-21T08:43:44Z</time>
      </trkpt>
      <trkpt lat="46.49858" lon="-1.4208">
        <ele>45.5</ele>
        <time>2021-09-21T08:43:45Z</time>
      </trkpt>
      <trkpt lat="46.49857" lon="-1.4208">
        <ele>45.6</ele>
        <time>2021-09-21T08:43:46Z</time>
      </trkpt>
      <trkpt lat="46.49856" lon="-1.4208">
        <ele>45.6</ele>
        <time>2021-09-21T08:43:47Z</time>
      </trkpt>
      <trkpt lat="46.49855" lon="-1.4208">
        <ele>45.6</ele>
        <time>2021-09-21T08:43:48Z</time>
      </trkpt>
      <trkpt lat="46.49854" lon="-1.4208">
        <ele>45.6</ele>
        <time>2021-09-21T08:43:49Z</time>
      </trkpt>
      <trkpt lat="46.49853" lon="-1.4208">
        <ele>45.7</ele>
        <time>2021-09-21T08:43:50Z</time>
      </trkpt>
      <trkpt lat="46.49852" lon="-1.4208">
        <ele>45.7</ele>
        <time>2021-09-21T08:43:51Z</time>
      </trkpt>
      <trkpt lat="46.49851" lon="-1.4208">
        <ele>45.7</ele>
        <time>2021-09-21T08:43:52Z</time>
      </trkpt>
      <trkpt lat="46.49849" lon="-1.42081">
        <ele>45.7</ele>
        <time>2021-09-21T08:43:53Z</time>
      </trkpt>
      <trkpt lat="46.49848" lon="-1.42081">
        <ele>45.8</ele>
        <time>2021-09-21T08:43:54Z</time>
      </trkpt>
      <trkpt lat="46.49846" lon="-1.42081">
        <ele>45.8</ele>
        <time>2021-09-21T08:43:55Z</time>
      </trkpt>
      <trkpt lat="46.49845" lon="-1.42082">
        <ele>45.8</ele>
        <time>2021-09-21T08:43:56Z</time>
      </trkpt>
      <trkpt lat="46.49843" lon="-1.42082">
        <ele>45.8</ele>
        <time>2021-09-21T08:43:57Z</time>
      </trkpt>
      <trkpt lat="46.49842" lon="-1.42082">
        <ele>45.9</ele>
        <time>2021-09-21T08:43:58Z</time>
      </trkpt>
      <trkpt lat="46.49841" lon="-1.42081">
        <ele>45.9</ele>
        <time>2021-09-21T08:43:59Z</time>
      </trkpt>
      <trkpt lat="46.4984" lon="-1.42081">
        <ele>45.9</ele>
        <time>2021-09-21T08:44:00Z</time>
      </trkpt>
      <trkpt lat="46.49839" lon="-1.42081">
        <ele>45.9</ele>
        <time>2021-09-21T08:44:01Z</time>
      </trkpt>
      <trkpt lat="46.49837" lon="-1.42081">
        <ele>46</ele>
        <time>2021-09-21T08:44:02Z</time>
      </trkpt>
      <trkpt lat="46.49836" lon="-1.4208">
        <ele>46</ele>
        <time>2021-09-21T08:44:03Z</time>
      </trkpt>
      <trkpt lat="46.49835" lon="-1.4208">
        <ele>46</ele>
        <time>2021-09-21T08:44:04Z</time>
      </trkpt>
      <trkpt lat="46.49834" lon="-1.42079">
        <ele>46.1</ele>
        <time>2021-09-21T08:44:05Z</time>
      </trkpt>
      <trkpt lat="46.49832" lon="-1.42079">
        <ele>46.1</ele>
        <time>2021-09-21T08:44:06Z</time>
      </trkpt>
      <trkpt lat="46.49831" lon="-1.42079">
        <ele>46.1</ele>
        <time>2021-09-21T08:44:07Z</time>
      </trkpt>
      <trkpt lat="46.4983" lon="-1.42078">
        <ele>46.2</ele>
        <time>2021-09-21T08:44:08Z</time>
      </trkpt>
      <trkpt lat="46.49829" lon="-1.42078">
        <ele>46.2</ele>
        <time>2021-09-21T08:44:09Z</time>
      </trkpt>
      <trkpt lat="46.49827" lon="-1.42077">
        <ele>46.3</ele>
        <time>2021-09-21T08:44:10Z</time>
      </trkpt>
      <trkpt lat="46.49826" lon="-1.42077">
        <ele>46.3</ele>
        <time>2021-09-21T08:44:11Z</time>
      </trkpt>
      <trkpt lat="46.49825" lon="-1.42077">
        <ele>46.4</ele>
        <time>2021-09-21T08:44:12Z</time>
      </trkpt>
      <trkpt lat="46.49824" lon="-1.42076">
        <ele>46.4</ele>
        <time>2021-09-21T08:44:13Z</time>
      </trkpt>
      <trkpt lat="46.49822" lon="-1.42076">
        <ele>46.5</ele>
        <time>2021-09-21T08:44:14Z</time>
      </trkpt>
      <trkpt lat="46.49821" lon="-1.42076">
        <ele>46.5</ele>
        <time>2021-09-21T08:44:15Z</time>
      </trkpt>
      <trkpt lat="46.4982" lon="-1.42076">
        <ele>46.6</ele>
        <time>2021-09-21T08:44:16Z</time>
      </trkpt>
      <trkpt lat="46.49819" lon="-1.42075">
        <ele>46.6</ele>
        <time>2021-09-21T08:44:17Z</time>
      </trkpt>
      <trkpt lat="46.49818" lon="-1.42075">
        <ele>46.7</ele>
        <time>2021-09-21T08:44:18Z</time>
      </trkpt>
      <trkpt lat="46.49816" lon="-1.42075">
        <ele>46.7</ele>
        <time>2021-09-21T08:44:19Z</time>
      </trkpt>
      <trkpt lat="46.49815" lon="-1.42075">
        <ele>46.8</ele>
        <time>2021-09-21T08:44:20Z</time>
      </trkpt>
      <trkpt lat="46.49814" lon="-1.42076">
        <ele>46.8</ele>
        <time>2021-09-21T08:44:21Z</time>
      </trkpt>
      <trkpt lat="46.49813" lon="-1.42076">
        <ele>46.9</ele>
        <time>2021-09-21T08:44:22Z</time>
      </trkpt>
      <trkpt lat="46.49812" lon="-1.42076">
        <ele>46.9</ele>
        <time>2021-09-21T08:44:23Z</time>
      </trkpt>
      <trkpt lat="46.49811" lon="-1.42076">
        <ele>47</ele>
        <time>2021-09-21T08:44:24Z</time>
      </trkpt>
      <trkpt lat="46.4981" lon="-1.42077">
        <ele>47</ele>
        <time>2021-09-21T08:44:25Z</time>
      </trkpt>
      <trkpt lat="46.49809" lon="-1.42077">
        <ele>47</ele>
        <time>2021-09-21T08:44:26Z</time>
      </trkpt>
      <trkpt lat="46.49808" lon="-1.42077">
        <ele>47.1</ele>
        <time>2021-09-21T08:44:27Z</time>
      </trkpt>
      <trkpt lat="46.49807" lon="-1.42078">
        <ele>47.1</ele>
        <time>2021-09-21T08:44:28Z</time>
      </trkpt>
      <trkpt lat="46.49806" lon="-1.42078">
        <ele>47.2</ele>
        <time>2021-09-21T08:44:29Z</time>
      </trkpt>
      <trkpt lat="46.49805" lon="-1.42079">
        <ele>47.2</ele>
        <time>2021-09-21T08:44:30Z</time>
      </trkpt>
      <trkpt lat="46.49804" lon="-1.4208">
        <ele>47.2</ele>
        <time>2021-09-21T08:44:31Z</time>
      </trkpt>
      <trkpt lat="46.49803" lon="-1.4208">
        <ele>47.3</ele>
        <time>2021-09-21T08:44:32Z</time>
      </trkpt>
      <trkpt lat="46.49802" lon="-1.42081">
        <ele>47.3</ele>
        <time>2021-09-21T08:44:33Z</time>
      </trkpt>
      <trkpt lat="46.49802" lon="-1.42081">
        <ele>47.4</ele>
        <time>2021-09-21T08:44:34Z</time>
      </trkpt>
      <trkpt lat="46.49801" lon="-1.42082">
        <ele>47.4</ele>
        <time>2021-09-21T08:44:35Z</time>
      </trkpt>
      <trkpt lat="46.498" lon="-1.42083">
        <ele>47.4</ele>
        <time>2021-09-21T08:44:36Z</time>
      </trkpt>
      <trkpt lat="46.49799" lon="-1.42084">
        <ele>47.5</ele>
        <time>2021-09-21T08:44:37Z</time>
      </trkpt>
      <trkpt lat="46.49798" lon="-1.42084">
        <ele>47.5</ele>
        <time>2021-09-21T08:44:38Z</time>
      </trkpt>
      <trkpt lat="46.49797" lon="-1.42085">
        <ele>47.6</ele>
        <time>2021-09-21T08:44:39Z</time>
      </trkpt>
      <trkpt lat="46.49796" lon="-1.42086">
        <ele>47.6</ele>
        <time>2021-09-21T08:44:40Z</time>
      </trkpt>
      <trkpt lat="46.49795" lon="-1.42087">
        <ele>47.6</ele>
        <time>2021-09-21T08:44:41Z</time>
      </trkpt>
      <trkpt lat="46.49794" lon="-1.42087">
        <ele>47.7</ele>
        <time>2021-09-21T08:44:42Z</time>
      </trkpt>
      <trkpt lat="46.49793" lon="-1.42088">
        <ele>47.7</ele>
        <time>2021-09-21T08:44:43Z</time>
      </trkpt>
      <trkpt lat="46.49792" lon="-1.42089">
        <ele>47.8</ele>
        <time>2021-09-21T08:44:44Z</time>
      </trkpt>
      <trkpt lat="46.49791" lon="-1.4209">
        <ele>47.8</ele>
        <time>2021-09-21T08:44:45Z</time>
      </trkpt>
      <trkpt lat="46.4979" lon="-1.42091">
        <ele>47.9</ele>
        <time>2021-09-21T08:44:46Z</time>
      </trkpt>
      <trkpt lat="46.49789" lon="-1.42092">
        <ele>47.9</ele>
        <time>2021-09-21T08:44:47Z</time>
      </trkpt>
      <trkpt lat="46.49788" lon="-1.42093">
        <ele>47.9</ele>
        <time>2021-09-21T08:44:48Z</time>
      </trkpt>
      <trkpt lat="46.49787" lon="-1.42094">
        <ele>48</ele>
        <time>2021-09-21T08:44:49Z</time>
      </trkpt>
      <trkpt lat="46.49786" lon="-1.42095">
        <ele>48</ele>
        <time>2021-09-21T08:44:50Z</time>
      </trkpt>
      <trkpt lat="46.49785" lon="-1.42096">
        <ele>48.1</ele>
        <time>2021-09-21T08:44:51Z</time>
      </trkpt>
      <trkpt lat="46.49784" lon="-1.42097">
        <ele>48.1</ele>
        <time>2021-09-21T08:44:52Z</time>
      </trkpt>
      <trkpt lat="46.49783" lon="-1.42099">
        <ele>48.1</ele>
        <time>2021-09-21T08:44:53Z</time>
      </trkpt>
      <trkpt lat="46.49783" lon="-1.421">
        <ele>48.2</ele>
        <time>2021-09-21T08:44:54Z</time>
      </trkpt>
      <trkpt lat="46.49782" lon="-1.42101">
        <ele>48.2</ele>
        <time>2021-09-21T08:44:55Z</time>
      </trkpt>
      <trkpt lat="46.49781" lon="-1.42102">
        <ele>48.2</ele>
        <time>2021-09-21T08:44:56Z</time>
      </trkpt>
      <trkpt lat="46.4978" lon="-1.42104">
        <ele>48.3</ele>
        <time>2021-09-21T08:44:57Z</time>
      </trkpt>
      <trkpt lat="46.4978" lon="-1.42105">
        <ele>48.3</ele>
        <time>2021-09-21T08:44:58Z</time>
      </trkpt>
      <trkpt lat="46.49779" lon="-1.42106">
        <ele>48.3</ele>
        <time>2021-09-21T08:44:59Z</time>
      </trkpt>
      <trkpt lat="46.49778" lon="-1.42107">
        <ele>48.4</ele>
        <time>2021-09-21T08:45:00Z</time>
      </trkpt>
      <trkpt lat="46.49777" lon="-1.42108">
        <ele>48.4</ele>
        <time>2021-09-21T08:45:01Z</time>
      </trkpt>
      <trkpt lat="46.49776" lon="-1.42109">
        <ele>48.4</ele>
        <time>2021-09-21T08:45:02Z</time>
      </trkpt>
      <trkpt lat="46.49775" lon="-1.4211">
        <ele>48.5</ele>
        <time>2021-09-21T08:45:03Z</time>
      </trkpt>
      <trkpt lat="46.49774" lon="-1.42111">
        <ele>48.5</ele>
        <time>2021-09-21T08:45:04Z</time>
      </trkpt>
      <trkpt lat="46.49773" lon="-1.42112">
        <ele>48.5</ele>
        <time>2021-09-21T08:45:05Z</time>
      </trkpt>
      <trkpt lat="46.49772" lon="-1.42113">
        <ele>48.5</ele>
        <time>2021-09-21T08:45:06Z</time>
      </trkpt>
      <trkpt lat="46.49771" lon="-1.42113">
        <ele>48.6</ele>
        <time>2021-09-21T08:45:07Z</time>
      </trkpt>
      <trkpt lat="46.4977" lon="-1.42114">
        <ele>48.6</ele>
        <time>2021-09-21T08:45:08Z</time>
      </trkpt>
      <trkpt lat="46.49769" lon="-1.42115">
        <ele>48.6</ele>
        <time>2021-09-21T08:45:09Z</time>
      </trkpt>
      <trkpt lat="46.49768" lon="-1.42116">
        <ele>48.7</ele>
        <time>2021-09-21T08:45:10Z</time>
      </trkpt>
      <trkpt lat="46.49767" lon="-1.42117">
        <ele>48.7</ele>
        <time>2021-09-21T08:45:11Z</time>
      </trkpt>
      <trkpt lat="46.49766" lon="-1.42118">
        <ele>48.7</ele>
        <time>2021-09-21T08:45:12Z</time>
      </trkpt>
      <trkpt lat="46.49765" lon="-1.42119">
        <ele>48.8</ele>
        <time>2021-09-21T08:45:13Z</time>
      </trkpt>
      <trkpt lat="46.49764" lon="-1.4212">
        <ele>48.8</ele>
        <time>2021-09-21T08:45:14Z</time>
      </trkpt>
      <trkpt lat="46.49763" lon="-1.42121">
        <ele>48.8</ele>
        <time>2021-09-21T08:45:15Z</time>
      </trkpt>
      <trkpt lat="46.49762" lon="-1.42122">
        <ele>48.9</ele>
        <time>2021-09-21T08:45:16Z</time>
      </trkpt>
      <trkpt lat="46.49761" lon="-1.42123">
        <ele>48.9</ele>
        <time>2021-09-21T08:45:17Z</time>
      </trkpt>
      <trkpt lat="46.4976" lon="-1.42125">
        <ele>49</ele>
        <time>2021-09-21T08:45:18Z</time>
      </trkpt>
      <trkpt lat="46.49759" lon="-1.42126">
        <ele>49</ele>
        <time>2021-09-21T08:45:19Z</time>
      </trkpt>
      <trkpt lat="46.49758" lon="-1.42127">
        <ele>49</ele>
        <time>2021-09-21T08:45:20Z</time>
      </trkpt>
      <trkpt lat="46.49757" lon="-1.42127">
        <ele>49.1</ele>
        <time>2021-09-21T08:45:21Z</time>
      </trkpt>
      <trkpt lat="46.49757" lon="-1.42128">
        <ele>49.1</ele>
        <time>2021-09-21T08:45:22Z</time>
      </trkpt>
      <trkpt lat="46.49756" lon="-1.42128">
        <ele>49.1</ele>
        <time>2021-09-21T08:45:23Z</time>
      </trkpt>
      <trkpt lat="46.49755" lon="-1.42129">
        <ele>49.2</ele>
        <time>2021-09-21T08:45:24Z</time>
      </trkpt>
      <trkpt lat="46.49754" lon="-1.4213">
        <ele>49.2</ele>
        <time>2021-09-21T08:45:25Z</time>
      </trkpt>
      <trkpt lat="46.49753" lon="-1.4213">
        <ele>49.2</ele>
        <time>2021-09-21T08:45:26Z</time>
      </trkpt>
      <trkpt lat="46.49752" lon="-1.42131">
        <ele>49.3</ele>
        <time>2021-09-21T08:45:27Z</time>
      </trkpt>
      <trkpt lat="46.49752" lon="-1.42132">
        <ele>49.3</ele>
        <time>2021-09-21T08:45:28Z</time>
      </trkpt>
      <trkpt lat="46.49751" lon="-1.42134">
        <ele>49.4</ele>
        <time>2021-09-21T08:45:29Z</time>
      </trkpt>
      <trkpt lat="46.4975" lon="-1.42135">
        <ele>49.4</ele>
        <time>2021-09-21T08:45:30Z</time>
      </trkpt>
      <trkpt lat="46.49748" lon="-1.42137">
        <ele>49.5</ele>
        <time>2021-09-21T08:45:31Z</time>
      </trkpt>
      <trkpt lat="46.49747" lon="-1.42138">
        <ele>49.5</ele>
        <time>2021-09-21T08:45:32Z</time>
      </trkpt>
      <trkpt lat="46.49746" lon="-1.42139">
        <ele>49.5</ele>
        <time>2021-09-21T08:45:33Z</time>
      </trkpt>
      <trkpt lat="46.49746" lon="-1.4214">
        <ele>49.6</ele>
        <time>2021-09-21T08:45:34Z</time>
      </trkpt>
      <trkpt lat="46.49745" lon="-1.42141">
        <ele>49.6</ele>
        <time>2021-09-21T08:45:35Z</time>
      </trkpt>
      <trkpt lat="46.49744" lon="-1.42142">
        <ele>49.6</ele>
        <time>2021-09-21T08:45:36Z</time>
      </trkpt>
      <trkpt lat="46.49743" lon="-1.42143">
        <ele>49.6</ele>
        <time>2021-09-21T08:45:37Z</time>
      </trkpt>
      <trkpt lat="46.49742" lon="-1.42144">
        <ele>49.6</ele>
        <time>2021-09-21T08:45:38Z</time>
      </trkpt>
      <trkpt lat="46.49741" lon="-1.42145">
        <ele>49.7</ele>
        <time>2021-09-21T08:45:39Z</time>
      </trkpt>
      <trkpt lat="46.4974" lon="-1.42146">
        <ele>49.7</ele>
        <time>2021-09-21T08:45:40Z</time>
      </trkpt>
      <trkpt lat="46.49739" lon="-1.42147">
        <ele>49.7</ele>
        <time>2021-09-21T08:45:41Z</time>
      </trkpt>
      <trkpt lat="46.49738" lon="-1.42148">
        <ele>49.7</ele>
        <time>2021-09-21T08:45:42Z</time>
      </trkpt>
      <trkpt lat="46.49737" lon="-1.42149">
        <ele>49.8</ele>
        <time>2021-09-21T08:45:43Z</time>
      </trkpt>
      <trkpt lat="46.49736" lon="-1.4215">
        <ele>49.8</ele>
        <time>2021-09-21T08:45:44Z</time>
      </trkpt>
      <trkpt lat="46.49735" lon="-1.42151">
        <ele>49.8</ele>
        <time>2021-09-21T08:45:45Z</time>
      </trkpt>
      <trkpt lat="46.49735" lon="-1.42152">
        <ele>49.8</ele>
        <time>2021-09-21T08:45:46Z</time>
      </trkpt>
      <trkpt lat="46.49734" lon="-1.42153">
        <ele>49.8</ele>
        <time>2021-09-21T08:45:47Z</time>
      </trkpt>
      <trkpt lat="46.49733" lon="-1.42154">
        <ele>49.9</ele>
        <time>2021-09-21T08:45:48Z</time>
      </trkpt>
      <trkpt lat="46.49732" lon="-1.42156">
        <ele>49.9</ele>
        <time>2021-09-21T08:45:49Z</time>
      </trkpt>
      <trkpt lat="46.49731" lon="-1.42157">
        <ele>49.9</ele>
        <time>2021-09-21T08:45:50Z</time>
      </trkpt>
      <trkpt lat="46.4973" lon="-1.42158">
        <ele>49.9</ele>
        <time>2021-09-21T08:45:51Z</time>
      </trkpt>
      <trkpt lat="46.49729" lon="-1.42159">
        <ele>50</ele>
        <time>2021-09-21T08:45:52Z</time>
      </trkpt>
      <trkpt lat="46.49728" lon="-1.4216">
        <ele>50</ele>
        <time>2021-09-21T08:45:53Z</time>
      </trkpt>
      <trkpt lat="46.49727" lon="-1.42161">
        <ele>50</ele>
        <time>2021-09-21T08:45:54Z</time>
      </trkpt>
      <trkpt lat="46.49726" lon="-1.42162">
        <ele>50</ele>
        <time>2021-09-21T08:45:55Z</time>
      </trkpt>
      <trkpt lat="46.49725" lon="-1.42163">
        <ele>50</ele>
        <time>2021-09-21T08:45:56Z</time>
      </trkpt>
      <trkpt lat="46.49724" lon="-1.42164">
        <ele>50.1</ele>
        <time>2021-09-21T08:45:57Z</time>
      </trkpt>
      <trkpt lat="46.49723" lon="-1.42165">
        <ele>50.1</ele>
        <time>2021-09-21T08:45:58Z</time>
      </trkpt>
      <trkpt lat="46.49722" lon="-1.42166">
        <ele>50.1</ele>
        <time>2021-09-21T08:45:59Z</time>
      </trkpt>
      <trkpt lat="46.49721" lon="-1.42167">
        <ele>50.1</ele>
        <time>2021-09-21T08:46:00Z</time>
      </trkpt>
      <trkpt lat="46.4972" lon="-1.42168">
        <ele>50.2</ele>
        <time>2021-09-21T08:46:01Z</time>
      </trkpt>
      <trkpt lat="46.49719" lon="-1.42168">
        <ele>50.2</ele>
        <time>2021-09-21T08:46:02Z</time>
      </trkpt>
      <trkpt lat="46.49718" lon="-1.42169">
        <ele>50.2</ele>
        <time>2021-09-21T08:46:03Z</time>
      </trkpt>
      <trkpt lat="46.49717" lon="-1.4217">
        <ele>50.2</ele>
        <time>2021-09-21T08:46:04Z</time>
      </trkpt>
      <trkpt lat="46.49716" lon="-1.42171">
        <ele>50.3</ele>
        <time>2021-09-21T08:46:05Z</time>
      </trkpt>
      <trkpt lat="46.49715" lon="-1.42171">
        <ele>50.3</ele>
        <time>2021-09-21T08:46:06Z</time>
      </trkpt>
      <trkpt lat="46.49714" lon="-1.42172">
        <ele>50.3</ele>
        <time>2021-09-21T08:46:07Z</time>
      </trkpt>
      <trkpt lat="46.49713" lon="-1.42173">
        <ele>50.4</ele>
        <time>2021-09-21T08:46:08Z</time>
      </trkpt>
      <trkpt lat="46.49712" lon="-1.42173">
        <ele>50.4</ele>
        <time>2021-09-21T08:46:09Z</time>
      </trkpt>
      <trkpt lat="46.49711" lon="-1.42174">
        <ele>50.4</ele>
        <time>2021-09-21T08:46:10Z</time>
      </trkpt>
      <trkpt lat="46.49709" lon="-1.42175">
        <ele>50.4</ele>
        <time>2021-09-21T08:46:11Z</time>
      </trkpt>
      <trkpt lat="46.49708" lon="-1.42175">
        <ele>50.5</ele>
        <time>2021-09-21T08:46:12Z</time>
      </trkpt>
      <trkpt lat="46.49707" lon="-1.42176">
        <ele>50.5</ele>
        <time>2021-09-21T08:46:13Z</time>
      </trkpt>
      <trkpt lat="46.49706" lon="-1.42177">
        <ele>50.5</ele>
        <time>2021-09-21T08:46:14Z</time>
      </trkpt>
      <trkpt lat="46.49705" lon="-1.42178">
        <ele>50.6</ele>
        <time>2021-09-21T08:46:15Z</time>
      </trkpt>
      <trkpt lat="46.49704" lon="-1.42179">
        <ele>50.6</ele>
        <time>2021-09-21T08:46:16Z</time>
      </trkpt>
      <trkpt lat="46.49703" lon="-1.4218">
        <ele>50.6</ele>
        <time>2021-09-21T08:46:17Z</time>
      </trkpt>
      <trkpt lat="46.49702" lon="-1.4218">
        <ele>50.6</ele>
        <time>2021-09-21T08:46:18Z</time>
      </trkpt>
      <trkpt lat="46.49701" lon="-1.42181">
        <ele>50.7</ele>
        <time>2021-09-21T08:46:19Z</time>
      </trkpt>
      <trkpt lat="46.497" lon="-1.42182">
        <ele>50.7</ele>
        <time>2021-09-21T08:46:20Z</time>
      </trkpt>
      <trkpt lat="46.49699" lon="-1.42183">
        <ele>50.7</ele>
        <time>2021-09-21T08:46:21Z</time>
      </trkpt>
      <trkpt lat="46.49698" lon="-1.42184">
        <ele>50.7</ele>
        <time>2021-09-21T08:46:22Z</time>
      </trkpt>
      <trkpt lat="46.49697" lon="-1.42185">
        <ele>50.8</ele>
        <time>2021-09-21T08:46:23Z</time>
      </trkpt>
      <trkpt lat="46.49696" lon="-1.42186">
        <ele>50.8</ele>
        <time>2021-09-21T08:46:24Z</time>
      </trkpt>
      <trkpt lat="46.49695" lon="-1.42186">
        <ele>50.8</ele>
        <time>2021-09-21T08:46:25Z</time>
      </trkpt>
      <trkpt lat="46.49694" lon="-1.42187">
        <ele>50.8</ele>
        <time>2021-09-21T08:46:26Z</time>
      </trkpt>
      <trkpt lat="46.49693" lon="-1.42187">
        <ele>50.9</ele>
        <time>2021-09-21T08:46:27Z</time>
      </trkpt>
      <trkpt lat="46.49692" lon="-1.42188">
        <ele>50.9</ele>
        <time>2021-09-21T08:46:28Z</time>
      </trkpt>
      <trkpt lat="46.49691" lon="-1.42188">
        <ele>50.9</ele>
        <time>2021-09-21T08:46:29Z</time>
      </trkpt>
      <trkpt lat="46.49689" lon="-1.42189">
        <ele>50.9</ele>
        <time>2021-09-21T08:46:30Z</time>
      </trkpt>
      <trkpt lat="46.49688" lon="-1.4219">
        <ele>51</ele>
        <time>2021-09-21T08:46:31Z</time>
      </trkpt>
      <trkpt lat="46.49687" lon="-1.4219">
        <ele>51</ele>
        <time>2021-09-21T08:46:32Z</time>
      </trkpt>
      <trkpt lat="46.49686" lon="-1.42191">
        <ele>51</ele>
        <time>2021-09-21T08:46:33Z</time>
      </trkpt>
      <trkpt lat="46.49685" lon="-1.42192">
        <ele>51</ele>
        <time>2021-09-21T08:46:34Z</time>
      </trkpt>
      <trkpt lat="46.49684" lon="-1.42193">
        <ele>51.1</ele>
        <time>2021-09-21T08:46:35Z</time>
      </trkpt>
      <trkpt lat="46.49683" lon="-1.42193">
        <ele>51.1</ele>
        <time>2021-09-21T08:46:36Z</time>
      </trkpt>
      <trkpt lat="46.49681" lon="-1.42194">
        <ele>51.1</ele>
        <time>2021-09-21T08:46:37Z</time>
      </trkpt>
      <trkpt lat="46.4968" lon="-1.42195">
        <ele>51.1</ele>
        <time>2021-09-21T08:46:38Z</time>
      </trkpt>
      <trkpt lat="46.49679" lon="-1.42196">
        <ele>51.1</ele>
        <time>2021-09-21T08:46:39Z</time>
      </trkpt>
      <trkpt lat="46.49678" lon="-1.42197">
        <ele>51.2</ele>
        <time>2021-09-21T08:46:40Z</time>
      </trkpt>
      <trkpt lat="46.49677" lon="-1.42198">
        <ele>51.2</ele>
        <time>2021-09-21T08:46:41Z</time>
      </trkpt>
      <trkpt lat="46.49676" lon="-1.42199">
        <ele>51.2</ele>
        <time>2021-09-21T08:46:42Z</time>
      </trkpt>
      <trkpt lat="46.49675" lon="-1.422">
        <ele>51.2</ele>
        <time>2021-09-21T08:46:43Z</time>
      </trkpt>
      <trkpt lat="46.49674" lon="-1.42201">
        <ele>51.2</ele>
        <time>2021-09-21T08:46:44Z</time>
      </trkpt>
      <trkpt lat="46.49673" lon="-1.42202">
        <ele>51.2</ele>
        <time>2021-09-21T08:46:45Z</time>
      </trkpt>
      <trkpt lat="46.49672" lon="-1.42202">
        <ele>51.2</ele>
        <time>2021-09-21T08:46:46Z</time>
      </trkpt>
      <trkpt lat="46.49671" lon="-1.42203">
        <ele>51.2</ele>
        <time>2021-09-21T08:46:47Z</time>
      </trkpt>
      <trkpt lat="46.49669" lon="-1.42204">
        <ele>51.2</ele>
        <time>2021-09-21T08:46:48Z</time>
      </trkpt>
      <trkpt lat="46.49668" lon="-1.42204">
        <ele>51.2</ele>
        <time>2021-09-21T08:46:49Z</time>
      </trkpt>
      <trkpt lat="46.49667" lon="-1.42205">
        <ele>51.2</ele>
        <time>2021-09-21T08:46:50Z</time>
      </trkpt>
      <trkpt lat="46.49666" lon="-1.42206">
        <ele>51.3</ele>
        <time>2021-09-21T08:46:51Z</time>
      </trkpt>
      <trkpt lat="46.49665" lon="-1.42206">
        <ele>51.3</ele>
        <time>2021-09-21T08:46:52Z</time>
      </trkpt>
      <trkpt lat="46.49664" lon="-1.42207">
        <ele>51.3</ele>
        <time>2021-09-21T08:46:53Z</time>
      </trkpt>
      <trkpt lat="46.49663" lon="-1.42207">
        <ele>51.2</ele>
        <time>2021-09-21T08:46:54Z</time>
      </trkpt>
      <trkpt lat="46.49662" lon="-1.42208">
        <ele>51.2</ele>
        <time>2021-09-21T08:46:55Z</time>
      </trkpt>
      <trkpt lat="46.49661" lon="-1.42208">
        <ele>51.2</ele>
        <time>2021-09-21T08:46:56Z</time>
      </trkpt>
      <trkpt lat="46.4966" lon="-1.42209">
        <ele>51.2</ele>
        <time>2021-09-21T08:46:57Z</time>
      </trkpt>
      <trkpt lat="46.49659" lon="-1.42209">
        <ele>51.2</ele>
        <time>2021-09-21T08:46:58Z</time>
      </trkpt>
      <trkpt lat="46.49658" lon="-1.4221">
        <ele>51.2</ele>
        <time>2021-09-21T08:46:59Z</time>
      </trkpt>
      <trkpt lat="46.49657" lon="-1.42211">
        <ele>51.2</ele>
        <time>2021-09-21T08:47:00Z</time>
      </trkpt>
      <trkpt lat="46.49656" lon="-1.42211">
        <ele>51.2</ele>
        <time>2021-09-21T08:47:01Z</time>
      </trkpt>
      <trkpt lat="46.49655" lon="-1.42212">
        <ele>51.1</ele>
        <time>2021-09-21T08:47:02Z</time>
      </trkpt>
      <trkpt lat="46.49654" lon="-1.42213">
        <ele>51.1</ele>
        <time>2021-09-21T08:47:03Z</time>
      </trkpt>
      <trkpt lat="46.49653" lon="-1.42213">
        <ele>51.1</ele>
        <time>2021-09-21T08:47:04Z</time>
      </trkpt>
      <trkpt lat="46.49652" lon="-1.42214">
        <ele>51.1</ele>
        <time>2021-09-21T08:47:05Z</time>
      </trkpt>
      <trkpt lat="46.49651" lon="-1.42215">
        <ele>51.1</ele>
        <time>2021-09-21T08:47:06Z</time>
      </trkpt>
      <trkpt lat="46.49649" lon="-1.42216">
        <ele>51.1</ele>
        <time>2021-09-21T08:47:07Z</time>
      </trkpt>
      <trkpt lat="46.49648" lon="-1.42217">
        <ele>51.1</ele>
        <time>2021-09-21T08:47:08Z</time>
      </trkpt>
      <trkpt lat="46.49647" lon="-1.42218">
        <ele>51</ele>
        <time>2021-09-21T08:47:09Z</time>
      </trkpt>
      <trkpt lat="46.49646" lon="-1.42219">
        <ele>51</ele>
        <time>2021-09-21T08:47:10Z</time>
      </trkpt>
      <trkpt lat="46.49645" lon="-1.42219">
        <ele>51</ele>
        <time>2021-09-21T08:47:11Z</time>
      </trkpt>
      <trkpt lat="46.49643" lon="-1.4222">
        <ele>51</ele>
        <time>2021-09-21T08:47:12Z</time>
      </trkpt>
      <trkpt lat="46.49642" lon="-1.42221">
        <ele>51</ele>
        <time>2021-09-21T08:47:13Z</time>
      </trkpt>
      <trkpt lat="46.49641" lon="-1.42222">
        <ele>51</ele>
        <time>2021-09-21T08:47:14Z</time>
      </trkpt>
      <trkpt lat="46.4964" lon="-1.42223">
        <ele>51</ele>
        <time>2021-09-21T08:47:15Z</time>
      </trkpt>
      <trkpt lat="46.49639" lon="-1.42224">
        <ele>50.9</ele>
        <time>2021-09-21T08:47:16Z</time>
      </trkpt>
      <trkpt lat="46.49637" lon="-1.42224">
        <ele>50.9</ele>
        <time>2021-09-21T08:47:17Z</time>
      </trkpt>
      <trkpt lat="46.49636" lon="-1.42225">
        <ele>50.9</ele>
        <time>2021-09-21T08:47:18Z</time>
      </trkpt>
      <trkpt lat="46.49635" lon="-1.42226">
        <ele>50.9</ele>
        <time>2021-09-21T08:47:19Z</time>
      </trkpt>
      <trkpt lat="46.49634" lon="-1.42226">
        <ele>50.9</ele>
        <time>2021-09-21T08:47:20Z</time>
      </trkpt>
      <trkpt lat="46.49632" lon="-1.42227">
        <ele>50.8</ele>
        <time>2021-09-21T08:47:21Z</time>
      </trkpt>
      <trkpt lat="46.49631" lon="-1.42228">
        <ele>50.8</ele>
        <time>2021-09-21T08:47:22Z</time>
      </trkpt>
      <trkpt lat="46.4963" lon="-1.42228">
        <ele>50.8</ele>
        <time>2021-09-21T08:47:23Z</time>
      </trkpt>
      <trkpt lat="46.49629" lon="-1.42229">
        <ele>50.8</ele>
        <time>2021-09-21T08:47:24Z</time>
      </trkpt>
      <trkpt lat="46.49628" lon="-1.42229">
        <ele>50.7</ele>
        <time>2021-09-21T08:47:25Z</time>
      </trkpt>
      <trkpt lat="46.49626" lon="-1.4223">
        <ele>50.7</ele>
        <time>2021-09-21T08:47:26Z</time>
      </trkpt>
      <trkpt lat="46.49625" lon="-1.42231">
        <ele>50.7</ele>
        <time>2021-09-21T08:47:27Z</time>
      </trkpt>
      <trkpt lat="46.49624" lon="-1.42231">
        <ele>50.7</ele>
        <time>2021-09-21T08:47:28Z</time>
      </trkpt>
      <trkpt lat="46.49623" lon="-1.42232">
        <ele>50.6</ele>
        <time>2021-09-21T08:47:29Z</time>
      </trkpt>
      <trkpt lat="46.49622" lon="-1.42233">
        <ele>50.6</ele>
        <time>2021-09-21T08:47:30Z</time>
      </trkpt>
      <trkpt lat="46.49621" lon="-1.42233">
        <ele>50.6</ele>
        <time>2021-09-21T08:47:31Z</time>
      </trkpt>
      <trkpt lat="46.4962" lon="-1.42234">
        <ele>50.6</ele>
        <time>2021-09-21T08:47:32Z</time>
      </trkpt>
      <trkpt lat="46.49619" lon="-1.42235">
        <ele>50.6</ele>
        <time>2021-09-21T08:47:33Z</time>
      </trkpt>
      <trkpt lat="46.49617" lon="-1.42235">
        <ele>50.5</ele>
        <time>2021-09-21T08:47:34Z</time>
      </trkpt>
      <trkpt lat="46.49616" lon="-1.42236">
        <ele>50.5</ele>
        <time>2021-09-21T08:47:35Z</time>
      </trkpt>
      <trkpt lat="46.49615" lon="-1.42237">
        <ele>50.5</ele>
        <time>2021-09-21T08:47:36Z</time>
      </trkpt>
      <trkpt lat="46.49614" lon="-1.42237">
        <ele>50.5</ele>
        <time>2021-09-21T08:47:37Z</time>
      </trkpt>
      <trkpt lat="46.49613" lon="-1.42238">
        <ele>50.5</ele>
        <time>2021-09-21T08:47:38Z</time>
      </trkpt>
      <trkpt lat="46.49612" lon="-1.42239">
        <ele>50.5</ele>
        <time>2021-09-21T08:47:39Z</time>
      </trkpt>
      <trkpt lat="46.49611" lon="-1.4224">
        <ele>50.4</ele>
        <time>2021-09-21T08:47:40Z</time>
      </trkpt>
      <trkpt lat="46.4961" lon="-1.4224">
        <ele>50.4</ele>
        <time>2021-09-21T08:47:41Z</time>
      </trkpt>
      <trkpt lat="46.49609" lon="-1.42241">
        <ele>50.4</ele>
        <time>2021-09-21T08:47:42Z</time>
      </trkpt>
      <trkpt lat="46.49608" lon="-1.42242">
        <ele>50.4</ele>
        <time>2021-09-21T08:47:43Z</time>
      </trkpt>
      <trkpt lat="46.49607" lon="-1.42243">
        <ele>50.4</ele>
        <time>2021-09-21T08:47:44Z</time>
      </trkpt>
      <trkpt lat="46.49605" lon="-1.42244">
        <ele>50.4</ele>
        <time>2021-09-21T08:47:45Z</time>
      </trkpt>
      <trkpt lat="46.49604" lon="-1.42244">
        <ele>50.3</ele>
        <time>2021-09-21T08:47:46Z</time>
      </trkpt>
      <trkpt lat="46.49603" lon="-1.42245">
        <ele>50.3</ele>
        <time>2021-09-21T08:47:47Z</time>
      </trkpt>
      <trkpt lat="46.49602" lon="-1.42246">
        <ele>50.3</ele>
        <time>2021-09-21T08:47:48Z</time>
      </trkpt>
      <trkpt lat="46.49601" lon="-1.42247">
        <ele>50.3</ele>
        <time>2021-09-21T08:47:49Z</time>
      </trkpt>
      <trkpt lat="46.496" lon="-1.42248">
        <ele>50.3</ele>
        <time>2021-09-21T08:47:50Z</time>
      </trkpt>
      <trkpt lat="46.49599" lon="-1.42249">
        <ele>50.3</ele>
        <time>2021-09-21T08:47:51Z</time>
      </trkpt>
      <trkpt lat="46.49598" lon="-1.4225">
        <ele>50.3</ele>
        <time>2021-09-21T08:47:52Z</time>
      </trkpt>
      <trkpt lat="46.49597" lon="-1.42251">
        <ele>50.2</ele>
        <time>2021-09-21T08:47:53Z</time>
      </trkpt>
      <trkpt lat="46.49596" lon="-1.42252">
        <ele>50.2</ele>
        <time>2021-09-21T08:47:54Z</time>
      </trkpt>
      <trkpt lat="46.49595" lon="-1.42253">
        <ele>50.2</ele>
        <time>2021-09-21T08:47:55Z</time>
      </trkpt>
      <trkpt lat="46.49594" lon="-1.42254">
        <ele>50.2</ele>
        <time>2021-09-21T08:47:56Z</time>
      </trkpt>
      <trkpt lat="46.49593" lon="-1.42255">
        <ele>50.2</ele>
        <time>2021-09-21T08:47:57Z</time>
      </trkpt>
      <trkpt lat="46.49592" lon="-1.42256">
        <ele>50.2</ele>
        <time>2021-09-21T08:47:58Z</time>
      </trkpt>
      <trkpt lat="46.49591" lon="-1.42257">
        <ele>50.2</ele>
        <time>2021-09-21T08:47:59Z</time>
      </trkpt>
      <trkpt lat="46.4959" lon="-1.42258">
        <ele>50.1</ele>
        <time>2021-09-21T08:48:00Z</time>
      </trkpt>
      <trkpt lat="46.49589" lon="-1.42259">
        <ele>50.1</ele>
        <time>2021-09-21T08:48:01Z</time>
      </trkpt>
      <trkpt lat="46.49588" lon="-1.4226">
        <ele>50.1</ele>
        <time>2021-09-21T08:48:02Z</time>
      </trkpt>
      <trkpt lat="46.49587" lon="-1.42261">
        <ele>50.1</ele>
        <time>2021-09-21T08:48:03Z</time>
      </trkpt>
      <trkpt lat="46.49586" lon="-1.42262">
        <ele>50.1</ele>
        <time>2021-09-21T08:48:04Z</time>
      </trkpt>
      <trkpt lat="46.49585" lon="-1.42263">
        <ele>50.1</ele>
        <time>2021-09-21T08:48:05Z</time>
      </trkpt>
      <trkpt lat="46.49584" lon="-1.42264">
        <ele>50.1</ele>
        <time>2021-09-21T08:48:06Z</time>
      </trkpt>
      <trkpt lat="46.49583" lon="-1.42265">
        <ele>50.1</ele>
        <time>2021-09-21T08:48:07Z</time>
      </trkpt>
      <trkpt lat="46.49582" lon="-1.42266">
        <ele>50.1</ele>
        <time>2021-09-21T08:48:08Z</time>
      </trkpt>
      <trkpt lat="46.49581" lon="-1.42267">
        <ele>50</ele>
        <time>2021-09-21T08:48:09Z</time>
      </trkpt>
      <trkpt lat="46.4958" lon="-1.42268">
        <ele>50</ele>
        <time>2021-09-21T08:48:10Z</time>
      </trkpt>
      <trkpt lat="46.49579" lon="-1.42269">
        <ele>50</ele>
        <time>2021-09-21T08:48:11Z</time>
      </trkpt>
      <trkpt lat="46.49578" lon="-1.4227">
        <ele>50</ele>
        <time>2021-09-21T08:48:12Z</time>
      </trkpt>
      <trkpt lat="46.49577" lon="-1.42272">
        <ele>50</ele>
        <time>2021-09-21T08:48:13Z</time>
      </trkpt>
      <trkpt lat="46.49576" lon="-1.42273">
        <ele>50</ele>
        <time>2021-09-21T08:48:14Z</time>
      </trkpt>
      <trkpt lat="46.49575" lon="-1.42274">
        <ele>50</ele>
        <time>2021-09-21T08:48:15Z</time>
      </trkpt>
      <trkpt lat="46.49574" lon="-1.42275">
        <ele>49.9</ele>
        <time>2021-09-21T08:48:16Z</time>
      </trkpt>
      <trkpt lat="46.49573" lon="-1.42276">
        <ele>49.9</ele>
        <time>2021-09-21T08:48:17Z</time>
      </trkpt>
      <trkpt lat="46.49572" lon="-1.42278">
        <ele>49.9</ele>
        <time>2021-09-21T08:48:18Z</time>
      </trkpt>
      <trkpt lat="46.49571" lon="-1.42279">
        <ele>49.9</ele>
        <time>2021-09-21T08:48:19Z</time>
      </trkpt>
      <trkpt lat="46.4957" lon="-1.4228">
        <ele>49.9</ele>
        <time>2021-09-21T08:48:20Z</time>
      </trkpt>
      <trkpt lat="46.49569" lon="-1.42281">
        <ele>49.9</ele>
        <time>2021-09-21T08:48:21Z</time>
      </trkpt>
      <trkpt lat="46.49568" lon="-1.42283">
        <ele>49.8</ele>
        <time>2021-09-21T08:48:22Z</time>
      </trkpt>
      <trkpt lat="46.49567" lon="-1.42284">
        <ele>49.8</ele>
        <time>2021-09-21T08:48:23Z</time>
      </trkpt>
      <trkpt lat="46.49566" lon="-1.42285">
        <ele>49.8</ele>
        <time>2021-09-21T08:48:24Z</time>
      </trkpt>
      <trkpt lat="46.49566" lon="-1.42286">
        <ele>49.8</ele>
        <time>2021-09-21T08:48:25Z</time>
      </trkpt>
      <trkpt lat="46.49565" lon="-1.42288">
        <ele>49.8</ele>
        <time>2021-09-21T08:48:26Z</time>
      </trkpt>
      <trkpt lat="46.49564" lon="-1.42289">
        <ele>49.8</ele>
        <time>2021-09-21T08:48:27Z</time>
      </trkpt>
      <trkpt lat="46.49563" lon="-1.4229">
        <ele>49.8</ele>
        <time>2021-09-21T08:48:28Z</time>
      </trkpt>
      <trkpt lat="46.49562" lon="-1.42291">
        <ele>49.8</ele>
        <time>2021-09-21T08:48:29Z</time>
      </trkpt>
      <trkpt lat="46.49561" lon="-1.42292">
        <ele>49.7</ele>
        <time>2021-09-21T08:48:30Z</time>
      </trkpt>
      <trkpt lat="46.4956" lon="-1.42293">
        <ele>49.7</ele>
        <time>2021-09-21T08:48:31Z</time>
      </trkpt>
      <trkpt lat="46.49559" lon="-1.42293">
        <ele>49.7</ele>
        <time>2021-09-21T08:48:32Z</time>
      </trkpt>
      <trkpt lat="46.49558" lon="-1.42294">
        <ele>49.7</ele>
        <time>2021-09-21T08:48:33Z</time>
      </trkpt>
      <trkpt lat="46.49557" lon="-1.42295">
        <ele>49.7</ele>
        <time>2021-09-21T08:48:34Z</time>
      </trkpt>
      <trkpt lat="46.49556" lon="-1.42295">
        <ele>49.7</ele>
        <time>2021-09-21T08:48:35Z</time>
      </trkpt>
      <trkpt lat="46.49554" lon="-1.42296">
        <ele>49.7</ele>
        <time>2021-09-21T08:48:36Z</time>
      </trkpt>
      <trkpt lat="46.49553" lon="-1.42297">
        <ele>49.7</ele>
        <time>2021-09-21T08:48:37Z</time>
      </trkpt>
      <trkpt lat="46.49552" lon="-1.42298">
        <ele>49.7</ele>
        <time>2021-09-21T08:48:38Z</time>
      </trkpt>
      <trkpt lat="46.49551" lon="-1.42299">
        <ele>49.7</ele>
        <time>2021-09-21T08:48:39Z</time>
      </trkpt>
      <trkpt lat="46.4955" lon="-1.423">
        <ele>49.6</ele>
        <time>2021-09-21T08:48:40Z</time>
      </trkpt>
      <trkpt lat="46.49549" lon="-1.42301">
        <ele>49.6</ele>
        <time>2021-09-21T08:48:41Z</time>
      </trkpt>
      <trkpt lat="46.49548" lon="-1.42303">
        <ele>49.7</ele>
        <time>2021-09-21T08:48:42Z</time>
      </trkpt>
      <trkpt lat="46.49547" lon="-1.42304">
        <ele>49.7</ele>
        <time>2021-09-21T08:48:43Z</time>
      </trkpt>
      <trkpt lat="46.49546" lon="-1.42306">
        <ele>49.7</ele>
        <time>2021-09-21T08:48:44Z</time>
      </trkpt>
      <trkpt lat="46.49545" lon="-1.42307">
        <ele>49.7</ele>
        <time>2021-09-21T08:48:45Z</time>
      </trkpt>
      <trkpt lat="46.49545" lon="-1.42308">
        <ele>49.7</ele>
        <time>2021-09-21T08:48:46Z</time>
      </trkpt>
      <trkpt lat="46.49544" lon="-1.4231">
        <ele>49.7</ele>
        <time>2021-09-21T08:48:47Z</time>
      </trkpt>
      <trkpt lat="46.49543" lon="-1.42311">
        <ele>49.7</ele>
        <time>2021-09-21T08:48:48Z</time>
      </trkpt>
      <trkpt lat="46.49542" lon="-1.42312">
        <ele>49.8</ele>
        <time>2021-09-21T08:48:49Z</time>
      </trkpt>
      <trkpt lat="46.49541" lon="-1.42313">
        <ele>49.8</ele>
        <time>2021-09-21T08:48:50Z</time>
      </trkpt>
      <trkpt lat="46.4954" lon="-1.42315">
        <ele>49.8</ele>
        <time>2021-09-21T08:48:51Z</time>
      </trkpt>
      <trkpt lat="46.49539" lon="-1.42316">
        <ele>49.8</ele>
        <time>2021-09-21T08:48:52Z</time>
      </trkpt>
      <trkpt lat="46.49538" lon="-1.42317">
        <ele>49.8</ele>
        <time>2021-09-21T08:48:53Z</time>
      </trkpt>
      <trkpt lat="46.49537" lon="-1.42318">
        <ele>49.8</ele>
        <time>2021-09-21T08:48:54Z</time>
      </trkpt>
      <trkpt lat="46.49536" lon="-1.42319">
        <ele>49.8</ele>
        <time>2021-09-21T08:48:55Z</time>
      </trkpt>
      <trkpt lat="46.49535" lon="-1.4232">
        <ele>49.8</ele>
        <time>2021-09-21T08:48:56Z</time>
      </trkpt>
      <trkpt lat="46.49534" lon="-1.42321">
        <ele>49.9</ele>
        <time>2021-09-21T08:48:57Z</time>
      </trkpt>
      <trkpt lat="46.49533" lon="-1.42322">
        <ele>49.9</ele>
        <time>2021-09-21T08:48:58Z</time>
      </trkpt>
      <trkpt lat="46.49532" lon="-1.42323">
        <ele>49.9</ele>
        <time>2021-09-21T08:48:59Z</time>
      </trkpt>
      <trkpt lat="46.49531" lon="-1.42324">
        <ele>49.9</ele>
        <time>2021-09-21T08:49:00Z</time>
      </trkpt>
      <trkpt lat="46.4953" lon="-1.42325">
        <ele>49.9</ele>
        <time>2021-09-21T08:49:01Z</time>
      </trkpt>
      <trkpt lat="46.49529" lon="-1.42326">
        <ele>49.9</ele>
        <time>2021-09-21T08:49:02Z</time>
      </trkpt>
      <trkpt lat="46.49528" lon="-1.42327">
        <ele>49.9</ele>
        <time>2021-09-21T08:49:03Z</time>
      </trkpt>
      <trkpt lat="46.49528" lon="-1.42328">
        <ele>50</ele>
        <time>2021-09-21T08:49:04Z</time>
      </trkpt>
      <trkpt lat="46.49527" lon="-1.42329">
        <ele>50</ele>
        <time>2021-09-21T08:49:05Z</time>
      </trkpt>
      <trkpt lat="46.49526" lon="-1.4233">
        <ele>50</ele>
        <time>2021-09-21T08:49:06Z</time>
      </trkpt>
      <trkpt lat="46.49525" lon="-1.42332">
        <ele>50</ele>
        <time>2021-09-21T08:49:07Z</time>
      </trkpt>
      <trkpt lat="46.49524" lon="-1.42333">
        <ele>50</ele>
        <time>2021-09-21T08:49:08Z</time>
      </trkpt>
      <trkpt lat="46.49523" lon="-1.42334">
        <ele>50</ele>
        <time>2021-09-21T08:49:09Z</time>
      </trkpt>
      <trkpt lat="46.49522" lon="-1.42335">
        <ele>50.1</ele>
        <time>2021-09-21T08:49:10Z</time>
      </trkpt>
      <trkpt lat="46.49521" lon="-1.42336">
        <ele>50.1</ele>
        <time>2021-09-21T08:49:11Z</time>
      </trkpt>
      <trkpt lat="46.4952" lon="-1.42338">
        <ele>50.1</ele>
        <time>2021-09-21T08:49:12Z</time>
      </trkpt>
      <trkpt lat="46.49519" lon="-1.42339">
        <ele>50.1</ele>
        <time>2021-09-21T08:49:13Z</time>
      </trkpt>
      <trkpt lat="46.49518" lon="-1.4234">
        <ele>50.1</ele>
        <time>2021-09-21T08:49:14Z</time>
      </trkpt>
      <trkpt lat="46.49517" lon="-1.42341">
        <ele>50.1</ele>
        <time>2021-09-21T08:49:15Z</time>
      </trkpt>
      <trkpt lat="46.49516" lon="-1.42342">
        <ele>50.1</ele>
        <time>2021-09-21T08:49:16Z</time>
      </trkpt>
      <trkpt lat="46.49515" lon="-1.42343">
        <ele>50.2</ele>
        <time>2021-09-21T08:49:17Z</time>
      </trkpt>
      <trkpt lat="46.49514" lon="-1.42344">
        <ele>50.2</ele>
        <time>2021-09-21T08:49:18Z</time>
      </trkpt>
      <trkpt lat="46.49514" lon="-1.42346">
        <ele>50.2</ele>
        <time>2021-09-21T08:49:19Z</time>
      </trkpt>
      <trkpt lat="46.49513" lon="-1.42347">
        <ele>50.2</ele>
        <time>2021-09-21T08:49:20Z</time>
      </trkpt>
      <trkpt lat="46.49512" lon="-1.42348">
        <ele>50.2</ele>
        <time>2021-09-21T08:49:21Z</time>
      </trkpt>
      <trkpt lat="46.49511" lon="-1.42349">
        <ele>50.2</ele>
        <time>2021-09-21T08:49:22Z</time>
      </trkpt>
      <trkpt lat="46.4951" lon="-1.4235">
        <ele>50.3</ele>
        <time>2021-09-21T08:49:23Z</time>
      </trkpt>
      <trkpt lat="46.49509" lon="-1.42351">
        <ele>50.3</ele>
        <time>2021-09-21T08:49:24Z</time>
      </trkpt>
      <trkpt lat="46.49509" lon="-1.42352">
        <ele>50.3</ele>
        <time>2021-09-21T08:49:25Z</time>
      </trkpt>
      <trkpt lat="46.49508" lon="-1.42353">
        <ele>50.3</ele>
        <time>2021-09-21T08:49:26Z</time>
      </trkpt>
      <trkpt lat="46.49507" lon="-1.42354">
        <ele>50.3</ele>
        <time>2021-09-21T08:49:27Z</time>
      </trkpt>
      <trkpt lat="46.49506" lon="-1.42355">
        <ele>50.3</ele>
        <time>2021-09-21T08:49:28Z</time>
      </trkpt>
      <trkpt lat="46.49505" lon="-1.42356">
        <ele>50.3</ele>
        <time>2021-09-21T08:49:29Z</time>
      </trkpt>
      <trkpt lat="46.49504" lon="-1.42358">
        <ele>50.4</ele>
        <time>2021-09-21T08:49:30Z</time>
      </trkpt>
      <trkpt lat="46.49504" lon="-1.42359">
        <ele>50.4</ele>
        <time>2021-09-21T08:49:31Z</time>
      </trkpt>
      <trkpt lat="46.49503" lon="-1.4236">
        <ele>50.4</ele>
        <time>2021-09-21T08:49:32Z</time>
      </trkpt>
      <trkpt lat="46.49502" lon="-1.42361">
        <ele>50.4</ele>
        <time>2021-09-21T08:49:33Z</time>
      </trkpt>
      <trkpt lat="46.49501" lon="-1.42362">
        <ele>50.4</ele>
        <time>2021-09-21T08:49:34Z</time>
      </trkpt>
      <trkpt lat="46.495" lon="-1.42363">
        <ele>50.4</ele>
        <time>2021-09-21T08:49:35Z</time>
      </trkpt>
      <trkpt lat="46.49499" lon="-1.42364">
        <ele>50.5</ele>
        <time>2021-09-21T08:49:36Z</time>
      </trkpt>
      <trkpt lat="46.49498" lon="-1.42365">
        <ele>50.5</ele>
        <time>2021-09-21T08:49:37Z</time>
      </trkpt>
      <trkpt lat="46.49497" lon="-1.42366">
        <ele>50.5</ele>
        <time>2021-09-21T08:49:38Z</time>
      </trkpt>
      <trkpt lat="46.49496" lon="-1.42367">
        <ele>50.5</ele>
        <time>2021-09-21T08:49:39Z</time>
      </trkpt>
      <trkpt lat="46.49495" lon="-1.42368">
        <ele>50.5</ele>
        <time>2021-09-21T08:49:40Z</time>
      </trkpt>
      <trkpt lat="46.49494" lon="-1.42369">
        <ele>50.5</ele>
        <time>2021-09-21T08:49:41Z</time>
      </trkpt>
      <trkpt lat="46.49494" lon="-1.4237">
        <ele>50.5</ele>
        <time>2021-09-21T08:49:42Z</time>
      </trkpt>
      <trkpt lat="46.49493" lon="-1.42371">
        <ele>50.5</ele>
        <time>2021-09-21T08:49:43Z</time>
      </trkpt>
      <trkpt lat="46.49492" lon="-1.42372">
        <ele>50.5</ele>
        <time>2021-09-21T08:49:44Z</time>
      </trkpt>
      <trkpt lat="46.49491" lon="-1.42373">
        <ele>50.5</ele>
        <time>2021-09-21T08:49:45Z</time>
      </trkpt>
      <trkpt lat="46.4949" lon="-1.42374">
        <ele>50.5</ele>
        <time>2021-09-21T08:49:46Z</time>
      </trkpt>
      <trkpt lat="46.49489" lon="-1.42375">
        <ele>50.5</ele>
        <time>2021-09-21T08:49:47Z</time>
      </trkpt>
      <trkpt lat="46.49488" lon="-1.42375">
        <ele>50.5</ele>
        <time>2021-09-21T08:49:48Z</time>
      </trkpt>
      <trkpt lat="46.49487" lon="-1.42376">
        <ele>50.5</ele>
        <time>2021-09-21T08:49:49Z</time>
      </trkpt>
      <trkpt lat="46.49486" lon="-1.42377">
        <ele>50.5</ele>
        <time>2021-09-21T08:49:50Z</time>
      </trkpt>
      <trkpt lat="46.49485" lon="-1.42378">
        <ele>50.5</ele>
        <time>2021-09-21T08:49:51Z</time>
      </trkpt>
      <trkpt lat="46.49484" lon="-1.42379">
        <ele>50.5</ele>
        <time>2021-09-21T08:49:52Z</time>
      </trkpt>
      <trkpt lat="46.49483" lon="-1.4238">
        <ele>50.5</ele>
        <time>2021-09-21T08:49:53Z</time>
      </trkpt>
      <trkpt lat="46.49482" lon="-1.4238">
        <ele>50.5</ele>
        <time>2021-09-21T08:49:54Z</time>
      </trkpt>
      <trkpt lat="46.4948" lon="-1.42381">
        <ele>50.5</ele>
        <time>2021-09-21T08:49:55Z</time>
      </trkpt>
      <trkpt lat="46.49479" lon="-1.42382">
        <ele>50.5</ele>
        <time>2021-09-21T08:49:56Z</time>
      </trkpt>
      <trkpt lat="46.49478" lon="-1.42382">
        <ele>50.5</ele>
        <time>2021-09-21T08:49:57Z</time>
      </trkpt>
      <trkpt lat="46.49477" lon="-1.42383">
        <ele>50.5</ele>
        <time>2021-09-21T08:49:58Z</time>
      </trkpt>
      <trkpt lat="46.49476" lon="-1.42384">
        <ele>50.5</ele>
        <time>2021-09-21T08:49:59Z</time>
      </trkpt>
      <trkpt lat="46.49475" lon="-1.42384">
        <ele>50.5</ele>
        <time>2021-09-21T08:50:00Z</time>
      </trkpt>
      <trkpt lat="46.49474" lon="-1.42385">
        <ele>50.5</ele>
        <time>2021-09-21T08:50:01Z</time>
      </trkpt>
      <trkpt lat="46.49473" lon="-1.42386">
        <ele>50.5</ele>
        <time>2021-09-21T08:50:02Z</time>
      </trkpt>
      <trkpt lat="46.49471" lon="-1.42386">
        <ele>50.5</ele>
        <time>2021-09-21T08:50:03Z</time>
      </trkpt>
      <trkpt lat="46.4947" lon="-1.42387">
        <ele>50.5</ele>
        <time>2021-09-21T08:50:04Z</time>
      </trkpt>
      <trkpt lat="46.49469" lon="-1.42387">
        <ele>50.5</ele>
        <time>2021-09-21T08:50:05Z</time>
      </trkpt>
      <trkpt lat="46.49468" lon="-1.42388">
        <ele>50.5</ele>
        <time>2021-09-21T08:50:06Z</time>
      </trkpt>
      <trkpt lat="46.49467" lon="-1.42389">
        <ele>50.5</ele>
        <time>2021-09-21T08:50:07Z</time>
      </trkpt>
      <trkpt lat="46.49466" lon="-1.42389">
        <ele>50.5</ele>
        <time>2021-09-21T08:50:08Z</time>
      </trkpt>
      <trkpt lat="46.49465" lon="-1.4239">
        <ele>50.5</ele>
        <time>2021-09-21T08:50:09Z</time>
      </trkpt>
      <trkpt lat="46.49464" lon="-1.42391">
        <ele>50.5</ele>
        <time>2021-09-21T08:50:10Z</time>
      </trkpt>
      <trkpt lat="46.49463" lon="-1.42391">
        <ele>50.5</ele>
        <time>2021-09-21T08:50:11Z</time>
      </trkpt>
      <trkpt lat="46.49462" lon="-1.42392">
        <ele>50.5</ele>
        <time>2021-09-21T08:50:12Z</time>
      </trkpt>
      <trkpt lat="46.49461" lon="-1.42393">
        <ele>50.5</ele>
        <time>2021-09-21T08:50:13Z</time>
      </trkpt>
      <trkpt lat="46.4946" lon="-1.42393">
        <ele>50.5</ele>
        <time>2021-09-21T08:50:14Z</time>
      </trkpt>
      <trkpt lat="46.49459" lon="-1.42394">
        <ele>50.5</ele>
        <time>2021-09-21T08:50:15Z</time>
      </trkpt>
      <trkpt lat="46.49458" lon="-1.42395">
        <ele>50.5</ele>
        <time>2021-09-21T08:50:16Z</time>
      </trkpt>
      <trkpt lat="46.49457" lon="-1.42396">
        <ele>50.5</ele>
        <time>2021-09-21T08:50:17Z</time>
      </trkpt>
      <trkpt lat="46.49456" lon="-1.42396">
        <ele>50.5</ele>
        <time>2021-09-21T08:50:18Z</time>
      </trkpt>
      <trkpt lat="46.49455" lon="-1.42397">
        <ele>50.4</ele>
        <time>2021-09-21T08:50:19Z</time>
      </trkpt>
      <trkpt lat="46.49454" lon="-1.42398">
        <ele>50.4</ele>
        <time>2021-09-21T08:50:20Z</time>
      </trkpt>
      <trkpt lat="46.49453" lon="-1.42399">
        <ele>50.4</ele>
        <time>2021-09-21T08:50:21Z</time>
      </trkpt>
      <trkpt lat="46.49452" lon="-1.424">
        <ele>50.4</ele>
        <time>2021-09-21T08:50:22Z</time>
      </trkpt>
      <trkpt lat="46.49451" lon="-1.42401">
        <ele>50.4</ele>
        <time>2021-09-21T08:50:23Z</time>
      </trkpt>
      <trkpt lat="46.49449" lon="-1.42402">
        <ele>50.4</ele>
        <time>2021-09-21T08:50:24Z</time>
      </trkpt>
      <trkpt lat="46.49448" lon="-1.42403">
        <ele>50.4</ele>
        <time>2021-09-21T08:50:25Z</time>
      </trkpt>
      <trkpt lat="46.49447" lon="-1.42404">
        <ele>50.4</ele>
        <time>2021-09-21T08:50:26Z</time>
      </trkpt>
      <trkpt lat="46.49446" lon="-1.42405">
        <ele>50.4</ele>
        <time>2021-09-21T08:50:27Z</time>
      </trkpt>
      <trkpt lat="46.49444" lon="-1.42406">
        <ele>50.4</ele>
        <time>2021-09-21T08:50:28Z</time>
      </trkpt>
      <trkpt lat="46.49443" lon="-1.42407">
        <ele>50.4</ele>
        <time>2021-09-21T08:50:29Z</time>
      </trkpt>
      <trkpt lat="46.49442" lon="-1.42408">
        <ele>50.4</ele>
        <time>2021-09-21T08:50:30Z</time>
      </trkpt>
      <trkpt lat="46.4944" lon="-1.42408">
        <ele>50.4</ele>
        <time>2021-09-21T08:50:31Z</time>
      </trkpt>
      <trkpt lat="46.49439" lon="-1.42409">
        <ele>50.4</ele>
        <time>2021-09-21T08:50:32Z</time>
      </trkpt>
      <trkpt lat="46.49438" lon="-1.4241">
        <ele>50.4</ele>
        <time>2021-09-21T08:50:33Z</time>
      </trkpt>
      <trkpt lat="46.49437" lon="-1.42411">
        <ele>50.3</ele>
        <time>2021-09-21T08:50:34Z</time>
      </trkpt>
      <trkpt lat="46.49435" lon="-1.42412">
        <ele>50.3</ele>
        <time>2021-09-21T08:50:35Z</time>
      </trkpt>
      <trkpt lat="46.49434" lon="-1.42412">
        <ele>50.3</ele>
        <time>2021-09-21T08:50:36Z</time>
      </trkpt>
      <trkpt lat="46.49433" lon="-1.42413">
        <ele>50.3</ele>
        <time>2021-09-21T08:50:37Z</time>
      </trkpt>
      <trkpt lat="46.49432" lon="-1.42414">
        <ele>50.3</ele>
        <time>2021-09-21T08:50:38Z</time>
      </trkpt>
      <trkpt lat="46.4943" lon="-1.42415">
        <ele>50.3</ele>
        <time>2021-09-21T08:50:39Z</time>
      </trkpt>
      <trkpt lat="46.49429" lon="-1.42416">
        <ele>50.3</ele>
        <time>2021-09-21T08:50:40Z</time>
      </trkpt>
      <trkpt lat="46.49428" lon="-1.42416">
        <ele>50.3</ele>
        <time>2021-09-21T08:50:41Z</time>
      </trkpt>
      <trkpt lat="46.49427" lon="-1.42417">
        <ele>50.3</ele>
        <time>2021-09-21T08:50:42Z</time>
      </trkpt>
      <trkpt lat="46.49426" lon="-1.42418">
        <ele>50.3</ele>
        <time>2021-09-21T08:50:43Z</time>
      </trkpt>
      <trkpt lat="46.49425" lon="-1.42419">
        <ele>50.3</ele>
        <time>2021-09-21T08:50:44Z</time>
      </trkpt>
      <trkpt lat="46.49423" lon="-1.4242">
        <ele>50.3</ele>
        <time>2021-09-21T08:50:45Z</time>
      </trkpt>
      <trkpt lat="46.49422" lon="-1.42421">
        <ele>50.3</ele>
        <time>2021-09-21T08:50:46Z</time>
      </trkpt>
      <trkpt lat="46.49421" lon="-1.42422">
        <ele>50.3</ele>
        <time>2021-09-21T08:50:47Z</time>
      </trkpt>
      <trkpt lat="46.4942" lon="-1.42423">
        <ele>50.3</ele>
        <time>2021-09-21T08:50:48Z</time>
      </trkpt>
      <trkpt lat="46.49419" lon="-1.42424">
        <ele>50.3</ele>
        <time>2021-09-21T08:50:49Z</time>
      </trkpt>
      <trkpt lat="46.49418" lon="-1.42425">
        <ele>50.3</ele>
        <time>2021-09-21T08:50:50Z</time>
      </trkpt>
      <trkpt lat="46.49417" lon="-1.42426">
        <ele>50.3</ele>
        <time>2021-09-21T08:50:51Z</time>
      </trkpt>
      <trkpt lat="46.49416" lon="-1.42427">
        <ele>50.3</ele>
        <time>2021-09-21T08:50:52Z</time>
      </trkpt>
      <trkpt lat="46.49415" lon="-1.42428">
        <ele>50.3</ele>
        <time>2021-09-21T08:50:53Z</time>
      </trkpt>
      <trkpt lat="46.49414" lon="-1.42428">
        <ele>50.3</ele>
        <time>2021-09-21T08:50:54Z</time>
      </trkpt>
      <trkpt lat="46.49412" lon="-1.42429">
        <ele>50.3</ele>
        <time>2021-09-21T08:50:55Z</time>
      </trkpt>
      <trkpt lat="46.49411" lon="-1.4243">
        <ele>50.3</ele>
        <time>2021-09-21T08:50:56Z</time>
      </trkpt>
      <trkpt lat="46.4941" lon="-1.42431">
        <ele>50.3</ele>
        <time>2021-09-21T08:50:57Z</time>
      </trkpt>
      <trkpt lat="46.49409" lon="-1.42432">
        <ele>50.3</ele>
        <time>2021-09-21T08:50:58Z</time>
      </trkpt>
      <trkpt lat="46.49408" lon="-1.42433">
        <ele>50.3</ele>
        <time>2021-09-21T08:50:59Z</time>
      </trkpt>
      <trkpt lat="46.49407" lon="-1.42434">
        <ele>50.3</ele>
        <time>2021-09-21T08:51:00Z</time>
      </trkpt>
      <trkpt lat="46.49406" lon="-1.42435">
        <ele>50.3</ele>
        <time>2021-09-21T08:51:01Z</time>
      </trkpt>
      <trkpt lat="46.49405" lon="-1.42436">
        <ele>50.3</ele>
        <time>2021-09-21T08:51:02Z</time>
      </trkpt>
      <trkpt lat="46.49403" lon="-1.42437">
        <ele>50.3</ele>
        <time>2021-09-21T08:51:03Z</time>
      </trkpt>
      <trkpt lat="46.49402" lon="-1.42438">
        <ele>50.3</ele>
        <time>2021-09-21T08:51:04Z</time>
      </trkpt>
      <trkpt lat="46.49401" lon="-1.42439">
        <ele>50.3</ele>
        <time>2021-09-21T08:51:05Z</time>
      </trkpt>
      <trkpt lat="46.494" lon="-1.4244">
        <ele>50.3</ele>
        <time>2021-09-21T08:51:06Z</time>
      </trkpt>
      <trkpt lat="46.49399" lon="-1.42441">
        <ele>50.3</ele>
        <time>2021-09-21T08:51:07Z</time>
      </trkpt>
      <trkpt lat="46.49397" lon="-1.42442">
        <ele>50.3</ele>
        <time>2021-09-21T08:51:08Z</time>
      </trkpt>
      <trkpt lat="46.49396" lon="-1.42443">
        <ele>50.3</ele>
        <time>2021-09-21T08:51:09Z</time>
      </trkpt>
      <trkpt lat="46.49395" lon="-1.42444">
        <ele>50.3</ele>
        <time>2021-09-21T08:51:10Z</time>
      </trkpt>
      <trkpt lat="46.49394" lon="-1.42445">
        <ele>50.3</ele>
        <time>2021-09-21T08:51:11Z</time>
      </trkpt>
      <trkpt lat="46.49393" lon="-1.42447">
        <ele>50.3</ele>
        <time>2021-09-21T08:51:12Z</time>
      </trkpt>
      <trkpt lat="46.49392" lon="-1.42448">
        <ele>50.3</ele>
        <time>2021-09-21T08:51:13Z</time>
      </trkpt>
      <trkpt lat="46.49391" lon="-1.42449">
        <ele>50.3</ele>
        <time>2021-09-21T08:51:14Z</time>
      </trkpt>
      <trkpt lat="46.4939" lon="-1.4245">
        <ele>50.3</ele>
        <time>2021-09-21T08:51:15Z</time>
      </trkpt>
      <trkpt lat="46.49389" lon="-1.42451">
        <ele>50.3</ele>
        <time>2021-09-21T08:51:16Z</time>
      </trkpt>
      <trkpt lat="46.49388" lon="-1.42452">
        <ele>50.3</ele>
        <time>2021-09-21T08:51:17Z</time>
      </trkpt>
      <trkpt lat="46.49387" lon="-1.42453">
        <ele>50.3</ele>
        <time>2021-09-21T08:51:18Z</time>
      </trkpt>
      <trkpt lat="46.49386" lon="-1.42453">
        <ele>50.3</ele>
        <time>2021-09-21T08:51:19Z</time>
      </trkpt>
      <trkpt lat="46.49385" lon="-1.42454">
        <ele>50.3</ele>
        <time>2021-09-21T08:51:20Z</time>
      </trkpt>
      <trkpt lat="46.49384" lon="-1.42454">
        <ele>50.3</ele>
        <time>2021-09-21T08:51:21Z</time>
      </trkpt>
      <trkpt lat="46.49384" lon="-1.42455">
        <ele>50.3</ele>
        <time>2021-09-21T08:51:22Z</time>
      </trkpt>
      <trkpt lat="46.49383" lon="-1.42455">
        <ele>50.3</ele>
        <time>2021-09-21T08:51:23Z</time>
      </trkpt>
      <trkpt lat="46.49382" lon="-1.42455">
        <ele>50.3</ele>
        <time>2021-09-21T08:51:24Z</time>
      </trkpt>
      <trkpt lat="46.49381" lon="-1.42455">
        <ele>50.3</ele>
        <time>2021-09-21T08:51:25Z</time>
      </trkpt>
      <trkpt lat="46.49381" lon="-1.42455">
        <ele>50.3</ele>
        <time>2021-09-21T08:51:26Z</time>
      </trkpt>
      <trkpt lat="46.4938" lon="-1.42455">
        <ele>50.3</ele>
        <time>2021-09-21T08:51:27Z</time>
      </trkpt>
      <trkpt lat="46.49379" lon="-1.42456">
        <ele>50.3</ele>
        <time>2021-09-21T08:51:28Z</time>
      </trkpt>
      <trkpt lat="46.49378" lon="-1.42457">
        <ele>50.3</ele>
        <time>2021-09-21T08:51:29Z</time>
      </trkpt>
      <trkpt lat="46.49377" lon="-1.42459">
        <ele>50.3</ele>
        <time>2021-09-21T08:51:30Z</time>
      </trkpt>
      <trkpt lat="46.49376" lon="-1.42461">
        <ele>50.3</ele>
        <time>2021-09-21T08:51:31Z</time>
      </trkpt>
      <trkpt lat="46.49374" lon="-1.42462">
        <ele>50.3</ele>
        <time>2021-09-21T08:51:32Z</time>
      </trkpt>
      <trkpt lat="46.49373" lon="-1.42463">
        <ele>50.3</ele>
        <time>2021-09-21T08:51:33Z</time>
      </trkpt>
      <trkpt lat="46.49372" lon="-1.42464">
        <ele>50.3</ele>
        <time>2021-09-21T08:51:34Z</time>
      </trkpt>
      <trkpt lat="46.49371" lon="-1.42465">
        <ele>50.4</ele>
        <time>2021-09-21T08:51:35Z</time>
      </trkpt>
      <trkpt lat="46.49369" lon="-1.42465">
        <ele>50.4</ele>
        <time>2021-09-21T08:51:36Z</time>
      </trkpt>
      <trkpt lat="46.49368" lon="-1.42466">
        <ele>50.4</ele>
        <time>2021-09-21T08:51:37Z</time>
      </trkpt>
      <trkpt lat="46.49367" lon="-1.42467">
        <ele>50.4</ele>
        <time>2021-09-21T08:51:38Z</time>
      </trkpt>
      <trkpt lat="46.49366" lon="-1.42467">
        <ele>50.4</ele>
        <time>2021-09-21T08:51:39Z</time>
      </trkpt>
      <trkpt lat="46.49365" lon="-1.42468">
        <ele>50.4</ele>
        <time>2021-09-21T08:51:40Z</time>
      </trkpt>
      <trkpt lat="46.49365" lon="-1.42469">
        <ele>50.4</ele>
        <time>2021-09-21T08:51:41Z</time>
      </trkpt>
      <trkpt lat="46.49364" lon="-1.4247">
        <ele>50.4</ele>
        <time>2021-09-21T08:51:42Z</time>
      </trkpt>
      <trkpt lat="46.49363" lon="-1.42471">
        <ele>50.4</ele>
        <time>2021-09-21T08:51:43Z</time>
      </trkpt>
      <trkpt lat="46.49362" lon="-1.42472">
        <ele>50.4</ele>
        <time>2021-09-21T08:51:44Z</time>
      </trkpt>
      <trkpt lat="46.49361" lon="-1.42473">
        <ele>50.4</ele>
        <time>2021-09-21T08:51:45Z</time>
      </trkpt>
      <trkpt lat="46.4936" lon="-1.42474">
        <ele>50.4</ele>
        <time>2021-09-21T08:51:46Z</time>
      </trkpt>
      <trkpt lat="46.49359" lon="-1.42475">
        <ele>50.4</ele>
        <time>2021-09-21T08:51:47Z</time>
      </trkpt>
      <trkpt lat="46.49358" lon="-1.42477">
        <ele>50.4</ele>
        <time>2021-09-21T08:51:48Z</time>
      </trkpt>
      <trkpt lat="46.49357" lon="-1.42478">
        <ele>50.4</ele>
        <time>2021-09-21T08:51:49Z</time>
      </trkpt>
      <trkpt lat="46.49356" lon="-1.42479">
        <ele>50.4</ele>
        <time>2021-09-21T08:51:50Z</time>
      </trkpt>
      <trkpt lat="46.49355" lon="-1.4248">
        <ele>50.4</ele>
        <time>2021-09-21T08:51:51Z</time>
      </trkpt>
      <trkpt lat="46.49354" lon="-1.42481">
        <ele>50.4</ele>
        <time>2021-09-21T08:51:52Z</time>
      </trkpt>
      <trkpt lat="46.49352" lon="-1.42482">
        <ele>50.4</ele>
        <time>2021-09-21T08:51:53Z</time>
      </trkpt>
      <trkpt lat="46.49351" lon="-1.42483">
        <ele>50.4</ele>
        <time>2021-09-21T08:51:54Z</time>
      </trkpt>
      <trkpt lat="46.4935" lon="-1.42484">
        <ele>50.4</ele>
        <time>2021-09-21T08:51:55Z</time>
      </trkpt>
      <trkpt lat="46.49349" lon="-1.42485">
        <ele>50.4</ele>
        <time>2021-09-21T08:51:56Z</time>
      </trkpt>
      <trkpt lat="46.49348" lon="-1.42486">
        <ele>50.4</ele>
        <time>2021-09-21T08:51:57Z</time>
      </trkpt>
      <trkpt lat="46.49347" lon="-1.42486">
        <ele>50.4</ele>
        <time>2021-09-21T08:51:58Z</time>
      </trkpt>
      <trkpt lat="46.49345" lon="-1.42487">
        <ele>50.4</ele>
        <time>2021-09-21T08:51:59Z</time>
      </trkpt>
      <trkpt lat="46.49344" lon="-1.42487">
        <ele>50.4</ele>
        <time>2021-09-21T08:52:00Z</time>
      </trkpt>
      <trkpt lat="46.49343" lon="-1.42488">
        <ele>50.4</ele>
        <time>2021-09-21T08:52:01Z</time>
      </trkpt>
      <trkpt lat="46.49342" lon="-1.42488">
        <ele>50.4</ele>
        <time>2021-09-21T08:52:02Z</time>
      </trkpt>
      <trkpt lat="46.49341" lon="-1.42489">
        <ele>50.4</ele>
        <time>2021-09-21T08:52:03Z</time>
      </trkpt>
      <trkpt lat="46.4934" lon="-1.42489">
        <ele>50.4</ele>
        <time>2021-09-21T08:52:04Z</time>
      </trkpt>
      <trkpt lat="46.4934" lon="-1.42489">
        <ele>50.4</ele>
        <time>2021-09-21T08:52:05Z</time>
      </trkpt>
      <trkpt lat="46.49339" lon="-1.42489">
        <ele>50.4</ele>
        <time>2021-09-21T08:52:06Z</time>
      </trkpt>
      <trkpt lat="46.49338" lon="-1.4249">
        <ele>50.4</ele>
        <time>2021-09-21T08:52:07Z</time>
      </trkpt>
      <trkpt lat="46.49337" lon="-1.4249">
        <ele>50.4</ele>
        <time>2021-09-21T08:52:08Z</time>
      </trkpt>
      <trkpt lat="46.49337" lon="-1.4249">
        <ele>50.4</ele>
        <time>2021-09-21T08:52:09Z</time>
      </trkpt>
      <trkpt lat="46.49336" lon="-1.42491">
        <ele>50.4</ele>
        <time>2021-09-21T08:52:10Z</time>
      </trkpt>
      <trkpt lat="46.49336" lon="-1.42492">
        <ele>50.4</ele>
        <time>2021-09-21T08:52:11Z</time>
      </trkpt>
      <trkpt lat="46.49335" lon="-1.42492">
        <ele>50.4</ele>
        <time>2021-09-21T08:52:12Z</time>
      </trkpt>
      <trkpt lat="46.49335" lon="-1.42493">
        <ele>50.4</ele>
        <time>2021-09-21T08:52:13Z</time>
      </trkpt>
      <trkpt lat="46.49334" lon="-1.42494">
        <ele>50.4</ele>
        <time>2021-09-21T08:52:14Z</time>
      </trkpt>
      <trkpt lat="46.49333" lon="-1.42494">
        <ele>50.4</ele>
        <time>2021-09-21T08:52:15Z</time>
      </trkpt>
      <trkpt lat="46.49332" lon="-1.42495">
        <ele>50.4</ele>
        <time>2021-09-21T08:52:16Z</time>
      </trkpt>
      <trkpt lat="46.49331" lon="-1.42496">
        <ele>50.4</ele>
        <time>2021-09-21T08:52:17Z</time>
      </trkpt>
      <trkpt lat="46.4933" lon="-1.42497">
        <ele>50.4</ele>
        <time>2021-09-21T08:52:18Z</time>
      </trkpt>
      <trkpt lat="46.49329" lon="-1.42499">
        <ele>50.4</ele>
        <time>2021-09-21T08:52:19Z</time>
      </trkpt>
      <trkpt lat="46.49328" lon="-1.425">
        <ele>50.4</ele>
        <time>2021-09-21T08:52:20Z</time>
      </trkpt>
      <trkpt lat="46.49327" lon="-1.42501">
        <ele>50.3</ele>
        <time>2021-09-21T08:52:21Z</time>
      </trkpt>
      <trkpt lat="46.49326" lon="-1.42502">
        <ele>50.3</ele>
        <time>2021-09-21T08:52:22Z</time>
      </trkpt>
      <trkpt lat="46.49325" lon="-1.42502">
        <ele>50.3</ele>
        <time>2021-09-21T08:52:23Z</time>
      </trkpt>
      <trkpt lat="46.49325" lon="-1.42503">
        <ele>50.3</ele>
        <time>2021-09-21T08:52:24Z</time>
      </trkpt>
      <trkpt lat="46.49324" lon="-1.42504">
        <ele>50.3</ele>
        <time>2021-09-21T08:52:25Z</time>
      </trkpt>
      <trkpt lat="46.49323" lon="-1.42504">
        <ele>50.3</ele>
        <time>2021-09-21T08:52:26Z</time>
      </trkpt>
      <trkpt lat="46.49323" lon="-1.42505">
        <ele>50.3</ele>
        <time>2021-09-21T08:52:27Z</time>
      </trkpt>
      <trkpt lat="46.49322" lon="-1.42506">
        <ele>50.3</ele>
        <time>2021-09-21T08:52:28Z</time>
      </trkpt>
      <trkpt lat="46.49322" lon="-1.42506">
        <ele>50.2</ele>
        <time>2021-09-21T08:52:29Z</time>
      </trkpt>
      <trkpt lat="46.49321" lon="-1.42507">
        <ele>50.2</ele>
        <time>2021-09-21T08:52:30Z</time>
      </trkpt>
      <trkpt lat="46.4932" lon="-1.42508">
        <ele>50.2</ele>
        <time>2021-09-21T08:52:31Z</time>
      </trkpt>
      <trkpt lat="46.49319" lon="-1.4251">
        <ele>50.2</ele>
        <time>2021-09-21T08:52:32Z</time>
      </trkpt>
      <trkpt lat="46.49319" lon="-1.42511">
        <ele>50.2</ele>
        <time>2021-09-21T08:52:33Z</time>
      </trkpt>
      <trkpt lat="46.49318" lon="-1.42513">
        <ele>50.1</ele>
        <time>2021-09-21T08:52:34Z</time>
      </trkpt>
      <trkpt lat="46.49316" lon="-1.42514">
        <ele>50.1</ele>
        <time>2021-09-21T08:52:35Z</time>
      </trkpt>
      <trkpt lat="46.49315" lon="-1.42516">
        <ele>50.1</ele>
        <time>2021-09-21T08:52:36Z</time>
      </trkpt>
      <trkpt lat="46.49314" lon="-1.42518">
        <ele>50.1</ele>
        <time>2021-09-21T08:52:37Z</time>
      </trkpt>
      <trkpt lat="46.49313" lon="-1.42519">
        <ele>50</ele>
        <time>2021-09-21T08:52:38Z</time>
      </trkpt>
      <trkpt lat="46.49312" lon="-1.42521">
        <ele>50</ele>
        <time>2021-09-21T08:52:39Z</time>
      </trkpt>
      <trkpt lat="46.49311" lon="-1.42522">
        <ele>50</ele>
        <time>2021-09-21T08:52:40Z</time>
      </trkpt>
      <trkpt lat="46.4931" lon="-1.42524">
        <ele>50</ele>
        <time>2021-09-21T08:52:41Z</time>
      </trkpt>
      <trkpt lat="46.49309" lon="-1.42525">
        <ele>50</ele>
        <time>2021-09-21T08:52:42Z</time>
      </trkpt>
      <trkpt lat="46.49308" lon="-1.42526">
        <ele>50</ele>
        <time>2021-09-21T08:52:43Z</time>
      </trkpt>
      <trkpt lat="46.49307" lon="-1.42527">
        <ele>49.9</ele>
        <time>2021-09-21T08:52:44Z</time>
      </trkpt>
      <trkpt lat="46.49306" lon="-1.42528">
        <ele>49.9</ele>
        <time>2021-09-21T08:52:45Z</time>
      </trkpt>
      <trkpt lat="46.49305" lon="-1.42529">
        <ele>49.9</ele>
        <time>2021-09-21T08:52:46Z</time>
      </trkpt>
      <trkpt lat="46.49304" lon="-1.42529">
        <ele>49.9</ele>
        <time>2021-09-21T08:52:47Z</time>
      </trkpt>
      <trkpt lat="46.49303" lon="-1.4253">
        <ele>49.9</ele>
        <time>2021-09-21T08:52:48Z</time>
      </trkpt>
      <trkpt lat="46.49302" lon="-1.42531">
        <ele>49.9</ele>
        <time>2021-09-21T08:52:49Z</time>
      </trkpt>
      <trkpt lat="46.49301" lon="-1.42531">
        <ele>49.9</ele>
        <time>2021-09-21T08:52:50Z</time>
      </trkpt>
      <trkpt lat="46.493" lon="-1.42532">
        <ele>49.9</ele>
        <time>2021-09-21T08:52:51Z</time>
      </trkpt>
      <trkpt lat="46.49299" lon="-1.42533">
        <ele>49.8</ele>
        <time>2021-09-21T08:52:52Z</time>
      </trkpt>
      <trkpt lat="46.49298" lon="-1.42534">
        <ele>49.8</ele>
        <time>2021-09-21T08:52:53Z</time>
      </trkpt>
      <trkpt lat="46.49297" lon="-1.42535">
        <ele>49.8</ele>
        <time>2021-09-21T08:52:54Z</time>
      </trkpt>
      <trkpt lat="46.49296" lon="-1.42537">
        <ele>49.7</ele>
        <time>2021-09-21T08:52:55Z</time>
      </trkpt>
      <trkpt lat="46.49295" lon="-1.42539">
        <ele>49.7</ele>
        <time>2021-09-21T08:52:56Z</time>
      </trkpt>
      <trkpt lat="46.49294" lon="-1.4254">
        <ele>49.7</ele>
        <time>2021-09-21T08:52:57Z</time>
      </trkpt>
      <trkpt lat="46.49293" lon="-1.42542">
        <ele>49.7</ele>
        <time>2021-09-21T08:52:58Z</time>
      </trkpt>
      <trkpt lat="46.49292" lon="-1.42543">
        <ele>49.7</ele>
        <time>2021-09-21T08:52:59Z</time>
      </trkpt>
      <trkpt lat="46.49291" lon="-1.42545">
        <ele>49.7</ele>
        <time>2021-09-21T08:53:00Z</time>
      </trkpt>
      <trkpt lat="46.4929" lon="-1.42546">
        <ele>49.7</ele>
        <time>2021-09-21T08:53:01Z</time>
      </trkpt>
      <trkpt lat="46.49289" lon="-1.42547">
        <ele>49.6</ele>
        <time>2021-09-21T08:53:02Z</time>
      </trkpt>
      <trkpt lat="46.49288" lon="-1.42548">
        <ele>49.6</ele>
        <time>2021-09-21T08:53:03Z</time>
      </trkpt>
      <trkpt lat="46.49287" lon="-1.42549">
        <ele>49.6</ele>
        <time>2021-09-21T08:53:04Z</time>
      </trkpt>
      <trkpt lat="46.49286" lon="-1.42549">
        <ele>49.6</ele>
        <time>2021-09-21T08:53:05Z</time>
      </trkpt>
      <trkpt lat="46.49285" lon="-1.4255">
        <ele>49.6</ele>
        <time>2021-09-21T08:53:06Z</time>
      </trkpt>
      <trkpt lat="46.49284" lon="-1.42551">
        <ele>49.6</ele>
        <time>2021-09-21T08:53:07Z</time>
      </trkpt>
      <trkpt lat="46.49284" lon="-1.42552">
        <ele>49.6</ele>
        <time>2021-09-21T08:53:08Z</time>
      </trkpt>
      <trkpt lat="46.49283" lon="-1.42552">
        <ele>49.6</ele>
        <time>2021-09-21T08:53:09Z</time>
      </trkpt>
      <trkpt lat="46.49282" lon="-1.42553">
        <ele>49.6</ele>
        <time>2021-09-21T08:53:10Z</time>
      </trkpt>
      <trkpt lat="46.49281" lon="-1.42554">
        <ele>49.6</ele>
        <time>2021-09-21T08:53:11Z</time>
      </trkpt>
      <trkpt lat="46.4928" lon="-1.42555">
        <ele>49.5</ele>
        <time>2021-09-21T08:53:12Z</time>
      </trkpt>
      <trkpt lat="46.49279" lon="-1.42556">
        <ele>49.5</ele>
        <time>2021-09-21T08:53:13Z</time>
      </trkpt>
      <trkpt lat="46.49278" lon="-1.42557">
        <ele>49.5</ele>
        <time>2021-09-21T08:53:14Z</time>
      </trkpt>
      <trkpt lat="46.49277" lon="-1.42558">
        <ele>49.5</ele>
        <time>2021-09-21T08:53:15Z</time>
      </trkpt>
      <trkpt lat="46.49276" lon="-1.42559">
        <ele>49.5</ele>
        <time>2021-09-21T08:53:16Z</time>
      </trkpt>
      <trkpt lat="46.49275" lon="-1.4256">
        <ele>49.5</ele>
        <time>2021-09-21T08:53:17Z</time>
      </trkpt>
      <trkpt lat="46.49274" lon="-1.42561">
        <ele>49.4</ele>
        <time>2021-09-21T08:53:18Z</time>
      </trkpt>
      <trkpt lat="46.49273" lon="-1.42562">
        <ele>49.4</ele>
        <time>2021-09-21T08:53:19Z</time>
      </trkpt>
      <trkpt lat="46.49272" lon="-1.42563">
        <ele>49.4</ele>
        <time>2021-09-21T08:53:20Z</time>
      </trkpt>
      <trkpt lat="46.49271" lon="-1.42564">
        <ele>49.4</ele>
        <time>2021-09-21T08:53:21Z</time>
      </trkpt>
      <trkpt lat="46.49271" lon="-1.42565">
        <ele>49.4</ele>
        <time>2021-09-21T08:53:22Z</time>
      </trkpt>
      <trkpt lat="46.4927" lon="-1.42566">
        <ele>49.4</ele>
        <time>2021-09-21T08:53:23Z</time>
      </trkpt>
      <trkpt lat="46.49269" lon="-1.42567">
        <ele>49.4</ele>
        <time>2021-09-21T08:53:24Z</time>
      </trkpt>
      <trkpt lat="46.49268" lon="-1.42568">
        <ele>49.3</ele>
        <time>2021-09-21T08:53:25Z</time>
      </trkpt>
      <trkpt lat="46.49267" lon="-1.42569">
        <ele>49.3</ele>
        <time>2021-09-21T08:53:26Z</time>
      </trkpt>
      <trkpt lat="46.49266" lon="-1.4257">
        <ele>49.3</ele>
        <time>2021-09-21T08:53:27Z</time>
      </trkpt>
      <trkpt lat="46.49265" lon="-1.42571">
        <ele>49.3</ele>
        <time>2021-09-21T08:53:28Z</time>
      </trkpt>
      <trkpt lat="46.49264" lon="-1.42572">
        <ele>49.3</ele>
        <time>2021-09-21T08:53:29Z</time>
      </trkpt>
      <trkpt lat="46.49263" lon="-1.42573">
        <ele>49.3</ele>
        <time>2021-09-21T08:53:30Z</time>
      </trkpt>
      <trkpt lat="46.49263" lon="-1.42573">
        <ele>49.3</ele>
        <time>2021-09-21T08:53:31Z</time>
      </trkpt>
      <trkpt lat="46.49262" lon="-1.42574">
        <ele>49.2</ele>
        <time>2021-09-21T08:53:32Z</time>
      </trkpt>
      <trkpt lat="46.49261" lon="-1.42575">
        <ele>49.2</ele>
        <time>2021-09-21T08:53:33Z</time>
      </trkpt>
      <trkpt lat="46.4926" lon="-1.42576">
        <ele>49.2</ele>
        <time>2021-09-21T08:53:34Z</time>
      </trkpt>
      <trkpt lat="46.49259" lon="-1.42577">
        <ele>49.2</ele>
        <time>2021-09-21T08:53:35Z</time>
      </trkpt>
      <trkpt lat="46.49258" lon="-1.42578">
        <ele>49.2</ele>
        <time>2021-09-21T08:53:36Z</time>
      </trkpt>
      <trkpt lat="46.49258" lon="-1.42578">
        <ele>49.2</ele>
        <time>2021-09-21T08:53:37Z</time>
      </trkpt>
      <trkpt lat="46.49257" lon="-1.42579">
        <ele>49.2</ele>
        <time>2021-09-21T08:53:38Z</time>
      </trkpt>
      <trkpt lat="46.49256" lon="-1.4258">
        <ele>49.2</ele>
        <time>2021-09-21T08:53:39Z</time>
      </trkpt>
      <trkpt lat="46.49255" lon="-1.42581">
        <ele>49.2</ele>
        <time>2021-09-21T08:53:40Z</time>
      </trkpt>
      <trkpt lat="46.49254" lon="-1.42582">
        <ele>49.1</ele>
        <time>2021-09-21T08:53:41Z</time>
      </trkpt>
      <trkpt lat="46.49253" lon="-1.42582">
        <ele>49.1</ele>
        <time>2021-09-21T08:53:42Z</time>
      </trkpt>
      <trkpt lat="46.49253" lon="-1.42583">
        <ele>49.1</ele>
        <time>2021-09-21T08:53:43Z</time>
      </trkpt>
      <trkpt lat="46.49252" lon="-1.42584">
        <ele>49.1</ele>
        <time>2021-09-21T08:53:44Z</time>
      </trkpt>
      <trkpt lat="46.49251" lon="-1.42585">
        <ele>49.1</ele>
        <time>2021-09-21T08:53:45Z</time>
      </trkpt>
      <trkpt lat="46.4925" lon="-1.42585">
        <ele>49.1</ele>
        <time>2021-09-21T08:53:46Z</time>
      </trkpt>
      <trkpt lat="46.49249" lon="-1.42586">
        <ele>49.1</ele>
        <time>2021-09-21T08:53:47Z</time>
      </trkpt>
      <trkpt lat="46.49249" lon="-1.42587">
        <ele>49.1</ele>
        <time>2021-09-21T08:53:48Z</time>
      </trkpt>
      <trkpt lat="46.49248" lon="-1.42587">
        <ele>49.1</ele>
        <time>2021-09-21T08:53:49Z</time>
      </trkpt>
      <trkpt lat="46.49247" lon="-1.42588">
        <ele>49.1</ele>
        <time>2021-09-21T08:53:50Z</time>
      </trkpt>
      <trkpt lat="46.49247" lon="-1.42589">
        <ele>49.1</ele>
        <time>2021-09-21T08:53:51Z</time>
      </trkpt>
      <trkpt lat="46.49246" lon="-1.42589">
        <ele>49.1</ele>
        <time>2021-09-21T08:53:52Z</time>
      </trkpt>
      <trkpt lat="46.49245" lon="-1.4259">
        <ele>49</ele>
        <time>2021-09-21T08:53:53Z</time>
      </trkpt>
      <trkpt lat="46.49244" lon="-1.42591">
        <ele>49</ele>
        <time>2021-09-21T08:53:54Z</time>
      </trkpt>
      <trkpt lat="46.49244" lon="-1.42592">
        <ele>49</ele>
        <time>2021-09-21T08:53:55Z</time>
      </trkpt>
      <trkpt lat="46.49243" lon="-1.42592">
        <ele>49</ele>
        <time>2021-09-21T08:53:56Z</time>
      </trkpt>
      <trkpt lat="46.49242" lon="-1.42593">
        <ele>49</ele>
        <time>2021-09-21T08:53:57Z</time>
      </trkpt>
      <trkpt lat="46.49241" lon="-1.42594">
        <ele>49</ele>
        <time>2021-09-21T08:53:58Z</time>
      </trkpt>
      <trkpt lat="46.49241" lon="-1.42594">
        <ele>49</ele>
        <time>2021-09-21T08:53:59Z</time>
      </trkpt>
      <trkpt lat="46.4924" lon="-1.42595">
        <ele>49</ele>
        <time>2021-09-21T08:54:00Z</time>
      </trkpt>
      <trkpt lat="46.49239" lon="-1.42596">
        <ele>49</ele>
        <time>2021-09-21T08:54:01Z</time>
      </trkpt>
      <trkpt lat="46.49238" lon="-1.42597">
        <ele>49</ele>
        <time>2021-09-21T08:54:02Z</time>
      </trkpt>
      <trkpt lat="46.49238" lon="-1.42597">
        <ele>49</ele>
        <time>2021-09-21T08:54:03Z</time>
      </trkpt>
      <trkpt lat="46.49237" lon="-1.42598">
        <ele>48.9</ele>
        <time>2021-09-21T08:54:04Z</time>
      </trkpt>
      <trkpt lat="46.49236" lon="-1.42599">
        <ele>48.9</ele>
        <time>2021-09-21T08:54:05Z</time>
      </trkpt>
      <trkpt lat="46.49235" lon="-1.426">
        <ele>48.9</ele>
        <time>2021-09-21T08:54:06Z</time>
      </trkpt>
      <trkpt lat="46.49234" lon="-1.42601">
        <ele>48.9</ele>
        <time>2021-09-21T08:54:07Z</time>
      </trkpt>
      <trkpt lat="46.49234" lon="-1.42601">
        <ele>48.9</ele>
        <time>2021-09-21T08:54:08Z</time>
      </trkpt>
      <trkpt lat="46.49233" lon="-1.42602">
        <ele>48.9</ele>
        <time>2021-09-21T08:54:09Z</time>
      </trkpt>
      <trkpt lat="46.49232" lon="-1.42603">
        <ele>48.9</ele>
        <time>2021-09-21T08:54:10Z</time>
      </trkpt>
      <trkpt lat="46.49231" lon="-1.42604">
        <ele>48.9</ele>
        <time>2021-09-21T08:54:11Z</time>
      </trkpt>
      <trkpt lat="46.4923" lon="-1.42605">
        <ele>48.9</ele>
        <time>2021-09-21T08:54:12Z</time>
      </trkpt>
      <trkpt lat="46.49229" lon="-1.42606">
        <ele>48.9</ele>
        <time>2021-09-21T08:54:13Z</time>
      </trkpt>
      <trkpt lat="46.49228" lon="-1.42606">
        <ele>48.9</ele>
        <time>2021-09-21T08:54:14Z</time>
      </trkpt>
      <trkpt lat="46.49227" lon="-1.42607">
        <ele>48.9</ele>
        <time>2021-09-21T08:54:15Z</time>
      </trkpt>
      <trkpt lat="46.49226" lon="-1.42608">
        <ele>48.9</ele>
        <time>2021-09-21T08:54:16Z</time>
      </trkpt>
      <trkpt lat="46.49226" lon="-1.42609">
        <ele>48.9</ele>
        <time>2021-09-21T08:54:17Z</time>
      </trkpt>
      <trkpt lat="46.49225" lon="-1.4261">
        <ele>48.9</ele>
        <time>2021-09-21T08:54:18Z</time>
      </trkpt>
      <trkpt lat="46.49224" lon="-1.42611">
        <ele>48.9</ele>
        <time>2021-09-21T08:54:19Z</time>
      </trkpt>
      <trkpt lat="46.49223" lon="-1.42612">
        <ele>48.8</ele>
        <time>2021-09-21T08:54:20Z</time>
      </trkpt>
      <trkpt lat="46.49222" lon="-1.42613">
        <ele>48.8</ele>
        <time>2021-09-21T08:54:21Z</time>
      </trkpt>
      <trkpt lat="46.49221" lon="-1.42614">
        <ele>48.8</ele>
        <time>2021-09-21T08:54:22Z</time>
      </trkpt>
      <trkpt lat="46.4922" lon="-1.42614">
        <ele>48.8</ele>
        <time>2021-09-21T08:54:23Z</time>
      </trkpt>
      <trkpt lat="46.49219" lon="-1.42615">
        <ele>48.8</ele>
        <time>2021-09-21T08:54:24Z</time>
      </trkpt>
      <trkpt lat="46.49218" lon="-1.42616">
        <ele>48.8</ele>
        <time>2021-09-21T08:54:25Z</time>
      </trkpt>
      <trkpt lat="46.49217" lon="-1.42617">
        <ele>48.8</ele>
        <time>2021-09-21T08:54:26Z</time>
      </trkpt>
      <trkpt lat="46.49216" lon="-1.42618">
        <ele>48.8</ele>
        <time>2021-09-21T08:54:27Z</time>
      </trkpt>
      <trkpt lat="46.49215" lon="-1.42619">
        <ele>48.8</ele>
        <time>2021-09-21T08:54:28Z</time>
      </trkpt>
      <trkpt lat="46.49214" lon="-1.4262">
        <ele>48.8</ele>
        <time>2021-09-21T08:54:29Z</time>
      </trkpt>
      <trkpt lat="46.49213" lon="-1.42621">
        <ele>48.8</ele>
        <time>2021-09-21T08:54:30Z</time>
      </trkpt>
      <trkpt lat="46.49212" lon="-1.42622">
        <ele>48.8</ele>
        <time>2021-09-21T08:54:31Z</time>
      </trkpt>
      <trkpt lat="46.49211" lon="-1.42623">
        <ele>48.8</ele>
        <time>2021-09-21T08:54:32Z</time>
      </trkpt>
      <trkpt lat="46.4921" lon="-1.42623">
        <ele>48.8</ele>
        <time>2021-09-21T08:54:33Z</time>
      </trkpt>
      <trkpt lat="46.49209" lon="-1.42624">
        <ele>48.8</ele>
        <time>2021-09-21T08:54:34Z</time>
      </trkpt>
      <trkpt lat="46.49208" lon="-1.42625">
        <ele>48.8</ele>
        <time>2021-09-21T08:54:35Z</time>
      </trkpt>
      <trkpt lat="46.49207" lon="-1.42626">
        <ele>48.8</ele>
        <time>2021-09-21T08:54:36Z</time>
      </trkpt>
      <trkpt lat="46.49206" lon="-1.42627">
        <ele>48.8</ele>
        <time>2021-09-21T08:54:37Z</time>
      </trkpt>
      <trkpt lat="46.49205" lon="-1.42628">
        <ele>48.8</ele>
        <time>2021-09-21T08:54:38Z</time>
      </trkpt>
      <trkpt lat="46.49204" lon="-1.42629">
        <ele>48.8</ele>
        <time>2021-09-21T08:54:39Z</time>
      </trkpt>
      <trkpt lat="46.49203" lon="-1.4263">
        <ele>48.8</ele>
        <time>2021-09-21T08:54:40Z</time>
      </trkpt>
      <trkpt lat="46.49202" lon="-1.42631">
        <ele>48.8</ele>
        <time>2021-09-21T08:54:41Z</time>
      </trkpt>
      <trkpt lat="46.49201" lon="-1.42631">
        <ele>48.8</ele>
        <time>2021-09-21T08:54:42Z</time>
      </trkpt>
      <trkpt lat="46.492" lon="-1.42632">
        <ele>48.8</ele>
        <time>2021-09-21T08:54:43Z</time>
      </trkpt>
      <trkpt lat="46.49199" lon="-1.42633">
        <ele>48.8</ele>
        <time>2021-09-21T08:54:44Z</time>
      </trkpt>
      <trkpt lat="46.49198" lon="-1.42634">
        <ele>48.8</ele>
        <time>2021-09-21T08:54:45Z</time>
      </trkpt>
      <trkpt lat="46.49197" lon="-1.42635">
        <ele>48.8</ele>
        <time>2021-09-21T08:54:46Z</time>
      </trkpt>
      <trkpt lat="46.49196" lon="-1.42636">
        <ele>48.8</ele>
        <time>2021-09-21T08:54:47Z</time>
      </trkpt>
      <trkpt lat="46.49195" lon="-1.42637">
        <ele>48.8</ele>
        <time>2021-09-21T08:54:48Z</time>
      </trkpt>
      <trkpt lat="46.49194" lon="-1.42638">
        <ele>48.8</ele>
        <time>2021-09-21T08:54:49Z</time>
      </trkpt>
      <trkpt lat="46.49193" lon="-1.42638">
        <ele>48.7</ele>
        <time>2021-09-21T08:54:50Z</time>
      </trkpt>
      <trkpt lat="46.49192" lon="-1.42639">
        <ele>48.7</ele>
        <time>2021-09-21T08:54:51Z</time>
      </trkpt>
      <trkpt lat="46.49191" lon="-1.4264">
        <ele>48.7</ele>
        <time>2021-09-21T08:54:52Z</time>
      </trkpt>
      <trkpt lat="46.49189" lon="-1.42641">
        <ele>48.7</ele>
        <time>2021-09-21T08:54:53Z</time>
      </trkpt>
      <trkpt lat="46.49188" lon="-1.42642">
        <ele>48.7</ele>
        <time>2021-09-21T08:54:54Z</time>
      </trkpt>
      <trkpt lat="46.49187" lon="-1.42643">
        <ele>48.7</ele>
        <time>2021-09-21T08:54:55Z</time>
      </trkpt>
      <trkpt lat="46.49186" lon="-1.42643">
        <ele>48.7</ele>
        <time>2021-09-21T08:54:56Z</time>
      </trkpt>
      <trkpt lat="46.49185" lon="-1.42644">
        <ele>48.7</ele>
        <time>2021-09-21T08:54:57Z</time>
      </trkpt>
      <trkpt lat="46.49184" lon="-1.42645">
        <ele>48.6</ele>
        <time>2021-09-21T08:54:58Z</time>
      </trkpt>
      <trkpt lat="46.49183" lon="-1.42646">
        <ele>48.6</ele>
        <time>2021-09-21T08:54:59Z</time>
      </trkpt>
      <trkpt lat="46.49183" lon="-1.42646">
        <ele>48.6</ele>
        <time>2021-09-21T08:55:00Z</time>
      </trkpt>
      <trkpt lat="46.49182" lon="-1.42647">
        <ele>48.6</ele>
        <time>2021-09-21T08:55:01Z</time>
      </trkpt>
      <trkpt lat="46.49181" lon="-1.42648">
        <ele>48.6</ele>
        <time>2021-09-21T08:55:02Z</time>
      </trkpt>
      <trkpt lat="46.4918" lon="-1.42648">
        <ele>48.6</ele>
        <time>2021-09-21T08:55:03Z</time>
      </trkpt>
      <trkpt lat="46.49179" lon="-1.42649">
        <ele>48.6</ele>
        <time>2021-09-21T08:55:04Z</time>
      </trkpt>
      <trkpt lat="46.49178" lon="-1.4265">
        <ele>48.6</ele>
        <time>2021-09-21T08:55:05Z</time>
      </trkpt>
      <trkpt lat="46.49177" lon="-1.4265">
        <ele>48.6</ele>
        <time>2021-09-21T08:55:06Z</time>
      </trkpt>
      <trkpt lat="46.49177" lon="-1.42651">
        <ele>48.6</ele>
        <time>2021-09-21T08:55:07Z</time>
      </trkpt>
      <trkpt lat="46.49176" lon="-1.42652">
        <ele>48.5</ele>
        <time>2021-09-21T08:55:08Z</time>
      </trkpt>
      <trkpt lat="46.49175" lon="-1.42652">
        <ele>48.5</ele>
        <time>2021-09-21T08:55:09Z</time>
      </trkpt>
      <trkpt lat="46.49174" lon="-1.42653">
        <ele>48.5</ele>
        <time>2021-09-21T08:55:10Z</time>
      </trkpt>
      <trkpt lat="46.49173" lon="-1.42654">
        <ele>48.5</ele>
        <time>2021-09-21T08:55:11Z</time>
      </trkpt>
      <trkpt lat="46.49173" lon="-1.42654">
        <ele>48.5</ele>
        <time>2021-09-21T08:55:12Z</time>
      </trkpt>
      <trkpt lat="46.49172" lon="-1.42655">
        <ele>48.5</ele>
        <time>2021-09-21T08:55:13Z</time>
      </trkpt>
      <trkpt lat="46.49171" lon="-1.42656">
        <ele>48.5</ele>
        <time>2021-09-21T08:55:14Z</time>
      </trkpt>
      <trkpt lat="46.4917" lon="-1.42656">
        <ele>48.5</ele>
        <time>2021-09-21T08:55:15Z</time>
      </trkpt>
      <trkpt lat="46.49169" lon="-1.42657">
        <ele>48.5</ele>
        <time>2021-09-21T08:55:16Z</time>
      </trkpt>
      <trkpt lat="46.49168" lon="-1.42658">
        <ele>48.5</ele>
        <time>2021-09-21T08:55:17Z</time>
      </trkpt>
      <trkpt lat="46.49167" lon="-1.42658">
        <ele>48.5</ele>
        <time>2021-09-21T08:55:18Z</time>
      </trkpt>
      <trkpt lat="46.49166" lon="-1.42659">
        <ele>48.5</ele>
        <time>2021-09-21T08:55:19Z</time>
      </trkpt>
      <trkpt lat="46.49165" lon="-1.4266">
        <ele>48.5</ele>
        <time>2021-09-21T08:55:20Z</time>
      </trkpt>
      <trkpt lat="46.49164" lon="-1.4266">
        <ele>48.4</ele>
        <time>2021-09-21T08:55:21Z</time>
      </trkpt>
      <trkpt lat="46.49163" lon="-1.42661">
        <ele>48.4</ele>
        <time>2021-09-21T08:55:22Z</time>
      </trkpt>
      <trkpt lat="46.49162" lon="-1.42661">
        <ele>48.4</ele>
        <time>2021-09-21T08:55:23Z</time>
      </trkpt>
      <trkpt lat="46.49161" lon="-1.42662">
        <ele>48.4</ele>
        <time>2021-09-21T08:55:24Z</time>
      </trkpt>
      <trkpt lat="46.4916" lon="-1.42662">
        <ele>48.4</ele>
        <time>2021-09-21T08:55:25Z</time>
      </trkpt>
      <trkpt lat="46.49159" lon="-1.42663">
        <ele>48.4</ele>
        <time>2021-09-21T08:55:26Z</time>
      </trkpt>
      <trkpt lat="46.49159" lon="-1.42663">
        <ele>48.4</ele>
        <time>2021-09-21T08:55:27Z</time>
      </trkpt>
      <trkpt lat="46.49158" lon="-1.42663">
        <ele>48.4</ele>
        <time>2021-09-21T08:55:28Z</time>
      </trkpt>
      <trkpt lat="46.49157" lon="-1.42663">
        <ele>48.4</ele>
        <time>2021-09-21T08:55:29Z</time>
      </trkpt>
      <trkpt lat="46.49156" lon="-1.42663">
        <ele>48.4</ele>
        <time>2021-09-21T08:55:30Z</time>
      </trkpt>
      <trkpt lat="46.49155" lon="-1.42664">
        <ele>48.4</ele>
        <time>2021-09-21T08:55:31Z</time>
      </trkpt>
      <trkpt lat="46.49155" lon="-1.42664">
        <ele>48.4</ele>
        <time>2021-09-21T08:55:32Z</time>
      </trkpt>
      <trkpt lat="46.49154" lon="-1.42664">
        <ele>48.4</ele>
        <time>2021-09-21T08:55:33Z</time>
      </trkpt>
      <trkpt lat="46.49153" lon="-1.42664">
        <ele>48.4</ele>
        <time>2021-09-21T08:55:34Z</time>
      </trkpt>
      <trkpt lat="46.49152" lon="-1.42664">
        <ele>48.3</ele>
        <time>2021-09-21T08:55:35Z</time>
      </trkpt>
      <trkpt lat="46.49151" lon="-1.42664">
        <ele>48.3</ele>
        <time>2021-09-21T08:55:36Z</time>
      </trkpt>
      <trkpt lat="46.4915" lon="-1.42664">
        <ele>48.3</ele>
        <time>2021-09-21T08:55:37Z</time>
      </trkpt>
      <trkpt lat="46.49149" lon="-1.42664">
        <ele>48.3</ele>
        <time>2021-09-21T08:55:38Z</time>
      </trkpt>
      <trkpt lat="46.49148" lon="-1.42664">
        <ele>48.3</ele>
        <time>2021-09-21T08:55:39Z</time>
      </trkpt>
      <trkpt lat="46.49147" lon="-1.42664">
        <ele>48.3</ele>
        <time>2021-09-21T08:55:40Z</time>
      </trkpt>
      <trkpt lat="46.49146" lon="-1.42664">
        <ele>48.3</ele>
        <time>2021-09-21T08:55:41Z</time>
      </trkpt>
      <trkpt lat="46.49145" lon="-1.42665">
        <ele>48.2</ele>
        <time>2021-09-21T08:55:42Z</time>
      </trkpt>
      <trkpt lat="46.49144" lon="-1.42665">
        <ele>48.2</ele>
        <time>2021-09-21T08:55:43Z</time>
      </trkpt>
      <trkpt lat="46.49144" lon="-1.42665">
        <ele>48.2</ele>
        <time>2021-09-21T08:55:44Z</time>
      </trkpt>
      <trkpt lat="46.49143" lon="-1.42665">
        <ele>48.2</ele>
        <time>2021-09-21T08:55:45Z</time>
      </trkpt>
      <trkpt lat="46.49142" lon="-1.42665">
        <ele>48.2</ele>
        <time>2021-09-21T08:55:46Z</time>
      </trkpt>
      <trkpt lat="46.49141" lon="-1.42666">
        <ele>48.2</ele>
        <time>2021-09-21T08:55:47Z</time>
      </trkpt>
      <trkpt lat="46.4914" lon="-1.42666">
        <ele>48.2</ele>
        <time>2021-09-21T08:55:48Z</time>
      </trkpt>
      <trkpt lat="46.4914" lon="-1.42666">
        <ele>48.2</ele>
        <time>2021-09-21T08:55:49Z</time>
      </trkpt>
      <trkpt lat="46.49139" lon="-1.42667">
        <ele>48.2</ele>
        <time>2021-09-21T08:55:50Z</time>
      </trkpt>
      <trkpt lat="46.49138" lon="-1.42667">
        <ele>48.2</ele>
        <time>2021-09-21T08:55:51Z</time>
      </trkpt>
      <trkpt lat="46.49138" lon="-1.42667">
        <ele>48.2</ele>
        <time>2021-09-21T08:55:52Z</time>
      </trkpt>
      <trkpt lat="46.49137" lon="-1.42668">
        <ele>48.2</ele>
        <time>2021-09-21T08:55:53Z</time>
      </trkpt>
      <trkpt lat="46.49137" lon="-1.42668">
        <ele>48.2</ele>
        <time>2021-09-21T08:55:54Z</time>
      </trkpt>
      <trkpt lat="46.49137" lon="-1.42669">
        <ele>48.2</ele>
        <time>2021-09-21T08:55:55Z</time>
      </trkpt>
      <trkpt lat="46.49136" lon="-1.42669">
        <ele>48.2</ele>
        <time>2021-09-21T08:55:56Z</time>
      </trkpt>
      <trkpt lat="46.49136" lon="-1.4267">
        <ele>48.2</ele>
        <time>2021-09-21T08:55:57Z</time>
      </trkpt>
      <trkpt lat="46.49136" lon="-1.4267">
        <ele>48.2</ele>
        <time>2021-09-21T08:55:58Z</time>
      </trkpt>
      <trkpt lat="46.49136" lon="-1.4267">
        <ele>48.2</ele>
        <time>2021-09-21T08:55:59Z</time>
      </trkpt>
      <trkpt lat="46.49136" lon="-1.42671">
        <ele>48.2</ele>
        <time>2021-09-21T08:56:00Z</time>
      </trkpt>
      <trkpt lat="46.49136" lon="-1.42671">
        <ele>48.2</ele>
        <time>2021-09-21T08:56:01Z</time>
      </trkpt>
      <trkpt lat="46.49136" lon="-1.42671">
        <ele>48.2</ele>
        <time>2021-09-21T08:56:02Z</time>
      </trkpt>
      <trkpt lat="46.49136" lon="-1.42672">
        <ele>48.2</ele>
        <time>2021-09-21T08:56:03Z</time>
      </trkpt>
      <trkpt lat="46.49136" lon="-1.42672">
        <ele>48.2</ele>
        <time>2021-09-21T08:56:04Z</time>
      </trkpt>
      <trkpt lat="46.49136" lon="-1.42673">
        <ele>48.2</ele>
        <time>2021-09-21T08:56:05Z</time>
      </trkpt>
      <trkpt lat="46.49136" lon="-1.42673">
        <ele>48.2</ele>
        <time>2021-09-21T08:56:06Z</time>
      </trkpt>
      <trkpt lat="46.49136" lon="-1.42674">
        <ele>48.2</ele>
        <time>2021-09-21T08:56:07Z</time>
      </trkpt>
      <trkpt lat="46.49137" lon="-1.42674">
        <ele>48.2</ele>
        <time>2021-09-21T08:56:08Z</time>
      </trkpt>
      <trkpt lat="46.49137" lon="-1.42674">
        <ele>48.2</ele>
        <time>2021-09-21T08:56:09Z</time>
      </trkpt>
      <trkpt lat="46.49137" lon="-1.42675">
        <ele>48.2</ele>
        <time>2021-09-21T08:56:10Z</time>
      </trkpt>
      <trkpt lat="46.49137" lon="-1.42675">
        <ele>48.2</ele>
        <time>2021-09-21T08:56:11Z</time>
      </trkpt>
      <trkpt lat="46.49137" lon="-1.42676">
        <ele>48.2</ele>
        <time>2021-09-21T08:56:12Z</time>
      </trkpt>
      <trkpt lat="46.49137" lon="-1.42676">
        <ele>48.2</ele>
        <time>2021-09-21T08:56:13Z</time>
      </trkpt>
      <trkpt lat="46.49137" lon="-1.42676">
        <ele>48.2</ele>
        <time>2021-09-21T08:56:14Z</time>
      </trkpt>
      <trkpt lat="46.49137" lon="-1.42677">
        <ele>48.2</ele>
        <time>2021-09-21T08:56:15Z</time>
      </trkpt>
      <trkpt lat="46.49138" lon="-1.42677">
        <ele>48.2</ele>
        <time>2021-09-21T08:56:16Z</time>
      </trkpt>
      <trkpt lat="46.49138" lon="-1.42678">
        <ele>48.2</ele>
        <time>2021-09-21T08:56:17Z</time>
      </trkpt>
      <trkpt lat="46.49138" lon="-1.42678">
        <ele>48.2</ele>
        <time>2021-09-21T08:56:18Z</time>
      </trkpt>
      <trkpt lat="46.49138" lon="-1.42678">
        <ele>48.2</ele>
        <time>2021-09-21T08:56:19Z</time>
      </trkpt>
      <trkpt lat="46.49138" lon="-1.42679">
        <ele>48.2</ele>
        <time>2021-09-21T08:56:20Z</time>
      </trkpt>
      <trkpt lat="46.49138" lon="-1.42679">
        <ele>48.2</ele>
        <time>2021-09-21T08:56:21Z</time>
      </trkpt>
      <trkpt lat="46.49138" lon="-1.4268">
        <ele>48.2</ele>
        <time>2021-09-21T08:56:22Z</time>
      </trkpt>
      <trkpt lat="46.49138" lon="-1.4268">
        <ele>48.2</ele>
        <time>2021-09-21T08:56:23Z</time>
      </trkpt>
      <trkpt lat="46.49139" lon="-1.4268">
        <ele>48.2</ele>
        <time>2021-09-21T08:56:24Z</time>
      </trkpt>
      <trkpt lat="46.49139" lon="-1.42681">
        <ele>48.2</ele>
        <time>2021-09-21T08:56:25Z</time>
      </trkpt>
      <trkpt lat="46.49139" lon="-1.42681">
        <ele>48.2</ele>
        <time>2021-09-21T08:56:26Z</time>
      </trkpt>
      <trkpt lat="46.49139" lon="-1.42682">
        <ele>48.2</ele>
        <time>2021-09-21T08:56:27Z</time>
      </trkpt>
      <trkpt lat="46.49139" lon="-1.42682">
        <ele>48.2</ele>
        <time>2021-09-21T08:56:28Z</time>
      </trkpt>
      <trkpt lat="46.49139" lon="-1.42682">
        <ele>48.2</ele>
        <time>2021-09-21T08:56:29Z</time>
      </trkpt>
      <trkpt lat="46.49139" lon="-1.42683">
        <ele>48.2</ele>
        <time>2021-09-21T08:56:30Z</time>
      </trkpt>
      <trkpt lat="46.4914" lon="-1.42683">
        <ele>48.1</ele>
        <time>2021-09-21T08:56:31Z</time>
      </trkpt>
      <trkpt lat="46.4914" lon="-1.42684">
        <ele>48.1</ele>
        <time>2021-09-21T08:56:32Z</time>
      </trkpt>
      <trkpt lat="46.4914" lon="-1.42684">
        <ele>48.1</ele>
        <time>2021-09-21T08:56:33Z</time>
      </trkpt>
      <trkpt lat="46.4914" lon="-1.42684">
        <ele>48.1</ele>
        <time>2021-09-21T08:56:34Z</time>
      </trkpt>
      <trkpt lat="46.4914" lon="-1.42685">
        <ele>48.1</ele>
        <time>2021-09-21T08:56:35Z</time>
      </trkpt>
      <trkpt lat="46.4914" lon="-1.42685">
        <ele>48.1</ele>
        <time>2021-09-21T08:56:36Z</time>
      </trkpt>
      <trkpt lat="46.4914" lon="-1.42686">
        <ele>48.1</ele>
        <time>2021-09-21T08:56:37Z</time>
      </trkpt>
      <trkpt lat="46.4914" lon="-1.42686">
        <ele>48.1</ele>
        <time>2021-09-21T08:56:38Z</time>
      </trkpt>
      <trkpt lat="46.49141" lon="-1.42686">
        <ele>48.1</ele>
        <time>2021-09-21T08:56:39Z</time>
      </trkpt>
      <trkpt lat="46.49141" lon="-1.42687">
        <ele>48.1</ele>
        <time>2021-09-21T08:56:40Z</time>
      </trkpt>
      <trkpt lat="46.49141" lon="-1.42687">
        <ele>48.1</ele>
        <time>2021-09-21T08:56:41Z</time>
      </trkpt>
      <trkpt lat="46.49141" lon="-1.42688">
        <ele>48.1</ele>
        <time>2021-09-21T08:56:42Z</time>
      </trkpt>
      <trkpt lat="46.49141" lon="-1.42688">
        <ele>48.1</ele>
        <time>2021-09-21T08:56:43Z</time>
      </trkpt>
      <trkpt lat="46.49141" lon="-1.42688">
        <ele>48.1</ele>
        <time>2021-09-21T08:56:44Z</time>
      </trkpt>
      <trkpt lat="46.49141" lon="-1.42689">
        <ele>48.1</ele>
        <time>2021-09-21T08:56:45Z</time>
      </trkpt>
      <trkpt lat="46.49141" lon="-1.42689">
        <ele>48.1</ele>
        <time>2021-09-21T08:56:46Z</time>
      </trkpt>
      <trkpt lat="46.49142" lon="-1.42689">
        <ele>48.1</ele>
        <time>2021-09-21T08:56:47Z</time>
      </trkpt>
      <trkpt lat="46.49142" lon="-1.4269">
        <ele>48.1</ele>
        <time>2021-09-21T08:56:48Z</time>
      </trkpt>
      <trkpt lat="46.49142" lon="-1.4269">
        <ele>48.1</ele>
        <time>2021-09-21T08:56:49Z</time>
      </trkpt>
      <trkpt lat="46.49142" lon="-1.42691">
        <ele>48.1</ele>
        <time>2021-09-21T08:56:50Z</time>
      </trkpt>
      <trkpt lat="46.49142" lon="-1.42691">
        <ele>48.1</ele>
        <time>2021-09-21T08:56:51Z</time>
      </trkpt>
      <trkpt lat="46.49142" lon="-1.42691">
        <ele>48.1</ele>
        <time>2021-09-21T08:56:52Z</time>
      </trkpt>
      <trkpt lat="46.49142" lon="-1.42692">
        <ele>48.1</ele>
        <time>2021-09-21T08:56:53Z</time>
      </trkpt>
      <trkpt lat="46.49142" lon="-1.42692">
        <ele>48.1</ele>
        <time>2021-09-21T08:56:54Z</time>
      </trkpt>
      <trkpt lat="46.49143" lon="-1.42693">
        <ele>48.1</ele>
        <time>2021-09-21T08:56:55Z</time>
      </trkpt>
      <trkpt lat="46.49143" lon="-1.42693">
        <ele>48.1</ele>
        <time>2021-09-21T08:56:56Z</time>
      </trkpt>
      <trkpt lat="46.49144" lon="-1.42695">
        <ele>48.1</ele>
        <time>2021-09-21T08:56:57Z</time>
      </trkpt>
      <trkpt lat="46.49144" lon="-1.42695">
        <ele>48.1</ele>
        <time>2021-09-21T08:56:58Z</time>
      </trkpt>
      <trkpt lat="46.49144" lon="-1.42695">
        <ele>48.1</ele>
        <time>2021-09-21T08:56:59Z</time>
      </trkpt>
      <trkpt lat="46.49145" lon="-1.42696">
        <ele>48.1</ele>
        <time>2021-09-21T08:57:00Z</time>
      </trkpt>
      <trkpt lat="46.49145" lon="-1.42696">
        <ele>48.1</ele>
        <time>2021-09-21T08:57:01Z</time>
      </trkpt>
      <trkpt lat="46.49146" lon="-1.42696">
        <ele>48.1</ele>
        <time>2021-09-21T08:57:02Z</time>
      </trkpt>
      <trkpt lat="46.49146" lon="-1.42697">
        <ele>48.1</ele>
        <time>2021-09-21T08:57:03Z</time>
      </trkpt>
      <trkpt lat="46.49147" lon="-1.42697">
        <ele>48.1</ele>
        <time>2021-09-21T08:57:04Z</time>
      </trkpt>
      <trkpt lat="46.49147" lon="-1.42698">
        <ele>48.1</ele>
        <time>2021-09-21T08:57:05Z</time>
      </trkpt>
      <trkpt lat="46.49147" lon="-1.42698">
        <ele>48.1</ele>
        <time>2021-09-21T08:57:06Z</time>
      </trkpt>
      <trkpt lat="46.49148" lon="-1.42698">
        <ele>48.1</ele>
        <time>2021-09-21T08:57:07Z</time>
      </trkpt>
      <trkpt lat="46.49148" lon="-1.42698">
        <ele>48.1</ele>
        <time>2021-09-21T08:57:08Z</time>
      </trkpt>
      <trkpt lat="46.49148" lon="-1.42698">
        <ele>48.1</ele>
        <time>2021-09-21T08:57:09Z</time>
      </trkpt>
      <trkpt lat="46.49148" lon="-1.42698">
        <ele>48.1</ele>
        <time>2021-09-21T08:57:10Z</time>
      </trkpt>
      <trkpt lat="46.49148" lon="-1.42698">
        <ele>48.1</ele>
        <time>2021-09-21T08:57:11Z</time>
      </trkpt>
      <trkpt lat="46.49148" lon="-1.42698">
        <ele>48.1</ele>
        <time>2021-09-21T08:57:12Z</time>
      </trkpt>
      <trkpt lat="46.49148" lon="-1.42698">
        <ele>48.1</ele>
        <time>2021-09-21T08:57:13Z</time>
      </trkpt>
      <trkpt lat="46.49148" lon="-1.42698">
        <ele>48.1</ele>
        <time>2021-09-21T08:57:14Z</time>
      </trkpt>
      <trkpt lat="46.49148" lon="-1.42698">
        <ele>48.1</ele>
        <time>2021-09-21T08:57:15Z</time>
      </trkpt>
      <trkpt lat="46.49148" lon="-1.42698">
        <ele>48.1</ele>
        <time>2021-09-21T08:57:16Z</time>
      </trkpt>
      <trkpt lat="46.49148" lon="-1.42698">
        <ele>48.1</ele>
        <time>2021-09-21T08:57:17Z</time>
      </trkpt>
      <trkpt lat="46.49148" lon="-1.42698">
        <ele>48.1</ele>
        <time>2021-09-21T08:57:18Z</time>
      </trkpt>
      <trkpt lat="46.49148" lon="-1.42698">
        <ele>48.1</ele>
        <time>2021-09-21T08:57:19Z</time>
      </trkpt>
      <trkpt lat="46.49148" lon="-1.42698">
        <ele>48.1</ele>
        <time>2021-09-21T08:57:20Z</time>
      </trkpt>
      <trkpt lat="46.49148" lon="-1.42698">
        <ele>48.1</ele>
        <time>2021-09-21T08:57:21Z</time>
      </trkpt>
      <trkpt lat="46.49148" lon="-1.42698">
        <ele>48.1</ele>
        <time>2021-09-21T08:57:22Z</time>
      </trkpt>
      <trkpt lat="46.49148" lon="-1.42698">
        <ele>48.1</ele>
        <time>2021-09-21T08:57:23Z</time>
      </trkpt>
      <trkpt lat="46.49148" lon="-1.42698">
        <ele>48.1</ele>
        <time>2021-09-21T08:57:24Z</time>
      </trkpt>
      <trkpt lat="46.49148" lon="-1.42698">
        <ele>48.1</ele>
        <time>2021-09-21T08:57:25Z</time>
      </trkpt>
      <trkpt lat="46.49148" lon="-1.42698">
        <ele>48.1</ele>
        <time>2021-09-21T08:57:26Z</time>
      </trkpt>
      <trkpt lat="46.49148" lon="-1.42698">
        <ele>48.1</ele>
        <time>2021-09-21T08:57:27Z</time>
      </trkpt>
      <trkpt lat="46.49148" lon="-1.42698">
        <ele>48.1</ele>
        <time>2021-09-21T08:57:28Z</time>
      </trkpt>
      <trkpt lat="46.49148" lon="-1.42698">
        <ele>48.1</ele>
        <time>2021-09-21T08:57:29Z</time>
      </trkpt>
      <trkpt lat="46.49148" lon="-1.42698">
        <ele>48.1</ele>
        <time>2021-09-21T08:57:30Z</time>
      </trkpt>
      <trkpt lat="46.49148" lon="-1.42698">
        <ele>48.1</ele>
        <time>2021-09-21T08:57:31Z</time>
      </trkpt>
      <trkpt lat="46.49148" lon="-1.42698">
        <ele>48.1</ele>
        <time>2021-09-21T08:57:32Z</time>
      </trkpt>
      <trkpt lat="46.49148" lon="-1.42698">
        <ele>48.1</ele>
        <time>2021-09-21T08:57:33Z</time>
      </trkpt>
      <trkpt lat="46.49148" lon="-1.42698">
        <ele>48.1</ele>
        <time>2021-09-21T08:57:34Z</time>
      </trkpt>
      <trkpt lat="46.49148" lon="-1.42698">
        <ele>48.1</ele>
        <time>2021-09-21T08:57:35Z</time>
      </trkpt>
      <trkpt lat="46.49148" lon="-1.42698">
        <ele>48.1</ele>
        <time>2021-09-21T08:57:36Z</time>
      </trkpt>
      <trkpt lat="46.49148" lon="-1.42698">
        <ele>48.1</ele>
        <time>2021-09-21T08:57:37Z</time>
      </trkpt>
      <trkpt lat="46.49148" lon="-1.42698">
        <ele>48.1</ele>
        <time>2021-09-21T08:57:38Z</time>
      </trkpt>
      <trkpt lat="46.49148" lon="-1.42698">
        <ele>48.1</ele>
        <time>2021-09-21T08:57:39Z</time>
      </trkpt>
      <trkpt lat="46.49147" lon="-1.42698">
        <ele>48.1</ele>
        <time>2021-09-21T08:57:40Z</time>
      </trkpt>
      <trkpt lat="46.49147" lon="-1.42698">
        <ele>48.1</ele>
        <time>2021-09-21T08:57:41Z</time>
      </trkpt>
      <trkpt lat="46.49147" lon="-1.42698">
        <ele>48.1</ele>
        <time>2021-09-21T08:57:42Z</time>
      </trkpt>
      <trkpt lat="46.49147" lon="-1.42698">
        <ele>48.1</ele>
        <time>2021-09-21T08:57:43Z</time>
      </trkpt>
      <trkpt lat="46.49147" lon="-1.42698">
        <ele>48.1</ele>
        <time>2021-09-21T08:57:44Z</time>
      </trkpt>
      <trkpt lat="46.49147" lon="-1.42698">
        <ele>48.1</ele>
        <time>2021-09-21T08:57:45Z</time>
      </trkpt>
      <trkpt lat="46.49147" lon="-1.42698">
        <ele>48.1</ele>
        <time>2021-09-21T08:57:46Z</time>
      </trkpt>
      <trkpt lat="46.49147" lon="-1.42698">
        <ele>48.1</ele>
        <time>2021-09-21T08:57:47Z</time>
      </trkpt>
      <trkpt lat="46.49147" lon="-1.42698">
        <ele>48.1</ele>
        <time>2021-09-21T08:57:48Z</time>
      </trkpt>
      <trkpt lat="46.49147" lon="-1.42698">
        <ele>48.1</ele>
        <time>2021-09-21T08:57:49Z</time>
      </trkpt>
      <trkpt lat="46.49147" lon="-1.42698">
        <ele>48.1</ele>
        <time>2021-09-21T08:57:50Z</time>
      </trkpt>
      <trkpt lat="46.49147" lon="-1.42698">
        <ele>48.1</ele>
        <time>2021-09-21T08:57:51Z</time>
      </trkpt>
      <trkpt lat="46.49147" lon="-1.42698">
        <ele>48.1</ele>
        <time>2021-09-21T08:57:52Z</time>
      </trkpt>
      <trkpt lat="46.49147" lon="-1.42697">
        <ele>48.1</ele>
        <time>2021-09-21T08:57:53Z</time>
      </trkpt>
      <trkpt lat="46.49147" lon="-1.42697">
        <ele>48.1</ele>
        <time>2021-09-21T08:57:54Z</time>
      </trkpt>
      <trkpt lat="46.49147" lon="-1.42696">
        <ele>48.1</ele>
        <time>2021-09-21T08:57:55Z</time>
      </trkpt>
      <trkpt lat="46.49147" lon="-1.42696">
        <ele>48.1</ele>
        <time>2021-09-21T08:57:56Z</time>
      </trkpt>
      <trkpt lat="46.49147" lon="-1.42695">
        <ele>48.1</ele>
        <time>2021-09-21T08:57:57Z</time>
      </trkpt>
      <trkpt lat="46.49147" lon="-1.42695">
        <ele>48.1</ele>
        <time>2021-09-21T08:57:58Z</time>
      </trkpt>
      <trkpt lat="46.49147" lon="-1.42694">
        <ele>48.1</ele>
        <time>2021-09-21T08:57:59Z</time>
      </trkpt>
      <trkpt lat="46.49147" lon="-1.42694">
        <ele>48.1</ele>
        <time>2021-09-21T08:58:00Z</time>
      </trkpt>
      <trkpt lat="46.49147" lon="-1.42693">
        <ele>48.1</ele>
        <time>2021-09-21T08:58:01Z</time>
      </trkpt>
      <trkpt lat="46.49147" lon="-1.42693">
        <ele>48.1</ele>
        <time>2021-09-21T08:58:02Z</time>
      </trkpt>
      <trkpt lat="46.49147" lon="-1.42693">
        <ele>48.1</ele>
        <time>2021-09-21T08:58:03Z</time>
      </trkpt>
      <trkpt lat="46.49147" lon="-1.42693">
        <ele>48.1</ele>
        <time>2021-09-21T08:58:04Z</time>
      </trkpt>
      <trkpt lat="46.49148" lon="-1.42692">
        <ele>48.1</ele>
        <time>2021-09-21T08:58:05Z</time>
      </trkpt>
      <trkpt lat="46.49148" lon="-1.42692">
        <ele>48.1</ele>
        <time>2021-09-21T08:58:06Z</time>
      </trkpt>
      <trkpt lat="46.49148" lon="-1.42692">
        <ele>48.1</ele>
        <time>2021-09-21T08:58:07Z</time>
      </trkpt>
      <trkpt lat="46.49148" lon="-1.42691">
        <ele>48.1</ele>
        <time>2021-09-21T08:58:08Z</time>
      </trkpt>
      <trkpt lat="46.49149" lon="-1.4269">
        <ele>48</ele>
        <time>2021-09-21T08:58:09Z</time>
      </trkpt>
      <trkpt lat="46.49149" lon="-1.42689">
        <ele>48</ele>
        <time>2021-09-21T08:58:10Z</time>
      </trkpt>
      <trkpt lat="46.49149" lon="-1.42689">
        <ele>48</ele>
        <time>2021-09-21T08:58:11Z</time>
      </trkpt>
      <trkpt lat="46.49149" lon="-1.42688">
        <ele>48</ele>
        <time>2021-09-21T08:58:12Z</time>
      </trkpt>
      <trkpt lat="46.4915" lon="-1.42687">
        <ele>48</ele>
        <time>2021-09-21T08:58:13Z</time>
      </trkpt>
      <trkpt lat="46.4915" lon="-1.42686">
        <ele>48</ele>
        <time>2021-09-21T08:58:14Z</time>
      </trkpt>
      <trkpt lat="46.4915" lon="-1.42685">
        <ele>48</ele>
        <time>2021-09-21T08:58:15Z</time>
      </trkpt>
      <trkpt lat="46.4915" lon="-1.42685">
        <ele>48</ele>
        <time>2021-09-21T08:58:16Z</time>
      </trkpt>
      <trkpt lat="46.49149" lon="-1.42685">
        <ele>48</ele>
        <time>2021-09-21T08:58:17Z</time>
      </trkpt>
      <trkpt lat="46.49149" lon="-1.42685">
        <ele>48</ele>
        <time>2021-09-21T08:58:18Z</time>
      </trkpt>
      <trkpt lat="46.49149" lon="-1.42685">
        <ele>48</ele>
        <time>2021-09-21T08:58:19Z</time>
      </trkpt>
      <trkpt lat="46.49148" lon="-1.42685">
        <ele>48</ele>
        <time>2021-09-21T08:58:20Z</time>
      </trkpt>
      <trkpt lat="46.49148" lon="-1.42685">
        <ele>48</ele>
        <time>2021-09-21T08:58:21Z</time>
      </trkpt>
      <trkpt lat="46.49147" lon="-1.42685">
        <ele>48</ele>
        <time>2021-09-21T08:58:22Z</time>
      </trkpt>
      <trkpt lat="46.49147" lon="-1.42685">
        <ele>48</ele>
        <time>2021-09-21T08:58:23Z</time>
      </trkpt>
      <trkpt lat="46.49146" lon="-1.42686">
        <ele>48</ele>
        <time>2021-09-21T08:58:24Z</time>
      </trkpt>
      <trkpt lat="46.49145" lon="-1.42686">
        <ele>48</ele>
        <time>2021-09-21T08:58:25Z</time>
      </trkpt>
      <trkpt lat="46.49145" lon="-1.42686">
        <ele>48</ele>
        <time>2021-09-21T08:58:26Z</time>
      </trkpt>
      <trkpt lat="46.49144" lon="-1.42686">
        <ele>48</ele>
        <time>2021-09-21T08:58:27Z</time>
      </trkpt>
      <trkpt lat="46.49144" lon="-1.42686">
        <ele>48</ele>
        <time>2021-09-21T08:58:28Z</time>
      </trkpt>
      <trkpt lat="46.49143" lon="-1.42686">
        <ele>48</ele>
        <time>2021-09-21T08:58:29Z</time>
      </trkpt>
      <trkpt lat="46.49143" lon="-1.42686">
        <ele>48</ele>
        <time>2021-09-21T08:58:30Z</time>
      </trkpt>
      <trkpt lat="46.49143" lon="-1.42686">
        <ele>48</ele>
        <time>2021-09-21T08:58:31Z</time>
      </trkpt>
      <trkpt lat="46.49142" lon="-1.42685">
        <ele>48</ele>
        <time>2021-09-21T08:58:32Z</time>
      </trkpt>
      <trkpt lat="46.4914" lon="-1.42685">
        <ele>48</ele>
        <time>2021-09-21T08:58:33Z</time>
      </trkpt>
      <trkpt lat="46.49139" lon="-1.42684">
        <ele>48</ele>
        <time>2021-09-21T08:58:34Z</time>
      </trkpt>
      <trkpt lat="46.49137" lon="-1.42683">
        <ele>48</ele>
        <time>2021-09-21T08:58:35Z</time>
      </trkpt>
      <trkpt lat="46.49137" lon="-1.42682">
        <ele>48</ele>
        <time>2021-09-21T08:58:36Z</time>
      </trkpt>
      <trkpt lat="46.49136" lon="-1.42682">
        <ele>48</ele>
        <time>2021-09-21T08:58:37Z</time>
      </trkpt>
      <trkpt lat="46.49136" lon="-1.42682">
        <ele>48</ele>
        <time>2021-09-21T08:58:38Z</time>
      </trkpt>
      <trkpt lat="46.49136" lon="-1.42682">
        <ele>48</ele>
        <time>2021-09-21T08:58:39Z</time>
      </trkpt>
      <trkpt lat="46.49136" lon="-1.42682">
        <ele>48</ele>
        <time>2021-09-21T08:58:40Z</time>
      </trkpt>
      <trkpt lat="46.49136" lon="-1.42682">
        <ele>48</ele>
        <time>2021-09-21T08:58:41Z</time>
      </trkpt>
      <trkpt lat="46.49136" lon="-1.42682">
        <ele>48</ele>
        <time>2021-09-21T08:58:42Z</time>
      </trkpt>
      <trkpt lat="46.49136" lon="-1.42681">
        <ele>48</ele>
        <time>2021-09-21T08:58:43Z</time>
      </trkpt>
      <trkpt lat="46.49135" lon="-1.4268">
        <ele>48</ele>
        <time>2021-09-21T08:58:44Z</time>
      </trkpt>
      <trkpt lat="46.49135" lon="-1.4268">
        <ele>48</ele>
        <time>2021-09-21T08:58:45Z</time>
      </trkpt>
      <trkpt lat="46.49134" lon="-1.4268">
        <ele>48</ele>
        <time>2021-09-21T08:58:46Z</time>
      </trkpt>
      <trkpt lat="46.49134" lon="-1.42679">
        <ele>47.9</ele>
        <time>2021-09-21T08:58:47Z</time>
      </trkpt>
      <trkpt lat="46.49134" lon="-1.42679">
        <ele>47.9</ele>
        <time>2021-09-21T08:58:48Z</time>
      </trkpt>
      <trkpt lat="46.49133" lon="-1.42678">
        <ele>47.9</ele>
        <time>2021-09-21T08:58:49Z</time>
      </trkpt>
      <trkpt lat="46.49133" lon="-1.42677">
        <ele>47.9</ele>
        <time>2021-09-21T08:58:50Z</time>
      </trkpt>
      <trkpt lat="46.49132" lon="-1.42675">
        <ele>47.9</ele>
        <time>2021-09-21T08:58:51Z</time>
      </trkpt>
      <trkpt lat="46.49132" lon="-1.42674">
        <ele>47.9</ele>
        <time>2021-09-21T08:58:52Z</time>
      </trkpt>
      <trkpt lat="46.49131" lon="-1.42673">
        <ele>47.9</ele>
        <time>2021-09-21T08:58:53Z</time>
      </trkpt>
      <trkpt lat="46.49131" lon="-1.42672">
        <ele>47.9</ele>
        <time>2021-09-21T08:58:54Z</time>
      </trkpt>
      <trkpt lat="46.4913" lon="-1.42672">
        <ele>47.9</ele>
        <time>2021-09-21T08:58:55Z</time>
      </trkpt>
      <trkpt lat="46.4913" lon="-1.4267">
        <ele>48</ele>
        <time>2021-09-21T08:58:56Z</time>
      </trkpt>
      <trkpt lat="46.49129" lon="-1.42669">
        <ele>48</ele>
        <time>2021-09-21T08:58:57Z</time>
      </trkpt>
      <trkpt lat="46.49129" lon="-1.42668">
        <ele>48</ele>
        <time>2021-09-21T08:58:58Z</time>
      </trkpt>
      <trkpt lat="46.49129" lon="-1.42667">
        <ele>48</ele>
        <time>2021-09-21T08:58:59Z</time>
      </trkpt>
      <trkpt lat="46.49128" lon="-1.42666">
        <ele>48</ele>
        <time>2021-09-21T08:59:00Z</time>
      </trkpt>
      <trkpt lat="46.49128" lon="-1.42665">
        <ele>48</ele>
        <time>2021-09-21T08:59:01Z</time>
      </trkpt>
      <trkpt lat="46.49128" lon="-1.42664">
        <ele>48</ele>
        <time>2021-09-21T08:59:02Z</time>
      </trkpt>
      <trkpt lat="46.49128" lon="-1.42664">
        <ele>48</ele>
        <time>2021-09-21T08:59:03Z</time>
      </trkpt>
      <trkpt lat="46.49127" lon="-1.42663">
        <ele>48</ele>
        <time>2021-09-21T08:59:04Z</time>
      </trkpt>
      <trkpt lat="46.49127" lon="-1.42662">
        <ele>48</ele>
        <time>2021-09-21T08:59:05Z</time>
      </trkpt>
      <trkpt lat="46.49127" lon="-1.42662">
        <ele>48.1</ele>
        <time>2021-09-21T08:59:06Z</time>
      </trkpt>
      <trkpt lat="46.49127" lon="-1.42661">
        <ele>48.1</ele>
        <time>2021-09-21T08:59:07Z</time>
      </trkpt>
      <trkpt lat="46.49127" lon="-1.42661">
        <ele>48.1</ele>
        <time>2021-09-21T08:59:08Z</time>
      </trkpt>
      <trkpt lat="46.49127" lon="-1.42661">
        <ele>48.1</ele>
        <time>2021-09-21T08:59:09Z</time>
      </trkpt>
      <trkpt lat="46.49127" lon="-1.42661">
        <ele>48.1</ele>
        <time>2021-09-21T08:59:10Z</time>
      </trkpt>
      <trkpt lat="46.49127" lon="-1.4266">
        <ele>48.1</ele>
        <time>2021-09-21T08:59:11Z</time>
      </trkpt>
      <trkpt lat="46.49127" lon="-1.4266">
        <ele>48.1</ele>
        <time>2021-09-21T08:59:12Z</time>
      </trkpt>
      <trkpt lat="46.49127" lon="-1.4266">
        <ele>48.1</ele>
        <time>2021-09-21T08:59:13Z</time>
      </trkpt>
      <trkpt lat="46.49127" lon="-1.42661">
        <ele>48.1</ele>
        <time>2021-09-21T08:59:14Z</time>
      </trkpt>
      <trkpt lat="46.49127" lon="-1.42661">
        <ele>48.1</ele>
        <time>2021-09-21T08:59:15Z</time>
      </trkpt>
      <trkpt lat="46.49126" lon="-1.42661">
        <ele>48.1</ele>
        <time>2021-09-21T08:59:16Z</time>
      </trkpt>
      <trkpt lat="46.49126" lon="-1.42661">
        <ele>48.1</ele>
        <time>2021-09-21T08:59:17Z</time>
      </trkpt>
      <trkpt lat="46.49125" lon="-1.42662">
        <ele>48.1</ele>
        <time>2021-09-21T08:59:18Z</time>
      </trkpt>
      <trkpt lat="46.49125" lon="-1.42662">
        <ele>48.1</ele>
        <time>2021-09-21T08:59:19Z</time>
      </trkpt>
      <trkpt lat="46.49124" lon="-1.42662">
        <ele>48.1</ele>
        <time>2021-09-21T08:59:20Z</time>
      </trkpt>
      <trkpt lat="46.49124" lon="-1.42663">
        <ele>48.1</ele>
        <time>2021-09-21T08:59:21Z</time>
      </trkpt>
      <trkpt lat="46.49123" lon="-1.42663">
        <ele>48.1</ele>
        <time>2021-09-21T08:59:22Z</time>
      </trkpt>
      <trkpt lat="46.49122" lon="-1.42664">
        <ele>48.1</ele>
        <time>2021-09-21T08:59:23Z</time>
      </trkpt>
      <trkpt lat="46.49121" lon="-1.42665">
        <ele>48.1</ele>
        <time>2021-09-21T08:59:24Z</time>
      </trkpt>
      <trkpt lat="46.4912" lon="-1.42665">
        <ele>48.2</ele>
        <time>2021-09-21T08:59:25Z</time>
      </trkpt>
      <trkpt lat="46.4912" lon="-1.42666">
        <ele>48.2</ele>
        <time>2021-09-21T08:59:26Z</time>
      </trkpt>
      <trkpt lat="46.49119" lon="-1.42667">
        <ele>48.2</ele>
        <time>2021-09-21T08:59:27Z</time>
      </trkpt>
      <trkpt lat="46.49118" lon="-1.42667">
        <ele>48.2</ele>
        <time>2021-09-21T08:59:28Z</time>
      </trkpt>
      <trkpt lat="46.49117" lon="-1.42668">
        <ele>48.2</ele>
        <time>2021-09-21T08:59:29Z</time>
      </trkpt>
      <trkpt lat="46.49116" lon="-1.42669">
        <ele>48.2</ele>
        <time>2021-09-21T08:59:30Z</time>
      </trkpt>
      <trkpt lat="46.49115" lon="-1.4267">
        <ele>48.2</ele>
        <time>2021-09-21T08:59:31Z</time>
      </trkpt>
      <trkpt lat="46.49114" lon="-1.42671">
        <ele>48.3</ele>
        <time>2021-09-21T08:59:32Z</time>
      </trkpt>
      <trkpt lat="46.49113" lon="-1.42672">
        <ele>48.3</ele>
        <time>2021-09-21T08:59:33Z</time>
      </trkpt>
      <trkpt lat="46.49112" lon="-1.42672">
        <ele>48.3</ele>
        <time>2021-09-21T08:59:34Z</time>
      </trkpt>
      <trkpt lat="46.49111" lon="-1.42673">
        <ele>48.3</ele>
        <time>2021-09-21T08:59:35Z</time>
      </trkpt>
      <trkpt lat="46.4911" lon="-1.42674">
        <ele>48.3</ele>
        <time>2021-09-21T08:59:36Z</time>
      </trkpt>
      <trkpt lat="46.4911" lon="-1.42675">
        <ele>48.4</ele>
        <time>2021-09-21T08:59:37Z</time>
      </trkpt>
      <trkpt lat="46.49109" lon="-1.42676">
        <ele>48.4</ele>
        <time>2021-09-21T08:59:38Z</time>
      </trkpt>
      <trkpt lat="46.49108" lon="-1.42676">
        <ele>48.4</ele>
        <time>2021-09-21T08:59:39Z</time>
      </trkpt>
      <trkpt lat="46.49107" lon="-1.42677">
        <ele>48.4</ele>
        <time>2021-09-21T08:59:40Z</time>
      </trkpt>
      <trkpt lat="46.49106" lon="-1.42678">
        <ele>48.4</ele>
        <time>2021-09-21T08:59:41Z</time>
      </trkpt>
      <trkpt lat="46.49105" lon="-1.42679">
        <ele>48.4</ele>
        <time>2021-09-21T08:59:42Z</time>
      </trkpt>
      <trkpt lat="46.49104" lon="-1.42679">
        <ele>48.4</ele>
        <time>2021-09-21T08:59:43Z</time>
      </trkpt>
      <trkpt lat="46.49103" lon="-1.4268">
        <ele>48.4</ele>
        <time>2021-09-21T08:59:44Z</time>
      </trkpt>
      <trkpt lat="46.49103" lon="-1.4268">
        <ele>48.5</ele>
        <time>2021-09-21T08:59:45Z</time>
      </trkpt>
      <trkpt lat="46.49102" lon="-1.4268">
        <ele>48.5</ele>
        <time>2021-09-21T08:59:46Z</time>
      </trkpt>
      <trkpt lat="46.49101" lon="-1.42681">
        <ele>48.5</ele>
        <time>2021-09-21T08:59:47Z</time>
      </trkpt>
      <trkpt lat="46.491" lon="-1.42681">
        <ele>48.5</ele>
        <time>2021-09-21T08:59:48Z</time>
      </trkpt>
      <trkpt lat="46.491" lon="-1.42681">
        <ele>48.5</ele>
        <time>2021-09-21T08:59:49Z</time>
      </trkpt>
      <trkpt lat="46.49099" lon="-1.42682">
        <ele>48.5</ele>
        <time>2021-09-21T08:59:50Z</time>
      </trkpt>
      <trkpt lat="46.49098" lon="-1.42682">
        <ele>48.5</ele>
        <time>2021-09-21T08:59:51Z</time>
      </trkpt>
      <trkpt lat="46.49097" lon="-1.42683">
        <ele>48.5</ele>
        <time>2021-09-21T08:59:52Z</time>
      </trkpt>
      <trkpt lat="46.49096" lon="-1.42683">
        <ele>48.5</ele>
        <time>2021-09-21T08:59:53Z</time>
      </trkpt>
      <trkpt lat="46.49095" lon="-1.42684">
        <ele>48.5</ele>
        <time>2021-09-21T08:59:54Z</time>
      </trkpt>
      <trkpt lat="46.49094" lon="-1.42685">
        <ele>48.5</ele>
        <time>2021-09-21T08:59:55Z</time>
      </trkpt>
      <trkpt lat="46.49093" lon="-1.42685">
        <ele>48.6</ele>
        <time>2021-09-21T08:59:56Z</time>
      </trkpt>
      <trkpt lat="46.49092" lon="-1.42686">
        <ele>48.6</ele>
        <time>2021-09-21T08:59:57Z</time>
      </trkpt>
      <trkpt lat="46.49092" lon="-1.42687">
        <ele>48.6</ele>
        <time>2021-09-21T08:59:58Z</time>
      </trkpt>
      <trkpt lat="46.49091" lon="-1.42687">
        <ele>48.6</ele>
        <time>2021-09-21T08:59:59Z</time>
      </trkpt>
      <trkpt lat="46.49091" lon="-1.42687">
        <ele>48.6</ele>
        <time>2021-09-21T09:00:00Z</time>
      </trkpt>
      <trkpt lat="46.49091" lon="-1.42687">
        <ele>48.6</ele>
        <time>2021-09-21T09:00:01Z</time>
      </trkpt>
      <trkpt lat="46.49091" lon="-1.42687">
        <ele>48.6</ele>
        <time>2021-09-21T09:00:02Z</time>
      </trkpt>
      <trkpt lat="46.4909" lon="-1.42688">
        <ele>48.6</ele>
        <time>2021-09-21T09:00:03Z</time>
      </trkpt>
      <trkpt lat="46.49089" lon="-1.42688">
        <ele>48.6</ele>
        <time>2021-09-21T09:00:04Z</time>
      </trkpt>
      <trkpt lat="46.49089" lon="-1.42689">
        <ele>48.6</ele>
        <time>2021-09-21T09:00:05Z</time>
      </trkpt>
      <trkpt lat="46.49088" lon="-1.42689">
        <ele>48.6</ele>
        <time>2021-09-21T09:00:06Z</time>
      </trkpt>
      <trkpt lat="46.49087" lon="-1.4269">
        <ele>48.6</ele>
        <time>2021-09-21T09:00:07Z</time>
      </trkpt>
      <trkpt lat="46.49086" lon="-1.4269">
        <ele>48.7</ele>
        <time>2021-09-21T09:00:08Z</time>
      </trkpt>
      <trkpt lat="46.49086" lon="-1.42691">
        <ele>48.7</ele>
        <time>2021-09-21T09:00:09Z</time>
      </trkpt>
      <trkpt lat="46.49085" lon="-1.42692">
        <ele>48.7</ele>
        <time>2021-09-21T09:00:10Z</time>
      </trkpt>
      <trkpt lat="46.49085" lon="-1.42693">
        <ele>48.7</ele>
        <time>2021-09-21T09:00:11Z</time>
      </trkpt>
      <trkpt lat="46.49084" lon="-1.42694">
        <ele>48.7</ele>
        <time>2021-09-21T09:00:12Z</time>
      </trkpt>
      <trkpt lat="46.49084" lon="-1.42696">
        <ele>48.7</ele>
        <time>2021-09-21T09:00:13Z</time>
      </trkpt>
      <trkpt lat="46.49084" lon="-1.42697">
        <ele>48.7</ele>
        <time>2021-09-21T09:00:14Z</time>
      </trkpt>
      <trkpt lat="46.49084" lon="-1.42699">
        <ele>48.7</ele>
        <time>2021-09-21T09:00:15Z</time>
      </trkpt>
      <trkpt lat="46.49083" lon="-1.427">
        <ele>48.7</ele>
        <time>2021-09-21T09:00:16Z</time>
      </trkpt>
      <trkpt lat="46.49083" lon="-1.42702">
        <ele>48.7</ele>
        <time>2021-09-21T09:00:17Z</time>
      </trkpt>
      <trkpt lat="46.49083" lon="-1.42703">
        <ele>48.7</ele>
        <time>2021-09-21T09:00:18Z</time>
      </trkpt>
      <trkpt lat="46.49082" lon="-1.42705">
        <ele>48.7</ele>
        <time>2021-09-21T09:00:19Z</time>
      </trkpt>
      <trkpt lat="46.49082" lon="-1.42706">
        <ele>48.7</ele>
        <time>2021-09-21T09:00:20Z</time>
      </trkpt>
      <trkpt lat="46.49082" lon="-1.42708">
        <ele>48.7</ele>
        <time>2021-09-21T09:00:21Z</time>
      </trkpt>
      <trkpt lat="46.49081" lon="-1.42709">
        <ele>48.6</ele>
        <time>2021-09-21T09:00:22Z</time>
      </trkpt>
      <trkpt lat="46.49081" lon="-1.42711">
        <ele>48.6</ele>
        <time>2021-09-21T09:00:23Z</time>
      </trkpt>
      <trkpt lat="46.49081" lon="-1.42712">
        <ele>48.6</ele>
        <time>2021-09-21T09:00:24Z</time>
      </trkpt>
      <trkpt lat="46.49081" lon="-1.42714">
        <ele>48.6</ele>
        <time>2021-09-21T09:00:25Z</time>
      </trkpt>
      <trkpt lat="46.49081" lon="-1.42715">
        <ele>48.5</ele>
        <time>2021-09-21T09:00:26Z</time>
      </trkpt>
      <trkpt lat="46.4908" lon="-1.42717">
        <ele>48.5</ele>
        <time>2021-09-21T09:00:27Z</time>
      </trkpt>
      <trkpt lat="46.4908" lon="-1.42718">
        <ele>48.5</ele>
        <time>2021-09-21T09:00:28Z</time>
      </trkpt>
      <trkpt lat="46.4908" lon="-1.42719">
        <ele>48.5</ele>
        <time>2021-09-21T09:00:29Z</time>
      </trkpt>
      <trkpt lat="46.4908" lon="-1.42721">
        <ele>48.5</ele>
        <time>2021-09-21T09:00:30Z</time>
      </trkpt>
      <trkpt lat="46.4908" lon="-1.42722">
        <ele>48.4</ele>
        <time>2021-09-21T09:00:31Z</time>
      </trkpt>
      <trkpt lat="46.4908" lon="-1.42724">
        <ele>48.4</ele>
        <time>2021-09-21T09:00:32Z</time>
      </trkpt>
      <trkpt lat="46.4908" lon="-1.42725">
        <ele>48.4</ele>
        <time>2021-09-21T09:00:33Z</time>
      </trkpt>
      <trkpt lat="46.4908" lon="-1.42726">
        <ele>48.4</ele>
        <time>2021-09-21T09:00:34Z</time>
      </trkpt>
      <trkpt lat="46.4908" lon="-1.42728">
        <ele>48.3</ele>
        <time>2021-09-21T09:00:35Z</time>
      </trkpt>
      <trkpt lat="46.49079" lon="-1.42729">
        <ele>48.3</ele>
        <time>2021-09-21T09:00:36Z</time>
      </trkpt>
      <trkpt lat="46.49079" lon="-1.4273">
        <ele>48.3</ele>
        <time>2021-09-21T09:00:37Z</time>
      </trkpt>
      <trkpt lat="46.49079" lon="-1.42732">
        <ele>48.3</ele>
        <time>2021-09-21T09:00:38Z</time>
      </trkpt>
      <trkpt lat="46.49079" lon="-1.42733">
        <ele>48.2</ele>
        <time>2021-09-21T09:00:39Z</time>
      </trkpt>
      <trkpt lat="46.49079" lon="-1.42735">
        <ele>48.2</ele>
        <time>2021-09-21T09:00:40Z</time>
      </trkpt>
      <trkpt lat="46.49078" lon="-1.42736">
        <ele>48.2</ele>
        <time>2021-09-21T09:00:41Z</time>
      </trkpt>
      <trkpt lat="46.49078" lon="-1.42738">
        <ele>48.2</ele>
        <time>2021-09-21T09:00:42Z</time>
      </trkpt>
      <trkpt lat="46.49078" lon="-1.42739">
        <ele>48.1</ele>
        <time>2021-09-21T09:00:43Z</time>
      </trkpt>
      <trkpt lat="46.49078" lon="-1.42741">
        <ele>48.1</ele>
        <time>2021-09-21T09:00:44Z</time>
      </trkpt>
      <trkpt lat="46.49077" lon="-1.42742">
        <ele>48.1</ele>
        <time>2021-09-21T09:00:45Z</time>
      </trkpt>
      <trkpt lat="46.49077" lon="-1.42744">
        <ele>48.1</ele>
        <time>2021-09-21T09:00:46Z</time>
      </trkpt>
      <trkpt lat="46.49077" lon="-1.42745">
        <ele>48</ele>
        <time>2021-09-21T09:00:47Z</time>
      </trkpt>
      <trkpt lat="46.49076" lon="-1.42747">
        <ele>48</ele>
        <time>2021-09-21T09:00:48Z</time>
      </trkpt>
      <trkpt lat="46.49076" lon="-1.42748">
        <ele>48</ele>
        <time>2021-09-21T09:00:49Z</time>
      </trkpt>
      <trkpt lat="46.49076" lon="-1.42749">
        <ele>47.9</ele>
        <time>2021-09-21T09:00:50Z</time>
      </trkpt>
      <trkpt lat="46.49076" lon="-1.4275">
        <ele>47.9</ele>
        <time>2021-09-21T09:00:51Z</time>
      </trkpt>
      <trkpt lat="46.49075" lon="-1.42751">
        <ele>47.9</ele>
        <time>2021-09-21T09:00:52Z</time>
      </trkpt>
      <trkpt lat="46.49075" lon="-1.42752">
        <ele>47.9</ele>
        <time>2021-09-21T09:00:53Z</time>
      </trkpt>
      <trkpt lat="46.49075" lon="-1.42752">
        <ele>47.9</ele>
        <time>2021-09-21T09:00:54Z</time>
      </trkpt>
      <trkpt lat="46.49075" lon="-1.42753">
        <ele>47.9</ele>
        <time>2021-09-21T09:00:55Z</time>
      </trkpt>
      <trkpt lat="46.49075" lon="-1.42753">
        <ele>47.9</ele>
        <time>2021-09-21T09:00:56Z</time>
      </trkpt>
      <trkpt lat="46.49075" lon="-1.42753">
        <ele>47.8</ele>
        <time>2021-09-21T09:00:57Z</time>
      </trkpt>
      <trkpt lat="46.49075" lon="-1.42753">
        <ele>47.8</ele>
        <time>2021-09-21T09:00:58Z</time>
      </trkpt>
      <trkpt lat="46.49075" lon="-1.42753">
        <ele>47.8</ele>
        <time>2021-09-21T09:00:59Z</time>
      </trkpt>
      <trkpt lat="46.49075" lon="-1.42753">
        <ele>47.8</ele>
        <time>2021-09-21T09:01:00Z</time>
      </trkpt>
      <trkpt lat="46.49075" lon="-1.42753">
        <ele>47.8</ele>
        <time>2021-09-21T09:01:01Z</time>
      </trkpt>
      <trkpt lat="46.49075" lon="-1.42753">
        <ele>47.8</ele>
        <time>2021-09-21T09:01:02Z</time>
      </trkpt>
      <trkpt lat="46.49074" lon="-1.42753">
        <ele>47.8</ele>
        <time>2021-09-21T09:01:03Z</time>
      </trkpt>
      <trkpt lat="46.49074" lon="-1.42753">
        <ele>47.8</ele>
        <time>2021-09-21T09:01:04Z</time>
      </trkpt>
      <trkpt lat="46.49074" lon="-1.42754">
        <ele>47.8</ele>
        <time>2021-09-21T09:01:05Z</time>
      </trkpt>
      <trkpt lat="46.49073" lon="-1.42754">
        <ele>47.8</ele>
        <time>2021-09-21T09:01:06Z</time>
      </trkpt>
      <trkpt lat="46.49073" lon="-1.42754">
        <ele>47.8</ele>
        <time>2021-09-21T09:01:07Z</time>
      </trkpt>
      <trkpt lat="46.49072" lon="-1.42755">
        <ele>47.6</ele>
        <time>2021-09-21T09:01:08Z</time>
      </trkpt>
      <trkpt lat="46.49071" lon="-1.42755">
        <ele>47.6</ele>
        <time>2021-09-21T09:01:09Z</time>
      </trkpt>
      <trkpt lat="46.4907" lon="-1.42755">
        <ele>47.6</ele>
        <time>2021-09-21T09:01:10Z</time>
      </trkpt>
      <trkpt lat="46.49069" lon="-1.42756">
        <ele>47.6</ele>
        <time>2021-09-21T09:01:11Z</time>
      </trkpt>
      <trkpt lat="46.49068" lon="-1.42756">
        <ele>47.6</ele>
        <time>2021-09-21T09:01:12Z</time>
      </trkpt>
      <trkpt lat="46.49068" lon="-1.42756">
        <ele>47.5</ele>
        <time>2021-09-21T09:01:13Z</time>
      </trkpt>
      <trkpt lat="46.49067" lon="-1.42755">
        <ele>47.5</ele>
        <time>2021-09-21T09:01:14Z</time>
      </trkpt>
      <trkpt lat="46.49067" lon="-1.42755">
        <ele>47.5</ele>
        <time>2021-09-21T09:01:15Z</time>
      </trkpt>
      <trkpt lat="46.49066" lon="-1.42755">
        <ele>47.5</ele>
        <time>2021-09-21T09:01:16Z</time>
      </trkpt>
      <trkpt lat="46.49066" lon="-1.42755">
        <ele>47.5</ele>
        <time>2021-09-21T09:01:17Z</time>
      </trkpt>
      <trkpt lat="46.49065" lon="-1.42755">
        <ele>47.5</ele>
        <time>2021-09-21T09:01:18Z</time>
      </trkpt>
      <trkpt lat="46.49064" lon="-1.42755">
        <ele>47.5</ele>
        <time>2021-09-21T09:01:19Z</time>
      </trkpt>
      <trkpt lat="46.49063" lon="-1.42755">
        <ele>47.5</ele>
        <time>2021-09-21T09:01:20Z</time>
      </trkpt>
      <trkpt lat="46.49062" lon="-1.42755">
        <ele>47.4</ele>
        <time>2021-09-21T09:01:21Z</time>
      </trkpt>
      <trkpt lat="46.49061" lon="-1.42754">
        <ele>47.4</ele>
        <time>2021-09-21T09:01:22Z</time>
      </trkpt>
      <trkpt lat="46.4906" lon="-1.42754">
        <ele>47.4</ele>
        <time>2021-09-21T09:01:23Z</time>
      </trkpt>
      <trkpt lat="46.49059" lon="-1.42754">
        <ele>47.4</ele>
        <time>2021-09-21T09:01:24Z</time>
      </trkpt>
      <trkpt lat="46.49059" lon="-1.42754">
        <ele>47.4</ele>
        <time>2021-09-21T09:01:25Z</time>
      </trkpt>
      <trkpt lat="46.49059" lon="-1.42754">
        <ele>47.4</ele>
        <time>2021-09-21T09:01:26Z</time>
      </trkpt>
      <trkpt lat="46.49059" lon="-1.42754">
        <ele>47.4</ele>
        <time>2021-09-21T09:01:27Z</time>
      </trkpt>
      <trkpt lat="46.49059" lon="-1.42754">
        <ele>47.4</ele>
        <time>2021-09-21T09:01:28Z</time>
      </trkpt>
      <trkpt lat="46.49058" lon="-1.42753">
        <ele>47.4</ele>
        <time>2021-09-21T09:01:29Z</time>
      </trkpt>
      <trkpt lat="46.49058" lon="-1.42753">
        <ele>47.4</ele>
        <time>2021-09-21T09:01:30Z</time>
      </trkpt>
      <trkpt lat="46.49057" lon="-1.42753">
        <ele>47.3</ele>
        <time>2021-09-21T09:01:31Z</time>
      </trkpt>
      <trkpt lat="46.49057" lon="-1.42752">
        <ele>47.3</ele>
        <time>2021-09-21T09:01:32Z</time>
      </trkpt>
      <trkpt lat="46.49056" lon="-1.42751">
        <ele>47.3</ele>
        <time>2021-09-21T09:01:33Z</time>
      </trkpt>
      <trkpt lat="46.49055" lon="-1.42751">
        <ele>47.3</ele>
        <time>2021-09-21T09:01:34Z</time>
      </trkpt>
      <trkpt lat="46.49054" lon="-1.4275">
        <ele>47.3</ele>
        <time>2021-09-21T09:01:35Z</time>
      </trkpt>
      <trkpt lat="46.49054" lon="-1.4275">
        <ele>47.3</ele>
        <time>2021-09-21T09:01:36Z</time>
      </trkpt>
      <trkpt lat="46.49053" lon="-1.42749">
        <ele>47.3</ele>
        <time>2021-09-21T09:01:37Z</time>
      </trkpt>
      <trkpt lat="46.49053" lon="-1.42749">
        <ele>47.2</ele>
        <time>2021-09-21T09:01:38Z</time>
      </trkpt>
      <trkpt lat="46.49052" lon="-1.42749">
        <ele>47.2</ele>
        <time>2021-09-21T09:01:39Z</time>
      </trkpt>
      <trkpt lat="46.49052" lon="-1.42749">
        <ele>47.2</ele>
        <time>2021-09-21T09:01:40Z</time>
      </trkpt>
      <trkpt lat="46.49051" lon="-1.42749">
        <ele>47.2</ele>
        <time>2021-09-21T09:01:41Z</time>
      </trkpt>
      <trkpt lat="46.49051" lon="-1.42748">
        <ele>47.2</ele>
        <time>2021-09-21T09:01:42Z</time>
      </trkpt>
      <trkpt lat="46.4905" lon="-1.42748">
        <ele>47.2</ele>
        <time>2021-09-21T09:01:43Z</time>
      </trkpt>
      <trkpt lat="46.49049" lon="-1.42748">
        <ele>47.2</ele>
        <time>2021-09-21T09:01:44Z</time>
      </trkpt>
      <trkpt lat="46.49049" lon="-1.42747">
        <ele>47.2</ele>
        <time>2021-09-21T09:01:45Z</time>
      </trkpt>
      <trkpt lat="46.49049" lon="-1.42747">
        <ele>47.1</ele>
        <time>2021-09-21T09:01:46Z</time>
      </trkpt>
      <trkpt lat="46.49048" lon="-1.42748">
        <ele>47.1</ele>
        <time>2021-09-21T09:01:47Z</time>
      </trkpt>
      <trkpt lat="46.49048" lon="-1.42748">
        <ele>47.1</ele>
        <time>2021-09-21T09:01:48Z</time>
      </trkpt>
      <trkpt lat="46.49048" lon="-1.42748">
        <ele>47.1</ele>
        <time>2021-09-21T09:01:49Z</time>
      </trkpt>
      <trkpt lat="46.49047" lon="-1.42748">
        <ele>47.1</ele>
        <time>2021-09-21T09:01:50Z</time>
      </trkpt>
      <trkpt lat="46.49047" lon="-1.42748">
        <ele>47.1</ele>
        <time>2021-09-21T09:01:51Z</time>
      </trkpt>
      <trkpt lat="46.49046" lon="-1.42748">
        <ele>47.1</ele>
        <time>2021-09-21T09:01:52Z</time>
      </trkpt>
      <trkpt lat="46.49045" lon="-1.42747">
        <ele>47.1</ele>
        <time>2021-09-21T09:01:53Z</time>
      </trkpt>
      <trkpt lat="46.49044" lon="-1.42747">
        <ele>47</ele>
        <time>2021-09-21T09:01:54Z</time>
      </trkpt>
      <trkpt lat="46.49043" lon="-1.42747">
        <ele>47</ele>
        <time>2021-09-21T09:01:55Z</time>
      </trkpt>
      <trkpt lat="46.49042" lon="-1.42747">
        <ele>47</ele>
        <time>2021-09-21T09:01:56Z</time>
      </trkpt>
      <trkpt lat="46.49041" lon="-1.42747">
        <ele>46.8</ele>
        <time>2021-09-21T09:01:57Z</time>
      </trkpt>
      <trkpt lat="46.4904" lon="-1.42747">
        <ele>46.8</ele>
        <time>2021-09-21T09:01:58Z</time>
      </trkpt>
      <trkpt lat="46.4904" lon="-1.42747">
        <ele>46.8</ele>
        <time>2021-09-21T09:01:59Z</time>
      </trkpt>
      <trkpt lat="46.49039" lon="-1.42747">
        <ele>46.8</ele>
        <time>2021-09-21T09:02:00Z</time>
      </trkpt>
      <trkpt lat="46.49039" lon="-1.42747">
        <ele>46.8</ele>
        <time>2021-09-21T09:02:01Z</time>
      </trkpt>
      <trkpt lat="46.49039" lon="-1.42747">
        <ele>46.8</ele>
        <time>2021-09-21T09:02:02Z</time>
      </trkpt>
      <trkpt lat="46.49039" lon="-1.42747">
        <ele>46.8</ele>
        <time>2021-09-21T09:02:03Z</time>
      </trkpt>
      <trkpt lat="46.49039" lon="-1.42747">
        <ele>46.7</ele>
        <time>2021-09-21T09:02:04Z</time>
      </trkpt>
      <trkpt lat="46.49039" lon="-1.42747">
        <ele>46.7</ele>
        <time>2021-09-21T09:02:05Z</time>
      </trkpt>
      <trkpt lat="46.49039" lon="-1.42747">
        <ele>46.7</ele>
        <time>2021-09-21T09:02:06Z</time>
      </trkpt>
      <trkpt lat="46.49039" lon="-1.42747">
        <ele>46.7</ele>
        <time>2021-09-21T09:02:07Z</time>
      </trkpt>
      <trkpt lat="46.49038" lon="-1.42747">
        <ele>46.7</ele>
        <time>2021-09-21T09:02:08Z</time>
      </trkpt>
      <trkpt lat="46.49037" lon="-1.42748">
        <ele>46.7</ele>
        <time>2021-09-21T09:02:09Z</time>
      </trkpt>
      <trkpt lat="46.49037" lon="-1.42748">
        <ele>46.7</ele>
        <time>2021-09-21T09:02:10Z</time>
      </trkpt>
      <trkpt lat="46.49036" lon="-1.42748">
        <ele>46.6</ele>
        <time>2021-09-21T09:02:11Z</time>
      </trkpt>
      <trkpt lat="46.49035" lon="-1.42749">
        <ele>46.6</ele>
        <time>2021-09-21T09:02:12Z</time>
      </trkpt>
      <trkpt lat="46.49035" lon="-1.42749">
        <ele>46.6</ele>
        <time>2021-09-21T09:02:13Z</time>
      </trkpt>
      <trkpt lat="46.49034" lon="-1.4275">
        <ele>46.6</ele>
        <time>2021-09-21T09:02:14Z</time>
      </trkpt>
      <trkpt lat="46.49033" lon="-1.42751">
        <ele>46.6</ele>
        <time>2021-09-21T09:02:15Z</time>
      </trkpt>
      <trkpt lat="46.49033" lon="-1.42751">
        <ele>46.5</ele>
        <time>2021-09-21T09:02:16Z</time>
      </trkpt>
      <trkpt lat="46.49032" lon="-1.42752">
        <ele>46.5</ele>
        <time>2021-09-21T09:02:17Z</time>
      </trkpt>
      <trkpt lat="46.49031" lon="-1.42753">
        <ele>46.5</ele>
        <time>2021-09-21T09:02:18Z</time>
      </trkpt>
      <trkpt lat="46.4903" lon="-1.42753">
        <ele>46.5</ele>
        <time>2021-09-21T09:02:19Z</time>
      </trkpt>
      <trkpt lat="46.49029" lon="-1.42754">
        <ele>46.4</ele>
        <time>2021-09-21T09:02:20Z</time>
      </trkpt>
      <trkpt lat="46.49028" lon="-1.42755">
        <ele>46.4</ele>
        <time>2021-09-21T09:02:21Z</time>
      </trkpt>
      <trkpt lat="46.49027" lon="-1.42755">
        <ele>46</ele>
        <time>2021-09-21T09:02:22Z</time>
      </trkpt>
      <trkpt lat="46.49026" lon="-1.42756">
        <ele>46</ele>
        <time>2021-09-21T09:02:23Z</time>
      </trkpt>
      <trkpt lat="46.49025" lon="-1.42757">
        <ele>46</ele>
        <time>2021-09-21T09:02:24Z</time>
      </trkpt>
      <trkpt lat="46.49024" lon="-1.42757">
        <ele>45.9</ele>
        <time>2021-09-21T09:02:25Z</time>
      </trkpt>
      <trkpt lat="46.49023" lon="-1.42758">
        <ele>45.9</ele>
        <time>2021-09-21T09:02:26Z</time>
      </trkpt>
      <trkpt lat="46.49023" lon="-1.42758">
        <ele>45.9</ele>
        <time>2021-09-21T09:02:27Z</time>
      </trkpt>
      <trkpt lat="46.49022" lon="-1.42758">
        <ele>45.9</ele>
        <time>2021-09-21T09:02:28Z</time>
      </trkpt>
      <trkpt lat="46.49021" lon="-1.42759">
        <ele>45.9</ele>
        <time>2021-09-21T09:02:29Z</time>
      </trkpt>
      <trkpt lat="46.4902" lon="-1.42759">
        <ele>45.8</ele>
        <time>2021-09-21T09:02:30Z</time>
      </trkpt>
      <trkpt lat="46.49019" lon="-1.42759">
        <ele>45.8</ele>
        <time>2021-09-21T09:02:31Z</time>
      </trkpt>
      <trkpt lat="46.49019" lon="-1.42759">
        <ele>45.8</ele>
        <time>2021-09-21T09:02:32Z</time>
      </trkpt>
      <trkpt lat="46.49018" lon="-1.42759">
        <ele>45.8</ele>
        <time>2021-09-21T09:02:33Z</time>
      </trkpt>
      <trkpt lat="46.49018" lon="-1.42759">
        <ele>45.8</ele>
        <time>2021-09-21T09:02:34Z</time>
      </trkpt>
      <trkpt lat="46.49017" lon="-1.42759">
        <ele>45.8</ele>
        <time>2021-09-21T09:02:35Z</time>
      </trkpt>
      <trkpt lat="46.49017" lon="-1.42759">
        <ele>45.8</ele>
        <time>2021-09-21T09:02:36Z</time>
      </trkpt>
      <trkpt lat="46.49017" lon="-1.42759">
        <ele>45.8</ele>
        <time>2021-09-21T09:02:37Z</time>
      </trkpt>
      <trkpt lat="46.49017" lon="-1.42759">
        <ele>45.8</ele>
        <time>2021-09-21T09:02:38Z</time>
      </trkpt>
      <trkpt lat="46.49017" lon="-1.42759">
        <ele>45.8</ele>
        <time>2021-09-21T09:02:39Z</time>
      </trkpt>
      <trkpt lat="46.49017" lon="-1.42759">
        <ele>45.8</ele>
        <time>2021-09-21T09:02:40Z</time>
      </trkpt>
      <trkpt lat="46.49017" lon="-1.42759">
        <ele>45.8</ele>
        <time>2021-09-21T09:02:41Z</time>
      </trkpt>
      <trkpt lat="46.49016" lon="-1.42759">
        <ele>45.7</ele>
        <time>2021-09-21T09:02:42Z</time>
      </trkpt>
      <trkpt lat="46.49015" lon="-1.42758">
        <ele>45.7</ele>
        <time>2021-09-21T09:02:43Z</time>
      </trkpt>
      <trkpt lat="46.49015" lon="-1.42758">
        <ele>45.7</ele>
        <time>2021-09-21T09:02:44Z</time>
      </trkpt>
      <trkpt lat="46.49014" lon="-1.42757">
        <ele>45.7</ele>
        <time>2021-09-21T09:02:45Z</time>
      </trkpt>
      <trkpt lat="46.49014" lon="-1.42757">
        <ele>45.7</ele>
        <time>2021-09-21T09:02:46Z</time>
      </trkpt>
      <trkpt lat="46.49013" lon="-1.42756">
        <ele>45.7</ele>
        <time>2021-09-21T09:02:47Z</time>
      </trkpt>
      <trkpt lat="46.49013" lon="-1.42756">
        <ele>45.7</ele>
        <time>2021-09-21T09:02:48Z</time>
      </trkpt>
      <trkpt lat="46.49013" lon="-1.42756">
        <ele>45.7</ele>
        <time>2021-09-21T09:02:49Z</time>
      </trkpt>
      <trkpt lat="46.49013" lon="-1.42756">
        <ele>45.7</ele>
        <time>2021-09-21T09:02:50Z</time>
      </trkpt>
      <trkpt lat="46.49012" lon="-1.42756">
        <ele>45.7</ele>
        <time>2021-09-21T09:02:51Z</time>
      </trkpt>
      <trkpt lat="46.49012" lon="-1.42756">
        <ele>45.7</ele>
        <time>2021-09-21T09:02:52Z</time>
      </trkpt>
      <trkpt lat="46.49012" lon="-1.42756">
        <ele>45.7</ele>
        <time>2021-09-21T09:02:53Z</time>
      </trkpt>
      <trkpt lat="46.49012" lon="-1.42756">
        <ele>45.7</ele>
        <time>2021-09-21T09:02:54Z</time>
      </trkpt>
      <trkpt lat="46.49012" lon="-1.42756">
        <ele>45.6</ele>
        <time>2021-09-21T09:02:55Z</time>
      </trkpt>
      <trkpt lat="46.49012" lon="-1.42756">
        <ele>45.6</ele>
        <time>2021-09-21T09:02:56Z</time>
      </trkpt>
      <trkpt lat="46.49013" lon="-1.42756">
        <ele>45.6</ele>
        <time>2021-09-21T09:02:57Z</time>
      </trkpt>
      <trkpt lat="46.49013" lon="-1.42756">
        <ele>45.6</ele>
        <time>2021-09-21T09:02:58Z</time>
      </trkpt>
      <trkpt lat="46.49013" lon="-1.42756">
        <ele>45.6</ele>
        <time>2021-09-21T09:02:59Z</time>
      </trkpt>
      <trkpt lat="46.49013" lon="-1.42756">
        <ele>45.6</ele>
        <time>2021-09-21T09:03:00Z</time>
      </trkpt>
      <trkpt lat="46.49013" lon="-1.42756">
        <ele>45.6</ele>
        <time>2021-09-21T09:03:01Z</time>
      </trkpt>
      <trkpt lat="46.49013" lon="-1.42756">
        <ele>45.6</ele>
        <time>2021-09-21T09:03:02Z</time>
      </trkpt>
      <trkpt lat="46.49013" lon="-1.42756">
        <ele>45.6</ele>
        <time>2021-09-21T09:03:03Z</time>
      </trkpt>
      <trkpt lat="46.49013" lon="-1.42756">
        <ele>45.6</ele>
        <time>2021-09-21T09:03:04Z</time>
      </trkpt>
      <trkpt lat="46.49013" lon="-1.42756">
        <ele>45.6</ele>
        <time>2021-09-21T09:03:05Z</time>
      </trkpt>
      <trkpt lat="46.49013" lon="-1.42756">
        <ele>45.6</ele>
        <time>2021-09-21T09:03:06Z</time>
      </trkpt>
      <trkpt lat="46.49013" lon="-1.42756">
        <ele>45.6</ele>
        <time>2021-09-21T09:03:07Z</time>
      </trkpt>
      <trkpt lat="46.49013" lon="-1.42756">
        <ele>45.6</ele>
        <time>2021-09-21T09:03:08Z</time>
      </trkpt>
      <trkpt lat="46.49012" lon="-1.42756">
        <ele>45.6</ele>
        <time>2021-09-21T09:03:09Z</time>
      </trkpt>
      <trkpt lat="46.49012" lon="-1.42756">
        <ele>45.6</ele>
        <time>2021-09-21T09:03:10Z</time>
      </trkpt>
      <trkpt lat="46.49012" lon="-1.42755">
        <ele>45.6</ele>
        <time>2021-09-21T09:03:11Z</time>
      </trkpt>
      <trkpt lat="46.49012" lon="-1.42755">
        <ele>45.6</ele>
        <time>2021-09-21T09:03:12Z</time>
      </trkpt>
      <trkpt lat="46.49012" lon="-1.42755">
        <ele>45.6</ele>
        <time>2021-09-21T09:03:13Z</time>
      </trkpt>
      <trkpt lat="46.49012" lon="-1.42754">
        <ele>45.6</ele>
        <time>2021-09-21T09:03:14Z</time>
      </trkpt>
      <trkpt lat="46.49011" lon="-1.42754">
        <ele>45.6</ele>
        <time>2021-09-21T09:03:15Z</time>
      </trkpt>
      <trkpt lat="46.49011" lon="-1.42753">
        <ele>45.6</ele>
        <time>2021-09-21T09:03:16Z</time>
      </trkpt>
      <trkpt lat="46.49011" lon="-1.42753">
        <ele>45.6</ele>
        <time>2021-09-21T09:03:17Z</time>
      </trkpt>
      <trkpt lat="46.4901" lon="-1.42752">
        <ele>45.6</ele>
        <time>2021-09-21T09:03:18Z</time>
      </trkpt>
      <trkpt lat="46.4901" lon="-1.42752">
        <ele>45.5</ele>
        <time>2021-09-21T09:03:19Z</time>
      </trkpt>
      <trkpt lat="46.4901" lon="-1.42751">
        <ele>45.5</ele>
        <time>2021-09-21T09:03:20Z</time>
      </trkpt>
      <trkpt lat="46.4901" lon="-1.42751">
        <ele>45.5</ele>
        <time>2021-09-21T09:03:21Z</time>
      </trkpt>
      <trkpt lat="46.49009" lon="-1.4275">
        <ele>45.5</ele>
        <time>2021-09-21T09:03:22Z</time>
      </trkpt>
      <trkpt lat="46.49009" lon="-1.4275">
        <ele>45.5</ele>
        <time>2021-09-21T09:03:23Z</time>
      </trkpt>
      <trkpt lat="46.49009" lon="-1.4275">
        <ele>45.5</ele>
        <time>2021-09-21T09:03:24Z</time>
      </trkpt>
      <trkpt lat="46.49009" lon="-1.42749">
        <ele>45.5</ele>
        <time>2021-09-21T09:03:25Z</time>
      </trkpt>
      <trkpt lat="46.49009" lon="-1.42749">
        <ele>45.5</ele>
        <time>2021-09-21T09:03:26Z</time>
      </trkpt>
      <trkpt lat="46.49009" lon="-1.42749">
        <ele>45.5</ele>
        <time>2021-09-21T09:03:27Z</time>
      </trkpt>
      <trkpt lat="46.49009" lon="-1.42749">
        <ele>45.5</ele>
        <time>2021-09-21T09:03:28Z</time>
      </trkpt>
      <trkpt lat="46.49009" lon="-1.42749">
        <ele>45.5</ele>
        <time>2021-09-21T09:03:29Z</time>
      </trkpt>
      <trkpt lat="46.49009" lon="-1.42749">
        <ele>45.5</ele>
        <time>2021-09-21T09:03:30Z</time>
      </trkpt>
      <trkpt lat="46.49009" lon="-1.42749">
        <ele>45.5</ele>
        <time>2021-09-21T09:03:31Z</time>
      </trkpt>
      <trkpt lat="46.49009" lon="-1.42748">
        <ele>45.5</ele>
        <time>2021-09-21T09:03:32Z</time>
      </trkpt>
      <trkpt lat="46.49009" lon="-1.42746">
        <ele>45.5</ele>
        <time>2021-09-21T09:03:33Z</time>
      </trkpt>
      <trkpt lat="46.49008" lon="-1.42744">
        <ele>45.4</ele>
        <time>2021-09-21T09:03:34Z</time>
      </trkpt>
      <trkpt lat="46.49008" lon="-1.42741">
        <ele>45.4</ele>
        <time>2021-09-21T09:03:35Z</time>
      </trkpt>
      <trkpt lat="46.49008" lon="-1.42735">
        <ele>45.3</ele>
        <time>2021-09-21T09:03:36Z</time>
      </trkpt>
      <trkpt lat="46.49008" lon="-1.42733">
        <ele>45.2</ele>
        <time>2021-09-21T09:03:37Z</time>
      </trkpt>
      <trkpt lat="46.49008" lon="-1.42731">
        <ele>45.2</ele>
        <time>2021-09-21T09:03:38Z</time>
      </trkpt>
      <trkpt lat="46.49009" lon="-1.42729">
        <ele>45.2</ele>
        <time>2021-09-21T09:03:39Z</time>
      </trkpt>
      <trkpt lat="46.49009" lon="-1.42727">
        <ele>45.1</ele>
        <time>2021-09-21T09:03:40Z</time>
      </trkpt>
      <trkpt lat="46.49009" lon="-1.42725">
        <ele>45.1</ele>
        <time>2021-09-21T09:03:41Z</time>
      </trkpt>
      <trkpt lat="46.49009" lon="-1.42723">
        <ele>45.1</ele>
        <time>2021-09-21T09:03:42Z</time>
      </trkpt>
      <trkpt lat="46.4901" lon="-1.42721">
        <ele>45</ele>
        <time>2021-09-21T09:03:43Z</time>
      </trkpt>
      <trkpt lat="46.4901" lon="-1.4272">
        <ele>45</ele>
        <time>2021-09-21T09:03:44Z</time>
      </trkpt>
      <trkpt lat="46.49011" lon="-1.42719">
        <ele>45</ele>
        <time>2021-09-21T09:03:45Z</time>
      </trkpt>
      <trkpt lat="46.49011" lon="-1.42718">
        <ele>45</ele>
        <time>2021-09-21T09:03:46Z</time>
      </trkpt>
      <trkpt lat="46.49011" lon="-1.42718">
        <ele>44.9</ele>
        <time>2021-09-21T09:03:47Z</time>
      </trkpt>
      <trkpt lat="46.49011" lon="-1.42717">
        <ele>44.9</ele>
        <time>2021-09-21T09:03:48Z</time>
      </trkpt>
      <trkpt lat="46.49012" lon="-1.42716">
        <ele>44.9</ele>
        <time>2021-09-21T09:03:49Z</time>
      </trkpt>
      <trkpt lat="46.49012" lon="-1.42716">
        <ele>44.9</ele>
        <time>2021-09-21T09:03:50Z</time>
      </trkpt>
      <trkpt lat="46.49012" lon="-1.42715">
        <ele>44.9</ele>
        <time>2021-09-21T09:03:51Z</time>
      </trkpt>
      <trkpt lat="46.49012" lon="-1.42715">
        <ele>44.9</ele>
        <time>2021-09-21T09:03:52Z</time>
      </trkpt>
      <trkpt lat="46.49012" lon="-1.42716">
        <ele>44.9</ele>
        <time>2021-09-21T09:03:53Z</time>
      </trkpt>
      <trkpt lat="46.49012" lon="-1.42718">
        <ele>44.8</ele>
        <time>2021-09-21T09:03:54Z</time>
      </trkpt>
      <trkpt lat="46.49012" lon="-1.42719">
        <ele>44.8</ele>
        <time>2021-09-21T09:03:55Z</time>
      </trkpt>
      <trkpt lat="46.49013" lon="-1.4272">
        <ele>44.8</ele>
        <time>2021-09-21T09:03:56Z</time>
      </trkpt>
      <trkpt lat="46.49013" lon="-1.42722">
        <ele>44.8</ele>
        <time>2021-09-21T09:03:57Z</time>
      </trkpt>
      <trkpt lat="46.49013" lon="-1.42723">
        <ele>44.7</ele>
        <time>2021-09-21T09:03:58Z</time>
      </trkpt>
      <trkpt lat="46.49013" lon="-1.42724">
        <ele>44.7</ele>
        <time>2021-09-21T09:03:59Z</time>
      </trkpt>
      <trkpt lat="46.49013" lon="-1.42726">
        <ele>44.7</ele>
        <time>2021-09-21T09:04:00Z</time>
      </trkpt>
      <trkpt lat="46.49014" lon="-1.42727">
        <ele>44.7</ele>
        <time>2021-09-21T09:04:01Z</time>
      </trkpt>
      <trkpt lat="46.49014" lon="-1.42728">
        <ele>44.6</ele>
        <time>2021-09-21T09:04:02Z</time>
      </trkpt>
      <trkpt lat="46.49014" lon="-1.4273">
        <ele>44.6</ele>
        <time>2021-09-21T09:04:03Z</time>
      </trkpt>
      <trkpt lat="46.49014" lon="-1.42731">
        <ele>44.6</ele>
        <time>2021-09-21T09:04:04Z</time>
      </trkpt>
      <trkpt lat="46.49014" lon="-1.42733">
        <ele>44.5</ele>
        <time>2021-09-21T09:04:05Z</time>
      </trkpt>
      <trkpt lat="46.49015" lon="-1.42735">
        <ele>44.5</ele>
        <time>2021-09-21T09:04:06Z</time>
      </trkpt>
      <trkpt lat="46.49015" lon="-1.42737">
        <ele>44.5</ele>
        <time>2021-09-21T09:04:07Z</time>
      </trkpt>
      <trkpt lat="46.49015" lon="-1.42738">
        <ele>44.4</ele>
        <time>2021-09-21T09:04:08Z</time>
      </trkpt>
      <trkpt lat="46.49015" lon="-1.4274">
        <ele>44.4</ele>
        <time>2021-09-21T09:04:09Z</time>
      </trkpt>
      <trkpt lat="46.49015" lon="-1.42741">
        <ele>44.4</ele>
        <time>2021-09-21T09:04:10Z</time>
      </trkpt>
      <trkpt lat="46.49015" lon="-1.42742">
        <ele>44.4</ele>
        <time>2021-09-21T09:04:11Z</time>
      </trkpt>
      <trkpt lat="46.49015" lon="-1.42743">
        <ele>44.4</ele>
        <time>2021-09-21T09:04:12Z</time>
      </trkpt>
      <trkpt lat="46.49014" lon="-1.42744">
        <ele>44.3</ele>
        <time>2021-09-21T09:04:13Z</time>
      </trkpt>
      <trkpt lat="46.49014" lon="-1.42746">
        <ele>44.3</ele>
        <time>2021-09-21T09:04:14Z</time>
      </trkpt>
      <trkpt lat="46.49014" lon="-1.42749">
        <ele>44.2</ele>
        <time>2021-09-21T09:04:15Z</time>
      </trkpt>
      <trkpt lat="46.49012" lon="-1.42752">
        <ele>44.2</ele>
        <time>2021-09-21T09:04:16Z</time>
      </trkpt>
      <trkpt lat="46.49012" lon="-1.42752">
        <ele>44.1</ele>
        <time>2021-09-21T09:04:17Z</time>
      </trkpt>
      <trkpt lat="46.49011" lon="-1.42753">
        <ele>44.1</ele>
        <time>2021-09-21T09:04:18Z</time>
      </trkpt>
      <trkpt lat="46.49011" lon="-1.42753">
        <ele>44.1</ele>
        <time>2021-09-21T09:04:19Z</time>
      </trkpt>
      <trkpt lat="46.4901" lon="-1.42753">
        <ele>44.1</ele>
        <time>2021-09-21T09:04:20Z</time>
      </trkpt>
      <trkpt lat="46.49009" lon="-1.42754">
        <ele>44.1</ele>
        <time>2021-09-21T09:04:21Z</time>
      </trkpt>
      <trkpt lat="46.49009" lon="-1.42754">
        <ele>44</ele>
        <time>2021-09-21T09:04:22Z</time>
      </trkpt>
      <trkpt lat="46.49008" lon="-1.42755">
        <ele>44</ele>
        <time>2021-09-21T09:04:23Z</time>
      </trkpt>
      <trkpt lat="46.49008" lon="-1.42755">
        <ele>44</ele>
        <time>2021-09-21T09:04:24Z</time>
      </trkpt>
      <trkpt lat="46.49007" lon="-1.42756">
        <ele>44</ele>
        <time>2021-09-21T09:04:25Z</time>
      </trkpt>
      <trkpt lat="46.49006" lon="-1.42756">
        <ele>44</ele>
        <time>2021-09-21T09:04:26Z</time>
      </trkpt>
      <trkpt lat="46.49006" lon="-1.42757">
        <ele>43.9</ele>
        <time>2021-09-21T09:04:27Z</time>
      </trkpt>
      <trkpt lat="46.49005" lon="-1.42757">
        <ele>43.9</ele>
        <time>2021-09-21T09:04:28Z</time>
      </trkpt>
      <trkpt lat="46.49004" lon="-1.42758">
        <ele>43.9</ele>
        <time>2021-09-21T09:04:29Z</time>
      </trkpt>
      <trkpt lat="46.49004" lon="-1.42758">
        <ele>43.9</ele>
        <time>2021-09-21T09:04:30Z</time>
      </trkpt>
      <trkpt lat="46.49003" lon="-1.42759">
        <ele>43.9</ele>
        <time>2021-09-21T09:04:31Z</time>
      </trkpt>
      <trkpt lat="46.49003" lon="-1.42759">
        <ele>43.8</ele>
        <time>2021-09-21T09:04:32Z</time>
      </trkpt>
      <trkpt lat="46.49002" lon="-1.4276">
        <ele>43.8</ele>
        <time>2021-09-21T09:04:33Z</time>
      </trkpt>
      <trkpt lat="46.49001" lon="-1.42759">
        <ele>43.8</ele>
        <time>2021-09-21T09:04:34Z</time>
      </trkpt>
      <trkpt lat="46.49" lon="-1.42758">
        <ele>43.8</ele>
        <time>2021-09-21T09:04:35Z</time>
      </trkpt>
      <trkpt lat="46.48999" lon="-1.42757">
        <ele>43.7</ele>
        <time>2021-09-21T09:04:36Z</time>
      </trkpt>
      <trkpt lat="46.48999" lon="-1.42757">
        <ele>43.7</ele>
        <time>2021-09-21T09:04:37Z</time>
      </trkpt>
      <trkpt lat="46.48998" lon="-1.42756">
        <ele>43.7</ele>
        <time>2021-09-21T09:04:38Z</time>
      </trkpt>
      <trkpt lat="46.48998" lon="-1.42756">
        <ele>43.7</ele>
        <time>2021-09-21T09:04:39Z</time>
      </trkpt>
      <trkpt lat="46.48998" lon="-1.42756">
        <ele>43.7</ele>
        <time>2021-09-21T09:04:40Z</time>
      </trkpt>
      <trkpt lat="46.48998" lon="-1.42755">
        <ele>43.7</ele>
        <time>2021-09-21T09:04:41Z</time>
      </trkpt>
      <trkpt lat="46.48998" lon="-1.42755">
        <ele>43.7</ele>
        <time>2021-09-21T09:04:42Z</time>
      </trkpt>
      <trkpt lat="46.48998" lon="-1.42755">
        <ele>43.7</ele>
        <time>2021-09-21T09:04:43Z</time>
      </trkpt>
      <trkpt lat="46.48998" lon="-1.42755">
        <ele>43.6</ele>
        <time>2021-09-21T09:04:44Z</time>
      </trkpt>
      <trkpt lat="46.48998" lon="-1.42755">
        <ele>43.6</ele>
        <time>2021-09-21T09:04:45Z</time>
      </trkpt>
      <trkpt lat="46.48998" lon="-1.42755">
        <ele>43.6</ele>
        <time>2021-09-21T09:04:46Z</time>
      </trkpt>
      <trkpt lat="46.48998" lon="-1.42755">
        <ele>43.6</ele>
        <time>2021-09-21T09:04:47Z</time>
      </trkpt>
      <trkpt lat="46.48998" lon="-1.42755">
        <ele>43.6</ele>
        <time>2021-09-21T09:04:48Z</time>
      </trkpt>
      <trkpt lat="46.48998" lon="-1.42755">
        <ele>43.6</ele>
        <time>2021-09-21T09:04:49Z</time>
      </trkpt>
      <trkpt lat="46.48998" lon="-1.42755">
        <ele>43.6</ele>
        <time>2021-09-21T09:04:50Z</time>
      </trkpt>
      <trkpt lat="46.48998" lon="-1.42755">
        <ele>43.6</ele>
        <time>2021-09-21T09:04:51Z</time>
      </trkpt>
      <trkpt lat="46.48998" lon="-1.42755">
        <ele>43.6</ele>
        <time>2021-09-21T09:04:52Z</time>
      </trkpt>
      <trkpt lat="46.48998" lon="-1.42755">
        <ele>43.6</ele>
        <time>2021-09-21T09:04:53Z</time>
      </trkpt>
      <trkpt lat="46.48998" lon="-1.42755">
        <ele>43.6</ele>
        <time>2021-09-21T09:04:54Z</time>
      </trkpt>
      <trkpt lat="46.48998" lon="-1.42755">
        <ele>43.6</ele>
        <time>2021-09-21T09:04:55Z</time>
      </trkpt>
      <trkpt lat="46.48998" lon="-1.42755">
        <ele>43.6</ele>
        <time>2021-09-21T09:04:56Z</time>
      </trkpt>
      <trkpt lat="46.48998" lon="-1.42755">
        <ele>43.6</ele>
        <time>2021-09-21T09:04:57Z</time>
      </trkpt>
      <trkpt lat="46.48998" lon="-1.42755">
        <ele>43.6</ele>
        <time>2021-09-21T09:04:58Z</time>
      </trkpt>
      <trkpt lat="46.48998" lon="-1.42755">
        <ele>43.6</ele>
        <time>2021-09-21T09:04:59Z</time>
      </trkpt>
      <trkpt lat="46.48998" lon="-1.42755">
        <ele>43.6</ele>
        <time>2021-09-21T09:05:00Z</time>
      </trkpt>
      <trkpt lat="46.48998" lon="-1.42755">
        <ele>43.6</ele>
        <time>2021-09-21T09:05:01Z</time>
      </trkpt>
      <trkpt lat="46.48998" lon="-1.42755">
        <ele>43.6</ele>
        <time>2021-09-21T09:05:02Z</time>
      </trkpt>
      <trkpt lat="46.48998" lon="-1.42755">
        <ele>43.6</ele>
        <time>2021-09-21T09:05:03Z</time>
      </trkpt>
      <trkpt lat="46.48998" lon="-1.42755">
        <ele>43.6</ele>
        <time>2021-09-21T09:05:04Z</time>
      </trkpt>
      <trkpt lat="46.48998" lon="-1.42755">
        <ele>43.6</ele>
        <time>2021-09-21T09:05:05Z</time>
      </trkpt>
      <trkpt lat="46.48998" lon="-1.42755">
        <ele>43.6</ele>
        <time>2021-09-21T09:05:06Z</time>
      </trkpt>
      <trkpt lat="46.48999" lon="-1.42756">
        <ele>43.6</ele>
        <time>2021-09-21T09:05:07Z</time>
      </trkpt>
      <trkpt lat="46.48999" lon="-1.42756">
        <ele>43.6</ele>
        <time>2021-09-21T09:05:08Z</time>
      </trkpt>
      <trkpt lat="46.48999" lon="-1.42756">
        <ele>43.6</ele>
        <time>2021-09-21T09:05:09Z</time>
      </trkpt>
      <trkpt lat="46.49" lon="-1.42756">
        <ele>43.6</ele>
        <time>2021-09-21T09:05:10Z</time>
      </trkpt>
      <trkpt lat="46.49" lon="-1.42756">
        <ele>43.6</ele>
        <time>2021-09-21T09:05:11Z</time>
      </trkpt>
      <trkpt lat="46.49" lon="-1.42756">
        <ele>43.6</ele>
        <time>2021-09-21T09:05:12Z</time>
      </trkpt>
      <trkpt lat="46.49" lon="-1.42756">
        <ele>43.6</ele>
        <time>2021-09-21T09:05:13Z</time>
      </trkpt>
      <trkpt lat="46.49" lon="-1.42756">
        <ele>43.6</ele>
        <time>2021-09-21T09:05:14Z</time>
      </trkpt>
      <trkpt lat="46.49" lon="-1.42757">
        <ele>43.6</ele>
        <time>2021-09-21T09:05:15Z</time>
      </trkpt>
      <trkpt lat="46.49001" lon="-1.42757">
        <ele>43.5</ele>
        <time>2021-09-21T09:05:16Z</time>
      </trkpt>
      <trkpt lat="46.49001" lon="-1.42757">
        <ele>43.5</ele>
        <time>2021-09-21T09:05:17Z</time>
      </trkpt>
      <trkpt lat="46.49002" lon="-1.42757">
        <ele>43.5</ele>
        <time>2021-09-21T09:05:18Z</time>
      </trkpt>
      <trkpt lat="46.49003" lon="-1.42758">
        <ele>43.5</ele>
        <time>2021-09-21T09:05:19Z</time>
      </trkpt>
      <trkpt lat="46.49003" lon="-1.42758">
        <ele>43.4</ele>
        <time>2021-09-21T09:05:20Z</time>
      </trkpt>
      <trkpt lat="46.49004" lon="-1.42758">
        <ele>43.4</ele>
        <time>2021-09-21T09:05:21Z</time>
      </trkpt>
      <trkpt lat="46.49005" lon="-1.42759">
        <ele>43.4</ele>
        <time>2021-09-21T09:05:22Z</time>
      </trkpt>
      <trkpt lat="46.49006" lon="-1.42759">
        <ele>43.3</ele>
        <time>2021-09-21T09:05:23Z</time>
      </trkpt>
      <trkpt lat="46.49007" lon="-1.42759">
        <ele>43.5</ele>
        <time>2021-09-21T09:05:24Z</time>
      </trkpt>
      <trkpt lat="46.49009" lon="-1.42759">
        <ele>43.7</ele>
        <time>2021-09-21T09:05:25Z</time>
      </trkpt>
      <trkpt lat="46.4901" lon="-1.42759">
        <ele>43.8</ele>
        <time>2021-09-21T09:05:26Z</time>
      </trkpt>
      <trkpt lat="46.49011" lon="-1.42759">
        <ele>44</ele>
        <time>2021-09-21T09:05:27Z</time>
      </trkpt>
      <trkpt lat="46.49012" lon="-1.42759">
        <ele>44.1</ele>
        <time>2021-09-21T09:05:28Z</time>
      </trkpt>
      <trkpt lat="46.49012" lon="-1.42759">
        <ele>44.2</ele>
        <time>2021-09-21T09:05:29Z</time>
      </trkpt>
      <trkpt lat="46.49013" lon="-1.42759">
        <ele>44.3</ele>
        <time>2021-09-21T09:05:30Z</time>
      </trkpt>
      <trkpt lat="46.49014" lon="-1.42759">
        <ele>44.4</ele>
        <time>2021-09-21T09:05:31Z</time>
      </trkpt>
      <trkpt lat="46.49014" lon="-1.42759">
        <ele>44.5</ele>
        <time>2021-09-21T09:05:32Z</time>
      </trkpt>
      <trkpt lat="46.49015" lon="-1.42759">
        <ele>44.6</ele>
        <time>2021-09-21T09:05:33Z</time>
      </trkpt>
      <trkpt lat="46.49016" lon="-1.42759">
        <ele>44.6</ele>
        <time>2021-09-21T09:05:34Z</time>
      </trkpt>
      <trkpt lat="46.49017" lon="-1.42759">
        <ele>44.8</ele>
        <time>2021-09-21T09:05:35Z</time>
      </trkpt>
      <trkpt lat="46.49017" lon="-1.4276">
        <ele>44.9</ele>
        <time>2021-09-21T09:05:36Z</time>
      </trkpt>
      <trkpt lat="46.49018" lon="-1.4276">
        <ele>45</ele>
        <time>2021-09-21T09:05:37Z</time>
      </trkpt>
      <trkpt lat="46.49019" lon="-1.4276">
        <ele>45.1</ele>
        <time>2021-09-21T09:05:38Z</time>
      </trkpt>
      <trkpt lat="46.4902" lon="-1.42761">
        <ele>45.2</ele>
        <time>2021-09-21T09:05:39Z</time>
      </trkpt>
      <trkpt lat="46.49021" lon="-1.42761">
        <ele>45.3</ele>
        <time>2021-09-21T09:05:40Z</time>
      </trkpt>
      <trkpt lat="46.49022" lon="-1.42761">
        <ele>45.5</ele>
        <time>2021-09-21T09:05:41Z</time>
      </trkpt>
      <trkpt lat="46.49024" lon="-1.4276">
        <ele>45.6</ele>
        <time>2021-09-21T09:05:42Z</time>
      </trkpt>
      <trkpt lat="46.49025" lon="-1.4276">
        <ele>45.7</ele>
        <time>2021-09-21T09:05:43Z</time>
      </trkpt>
      <trkpt lat="46.49026" lon="-1.4276">
        <ele>45.8</ele>
        <time>2021-09-21T09:05:44Z</time>
      </trkpt>
      <trkpt lat="46.49027" lon="-1.42759">
        <ele>46</ele>
        <time>2021-09-21T09:05:45Z</time>
      </trkpt>
      <trkpt lat="46.49028" lon="-1.42758">
        <ele>46.1</ele>
        <time>2021-09-21T09:05:46Z</time>
      </trkpt>
      <trkpt lat="46.4903" lon="-1.42758">
        <ele>46.4</ele>
        <time>2021-09-21T09:05:47Z</time>
      </trkpt>
      <trkpt lat="46.49031" lon="-1.42757">
        <ele>46.4</ele>
        <time>2021-09-21T09:05:48Z</time>
      </trkpt>
      <trkpt lat="46.49032" lon="-1.42756">
        <ele>46.4</ele>
        <time>2021-09-21T09:05:49Z</time>
      </trkpt>
      <trkpt lat="46.49033" lon="-1.42755">
        <ele>46.5</ele>
        <time>2021-09-21T09:05:50Z</time>
      </trkpt>
      <trkpt lat="46.49034" lon="-1.42754">
        <ele>46.5</ele>
        <time>2021-09-21T09:05:51Z</time>
      </trkpt>
      <trkpt lat="46.49035" lon="-1.42753">
        <ele>46.6</ele>
        <time>2021-09-21T09:05:52Z</time>
      </trkpt>
      <trkpt lat="46.49036" lon="-1.42752">
        <ele>46.6</ele>
        <time>2021-09-21T09:05:53Z</time>
      </trkpt>
      <trkpt lat="46.49037" lon="-1.42751">
        <ele>46.6</ele>
        <time>2021-09-21T09:05:54Z</time>
      </trkpt>
      <trkpt lat="46.49038" lon="-1.4275">
        <ele>46.6</ele>
        <time>2021-09-21T09:05:55Z</time>
      </trkpt>
      <trkpt lat="46.49038" lon="-1.42749">
        <ele>46.7</ele>
        <time>2021-09-21T09:05:56Z</time>
      </trkpt>
      <trkpt lat="46.49039" lon="-1.42748">
        <ele>46.7</ele>
        <time>2021-09-21T09:05:57Z</time>
      </trkpt>
      <trkpt lat="46.4904" lon="-1.42748">
        <ele>46.8</ele>
        <time>2021-09-21T09:05:58Z</time>
      </trkpt>
      <trkpt lat="46.49041" lon="-1.42747">
        <ele>46.8</ele>
        <time>2021-09-21T09:05:59Z</time>
      </trkpt>
      <trkpt lat="46.49042" lon="-1.42747">
        <ele>46.8</ele>
        <time>2021-09-21T09:06:00Z</time>
      </trkpt>
      <trkpt lat="46.49043" lon="-1.42747">
        <ele>46.9</ele>
        <time>2021-09-21T09:06:01Z</time>
      </trkpt>
      <trkpt lat="46.49044" lon="-1.42747">
        <ele>47</ele>
        <time>2021-09-21T09:06:02Z</time>
      </trkpt>
      <trkpt lat="46.49045" lon="-1.42747">
        <ele>47</ele>
        <time>2021-09-21T09:06:03Z</time>
      </trkpt>
      <trkpt lat="46.49046" lon="-1.42747">
        <ele>47</ele>
        <time>2021-09-21T09:06:04Z</time>
      </trkpt>
      <trkpt lat="46.49047" lon="-1.42747">
        <ele>47</ele>
        <time>2021-09-21T09:06:05Z</time>
      </trkpt>
      <trkpt lat="46.49048" lon="-1.42747">
        <ele>47</ele>
        <time>2021-09-21T09:06:06Z</time>
      </trkpt>
      <trkpt lat="46.49049" lon="-1.42746">
        <ele>47.1</ele>
        <time>2021-09-21T09:06:07Z</time>
      </trkpt>
      <trkpt lat="46.4905" lon="-1.42745">
        <ele>47.1</ele>
        <time>2021-09-21T09:06:08Z</time>
      </trkpt>
      <trkpt lat="46.4905" lon="-1.42744">
        <ele>47.1</ele>
        <time>2021-09-21T09:06:09Z</time>
      </trkpt>
      <trkpt lat="46.49051" lon="-1.42743">
        <ele>47.1</ele>
        <time>2021-09-21T09:06:10Z</time>
      </trkpt>
      <trkpt lat="46.49051" lon="-1.42741">
        <ele>47.1</ele>
        <time>2021-09-21T09:06:11Z</time>
      </trkpt>
      <trkpt lat="46.49052" lon="-1.4274">
        <ele>47.1</ele>
        <time>2021-09-21T09:06:12Z</time>
      </trkpt>
      <trkpt lat="46.49052" lon="-1.42738">
        <ele>47.2</ele>
        <time>2021-09-21T09:06:13Z</time>
      </trkpt>
      <trkpt lat="46.49052" lon="-1.42737">
        <ele>47.2</ele>
        <time>2021-09-21T09:06:14Z</time>
      </trkpt>
      <trkpt lat="46.49053" lon="-1.42735">
        <ele>47.2</ele>
        <time>2021-09-21T09:06:15Z</time>
      </trkpt>
      <trkpt lat="46.49053" lon="-1.42734">
        <ele>47.2</ele>
        <time>2021-09-21T09:06:16Z</time>
      </trkpt>
      <trkpt lat="46.49053" lon="-1.42732">
        <ele>47.2</ele>
        <time>2021-09-21T09:06:17Z</time>
      </trkpt>
      <trkpt lat="46.49053" lon="-1.42731">
        <ele>47.3</ele>
        <time>2021-09-21T09:06:18Z</time>
      </trkpt>
      <trkpt lat="46.49054" lon="-1.42729">
        <ele>47.3</ele>
        <time>2021-09-21T09:06:19Z</time>
      </trkpt>
      <trkpt lat="46.49054" lon="-1.42728">
        <ele>47.3</ele>
        <time>2021-09-21T09:06:20Z</time>
      </trkpt>
      <trkpt lat="46.49054" lon="-1.42726">
        <ele>47.3</ele>
        <time>2021-09-21T09:06:21Z</time>
      </trkpt>
      <trkpt lat="46.49055" lon="-1.42725">
        <ele>47.3</ele>
        <time>2021-09-21T09:06:22Z</time>
      </trkpt>
      <trkpt lat="46.49055" lon="-1.42724">
        <ele>47.4</ele>
        <time>2021-09-21T09:06:23Z</time>
      </trkpt>
      <trkpt lat="46.49055" lon="-1.42722">
        <ele>47.4</ele>
        <time>2021-09-21T09:06:24Z</time>
      </trkpt>
      <trkpt lat="46.49055" lon="-1.42721">
        <ele>47.4</ele>
        <time>2021-09-21T09:06:25Z</time>
      </trkpt>
      <trkpt lat="46.49056" lon="-1.4272">
        <ele>47.4</ele>
        <time>2021-09-21T09:06:26Z</time>
      </trkpt>
      <trkpt lat="46.49056" lon="-1.42718">
        <ele>47.4</ele>
        <time>2021-09-21T09:06:27Z</time>
      </trkpt>
      <trkpt lat="46.49056" lon="-1.42717">
        <ele>47.4</ele>
        <time>2021-09-21T09:06:28Z</time>
      </trkpt>
      <trkpt lat="46.49056" lon="-1.42716">
        <ele>47.5</ele>
        <time>2021-09-21T09:06:29Z</time>
      </trkpt>
      <trkpt lat="46.49056" lon="-1.42714">
        <ele>47.5</ele>
        <time>2021-09-21T09:06:30Z</time>
      </trkpt>
      <trkpt lat="46.49057" lon="-1.42713">
        <ele>47.5</ele>
        <time>2021-09-21T09:06:31Z</time>
      </trkpt>
      <trkpt lat="46.49057" lon="-1.42712">
        <ele>47.5</ele>
        <time>2021-09-21T09:06:32Z</time>
      </trkpt>
      <trkpt lat="46.49057" lon="-1.4271">
        <ele>47.5</ele>
        <time>2021-09-21T09:06:33Z</time>
      </trkpt>
      <trkpt lat="46.49057" lon="-1.42709">
        <ele>47.5</ele>
        <time>2021-09-21T09:06:34Z</time>
      </trkpt>
      <trkpt lat="46.49057" lon="-1.42707">
        <ele>47.5</ele>
        <time>2021-09-21T09:06:35Z</time>
      </trkpt>
      <trkpt lat="46.49057" lon="-1.42706">
        <ele>47.6</ele>
        <time>2021-09-21T09:06:36Z</time>
      </trkpt>
      <trkpt lat="46.49058" lon="-1.42705">
        <ele>47.6</ele>
        <time>2021-09-21T09:06:37Z</time>
      </trkpt>
      <trkpt lat="46.49058" lon="-1.42703">
        <ele>47.6</ele>
        <time>2021-09-21T09:06:38Z</time>
      </trkpt>
      <trkpt lat="46.49058" lon="-1.42702">
        <ele>47.6</ele>
        <time>2021-09-21T09:06:39Z</time>
      </trkpt>
      <trkpt lat="46.49058" lon="-1.427">
        <ele>47.6</ele>
        <time>2021-09-21T09:06:40Z</time>
      </trkpt>
      <trkpt lat="46.49058" lon="-1.42699">
        <ele>47.6</ele>
        <time>2021-09-21T09:06:41Z</time>
      </trkpt>
      <trkpt lat="46.49058" lon="-1.42697">
        <ele>47.6</ele>
        <time>2021-09-21T09:06:42Z</time>
      </trkpt>
      <trkpt lat="46.49059" lon="-1.42696">
        <ele>47.7</ele>
        <time>2021-09-21T09:06:43Z</time>
      </trkpt>
      <trkpt lat="46.49059" lon="-1.42694">
        <ele>47.7</ele>
        <time>2021-09-21T09:06:44Z</time>
      </trkpt>
      <trkpt lat="46.49059" lon="-1.42693">
        <ele>47.7</ele>
        <time>2021-09-21T09:06:45Z</time>
      </trkpt>
      <trkpt lat="46.49059" lon="-1.42691">
        <ele>47.7</ele>
        <time>2021-09-21T09:06:46Z</time>
      </trkpt>
      <trkpt lat="46.4906" lon="-1.4269">
        <ele>47.7</ele>
        <time>2021-09-21T09:06:47Z</time>
      </trkpt>
      <trkpt lat="46.4906" lon="-1.42688">
        <ele>47.7</ele>
        <time>2021-09-21T09:06:48Z</time>
      </trkpt>
      <trkpt lat="46.4906" lon="-1.42687">
        <ele>47.8</ele>
        <time>2021-09-21T09:06:49Z</time>
      </trkpt>
      <trkpt lat="46.49061" lon="-1.42686">
        <ele>48.1</ele>
        <time>2021-09-21T09:06:50Z</time>
      </trkpt>
      <trkpt lat="46.49061" lon="-1.42684">
        <ele>48.1</ele>
        <time>2021-09-21T09:06:51Z</time>
      </trkpt>
      <trkpt lat="46.49062" lon="-1.42683">
        <ele>48.1</ele>
        <time>2021-09-21T09:06:52Z</time>
      </trkpt>
      <trkpt lat="46.49062" lon="-1.42682">
        <ele>48.1</ele>
        <time>2021-09-21T09:06:53Z</time>
      </trkpt>
      <trkpt lat="46.49063" lon="-1.42682">
        <ele>48.1</ele>
        <time>2021-09-21T09:06:54Z</time>
      </trkpt>
      <trkpt lat="46.49063" lon="-1.42681">
        <ele>48.2</ele>
        <time>2021-09-21T09:06:55Z</time>
      </trkpt>
      <trkpt lat="46.49064" lon="-1.42681">
        <ele>48.2</ele>
        <time>2021-09-21T09:06:56Z</time>
      </trkpt>
      <trkpt lat="46.49065" lon="-1.4268">
        <ele>48.2</ele>
        <time>2021-09-21T09:06:57Z</time>
      </trkpt>
      <trkpt lat="46.49066" lon="-1.4268">
        <ele>48.2</ele>
        <time>2021-09-21T09:06:58Z</time>
      </trkpt>
      <trkpt lat="46.49067" lon="-1.4268">
        <ele>48.2</ele>
        <time>2021-09-21T09:06:59Z</time>
      </trkpt>
      <trkpt lat="46.49067" lon="-1.4268">
        <ele>48.3</ele>
        <time>2021-09-21T09:07:00Z</time>
      </trkpt>
      <trkpt lat="46.49069" lon="-1.4268">
        <ele>48.3</ele>
        <time>2021-09-21T09:07:01Z</time>
      </trkpt>
      <trkpt lat="46.4907" lon="-1.4268">
        <ele>48.3</ele>
        <time>2021-09-21T09:07:02Z</time>
      </trkpt>
      <trkpt lat="46.4907" lon="-1.4268">
        <ele>48.3</ele>
        <time>2021-09-21T09:07:03Z</time>
      </trkpt>
      <trkpt lat="46.49071" lon="-1.4268">
        <ele>48.4</ele>
        <time>2021-09-21T09:07:04Z</time>
      </trkpt>
      <trkpt lat="46.49072" lon="-1.4268">
        <ele>48.4</ele>
        <time>2021-09-21T09:07:05Z</time>
      </trkpt>
      <trkpt lat="46.49073" lon="-1.4268">
        <ele>48.4</ele>
        <time>2021-09-21T09:07:06Z</time>
      </trkpt>
      <trkpt lat="46.49074" lon="-1.42679">
        <ele>48.4</ele>
        <time>2021-09-21T09:07:07Z</time>
      </trkpt>
      <trkpt lat="46.49074" lon="-1.42679">
        <ele>48.4</ele>
        <time>2021-09-21T09:07:08Z</time>
      </trkpt>
      <trkpt lat="46.49075" lon="-1.42679">
        <ele>48.4</ele>
        <time>2021-09-21T09:07:09Z</time>
      </trkpt>
      <trkpt lat="46.49076" lon="-1.42679">
        <ele>48.5</ele>
        <time>2021-09-21T09:07:10Z</time>
      </trkpt>
      <trkpt lat="46.49077" lon="-1.42679">
        <ele>48.5</ele>
        <time>2021-09-21T09:07:11Z</time>
      </trkpt>
      <trkpt lat="46.49077" lon="-1.42679">
        <ele>48.5</ele>
        <time>2021-09-21T09:07:12Z</time>
      </trkpt>
      <trkpt lat="46.49078" lon="-1.42678">
        <ele>48.5</ele>
        <time>2021-09-21T09:07:13Z</time>
      </trkpt>
      <trkpt lat="46.49079" lon="-1.42678">
        <ele>48.5</ele>
        <time>2021-09-21T09:07:14Z</time>
      </trkpt>
      <trkpt lat="46.4908" lon="-1.42678">
        <ele>48.5</ele>
        <time>2021-09-21T09:07:15Z</time>
      </trkpt>
      <trkpt lat="46.4908" lon="-1.42678">
        <ele>48.6</ele>
        <time>2021-09-21T09:07:16Z</time>
      </trkpt>
      <trkpt lat="46.49081" lon="-1.42678">
        <ele>48.6</ele>
        <time>2021-09-21T09:07:17Z</time>
      </trkpt>
      <trkpt lat="46.49082" lon="-1.42678">
        <ele>48.6</ele>
        <time>2021-09-21T09:07:18Z</time>
      </trkpt>
      <trkpt lat="46.49083" lon="-1.42677">
        <ele>48.6</ele>
        <time>2021-09-21T09:07:19Z</time>
      </trkpt>
      <trkpt lat="46.49083" lon="-1.42677">
        <ele>48.6</ele>
        <time>2021-09-21T09:07:20Z</time>
      </trkpt>
      <trkpt lat="46.49084" lon="-1.42677">
        <ele>48.6</ele>
        <time>2021-09-21T09:07:21Z</time>
      </trkpt>
      <trkpt lat="46.49085" lon="-1.42677">
        <ele>48.6</ele>
        <time>2021-09-21T09:07:22Z</time>
      </trkpt>
      <trkpt lat="46.49086" lon="-1.42677">
        <ele>48.6</ele>
        <time>2021-09-21T09:07:23Z</time>
      </trkpt>
      <trkpt lat="46.49087" lon="-1.42677">
        <ele>48.6</ele>
        <time>2021-09-21T09:07:24Z</time>
      </trkpt>
      <trkpt lat="46.49087" lon="-1.42676">
        <ele>48.6</ele>
        <time>2021-09-21T09:07:25Z</time>
      </trkpt>
      <trkpt lat="46.49088" lon="-1.42676">
        <ele>48.6</ele>
        <time>2021-09-21T09:07:26Z</time>
      </trkpt>
      <trkpt lat="46.49089" lon="-1.42676">
        <ele>48.6</ele>
        <time>2021-09-21T09:07:27Z</time>
      </trkpt>
      <trkpt lat="46.4909" lon="-1.42676">
        <ele>48.6</ele>
        <time>2021-09-21T09:07:28Z</time>
      </trkpt>
      <trkpt lat="46.4909" lon="-1.42676">
        <ele>48.6</ele>
        <time>2021-09-21T09:07:29Z</time>
      </trkpt>
      <trkpt lat="46.49091" lon="-1.42675">
        <ele>48.6</ele>
        <time>2021-09-21T09:07:30Z</time>
      </trkpt>
      <trkpt lat="46.49092" lon="-1.42675">
        <ele>48.6</ele>
        <time>2021-09-21T09:07:31Z</time>
      </trkpt>
      <trkpt lat="46.49093" lon="-1.42675">
        <ele>48.5</ele>
        <time>2021-09-21T09:07:32Z</time>
      </trkpt>
      <trkpt lat="46.49093" lon="-1.42675">
        <ele>48.5</ele>
        <time>2021-09-21T09:07:33Z</time>
      </trkpt>
      <trkpt lat="46.49094" lon="-1.42675">
        <ele>48.5</ele>
        <time>2021-09-21T09:07:34Z</time>
      </trkpt>
      <trkpt lat="46.49095" lon="-1.42675">
        <ele>48.5</ele>
        <time>2021-09-21T09:07:35Z</time>
      </trkpt>
      <trkpt lat="46.49096" lon="-1.42674">
        <ele>48.5</ele>
        <time>2021-09-21T09:07:36Z</time>
      </trkpt>
      <trkpt lat="46.49097" lon="-1.42674">
        <ele>48.5</ele>
        <time>2021-09-21T09:07:37Z</time>
      </trkpt>
      <trkpt lat="46.49097" lon="-1.42674">
        <ele>48.5</ele>
        <time>2021-09-21T09:07:38Z</time>
      </trkpt>
      <trkpt lat="46.49098" lon="-1.42674">
        <ele>48.5</ele>
        <time>2021-09-21T09:07:39Z</time>
      </trkpt>
      <trkpt lat="46.49099" lon="-1.42674">
        <ele>48.5</ele>
        <time>2021-09-21T09:07:40Z</time>
      </trkpt>
      <trkpt lat="46.491" lon="-1.42674">
        <ele>48.5</ele>
        <time>2021-09-21T09:07:41Z</time>
      </trkpt>
      <trkpt lat="46.491" lon="-1.42673">
        <ele>48.5</ele>
        <time>2021-09-21T09:07:42Z</time>
      </trkpt>
      <trkpt lat="46.49101" lon="-1.42673">
        <ele>48.5</ele>
        <time>2021-09-21T09:07:43Z</time>
      </trkpt>
      <trkpt lat="46.49102" lon="-1.42673">
        <ele>48.5</ele>
        <time>2021-09-21T09:07:44Z</time>
      </trkpt>
      <trkpt lat="46.49103" lon="-1.42673">
        <ele>48.4</ele>
        <time>2021-09-21T09:07:45Z</time>
      </trkpt>
      <trkpt lat="46.49103" lon="-1.42673">
        <ele>48.4</ele>
        <time>2021-09-21T09:07:46Z</time>
      </trkpt>
      <trkpt lat="46.49104" lon="-1.42673">
        <ele>48.4</ele>
        <time>2021-09-21T09:07:47Z</time>
      </trkpt>
      <trkpt lat="46.49105" lon="-1.42672">
        <ele>48.4</ele>
        <time>2021-09-21T09:07:48Z</time>
      </trkpt>
      <trkpt lat="46.49106" lon="-1.42672">
        <ele>48.4</ele>
        <time>2021-09-21T09:07:49Z</time>
      </trkpt>
      <trkpt lat="46.49106" lon="-1.42672">
        <ele>48.4</ele>
        <time>2021-09-21T09:07:50Z</time>
      </trkpt>
      <trkpt lat="46.49107" lon="-1.42672">
        <ele>48.4</ele>
        <time>2021-09-21T09:07:51Z</time>
      </trkpt>
      <trkpt lat="46.49108" lon="-1.42672">
        <ele>48.4</ele>
        <time>2021-09-21T09:07:52Z</time>
      </trkpt>
      <trkpt lat="46.49109" lon="-1.42672">
        <ele>48.3</ele>
        <time>2021-09-21T09:07:53Z</time>
      </trkpt>
      <trkpt lat="46.4911" lon="-1.42671">
        <ele>48.3</ele>
        <time>2021-09-21T09:07:54Z</time>
      </trkpt>
      <trkpt lat="46.4911" lon="-1.42671">
        <ele>48.3</ele>
        <time>2021-09-21T09:07:55Z</time>
      </trkpt>
      <trkpt lat="46.49111" lon="-1.42671">
        <ele>48.3</ele>
        <time>2021-09-21T09:07:56Z</time>
      </trkpt>
      <trkpt lat="46.49112" lon="-1.42671">
        <ele>48.3</ele>
        <time>2021-09-21T09:07:57Z</time>
      </trkpt>
      <trkpt lat="46.49113" lon="-1.4267">
        <ele>48.3</ele>
        <time>2021-09-21T09:07:58Z</time>
      </trkpt>
      <trkpt lat="46.49114" lon="-1.4267">
        <ele>48.3</ele>
        <time>2021-09-21T09:07:59Z</time>
      </trkpt>
      <trkpt lat="46.49115" lon="-1.42669">
        <ele>48.2</ele>
        <time>2021-09-21T09:08:00Z</time>
      </trkpt>
      <trkpt lat="46.49116" lon="-1.42669">
        <ele>48.2</ele>
        <time>2021-09-21T09:08:01Z</time>
      </trkpt>
      <trkpt lat="46.49117" lon="-1.42668">
        <ele>48.2</ele>
        <time>2021-09-21T09:08:02Z</time>
      </trkpt>
      <trkpt lat="46.49119" lon="-1.42668">
        <ele>48.2</ele>
        <time>2021-09-21T09:08:03Z</time>
      </trkpt>
      <trkpt lat="46.4912" lon="-1.42667">
        <ele>48.2</ele>
        <time>2021-09-21T09:08:04Z</time>
      </trkpt>
      <trkpt lat="46.49121" lon="-1.42667">
        <ele>48.2</ele>
        <time>2021-09-21T09:08:05Z</time>
      </trkpt>
      <trkpt lat="46.49122" lon="-1.42666">
        <ele>48.1</ele>
        <time>2021-09-21T09:08:06Z</time>
      </trkpt>
      <trkpt lat="46.49123" lon="-1.42666">
        <ele>48.1</ele>
        <time>2021-09-21T09:08:07Z</time>
      </trkpt>
      <trkpt lat="46.49124" lon="-1.42665">
        <ele>48.1</ele>
        <time>2021-09-21T09:08:08Z</time>
      </trkpt>
      <trkpt lat="46.49125" lon="-1.42665">
        <ele>48.1</ele>
        <time>2021-09-21T09:08:09Z</time>
      </trkpt>
      <trkpt lat="46.49126" lon="-1.42665">
        <ele>48.1</ele>
        <time>2021-09-21T09:08:10Z</time>
      </trkpt>
      <trkpt lat="46.49127" lon="-1.42665">
        <ele>48</ele>
        <time>2021-09-21T09:08:11Z</time>
      </trkpt>
      <trkpt lat="46.49129" lon="-1.42666">
        <ele>48</ele>
        <time>2021-09-21T09:08:12Z</time>
      </trkpt>
      <trkpt lat="46.4913" lon="-1.42667">
        <ele>48</ele>
        <time>2021-09-21T09:08:13Z</time>
      </trkpt>
      <trkpt lat="46.49131" lon="-1.42668">
        <ele>47.9</ele>
        <time>2021-09-21T09:08:14Z</time>
      </trkpt>
      <trkpt lat="46.49133" lon="-1.42669">
        <ele>47.9</ele>
        <time>2021-09-21T09:08:15Z</time>
      </trkpt>
      <trkpt lat="46.49134" lon="-1.42669">
        <ele>48</ele>
        <time>2021-09-21T09:08:16Z</time>
      </trkpt>
      <trkpt lat="46.49135" lon="-1.42669">
        <ele>48</ele>
        <time>2021-09-21T09:08:17Z</time>
      </trkpt>
      <trkpt lat="46.49137" lon="-1.42669">
        <ele>48</ele>
        <time>2021-09-21T09:08:18Z</time>
      </trkpt>
      <trkpt lat="46.49138" lon="-1.42669">
        <ele>48.1</ele>
        <time>2021-09-21T09:08:19Z</time>
      </trkpt>
      <trkpt lat="46.49139" lon="-1.42669">
        <ele>48.1</ele>
        <time>2021-09-21T09:08:20Z</time>
      </trkpt>
      <trkpt lat="46.49141" lon="-1.42668">
        <ele>48.1</ele>
        <time>2021-09-21T09:08:21Z</time>
      </trkpt>
      <trkpt lat="46.49142" lon="-1.42667">
        <ele>48.2</ele>
        <time>2021-09-21T09:08:22Z</time>
      </trkpt>
      <trkpt lat="46.49143" lon="-1.42667">
        <ele>48.2</ele>
        <time>2021-09-21T09:08:23Z</time>
      </trkpt>
      <trkpt lat="46.49144" lon="-1.42666">
        <ele>48.2</ele>
        <time>2021-09-21T09:08:24Z</time>
      </trkpt>
      <trkpt lat="46.49145" lon="-1.42665">
        <ele>48.2</ele>
        <time>2021-09-21T09:08:25Z</time>
      </trkpt>
      <trkpt lat="46.49146" lon="-1.42665">
        <ele>48.3</ele>
        <time>2021-09-21T09:08:26Z</time>
      </trkpt>
      <trkpt lat="46.49147" lon="-1.42664">
        <ele>48.3</ele>
        <time>2021-09-21T09:08:27Z</time>
      </trkpt>
      <trkpt lat="46.49148" lon="-1.42663">
        <ele>48.3</ele>
        <time>2021-09-21T09:08:28Z</time>
      </trkpt>
      <trkpt lat="46.49149" lon="-1.42663">
        <ele>48.3</ele>
        <time>2021-09-21T09:08:29Z</time>
      </trkpt>
      <trkpt lat="46.49151" lon="-1.42662">
        <ele>48.3</ele>
        <time>2021-09-21T09:08:30Z</time>
      </trkpt>
      <trkpt lat="46.49152" lon="-1.42662">
        <ele>48.3</ele>
        <time>2021-09-21T09:08:31Z</time>
      </trkpt>
      <trkpt lat="46.49153" lon="-1.42661">
        <ele>48.4</ele>
        <time>2021-09-21T09:08:32Z</time>
      </trkpt>
      <trkpt lat="46.49154" lon="-1.42661">
        <ele>48.4</ele>
        <time>2021-09-21T09:08:33Z</time>
      </trkpt>
      <trkpt lat="46.49155" lon="-1.42661">
        <ele>48.4</ele>
        <time>2021-09-21T09:08:34Z</time>
      </trkpt>
      <trkpt lat="46.49156" lon="-1.42661">
        <ele>48.4</ele>
        <time>2021-09-21T09:08:35Z</time>
      </trkpt>
      <trkpt lat="46.49157" lon="-1.4266">
        <ele>48.4</ele>
        <time>2021-09-21T09:08:36Z</time>
      </trkpt>
      <trkpt lat="46.49158" lon="-1.4266">
        <ele>48.4</ele>
        <time>2021-09-21T09:08:37Z</time>
      </trkpt>
      <trkpt lat="46.49159" lon="-1.4266">
        <ele>48.4</ele>
        <time>2021-09-21T09:08:38Z</time>
      </trkpt>
      <trkpt lat="46.4916" lon="-1.4266">
        <ele>48.4</ele>
        <time>2021-09-21T09:08:39Z</time>
      </trkpt>
      <trkpt lat="46.49161" lon="-1.4266">
        <ele>48.4</ele>
        <time>2021-09-21T09:08:40Z</time>
      </trkpt>
      <trkpt lat="46.49162" lon="-1.4266">
        <ele>48.4</ele>
        <time>2021-09-21T09:08:41Z</time>
      </trkpt>
      <trkpt lat="46.49163" lon="-1.42659">
        <ele>48.4</ele>
        <time>2021-09-21T09:08:42Z</time>
      </trkpt>
      <trkpt lat="46.49164" lon="-1.42659">
        <ele>48.5</ele>
        <time>2021-09-21T09:08:43Z</time>
      </trkpt>
      <trkpt lat="46.49165" lon="-1.42659">
        <ele>48.5</ele>
        <time>2021-09-21T09:08:44Z</time>
      </trkpt>
      <trkpt lat="46.49166" lon="-1.42659">
        <ele>48.5</ele>
        <time>2021-09-21T09:08:45Z</time>
      </trkpt>
      <trkpt lat="46.49167" lon="-1.42659">
        <ele>48.5</ele>
        <time>2021-09-21T09:08:46Z</time>
      </trkpt>
      <trkpt lat="46.49169" lon="-1.42659">
        <ele>48.5</ele>
        <time>2021-09-21T09:08:47Z</time>
      </trkpt>
      <trkpt lat="46.4917" lon="-1.42659">
        <ele>48.5</ele>
        <time>2021-09-21T09:08:48Z</time>
      </trkpt>
      <trkpt lat="46.49171" lon="-1.42659">
        <ele>48.5</ele>
        <time>2021-09-21T09:08:49Z</time>
      </trkpt>
      <trkpt lat="46.49172" lon="-1.42659">
        <ele>48.5</ele>
        <time>2021-09-21T09:08:50Z</time>
      </trkpt>
      <trkpt lat="46.49173" lon="-1.42658">
        <ele>48.5</ele>
        <time>2021-09-21T09:08:51Z</time>
      </trkpt>
      <trkpt lat="46.49174" lon="-1.42658">
        <ele>48.5</ele>
        <time>2021-09-21T09:08:52Z</time>
      </trkpt>
      <trkpt lat="46.49174" lon="-1.42658">
        <ele>48.5</ele>
        <time>2021-09-21T09:08:53Z</time>
      </trkpt>
      <trkpt lat="46.49175" lon="-1.42658">
        <ele>48.5</ele>
        <time>2021-09-21T09:08:54Z</time>
      </trkpt>
      <trkpt lat="46.49176" lon="-1.42658">
        <ele>48.5</ele>
        <time>2021-09-21T09:08:55Z</time>
      </trkpt>
      <trkpt lat="46.49177" lon="-1.42657">
        <ele>48.5</ele>
        <time>2021-09-21T09:08:56Z</time>
      </trkpt>
      <trkpt lat="46.49178" lon="-1.42657">
        <ele>48.6</ele>
        <time>2021-09-21T09:08:57Z</time>
      </trkpt>
      <trkpt lat="46.49179" lon="-1.42656">
        <ele>48.6</ele>
        <time>2021-09-21T09:08:58Z</time>
      </trkpt>
      <trkpt lat="46.4918" lon="-1.42655">
        <ele>48.6</ele>
        <time>2021-09-21T09:08:59Z</time>
      </trkpt>
      <trkpt lat="46.49181" lon="-1.42654">
        <ele>48.6</ele>
        <time>2021-09-21T09:09:00Z</time>
      </trkpt>
      <trkpt lat="46.49182" lon="-1.42654">
        <ele>48.6</ele>
        <time>2021-09-21T09:09:01Z</time>
      </trkpt>
      <trkpt lat="46.49183" lon="-1.42653">
        <ele>48.6</ele>
        <time>2021-09-21T09:09:02Z</time>
      </trkpt>
      <trkpt lat="46.49184" lon="-1.42652">
        <ele>48.6</ele>
        <time>2021-09-21T09:09:03Z</time>
      </trkpt>
      <trkpt lat="46.49185" lon="-1.42651">
        <ele>48.6</ele>
        <time>2021-09-21T09:09:04Z</time>
      </trkpt>
      <trkpt lat="46.49186" lon="-1.42651">
        <ele>48.6</ele>
        <time>2021-09-21T09:09:05Z</time>
      </trkpt>
      <trkpt lat="46.49187" lon="-1.4265">
        <ele>48.7</ele>
        <time>2021-09-21T09:09:06Z</time>
      </trkpt>
      <trkpt lat="46.49188" lon="-1.42649">
        <ele>48.7</ele>
        <time>2021-09-21T09:09:07Z</time>
      </trkpt>
      <trkpt lat="46.49189" lon="-1.42648">
        <ele>48.7</ele>
        <time>2021-09-21T09:09:08Z</time>
      </trkpt>
      <trkpt lat="46.4919" lon="-1.42648">
        <ele>48.7</ele>
        <time>2021-09-21T09:09:09Z</time>
      </trkpt>
      <trkpt lat="46.49192" lon="-1.42647">
        <ele>48.7</ele>
        <time>2021-09-21T09:09:10Z</time>
      </trkpt>
      <trkpt lat="46.49193" lon="-1.42646">
        <ele>48.7</ele>
        <time>2021-09-21T09:09:11Z</time>
      </trkpt>
      <trkpt lat="46.49194" lon="-1.42645">
        <ele>48.7</ele>
        <time>2021-09-21T09:09:12Z</time>
      </trkpt>
      <trkpt lat="46.49195" lon="-1.42645">
        <ele>48.7</ele>
        <time>2021-09-21T09:09:13Z</time>
      </trkpt>
      <trkpt lat="46.49196" lon="-1.42644">
        <ele>48.8</ele>
        <time>2021-09-21T09:09:14Z</time>
      </trkpt>
      <trkpt lat="46.49197" lon="-1.42643">
        <ele>48.8</ele>
        <time>2021-09-21T09:09:15Z</time>
      </trkpt>
      <trkpt lat="46.49198" lon="-1.42642">
        <ele>48.8</ele>
        <time>2021-09-21T09:09:16Z</time>
      </trkpt>
      <trkpt lat="46.49199" lon="-1.42642">
        <ele>48.8</ele>
        <time>2021-09-21T09:09:17Z</time>
      </trkpt>
      <trkpt lat="46.492" lon="-1.42641">
        <ele>48.8</ele>
        <time>2021-09-21T09:09:18Z</time>
      </trkpt>
      <trkpt lat="46.49202" lon="-1.4264">
        <ele>48.8</ele>
        <time>2021-09-21T09:09:19Z</time>
      </trkpt>
      <trkpt lat="46.49203" lon="-1.42639">
        <ele>48.8</ele>
        <time>2021-09-21T09:09:20Z</time>
      </trkpt>
      <trkpt lat="46.49204" lon="-1.42638">
        <ele>48.8</ele>
        <time>2021-09-21T09:09:21Z</time>
      </trkpt>
      <trkpt lat="46.49205" lon="-1.42637">
        <ele>48.8</ele>
        <time>2021-09-21T09:09:22Z</time>
      </trkpt>
      <trkpt lat="46.49206" lon="-1.42636">
        <ele>48.8</ele>
        <time>2021-09-21T09:09:23Z</time>
      </trkpt>
      <trkpt lat="46.49207" lon="-1.42635">
        <ele>48.8</ele>
        <time>2021-09-21T09:09:24Z</time>
      </trkpt>
      <trkpt lat="46.49208" lon="-1.42634">
        <ele>48.8</ele>
        <time>2021-09-21T09:09:25Z</time>
      </trkpt>
      <trkpt lat="46.49209" lon="-1.42633">
        <ele>48.8</ele>
        <time>2021-09-21T09:09:26Z</time>
      </trkpt>
      <trkpt lat="46.4921" lon="-1.42632">
        <ele>48.8</ele>
        <time>2021-09-21T09:09:27Z</time>
      </trkpt>
      <trkpt lat="46.49211" lon="-1.42631">
        <ele>48.8</ele>
        <time>2021-09-21T09:09:28Z</time>
      </trkpt>
      <trkpt lat="46.49212" lon="-1.42631">
        <ele>48.8</ele>
        <time>2021-09-21T09:09:29Z</time>
      </trkpt>
      <trkpt lat="46.49213" lon="-1.4263">
        <ele>48.8</ele>
        <time>2021-09-21T09:09:30Z</time>
      </trkpt>
      <trkpt lat="46.49214" lon="-1.4263">
        <ele>48.8</ele>
        <time>2021-09-21T09:09:31Z</time>
      </trkpt>
      <trkpt lat="46.49215" lon="-1.4263">
        <ele>48.8</ele>
        <time>2021-09-21T09:09:32Z</time>
      </trkpt>
      <trkpt lat="46.49215" lon="-1.42629">
        <ele>48.8</ele>
        <time>2021-09-21T09:09:33Z</time>
      </trkpt>
      <trkpt lat="46.49216" lon="-1.42629">
        <ele>48.8</ele>
        <time>2021-09-21T09:09:34Z</time>
      </trkpt>
      <trkpt lat="46.49216" lon="-1.42629">
        <ele>48.8</ele>
        <time>2021-09-21T09:09:35Z</time>
      </trkpt>
      <trkpt lat="46.49216" lon="-1.42629">
        <ele>48.8</ele>
        <time>2021-09-21T09:09:36Z</time>
      </trkpt>
      <trkpt lat="46.49216" lon="-1.42629">
        <ele>48.8</ele>
        <time>2021-09-21T09:09:37Z</time>
      </trkpt>
      <trkpt lat="46.49216" lon="-1.42629">
        <ele>48.8</ele>
        <time>2021-09-21T09:09:38Z</time>
      </trkpt>
      <trkpt lat="46.49216" lon="-1.42629">
        <ele>48.8</ele>
        <time>2021-09-21T09:09:39Z</time>
      </trkpt>
      <trkpt lat="46.49217" lon="-1.42628">
        <ele>48.8</ele>
        <time>2021-09-21T09:09:40Z</time>
      </trkpt>
      <trkpt lat="46.49218" lon="-1.42627">
        <ele>48.8</ele>
        <time>2021-09-21T09:09:41Z</time>
      </trkpt>
      <trkpt lat="46.49218" lon="-1.42626">
        <ele>48.8</ele>
        <time>2021-09-21T09:09:42Z</time>
      </trkpt>
      <trkpt lat="46.49219" lon="-1.42624">
        <ele>48.8</ele>
        <time>2021-09-21T09:09:43Z</time>
      </trkpt>
      <trkpt lat="46.4922" lon="-1.42623">
        <ele>48.8</ele>
        <time>2021-09-21T09:09:44Z</time>
      </trkpt>
      <trkpt lat="46.49221" lon="-1.42622">
        <ele>48.8</ele>
        <time>2021-09-21T09:09:45Z</time>
      </trkpt>
      <trkpt lat="46.49222" lon="-1.42621">
        <ele>48.8</ele>
        <time>2021-09-21T09:09:46Z</time>
      </trkpt>
      <trkpt lat="46.49222" lon="-1.4262">
        <ele>48.8</ele>
        <time>2021-09-21T09:09:47Z</time>
      </trkpt>
      <trkpt lat="46.49223" lon="-1.42619">
        <ele>48.8</ele>
        <time>2021-09-21T09:09:48Z</time>
      </trkpt>
      <trkpt lat="46.49224" lon="-1.42618">
        <ele>48.8</ele>
        <time>2021-09-21T09:09:49Z</time>
      </trkpt>
      <trkpt lat="46.49224" lon="-1.42618">
        <ele>48.8</ele>
        <time>2021-09-21T09:09:50Z</time>
      </trkpt>
      <trkpt lat="46.49225" lon="-1.42617">
        <ele>48.9</ele>
        <time>2021-09-21T09:09:51Z</time>
      </trkpt>
      <trkpt lat="46.49226" lon="-1.42616">
        <ele>48.9</ele>
        <time>2021-09-21T09:09:52Z</time>
      </trkpt>
      <trkpt lat="46.49227" lon="-1.42615">
        <ele>48.9</ele>
        <time>2021-09-21T09:09:53Z</time>
      </trkpt>
      <trkpt lat="46.49228" lon="-1.42614">
        <ele>48.9</ele>
        <time>2021-09-21T09:09:54Z</time>
      </trkpt>
      <trkpt lat="46.4923" lon="-1.42613">
        <ele>48.9</ele>
        <time>2021-09-21T09:09:55Z</time>
      </trkpt>
      <trkpt lat="46.49231" lon="-1.42613">
        <ele>48.9</ele>
        <time>2021-09-21T09:09:56Z</time>
      </trkpt>
      <trkpt lat="46.49232" lon="-1.42612">
        <ele>48.9</ele>
        <time>2021-09-21T09:09:57Z</time>
      </trkpt>
      <trkpt lat="46.49233" lon="-1.42611">
        <ele>48.9</ele>
        <time>2021-09-21T09:09:58Z</time>
      </trkpt>
      <trkpt lat="46.49234" lon="-1.4261">
        <ele>48.9</ele>
        <time>2021-09-21T09:09:59Z</time>
      </trkpt>
      <trkpt lat="46.49236" lon="-1.42609">
        <ele>48.9</ele>
        <time>2021-09-21T09:10:00Z</time>
      </trkpt>
      <trkpt lat="46.49237" lon="-1.42607">
        <ele>48.9</ele>
        <time>2021-09-21T09:10:01Z</time>
      </trkpt>
      <trkpt lat="46.49238" lon="-1.42606">
        <ele>48.9</ele>
        <time>2021-09-21T09:10:02Z</time>
      </trkpt>
      <trkpt lat="46.49239" lon="-1.42605">
        <ele>48.9</ele>
        <time>2021-09-21T09:10:03Z</time>
      </trkpt>
      <trkpt lat="46.4924" lon="-1.42604">
        <ele>48.9</ele>
        <time>2021-09-21T09:10:04Z</time>
      </trkpt>
      <trkpt lat="46.49241" lon="-1.42604">
        <ele>49</ele>
        <time>2021-09-21T09:10:05Z</time>
      </trkpt>
      <trkpt lat="46.49242" lon="-1.42603">
        <ele>49</ele>
        <time>2021-09-21T09:10:06Z</time>
      </trkpt>
      <trkpt lat="46.49243" lon="-1.42602">
        <ele>49</ele>
        <time>2021-09-21T09:10:07Z</time>
      </trkpt>
      <trkpt lat="46.49244" lon="-1.42601">
        <ele>49</ele>
        <time>2021-09-21T09:10:08Z</time>
      </trkpt>
      <trkpt lat="46.49245" lon="-1.42601">
        <ele>49</ele>
        <time>2021-09-21T09:10:09Z</time>
      </trkpt>
      <trkpt lat="46.49246" lon="-1.426">
        <ele>49</ele>
        <time>2021-09-21T09:10:10Z</time>
      </trkpt>
      <trkpt lat="46.49247" lon="-1.42599">
        <ele>49</ele>
        <time>2021-09-21T09:10:11Z</time>
      </trkpt>
      <trkpt lat="46.49248" lon="-1.42599">
        <ele>49</ele>
        <time>2021-09-21T09:10:12Z</time>
      </trkpt>
      <trkpt lat="46.49249" lon="-1.42598">
        <ele>49</ele>
        <time>2021-09-21T09:10:13Z</time>
      </trkpt>
      <trkpt lat="46.4925" lon="-1.42597">
        <ele>49.1</ele>
        <time>2021-09-21T09:10:14Z</time>
      </trkpt>
      <trkpt lat="46.49251" lon="-1.42595">
        <ele>49.1</ele>
        <time>2021-09-21T09:10:15Z</time>
      </trkpt>
      <trkpt lat="46.49252" lon="-1.42594">
        <ele>49.1</ele>
        <time>2021-09-21T09:10:16Z</time>
      </trkpt>
      <trkpt lat="46.49253" lon="-1.42593">
        <ele>49.1</ele>
        <time>2021-09-21T09:10:17Z</time>
      </trkpt>
      <trkpt lat="46.49254" lon="-1.42591">
        <ele>49.1</ele>
        <time>2021-09-21T09:10:18Z</time>
      </trkpt>
      <trkpt lat="46.49255" lon="-1.4259">
        <ele>49.1</ele>
        <time>2021-09-21T09:10:19Z</time>
      </trkpt>
      <trkpt lat="46.49256" lon="-1.42589">
        <ele>49.1</ele>
        <time>2021-09-21T09:10:20Z</time>
      </trkpt>
      <trkpt lat="46.49257" lon="-1.42589">
        <ele>49.1</ele>
        <time>2021-09-21T09:10:21Z</time>
      </trkpt>
      <trkpt lat="46.49258" lon="-1.42588">
        <ele>49.2</ele>
        <time>2021-09-21T09:10:22Z</time>
      </trkpt>
      <trkpt lat="46.4926" lon="-1.42588">
        <ele>49.2</ele>
        <time>2021-09-21T09:10:23Z</time>
      </trkpt>
      <trkpt lat="46.49261" lon="-1.42588">
        <ele>49.2</ele>
        <time>2021-09-21T09:10:24Z</time>
      </trkpt>
      <trkpt lat="46.49262" lon="-1.42588">
        <ele>49.2</ele>
        <time>2021-09-21T09:10:25Z</time>
      </trkpt>
      <trkpt lat="46.49263" lon="-1.42588">
        <ele>49.3</ele>
        <time>2021-09-21T09:10:26Z</time>
      </trkpt>
      <trkpt lat="46.49264" lon="-1.42589">
        <ele>49.3</ele>
        <time>2021-09-21T09:10:27Z</time>
      </trkpt>
      <trkpt lat="46.49265" lon="-1.42589">
        <ele>49.3</ele>
        <time>2021-09-21T09:10:28Z</time>
      </trkpt>
      <trkpt lat="46.49267" lon="-1.4259">
        <ele>49.3</ele>
        <time>2021-09-21T09:10:29Z</time>
      </trkpt>
      <trkpt lat="46.49268" lon="-1.42591">
        <ele>49.3</ele>
        <time>2021-09-21T09:10:30Z</time>
      </trkpt>
      <trkpt lat="46.49269" lon="-1.42593">
        <ele>49.3</ele>
        <time>2021-09-21T09:10:31Z</time>
      </trkpt>
      <trkpt lat="46.4927" lon="-1.42594">
        <ele>49.3</ele>
        <time>2021-09-21T09:10:32Z</time>
      </trkpt>
      <trkpt lat="46.49271" lon="-1.42595">
        <ele>49.3</ele>
        <time>2021-09-21T09:10:33Z</time>
      </trkpt>
      <trkpt lat="46.49271" lon="-1.42596">
        <ele>49.3</ele>
        <time>2021-09-21T09:10:34Z</time>
      </trkpt>
      <trkpt lat="46.49272" lon="-1.42597">
        <ele>49.3</ele>
        <time>2021-09-21T09:10:35Z</time>
      </trkpt>
      <trkpt lat="46.49272" lon="-1.42598">
        <ele>49.3</ele>
        <time>2021-09-21T09:10:36Z</time>
      </trkpt>
      <trkpt lat="46.49272" lon="-1.42598">
        <ele>49.3</ele>
        <time>2021-09-21T09:10:37Z</time>
      </trkpt>
      <trkpt lat="46.49272" lon="-1.42598">
        <ele>49.3</ele>
        <time>2021-09-21T09:10:38Z</time>
      </trkpt>
      <trkpt lat="46.49272" lon="-1.42599">
        <ele>49.3</ele>
        <time>2021-09-21T09:10:39Z</time>
      </trkpt>
      <trkpt lat="46.49272" lon="-1.42599">
        <ele>49.3</ele>
        <time>2021-09-21T09:10:40Z</time>
      </trkpt>
      <trkpt lat="46.49273" lon="-1.426">
        <ele>49.3</ele>
        <time>2021-09-21T09:10:41Z</time>
      </trkpt>
      <trkpt lat="46.49273" lon="-1.42602">
        <ele>49.3</ele>
        <time>2021-09-21T09:10:42Z</time>
      </trkpt>
      <trkpt lat="46.49273" lon="-1.42603">
        <ele>49.3</ele>
        <time>2021-09-21T09:10:43Z</time>
      </trkpt>
      <trkpt lat="46.49274" lon="-1.42605">
        <ele>49.3</ele>
        <time>2021-09-21T09:10:44Z</time>
      </trkpt>
      <trkpt lat="46.49274" lon="-1.42606">
        <ele>49.3</ele>
        <time>2021-09-21T09:10:45Z</time>
      </trkpt>
      <trkpt lat="46.49275" lon="-1.42608">
        <ele>49.3</ele>
        <time>2021-09-21T09:10:46Z</time>
      </trkpt>
      <trkpt lat="46.49275" lon="-1.42609">
        <ele>49.3</ele>
        <time>2021-09-21T09:10:47Z</time>
      </trkpt>
      <trkpt lat="46.49276" lon="-1.42611">
        <ele>49.3</ele>
        <time>2021-09-21T09:10:48Z</time>
      </trkpt>
      <trkpt lat="46.49277" lon="-1.42612">
        <ele>49.3</ele>
        <time>2021-09-21T09:10:49Z</time>
      </trkpt>
      <trkpt lat="46.49277" lon="-1.42614">
        <ele>49.3</ele>
        <time>2021-09-21T09:10:50Z</time>
      </trkpt>
      <trkpt lat="46.49278" lon="-1.42615">
        <ele>49.3</ele>
        <time>2021-09-21T09:10:51Z</time>
      </trkpt>
      <trkpt lat="46.49279" lon="-1.42617">
        <ele>49.3</ele>
        <time>2021-09-21T09:10:52Z</time>
      </trkpt>
      <trkpt lat="46.49279" lon="-1.42618">
        <ele>49.3</ele>
        <time>2021-09-21T09:10:53Z</time>
      </trkpt>
      <trkpt lat="46.4928" lon="-1.42619">
        <ele>49.3</ele>
        <time>2021-09-21T09:10:54Z</time>
      </trkpt>
      <trkpt lat="46.4928" lon="-1.4262">
        <ele>49.2</ele>
        <time>2021-09-21T09:10:55Z</time>
      </trkpt>
      <trkpt lat="46.49281" lon="-1.42621">
        <ele>49.2</ele>
        <time>2021-09-21T09:10:56Z</time>
      </trkpt>
      <trkpt lat="46.49282" lon="-1.42623">
        <ele>49.2</ele>
        <time>2021-09-21T09:10:57Z</time>
      </trkpt>
      <trkpt lat="46.49282" lon="-1.42624">
        <ele>49.2</ele>
        <time>2021-09-21T09:10:58Z</time>
      </trkpt>
      <trkpt lat="46.49283" lon="-1.42625">
        <ele>49.2</ele>
        <time>2021-09-21T09:10:59Z</time>
      </trkpt>
      <trkpt lat="46.49283" lon="-1.42626">
        <ele>49.2</ele>
        <time>2021-09-21T09:11:00Z</time>
      </trkpt>
      <trkpt lat="46.49284" lon="-1.42628">
        <ele>49.2</ele>
        <time>2021-09-21T09:11:01Z</time>
      </trkpt>
      <trkpt lat="46.49284" lon="-1.42629">
        <ele>49.2</ele>
        <time>2021-09-21T09:11:02Z</time>
      </trkpt>
      <trkpt lat="46.49285" lon="-1.4263">
        <ele>49.2</ele>
        <time>2021-09-21T09:11:03Z</time>
      </trkpt>
      <trkpt lat="46.49285" lon="-1.42632">
        <ele>49.2</ele>
        <time>2021-09-21T09:11:04Z</time>
      </trkpt>
      <trkpt lat="46.49286" lon="-1.42633">
        <ele>49.2</ele>
        <time>2021-09-21T09:11:05Z</time>
      </trkpt>
      <trkpt lat="46.49287" lon="-1.42634">
        <ele>49.2</ele>
        <time>2021-09-21T09:11:06Z</time>
      </trkpt>
      <trkpt lat="46.49287" lon="-1.42636">
        <ele>49.2</ele>
        <time>2021-09-21T09:11:07Z</time>
      </trkpt>
      <trkpt lat="46.49288" lon="-1.42637">
        <ele>49.2</ele>
        <time>2021-09-21T09:11:08Z</time>
      </trkpt>
      <trkpt lat="46.49288" lon="-1.42639">
        <ele>49.2</ele>
        <time>2021-09-21T09:11:09Z</time>
      </trkpt>
      <trkpt lat="46.49289" lon="-1.4264">
        <ele>49.2</ele>
        <time>2021-09-21T09:11:10Z</time>
      </trkpt>
      <trkpt lat="46.49289" lon="-1.42642">
        <ele>49.2</ele>
        <time>2021-09-21T09:11:11Z</time>
      </trkpt>
      <trkpt lat="46.4929" lon="-1.42643">
        <ele>49.2</ele>
        <time>2021-09-21T09:11:12Z</time>
      </trkpt>
      <trkpt lat="46.49291" lon="-1.42644">
        <ele>49.2</ele>
        <time>2021-09-21T09:11:13Z</time>
      </trkpt>
      <trkpt lat="46.49291" lon="-1.42646">
        <ele>49.2</ele>
        <time>2021-09-21T09:11:14Z</time>
      </trkpt>
      <trkpt lat="46.49292" lon="-1.42647">
        <ele>49.2</ele>
        <time>2021-09-21T09:11:15Z</time>
      </trkpt>
      <trkpt lat="46.49292" lon="-1.42649">
        <ele>49.2</ele>
        <time>2021-09-21T09:11:16Z</time>
      </trkpt>
      <trkpt lat="46.49293" lon="-1.4265">
        <ele>49.2</ele>
        <time>2021-09-21T09:11:17Z</time>
      </trkpt>
      <trkpt lat="46.49294" lon="-1.42652">
        <ele>49.2</ele>
        <time>2021-09-21T09:11:18Z</time>
      </trkpt>
      <trkpt lat="46.49294" lon="-1.42654">
        <ele>49.2</ele>
        <time>2021-09-21T09:11:19Z</time>
      </trkpt>
      <trkpt lat="46.49295" lon="-1.42655">
        <ele>49.2</ele>
        <time>2021-09-21T09:11:20Z</time>
      </trkpt>
      <trkpt lat="46.49296" lon="-1.42657">
        <ele>49.2</ele>
        <time>2021-09-21T09:11:21Z</time>
      </trkpt>
      <trkpt lat="46.49296" lon="-1.42658">
        <ele>49.2</ele>
        <time>2021-09-21T09:11:22Z</time>
      </trkpt>
      <trkpt lat="46.49297" lon="-1.4266">
        <ele>49.2</ele>
        <time>2021-09-21T09:11:23Z</time>
      </trkpt>
      <trkpt lat="46.49298" lon="-1.42661">
        <ele>49.2</ele>
        <time>2021-09-21T09:11:24Z</time>
      </trkpt>
      <trkpt lat="46.49298" lon="-1.42663">
        <ele>49.2</ele>
        <time>2021-09-21T09:11:25Z</time>
      </trkpt>
      <trkpt lat="46.49299" lon="-1.42664">
        <ele>49.2</ele>
        <time>2021-09-21T09:11:26Z</time>
      </trkpt>
      <trkpt lat="46.493" lon="-1.42666">
        <ele>49.1</ele>
        <time>2021-09-21T09:11:27Z</time>
      </trkpt>
      <trkpt lat="46.49301" lon="-1.42667">
        <ele>49.1</ele>
        <time>2021-09-21T09:11:28Z</time>
      </trkpt>
      <trkpt lat="46.49301" lon="-1.42669">
        <ele>49.1</ele>
        <time>2021-09-21T09:11:29Z</time>
      </trkpt>
      <trkpt lat="46.49302" lon="-1.4267">
        <ele>49.1</ele>
        <time>2021-09-21T09:11:30Z</time>
      </trkpt>
      <trkpt lat="46.49303" lon="-1.42672">
        <ele>49.1</ele>
        <time>2021-09-21T09:11:31Z</time>
      </trkpt>
      <trkpt lat="46.49304" lon="-1.42673">
        <ele>49.1</ele>
        <time>2021-09-21T09:11:32Z</time>
      </trkpt>
      <trkpt lat="46.49304" lon="-1.42675">
        <ele>49.1</ele>
        <time>2021-09-21T09:11:33Z</time>
      </trkpt>
      <trkpt lat="46.49305" lon="-1.42676">
        <ele>49.1</ele>
        <time>2021-09-21T09:11:34Z</time>
      </trkpt>
      <trkpt lat="46.49306" lon="-1.42678">
        <ele>49.1</ele>
        <time>2021-09-21T09:11:35Z</time>
      </trkpt>
      <trkpt lat="46.49307" lon="-1.42679">
        <ele>49.1</ele>
        <time>2021-09-21T09:11:36Z</time>
      </trkpt>
      <trkpt lat="46.49307" lon="-1.4268">
        <ele>49.1</ele>
        <time>2021-09-21T09:11:37Z</time>
      </trkpt>
      <trkpt lat="46.49308" lon="-1.42682">
        <ele>49.1</ele>
        <time>2021-09-21T09:11:38Z</time>
      </trkpt>
      <trkpt lat="46.49309" lon="-1.42683">
        <ele>49</ele>
        <time>2021-09-21T09:11:39Z</time>
      </trkpt>
      <trkpt lat="46.4931" lon="-1.42684">
        <ele>49</ele>
        <time>2021-09-21T09:11:40Z</time>
      </trkpt>
      <trkpt lat="46.4931" lon="-1.42686">
        <ele>49</ele>
        <time>2021-09-21T09:11:41Z</time>
      </trkpt>
      <trkpt lat="46.49311" lon="-1.42687">
        <ele>49</ele>
        <time>2021-09-21T09:11:42Z</time>
      </trkpt>
      <trkpt lat="46.49312" lon="-1.42688">
        <ele>49</ele>
        <time>2021-09-21T09:11:43Z</time>
      </trkpt>
      <trkpt lat="46.49312" lon="-1.42689">
        <ele>49</ele>
        <time>2021-09-21T09:11:44Z</time>
      </trkpt>
      <trkpt lat="46.49313" lon="-1.4269">
        <ele>49</ele>
        <time>2021-09-21T09:11:45Z</time>
      </trkpt>
      <trkpt lat="46.49313" lon="-1.42692">
        <ele>49</ele>
        <time>2021-09-21T09:11:46Z</time>
      </trkpt>
      <trkpt lat="46.49314" lon="-1.42693">
        <ele>49</ele>
        <time>2021-09-21T09:11:47Z</time>
      </trkpt>
      <trkpt lat="46.49314" lon="-1.42694">
        <ele>49</ele>
        <time>2021-09-21T09:11:48Z</time>
      </trkpt>
      <trkpt lat="46.49315" lon="-1.42695">
        <ele>48.9</ele>
        <time>2021-09-21T09:11:49Z</time>
      </trkpt>
      <trkpt lat="46.49315" lon="-1.42696">
        <ele>48.9</ele>
        <time>2021-09-21T09:11:50Z</time>
      </trkpt>
      <trkpt lat="46.49316" lon="-1.42697">
        <ele>48.9</ele>
        <time>2021-09-21T09:11:51Z</time>
      </trkpt>
      <trkpt lat="46.49316" lon="-1.42699">
        <ele>48.9</ele>
        <time>2021-09-21T09:11:52Z</time>
      </trkpt>
      <trkpt lat="46.49317" lon="-1.427">
        <ele>48.9</ele>
        <time>2021-09-21T09:11:53Z</time>
      </trkpt>
      <trkpt lat="46.49318" lon="-1.42702">
        <ele>48.9</ele>
        <time>2021-09-21T09:11:54Z</time>
      </trkpt>
      <trkpt lat="46.49318" lon="-1.42703">
        <ele>48.9</ele>
        <time>2021-09-21T09:11:55Z</time>
      </trkpt>
      <trkpt lat="46.49319" lon="-1.42705">
        <ele>48.9</ele>
        <time>2021-09-21T09:11:56Z</time>
      </trkpt>
      <trkpt lat="46.4932" lon="-1.42707">
        <ele>48.9</ele>
        <time>2021-09-21T09:11:57Z</time>
      </trkpt>
      <trkpt lat="46.4932" lon="-1.42708">
        <ele>48.9</ele>
        <time>2021-09-21T09:11:58Z</time>
      </trkpt>
      <trkpt lat="46.49321" lon="-1.4271">
        <ele>48.9</ele>
        <time>2021-09-21T09:11:59Z</time>
      </trkpt>
      <trkpt lat="46.49322" lon="-1.42711">
        <ele>48.9</ele>
        <time>2021-09-21T09:12:00Z</time>
      </trkpt>
      <trkpt lat="46.49322" lon="-1.42713">
        <ele>48.9</ele>
        <time>2021-09-21T09:12:01Z</time>
      </trkpt>
      <trkpt lat="46.49323" lon="-1.42715">
        <ele>48.9</ele>
        <time>2021-09-21T09:12:02Z</time>
      </trkpt>
      <trkpt lat="46.49324" lon="-1.42716">
        <ele>48.9</ele>
        <time>2021-09-21T09:12:03Z</time>
      </trkpt>
      <trkpt lat="46.49324" lon="-1.42718">
        <ele>48.9</ele>
        <time>2021-09-21T09:12:04Z</time>
      </trkpt>
      <trkpt lat="46.49325" lon="-1.4272">
        <ele>48.8</ele>
        <time>2021-09-21T09:12:05Z</time>
      </trkpt>
      <trkpt lat="46.49326" lon="-1.42721">
        <ele>48.8</ele>
        <time>2021-09-21T09:12:06Z</time>
      </trkpt>
      <trkpt lat="46.49327" lon="-1.42723">
        <ele>48.8</ele>
        <time>2021-09-21T09:12:07Z</time>
      </trkpt>
      <trkpt lat="46.49327" lon="-1.42724">
        <ele>48.8</ele>
        <time>2021-09-21T09:12:08Z</time>
      </trkpt>
      <trkpt lat="46.49328" lon="-1.42725">
        <ele>48.8</ele>
        <time>2021-09-21T09:12:09Z</time>
      </trkpt>
      <trkpt lat="46.49329" lon="-1.42727">
        <ele>48.8</ele>
        <time>2021-09-21T09:12:10Z</time>
      </trkpt>
      <trkpt lat="46.4933" lon="-1.42728">
        <ele>48.8</ele>
        <time>2021-09-21T09:12:11Z</time>
      </trkpt>
      <trkpt lat="46.4933" lon="-1.42729">
        <ele>48.8</ele>
        <time>2021-09-21T09:12:12Z</time>
      </trkpt>
      <trkpt lat="46.49331" lon="-1.42731">
        <ele>48.8</ele>
        <time>2021-09-21T09:12:13Z</time>
      </trkpt>
      <trkpt lat="46.49332" lon="-1.42732">
        <ele>48.8</ele>
        <time>2021-09-21T09:12:14Z</time>
      </trkpt>
      <trkpt lat="46.49333" lon="-1.42733">
        <ele>48.8</ele>
        <time>2021-09-21T09:12:15Z</time>
      </trkpt>
      <trkpt lat="46.49333" lon="-1.42734">
        <ele>48.8</ele>
        <time>2021-09-21T09:12:16Z</time>
      </trkpt>
      <trkpt lat="46.49334" lon="-1.42735">
        <ele>48.9</ele>
        <time>2021-09-21T09:12:17Z</time>
      </trkpt>
      <trkpt lat="46.49335" lon="-1.42736">
        <ele>48.9</ele>
        <time>2021-09-21T09:12:18Z</time>
      </trkpt>
      <trkpt lat="46.49336" lon="-1.42736">
        <ele>48.9</ele>
        <time>2021-09-21T09:12:19Z</time>
      </trkpt>
      <trkpt lat="46.49336" lon="-1.42737">
        <ele>48.9</ele>
        <time>2021-09-21T09:12:20Z</time>
      </trkpt>
      <trkpt lat="46.49337" lon="-1.42738">
        <ele>48.9</ele>
        <time>2021-09-21T09:12:21Z</time>
      </trkpt>
      <trkpt lat="46.49338" lon="-1.42739">
        <ele>49</ele>
        <time>2021-09-21T09:12:22Z</time>
      </trkpt>
      <trkpt lat="46.49339" lon="-1.4274">
        <ele>49</ele>
        <time>2021-09-21T09:12:23Z</time>
      </trkpt>
      <trkpt lat="46.49339" lon="-1.42741">
        <ele>49</ele>
        <time>2021-09-21T09:12:24Z</time>
      </trkpt>
      <trkpt lat="46.4934" lon="-1.42742">
        <ele>49</ele>
        <time>2021-09-21T09:12:25Z</time>
      </trkpt>
      <trkpt lat="46.49341" lon="-1.42743">
        <ele>49</ele>
        <time>2021-09-21T09:12:26Z</time>
      </trkpt>
      <trkpt lat="46.49341" lon="-1.42744">
        <ele>49</ele>
        <time>2021-09-21T09:12:27Z</time>
      </trkpt>
      <trkpt lat="46.49342" lon="-1.42745">
        <ele>49</ele>
        <time>2021-09-21T09:12:28Z</time>
      </trkpt>
      <trkpt lat="46.49343" lon="-1.42746">
        <ele>48.9</ele>
        <time>2021-09-21T09:12:29Z</time>
      </trkpt>
      <trkpt lat="46.49343" lon="-1.42747">
        <ele>48.9</ele>
        <time>2021-09-21T09:12:30Z</time>
      </trkpt>
      <trkpt lat="46.49344" lon="-1.42748">
        <ele>48.9</ele>
        <time>2021-09-21T09:12:31Z</time>
      </trkpt>
      <trkpt lat="46.49345" lon="-1.42749">
        <ele>48.9</ele>
        <time>2021-09-21T09:12:32Z</time>
      </trkpt>
      <trkpt lat="46.49345" lon="-1.42751">
        <ele>48.9</ele>
        <time>2021-09-21T09:12:33Z</time>
      </trkpt>
      <trkpt lat="46.49346" lon="-1.42752">
        <ele>48.8</ele>
        <time>2021-09-21T09:12:34Z</time>
      </trkpt>
      <trkpt lat="46.49347" lon="-1.42753">
        <ele>48.8</ele>
        <time>2021-09-21T09:12:35Z</time>
      </trkpt>
      <trkpt lat="46.49347" lon="-1.42755">
        <ele>48.8</ele>
        <time>2021-09-21T09:12:36Z</time>
      </trkpt>
      <trkpt lat="46.49348" lon="-1.42756">
        <ele>48.8</ele>
        <time>2021-09-21T09:12:37Z</time>
      </trkpt>
      <trkpt lat="46.49349" lon="-1.42757">
        <ele>48.8</ele>
        <time>2021-09-21T09:12:38Z</time>
      </trkpt>
      <trkpt lat="46.49349" lon="-1.42759">
        <ele>48.8</ele>
        <time>2021-09-21T09:12:39Z</time>
      </trkpt>
      <trkpt lat="46.4935" lon="-1.4276">
        <ele>48.8</ele>
        <time>2021-09-21T09:12:40Z</time>
      </trkpt>
      <trkpt lat="46.49351" lon="-1.42761">
        <ele>48.8</ele>
        <time>2021-09-21T09:12:41Z</time>
      </trkpt>
      <trkpt lat="46.49352" lon="-1.42763">
        <ele>48.8</ele>
        <time>2021-09-21T09:12:42Z</time>
      </trkpt>
      <trkpt lat="46.49352" lon="-1.42764">
        <ele>48.8</ele>
        <time>2021-09-21T09:12:43Z</time>
      </trkpt>
      <trkpt lat="46.49353" lon="-1.42765">
        <ele>48.7</ele>
        <time>2021-09-21T09:12:44Z</time>
      </trkpt>
      <trkpt lat="46.49354" lon="-1.42766">
        <ele>48.7</ele>
        <time>2021-09-21T09:12:45Z</time>
      </trkpt>
      <trkpt lat="46.49355" lon="-1.42767">
        <ele>48.7</ele>
        <time>2021-09-21T09:12:46Z</time>
      </trkpt>
      <trkpt lat="46.49355" lon="-1.42768">
        <ele>48.7</ele>
        <time>2021-09-21T09:12:47Z</time>
      </trkpt>
      <trkpt lat="46.49356" lon="-1.42769">
        <ele>48.7</ele>
        <time>2021-09-21T09:12:48Z</time>
      </trkpt>
      <trkpt lat="46.49357" lon="-1.42771">
        <ele>48.7</ele>
        <time>2021-09-21T09:12:49Z</time>
      </trkpt>
      <trkpt lat="46.49358" lon="-1.42772">
        <ele>48.7</ele>
        <time>2021-09-21T09:12:50Z</time>
      </trkpt>
      <trkpt lat="46.49358" lon="-1.42773">
        <ele>48.7</ele>
        <time>2021-09-21T09:12:51Z</time>
      </trkpt>
      <trkpt lat="46.49359" lon="-1.42774">
        <ele>48.7</ele>
        <time>2021-09-21T09:12:52Z</time>
      </trkpt>
      <trkpt lat="46.4936" lon="-1.42775">
        <ele>48.7</ele>
        <time>2021-09-21T09:12:53Z</time>
      </trkpt>
      <trkpt lat="46.49361" lon="-1.42776">
        <ele>48.7</ele>
        <time>2021-09-21T09:12:54Z</time>
      </trkpt>
      <trkpt lat="46.49362" lon="-1.42777">
        <ele>48.7</ele>
        <time>2021-09-21T09:12:55Z</time>
      </trkpt>
      <trkpt lat="46.49362" lon="-1.42778">
        <ele>48.7</ele>
        <time>2021-09-21T09:12:56Z</time>
      </trkpt>
      <trkpt lat="46.49363" lon="-1.42779">
        <ele>48.7</ele>
        <time>2021-09-21T09:12:57Z</time>
      </trkpt>
      <trkpt lat="46.49364" lon="-1.4278">
        <ele>48.7</ele>
        <time>2021-09-21T09:12:58Z</time>
      </trkpt>
      <trkpt lat="46.49365" lon="-1.42781">
        <ele>48.7</ele>
        <time>2021-09-21T09:12:59Z</time>
      </trkpt>
      <trkpt lat="46.49366" lon="-1.42782">
        <ele>48.7</ele>
        <time>2021-09-21T09:13:00Z</time>
      </trkpt>
      <trkpt lat="46.49366" lon="-1.42783">
        <ele>48.7</ele>
        <time>2021-09-21T09:13:01Z</time>
      </trkpt>
      <trkpt lat="46.49367" lon="-1.42785">
        <ele>48.7</ele>
        <time>2021-09-21T09:13:02Z</time>
      </trkpt>
      <trkpt lat="46.49368" lon="-1.42786">
        <ele>48.7</ele>
        <time>2021-09-21T09:13:03Z</time>
      </trkpt>
      <trkpt lat="46.49369" lon="-1.42787">
        <ele>48.7</ele>
        <time>2021-09-21T09:13:04Z</time>
      </trkpt>
      <trkpt lat="46.49369" lon="-1.42788">
        <ele>48.7</ele>
        <time>2021-09-21T09:13:05Z</time>
      </trkpt>
      <trkpt lat="46.4937" lon="-1.4279">
        <ele>48.7</ele>
        <time>2021-09-21T09:13:06Z</time>
      </trkpt>
      <trkpt lat="46.49371" lon="-1.42791">
        <ele>48.8</ele>
        <time>2021-09-21T09:13:07Z</time>
      </trkpt>
      <trkpt lat="46.49372" lon="-1.42792">
        <ele>48.8</ele>
        <time>2021-09-21T09:13:08Z</time>
      </trkpt>
      <trkpt lat="46.49373" lon="-1.42793">
        <ele>48.8</ele>
        <time>2021-09-21T09:13:09Z</time>
      </trkpt>
      <trkpt lat="46.49373" lon="-1.42795">
        <ele>48.8</ele>
        <time>2021-09-21T09:13:10Z</time>
      </trkpt>
      <trkpt lat="46.49374" lon="-1.42796">
        <ele>48.8</ele>
        <time>2021-09-21T09:13:11Z</time>
      </trkpt>
      <trkpt lat="46.49375" lon="-1.42797">
        <ele>48.8</ele>
        <time>2021-09-21T09:13:12Z</time>
      </trkpt>
      <trkpt lat="46.49376" lon="-1.42798">
        <ele>48.8</ele>
        <time>2021-09-21T09:13:13Z</time>
      </trkpt>
      <trkpt lat="46.49377" lon="-1.428">
        <ele>48.8</ele>
        <time>2021-09-21T09:13:14Z</time>
      </trkpt>
      <trkpt lat="46.49377" lon="-1.42801">
        <ele>48.8</ele>
        <time>2021-09-21T09:13:15Z</time>
      </trkpt>
      <trkpt lat="46.49378" lon="-1.42802">
        <ele>48.8</ele>
        <time>2021-09-21T09:13:16Z</time>
      </trkpt>
      <trkpt lat="46.49379" lon="-1.42803">
        <ele>48.8</ele>
        <time>2021-09-21T09:13:17Z</time>
      </trkpt>
      <trkpt lat="46.4938" lon="-1.42805">
        <ele>48.8</ele>
        <time>2021-09-21T09:13:18Z</time>
      </trkpt>
      <trkpt lat="46.49381" lon="-1.42806">
        <ele>48.9</ele>
        <time>2021-09-21T09:13:19Z</time>
      </trkpt>
      <trkpt lat="46.49382" lon="-1.42807">
        <ele>48.9</ele>
        <time>2021-09-21T09:13:20Z</time>
      </trkpt>
      <trkpt lat="46.49382" lon="-1.42809">
        <ele>48.9</ele>
        <time>2021-09-21T09:13:21Z</time>
      </trkpt>
      <trkpt lat="46.49383" lon="-1.4281">
        <ele>48.9</ele>
        <time>2021-09-21T09:13:22Z</time>
      </trkpt>
      <trkpt lat="46.49384" lon="-1.42811">
        <ele>48.9</ele>
        <time>2021-09-21T09:13:23Z</time>
      </trkpt>
      <trkpt lat="46.49385" lon="-1.42813">
        <ele>48.9</ele>
        <time>2021-09-21T09:13:24Z</time>
      </trkpt>
      <trkpt lat="46.49386" lon="-1.42814">
        <ele>48.9</ele>
        <time>2021-09-21T09:13:25Z</time>
      </trkpt>
      <trkpt lat="46.49387" lon="-1.42815">
        <ele>48.9</ele>
        <time>2021-09-21T09:13:26Z</time>
      </trkpt>
      <trkpt lat="46.49387" lon="-1.42816">
        <ele>48.9</ele>
        <time>2021-09-21T09:13:27Z</time>
      </trkpt>
      <trkpt lat="46.49388" lon="-1.42818">
        <ele>48.9</ele>
        <time>2021-09-21T09:13:28Z</time>
      </trkpt>
      <trkpt lat="46.49389" lon="-1.42819">
        <ele>49</ele>
        <time>2021-09-21T09:13:29Z</time>
      </trkpt>
      <trkpt lat="46.4939" lon="-1.42821">
        <ele>49</ele>
        <time>2021-09-21T09:13:30Z</time>
      </trkpt>
      <trkpt lat="46.49391" lon="-1.42822">
        <ele>49</ele>
        <time>2021-09-21T09:13:31Z</time>
      </trkpt>
      <trkpt lat="46.49392" lon="-1.42823">
        <ele>49</ele>
        <time>2021-09-21T09:13:32Z</time>
      </trkpt>
      <trkpt lat="46.49392" lon="-1.42825">
        <ele>49</ele>
        <time>2021-09-21T09:13:33Z</time>
      </trkpt>
      <trkpt lat="46.49393" lon="-1.42826">
        <ele>49</ele>
        <time>2021-09-21T09:13:34Z</time>
      </trkpt>
      <trkpt lat="46.49394" lon="-1.42827">
        <ele>49.1</ele>
        <time>2021-09-21T09:13:35Z</time>
      </trkpt>
      <trkpt lat="46.49395" lon="-1.42829">
        <ele>49.1</ele>
        <time>2021-09-21T09:13:36Z</time>
      </trkpt>
      <trkpt lat="46.49396" lon="-1.4283">
        <ele>49.1</ele>
        <time>2021-09-21T09:13:37Z</time>
      </trkpt>
      <trkpt lat="46.49396" lon="-1.42832">
        <ele>49.1</ele>
        <time>2021-09-21T09:13:38Z</time>
      </trkpt>
      <trkpt lat="46.49397" lon="-1.42833">
        <ele>49.1</ele>
        <time>2021-09-21T09:13:39Z</time>
      </trkpt>
      <trkpt lat="46.49398" lon="-1.42835">
        <ele>49.2</ele>
        <time>2021-09-21T09:13:40Z</time>
      </trkpt>
      <trkpt lat="46.49399" lon="-1.42836">
        <ele>49.2</ele>
        <time>2021-09-21T09:13:41Z</time>
      </trkpt>
      <trkpt lat="46.49399" lon="-1.42838">
        <ele>49.2</ele>
        <time>2021-09-21T09:13:42Z</time>
      </trkpt>
      <trkpt lat="46.494" lon="-1.42839">
        <ele>49.2</ele>
        <time>2021-09-21T09:13:43Z</time>
      </trkpt>
      <trkpt lat="46.49401" lon="-1.42841">
        <ele>49.2</ele>
        <time>2021-09-21T09:13:44Z</time>
      </trkpt>
      <trkpt lat="46.49401" lon="-1.42842">
        <ele>49.3</ele>
        <time>2021-09-21T09:13:45Z</time>
      </trkpt>
      <trkpt lat="46.49402" lon="-1.42844">
        <ele>49.3</ele>
        <time>2021-09-21T09:13:46Z</time>
      </trkpt>
      <trkpt lat="46.49403" lon="-1.42845">
        <ele>49.3</ele>
        <time>2021-09-21T09:13:47Z</time>
      </trkpt>
      <trkpt lat="46.49403" lon="-1.42847">
        <ele>49.3</ele>
        <time>2021-09-21T09:13:48Z</time>
      </trkpt>
      <trkpt lat="46.49404" lon="-1.42848">
        <ele>49.4</ele>
        <time>2021-09-21T09:13:49Z</time>
      </trkpt>
      <trkpt lat="46.49405" lon="-1.4285">
        <ele>49.4</ele>
        <time>2021-09-21T09:13:50Z</time>
      </trkpt>
      <trkpt lat="46.49405" lon="-1.42851">
        <ele>49.4</ele>
        <time>2021-09-21T09:13:51Z</time>
      </trkpt>
      <trkpt lat="46.49406" lon="-1.42853">
        <ele>49.5</ele>
        <time>2021-09-21T09:13:52Z</time>
      </trkpt>
      <trkpt lat="46.49407" lon="-1.42854">
        <ele>49.5</ele>
        <time>2021-09-21T09:13:53Z</time>
      </trkpt>
      <trkpt lat="46.49407" lon="-1.42856">
        <ele>49.5</ele>
        <time>2021-09-21T09:13:54Z</time>
      </trkpt>
      <trkpt lat="46.49408" lon="-1.42857">
        <ele>49.5</ele>
        <time>2021-09-21T09:13:55Z</time>
      </trkpt>
      <trkpt lat="46.49408" lon="-1.42859">
        <ele>49.6</ele>
        <time>2021-09-21T09:13:56Z</time>
      </trkpt>
      <trkpt lat="46.49409" lon="-1.42861">
        <ele>49.6</ele>
        <time>2021-09-21T09:13:57Z</time>
      </trkpt>
      <trkpt lat="46.4941" lon="-1.42862">
        <ele>49.6</ele>
        <time>2021-09-21T09:13:58Z</time>
      </trkpt>
      <trkpt lat="46.4941" lon="-1.42864">
        <ele>49.7</ele>
        <time>2021-09-21T09:13:59Z</time>
      </trkpt>
      <trkpt lat="46.49411" lon="-1.42865">
        <ele>49.7</ele>
        <time>2021-09-21T09:14:00Z</time>
      </trkpt>
      <trkpt lat="46.49411" lon="-1.42867">
        <ele>49.7</ele>
        <time>2021-09-21T09:14:01Z</time>
      </trkpt>
      <trkpt lat="46.49412" lon="-1.42869">
        <ele>49.8</ele>
        <time>2021-09-21T09:14:02Z</time>
      </trkpt>
      <trkpt lat="46.49413" lon="-1.4287">
        <ele>49.8</ele>
        <time>2021-09-21T09:14:03Z</time>
      </trkpt>
      <trkpt lat="46.49413" lon="-1.42872">
        <ele>49.9</ele>
        <time>2021-09-21T09:14:04Z</time>
      </trkpt>
      <trkpt lat="46.49414" lon="-1.42874">
        <ele>49.9</ele>
        <time>2021-09-21T09:14:05Z</time>
      </trkpt>
      <trkpt lat="46.49414" lon="-1.42875">
        <ele>49.9</ele>
        <time>2021-09-21T09:14:06Z</time>
      </trkpt>
      <trkpt lat="46.49415" lon="-1.42877">
        <ele>50</ele>
        <time>2021-09-21T09:14:07Z</time>
      </trkpt>
      <trkpt lat="46.49416" lon="-1.42879">
        <ele>50</ele>
        <time>2021-09-21T09:14:08Z</time>
      </trkpt>
      <trkpt lat="46.49416" lon="-1.4288">
        <ele>50</ele>
        <time>2021-09-21T09:14:09Z</time>
      </trkpt>
      <trkpt lat="46.49417" lon="-1.42882">
        <ele>50</ele>
        <time>2021-09-21T09:14:10Z</time>
      </trkpt>
      <trkpt lat="46.49418" lon="-1.42883">
        <ele>50</ele>
        <time>2021-09-21T09:14:11Z</time>
      </trkpt>
      <trkpt lat="46.49418" lon="-1.42885">
        <ele>50.1</ele>
        <time>2021-09-21T09:14:12Z</time>
      </trkpt>
      <trkpt lat="46.49419" lon="-1.42886">
        <ele>50.1</ele>
        <time>2021-09-21T09:14:13Z</time>
      </trkpt>
      <trkpt lat="46.4942" lon="-1.42888">
        <ele>50.1</ele>
        <time>2021-09-21T09:14:14Z</time>
      </trkpt>
      <trkpt lat="46.49421" lon="-1.42889">
        <ele>50.1</ele>
        <time>2021-09-21T09:14:15Z</time>
      </trkpt>
      <trkpt lat="46.49421" lon="-1.42891">
        <ele>50.2</ele>
        <time>2021-09-21T09:14:16Z</time>
      </trkpt>
      <trkpt lat="46.49422" lon="-1.42892">
        <ele>50.2</ele>
        <time>2021-09-21T09:14:17Z</time>
      </trkpt>
      <trkpt lat="46.49423" lon="-1.42894">
        <ele>50.2</ele>
        <time>2021-09-21T09:14:18Z</time>
      </trkpt>
      <trkpt lat="46.49424" lon="-1.42895">
        <ele>50.2</ele>
        <time>2021-09-21T09:14:19Z</time>
      </trkpt>
      <trkpt lat="46.49425" lon="-1.42897">
        <ele>50.2</ele>
        <time>2021-09-21T09:14:20Z</time>
      </trkpt>
      <trkpt lat="46.49425" lon="-1.42898">
        <ele>50.3</ele>
        <time>2021-09-21T09:14:21Z</time>
      </trkpt>
      <trkpt lat="46.49426" lon="-1.42899">
        <ele>50.3</ele>
        <time>2021-09-21T09:14:22Z</time>
      </trkpt>
      <trkpt lat="46.49427" lon="-1.42901">
        <ele>50.3</ele>
        <time>2021-09-21T09:14:23Z</time>
      </trkpt>
      <trkpt lat="46.49428" lon="-1.42902">
        <ele>50.3</ele>
        <time>2021-09-21T09:14:24Z</time>
      </trkpt>
      <trkpt lat="46.49429" lon="-1.42903">
        <ele>50.3</ele>
        <time>2021-09-21T09:14:25Z</time>
      </trkpt>
      <trkpt lat="46.4943" lon="-1.42905">
        <ele>50.4</ele>
        <time>2021-09-21T09:14:26Z</time>
      </trkpt>
      <trkpt lat="46.49431" lon="-1.42906">
        <ele>50.4</ele>
        <time>2021-09-21T09:14:27Z</time>
      </trkpt>
      <trkpt lat="46.49431" lon="-1.42907">
        <ele>50.4</ele>
        <time>2021-09-21T09:14:28Z</time>
      </trkpt>
      <trkpt lat="46.49432" lon="-1.42908">
        <ele>50.4</ele>
        <time>2021-09-21T09:14:29Z</time>
      </trkpt>
      <trkpt lat="46.49433" lon="-1.4291">
        <ele>50.5</ele>
        <time>2021-09-21T09:14:30Z</time>
      </trkpt>
      <trkpt lat="46.49434" lon="-1.42911">
        <ele>50.5</ele>
        <time>2021-09-21T09:14:31Z</time>
      </trkpt>
      <trkpt lat="46.49435" lon="-1.42912">
        <ele>50.5</ele>
        <time>2021-09-21T09:14:32Z</time>
      </trkpt>
      <trkpt lat="46.49436" lon="-1.42913">
        <ele>50.6</ele>
        <time>2021-09-21T09:14:33Z</time>
      </trkpt>
      <trkpt lat="46.49436" lon="-1.42915">
        <ele>50.6</ele>
        <time>2021-09-21T09:14:34Z</time>
      </trkpt>
      <trkpt lat="46.49437" lon="-1.42916">
        <ele>50.6</ele>
        <time>2021-09-21T09:14:35Z</time>
      </trkpt>
      <trkpt lat="46.49438" lon="-1.42917">
        <ele>50.6</ele>
        <time>2021-09-21T09:14:36Z</time>
      </trkpt>
      <trkpt lat="46.49439" lon="-1.42918">
        <ele>50.7</ele>
        <time>2021-09-21T09:14:37Z</time>
      </trkpt>
      <trkpt lat="46.4944" lon="-1.42919">
        <ele>50.7</ele>
        <time>2021-09-21T09:14:38Z</time>
      </trkpt>
      <trkpt lat="46.49441" lon="-1.42921">
        <ele>50.7</ele>
        <time>2021-09-21T09:14:39Z</time>
      </trkpt>
      <trkpt lat="46.49441" lon="-1.42922">
        <ele>50.7</ele>
        <time>2021-09-21T09:14:40Z</time>
      </trkpt>
      <trkpt lat="46.49442" lon="-1.42923">
        <ele>50.8</ele>
        <time>2021-09-21T09:14:41Z</time>
      </trkpt>
      <trkpt lat="46.49443" lon="-1.42925">
        <ele>50.8</ele>
        <time>2021-09-21T09:14:42Z</time>
      </trkpt>
      <trkpt lat="46.49444" lon="-1.42926">
        <ele>50.8</ele>
        <time>2021-09-21T09:14:43Z</time>
      </trkpt>
      <trkpt lat="46.49445" lon="-1.42927">
        <ele>50.8</ele>
        <time>2021-09-21T09:14:44Z</time>
      </trkpt>
      <trkpt lat="46.49445" lon="-1.42929">
        <ele>50.9</ele>
        <time>2021-09-21T09:14:45Z</time>
      </trkpt>
      <trkpt lat="46.49446" lon="-1.4293">
        <ele>50.9</ele>
        <time>2021-09-21T09:14:46Z</time>
      </trkpt>
      <trkpt lat="46.49447" lon="-1.42931">
        <ele>50.9</ele>
        <time>2021-09-21T09:14:47Z</time>
      </trkpt>
      <trkpt lat="46.49448" lon="-1.42933">
        <ele>50.9</ele>
        <time>2021-09-21T09:14:48Z</time>
      </trkpt>
      <trkpt lat="46.49448" lon="-1.42934">
        <ele>51</ele>
        <time>2021-09-21T09:14:49Z</time>
      </trkpt>
      <trkpt lat="46.49449" lon="-1.42936">
        <ele>51</ele>
        <time>2021-09-21T09:14:50Z</time>
      </trkpt>
      <trkpt lat="46.4945" lon="-1.42937">
        <ele>51</ele>
        <time>2021-09-21T09:14:51Z</time>
      </trkpt>
      <trkpt lat="46.49451" lon="-1.42939">
        <ele>51</ele>
        <time>2021-09-21T09:14:52Z</time>
      </trkpt>
      <trkpt lat="46.49452" lon="-1.4294">
        <ele>51.1</ele>
        <time>2021-09-21T09:14:53Z</time>
      </trkpt>
      <trkpt lat="46.49452" lon="-1.42942">
        <ele>51.1</ele>
        <time>2021-09-21T09:14:54Z</time>
      </trkpt>
      <trkpt lat="46.49453" lon="-1.42943">
        <ele>51.1</ele>
        <time>2021-09-21T09:14:55Z</time>
      </trkpt>
      <trkpt lat="46.49454" lon="-1.42945">
        <ele>51.1</ele>
        <time>2021-09-21T09:14:56Z</time>
      </trkpt>
      <trkpt lat="46.49455" lon="-1.42947">
        <ele>51.1</ele>
        <time>2021-09-21T09:14:57Z</time>
      </trkpt>
      <trkpt lat="46.49455" lon="-1.42948">
        <ele>51.2</ele>
        <time>2021-09-21T09:14:58Z</time>
      </trkpt>
      <trkpt lat="46.49456" lon="-1.4295">
        <ele>51.2</ele>
        <time>2021-09-21T09:14:59Z</time>
      </trkpt>
      <trkpt lat="46.49457" lon="-1.42951">
        <ele>51.2</ele>
        <time>2021-09-21T09:15:00Z</time>
      </trkpt>
      <trkpt lat="46.49458" lon="-1.42953">
        <ele>51.2</ele>
        <time>2021-09-21T09:15:01Z</time>
      </trkpt>
      <trkpt lat="46.49459" lon="-1.42954">
        <ele>51.3</ele>
        <time>2021-09-21T09:15:02Z</time>
      </trkpt>
      <trkpt lat="46.49459" lon="-1.42955">
        <ele>51.3</ele>
        <time>2021-09-21T09:15:03Z</time>
      </trkpt>
      <trkpt lat="46.4946" lon="-1.42957">
        <ele>51.3</ele>
        <time>2021-09-21T09:15:04Z</time>
      </trkpt>
      <trkpt lat="46.49461" lon="-1.42958">
        <ele>51.3</ele>
        <time>2021-09-21T09:15:05Z</time>
      </trkpt>
      <trkpt lat="46.49462" lon="-1.4296">
        <ele>51.4</ele>
        <time>2021-09-21T09:15:06Z</time>
      </trkpt>
      <trkpt lat="46.49462" lon="-1.42961">
        <ele>51.4</ele>
        <time>2021-09-21T09:15:07Z</time>
      </trkpt>
      <trkpt lat="46.49463" lon="-1.42963">
        <ele>51.4</ele>
        <time>2021-09-21T09:15:08Z</time>
      </trkpt>
      <trkpt lat="46.49464" lon="-1.42964">
        <ele>51.5</ele>
        <time>2021-09-21T09:15:09Z</time>
      </trkpt>
      <trkpt lat="46.49465" lon="-1.42965">
        <ele>51.5</ele>
        <time>2021-09-21T09:15:10Z</time>
      </trkpt>
      <trkpt lat="46.49466" lon="-1.42967">
        <ele>51.5</ele>
        <time>2021-09-21T09:15:11Z</time>
      </trkpt>
      <trkpt lat="46.49466" lon="-1.42968">
        <ele>51.6</ele>
        <time>2021-09-21T09:15:12Z</time>
      </trkpt>
      <trkpt lat="46.49467" lon="-1.4297">
        <ele>51.6</ele>
        <time>2021-09-21T09:15:13Z</time>
      </trkpt>
      <trkpt lat="46.49468" lon="-1.42971">
        <ele>51.6</ele>
        <time>2021-09-21T09:15:14Z</time>
      </trkpt>
      <trkpt lat="46.49469" lon="-1.42972">
        <ele>51.6</ele>
        <time>2021-09-21T09:15:15Z</time>
      </trkpt>
      <trkpt lat="46.4947" lon="-1.42974">
        <ele>51.7</ele>
        <time>2021-09-21T09:15:16Z</time>
      </trkpt>
      <trkpt lat="46.49471" lon="-1.42975">
        <ele>51.7</ele>
        <time>2021-09-21T09:15:17Z</time>
      </trkpt>
      <trkpt lat="46.49471" lon="-1.42976">
        <ele>51.7</ele>
        <time>2021-09-21T09:15:18Z</time>
      </trkpt>
      <trkpt lat="46.49472" lon="-1.42977">
        <ele>51.8</ele>
        <time>2021-09-21T09:15:19Z</time>
      </trkpt>
      <trkpt lat="46.49473" lon="-1.42979">
        <ele>51.8</ele>
        <time>2021-09-21T09:15:20Z</time>
      </trkpt>
      <trkpt lat="46.49474" lon="-1.4298">
        <ele>51.8</ele>
        <time>2021-09-21T09:15:21Z</time>
      </trkpt>
      <trkpt lat="46.49475" lon="-1.42981">
        <ele>51.9</ele>
        <time>2021-09-21T09:15:22Z</time>
      </trkpt>
      <trkpt lat="46.49476" lon="-1.42982">
        <ele>51.9</ele>
        <time>2021-09-21T09:15:23Z</time>
      </trkpt>
      <trkpt lat="46.49477" lon="-1.42984">
        <ele>51.9</ele>
        <time>2021-09-21T09:15:24Z</time>
      </trkpt>
      <trkpt lat="46.49478" lon="-1.42985">
        <ele>51.9</ele>
        <time>2021-09-21T09:15:25Z</time>
      </trkpt>
      <trkpt lat="46.49479" lon="-1.42986">
        <ele>52</ele>
        <time>2021-09-21T09:15:26Z</time>
      </trkpt>
      <trkpt lat="46.4948" lon="-1.42987">
        <ele>52</ele>
        <time>2021-09-21T09:15:27Z</time>
      </trkpt>
      <trkpt lat="46.49481" lon="-1.42988">
        <ele>52</ele>
        <time>2021-09-21T09:15:28Z</time>
      </trkpt>
      <trkpt lat="46.49482" lon="-1.42989">
        <ele>52</ele>
        <time>2021-09-21T09:15:29Z</time>
      </trkpt>
      <trkpt lat="46.49483" lon="-1.42991">
        <ele>52.1</ele>
        <time>2021-09-21T09:15:30Z</time>
      </trkpt>
      <trkpt lat="46.49484" lon="-1.42992">
        <ele>52.1</ele>
        <time>2021-09-21T09:15:31Z</time>
      </trkpt>
      <trkpt lat="46.49485" lon="-1.42993">
        <ele>52.1</ele>
        <time>2021-09-21T09:15:32Z</time>
      </trkpt>
      <trkpt lat="46.49486" lon="-1.42994">
        <ele>52.1</ele>
        <time>2021-09-21T09:15:33Z</time>
      </trkpt>
      <trkpt lat="46.49487" lon="-1.42995">
        <ele>52.1</ele>
        <time>2021-09-21T09:15:34Z</time>
      </trkpt>
      <trkpt lat="46.49488" lon="-1.42996">
        <ele>52.2</ele>
        <time>2021-09-21T09:15:35Z</time>
      </trkpt>
      <trkpt lat="46.4949" lon="-1.42997">
        <ele>52.2</ele>
        <time>2021-09-21T09:15:36Z</time>
      </trkpt>
      <trkpt lat="46.49491" lon="-1.42998">
        <ele>52.2</ele>
        <time>2021-09-21T09:15:37Z</time>
      </trkpt>
      <trkpt lat="46.49492" lon="-1.42998">
        <ele>52.2</ele>
        <time>2021-09-21T09:15:38Z</time>
      </trkpt>
      <trkpt lat="46.49493" lon="-1.42999">
        <ele>52.3</ele>
        <time>2021-09-21T09:15:39Z</time>
      </trkpt>
      <trkpt lat="46.49494" lon="-1.43">
        <ele>52.3</ele>
        <time>2021-09-21T09:15:40Z</time>
      </trkpt>
      <trkpt lat="46.49495" lon="-1.43001">
        <ele>52.3</ele>
        <time>2021-09-21T09:15:41Z</time>
      </trkpt>
      <trkpt lat="46.49496" lon="-1.43001">
        <ele>52.3</ele>
        <time>2021-09-21T09:15:42Z</time>
      </trkpt>
      <trkpt lat="46.49497" lon="-1.43002">
        <ele>52.3</ele>
        <time>2021-09-21T09:15:43Z</time>
      </trkpt>
      <trkpt lat="46.49499" lon="-1.43003">
        <ele>52.4</ele>
        <time>2021-09-21T09:15:44Z</time>
      </trkpt>
      <trkpt lat="46.495" lon="-1.43003">
        <ele>52.4</ele>
        <time>2021-09-21T09:15:45Z</time>
      </trkpt>
      <trkpt lat="46.49501" lon="-1.43004">
        <ele>52.4</ele>
        <time>2021-09-21T09:15:46Z</time>
      </trkpt>
      <trkpt lat="46.49502" lon="-1.43004">
        <ele>52.4</ele>
        <time>2021-09-21T09:15:47Z</time>
      </trkpt>
      <trkpt lat="46.49503" lon="-1.43005">
        <ele>52.4</ele>
        <time>2021-09-21T09:15:48Z</time>
      </trkpt>
      <trkpt lat="46.49504" lon="-1.43005">
        <ele>52.5</ele>
        <time>2021-09-21T09:15:49Z</time>
      </trkpt>
      <trkpt lat="46.49505" lon="-1.43005">
        <ele>52.5</ele>
        <time>2021-09-21T09:15:50Z</time>
      </trkpt>
      <trkpt lat="46.49506" lon="-1.43006">
        <ele>52.5</ele>
        <time>2021-09-21T09:15:51Z</time>
      </trkpt>
      <trkpt lat="46.49507" lon="-1.43006">
        <ele>52.5</ele>
        <time>2021-09-21T09:15:52Z</time>
      </trkpt>
      <trkpt lat="46.49508" lon="-1.43006">
        <ele>52.5</ele>
        <time>2021-09-21T09:15:53Z</time>
      </trkpt>
      <trkpt lat="46.49509" lon="-1.43007">
        <ele>52.6</ele>
        <time>2021-09-21T09:15:54Z</time>
      </trkpt>
      <trkpt lat="46.49511" lon="-1.43007">
        <ele>52.6</ele>
        <time>2021-09-21T09:15:55Z</time>
      </trkpt>
      <trkpt lat="46.49512" lon="-1.43008">
        <ele>52.6</ele>
        <time>2021-09-21T09:15:56Z</time>
      </trkpt>
      <trkpt lat="46.49513" lon="-1.43008">
        <ele>52.6</ele>
        <time>2021-09-21T09:15:57Z</time>
      </trkpt>
      <trkpt lat="46.49514" lon="-1.43008">
        <ele>52.7</ele>
        <time>2021-09-21T09:15:58Z</time>
      </trkpt>
      <trkpt lat="46.49515" lon="-1.43009">
        <ele>52.7</ele>
        <time>2021-09-21T09:15:59Z</time>
      </trkpt>
      <trkpt lat="46.49516" lon="-1.43009">
        <ele>52.7</ele>
        <time>2021-09-21T09:16:00Z</time>
      </trkpt>
      <trkpt lat="46.49519" lon="-1.4301">
        <ele>52.7</ele>
        <time>2021-09-21T09:16:01Z</time>
      </trkpt>
      <trkpt lat="46.4952" lon="-1.4301">
        <ele>52.8</ele>
        <time>2021-09-21T09:16:02Z</time>
      </trkpt>
      <trkpt lat="46.49521" lon="-1.43011">
        <ele>52.8</ele>
        <time>2021-09-21T09:16:03Z</time>
      </trkpt>
      <trkpt lat="46.49522" lon="-1.43011">
        <ele>52.8</ele>
        <time>2021-09-21T09:16:04Z</time>
      </trkpt>
      <trkpt lat="46.49523" lon="-1.43011">
        <ele>52.8</ele>
        <time>2021-09-21T09:16:05Z</time>
      </trkpt>
      <trkpt lat="46.49524" lon="-1.43012">
        <ele>52.8</ele>
        <time>2021-09-21T09:16:06Z</time>
      </trkpt>
      <trkpt lat="46.49525" lon="-1.43012">
        <ele>52.9</ele>
        <time>2021-09-21T09:16:07Z</time>
      </trkpt>
      <trkpt lat="46.49527" lon="-1.43013">
        <ele>52.9</ele>
        <time>2021-09-21T09:16:08Z</time>
      </trkpt>
      <trkpt lat="46.49528" lon="-1.43013">
        <ele>52.9</ele>
        <time>2021-09-21T09:16:09Z</time>
      </trkpt>
      <trkpt lat="46.49529" lon="-1.43013">
        <ele>53.1</ele>
        <time>2021-09-21T09:16:10Z</time>
      </trkpt>
      <trkpt lat="46.4953" lon="-1.43014">
        <ele>53.1</ele>
        <time>2021-09-21T09:16:11Z</time>
      </trkpt>
      <trkpt lat="46.49531" lon="-1.43014">
        <ele>53.1</ele>
        <time>2021-09-21T09:16:12Z</time>
      </trkpt>
      <trkpt lat="46.49532" lon="-1.43014">
        <ele>53.1</ele>
        <time>2021-09-21T09:16:13Z</time>
      </trkpt>
      <trkpt lat="46.49533" lon="-1.43015">
        <ele>53.1</ele>
        <time>2021-09-21T09:16:14Z</time>
      </trkpt>
      <trkpt lat="46.49535" lon="-1.43015">
        <ele>53.1</ele>
        <time>2021-09-21T09:16:15Z</time>
      </trkpt>
      <trkpt lat="46.49536" lon="-1.43015">
        <ele>53.2</ele>
        <time>2021-09-21T09:16:16Z</time>
      </trkpt>
      <trkpt lat="46.49537" lon="-1.43015">
        <ele>53.2</ele>
        <time>2021-09-21T09:16:17Z</time>
      </trkpt>
      <trkpt lat="46.49538" lon="-1.43014">
        <ele>53.2</ele>
        <time>2021-09-21T09:16:18Z</time>
      </trkpt>
      <trkpt lat="46.49539" lon="-1.43014">
        <ele>53.2</ele>
        <time>2021-09-21T09:16:19Z</time>
      </trkpt>
      <trkpt lat="46.49541" lon="-1.43014">
        <ele>53.2</ele>
        <time>2021-09-21T09:16:20Z</time>
      </trkpt>
      <trkpt lat="46.49542" lon="-1.43014">
        <ele>53.3</ele>
        <time>2021-09-21T09:16:21Z</time>
      </trkpt>
      <trkpt lat="46.49543" lon="-1.43013">
        <ele>53.3</ele>
        <time>2021-09-21T09:16:22Z</time>
      </trkpt>
      <trkpt lat="46.49544" lon="-1.43013">
        <ele>53.3</ele>
        <time>2021-09-21T09:16:23Z</time>
      </trkpt>
      <trkpt lat="46.49545" lon="-1.43013">
        <ele>53.3</ele>
        <time>2021-09-21T09:16:24Z</time>
      </trkpt>
      <trkpt lat="46.49547" lon="-1.43012">
        <ele>53.3</ele>
        <time>2021-09-21T09:16:25Z</time>
      </trkpt>
      <trkpt lat="46.49548" lon="-1.43012">
        <ele>53.4</ele>
        <time>2021-09-21T09:16:26Z</time>
      </trkpt>
      <trkpt lat="46.49549" lon="-1.43012">
        <ele>53.4</ele>
        <time>2021-09-21T09:16:27Z</time>
      </trkpt>
      <trkpt lat="46.4955" lon="-1.43011">
        <ele>53.4</ele>
        <time>2021-09-21T09:16:28Z</time>
      </trkpt>
      <trkpt lat="46.49551" lon="-1.43011">
        <ele>53.4</ele>
        <time>2021-09-21T09:16:29Z</time>
      </trkpt>
      <trkpt lat="46.49553" lon="-1.4301">
        <ele>53.5</ele>
        <time>2021-09-21T09:16:30Z</time>
      </trkpt>
      <trkpt lat="46.49554" lon="-1.4301">
        <ele>53.5</ele>
        <time>2021-09-21T09:16:31Z</time>
      </trkpt>
      <trkpt lat="46.49555" lon="-1.4301">
        <ele>53.5</ele>
        <time>2021-09-21T09:16:32Z</time>
      </trkpt>
      <trkpt lat="46.49556" lon="-1.43009">
        <ele>53.5</ele>
        <time>2021-09-21T09:16:33Z</time>
      </trkpt>
      <trkpt lat="46.49557" lon="-1.43009">
        <ele>53.6</ele>
        <time>2021-09-21T09:16:34Z</time>
      </trkpt>
      <trkpt lat="46.49559" lon="-1.43009">
        <ele>53.6</ele>
        <time>2021-09-21T09:16:35Z</time>
      </trkpt>
      <trkpt lat="46.4956" lon="-1.43008">
        <ele>53.6</ele>
        <time>2021-09-21T09:16:36Z</time>
      </trkpt>
      <trkpt lat="46.49561" lon="-1.43008">
        <ele>53.6</ele>
        <time>2021-09-21T09:16:37Z</time>
      </trkpt>
      <trkpt lat="46.49562" lon="-1.43008">
        <ele>53.6</ele>
        <time>2021-09-21T09:16:38Z</time>
      </trkpt>
      <trkpt lat="46.49563" lon="-1.43008">
        <ele>53.7</ele>
        <time>2021-09-21T09:16:39Z</time>
      </trkpt>
      <trkpt lat="46.49564" lon="-1.43008">
        <ele>53.7</ele>
        <time>2021-09-21T09:16:40Z</time>
      </trkpt>
      <trkpt lat="46.49565" lon="-1.43007">
        <ele>53.7</ele>
        <time>2021-09-21T09:16:41Z</time>
      </trkpt>
      <trkpt lat="46.49567" lon="-1.43007">
        <ele>53.7</ele>
        <time>2021-09-21T09:16:42Z</time>
      </trkpt>
      <trkpt lat="46.49568" lon="-1.43007">
        <ele>53.8</ele>
        <time>2021-09-21T09:16:43Z</time>
      </trkpt>
      <trkpt lat="46.49569" lon="-1.43007">
        <ele>53.8</ele>
        <time>2021-09-21T09:16:44Z</time>
      </trkpt>
      <trkpt lat="46.4957" lon="-1.43007">
        <ele>53.8</ele>
        <time>2021-09-21T09:16:45Z</time>
      </trkpt>
      <trkpt lat="46.49571" lon="-1.43008">
        <ele>53.8</ele>
        <time>2021-09-21T09:16:46Z</time>
      </trkpt>
      <trkpt lat="46.49572" lon="-1.43008">
        <ele>53.8</ele>
        <time>2021-09-21T09:16:47Z</time>
      </trkpt>
      <trkpt lat="46.49573" lon="-1.43008">
        <ele>53.9</ele>
        <time>2021-09-21T09:16:48Z</time>
      </trkpt>
      <trkpt lat="46.49574" lon="-1.43008">
        <ele>53.9</ele>
        <time>2021-09-21T09:16:49Z</time>
      </trkpt>
      <trkpt lat="46.49575" lon="-1.43008">
        <ele>53.9</ele>
        <time>2021-09-21T09:16:50Z</time>
      </trkpt>
      <trkpt lat="46.49577" lon="-1.43008">
        <ele>53.9</ele>
        <time>2021-09-21T09:16:51Z</time>
      </trkpt>
      <trkpt lat="46.49578" lon="-1.43009">
        <ele>54</ele>
        <time>2021-09-21T09:16:52Z</time>
      </trkpt>
      <trkpt lat="46.49579" lon="-1.43009">
        <ele>54</ele>
        <time>2021-09-21T09:16:53Z</time>
      </trkpt>
      <trkpt lat="46.4958" lon="-1.43009">
        <ele>54</ele>
        <time>2021-09-21T09:16:54Z</time>
      </trkpt>
      <trkpt lat="46.49581" lon="-1.43009">
        <ele>54</ele>
        <time>2021-09-21T09:16:55Z</time>
      </trkpt>
      <trkpt lat="46.49582" lon="-1.43009">
        <ele>54</ele>
        <time>2021-09-21T09:16:56Z</time>
      </trkpt>
      <trkpt lat="46.49583" lon="-1.43009">
        <ele>54.1</ele>
        <time>2021-09-21T09:16:57Z</time>
      </trkpt>
      <trkpt lat="46.49585" lon="-1.43009">
        <ele>54.1</ele>
        <time>2021-09-21T09:16:58Z</time>
      </trkpt>
      <trkpt lat="46.49586" lon="-1.43009">
        <ele>54.1</ele>
        <time>2021-09-21T09:16:59Z</time>
      </trkpt>
      <trkpt lat="46.49587" lon="-1.43008">
        <ele>54.1</ele>
        <time>2021-09-21T09:17:00Z</time>
      </trkpt>
      <trkpt lat="46.49589" lon="-1.43008">
        <ele>54.2</ele>
        <time>2021-09-21T09:17:01Z</time>
      </trkpt>
      <trkpt lat="46.4959" lon="-1.43008">
        <ele>54.2</ele>
        <time>2021-09-21T09:17:02Z</time>
      </trkpt>
      <trkpt lat="46.49591" lon="-1.43008">
        <ele>54.2</ele>
        <time>2021-09-21T09:17:03Z</time>
      </trkpt>
      <trkpt lat="46.49592" lon="-1.43007">
        <ele>54.2</ele>
        <time>2021-09-21T09:17:04Z</time>
      </trkpt>
      <trkpt lat="46.49594" lon="-1.43007">
        <ele>54.3</ele>
        <time>2021-09-21T09:17:05Z</time>
      </trkpt>
      <trkpt lat="46.49595" lon="-1.43007">
        <ele>54.3</ele>
        <time>2021-09-21T09:17:06Z</time>
      </trkpt>
      <trkpt lat="46.49596" lon="-1.43007">
        <ele>54.3</ele>
        <time>2021-09-21T09:17:07Z</time>
      </trkpt>
      <trkpt lat="46.49598" lon="-1.43006">
        <ele>54.3</ele>
        <time>2021-09-21T09:17:08Z</time>
      </trkpt>
      <trkpt lat="46.49599" lon="-1.43006">
        <ele>54.4</ele>
        <time>2021-09-21T09:17:09Z</time>
      </trkpt>
      <trkpt lat="46.496" lon="-1.43006">
        <ele>54.4</ele>
        <time>2021-09-21T09:17:10Z</time>
      </trkpt>
      <trkpt lat="46.49602" lon="-1.43005">
        <ele>54.4</ele>
        <time>2021-09-21T09:17:11Z</time>
      </trkpt>
      <trkpt lat="46.49603" lon="-1.43005">
        <ele>54.5</ele>
        <time>2021-09-21T09:17:12Z</time>
      </trkpt>
      <trkpt lat="46.49604" lon="-1.43005">
        <ele>54.5</ele>
        <time>2021-09-21T09:17:13Z</time>
      </trkpt>
      <trkpt lat="46.49605" lon="-1.43005">
        <ele>54.5</ele>
        <time>2021-09-21T09:17:14Z</time>
      </trkpt>
      <trkpt lat="46.49606" lon="-1.43005">
        <ele>54.6</ele>
        <time>2021-09-21T09:17:15Z</time>
      </trkpt>
      <trkpt lat="46.49608" lon="-1.43005">
        <ele>54.6</ele>
        <time>2021-09-21T09:17:16Z</time>
      </trkpt>
      <trkpt lat="46.49609" lon="-1.43005">
        <ele>54.6</ele>
        <time>2021-09-21T09:17:17Z</time>
      </trkpt>
      <trkpt lat="46.4961" lon="-1.43004">
        <ele>54.6</ele>
        <time>2021-09-21T09:17:18Z</time>
      </trkpt>
      <trkpt lat="46.49611" lon="-1.43004">
        <ele>54.7</ele>
        <time>2021-09-21T09:17:19Z</time>
      </trkpt>
      <trkpt lat="46.49612" lon="-1.43004">
        <ele>54.7</ele>
        <time>2021-09-21T09:17:20Z</time>
      </trkpt>
      <trkpt lat="46.49613" lon="-1.43004">
        <ele>54.7</ele>
        <time>2021-09-21T09:17:21Z</time>
      </trkpt>
      <trkpt lat="46.49614" lon="-1.43004">
        <ele>54.8</ele>
        <time>2021-09-21T09:17:22Z</time>
      </trkpt>
      <trkpt lat="46.49616" lon="-1.43004">
        <ele>54.8</ele>
        <time>2021-09-21T09:17:23Z</time>
      </trkpt>
      <trkpt lat="46.49617" lon="-1.43004">
        <ele>54.8</ele>
        <time>2021-09-21T09:17:24Z</time>
      </trkpt>
      <trkpt lat="46.49618" lon="-1.43004">
        <ele>54.8</ele>
        <time>2021-09-21T09:17:25Z</time>
      </trkpt>
      <trkpt lat="46.49619" lon="-1.43003">
        <ele>54.9</ele>
        <time>2021-09-21T09:17:26Z</time>
      </trkpt>
      <trkpt lat="46.4962" lon="-1.43003">
        <ele>54.9</ele>
        <time>2021-09-21T09:17:27Z</time>
      </trkpt>
      <trkpt lat="46.49621" lon="-1.43003">
        <ele>54.9</ele>
        <time>2021-09-21T09:17:28Z</time>
      </trkpt>
      <trkpt lat="46.49622" lon="-1.43003">
        <ele>55</ele>
        <time>2021-09-21T09:17:29Z</time>
      </trkpt>
      <trkpt lat="46.49624" lon="-1.43002">
        <ele>55</ele>
        <time>2021-09-21T09:17:30Z</time>
      </trkpt>
      <trkpt lat="46.49625" lon="-1.43002">
        <ele>55</ele>
        <time>2021-09-21T09:17:31Z</time>
      </trkpt>
      <trkpt lat="46.49626" lon="-1.43002">
        <ele>55</ele>
        <time>2021-09-21T09:17:32Z</time>
      </trkpt>
      <trkpt lat="46.49627" lon="-1.43001">
        <ele>55.1</ele>
        <time>2021-09-21T09:17:33Z</time>
      </trkpt>
      <trkpt lat="46.49628" lon="-1.43001">
        <ele>55.1</ele>
        <time>2021-09-21T09:17:34Z</time>
      </trkpt>
      <trkpt lat="46.49628" lon="-1.43001">
        <ele>55.1</ele>
        <time>2021-09-21T09:17:35Z</time>
      </trkpt>
      <trkpt lat="46.49629" lon="-1.43001">
        <ele>55.1</ele>
        <time>2021-09-21T09:17:36Z</time>
      </trkpt>
      <trkpt lat="46.49629" lon="-1.43001">
        <ele>55.1</ele>
        <time>2021-09-21T09:17:37Z</time>
      </trkpt>
      <trkpt lat="46.49629" lon="-1.43001">
        <ele>55.1</ele>
        <time>2021-09-21T09:17:38Z</time>
      </trkpt>
      <trkpt lat="46.4963" lon="-1.43001">
        <ele>55.1</ele>
        <time>2021-09-21T09:17:39Z</time>
      </trkpt>
      <trkpt lat="46.4963" lon="-1.43001">
        <ele>55.1</ele>
        <time>2021-09-21T09:17:40Z</time>
      </trkpt>
      <trkpt lat="46.49631" lon="-1.43">
        <ele>55.1</ele>
        <time>2021-09-21T09:17:41Z</time>
      </trkpt>
      <trkpt lat="46.49632" lon="-1.43">
        <ele>55.2</ele>
        <time>2021-09-21T09:17:42Z</time>
      </trkpt>
      <trkpt lat="46.49633" lon="-1.43">
        <ele>55.2</ele>
        <time>2021-09-21T09:17:43Z</time>
      </trkpt>
      <trkpt lat="46.49634" lon="-1.43">
        <ele>55.2</ele>
        <time>2021-09-21T09:17:44Z</time>
      </trkpt>
      <trkpt lat="46.49636" lon="-1.43">
        <ele>55.2</ele>
        <time>2021-09-21T09:17:45Z</time>
      </trkpt>
      <trkpt lat="46.49637" lon="-1.42999">
        <ele>55.3</ele>
        <time>2021-09-21T09:17:46Z</time>
      </trkpt>
      <trkpt lat="46.49639" lon="-1.42999">
        <ele>55.3</ele>
        <time>2021-09-21T09:17:47Z</time>
      </trkpt>
      <trkpt lat="46.4964" lon="-1.42999">
        <ele>55.3</ele>
        <time>2021-09-21T09:17:48Z</time>
      </trkpt>
      <trkpt lat="46.49642" lon="-1.42999">
        <ele>55.3</ele>
        <time>2021-09-21T09:17:49Z</time>
      </trkpt>
      <trkpt lat="46.49643" lon="-1.42998">
        <ele>55.4</ele>
        <time>2021-09-21T09:17:50Z</time>
      </trkpt>
      <trkpt lat="46.49645" lon="-1.42998">
        <ele>55.4</ele>
        <time>2021-09-21T09:17:51Z</time>
      </trkpt>
      <trkpt lat="46.49646" lon="-1.42998">
        <ele>55.4</ele>
        <time>2021-09-21T09:17:52Z</time>
      </trkpt>
      <trkpt lat="46.49647" lon="-1.42998">
        <ele>55.4</ele>
        <time>2021-09-21T09:17:53Z</time>
      </trkpt>
      <trkpt lat="46.49649" lon="-1.42997">
        <ele>55.5</ele>
        <time>2021-09-21T09:17:54Z</time>
      </trkpt>
      <trkpt lat="46.4965" lon="-1.42997">
        <ele>55.5</ele>
        <time>2021-09-21T09:17:55Z</time>
      </trkpt>
      <trkpt lat="46.49651" lon="-1.42997">
        <ele>55.5</ele>
        <time>2021-09-21T09:17:56Z</time>
      </trkpt>
      <trkpt lat="46.49652" lon="-1.42997">
        <ele>55.5</ele>
        <time>2021-09-21T09:17:57Z</time>
      </trkpt>
      <trkpt lat="46.49653" lon="-1.42997">
        <ele>55.6</ele>
        <time>2021-09-21T09:17:58Z</time>
      </trkpt>
      <trkpt lat="46.49654" lon="-1.42997">
        <ele>55.6</ele>
        <time>2021-09-21T09:17:59Z</time>
      </trkpt>
      <trkpt lat="46.49656" lon="-1.42997">
        <ele>55.6</ele>
        <time>2021-09-21T09:18:00Z</time>
      </trkpt>
      <trkpt lat="46.49657" lon="-1.42997">
        <ele>55.7</ele>
        <time>2021-09-21T09:18:01Z</time>
      </trkpt>
      <trkpt lat="46.49658" lon="-1.42997">
        <ele>55.7</ele>
        <time>2021-09-21T09:18:02Z</time>
      </trkpt>
      <trkpt lat="46.49659" lon="-1.42997">
        <ele>55.7</ele>
        <time>2021-09-21T09:18:03Z</time>
      </trkpt>
      <trkpt lat="46.4966" lon="-1.42997">
        <ele>55.7</ele>
        <time>2021-09-21T09:18:04Z</time>
      </trkpt>
      <trkpt lat="46.49661" lon="-1.42997">
        <ele>55.8</ele>
        <time>2021-09-21T09:18:05Z</time>
      </trkpt>
      <trkpt lat="46.49662" lon="-1.42997">
        <ele>55.8</ele>
        <time>2021-09-21T09:18:06Z</time>
      </trkpt>
      <trkpt lat="46.49664" lon="-1.42997">
        <ele>55.8</ele>
        <time>2021-09-21T09:18:07Z</time>
      </trkpt>
      <trkpt lat="46.49665" lon="-1.42997">
        <ele>55.8</ele>
        <time>2021-09-21T09:18:08Z</time>
      </trkpt>
      <trkpt lat="46.49666" lon="-1.42998">
        <ele>55.8</ele>
        <time>2021-09-21T09:18:09Z</time>
      </trkpt>
      <trkpt lat="46.49667" lon="-1.42998">
        <ele>55.9</ele>
        <time>2021-09-21T09:18:10Z</time>
      </trkpt>
      <trkpt lat="46.49669" lon="-1.42998">
        <ele>55.9</ele>
        <time>2021-09-21T09:18:11Z</time>
      </trkpt>
      <trkpt lat="46.4967" lon="-1.42998">
        <ele>55.9</ele>
        <time>2021-09-21T09:18:12Z</time>
      </trkpt>
      <trkpt lat="46.49671" lon="-1.42998">
        <ele>56</ele>
        <time>2021-09-21T09:18:13Z</time>
      </trkpt>
      <trkpt lat="46.49673" lon="-1.42998">
        <ele>56</ele>
        <time>2021-09-21T09:18:14Z</time>
      </trkpt>
      <trkpt lat="46.49674" lon="-1.42999">
        <ele>56</ele>
        <time>2021-09-21T09:18:15Z</time>
      </trkpt>
      <trkpt lat="46.49675" lon="-1.42999">
        <ele>56.1</ele>
        <time>2021-09-21T09:18:16Z</time>
      </trkpt>
      <trkpt lat="46.49677" lon="-1.42999">
        <ele>56.1</ele>
        <time>2021-09-21T09:18:17Z</time>
      </trkpt>
      <trkpt lat="46.49678" lon="-1.42999">
        <ele>56.1</ele>
        <time>2021-09-21T09:18:18Z</time>
      </trkpt>
      <trkpt lat="46.49679" lon="-1.42999">
        <ele>56.2</ele>
        <time>2021-09-21T09:18:19Z</time>
      </trkpt>
      <trkpt lat="46.49681" lon="-1.43">
        <ele>56.2</ele>
        <time>2021-09-21T09:18:20Z</time>
      </trkpt>
      <trkpt lat="46.49682" lon="-1.43">
        <ele>56.2</ele>
        <time>2021-09-21T09:18:21Z</time>
      </trkpt>
      <trkpt lat="46.49683" lon="-1.43">
        <ele>56.3</ele>
        <time>2021-09-21T09:18:22Z</time>
      </trkpt>
      <trkpt lat="46.49684" lon="-1.43001">
        <ele>56.3</ele>
        <time>2021-09-21T09:18:23Z</time>
      </trkpt>
      <trkpt lat="46.49686" lon="-1.43001">
        <ele>56.3</ele>
        <time>2021-09-21T09:18:24Z</time>
      </trkpt>
      <trkpt lat="46.49687" lon="-1.43002">
        <ele>56.3</ele>
        <time>2021-09-21T09:18:25Z</time>
      </trkpt>
      <trkpt lat="46.49688" lon="-1.43002">
        <ele>56.4</ele>
        <time>2021-09-21T09:18:26Z</time>
      </trkpt>
      <trkpt lat="46.49689" lon="-1.43002">
        <ele>56.4</ele>
        <time>2021-09-21T09:18:27Z</time>
      </trkpt>
      <trkpt lat="46.4969" lon="-1.43002">
        <ele>56.4</ele>
        <time>2021-09-21T09:18:28Z</time>
      </trkpt>
      <trkpt lat="46.49691" lon="-1.43002">
        <ele>56.5</ele>
        <time>2021-09-21T09:18:29Z</time>
      </trkpt>
      <trkpt lat="46.49693" lon="-1.43002">
        <ele>56.5</ele>
        <time>2021-09-21T09:18:30Z</time>
      </trkpt>
      <trkpt lat="46.49694" lon="-1.43002">
        <ele>56.5</ele>
        <time>2021-09-21T09:18:31Z</time>
      </trkpt>
      <trkpt lat="46.49695" lon="-1.43002">
        <ele>56.6</ele>
        <time>2021-09-21T09:18:32Z</time>
      </trkpt>
      <trkpt lat="46.49696" lon="-1.43002">
        <ele>56.6</ele>
        <time>2021-09-21T09:18:33Z</time>
      </trkpt>
      <trkpt lat="46.49698" lon="-1.43002">
        <ele>56.6</ele>
        <time>2021-09-21T09:18:34Z</time>
      </trkpt>
      <trkpt lat="46.49699" lon="-1.43002">
        <ele>56.6</ele>
        <time>2021-09-21T09:18:35Z</time>
      </trkpt>
      <trkpt lat="46.49701" lon="-1.43002">
        <ele>56.7</ele>
        <time>2021-09-21T09:18:36Z</time>
      </trkpt>
      <trkpt lat="46.49702" lon="-1.43002">
        <ele>56.7</ele>
        <time>2021-09-21T09:18:37Z</time>
      </trkpt>
      <trkpt lat="46.49703" lon="-1.43002">
        <ele>56.7</ele>
        <time>2021-09-21T09:18:38Z</time>
      </trkpt>
      <trkpt lat="46.49704" lon="-1.43002">
        <ele>56.8</ele>
        <time>2021-09-21T09:18:39Z</time>
      </trkpt>
      <trkpt lat="46.49706" lon="-1.43003">
        <ele>56.8</ele>
        <time>2021-09-21T09:18:40Z</time>
      </trkpt>
      <trkpt lat="46.49707" lon="-1.43003">
        <ele>56.8</ele>
        <time>2021-09-21T09:18:41Z</time>
      </trkpt>
      <trkpt lat="46.49708" lon="-1.43003">
        <ele>56.8</ele>
        <time>2021-09-21T09:18:42Z</time>
      </trkpt>
      <trkpt lat="46.49709" lon="-1.43003">
        <ele>56.8</ele>
        <time>2021-09-21T09:18:43Z</time>
      </trkpt>
      <trkpt lat="46.4971" lon="-1.43003">
        <ele>56.9</ele>
        <time>2021-09-21T09:18:44Z</time>
      </trkpt>
      <trkpt lat="46.49711" lon="-1.43003">
        <ele>56.9</ele>
        <time>2021-09-21T09:18:45Z</time>
      </trkpt>
      <trkpt lat="46.49712" lon="-1.43003">
        <ele>56.9</ele>
        <time>2021-09-21T09:18:46Z</time>
      </trkpt>
      <trkpt lat="46.49713" lon="-1.43004">
        <ele>56.9</ele>
        <time>2021-09-21T09:18:47Z</time>
      </trkpt>
      <trkpt lat="46.49714" lon="-1.43004">
        <ele>57</ele>
        <time>2021-09-21T09:18:48Z</time>
      </trkpt>
      <trkpt lat="46.49716" lon="-1.43004">
        <ele>57</ele>
        <time>2021-09-21T09:18:49Z</time>
      </trkpt>
      <trkpt lat="46.49717" lon="-1.43004">
        <ele>57</ele>
        <time>2021-09-21T09:18:50Z</time>
      </trkpt>
      <trkpt lat="46.49718" lon="-1.43004">
        <ele>57</ele>
        <time>2021-09-21T09:18:51Z</time>
      </trkpt>
      <trkpt lat="46.49719" lon="-1.43005">
        <ele>57</ele>
        <time>2021-09-21T09:18:52Z</time>
      </trkpt>
      <trkpt lat="46.4972" lon="-1.43005">
        <ele>57.1</ele>
        <time>2021-09-21T09:18:53Z</time>
      </trkpt>
      <trkpt lat="46.49722" lon="-1.43005">
        <ele>57.1</ele>
        <time>2021-09-21T09:18:54Z</time>
      </trkpt>
      <trkpt lat="46.49723" lon="-1.43005">
        <ele>57.1</ele>
        <time>2021-09-21T09:18:55Z</time>
      </trkpt>
      <trkpt lat="46.49724" lon="-1.43005">
        <ele>57.1</ele>
        <time>2021-09-21T09:18:56Z</time>
      </trkpt>
      <trkpt lat="46.49725" lon="-1.43005">
        <ele>57.1</ele>
        <time>2021-09-21T09:18:57Z</time>
      </trkpt>
      <trkpt lat="46.49726" lon="-1.43005">
        <ele>57.2</ele>
        <time>2021-09-21T09:18:58Z</time>
      </trkpt>
      <trkpt lat="46.49726" lon="-1.43005">
        <ele>57.2</ele>
        <time>2021-09-21T09:18:59Z</time>
      </trkpt>
      <trkpt lat="46.49727" lon="-1.43004">
        <ele>57.2</ele>
        <time>2021-09-21T09:19:00Z</time>
      </trkpt>
      <trkpt lat="46.49728" lon="-1.43004">
        <ele>57.2</ele>
        <time>2021-09-21T09:19:01Z</time>
      </trkpt>
      <trkpt lat="46.49729" lon="-1.43004">
        <ele>57.2</ele>
        <time>2021-09-21T09:19:02Z</time>
      </trkpt>
      <trkpt lat="46.4973" lon="-1.43004">
        <ele>57.2</ele>
        <time>2021-09-21T09:19:03Z</time>
      </trkpt>
      <trkpt lat="46.49731" lon="-1.43004">
        <ele>57.2</ele>
        <time>2021-09-21T09:19:04Z</time>
      </trkpt>
      <trkpt lat="46.49732" lon="-1.43004">
        <ele>57.3</ele>
        <time>2021-09-21T09:19:05Z</time>
      </trkpt>
      <trkpt lat="46.49733" lon="-1.43004">
        <ele>57.3</ele>
        <time>2021-09-21T09:19:06Z</time>
      </trkpt>
      <trkpt lat="46.49734" lon="-1.43004">
        <ele>57.3</ele>
        <time>2021-09-21T09:19:07Z</time>
      </trkpt>
      <trkpt lat="46.49735" lon="-1.43004">
        <ele>57.3</ele>
        <time>2021-09-21T09:19:08Z</time>
      </trkpt>
      <trkpt lat="46.49736" lon="-1.43004">
        <ele>57.3</ele>
        <time>2021-09-21T09:19:09Z</time>
      </trkpt>
      <trkpt lat="46.49737" lon="-1.43005">
        <ele>57.4</ele>
        <time>2021-09-21T09:19:10Z</time>
      </trkpt>
      <trkpt lat="46.49738" lon="-1.43005">
        <ele>57.4</ele>
        <time>2021-09-21T09:19:11Z</time>
      </trkpt>
      <trkpt lat="46.49739" lon="-1.43005">
        <ele>57.4</ele>
        <time>2021-09-21T09:19:12Z</time>
      </trkpt>
      <trkpt lat="46.49741" lon="-1.43005">
        <ele>57.4</ele>
        <time>2021-09-21T09:19:13Z</time>
      </trkpt>
      <trkpt lat="46.49742" lon="-1.43005">
        <ele>57.4</ele>
        <time>2021-09-21T09:19:14Z</time>
      </trkpt>
      <trkpt lat="46.49743" lon="-1.43006">
        <ele>57.5</ele>
        <time>2021-09-21T09:19:15Z</time>
      </trkpt>
      <trkpt lat="46.49744" lon="-1.43006">
        <ele>57.5</ele>
        <time>2021-09-21T09:19:16Z</time>
      </trkpt>
      <trkpt lat="46.49745" lon="-1.43006">
        <ele>57.5</ele>
        <time>2021-09-21T09:19:17Z</time>
      </trkpt>
      <trkpt lat="46.49746" lon="-1.43006">
        <ele>57.5</ele>
        <time>2021-09-21T09:19:18Z</time>
      </trkpt>
      <trkpt lat="46.49747" lon="-1.43006">
        <ele>57.5</ele>
        <time>2021-09-21T09:19:19Z</time>
      </trkpt>
      <trkpt lat="46.49749" lon="-1.43006">
        <ele>57.6</ele>
        <time>2021-09-21T09:19:20Z</time>
      </trkpt>
      <trkpt lat="46.4975" lon="-1.43006">
        <ele>57.6</ele>
        <time>2021-09-21T09:19:21Z</time>
      </trkpt>
      <trkpt lat="46.49751" lon="-1.43006">
        <ele>57.6</ele>
        <time>2021-09-21T09:19:22Z</time>
      </trkpt>
      <trkpt lat="46.49752" lon="-1.43006">
        <ele>57.6</ele>
        <time>2021-09-21T09:19:23Z</time>
      </trkpt>
      <trkpt lat="46.49753" lon="-1.43007">
        <ele>57.7</ele>
        <time>2021-09-21T09:19:24Z</time>
      </trkpt>
      <trkpt lat="46.49755" lon="-1.43007">
        <ele>57.7</ele>
        <time>2021-09-21T09:19:25Z</time>
      </trkpt>
      <trkpt lat="46.49756" lon="-1.43007">
        <ele>57.7</ele>
        <time>2021-09-21T09:19:26Z</time>
      </trkpt>
      <trkpt lat="46.49757" lon="-1.43007">
        <ele>57.7</ele>
        <time>2021-09-21T09:19:27Z</time>
      </trkpt>
      <trkpt lat="46.49758" lon="-1.43007">
        <ele>57.7</ele>
        <time>2021-09-21T09:19:28Z</time>
      </trkpt>
      <trkpt lat="46.49758" lon="-1.43007">
        <ele>57.8</ele>
        <time>2021-09-21T09:19:29Z</time>
      </trkpt>
      <trkpt lat="46.49759" lon="-1.43007">
        <ele>57.8</ele>
        <time>2021-09-21T09:19:30Z</time>
      </trkpt>
      <trkpt lat="46.4976" lon="-1.43007">
        <ele>57.8</ele>
        <time>2021-09-21T09:19:31Z</time>
      </trkpt>
      <trkpt lat="46.49761" lon="-1.43007">
        <ele>57.8</ele>
        <time>2021-09-21T09:19:32Z</time>
      </trkpt>
      <trkpt lat="46.49761" lon="-1.43007">
        <ele>57.8</ele>
        <time>2021-09-21T09:19:33Z</time>
      </trkpt>
      <trkpt lat="46.49762" lon="-1.43007">
        <ele>57.8</ele>
        <time>2021-09-21T09:19:34Z</time>
      </trkpt>
      <trkpt lat="46.49763" lon="-1.43007">
        <ele>57.8</ele>
        <time>2021-09-21T09:19:35Z</time>
      </trkpt>
      <trkpt lat="46.49764" lon="-1.43008">
        <ele>57.9</ele>
        <time>2021-09-21T09:19:36Z</time>
      </trkpt>
      <trkpt lat="46.49765" lon="-1.43008">
        <ele>57.9</ele>
        <time>2021-09-21T09:19:37Z</time>
      </trkpt>
      <trkpt lat="46.49766" lon="-1.43008">
        <ele>57.9</ele>
        <time>2021-09-21T09:19:38Z</time>
      </trkpt>
      <trkpt lat="46.49767" lon="-1.43009">
        <ele>57.9</ele>
        <time>2021-09-21T09:19:39Z</time>
      </trkpt>
      <trkpt lat="46.49768" lon="-1.43009">
        <ele>58</ele>
        <time>2021-09-21T09:19:40Z</time>
      </trkpt>
      <trkpt lat="46.49769" lon="-1.4301">
        <ele>58</ele>
        <time>2021-09-21T09:19:41Z</time>
      </trkpt>
      <trkpt lat="46.4977" lon="-1.4301">
        <ele>58</ele>
        <time>2021-09-21T09:19:42Z</time>
      </trkpt>
      <trkpt lat="46.49771" lon="-1.43011">
        <ele>58</ele>
        <time>2021-09-21T09:19:43Z</time>
      </trkpt>
      <trkpt lat="46.49772" lon="-1.43012">
        <ele>58</ele>
        <time>2021-09-21T09:19:44Z</time>
      </trkpt>
      <trkpt lat="46.49772" lon="-1.43013">
        <ele>58.1</ele>
        <time>2021-09-21T09:19:45Z</time>
      </trkpt>
      <trkpt lat="46.49773" lon="-1.43013">
        <ele>58.1</ele>
        <time>2021-09-21T09:19:46Z</time>
      </trkpt>
      <trkpt lat="46.49774" lon="-1.43014">
        <ele>58.1</ele>
        <time>2021-09-21T09:19:47Z</time>
      </trkpt>
      <trkpt lat="46.49775" lon="-1.43015">
        <ele>58.1</ele>
        <time>2021-09-21T09:19:48Z</time>
      </trkpt>
      <trkpt lat="46.49776" lon="-1.43016">
        <ele>58.2</ele>
        <time>2021-09-21T09:19:49Z</time>
      </trkpt>
      <trkpt lat="46.49778" lon="-1.43017">
        <ele>58.2</ele>
        <time>2021-09-21T09:19:50Z</time>
      </trkpt>
      <trkpt lat="46.49779" lon="-1.43018">
        <ele>58.2</ele>
        <time>2021-09-21T09:19:51Z</time>
      </trkpt>
      <trkpt lat="46.4978" lon="-1.43019">
        <ele>58.2</ele>
        <time>2021-09-21T09:19:52Z</time>
      </trkpt>
      <trkpt lat="46.49781" lon="-1.4302">
        <ele>58.3</ele>
        <time>2021-09-21T09:19:53Z</time>
      </trkpt>
      <trkpt lat="46.49782" lon="-1.43021">
        <ele>58.3</ele>
        <time>2021-09-21T09:19:54Z</time>
      </trkpt>
      <trkpt lat="46.49783" lon="-1.43022">
        <ele>58.3</ele>
        <time>2021-09-21T09:19:55Z</time>
      </trkpt>
      <trkpt lat="46.49784" lon="-1.43023">
        <ele>58.3</ele>
        <time>2021-09-21T09:19:56Z</time>
      </trkpt>
      <trkpt lat="46.49784" lon="-1.43024">
        <ele>58.4</ele>
        <time>2021-09-21T09:19:57Z</time>
      </trkpt>
      <trkpt lat="46.49785" lon="-1.43024">
        <ele>58.4</ele>
        <time>2021-09-21T09:19:58Z</time>
      </trkpt>
      <trkpt lat="46.49785" lon="-1.43025">
        <ele>58.4</ele>
        <time>2021-09-21T09:19:59Z</time>
      </trkpt>
      <trkpt lat="46.49786" lon="-1.43025">
        <ele>58.4</ele>
        <time>2021-09-21T09:20:00Z</time>
      </trkpt>
      <trkpt lat="46.49786" lon="-1.43025">
        <ele>58.4</ele>
        <time>2021-09-21T09:20:01Z</time>
      </trkpt>
      <trkpt lat="46.49786" lon="-1.43026">
        <ele>58.4</ele>
        <time>2021-09-21T09:20:02Z</time>
      </trkpt>
      <trkpt lat="46.49786" lon="-1.43026">
        <ele>58.4</ele>
        <time>2021-09-21T09:20:03Z</time>
      </trkpt>
      <trkpt lat="46.49786" lon="-1.43027">
        <ele>58.4</ele>
        <time>2021-09-21T09:20:04Z</time>
      </trkpt>
      <trkpt lat="46.49786" lon="-1.43027">
        <ele>58.4</ele>
        <time>2021-09-21T09:20:05Z</time>
      </trkpt>
      <trkpt lat="46.49786" lon="-1.43028">
        <ele>58.4</ele>
        <time>2021-09-21T09:20:06Z</time>
      </trkpt>
      <trkpt lat="46.49786" lon="-1.43029">
        <ele>58.4</ele>
        <time>2021-09-21T09:20:07Z</time>
      </trkpt>
      <trkpt lat="46.49786" lon="-1.4303">
        <ele>58.5</ele>
        <time>2021-09-21T09:20:08Z</time>
      </trkpt>
      <trkpt lat="46.49786" lon="-1.43032">
        <ele>58.5</ele>
        <time>2021-09-21T09:20:09Z</time>
      </trkpt>
      <trkpt lat="46.49786" lon="-1.43033">
        <ele>58.5</ele>
        <time>2021-09-21T09:20:10Z</time>
      </trkpt>
      <trkpt lat="46.49786" lon="-1.43035">
        <ele>58.5</ele>
        <time>2021-09-21T09:20:11Z</time>
      </trkpt>
      <trkpt lat="46.49786" lon="-1.43036">
        <ele>58.5</ele>
        <time>2021-09-21T09:20:12Z</time>
      </trkpt>
      <trkpt lat="46.49786" lon="-1.43038">
        <ele>58.5</ele>
        <time>2021-09-21T09:20:13Z</time>
      </trkpt>
      <trkpt lat="46.49786" lon="-1.43039">
        <ele>58.5</ele>
        <time>2021-09-21T09:20:14Z</time>
      </trkpt>
      <trkpt lat="46.49786" lon="-1.43041">
        <ele>58.5</ele>
        <time>2021-09-21T09:20:15Z</time>
      </trkpt>
      <trkpt lat="46.49786" lon="-1.43042">
        <ele>58.5</ele>
        <time>2021-09-21T09:20:16Z</time>
      </trkpt>
      <trkpt lat="46.49786" lon="-1.43043">
        <ele>58.5</ele>
        <time>2021-09-21T09:20:17Z</time>
      </trkpt>
      <trkpt lat="46.49787" lon="-1.43045">
        <ele>58.4</ele>
        <time>2021-09-21T09:20:18Z</time>
      </trkpt>
      <trkpt lat="46.49787" lon="-1.43046">
        <ele>58.4</ele>
        <time>2021-09-21T09:20:19Z</time>
      </trkpt>
      <trkpt lat="46.49787" lon="-1.43048">
        <ele>58.4</ele>
        <time>2021-09-21T09:20:20Z</time>
      </trkpt>
      <trkpt lat="46.49788" lon="-1.43049">
        <ele>58.4</ele>
        <time>2021-09-21T09:20:21Z</time>
      </trkpt>
      <trkpt lat="46.49788" lon="-1.43051">
        <ele>58.4</ele>
        <time>2021-09-21T09:20:22Z</time>
      </trkpt>
      <trkpt lat="46.49788" lon="-1.43052">
        <ele>58.4</ele>
        <time>2021-09-21T09:20:23Z</time>
      </trkpt>
      <trkpt lat="46.49789" lon="-1.43054">
        <ele>58.4</ele>
        <time>2021-09-21T09:20:24Z</time>
      </trkpt>
      <trkpt lat="46.49789" lon="-1.43055">
        <ele>58.4</ele>
        <time>2021-09-21T09:20:25Z</time>
      </trkpt>
      <trkpt lat="46.49789" lon="-1.43057">
        <ele>58.4</ele>
        <time>2021-09-21T09:20:26Z</time>
      </trkpt>
      <trkpt lat="46.4979" lon="-1.43058">
        <ele>58.4</ele>
        <time>2021-09-21T09:20:27Z</time>
      </trkpt>
      <trkpt lat="46.4979" lon="-1.4306">
        <ele>58.4</ele>
        <time>2021-09-21T09:20:28Z</time>
      </trkpt>
      <trkpt lat="46.4979" lon="-1.43061">
        <ele>58.4</ele>
        <time>2021-09-21T09:20:29Z</time>
      </trkpt>
      <trkpt lat="46.49791" lon="-1.43063">
        <ele>58.4</ele>
        <time>2021-09-21T09:20:30Z</time>
      </trkpt>
      <trkpt lat="46.49791" lon="-1.43064">
        <ele>58.4</ele>
        <time>2021-09-21T09:20:31Z</time>
      </trkpt>
      <trkpt lat="46.49791" lon="-1.43066">
        <ele>58.4</ele>
        <time>2021-09-21T09:20:32Z</time>
      </trkpt>
      <trkpt lat="46.49792" lon="-1.43067">
        <ele>58.4</ele>
        <time>2021-09-21T09:20:33Z</time>
      </trkpt>
      <trkpt lat="46.49792" lon="-1.43069">
        <ele>58.4</ele>
        <time>2021-09-21T09:20:34Z</time>
      </trkpt>
      <trkpt lat="46.49792" lon="-1.4307">
        <ele>58.4</ele>
        <time>2021-09-21T09:20:35Z</time>
      </trkpt>
      <trkpt lat="46.49792" lon="-1.43072">
        <ele>58.4</ele>
        <time>2021-09-21T09:20:36Z</time>
      </trkpt>
      <trkpt lat="46.49793" lon="-1.43074">
        <ele>58.4</ele>
        <time>2021-09-21T09:20:37Z</time>
      </trkpt>
      <trkpt lat="46.49793" lon="-1.43075">
        <ele>58.4</ele>
        <time>2021-09-21T09:20:38Z</time>
      </trkpt>
      <trkpt lat="46.49793" lon="-1.43077">
        <ele>58.4</ele>
        <time>2021-09-21T09:20:39Z</time>
      </trkpt>
      <trkpt lat="46.49793" lon="-1.43079">
        <ele>58.4</ele>
        <time>2021-09-21T09:20:40Z</time>
      </trkpt>
      <trkpt lat="46.49794" lon="-1.43081">
        <ele>58.4</ele>
        <time>2021-09-21T09:20:41Z</time>
      </trkpt>
      <trkpt lat="46.49794" lon="-1.43082">
        <ele>58.4</ele>
        <time>2021-09-21T09:20:42Z</time>
      </trkpt>
      <trkpt lat="46.49794" lon="-1.43084">
        <ele>58.3</ele>
        <time>2021-09-21T09:20:43Z</time>
      </trkpt>
      <trkpt lat="46.49794" lon="-1.43086">
        <ele>58.3</ele>
        <time>2021-09-21T09:20:44Z</time>
      </trkpt>
      <trkpt lat="46.49794" lon="-1.43088">
        <ele>58.3</ele>
        <time>2021-09-21T09:20:45Z</time>
      </trkpt>
      <trkpt lat="46.49795" lon="-1.43089">
        <ele>58.3</ele>
        <time>2021-09-21T09:20:46Z</time>
      </trkpt>
      <trkpt lat="46.49795" lon="-1.43091">
        <ele>58.3</ele>
        <time>2021-09-21T09:20:47Z</time>
      </trkpt>
      <trkpt lat="46.49795" lon="-1.43093">
        <ele>58.3</ele>
        <time>2021-09-21T09:20:48Z</time>
      </trkpt>
      <trkpt lat="46.49795" lon="-1.43095">
        <ele>58.3</ele>
        <time>2021-09-21T09:20:49Z</time>
      </trkpt>
      <trkpt lat="46.49795" lon="-1.43097">
        <ele>58.3</ele>
        <time>2021-09-21T09:20:50Z</time>
      </trkpt>
      <trkpt lat="46.49795" lon="-1.43099">
        <ele>58.3</ele>
        <time>2021-09-21T09:20:51Z</time>
      </trkpt>
      <trkpt lat="46.49796" lon="-1.43101">
        <ele>58.3</ele>
        <time>2021-09-21T09:20:52Z</time>
      </trkpt>
      <trkpt lat="46.49796" lon="-1.43102">
        <ele>58.3</ele>
        <time>2021-09-21T09:20:53Z</time>
      </trkpt>
      <trkpt lat="46.49796" lon="-1.43104">
        <ele>58.2</ele>
        <time>2021-09-21T09:20:54Z</time>
      </trkpt>
      <trkpt lat="46.49796" lon="-1.43106">
        <ele>58.2</ele>
        <time>2021-09-21T09:20:55Z</time>
      </trkpt>
      <trkpt lat="46.49796" lon="-1.43108">
        <ele>58.2</ele>
        <time>2021-09-21T09:20:56Z</time>
      </trkpt>
      <trkpt lat="46.49796" lon="-1.4311">
        <ele>58.2</ele>
        <time>2021-09-21T09:20:57Z</time>
      </trkpt>
      <trkpt lat="46.49796" lon="-1.43112">
        <ele>58.2</ele>
        <time>2021-09-21T09:20:58Z</time>
      </trkpt>
      <trkpt lat="46.49796" lon="-1.43114">
        <ele>58.2</ele>
        <time>2021-09-21T09:20:59Z</time>
      </trkpt>
      <trkpt lat="46.49796" lon="-1.43115">
        <ele>58.2</ele>
        <time>2021-09-21T09:21:00Z</time>
      </trkpt>
      <trkpt lat="46.49797" lon="-1.43117">
        <ele>58.2</ele>
        <time>2021-09-21T09:21:01Z</time>
      </trkpt>
      <trkpt lat="46.49797" lon="-1.43119">
        <ele>58.2</ele>
        <time>2021-09-21T09:21:02Z</time>
      </trkpt>
      <trkpt lat="46.49797" lon="-1.43121">
        <ele>58.2</ele>
        <time>2021-09-21T09:21:03Z</time>
      </trkpt>
      <trkpt lat="46.49797" lon="-1.43123">
        <ele>58.2</ele>
        <time>2021-09-21T09:21:04Z</time>
      </trkpt>
      <trkpt lat="46.49797" lon="-1.43125">
        <ele>58.2</ele>
        <time>2021-09-21T09:21:05Z</time>
      </trkpt>
      <trkpt lat="46.49797" lon="-1.43126">
        <ele>58.1</ele>
        <time>2021-09-21T09:21:06Z</time>
      </trkpt>
      <trkpt lat="46.49797" lon="-1.43128">
        <ele>58.1</ele>
        <time>2021-09-21T09:21:07Z</time>
      </trkpt>
      <trkpt lat="46.49797" lon="-1.4313">
        <ele>58.1</ele>
        <time>2021-09-21T09:21:08Z</time>
      </trkpt>
      <trkpt lat="46.49796" lon="-1.43132">
        <ele>58.1</ele>
        <time>2021-09-21T09:21:09Z</time>
      </trkpt>
      <trkpt lat="46.49796" lon="-1.43134">
        <ele>58.1</ele>
        <time>2021-09-21T09:21:10Z</time>
      </trkpt>
      <trkpt lat="46.49796" lon="-1.43135">
        <ele>58.1</ele>
        <time>2021-09-21T09:21:11Z</time>
      </trkpt>
      <trkpt lat="46.49796" lon="-1.43137">
        <ele>58.1</ele>
        <time>2021-09-21T09:21:12Z</time>
      </trkpt>
      <trkpt lat="46.49796" lon="-1.43139">
        <ele>58.1</ele>
        <time>2021-09-21T09:21:13Z</time>
      </trkpt>
      <trkpt lat="46.49796" lon="-1.43141">
        <ele>58.1</ele>
        <time>2021-09-21T09:21:14Z</time>
      </trkpt>
      <trkpt lat="46.49796" lon="-1.43142">
        <ele>58.1</ele>
        <time>2021-09-21T09:21:15Z</time>
      </trkpt>
      <trkpt lat="46.49796" lon="-1.43144">
        <ele>58.1</ele>
        <time>2021-09-21T09:21:16Z</time>
      </trkpt>
      <trkpt lat="46.49796" lon="-1.43146">
        <ele>58.1</ele>
        <time>2021-09-21T09:21:17Z</time>
      </trkpt>
      <trkpt lat="46.49796" lon="-1.43147">
        <ele>58</ele>
        <time>2021-09-21T09:21:18Z</time>
      </trkpt>
      <trkpt lat="46.49796" lon="-1.43149">
        <ele>58</ele>
        <time>2021-09-21T09:21:19Z</time>
      </trkpt>
      <trkpt lat="46.49796" lon="-1.43151">
        <ele>58</ele>
        <time>2021-09-21T09:21:20Z</time>
      </trkpt>
      <trkpt lat="46.49796" lon="-1.43152">
        <ele>58</ele>
        <time>2021-09-21T09:21:21Z</time>
      </trkpt>
      <trkpt lat="46.49796" lon="-1.43154">
        <ele>58</ele>
        <time>2021-09-21T09:21:22Z</time>
      </trkpt>
      <trkpt lat="46.49796" lon="-1.43156">
        <ele>58</ele>
        <time>2021-09-21T09:21:23Z</time>
      </trkpt>
      <trkpt lat="46.49796" lon="-1.43157">
        <ele>58</ele>
        <time>2021-09-21T09:21:24Z</time>
      </trkpt>
      <trkpt lat="46.49796" lon="-1.43159">
        <ele>58</ele>
        <time>2021-09-21T09:21:25Z</time>
      </trkpt>
      <trkpt lat="46.49796" lon="-1.43161">
        <ele>58</ele>
        <time>2021-09-21T09:21:26Z</time>
      </trkpt>
      <trkpt lat="46.49796" lon="-1.43163">
        <ele>57.9</ele>
        <time>2021-09-21T09:21:27Z</time>
      </trkpt>
      <trkpt lat="46.49796" lon="-1.43164">
        <ele>57.9</ele>
        <time>2021-09-21T09:21:28Z</time>
      </trkpt>
      <trkpt lat="46.49796" lon="-1.43166">
        <ele>57.9</ele>
        <time>2021-09-21T09:21:29Z</time>
      </trkpt>
      <trkpt lat="46.49796" lon="-1.43168">
        <ele>57.9</ele>
        <time>2021-09-21T09:21:30Z</time>
      </trkpt>
      <trkpt lat="46.49796" lon="-1.4317">
        <ele>57.9</ele>
        <time>2021-09-21T09:21:31Z</time>
      </trkpt>
      <trkpt lat="46.49796" lon="-1.43172">
        <ele>57.9</ele>
        <time>2021-09-21T09:21:32Z</time>
      </trkpt>
      <trkpt lat="46.49796" lon="-1.43173">
        <ele>57.8</ele>
        <time>2021-09-21T09:21:33Z</time>
      </trkpt>
      <trkpt lat="46.49796" lon="-1.43175">
        <ele>57.8</ele>
        <time>2021-09-21T09:21:34Z</time>
      </trkpt>
      <trkpt lat="46.49796" lon="-1.43177">
        <ele>57.8</ele>
        <time>2021-09-21T09:21:35Z</time>
      </trkpt>
      <trkpt lat="46.49796" lon="-1.43179">
        <ele>57.8</ele>
        <time>2021-09-21T09:21:36Z</time>
      </trkpt>
      <trkpt lat="46.49796" lon="-1.43181">
        <ele>57.7</ele>
        <time>2021-09-21T09:21:37Z</time>
      </trkpt>
      <trkpt lat="46.49796" lon="-1.43182">
        <ele>57.7</ele>
        <time>2021-09-21T09:21:38Z</time>
      </trkpt>
      <trkpt lat="46.49795" lon="-1.43184">
        <ele>57.7</ele>
        <time>2021-09-21T09:21:39Z</time>
      </trkpt>
      <trkpt lat="46.49795" lon="-1.43186">
        <ele>57.7</ele>
        <time>2021-09-21T09:21:40Z</time>
      </trkpt>
      <trkpt lat="46.49795" lon="-1.43188">
        <ele>57.6</ele>
        <time>2021-09-21T09:21:41Z</time>
      </trkpt>
      <trkpt lat="46.49795" lon="-1.43189">
        <ele>57.6</ele>
        <time>2021-09-21T09:21:42Z</time>
      </trkpt>
      <trkpt lat="46.49795" lon="-1.43191">
        <ele>57.6</ele>
        <time>2021-09-21T09:21:43Z</time>
      </trkpt>
      <trkpt lat="46.49795" lon="-1.43193">
        <ele>57.6</ele>
        <time>2021-09-21T09:21:44Z</time>
      </trkpt>
      <trkpt lat="46.49795" lon="-1.43194">
        <ele>57.5</ele>
        <time>2021-09-21T09:21:45Z</time>
      </trkpt>
      <trkpt lat="46.49795" lon="-1.43196">
        <ele>57.5</ele>
        <time>2021-09-21T09:21:46Z</time>
      </trkpt>
      <trkpt lat="46.49795" lon="-1.43198">
        <ele>57.5</ele>
        <time>2021-09-21T09:21:47Z</time>
      </trkpt>
      <trkpt lat="46.49795" lon="-1.432">
        <ele>57.5</ele>
        <time>2021-09-21T09:21:48Z</time>
      </trkpt>
      <trkpt lat="46.49795" lon="-1.43201">
        <ele>57.4</ele>
        <time>2021-09-21T09:21:49Z</time>
      </trkpt>
      <trkpt lat="46.49794" lon="-1.43203">
        <ele>57.4</ele>
        <time>2021-09-21T09:21:50Z</time>
      </trkpt>
      <trkpt lat="46.49794" lon="-1.43205">
        <ele>57.4</ele>
        <time>2021-09-21T09:21:51Z</time>
      </trkpt>
      <trkpt lat="46.49794" lon="-1.43206">
        <ele>57.4</ele>
        <time>2021-09-21T09:21:52Z</time>
      </trkpt>
      <trkpt lat="46.49794" lon="-1.43208">
        <ele>57.3</ele>
        <time>2021-09-21T09:21:53Z</time>
      </trkpt>
      <trkpt lat="46.49794" lon="-1.4321">
        <ele>57.3</ele>
        <time>2021-09-21T09:21:54Z</time>
      </trkpt>
      <trkpt lat="46.49794" lon="-1.43211">
        <ele>57.3</ele>
        <time>2021-09-21T09:21:55Z</time>
      </trkpt>
      <trkpt lat="46.49794" lon="-1.43213">
        <ele>57.3</ele>
        <time>2021-09-21T09:21:56Z</time>
      </trkpt>
      <trkpt lat="46.49794" lon="-1.43215">
        <ele>57.2</ele>
        <time>2021-09-21T09:21:57Z</time>
      </trkpt>
      <trkpt lat="46.49794" lon="-1.43217">
        <ele>57.2</ele>
        <time>2021-09-21T09:21:58Z</time>
      </trkpt>
      <trkpt lat="46.49794" lon="-1.43218">
        <ele>57.2</ele>
        <time>2021-09-21T09:21:59Z</time>
      </trkpt>
      <trkpt lat="46.49794" lon="-1.4322">
        <ele>57.1</ele>
        <time>2021-09-21T09:22:00Z</time>
      </trkpt>
      <trkpt lat="46.49794" lon="-1.43222">
        <ele>57.1</ele>
        <time>2021-09-21T09:22:01Z</time>
      </trkpt>
      <trkpt lat="46.49794" lon="-1.43224">
        <ele>57.1</ele>
        <time>2021-09-21T09:22:02Z</time>
      </trkpt>
      <trkpt lat="46.49794" lon="-1.43225">
        <ele>57.1</ele>
        <time>2021-09-21T09:22:03Z</time>
      </trkpt>
      <trkpt lat="46.49794" lon="-1.43227">
        <ele>57</ele>
        <time>2021-09-21T09:22:04Z</time>
      </trkpt>
      <trkpt lat="46.49794" lon="-1.43229">
        <ele>57</ele>
        <time>2021-09-21T09:22:05Z</time>
      </trkpt>
      <trkpt lat="46.49794" lon="-1.43231">
        <ele>56.9</ele>
        <time>2021-09-21T09:22:06Z</time>
      </trkpt>
      <trkpt lat="46.49794" lon="-1.43233">
        <ele>56.9</ele>
        <time>2021-09-21T09:22:07Z</time>
      </trkpt>
      <trkpt lat="46.49794" lon="-1.43235">
        <ele>56.8</ele>
        <time>2021-09-21T09:22:08Z</time>
      </trkpt>
      <trkpt lat="46.49794" lon="-1.43236">
        <ele>56.8</ele>
        <time>2021-09-21T09:22:09Z</time>
      </trkpt>
      <trkpt lat="46.49794" lon="-1.43238">
        <ele>56.8</ele>
        <time>2021-09-21T09:22:10Z</time>
      </trkpt>
      <trkpt lat="46.49794" lon="-1.4324">
        <ele>56.7</ele>
        <time>2021-09-21T09:22:11Z</time>
      </trkpt>
      <trkpt lat="46.49795" lon="-1.43242">
        <ele>56.7</ele>
        <time>2021-09-21T09:22:12Z</time>
      </trkpt>
      <trkpt lat="46.49795" lon="-1.43244">
        <ele>56.6</ele>
        <time>2021-09-21T09:22:13Z</time>
      </trkpt>
      <trkpt lat="46.49795" lon="-1.43245">
        <ele>56.6</ele>
        <time>2021-09-21T09:22:14Z</time>
      </trkpt>
      <trkpt lat="46.49795" lon="-1.43247">
        <ele>56.5</ele>
        <time>2021-09-21T09:22:15Z</time>
      </trkpt>
      <trkpt lat="46.49795" lon="-1.43249">
        <ele>56.4</ele>
        <time>2021-09-21T09:22:16Z</time>
      </trkpt>
      <trkpt lat="46.49795" lon="-1.43251">
        <ele>56.4</ele>
        <time>2021-09-21T09:22:17Z</time>
      </trkpt>
      <trkpt lat="46.49795" lon="-1.43253">
        <ele>56.3</ele>
        <time>2021-09-21T09:22:18Z</time>
      </trkpt>
      <trkpt lat="46.49795" lon="-1.43254">
        <ele>56.2</ele>
        <time>2021-09-21T09:22:19Z</time>
      </trkpt>
      <trkpt lat="46.49795" lon="-1.43256">
        <ele>56.2</ele>
        <time>2021-09-21T09:22:20Z</time>
      </trkpt>
      <trkpt lat="46.49795" lon="-1.43258">
        <ele>56.1</ele>
        <time>2021-09-21T09:22:21Z</time>
      </trkpt>
      <trkpt lat="46.49795" lon="-1.4326">
        <ele>56</ele>
        <time>2021-09-21T09:22:22Z</time>
      </trkpt>
      <trkpt lat="46.49795" lon="-1.43262">
        <ele>55.9</ele>
        <time>2021-09-21T09:22:23Z</time>
      </trkpt>
      <trkpt lat="46.49795" lon="-1.43264">
        <ele>55.9</ele>
        <time>2021-09-21T09:22:24Z</time>
      </trkpt>
      <trkpt lat="46.49795" lon="-1.43266">
        <ele>55.8</ele>
        <time>2021-09-21T09:22:25Z</time>
      </trkpt>
      <trkpt lat="46.49795" lon="-1.43268">
        <ele>55.7</ele>
        <time>2021-09-21T09:22:26Z</time>
      </trkpt>
      <trkpt lat="46.49795" lon="-1.4327">
        <ele>55.6</ele>
        <time>2021-09-21T09:22:27Z</time>
      </trkpt>
      <trkpt lat="46.49795" lon="-1.43272">
        <ele>55.5</ele>
        <time>2021-09-21T09:22:28Z</time>
      </trkpt>
      <trkpt lat="46.49795" lon="-1.43274">
        <ele>55.4</ele>
        <time>2021-09-21T09:22:29Z</time>
      </trkpt>
      <trkpt lat="46.49795" lon="-1.43276">
        <ele>55.2</ele>
        <time>2021-09-21T09:22:30Z</time>
      </trkpt>
      <trkpt lat="46.49795" lon="-1.43278">
        <ele>55.1</ele>
        <time>2021-09-21T09:22:31Z</time>
      </trkpt>
      <trkpt lat="46.49796" lon="-1.4328">
        <ele>55</ele>
        <time>2021-09-21T09:22:32Z</time>
      </trkpt>
      <trkpt lat="46.49796" lon="-1.43282">
        <ele>54.9</ele>
        <time>2021-09-21T09:22:33Z</time>
      </trkpt>
      <trkpt lat="46.49796" lon="-1.43284">
        <ele>54.8</ele>
        <time>2021-09-21T09:22:34Z</time>
      </trkpt>
      <trkpt lat="46.49796" lon="-1.43286">
        <ele>54.6</ele>
        <time>2021-09-21T09:22:35Z</time>
      </trkpt>
      <trkpt lat="46.49796" lon="-1.43288">
        <ele>54.5</ele>
        <time>2021-09-21T09:22:36Z</time>
      </trkpt>
      <trkpt lat="46.49796" lon="-1.4329">
        <ele>54.4</ele>
        <time>2021-09-21T09:22:37Z</time>
      </trkpt>
      <trkpt lat="46.49796" lon="-1.43292">
        <ele>54.3</ele>
        <time>2021-09-21T09:22:38Z</time>
      </trkpt>
      <trkpt lat="46.49796" lon="-1.43294">
        <ele>54.1</ele>
        <time>2021-09-21T09:22:39Z</time>
      </trkpt>
      <trkpt lat="46.49797" lon="-1.43296">
        <ele>54</ele>
        <time>2021-09-21T09:22:40Z</time>
      </trkpt>
      <trkpt lat="46.49797" lon="-1.43298">
        <ele>53.9</ele>
        <time>2021-09-21T09:22:41Z</time>
      </trkpt>
      <trkpt lat="46.49797" lon="-1.433">
        <ele>53.8</ele>
        <time>2021-09-21T09:22:42Z</time>
      </trkpt>
      <trkpt lat="46.49797" lon="-1.43302">
        <ele>53.7</ele>
        <time>2021-09-21T09:22:43Z</time>
      </trkpt>
      <trkpt lat="46.49797" lon="-1.43304">
        <ele>53.6</ele>
        <time>2021-09-21T09:22:44Z</time>
      </trkpt>
      <trkpt lat="46.49797" lon="-1.43306">
        <ele>53.4</ele>
        <time>2021-09-21T09:22:45Z</time>
      </trkpt>
      <trkpt lat="46.49798" lon="-1.43308">
        <ele>53.3</ele>
        <time>2021-09-21T09:22:46Z</time>
      </trkpt>
      <trkpt lat="46.49798" lon="-1.4331">
        <ele>53.2</ele>
        <time>2021-09-21T09:22:47Z</time>
      </trkpt>
      <trkpt lat="46.49798" lon="-1.43311">
        <ele>53.1</ele>
        <time>2021-09-21T09:22:48Z</time>
      </trkpt>
      <trkpt lat="46.49798" lon="-1.43313">
        <ele>53</ele>
        <time>2021-09-21T09:22:49Z</time>
      </trkpt>
      <trkpt lat="46.49798" lon="-1.43315">
        <ele>52.9</ele>
        <time>2021-09-21T09:22:50Z</time>
      </trkpt>
      <trkpt lat="46.49799" lon="-1.43317">
        <ele>52.8</ele>
        <time>2021-09-21T09:22:51Z</time>
      </trkpt>
      <trkpt lat="46.49799" lon="-1.43318">
        <ele>52.7</ele>
        <time>2021-09-21T09:22:52Z</time>
      </trkpt>
      <trkpt lat="46.49799" lon="-1.4332">
        <ele>52.6</ele>
        <time>2021-09-21T09:22:53Z</time>
      </trkpt>
      <trkpt lat="46.49799" lon="-1.43322">
        <ele>52.5</ele>
        <time>2021-09-21T09:22:54Z</time>
      </trkpt>
      <trkpt lat="46.49799" lon="-1.43323">
        <ele>52.4</ele>
        <time>2021-09-21T09:22:55Z</time>
      </trkpt>
      <trkpt lat="46.49799" lon="-1.43325">
        <ele>52.3</ele>
        <time>2021-09-21T09:22:56Z</time>
      </trkpt>
      <trkpt lat="46.498" lon="-1.43327">
        <ele>52.2</ele>
        <time>2021-09-21T09:22:57Z</time>
      </trkpt>
      <trkpt lat="46.498" lon="-1.43329">
        <ele>52.1</ele>
        <time>2021-09-21T09:22:58Z</time>
      </trkpt>
      <trkpt lat="46.498" lon="-1.4333">
        <ele>52</ele>
        <time>2021-09-21T09:22:59Z</time>
      </trkpt>
      <trkpt lat="46.498" lon="-1.43332">
        <ele>51.9</ele>
        <time>2021-09-21T09:23:00Z</time>
      </trkpt>
      <trkpt lat="46.498" lon="-1.43334">
        <ele>51.8</ele>
        <time>2021-09-21T09:23:01Z</time>
      </trkpt>
      <trkpt lat="46.498" lon="-1.43336">
        <ele>51.7</ele>
        <time>2021-09-21T09:23:02Z</time>
      </trkpt>
      <trkpt lat="46.498" lon="-1.43338">
        <ele>51.6</ele>
        <time>2021-09-21T09:23:03Z</time>
      </trkpt>
      <trkpt lat="46.498" lon="-1.43339">
        <ele>51.5</ele>
        <time>2021-09-21T09:23:04Z</time>
      </trkpt>
      <trkpt lat="46.498" lon="-1.43341">
        <ele>51.4</ele>
        <time>2021-09-21T09:23:05Z</time>
      </trkpt>
      <trkpt lat="46.498" lon="-1.43343">
        <ele>51.3</ele>
        <time>2021-09-21T09:23:06Z</time>
      </trkpt>
      <trkpt lat="46.498" lon="-1.43345">
        <ele>51.2</ele>
        <time>2021-09-21T09:23:07Z</time>
      </trkpt>
      <trkpt lat="46.498" lon="-1.43346">
        <ele>51.1</ele>
        <time>2021-09-21T09:23:08Z</time>
      </trkpt>
      <trkpt lat="46.498" lon="-1.43348">
        <ele>51.1</ele>
        <time>2021-09-21T09:23:09Z</time>
      </trkpt>
      <trkpt lat="46.49799" lon="-1.4335">
        <ele>51</ele>
        <time>2021-09-21T09:23:10Z</time>
      </trkpt>
      <trkpt lat="46.49799" lon="-1.43351">
        <ele>50.9</ele>
        <time>2021-09-21T09:23:11Z</time>
      </trkpt>
      <trkpt lat="46.49799" lon="-1.43353">
        <ele>50.8</ele>
        <time>2021-09-21T09:23:12Z</time>
      </trkpt>
      <trkpt lat="46.49799" lon="-1.43355">
        <ele>50.8</ele>
        <time>2021-09-21T09:23:13Z</time>
      </trkpt>
      <trkpt lat="46.49799" lon="-1.43356">
        <ele>50.7</ele>
        <time>2021-09-21T09:23:14Z</time>
      </trkpt>
      <trkpt lat="46.49799" lon="-1.43358">
        <ele>50.6</ele>
        <time>2021-09-21T09:23:15Z</time>
      </trkpt>
      <trkpt lat="46.49799" lon="-1.43359">
        <ele>50.6</ele>
        <time>2021-09-21T09:23:16Z</time>
      </trkpt>
      <trkpt lat="46.49799" lon="-1.43361">
        <ele>50.5</ele>
        <time>2021-09-21T09:23:17Z</time>
      </trkpt>
      <trkpt lat="46.49799" lon="-1.43362">
        <ele>50.5</ele>
        <time>2021-09-21T09:23:18Z</time>
      </trkpt>
      <trkpt lat="46.49799" lon="-1.43364">
        <ele>50.4</ele>
        <time>2021-09-21T09:23:19Z</time>
      </trkpt>
      <trkpt lat="46.49799" lon="-1.43365">
        <ele>50.3</ele>
        <time>2021-09-21T09:23:20Z</time>
      </trkpt>
      <trkpt lat="46.49798" lon="-1.43367">
        <ele>50.3</ele>
        <time>2021-09-21T09:23:21Z</time>
      </trkpt>
      <trkpt lat="46.49798" lon="-1.43368">
        <ele>50.2</ele>
        <time>2021-09-21T09:23:22Z</time>
      </trkpt>
      <trkpt lat="46.49798" lon="-1.4337">
        <ele>50.2</ele>
        <time>2021-09-21T09:23:23Z</time>
      </trkpt>
      <trkpt lat="46.49797" lon="-1.43371">
        <ele>50.1</ele>
        <time>2021-09-21T09:23:24Z</time>
      </trkpt>
      <trkpt lat="46.49797" lon="-1.43373">
        <ele>50.1</ele>
        <time>2021-09-21T09:23:25Z</time>
      </trkpt>
      <trkpt lat="46.49797" lon="-1.43375">
        <ele>50</ele>
        <time>2021-09-21T09:23:26Z</time>
      </trkpt>
      <trkpt lat="46.49797" lon="-1.43376">
        <ele>50</ele>
        <time>2021-09-21T09:23:27Z</time>
      </trkpt>
      <trkpt lat="46.49796" lon="-1.43378">
        <ele>49.9</ele>
        <time>2021-09-21T09:23:28Z</time>
      </trkpt>
      <trkpt lat="46.49796" lon="-1.43379">
        <ele>49.9</ele>
        <time>2021-09-21T09:23:29Z</time>
      </trkpt>
      <trkpt lat="46.49796" lon="-1.43381">
        <ele>49.8</ele>
        <time>2021-09-21T09:23:30Z</time>
      </trkpt>
      <trkpt lat="46.49795" lon="-1.43383">
        <ele>49.8</ele>
        <time>2021-09-21T09:23:31Z</time>
      </trkpt>
      <trkpt lat="46.49795" lon="-1.43384">
        <ele>49.7</ele>
        <time>2021-09-21T09:23:32Z</time>
      </trkpt>
      <trkpt lat="46.49795" lon="-1.43386">
        <ele>49.7</ele>
        <time>2021-09-21T09:23:33Z</time>
      </trkpt>
      <trkpt lat="46.49795" lon="-1.43388">
        <ele>49.7</ele>
        <time>2021-09-21T09:23:34Z</time>
      </trkpt>
      <trkpt lat="46.49794" lon="-1.43389">
        <ele>49.6</ele>
        <time>2021-09-21T09:23:35Z</time>
      </trkpt>
      <trkpt lat="46.49794" lon="-1.43391">
        <ele>49.6</ele>
        <time>2021-09-21T09:23:36Z</time>
      </trkpt>
      <trkpt lat="46.49794" lon="-1.43393">
        <ele>49.6</ele>
        <time>2021-09-21T09:23:37Z</time>
      </trkpt>
      <trkpt lat="46.49794" lon="-1.43395">
        <ele>49.5</ele>
        <time>2021-09-21T09:23:38Z</time>
      </trkpt>
      <trkpt lat="46.49793" lon="-1.43396">
        <ele>49.5</ele>
        <time>2021-09-21T09:23:39Z</time>
      </trkpt>
      <trkpt lat="46.49793" lon="-1.43398">
        <ele>49.5</ele>
        <time>2021-09-21T09:23:40Z</time>
      </trkpt>
      <trkpt lat="46.49793" lon="-1.434">
        <ele>49.4</ele>
        <time>2021-09-21T09:23:41Z</time>
      </trkpt>
      <trkpt lat="46.49793" lon="-1.43402">
        <ele>49.4</ele>
        <time>2021-09-21T09:23:42Z</time>
      </trkpt>
      <trkpt lat="46.49792" lon="-1.43403">
        <ele>49.4</ele>
        <time>2021-09-21T09:23:43Z</time>
      </trkpt>
      <trkpt lat="46.49792" lon="-1.43405">
        <ele>49.4</ele>
        <time>2021-09-21T09:23:44Z</time>
      </trkpt>
      <trkpt lat="46.49792" lon="-1.43407">
        <ele>49.4</ele>
        <time>2021-09-21T09:23:45Z</time>
      </trkpt>
      <trkpt lat="46.49792" lon="-1.43409">
        <ele>49.3</ele>
        <time>2021-09-21T09:23:46Z</time>
      </trkpt>
      <trkpt lat="46.49791" lon="-1.4341">
        <ele>49.3</ele>
        <time>2021-09-21T09:23:47Z</time>
      </trkpt>
      <trkpt lat="46.49791" lon="-1.43412">
        <ele>49.3</ele>
        <time>2021-09-21T09:23:48Z</time>
      </trkpt>
      <trkpt lat="46.49791" lon="-1.43414">
        <ele>49.3</ele>
        <time>2021-09-21T09:23:49Z</time>
      </trkpt>
      <trkpt lat="46.49791" lon="-1.43416">
        <ele>49.3</ele>
        <time>2021-09-21T09:23:50Z</time>
      </trkpt>
      <trkpt lat="46.4979" lon="-1.43417">
        <ele>49.3</ele>
        <time>2021-09-21T09:23:51Z</time>
      </trkpt>
      <trkpt lat="46.4979" lon="-1.43419">
        <ele>49.3</ele>
        <time>2021-09-21T09:23:52Z</time>
      </trkpt>
      <trkpt lat="46.4979" lon="-1.43421">
        <ele>49.3</ele>
        <time>2021-09-21T09:23:53Z</time>
      </trkpt>
      <trkpt lat="46.4979" lon="-1.43422">
        <ele>49.3</ele>
        <time>2021-09-21T09:23:54Z</time>
      </trkpt>
      <trkpt lat="46.49789" lon="-1.43424">
        <ele>49.3</ele>
        <time>2021-09-21T09:23:55Z</time>
      </trkpt>
      <trkpt lat="46.49789" lon="-1.43426">
        <ele>49.3</ele>
        <time>2021-09-21T09:23:56Z</time>
      </trkpt>
      <trkpt lat="46.49789" lon="-1.43427">
        <ele>49.4</ele>
        <time>2021-09-21T09:23:57Z</time>
      </trkpt>
      <trkpt lat="46.49788" lon="-1.43429">
        <ele>49.4</ele>
        <time>2021-09-21T09:23:58Z</time>
      </trkpt>
      <trkpt lat="46.49788" lon="-1.4343">
        <ele>49.4</ele>
        <time>2021-09-21T09:23:59Z</time>
      </trkpt>
      <trkpt lat="46.49788" lon="-1.43432">
        <ele>49.4</ele>
        <time>2021-09-21T09:24:00Z</time>
      </trkpt>
      <trkpt lat="46.49787" lon="-1.43434">
        <ele>49.4</ele>
        <time>2021-09-21T09:24:01Z</time>
      </trkpt>
      <trkpt lat="46.49787" lon="-1.43435">
        <ele>49.5</ele>
        <time>2021-09-21T09:24:02Z</time>
      </trkpt>
      <trkpt lat="46.49787" lon="-1.43437">
        <ele>49.5</ele>
        <time>2021-09-21T09:24:03Z</time>
      </trkpt>
      <trkpt lat="46.49786" lon="-1.43438">
        <ele>49.5</ele>
        <time>2021-09-21T09:24:04Z</time>
      </trkpt>
      <trkpt lat="46.49786" lon="-1.4344">
        <ele>49.5</ele>
        <time>2021-09-21T09:24:05Z</time>
      </trkpt>
      <trkpt lat="46.49786" lon="-1.43442">
        <ele>49.6</ele>
        <time>2021-09-21T09:24:06Z</time>
      </trkpt>
      <trkpt lat="46.49786" lon="-1.43443">
        <ele>49.6</ele>
        <time>2021-09-21T09:24:07Z</time>
      </trkpt>
      <trkpt lat="46.49785" lon="-1.43445">
        <ele>49.7</ele>
        <time>2021-09-21T09:24:08Z</time>
      </trkpt>
      <trkpt lat="46.49785" lon="-1.43447">
        <ele>49.7</ele>
        <time>2021-09-21T09:24:09Z</time>
      </trkpt>
      <trkpt lat="46.49785" lon="-1.43448">
        <ele>49.8</ele>
        <time>2021-09-21T09:24:10Z</time>
      </trkpt>
      <trkpt lat="46.49785" lon="-1.4345">
        <ele>49.8</ele>
        <time>2021-09-21T09:24:11Z</time>
      </trkpt>
      <trkpt lat="46.49785" lon="-1.43452">
        <ele>49.9</ele>
        <time>2021-09-21T09:24:12Z</time>
      </trkpt>
      <trkpt lat="46.49784" lon="-1.43454">
        <ele>49.9</ele>
        <time>2021-09-21T09:24:13Z</time>
      </trkpt>
      <trkpt lat="46.49784" lon="-1.43455">
        <ele>50</ele>
        <time>2021-09-21T09:24:14Z</time>
      </trkpt>
      <trkpt lat="46.49784" lon="-1.43457">
        <ele>50</ele>
        <time>2021-09-21T09:24:15Z</time>
      </trkpt>
      <trkpt lat="46.49784" lon="-1.43458">
        <ele>50.1</ele>
        <time>2021-09-21T09:24:16Z</time>
      </trkpt>
      <trkpt lat="46.49784" lon="-1.43459">
        <ele>50.1</ele>
        <time>2021-09-21T09:24:17Z</time>
      </trkpt>
      <trkpt lat="46.49784" lon="-1.43459">
        <ele>50.1</ele>
        <time>2021-09-21T09:24:18Z</time>
      </trkpt>
      <trkpt lat="46.49784" lon="-1.4346">
        <ele>50.1</ele>
        <time>2021-09-21T09:24:19Z</time>
      </trkpt>
      <trkpt lat="46.49784" lon="-1.43461">
        <ele>50.1</ele>
        <time>2021-09-21T09:24:20Z</time>
      </trkpt>
      <trkpt lat="46.49784" lon="-1.43461">
        <ele>50.2</ele>
        <time>2021-09-21T09:24:21Z</time>
      </trkpt>
      <trkpt lat="46.49784" lon="-1.43462">
        <ele>50.2</ele>
        <time>2021-09-21T09:24:22Z</time>
      </trkpt>
      <trkpt lat="46.49784" lon="-1.43464">
        <ele>50.3</ele>
        <time>2021-09-21T09:24:23Z</time>
      </trkpt>
      <trkpt lat="46.49784" lon="-1.43465">
        <ele>50.3</ele>
        <time>2021-09-21T09:24:24Z</time>
      </trkpt>
      <trkpt lat="46.49784" lon="-1.43466">
        <ele>50.4</ele>
        <time>2021-09-21T09:24:25Z</time>
      </trkpt>
      <trkpt lat="46.49784" lon="-1.43468">
        <ele>50.4</ele>
        <time>2021-09-21T09:24:26Z</time>
      </trkpt>
      <trkpt lat="46.49784" lon="-1.4347">
        <ele>50.5</ele>
        <time>2021-09-21T09:24:27Z</time>
      </trkpt>
      <trkpt lat="46.49784" lon="-1.43471">
        <ele>50.6</ele>
        <time>2021-09-21T09:24:28Z</time>
      </trkpt>
      <trkpt lat="46.49784" lon="-1.43473">
        <ele>50.6</ele>
        <time>2021-09-21T09:24:29Z</time>
      </trkpt>
      <trkpt lat="46.49784" lon="-1.43474">
        <ele>50.7</ele>
        <time>2021-09-21T09:24:30Z</time>
      </trkpt>
      <trkpt lat="46.49783" lon="-1.43476">
        <ele>50.8</ele>
        <time>2021-09-21T09:24:31Z</time>
      </trkpt>
      <trkpt lat="46.49783" lon="-1.43478">
        <ele>50.8</ele>
        <time>2021-09-21T09:24:32Z</time>
      </trkpt>
      <trkpt lat="46.49783" lon="-1.43479">
        <ele>50.9</ele>
        <time>2021-09-21T09:24:33Z</time>
      </trkpt>
      <trkpt lat="46.49783" lon="-1.43481">
        <ele>51</ele>
        <time>2021-09-21T09:24:34Z</time>
      </trkpt>
      <trkpt lat="46.49782" lon="-1.43483">
        <ele>51</ele>
        <time>2021-09-21T09:24:35Z</time>
      </trkpt>
      <trkpt lat="46.49782" lon="-1.43484">
        <ele>51.1</ele>
        <time>2021-09-21T09:24:36Z</time>
      </trkpt>
      <trkpt lat="46.49782" lon="-1.43486">
        <ele>51.2</ele>
        <time>2021-09-21T09:24:37Z</time>
      </trkpt>
      <trkpt lat="46.49782" lon="-1.43487">
        <ele>51.2</ele>
        <time>2021-09-21T09:24:38Z</time>
      </trkpt>
      <trkpt lat="46.49782" lon="-1.43489">
        <ele>51.3</ele>
        <time>2021-09-21T09:24:39Z</time>
      </trkpt>
      <trkpt lat="46.49782" lon="-1.4349">
        <ele>51.4</ele>
        <time>2021-09-21T09:24:40Z</time>
      </trkpt>
      <trkpt lat="46.49782" lon="-1.43492">
        <ele>51.4</ele>
        <time>2021-09-21T09:24:41Z</time>
      </trkpt>
      <trkpt lat="46.49782" lon="-1.43493">
        <ele>51.5</ele>
        <time>2021-09-21T09:24:42Z</time>
      </trkpt>
      <trkpt lat="46.49783" lon="-1.43494">
        <ele>51.6</ele>
        <time>2021-09-21T09:24:43Z</time>
      </trkpt>
      <trkpt lat="46.49783" lon="-1.43496">
        <ele>51.6</ele>
        <time>2021-09-21T09:24:44Z</time>
      </trkpt>
      <trkpt lat="46.49783" lon="-1.43497">
        <ele>51.7</ele>
        <time>2021-09-21T09:24:45Z</time>
      </trkpt>
      <trkpt lat="46.49784" lon="-1.43498">
        <ele>51.7</ele>
        <time>2021-09-21T09:24:46Z</time>
      </trkpt>
      <trkpt lat="46.49784" lon="-1.435">
        <ele>51.8</ele>
        <time>2021-09-21T09:24:47Z</time>
      </trkpt>
      <trkpt lat="46.49784" lon="-1.43501">
        <ele>51.9</ele>
        <time>2021-09-21T09:24:48Z</time>
      </trkpt>
      <trkpt lat="46.49784" lon="-1.43503">
        <ele>51.9</ele>
        <time>2021-09-21T09:24:49Z</time>
      </trkpt>
      <trkpt lat="46.49785" lon="-1.43504">
        <ele>52</ele>
        <time>2021-09-21T09:24:50Z</time>
      </trkpt>
      <trkpt lat="46.49785" lon="-1.43506">
        <ele>52.1</ele>
        <time>2021-09-21T09:24:51Z</time>
      </trkpt>
      <trkpt lat="46.49785" lon="-1.43507">
        <ele>52.1</ele>
        <time>2021-09-21T09:24:52Z</time>
      </trkpt>
      <trkpt lat="46.49785" lon="-1.43509">
        <ele>52.2</ele>
        <time>2021-09-21T09:24:53Z</time>
      </trkpt>
      <trkpt lat="46.49785" lon="-1.4351">
        <ele>52.3</ele>
        <time>2021-09-21T09:24:54Z</time>
      </trkpt>
      <trkpt lat="46.49785" lon="-1.43512">
        <ele>52.4</ele>
        <time>2021-09-21T09:24:55Z</time>
      </trkpt>
      <trkpt lat="46.49785" lon="-1.43514">
        <ele>52.4</ele>
        <time>2021-09-21T09:24:56Z</time>
      </trkpt>
      <trkpt lat="46.49785" lon="-1.43515">
        <ele>52.5</ele>
        <time>2021-09-21T09:24:57Z</time>
      </trkpt>
      <trkpt lat="46.49785" lon="-1.43517">
        <ele>52.6</ele>
        <time>2021-09-21T09:24:58Z</time>
      </trkpt>
      <trkpt lat="46.49785" lon="-1.43519">
        <ele>52.7</ele>
        <time>2021-09-21T09:24:59Z</time>
      </trkpt>
      <trkpt lat="46.49785" lon="-1.43521">
        <ele>52.8</ele>
        <time>2021-09-21T09:25:00Z</time>
      </trkpt>
      <trkpt lat="46.49786" lon="-1.43522">
        <ele>52.8</ele>
        <time>2021-09-21T09:25:01Z</time>
      </trkpt>
      <trkpt lat="46.49786" lon="-1.43524">
        <ele>52.9</ele>
        <time>2021-09-21T09:25:02Z</time>
      </trkpt>
      <trkpt lat="46.49786" lon="-1.43526">
        <ele>53</ele>
        <time>2021-09-21T09:25:03Z</time>
      </trkpt>
      <trkpt lat="46.49787" lon="-1.43527">
        <ele>53.1</ele>
        <time>2021-09-21T09:25:04Z</time>
      </trkpt>
      <trkpt lat="46.49788" lon="-1.43529">
        <ele>53.2</ele>
        <time>2021-09-21T09:25:05Z</time>
      </trkpt>
      <trkpt lat="46.49788" lon="-1.4353">
        <ele>53.2</ele>
        <time>2021-09-21T09:25:06Z</time>
      </trkpt>
      <trkpt lat="46.49789" lon="-1.43531">
        <ele>53.4</ele>
        <time>2021-09-21T09:25:07Z</time>
      </trkpt>
      <trkpt lat="46.4979" lon="-1.43533">
        <ele>53.5</ele>
        <time>2021-09-21T09:25:08Z</time>
      </trkpt>
      <trkpt lat="46.4979" lon="-1.43534">
        <ele>53.6</ele>
        <time>2021-09-21T09:25:09Z</time>
      </trkpt>
      <trkpt lat="46.49791" lon="-1.43535">
        <ele>53.7</ele>
        <time>2021-09-21T09:25:10Z</time>
      </trkpt>
      <trkpt lat="46.49792" lon="-1.43536">
        <ele>53.7</ele>
        <time>2021-09-21T09:25:11Z</time>
      </trkpt>
      <trkpt lat="46.49793" lon="-1.43537">
        <ele>53.8</ele>
        <time>2021-09-21T09:25:12Z</time>
      </trkpt>
      <trkpt lat="46.49794" lon="-1.43538">
        <ele>53.9</ele>
        <time>2021-09-21T09:25:13Z</time>
      </trkpt>
      <trkpt lat="46.49795" lon="-1.43539">
        <ele>53.9</ele>
        <time>2021-09-21T09:25:14Z</time>
      </trkpt>
      <trkpt lat="46.49796" lon="-1.4354">
        <ele>54</ele>
        <time>2021-09-21T09:25:15Z</time>
      </trkpt>
      <trkpt lat="46.49797" lon="-1.43541">
        <ele>54.1</ele>
        <time>2021-09-21T09:25:16Z</time>
      </trkpt>
      <trkpt lat="46.49798" lon="-1.43542">
        <ele>54.1</ele>
        <time>2021-09-21T09:25:17Z</time>
      </trkpt>
      <trkpt lat="46.49799" lon="-1.43542">
        <ele>54.2</ele>
        <time>2021-09-21T09:25:18Z</time>
      </trkpt>
      <trkpt lat="46.498" lon="-1.43543">
        <ele>54.3</ele>
        <time>2021-09-21T09:25:19Z</time>
      </trkpt>
      <trkpt lat="46.49801" lon="-1.43543">
        <ele>54.3</ele>
        <time>2021-09-21T09:25:20Z</time>
      </trkpt>
      <trkpt lat="46.49802" lon="-1.43543">
        <ele>54.4</ele>
        <time>2021-09-21T09:25:21Z</time>
      </trkpt>
      <trkpt lat="46.49803" lon="-1.43544">
        <ele>54.4</ele>
        <time>2021-09-21T09:25:22Z</time>
      </trkpt>
      <trkpt lat="46.49804" lon="-1.43544">
        <ele>54.5</ele>
        <time>2021-09-21T09:25:23Z</time>
      </trkpt>
      <trkpt lat="46.49805" lon="-1.43544">
        <ele>54.5</ele>
        <time>2021-09-21T09:25:24Z</time>
      </trkpt>
      <trkpt lat="46.49807" lon="-1.43544">
        <ele>54.6</ele>
        <time>2021-09-21T09:25:25Z</time>
      </trkpt>
      <trkpt lat="46.49808" lon="-1.43543">
        <ele>54.6</ele>
        <time>2021-09-21T09:25:26Z</time>
      </trkpt>
      <trkpt lat="46.49809" lon="-1.43543">
        <ele>54.7</ele>
        <time>2021-09-21T09:25:27Z</time>
      </trkpt>
      <trkpt lat="46.4981" lon="-1.43543">
        <ele>54.7</ele>
        <time>2021-09-21T09:25:28Z</time>
      </trkpt>
      <trkpt lat="46.49811" lon="-1.43543">
        <ele>54.8</ele>
        <time>2021-09-21T09:25:29Z</time>
      </trkpt>
      <trkpt lat="46.49812" lon="-1.43543">
        <ele>54.8</ele>
        <time>2021-09-21T09:25:30Z</time>
      </trkpt>
      <trkpt lat="46.49813" lon="-1.43543">
        <ele>54.9</ele>
        <time>2021-09-21T09:25:31Z</time>
      </trkpt>
      <trkpt lat="46.49814" lon="-1.43543">
        <ele>54.9</ele>
        <time>2021-09-21T09:25:32Z</time>
      </trkpt>
      <trkpt lat="46.49815" lon="-1.43543">
        <ele>55</ele>
        <time>2021-09-21T09:25:33Z</time>
      </trkpt>
      <trkpt lat="46.49817" lon="-1.43543">
        <ele>55</ele>
        <time>2021-09-21T09:25:34Z</time>
      </trkpt>
      <trkpt lat="46.49818" lon="-1.43543">
        <ele>55</ele>
        <time>2021-09-21T09:25:35Z</time>
      </trkpt>
      <trkpt lat="46.49819" lon="-1.43543">
        <ele>55.1</ele>
        <time>2021-09-21T09:25:36Z</time>
      </trkpt>
      <trkpt lat="46.4982" lon="-1.43543">
        <ele>55.1</ele>
        <time>2021-09-21T09:25:37Z</time>
      </trkpt>
      <trkpt lat="46.49821" lon="-1.43543">
        <ele>55.2</ele>
        <time>2021-09-21T09:25:38Z</time>
      </trkpt>
      <trkpt lat="46.49822" lon="-1.43543">
        <ele>55.2</ele>
        <time>2021-09-21T09:25:39Z</time>
      </trkpt>
      <trkpt lat="46.49824" lon="-1.43543">
        <ele>55.2</ele>
        <time>2021-09-21T09:25:40Z</time>
      </trkpt>
      <trkpt lat="46.49825" lon="-1.43544">
        <ele>55.3</ele>
        <time>2021-09-21T09:25:41Z</time>
      </trkpt>
      <trkpt lat="46.49826" lon="-1.43544">
        <ele>55.3</ele>
        <time>2021-09-21T09:25:42Z</time>
      </trkpt>
      <trkpt lat="46.49827" lon="-1.43544">
        <ele>55.4</ele>
        <time>2021-09-21T09:25:43Z</time>
      </trkpt>
      <trkpt lat="46.49828" lon="-1.43544">
        <ele>55.4</ele>
        <time>2021-09-21T09:25:44Z</time>
      </trkpt>
      <trkpt lat="46.49829" lon="-1.43544">
        <ele>55.4</ele>
        <time>2021-09-21T09:25:45Z</time>
      </trkpt>
      <trkpt lat="46.4983" lon="-1.43544">
        <ele>55.5</ele>
        <time>2021-09-21T09:25:46Z</time>
      </trkpt>
      <trkpt lat="46.49831" lon="-1.43545">
        <ele>55.5</ele>
        <time>2021-09-21T09:25:47Z</time>
      </trkpt>
      <trkpt lat="46.49833" lon="-1.43545">
        <ele>55.5</ele>
        <time>2021-09-21T09:25:48Z</time>
      </trkpt>
      <trkpt lat="46.49834" lon="-1.43545">
        <ele>55.6</ele>
        <time>2021-09-21T09:25:49Z</time>
      </trkpt>
      <trkpt lat="46.49835" lon="-1.43546">
        <ele>55.6</ele>
        <time>2021-09-21T09:25:50Z</time>
      </trkpt>
      <trkpt lat="46.49836" lon="-1.43546">
        <ele>55.6</ele>
        <time>2021-09-21T09:25:51Z</time>
      </trkpt>
      <trkpt lat="46.49837" lon="-1.43546">
        <ele>55.7</ele>
        <time>2021-09-21T09:25:52Z</time>
      </trkpt>
      <trkpt lat="46.49838" lon="-1.43547">
        <ele>55.7</ele>
        <time>2021-09-21T09:25:53Z</time>
      </trkpt>
      <trkpt lat="46.49839" lon="-1.43547">
        <ele>55.7</ele>
        <time>2021-09-21T09:25:54Z</time>
      </trkpt>
      <trkpt lat="46.4984" lon="-1.43548">
        <ele>55.8</ele>
        <time>2021-09-21T09:25:55Z</time>
      </trkpt>
      <trkpt lat="46.49841" lon="-1.43548">
        <ele>55.8</ele>
        <time>2021-09-21T09:25:56Z</time>
      </trkpt>
      <trkpt lat="46.49842" lon="-1.43549">
        <ele>55.8</ele>
        <time>2021-09-21T09:25:57Z</time>
      </trkpt>
      <trkpt lat="46.49843" lon="-1.43549">
        <ele>55.8</ele>
        <time>2021-09-21T09:25:58Z</time>
      </trkpt>
      <trkpt lat="46.49844" lon="-1.4355">
        <ele>55.9</ele>
        <time>2021-09-21T09:25:59Z</time>
      </trkpt>
      <trkpt lat="46.49845" lon="-1.4355">
        <ele>55.9</ele>
        <time>2021-09-21T09:26:00Z</time>
      </trkpt>
      <trkpt lat="46.49846" lon="-1.43551">
        <ele>55.9</ele>
        <time>2021-09-21T09:26:01Z</time>
      </trkpt>
      <trkpt lat="46.49847" lon="-1.43551">
        <ele>55.9</ele>
        <time>2021-09-21T09:26:02Z</time>
      </trkpt>
      <trkpt lat="46.49848" lon="-1.43552">
        <ele>55.9</ele>
        <time>2021-09-21T09:26:03Z</time>
      </trkpt>
      <trkpt lat="46.49849" lon="-1.43552">
        <ele>56</ele>
        <time>2021-09-21T09:26:04Z</time>
      </trkpt>
      <trkpt lat="46.49849" lon="-1.43553">
        <ele>56</ele>
        <time>2021-09-21T09:26:05Z</time>
      </trkpt>
      <trkpt lat="46.4985" lon="-1.43553">
        <ele>56</ele>
        <time>2021-09-21T09:26:06Z</time>
      </trkpt>
      <trkpt lat="46.49851" lon="-1.43554">
        <ele>56</ele>
        <time>2021-09-21T09:26:07Z</time>
      </trkpt>
      <trkpt lat="46.49852" lon="-1.43554">
        <ele>56</ele>
        <time>2021-09-21T09:26:08Z</time>
      </trkpt>
      <trkpt lat="46.49853" lon="-1.43555">
        <ele>56</ele>
        <time>2021-09-21T09:26:09Z</time>
      </trkpt>
      <trkpt lat="46.49854" lon="-1.43556">
        <ele>56.1</ele>
        <time>2021-09-21T09:26:10Z</time>
      </trkpt>
      <trkpt lat="46.49855" lon="-1.43556">
        <ele>56.1</ele>
        <time>2021-09-21T09:26:11Z</time>
      </trkpt>
      <trkpt lat="46.49857" lon="-1.43557">
        <ele>56.1</ele>
        <time>2021-09-21T09:26:12Z</time>
      </trkpt>
      <trkpt lat="46.49858" lon="-1.43557">
        <ele>56.1</ele>
        <time>2021-09-21T09:26:13Z</time>
      </trkpt>
      <trkpt lat="46.49859" lon="-1.43558">
        <ele>56.1</ele>
        <time>2021-09-21T09:26:14Z</time>
      </trkpt>
      <trkpt lat="46.4986" lon="-1.43558">
        <ele>56.1</ele>
        <time>2021-09-21T09:26:15Z</time>
      </trkpt>
      <trkpt lat="46.49862" lon="-1.43559">
        <ele>56.2</ele>
        <time>2021-09-21T09:26:16Z</time>
      </trkpt>
      <trkpt lat="46.49863" lon="-1.4356">
        <ele>56.2</ele>
        <time>2021-09-21T09:26:17Z</time>
      </trkpt>
      <trkpt lat="46.49864" lon="-1.4356">
        <ele>56.2</ele>
        <time>2021-09-21T09:26:18Z</time>
      </trkpt>
      <trkpt lat="46.49865" lon="-1.43561">
        <ele>56.2</ele>
        <time>2021-09-21T09:26:19Z</time>
      </trkpt>
      <trkpt lat="46.49866" lon="-1.43562">
        <ele>56.2</ele>
        <time>2021-09-21T09:26:20Z</time>
      </trkpt>
      <trkpt lat="46.49867" lon="-1.43562">
        <ele>56.2</ele>
        <time>2021-09-21T09:26:21Z</time>
      </trkpt>
      <trkpt lat="46.49868" lon="-1.43563">
        <ele>56.2</ele>
        <time>2021-09-21T09:26:22Z</time>
      </trkpt>
      <trkpt lat="46.49869" lon="-1.43564">
        <ele>56.2</ele>
        <time>2021-09-21T09:26:23Z</time>
      </trkpt>
      <trkpt lat="46.49871" lon="-1.43565">
        <ele>56.3</ele>
        <time>2021-09-21T09:26:24Z</time>
      </trkpt>
      <trkpt lat="46.49872" lon="-1.43565">
        <ele>56.3</ele>
        <time>2021-09-21T09:26:25Z</time>
      </trkpt>
      <trkpt lat="46.49873" lon="-1.43566">
        <ele>56.3</ele>
        <time>2021-09-21T09:26:26Z</time>
      </trkpt>
      <trkpt lat="46.49874" lon="-1.43567">
        <ele>56.3</ele>
        <time>2021-09-21T09:26:27Z</time>
      </trkpt>
      <trkpt lat="46.49875" lon="-1.43568">
        <ele>56.3</ele>
        <time>2021-09-21T09:26:28Z</time>
      </trkpt>
      <trkpt lat="46.49876" lon="-1.43569">
        <ele>56.3</ele>
        <time>2021-09-21T09:26:29Z</time>
      </trkpt>
      <trkpt lat="46.49877" lon="-1.43569">
        <ele>56.3</ele>
        <time>2021-09-21T09:26:30Z</time>
      </trkpt>
      <trkpt lat="46.49878" lon="-1.4357">
        <ele>56.4</ele>
        <time>2021-09-21T09:26:31Z</time>
      </trkpt>
      <trkpt lat="46.49879" lon="-1.43571">
        <ele>56.4</ele>
        <time>2021-09-21T09:26:32Z</time>
      </trkpt>
      <trkpt lat="46.49881" lon="-1.43572">
        <ele>56.4</ele>
        <time>2021-09-21T09:26:33Z</time>
      </trkpt>
      <trkpt lat="46.49882" lon="-1.43573">
        <ele>56.4</ele>
        <time>2021-09-21T09:26:34Z</time>
      </trkpt>
      <trkpt lat="46.49883" lon="-1.43574">
        <ele>56.4</ele>
        <time>2021-09-21T09:26:35Z</time>
      </trkpt>
      <trkpt lat="46.49884" lon="-1.43575">
        <ele>56.4</ele>
        <time>2021-09-21T09:26:36Z</time>
      </trkpt>
      <trkpt lat="46.49885" lon="-1.43575">
        <ele>56.4</ele>
        <time>2021-09-21T09:26:37Z</time>
      </trkpt>
      <trkpt lat="46.49886" lon="-1.43576">
        <ele>56.4</ele>
        <time>2021-09-21T09:26:38Z</time>
      </trkpt>
      <trkpt lat="46.49887" lon="-1.43577">
        <ele>56.5</ele>
        <time>2021-09-21T09:26:39Z</time>
      </trkpt>
      <trkpt lat="46.49889" lon="-1.43578">
        <ele>56.5</ele>
        <time>2021-09-21T09:26:40Z</time>
      </trkpt>
      <trkpt lat="46.4989" lon="-1.43579">
        <ele>56.5</ele>
        <time>2021-09-21T09:26:41Z</time>
      </trkpt>
      <trkpt lat="46.49891" lon="-1.4358">
        <ele>56.5</ele>
        <time>2021-09-21T09:26:42Z</time>
      </trkpt>
      <trkpt lat="46.49892" lon="-1.4358">
        <ele>56.5</ele>
        <time>2021-09-21T09:26:43Z</time>
      </trkpt>
      <trkpt lat="46.49893" lon="-1.43581">
        <ele>56.5</ele>
        <time>2021-09-21T09:26:44Z</time>
      </trkpt>
      <trkpt lat="46.49894" lon="-1.43582">
        <ele>56.5</ele>
        <time>2021-09-21T09:26:45Z</time>
      </trkpt>
      <trkpt lat="46.49895" lon="-1.43583">
        <ele>56.5</ele>
        <time>2021-09-21T09:26:46Z</time>
      </trkpt>
      <trkpt lat="46.49896" lon="-1.43583">
        <ele>56.5</ele>
        <time>2021-09-21T09:26:47Z</time>
      </trkpt>
      <trkpt lat="46.49898" lon="-1.43584">
        <ele>56.5</ele>
        <time>2021-09-21T09:26:48Z</time>
      </trkpt>
      <trkpt lat="46.49899" lon="-1.43585">
        <ele>56.5</ele>
        <time>2021-09-21T09:26:49Z</time>
      </trkpt>
      <trkpt lat="46.499" lon="-1.43586">
        <ele>56.5</ele>
        <time>2021-09-21T09:26:50Z</time>
      </trkpt>
      <trkpt lat="46.49901" lon="-1.43587">
        <ele>56.5</ele>
        <time>2021-09-21T09:26:51Z</time>
      </trkpt>
      <trkpt lat="46.49902" lon="-1.43587">
        <ele>56.5</ele>
        <time>2021-09-21T09:26:52Z</time>
      </trkpt>
      <trkpt lat="46.49903" lon="-1.43588">
        <ele>56.5</ele>
        <time>2021-09-21T09:26:53Z</time>
      </trkpt>
      <trkpt lat="46.49904" lon="-1.43589">
        <ele>56.5</ele>
        <time>2021-09-21T09:26:54Z</time>
      </trkpt>
      <trkpt lat="46.49905" lon="-1.4359">
        <ele>56.5</ele>
        <time>2021-09-21T09:26:55Z</time>
      </trkpt>
      <trkpt lat="46.49906" lon="-1.43591">
        <ele>56.5</ele>
        <time>2021-09-21T09:26:56Z</time>
      </trkpt>
      <trkpt lat="46.49907" lon="-1.43591">
        <ele>56.5</ele>
        <time>2021-09-21T09:26:57Z</time>
      </trkpt>
      <trkpt lat="46.49909" lon="-1.43592">
        <ele>56.5</ele>
        <time>2021-09-21T09:26:58Z</time>
      </trkpt>
      <trkpt lat="46.4991" lon="-1.43593">
        <ele>56.5</ele>
        <time>2021-09-21T09:26:59Z</time>
      </trkpt>
      <trkpt lat="46.49911" lon="-1.43594">
        <ele>56.5</ele>
        <time>2021-09-21T09:27:00Z</time>
      </trkpt>
      <trkpt lat="46.49912" lon="-1.43595">
        <ele>56.5</ele>
        <time>2021-09-21T09:27:01Z</time>
      </trkpt>
      <trkpt lat="46.49913" lon="-1.43596">
        <ele>56.5</ele>
        <time>2021-09-21T09:27:02Z</time>
      </trkpt>
      <trkpt lat="46.49914" lon="-1.43597">
        <ele>56.5</ele>
        <time>2021-09-21T09:27:03Z</time>
      </trkpt>
      <trkpt lat="46.49915" lon="-1.43597">
        <ele>56.5</ele>
        <time>2021-09-21T09:27:04Z</time>
      </trkpt>
      <trkpt lat="46.49916" lon="-1.43598">
        <ele>56.5</ele>
        <time>2021-09-21T09:27:05Z</time>
      </trkpt>
      <trkpt lat="46.49918" lon="-1.43599">
        <ele>56.6</ele>
        <time>2021-09-21T09:27:06Z</time>
      </trkpt>
      <trkpt lat="46.49919" lon="-1.436">
        <ele>56.6</ele>
        <time>2021-09-21T09:27:07Z</time>
      </trkpt>
      <trkpt lat="46.4992" lon="-1.43601">
        <ele>56.6</ele>
        <time>2021-09-21T09:27:08Z</time>
      </trkpt>
      <trkpt lat="46.49921" lon="-1.43601">
        <ele>56.6</ele>
        <time>2021-09-21T09:27:09Z</time>
      </trkpt>
      <trkpt lat="46.49922" lon="-1.43602">
        <ele>56.6</ele>
        <time>2021-09-21T09:27:10Z</time>
      </trkpt>
      <trkpt lat="46.49923" lon="-1.43603">
        <ele>56.6</ele>
        <time>2021-09-21T09:27:11Z</time>
      </trkpt>
      <trkpt lat="46.49924" lon="-1.43603">
        <ele>56.6</ele>
        <time>2021-09-21T09:27:12Z</time>
      </trkpt>
      <trkpt lat="46.49925" lon="-1.43604">
        <ele>56.6</ele>
        <time>2021-09-21T09:27:13Z</time>
      </trkpt>
      <trkpt lat="46.49926" lon="-1.43604">
        <ele>56.6</ele>
        <time>2021-09-21T09:27:14Z</time>
      </trkpt>
      <trkpt lat="46.49928" lon="-1.43605">
        <ele>56.6</ele>
        <time>2021-09-21T09:27:15Z</time>
      </trkpt>
      <trkpt lat="46.49929" lon="-1.43605">
        <ele>56.6</ele>
        <time>2021-09-21T09:27:16Z</time>
      </trkpt>
      <trkpt lat="46.4993" lon="-1.43606">
        <ele>56.7</ele>
        <time>2021-09-21T09:27:17Z</time>
      </trkpt>
      <trkpt lat="46.49931" lon="-1.43606">
        <ele>56.7</ele>
        <time>2021-09-21T09:27:18Z</time>
      </trkpt>
      <trkpt lat="46.49932" lon="-1.43607">
        <ele>56.7</ele>
        <time>2021-09-21T09:27:19Z</time>
      </trkpt>
      <trkpt lat="46.49933" lon="-1.43607">
        <ele>56.7</ele>
        <time>2021-09-21T09:27:20Z</time>
      </trkpt>
      <trkpt lat="46.49934" lon="-1.43608">
        <ele>56.7</ele>
        <time>2021-09-21T09:27:21Z</time>
      </trkpt>
      <trkpt lat="46.49935" lon="-1.43608">
        <ele>56.7</ele>
        <time>2021-09-21T09:27:22Z</time>
      </trkpt>
      <trkpt lat="46.49936" lon="-1.43609">
        <ele>56.7</ele>
        <time>2021-09-21T09:27:23Z</time>
      </trkpt>
      <trkpt lat="46.49937" lon="-1.4361">
        <ele>56.7</ele>
        <time>2021-09-21T09:27:24Z</time>
      </trkpt>
      <trkpt lat="46.49939" lon="-1.4361">
        <ele>56.7</ele>
        <time>2021-09-21T09:27:25Z</time>
      </trkpt>
      <trkpt lat="46.4994" lon="-1.43611">
        <ele>56.7</ele>
        <time>2021-09-21T09:27:26Z</time>
      </trkpt>
      <trkpt lat="46.49941" lon="-1.43612">
        <ele>56.7</ele>
        <time>2021-09-21T09:27:27Z</time>
      </trkpt>
      <trkpt lat="46.49942" lon="-1.43613">
        <ele>56.8</ele>
        <time>2021-09-21T09:27:28Z</time>
      </trkpt>
      <trkpt lat="46.49943" lon="-1.43613">
        <ele>56.8</ele>
        <time>2021-09-21T09:27:29Z</time>
      </trkpt>
      <trkpt lat="46.49944" lon="-1.43614">
        <ele>56.8</ele>
        <time>2021-09-21T09:27:30Z</time>
      </trkpt>
      <trkpt lat="46.49945" lon="-1.43615">
        <ele>56.8</ele>
        <time>2021-09-21T09:27:31Z</time>
      </trkpt>
      <trkpt lat="46.49946" lon="-1.43616">
        <ele>56.8</ele>
        <time>2021-09-21T09:27:32Z</time>
      </trkpt>
      <trkpt lat="46.49947" lon="-1.43617">
        <ele>56.8</ele>
        <time>2021-09-21T09:27:33Z</time>
      </trkpt>
      <trkpt lat="46.49949" lon="-1.43618">
        <ele>56.8</ele>
        <time>2021-09-21T09:27:34Z</time>
      </trkpt>
      <trkpt lat="46.4995" lon="-1.43619">
        <ele>56.8</ele>
        <time>2021-09-21T09:27:35Z</time>
      </trkpt>
      <trkpt lat="46.49951" lon="-1.43619">
        <ele>56.8</ele>
        <time>2021-09-21T09:27:36Z</time>
      </trkpt>
      <trkpt lat="46.49952" lon="-1.4362">
        <ele>56.8</ele>
        <time>2021-09-21T09:27:37Z</time>
      </trkpt>
      <trkpt lat="46.49953" lon="-1.43621">
        <ele>56.8</ele>
        <time>2021-09-21T09:27:38Z</time>
      </trkpt>
      <trkpt lat="46.49954" lon="-1.43621">
        <ele>56.8</ele>
        <time>2021-09-21T09:27:39Z</time>
      </trkpt>
      <trkpt lat="46.49955" lon="-1.43622">
        <ele>56.8</ele>
        <time>2021-09-21T09:27:40Z</time>
      </trkpt>
      <trkpt lat="46.49956" lon="-1.43623">
        <ele>56.8</ele>
        <time>2021-09-21T09:27:41Z</time>
      </trkpt>
      <trkpt lat="46.49957" lon="-1.43623">
        <ele>56.8</ele>
        <time>2021-09-21T09:27:42Z</time>
      </trkpt>
      <trkpt lat="46.49958" lon="-1.43624">
        <ele>56.8</ele>
        <time>2021-09-21T09:27:43Z</time>
      </trkpt>
      <trkpt lat="46.49959" lon="-1.43625">
        <ele>56.8</ele>
        <time>2021-09-21T09:27:44Z</time>
      </trkpt>
      <trkpt lat="46.4996" lon="-1.43625">
        <ele>56.8</ele>
        <time>2021-09-21T09:27:45Z</time>
      </trkpt>
      <trkpt lat="46.49961" lon="-1.43626">
        <ele>56.8</ele>
        <time>2021-09-21T09:27:46Z</time>
      </trkpt>
      <trkpt lat="46.49962" lon="-1.43627">
        <ele>56.8</ele>
        <time>2021-09-21T09:27:47Z</time>
      </trkpt>
      <trkpt lat="46.49963" lon="-1.43627">
        <ele>56.8</ele>
        <time>2021-09-21T09:27:48Z</time>
      </trkpt>
      <trkpt lat="46.49964" lon="-1.43628">
        <ele>56.8</ele>
        <time>2021-09-21T09:27:49Z</time>
      </trkpt>
      <trkpt lat="46.49965" lon="-1.43629">
        <ele>56.8</ele>
        <time>2021-09-21T09:27:50Z</time>
      </trkpt>
      <trkpt lat="46.49966" lon="-1.4363">
        <ele>56.8</ele>
        <time>2021-09-21T09:27:51Z</time>
      </trkpt>
      <trkpt lat="46.49967" lon="-1.4363">
        <ele>56.8</ele>
        <time>2021-09-21T09:27:52Z</time>
      </trkpt>
      <trkpt lat="46.49968" lon="-1.43631">
        <ele>56.8</ele>
        <time>2021-09-21T09:27:53Z</time>
      </trkpt>
      <trkpt lat="46.49969" lon="-1.43632">
        <ele>56.8</ele>
        <time>2021-09-21T09:27:54Z</time>
      </trkpt>
      <trkpt lat="46.4997" lon="-1.43633">
        <ele>56.8</ele>
        <time>2021-09-21T09:27:55Z</time>
      </trkpt>
      <trkpt lat="46.49971" lon="-1.43634">
        <ele>56.8</ele>
        <time>2021-09-21T09:27:56Z</time>
      </trkpt>
      <trkpt lat="46.49972" lon="-1.43635">
        <ele>56.8</ele>
        <time>2021-09-21T09:27:57Z</time>
      </trkpt>
      <trkpt lat="46.49973" lon="-1.43636">
        <ele>56.8</ele>
        <time>2021-09-21T09:27:58Z</time>
      </trkpt>
      <trkpt lat="46.49974" lon="-1.43637">
        <ele>56.8</ele>
        <time>2021-09-21T09:27:59Z</time>
      </trkpt>
      <trkpt lat="46.49975" lon="-1.43639">
        <ele>56.8</ele>
        <time>2021-09-21T09:28:00Z</time>
      </trkpt>
      <trkpt lat="46.49976" lon="-1.4364">
        <ele>56.8</ele>
        <time>2021-09-21T09:28:01Z</time>
      </trkpt>
      <trkpt lat="46.49977" lon="-1.43641">
        <ele>56.8</ele>
        <time>2021-09-21T09:28:02Z</time>
      </trkpt>
      <trkpt lat="46.49978" lon="-1.43643">
        <ele>56.7</ele>
        <time>2021-09-21T09:28:03Z</time>
      </trkpt>
      <trkpt lat="46.49979" lon="-1.43644">
        <ele>56.7</ele>
        <time>2021-09-21T09:28:04Z</time>
      </trkpt>
      <trkpt lat="46.4998" lon="-1.43645">
        <ele>56.7</ele>
        <time>2021-09-21T09:28:05Z</time>
      </trkpt>
      <trkpt lat="46.49981" lon="-1.43646">
        <ele>56.7</ele>
        <time>2021-09-21T09:28:06Z</time>
      </trkpt>
      <trkpt lat="46.49982" lon="-1.43648">
        <ele>56.7</ele>
        <time>2021-09-21T09:28:07Z</time>
      </trkpt>
      <trkpt lat="46.49983" lon="-1.43649">
        <ele>56.7</ele>
        <time>2021-09-21T09:28:08Z</time>
      </trkpt>
      <trkpt lat="46.49984" lon="-1.4365">
        <ele>56.7</ele>
        <time>2021-09-21T09:28:09Z</time>
      </trkpt>
      <trkpt lat="46.49984" lon="-1.43651">
        <ele>56.7</ele>
        <time>2021-09-21T09:28:10Z</time>
      </trkpt>
      <trkpt lat="46.49985" lon="-1.43652">
        <ele>56.7</ele>
        <time>2021-09-21T09:28:11Z</time>
      </trkpt>
      <trkpt lat="46.49986" lon="-1.43653">
        <ele>56.7</ele>
        <time>2021-09-21T09:28:12Z</time>
      </trkpt>
      <trkpt lat="46.49987" lon="-1.43655">
        <ele>56.7</ele>
        <time>2021-09-21T09:28:13Z</time>
      </trkpt>
      <trkpt lat="46.49988" lon="-1.43656">
        <ele>56.7</ele>
        <time>2021-09-21T09:28:14Z</time>
      </trkpt>
      <trkpt lat="46.49989" lon="-1.43657">
        <ele>56.7</ele>
        <time>2021-09-21T09:28:15Z</time>
      </trkpt>
      <trkpt lat="46.49989" lon="-1.43658">
        <ele>56.7</ele>
        <time>2021-09-21T09:28:16Z</time>
      </trkpt>
      <trkpt lat="46.4999" lon="-1.4366">
        <ele>56.7</ele>
        <time>2021-09-21T09:28:17Z</time>
      </trkpt>
      <trkpt lat="46.49991" lon="-1.43661">
        <ele>56.7</ele>
        <time>2021-09-21T09:28:18Z</time>
      </trkpt>
      <trkpt lat="46.49992" lon="-1.43662">
        <ele>56.7</ele>
        <time>2021-09-21T09:28:19Z</time>
      </trkpt>
      <trkpt lat="46.49993" lon="-1.43663">
        <ele>56.7</ele>
        <time>2021-09-21T09:28:20Z</time>
      </trkpt>
      <trkpt lat="46.49993" lon="-1.43665">
        <ele>56.7</ele>
        <time>2021-09-21T09:28:21Z</time>
      </trkpt>
      <trkpt lat="46.49994" lon="-1.43666">
        <ele>56.7</ele>
        <time>2021-09-21T09:28:22Z</time>
      </trkpt>
      <trkpt lat="46.49995" lon="-1.43667">
        <ele>56.6</ele>
        <time>2021-09-21T09:28:23Z</time>
      </trkpt>
      <trkpt lat="46.49996" lon="-1.43668">
        <ele>56.6</ele>
        <time>2021-09-21T09:28:24Z</time>
      </trkpt>
      <trkpt lat="46.49997" lon="-1.4367">
        <ele>56.6</ele>
        <time>2021-09-21T09:28:25Z</time>
      </trkpt>
      <trkpt lat="46.49998" lon="-1.43671">
        <ele>56.6</ele>
        <time>2021-09-21T09:28:26Z</time>
      </trkpt>
      <trkpt lat="46.49999" lon="-1.43672">
        <ele>56.6</ele>
        <time>2021-09-21T09:28:27Z</time>
      </trkpt>
      <trkpt lat="46.49999" lon="-1.43673">
        <ele>56.6</ele>
        <time>2021-09-21T09:28:28Z</time>
      </trkpt>
      <trkpt lat="46.5" lon="-1.43675">
        <ele>56.6</ele>
        <time>2021-09-21T09:28:29Z</time>
      </trkpt>
      <trkpt lat="46.50001" lon="-1.43676">
        <ele>56.6</ele>
        <time>2021-09-21T09:28:30Z</time>
      </trkpt>
      <trkpt lat="46.50002" lon="-1.43677">
        <ele>56.6</ele>
        <time>2021-09-21T09:28:31Z</time>
      </trkpt>
      <trkpt lat="46.50003" lon="-1.43678">
        <ele>56.6</ele>
        <time>2021-09-21T09:28:32Z</time>
      </trkpt>
      <trkpt lat="46.50004" lon="-1.43679">
        <ele>56.6</ele>
        <time>2021-09-21T09:28:33Z</time>
      </trkpt>
      <trkpt lat="46.50005" lon="-1.43681">
        <ele>56.6</ele>
        <time>2021-09-21T09:28:34Z</time>
      </trkpt>
      <trkpt lat="46.50006" lon="-1.43682">
        <ele>56.6</ele>
        <time>2021-09-21T09:28:35Z</time>
      </trkpt>
      <trkpt lat="46.50007" lon="-1.43683">
        <ele>56.6</ele>
        <time>2021-09-21T09:28:36Z</time>
      </trkpt>
      <trkpt lat="46.50007" lon="-1.43684">
        <ele>56.6</ele>
        <time>2021-09-21T09:28:37Z</time>
      </trkpt>
      <trkpt lat="46.50008" lon="-1.43686">
        <ele>56.6</ele>
        <time>2021-09-21T09:28:38Z</time>
      </trkpt>
      <trkpt lat="46.50009" lon="-1.43687">
        <ele>56.6</ele>
        <time>2021-09-21T09:28:39Z</time>
      </trkpt>
      <trkpt lat="46.5001" lon="-1.43689">
        <ele>56.7</ele>
        <time>2021-09-21T09:28:40Z</time>
      </trkpt>
      <trkpt lat="46.50011" lon="-1.4369">
        <ele>56.7</ele>
        <time>2021-09-21T09:28:41Z</time>
      </trkpt>
      <trkpt lat="46.50011" lon="-1.43692">
        <ele>56.7</ele>
        <time>2021-09-21T09:28:42Z</time>
      </trkpt>
      <trkpt lat="46.50012" lon="-1.43693">
        <ele>56.7</ele>
        <time>2021-09-21T09:28:43Z</time>
      </trkpt>
      <trkpt lat="46.50013" lon="-1.43695">
        <ele>56.7</ele>
        <time>2021-09-21T09:28:44Z</time>
      </trkpt>
      <trkpt lat="46.50013" lon="-1.43696">
        <ele>56.7</ele>
        <time>2021-09-21T09:28:45Z</time>
      </trkpt>
      <trkpt lat="46.50014" lon="-1.43698">
        <ele>56.7</ele>
        <time>2021-09-21T09:28:46Z</time>
      </trkpt>
      <trkpt lat="46.50015" lon="-1.437">
        <ele>56.7</ele>
        <time>2021-09-21T09:28:47Z</time>
      </trkpt>
      <trkpt lat="46.50015" lon="-1.43701">
        <ele>56.7</ele>
        <time>2021-09-21T09:28:48Z</time>
      </trkpt>
      <trkpt lat="46.50016" lon="-1.43703">
        <ele>56.7</ele>
        <time>2021-09-21T09:28:49Z</time>
      </trkpt>
      <trkpt lat="46.50017" lon="-1.43705">
        <ele>56.7</ele>
        <time>2021-09-21T09:28:50Z</time>
      </trkpt>
      <trkpt lat="46.50017" lon="-1.43706">
        <ele>56.7</ele>
        <time>2021-09-21T09:28:51Z</time>
      </trkpt>
      <trkpt lat="46.50018" lon="-1.43708">
        <ele>56.7</ele>
        <time>2021-09-21T09:28:52Z</time>
      </trkpt>
      <trkpt lat="46.50018" lon="-1.4371">
        <ele>56.7</ele>
        <time>2021-09-21T09:28:53Z</time>
      </trkpt>
      <trkpt lat="46.50019" lon="-1.43711">
        <ele>56.8</ele>
        <time>2021-09-21T09:28:54Z</time>
      </trkpt>
      <trkpt lat="46.5002" lon="-1.43713">
        <ele>56.8</ele>
        <time>2021-09-21T09:28:55Z</time>
      </trkpt>
      <trkpt lat="46.5002" lon="-1.43714">
        <ele>56.8</ele>
        <time>2021-09-21T09:28:56Z</time>
      </trkpt>
      <trkpt lat="46.50021" lon="-1.43716">
        <ele>56.8</ele>
        <time>2021-09-21T09:28:57Z</time>
      </trkpt>
      <trkpt lat="46.50022" lon="-1.43717">
        <ele>56.8</ele>
        <time>2021-09-21T09:28:58Z</time>
      </trkpt>
      <trkpt lat="46.50022" lon="-1.43718">
        <ele>56.8</ele>
        <time>2021-09-21T09:28:59Z</time>
      </trkpt>
      <trkpt lat="46.50023" lon="-1.4372">
        <ele>56.8</ele>
        <time>2021-09-21T09:29:00Z</time>
      </trkpt>
      <trkpt lat="46.50024" lon="-1.43721">
        <ele>56.8</ele>
        <time>2021-09-21T09:29:01Z</time>
      </trkpt>
      <trkpt lat="46.50024" lon="-1.43722">
        <ele>56.8</ele>
        <time>2021-09-21T09:29:02Z</time>
      </trkpt>
      <trkpt lat="46.50025" lon="-1.43724">
        <ele>56.8</ele>
        <time>2021-09-21T09:29:03Z</time>
      </trkpt>
      <trkpt lat="46.50026" lon="-1.43725">
        <ele>56.8</ele>
        <time>2021-09-21T09:29:04Z</time>
      </trkpt>
      <trkpt lat="46.50027" lon="-1.43726">
        <ele>56.8</ele>
        <time>2021-09-21T09:29:05Z</time>
      </trkpt>
      <trkpt lat="46.50027" lon="-1.43727">
        <ele>56.8</ele>
        <time>2021-09-21T09:29:06Z</time>
      </trkpt>
      <trkpt lat="46.50028" lon="-1.43728">
        <ele>56.8</ele>
        <time>2021-09-21T09:29:07Z</time>
      </trkpt>
      <trkpt lat="46.50029" lon="-1.4373">
        <ele>56.8</ele>
        <time>2021-09-21T09:29:08Z</time>
      </trkpt>
      <trkpt lat="46.5003" lon="-1.43731">
        <ele>56.8</ele>
        <time>2021-09-21T09:29:09Z</time>
      </trkpt>
      <trkpt lat="46.5003" lon="-1.43732">
        <ele>56.8</ele>
        <time>2021-09-21T09:29:10Z</time>
      </trkpt>
      <trkpt lat="46.50031" lon="-1.43733">
        <ele>56.8</ele>
        <time>2021-09-21T09:29:11Z</time>
      </trkpt>
      <trkpt lat="46.50032" lon="-1.43735">
        <ele>56.8</ele>
        <time>2021-09-21T09:29:12Z</time>
      </trkpt>
      <trkpt lat="46.50033" lon="-1.43736">
        <ele>56.8</ele>
        <time>2021-09-21T09:29:13Z</time>
      </trkpt>
      <trkpt lat="46.50034" lon="-1.43737">
        <ele>56.8</ele>
        <time>2021-09-21T09:29:14Z</time>
      </trkpt>
      <trkpt lat="46.50035" lon="-1.43739">
        <ele>56.9</ele>
        <time>2021-09-21T09:29:15Z</time>
      </trkpt>
      <trkpt lat="46.50036" lon="-1.4374">
        <ele>56.9</ele>
        <time>2021-09-21T09:29:16Z</time>
      </trkpt>
      <trkpt lat="46.50037" lon="-1.43742">
        <ele>56.9</ele>
        <time>2021-09-21T09:29:17Z</time>
      </trkpt>
      <trkpt lat="46.50038" lon="-1.43743">
        <ele>56.9</ele>
        <time>2021-09-21T09:29:18Z</time>
      </trkpt>
      <trkpt lat="46.50039" lon="-1.43744">
        <ele>56.9</ele>
        <time>2021-09-21T09:29:19Z</time>
      </trkpt>
      <trkpt lat="46.50039" lon="-1.43746">
        <ele>56.9</ele>
        <time>2021-09-21T09:29:20Z</time>
      </trkpt>
      <trkpt lat="46.5004" lon="-1.43747">
        <ele>56.9</ele>
        <time>2021-09-21T09:29:21Z</time>
      </trkpt>
      <trkpt lat="46.50041" lon="-1.43749">
        <ele>57</ele>
        <time>2021-09-21T09:29:22Z</time>
      </trkpt>
      <trkpt lat="46.50042" lon="-1.4375">
        <ele>57</ele>
        <time>2021-09-21T09:29:23Z</time>
      </trkpt>
      <trkpt lat="46.50043" lon="-1.43752">
        <ele>57</ele>
        <time>2021-09-21T09:29:24Z</time>
      </trkpt>
      <trkpt lat="46.50044" lon="-1.43753">
        <ele>57</ele>
        <time>2021-09-21T09:29:25Z</time>
      </trkpt>
      <trkpt lat="46.50045" lon="-1.43755">
        <ele>57</ele>
        <time>2021-09-21T09:29:26Z</time>
      </trkpt>
      <trkpt lat="46.50046" lon="-1.43756">
        <ele>57</ele>
        <time>2021-09-21T09:29:27Z</time>
      </trkpt>
      <trkpt lat="46.50047" lon="-1.43757">
        <ele>57.1</ele>
        <time>2021-09-21T09:29:28Z</time>
      </trkpt>
      <trkpt lat="46.50047" lon="-1.43759">
        <ele>57.1</ele>
        <time>2021-09-21T09:29:29Z</time>
      </trkpt>
      <trkpt lat="46.50048" lon="-1.4376">
        <ele>57.1</ele>
        <time>2021-09-21T09:29:30Z</time>
      </trkpt>
      <trkpt lat="46.50049" lon="-1.43762">
        <ele>57.1</ele>
        <time>2021-09-21T09:29:31Z</time>
      </trkpt>
      <trkpt lat="46.5005" lon="-1.43763">
        <ele>57.1</ele>
        <time>2021-09-21T09:29:32Z</time>
      </trkpt>
      <trkpt lat="46.50051" lon="-1.43764">
        <ele>57.2</ele>
        <time>2021-09-21T09:29:33Z</time>
      </trkpt>
      <trkpt lat="46.50051" lon="-1.43766">
        <ele>57.2</ele>
        <time>2021-09-21T09:29:34Z</time>
      </trkpt>
      <trkpt lat="46.50052" lon="-1.43767">
        <ele>57.2</ele>
        <time>2021-09-21T09:29:35Z</time>
      </trkpt>
      <trkpt lat="46.50053" lon="-1.43768">
        <ele>57.2</ele>
        <time>2021-09-21T09:29:36Z</time>
      </trkpt>
      <trkpt lat="46.50054" lon="-1.43769">
        <ele>57.2</ele>
        <time>2021-09-21T09:29:37Z</time>
      </trkpt>
      <trkpt lat="46.50055" lon="-1.43771">
        <ele>57.3</ele>
        <time>2021-09-21T09:29:38Z</time>
      </trkpt>
      <trkpt lat="46.50056" lon="-1.43772">
        <ele>57.3</ele>
        <time>2021-09-21T09:29:39Z</time>
      </trkpt>
      <trkpt lat="46.50057" lon="-1.43773">
        <ele>57.3</ele>
        <time>2021-09-21T09:29:40Z</time>
      </trkpt>
      <trkpt lat="46.50058" lon="-1.43774">
        <ele>57.3</ele>
        <time>2021-09-21T09:29:41Z</time>
      </trkpt>
      <trkpt lat="46.50059" lon="-1.43776">
        <ele>57.4</ele>
        <time>2021-09-21T09:29:42Z</time>
      </trkpt>
      <trkpt lat="46.5006" lon="-1.43777">
        <ele>57.4</ele>
        <time>2021-09-21T09:29:43Z</time>
      </trkpt>
      <trkpt lat="46.50061" lon="-1.43778">
        <ele>57.4</ele>
        <time>2021-09-21T09:29:44Z</time>
      </trkpt>
      <trkpt lat="46.50062" lon="-1.43779">
        <ele>57.4</ele>
        <time>2021-09-21T09:29:45Z</time>
      </trkpt>
      <trkpt lat="46.50063" lon="-1.4378">
        <ele>57.4</ele>
        <time>2021-09-21T09:29:46Z</time>
      </trkpt>
      <trkpt lat="46.50064" lon="-1.43781">
        <ele>57.5</ele>
        <time>2021-09-21T09:29:47Z</time>
      </trkpt>
      <trkpt lat="46.50065" lon="-1.43782">
        <ele>57.5</ele>
        <time>2021-09-21T09:29:48Z</time>
      </trkpt>
      <trkpt lat="46.50065" lon="-1.43782">
        <ele>57.5</ele>
        <time>2021-09-21T09:29:49Z</time>
      </trkpt>
      <trkpt lat="46.50066" lon="-1.43783">
        <ele>57.5</ele>
        <time>2021-09-21T09:29:50Z</time>
      </trkpt>
      <trkpt lat="46.50066" lon="-1.43783">
        <ele>57.5</ele>
        <time>2021-09-21T09:29:51Z</time>
      </trkpt>
      <trkpt lat="46.50066" lon="-1.43783">
        <ele>57.5</ele>
        <time>2021-09-21T09:29:52Z</time>
      </trkpt>
      <trkpt lat="46.50067" lon="-1.43783">
        <ele>57.5</ele>
        <time>2021-09-21T09:29:53Z</time>
      </trkpt>
      <trkpt lat="46.50067" lon="-1.43784">
        <ele>57.5</ele>
        <time>2021-09-21T09:29:54Z</time>
      </trkpt>
      <trkpt lat="46.50067" lon="-1.43784">
        <ele>57.5</ele>
        <time>2021-09-21T09:29:55Z</time>
      </trkpt>
      <trkpt lat="46.50067" lon="-1.43784">
        <ele>57.5</ele>
        <time>2021-09-21T09:29:56Z</time>
      </trkpt>
      <trkpt lat="46.50067" lon="-1.43784">
        <ele>57.5</ele>
        <time>2021-09-21T09:29:57Z</time>
      </trkpt>
      <trkpt lat="46.50067" lon="-1.43784">
        <ele>57.5</ele>
        <time>2021-09-21T09:29:58Z</time>
      </trkpt>
      <trkpt lat="46.50067" lon="-1.43784">
        <ele>57.5</ele>
        <time>2021-09-21T09:29:59Z</time>
      </trkpt>
      <trkpt lat="46.50067" lon="-1.43784">
        <ele>57.5</ele>
        <time>2021-09-21T09:30:00Z</time>
      </trkpt>
      <trkpt lat="46.50067" lon="-1.43784">
        <ele>57.5</ele>
        <time>2021-09-21T09:30:01Z</time>
      </trkpt>
      <trkpt lat="46.50067" lon="-1.43784">
        <ele>57.5</ele>
        <time>2021-09-21T09:30:02Z</time>
      </trkpt>
      <trkpt lat="46.50067" lon="-1.43784">
        <ele>57.5</ele>
        <time>2021-09-21T09:30:03Z</time>
      </trkpt>
      <trkpt lat="46.50067" lon="-1.43784">
        <ele>57.5</ele>
        <time>2021-09-21T09:30:04Z</time>
      </trkpt>
      <trkpt lat="46.50067" lon="-1.43784">
        <ele>57.5</ele>
        <time>2021-09-21T09:30:05Z</time>
      </trkpt>
      <trkpt lat="46.50067" lon="-1.43784">
        <ele>57.5</ele>
        <time>2021-09-21T09:30:06Z</time>
      </trkpt>
      <trkpt lat="46.50067" lon="-1.43784">
        <ele>57.5</ele>
        <time>2021-09-21T09:30:07Z</time>
      </trkpt>
      <trkpt lat="46.50067" lon="-1.43784">
        <ele>57.5</ele>
        <time>2021-09-21T09:30:08Z</time>
      </trkpt>
      <trkpt lat="46.50067" lon="-1.43784">
        <ele>57.5</ele>
        <time>2021-09-21T09:30:09Z</time>
      </trkpt>
      <trkpt lat="46.50067" lon="-1.43784">
        <ele>57.5</ele>
        <time>2021-09-21T09:30:10Z</time>
      </trkpt>
      <trkpt lat="46.50067" lon="-1.43784">
        <ele>57.5</ele>
        <time>2021-09-21T09:30:11Z</time>
      </trkpt>
      <trkpt lat="46.50067" lon="-1.43784">
        <ele>57.5</ele>
        <time>2021-09-21T09:30:12Z</time>
      </trkpt>
      <trkpt lat="46.50067" lon="-1.43784">
        <ele>57.5</ele>
        <time>2021-09-21T09:30:13Z</time>
      </trkpt>
      <trkpt lat="46.50067" lon="-1.43784">
        <ele>57.5</ele>
        <time>2021-09-21T09:30:14Z</time>
      </trkpt>
      <trkpt lat="46.50067" lon="-1.43784">
        <ele>57.5</ele>
        <time>2021-09-21T09:30:15Z</time>
      </trkpt>
      <trkpt lat="46.50067" lon="-1.43784">
        <ele>57.5</ele>
        <time>2021-09-21T09:30:16Z</time>
      </trkpt>
      <trkpt lat="46.50067" lon="-1.43784">
        <ele>57.5</ele>
        <time>2021-09-21T09:30:17Z</time>
      </trkpt>
      <trkpt lat="46.50067" lon="-1.43784">
        <ele>57.5</ele>
        <time>2021-09-21T09:30:18Z</time>
      </trkpt>
      <trkpt lat="46.50067" lon="-1.43784">
        <ele>57.5</ele>
        <time>2021-09-21T09:30:19Z</time>
      </trkpt>
      <trkpt lat="46.50067" lon="-1.43784">
        <ele>57.5</ele>
        <time>2021-09-21T09:30:20Z</time>
      </trkpt>
      <trkpt lat="46.50067" lon="-1.43785">
        <ele>57.5</ele>
        <time>2021-09-21T09:30:21Z</time>
      </trkpt>
      <trkpt lat="46.50067" lon="-1.43785">
        <ele>57.5</ele>
        <time>2021-09-21T09:30:22Z</time>
      </trkpt>
      <trkpt lat="46.50067" lon="-1.43786">
        <ele>57.5</ele>
        <time>2021-09-21T09:30:23Z</time>
      </trkpt>
      <trkpt lat="46.50068" lon="-1.43787">
        <ele>57.5</ele>
        <time>2021-09-21T09:30:24Z</time>
      </trkpt>
      <trkpt lat="46.50068" lon="-1.43788">
        <ele>57.6</ele>
        <time>2021-09-21T09:30:25Z</time>
      </trkpt>
      <trkpt lat="46.50069" lon="-1.43789">
        <ele>57.6</ele>
        <time>2021-09-21T09:30:26Z</time>
      </trkpt>
      <trkpt lat="46.5007" lon="-1.43791">
        <ele>57.6</ele>
        <time>2021-09-21T09:30:27Z</time>
      </trkpt>
      <trkpt lat="46.50071" lon="-1.43792">
        <ele>57.6</ele>
        <time>2021-09-21T09:30:28Z</time>
      </trkpt>
      <trkpt lat="46.50072" lon="-1.43794">
        <ele>57.6</ele>
        <time>2021-09-21T09:30:29Z</time>
      </trkpt>
      <trkpt lat="46.50073" lon="-1.43795">
        <ele>57.7</ele>
        <time>2021-09-21T09:30:30Z</time>
      </trkpt>
      <trkpt lat="46.50074" lon="-1.43797">
        <ele>57.7</ele>
        <time>2021-09-21T09:30:31Z</time>
      </trkpt>
      <trkpt lat="46.50075" lon="-1.43798">
        <ele>57.7</ele>
        <time>2021-09-21T09:30:32Z</time>
      </trkpt>
      <trkpt lat="46.50076" lon="-1.43799">
        <ele>57.7</ele>
        <time>2021-09-21T09:30:33Z</time>
      </trkpt>
      <trkpt lat="46.50077" lon="-1.438">
        <ele>57.7</ele>
        <time>2021-09-21T09:30:34Z</time>
      </trkpt>
      <trkpt lat="46.50077" lon="-1.43801">
        <ele>57.7</ele>
        <time>2021-09-21T09:30:35Z</time>
      </trkpt>
      <trkpt lat="46.50078" lon="-1.43802">
        <ele>57.7</ele>
        <time>2021-09-21T09:30:36Z</time>
      </trkpt>
      <trkpt lat="46.50079" lon="-1.43803">
        <ele>57.8</ele>
        <time>2021-09-21T09:30:37Z</time>
      </trkpt>
      <trkpt lat="46.5008" lon="-1.43804">
        <ele>57.8</ele>
        <time>2021-09-21T09:30:38Z</time>
      </trkpt>
      <trkpt lat="46.5008" lon="-1.43804">
        <ele>57.8</ele>
        <time>2021-09-21T09:30:39Z</time>
      </trkpt>
      <trkpt lat="46.5008" lon="-1.43804">
        <ele>57.8</ele>
        <time>2021-09-21T09:30:40Z</time>
      </trkpt>
      <trkpt lat="46.50081" lon="-1.43805">
        <ele>57.8</ele>
        <time>2021-09-21T09:30:41Z</time>
      </trkpt>
      <trkpt lat="46.50081" lon="-1.43805">
        <ele>57.8</ele>
        <time>2021-09-21T09:30:42Z</time>
      </trkpt>
      <trkpt lat="46.50082" lon="-1.43806">
        <ele>57.8</ele>
        <time>2021-09-21T09:30:43Z</time>
      </trkpt>
      <trkpt lat="46.50083" lon="-1.43807">
        <ele>57.8</ele>
        <time>2021-09-21T09:30:44Z</time>
      </trkpt>
      <trkpt lat="46.50084" lon="-1.43809">
        <ele>57.8</ele>
        <time>2021-09-21T09:30:45Z</time>
      </trkpt>
      <trkpt lat="46.50085" lon="-1.4381">
        <ele>57.8</ele>
        <time>2021-09-21T09:30:46Z</time>
      </trkpt>
      <trkpt lat="46.50086" lon="-1.43812">
        <ele>57.9</ele>
        <time>2021-09-21T09:30:47Z</time>
      </trkpt>
      <trkpt lat="46.50087" lon="-1.43813">
        <ele>57.9</ele>
        <time>2021-09-21T09:30:48Z</time>
      </trkpt>
      <trkpt lat="46.50088" lon="-1.43815">
        <ele>57.9</ele>
        <time>2021-09-21T09:30:49Z</time>
      </trkpt>
      <trkpt lat="46.5009" lon="-1.43817">
        <ele>57.9</ele>
        <time>2021-09-21T09:30:50Z</time>
      </trkpt>
      <trkpt lat="46.50091" lon="-1.43818">
        <ele>57.9</ele>
        <time>2021-09-21T09:30:51Z</time>
      </trkpt>
      <trkpt lat="46.50092" lon="-1.4382">
        <ele>58</ele>
        <time>2021-09-21T09:30:52Z</time>
      </trkpt>
      <trkpt lat="46.50094" lon="-1.43821">
        <ele>58</ele>
        <time>2021-09-21T09:30:53Z</time>
      </trkpt>
      <trkpt lat="46.50095" lon="-1.43823">
        <ele>58</ele>
        <time>2021-09-21T09:30:54Z</time>
      </trkpt>
      <trkpt lat="46.50096" lon="-1.43824">
        <ele>58</ele>
        <time>2021-09-21T09:30:55Z</time>
      </trkpt>
      <trkpt lat="46.50098" lon="-1.43825">
        <ele>58</ele>
        <time>2021-09-21T09:30:56Z</time>
      </trkpt>
      <trkpt lat="46.50099" lon="-1.43827">
        <ele>58</ele>
        <time>2021-09-21T09:30:57Z</time>
      </trkpt>
      <trkpt lat="46.501" lon="-1.43828">
        <ele>58.1</ele>
        <time>2021-09-21T09:30:58Z</time>
      </trkpt>
      <trkpt lat="46.50101" lon="-1.4383">
        <ele>58.1</ele>
        <time>2021-09-21T09:30:59Z</time>
      </trkpt>
      <trkpt lat="46.50102" lon="-1.43831">
        <ele>58.1</ele>
        <time>2021-09-21T09:31:00Z</time>
      </trkpt>
      <trkpt lat="46.50103" lon="-1.43832">
        <ele>58.1</ele>
        <time>2021-09-21T09:31:01Z</time>
      </trkpt>
      <trkpt lat="46.50104" lon="-1.43834">
        <ele>58.1</ele>
        <time>2021-09-21T09:31:02Z</time>
      </trkpt>
      <trkpt lat="46.50105" lon="-1.43835">
        <ele>58.1</ele>
        <time>2021-09-21T09:31:03Z</time>
      </trkpt>
      <trkpt lat="46.50106" lon="-1.43836">
        <ele>58.1</ele>
        <time>2021-09-21T09:31:04Z</time>
      </trkpt>
      <trkpt lat="46.50106" lon="-1.43838">
        <ele>58.2</ele>
        <time>2021-09-21T09:31:05Z</time>
      </trkpt>
      <trkpt lat="46.50107" lon="-1.43839">
        <ele>58.2</ele>
        <time>2021-09-21T09:31:06Z</time>
      </trkpt>
      <trkpt lat="46.50108" lon="-1.4384">
        <ele>58.2</ele>
        <time>2021-09-21T09:31:07Z</time>
      </trkpt>
      <trkpt lat="46.50109" lon="-1.43842">
        <ele>58.2</ele>
        <time>2021-09-21T09:31:08Z</time>
      </trkpt>
      <trkpt lat="46.5011" lon="-1.43843">
        <ele>58.2</ele>
        <time>2021-09-21T09:31:09Z</time>
      </trkpt>
      <trkpt lat="46.50111" lon="-1.43844">
        <ele>58.3</ele>
        <time>2021-09-21T09:31:10Z</time>
      </trkpt>
      <trkpt lat="46.50112" lon="-1.43846">
        <ele>58.3</ele>
        <time>2021-09-21T09:31:11Z</time>
      </trkpt>
      <trkpt lat="46.50113" lon="-1.43847">
        <ele>58.3</ele>
        <time>2021-09-21T09:31:12Z</time>
      </trkpt>
      <trkpt lat="46.50114" lon="-1.43848">
        <ele>58.3</ele>
        <time>2021-09-21T09:31:13Z</time>
      </trkpt>
      <trkpt lat="46.50115" lon="-1.4385">
        <ele>58.3</ele>
        <time>2021-09-21T09:31:14Z</time>
      </trkpt>
      <trkpt lat="46.50116" lon="-1.43851">
        <ele>58.4</ele>
        <time>2021-09-21T09:31:15Z</time>
      </trkpt>
      <trkpt lat="46.50117" lon="-1.43852">
        <ele>58.4</ele>
        <time>2021-09-21T09:31:16Z</time>
      </trkpt>
      <trkpt lat="46.50118" lon="-1.43854">
        <ele>58.4</ele>
        <time>2021-09-21T09:31:17Z</time>
      </trkpt>
      <trkpt lat="46.50119" lon="-1.43855">
        <ele>58.5</ele>
        <time>2021-09-21T09:31:18Z</time>
      </trkpt>
      <trkpt lat="46.5012" lon="-1.43856">
        <ele>58.5</ele>
        <time>2021-09-21T09:31:19Z</time>
      </trkpt>
      <trkpt lat="46.50121" lon="-1.43857">
        <ele>58.5</ele>
        <time>2021-09-21T09:31:20Z</time>
      </trkpt>
      <trkpt lat="46.50122" lon="-1.43859">
        <ele>58.6</ele>
        <time>2021-09-21T09:31:21Z</time>
      </trkpt>
      <trkpt lat="46.50124" lon="-1.4386">
        <ele>58.6</ele>
        <time>2021-09-21T09:31:22Z</time>
      </trkpt>
      <trkpt lat="46.50125" lon="-1.43861">
        <ele>58.6</ele>
        <time>2021-09-21T09:31:23Z</time>
      </trkpt>
      <trkpt lat="46.50126" lon="-1.43862">
        <ele>58.6</ele>
        <time>2021-09-21T09:31:24Z</time>
      </trkpt>
      <trkpt lat="46.50127" lon="-1.43863">
        <ele>58.7</ele>
        <time>2021-09-21T09:31:25Z</time>
      </trkpt>
      <trkpt lat="46.50128" lon="-1.43865">
        <ele>58.7</ele>
        <time>2021-09-21T09:31:26Z</time>
      </trkpt>
      <trkpt lat="46.50129" lon="-1.43866">
        <ele>58.7</ele>
        <time>2021-09-21T09:31:27Z</time>
      </trkpt>
      <trkpt lat="46.5013" lon="-1.43867">
        <ele>58.8</ele>
        <time>2021-09-21T09:31:28Z</time>
      </trkpt>
      <trkpt lat="46.50131" lon="-1.43868">
        <ele>58.8</ele>
        <time>2021-09-21T09:31:29Z</time>
      </trkpt>
      <trkpt lat="46.50132" lon="-1.43869">
        <ele>58.8</ele>
        <time>2021-09-21T09:31:30Z</time>
      </trkpt>
      <trkpt lat="46.50133" lon="-1.4387">
        <ele>58.9</ele>
        <time>2021-09-21T09:31:31Z</time>
      </trkpt>
      <trkpt lat="46.50133" lon="-1.43871">
        <ele>58.9</ele>
        <time>2021-09-21T09:31:32Z</time>
      </trkpt>
      <trkpt lat="46.50134" lon="-1.43872">
        <ele>58.9</ele>
        <time>2021-09-21T09:31:33Z</time>
      </trkpt>
      <trkpt lat="46.50135" lon="-1.43873">
        <ele>58.9</ele>
        <time>2021-09-21T09:31:34Z</time>
      </trkpt>
      <trkpt lat="46.50136" lon="-1.43874">
        <ele>59</ele>
        <time>2021-09-21T09:31:35Z</time>
      </trkpt>
      <trkpt lat="46.50137" lon="-1.43875">
        <ele>59</ele>
        <time>2021-09-21T09:31:36Z</time>
      </trkpt>
      <trkpt lat="46.50138" lon="-1.43876">
        <ele>59.1</ele>
        <time>2021-09-21T09:31:37Z</time>
      </trkpt>
      <trkpt lat="46.50139" lon="-1.43877">
        <ele>59.1</ele>
        <time>2021-09-21T09:31:38Z</time>
      </trkpt>
      <trkpt lat="46.5014" lon="-1.43878">
        <ele>59.1</ele>
        <time>2021-09-21T09:31:39Z</time>
      </trkpt>
      <trkpt lat="46.50141" lon="-1.43879">
        <ele>59.2</ele>
        <time>2021-09-21T09:31:40Z</time>
      </trkpt>
      <trkpt lat="46.50142" lon="-1.4388">
        <ele>59.2</ele>
        <time>2021-09-21T09:31:41Z</time>
      </trkpt>
      <trkpt lat="46.50142" lon="-1.43881">
        <ele>59.2</ele>
        <time>2021-09-21T09:31:42Z</time>
      </trkpt>
      <trkpt lat="46.50143" lon="-1.43882">
        <ele>59.3</ele>
        <time>2021-09-21T09:31:43Z</time>
      </trkpt>
      <trkpt lat="46.50144" lon="-1.43883">
        <ele>59.3</ele>
        <time>2021-09-21T09:31:44Z</time>
      </trkpt>
      <trkpt lat="46.50145" lon="-1.43884">
        <ele>59.3</ele>
        <time>2021-09-21T09:31:45Z</time>
      </trkpt>
      <trkpt lat="46.50146" lon="-1.43886">
        <ele>59.4</ele>
        <time>2021-09-21T09:31:46Z</time>
      </trkpt>
      <trkpt lat="46.50147" lon="-1.43887">
        <ele>59.4</ele>
        <time>2021-09-21T09:31:47Z</time>
      </trkpt>
      <trkpt lat="46.50148" lon="-1.43888">
        <ele>59.5</ele>
        <time>2021-09-21T09:31:48Z</time>
      </trkpt>
      <trkpt lat="46.50149" lon="-1.43889">
        <ele>59.5</ele>
        <time>2021-09-21T09:31:49Z</time>
      </trkpt>
      <trkpt lat="46.5015" lon="-1.43891">
        <ele>59.5</ele>
        <time>2021-09-21T09:31:50Z</time>
      </trkpt>
      <trkpt lat="46.50151" lon="-1.43892">
        <ele>59.6</ele>
        <time>2021-09-21T09:31:51Z</time>
      </trkpt>
      <trkpt lat="46.50152" lon="-1.43893">
        <ele>59.6</ele>
        <time>2021-09-21T09:31:52Z</time>
      </trkpt>
      <trkpt lat="46.50153" lon="-1.43895">
        <ele>59.7</ele>
        <time>2021-09-21T09:31:53Z</time>
      </trkpt>
      <trkpt lat="46.50153" lon="-1.43896">
        <ele>59.7</ele>
        <time>2021-09-21T09:31:54Z</time>
      </trkpt>
      <trkpt lat="46.50154" lon="-1.43897">
        <ele>59.7</ele>
        <time>2021-09-21T09:31:55Z</time>
      </trkpt>
      <trkpt lat="46.50155" lon="-1.43899">
        <ele>59.8</ele>
        <time>2021-09-21T09:31:56Z</time>
      </trkpt>
      <trkpt lat="46.50156" lon="-1.439">
        <ele>59.8</ele>
        <time>2021-09-21T09:31:57Z</time>
      </trkpt>
      <trkpt lat="46.50156" lon="-1.43901">
        <ele>59.8</ele>
        <time>2021-09-21T09:31:58Z</time>
      </trkpt>
      <trkpt lat="46.50157" lon="-1.43903">
        <ele>59.9</ele>
        <time>2021-09-21T09:31:59Z</time>
      </trkpt>
      <trkpt lat="46.50158" lon="-1.43904">
        <ele>59.9</ele>
        <time>2021-09-21T09:32:00Z</time>
      </trkpt>
      <trkpt lat="46.50158" lon="-1.43906">
        <ele>59.9</ele>
        <time>2021-09-21T09:32:01Z</time>
      </trkpt>
      <trkpt lat="46.50159" lon="-1.43907">
        <ele>60</ele>
        <time>2021-09-21T09:32:02Z</time>
      </trkpt>
      <trkpt lat="46.5016" lon="-1.43908">
        <ele>60</ele>
        <time>2021-09-21T09:32:03Z</time>
      </trkpt>
      <trkpt lat="46.5016" lon="-1.4391">
        <ele>60</ele>
        <time>2021-09-21T09:32:04Z</time>
      </trkpt>
      <trkpt lat="46.50161" lon="-1.43911">
        <ele>60</ele>
        <time>2021-09-21T09:32:05Z</time>
      </trkpt>
      <trkpt lat="46.50162" lon="-1.43912">
        <ele>60.1</ele>
        <time>2021-09-21T09:32:06Z</time>
      </trkpt>
      <trkpt lat="46.50163" lon="-1.43914">
        <ele>60.1</ele>
        <time>2021-09-21T09:32:07Z</time>
      </trkpt>
      <trkpt lat="46.50163" lon="-1.43915">
        <ele>60.1</ele>
        <time>2021-09-21T09:32:08Z</time>
      </trkpt>
      <trkpt lat="46.50164" lon="-1.43916">
        <ele>60.1</ele>
        <time>2021-09-21T09:32:09Z</time>
      </trkpt>
      <trkpt lat="46.50164" lon="-1.43917">
        <ele>60.2</ele>
        <time>2021-09-21T09:32:10Z</time>
      </trkpt>
      <trkpt lat="46.50165" lon="-1.43918">
        <ele>60.2</ele>
        <time>2021-09-21T09:32:11Z</time>
      </trkpt>
      <trkpt lat="46.50165" lon="-1.43918">
        <ele>60.2</ele>
        <time>2021-09-21T09:32:12Z</time>
      </trkpt>
      <trkpt lat="46.50165" lon="-1.43919">
        <ele>60.2</ele>
        <time>2021-09-21T09:32:13Z</time>
      </trkpt>
      <trkpt lat="46.50165" lon="-1.43919">
        <ele>60.2</ele>
        <time>2021-09-21T09:32:14Z</time>
      </trkpt>
      <trkpt lat="46.50166" lon="-1.4392">
        <ele>60.2</ele>
        <time>2021-09-21T09:32:15Z</time>
      </trkpt>
      <trkpt lat="46.50166" lon="-1.43922">
        <ele>60.2</ele>
        <time>2021-09-21T09:32:16Z</time>
      </trkpt>
      <trkpt lat="46.50167" lon="-1.43923">
        <ele>60.3</ele>
        <time>2021-09-21T09:32:17Z</time>
      </trkpt>
      <trkpt lat="46.50168" lon="-1.43925">
        <ele>60.3</ele>
        <time>2021-09-21T09:32:18Z</time>
      </trkpt>
      <trkpt lat="46.50169" lon="-1.43927">
        <ele>60.3</ele>
        <time>2021-09-21T09:32:19Z</time>
      </trkpt>
      <trkpt lat="46.5017" lon="-1.43929">
        <ele>60.4</ele>
        <time>2021-09-21T09:32:20Z</time>
      </trkpt>
      <trkpt lat="46.50171" lon="-1.43931">
        <ele>60.4</ele>
        <time>2021-09-21T09:32:21Z</time>
      </trkpt>
      <trkpt lat="46.50172" lon="-1.43933">
        <ele>60.4</ele>
        <time>2021-09-21T09:32:22Z</time>
      </trkpt>
      <trkpt lat="46.50173" lon="-1.43935">
        <ele>60.4</ele>
        <time>2021-09-21T09:32:23Z</time>
      </trkpt>
      <trkpt lat="46.50174" lon="-1.43937">
        <ele>60.4</ele>
        <time>2021-09-21T09:32:24Z</time>
      </trkpt>
      <trkpt lat="46.50175" lon="-1.43938">
        <ele>60.4</ele>
        <time>2021-09-21T09:32:25Z</time>
      </trkpt>
      <trkpt lat="46.50176" lon="-1.4394">
        <ele>60.5</ele>
        <time>2021-09-21T09:32:26Z</time>
      </trkpt>
      <trkpt lat="46.50177" lon="-1.43942">
        <ele>60.5</ele>
        <time>2021-09-21T09:32:27Z</time>
      </trkpt>
      <trkpt lat="46.50178" lon="-1.43944">
        <ele>60.5</ele>
        <time>2021-09-21T09:32:28Z</time>
      </trkpt>
      <trkpt lat="46.50178" lon="-1.43945">
        <ele>60.5</ele>
        <time>2021-09-21T09:32:29Z</time>
      </trkpt>
      <trkpt lat="46.50179" lon="-1.43947">
        <ele>60.5</ele>
        <time>2021-09-21T09:32:30Z</time>
      </trkpt>
      <trkpt lat="46.5018" lon="-1.43949">
        <ele>60.5</ele>
        <time>2021-09-21T09:32:31Z</time>
      </trkpt>
      <trkpt lat="46.50181" lon="-1.43951">
        <ele>60.5</ele>
        <time>2021-09-21T09:32:32Z</time>
      </trkpt>
      <trkpt lat="46.50181" lon="-1.43953">
        <ele>60.5</ele>
        <time>2021-09-21T09:32:33Z</time>
      </trkpt>
      <trkpt lat="46.50182" lon="-1.43955">
        <ele>60.5</ele>
        <time>2021-09-21T09:32:34Z</time>
      </trkpt>
      <trkpt lat="46.50183" lon="-1.43956">
        <ele>60.5</ele>
        <time>2021-09-21T09:32:35Z</time>
      </trkpt>
      <trkpt lat="46.50183" lon="-1.43958">
        <ele>60.4</ele>
        <time>2021-09-21T09:32:36Z</time>
      </trkpt>
      <trkpt lat="46.50184" lon="-1.4396">
        <ele>60.4</ele>
        <time>2021-09-21T09:32:37Z</time>
      </trkpt>
      <trkpt lat="46.50185" lon="-1.43962">
        <ele>60.4</ele>
        <time>2021-09-21T09:32:38Z</time>
      </trkpt>
      <trkpt lat="46.50185" lon="-1.43963">
        <ele>60.4</ele>
        <time>2021-09-21T09:32:39Z</time>
      </trkpt>
      <trkpt lat="46.50186" lon="-1.43965">
        <ele>60.4</ele>
        <time>2021-09-21T09:32:40Z</time>
      </trkpt>
      <trkpt lat="46.50186" lon="-1.43967">
        <ele>60.4</ele>
        <time>2021-09-21T09:32:41Z</time>
      </trkpt>
      <trkpt lat="46.50187" lon="-1.43968">
        <ele>60.4</ele>
        <time>2021-09-21T09:32:42Z</time>
      </trkpt>
      <trkpt lat="46.50187" lon="-1.4397">
        <ele>60.4</ele>
        <time>2021-09-21T09:32:43Z</time>
      </trkpt>
      <trkpt lat="46.50188" lon="-1.43971">
        <ele>60.4</ele>
        <time>2021-09-21T09:32:44Z</time>
      </trkpt>
      <trkpt lat="46.50189" lon="-1.43973">
        <ele>60.4</ele>
        <time>2021-09-21T09:32:45Z</time>
      </trkpt>
      <trkpt lat="46.50189" lon="-1.43974">
        <ele>60.4</ele>
        <time>2021-09-21T09:32:46Z</time>
      </trkpt>
      <trkpt lat="46.5019" lon="-1.43976">
        <ele>60.4</ele>
        <time>2021-09-21T09:32:47Z</time>
      </trkpt>
      <trkpt lat="46.5019" lon="-1.43977">
        <ele>60.4</ele>
        <time>2021-09-21T09:32:48Z</time>
      </trkpt>
      <trkpt lat="46.50191" lon="-1.43979">
        <ele>60.4</ele>
        <time>2021-09-21T09:32:49Z</time>
      </trkpt>
      <trkpt lat="46.50192" lon="-1.4398">
        <ele>60.4</ele>
        <time>2021-09-21T09:32:50Z</time>
      </trkpt>
      <trkpt lat="46.50192" lon="-1.43982">
        <ele>60.3</ele>
        <time>2021-09-21T09:32:51Z</time>
      </trkpt>
      <trkpt lat="46.50193" lon="-1.43983">
        <ele>60.3</ele>
        <time>2021-09-21T09:32:52Z</time>
      </trkpt>
      <trkpt lat="46.50193" lon="-1.43984">
        <ele>60.3</ele>
        <time>2021-09-21T09:32:53Z</time>
      </trkpt>
      <trkpt lat="46.50194" lon="-1.43986">
        <ele>60.3</ele>
        <time>2021-09-21T09:32:54Z</time>
      </trkpt>
      <trkpt lat="46.50195" lon="-1.43988">
        <ele>60.3</ele>
        <time>2021-09-21T09:32:55Z</time>
      </trkpt>
      <trkpt lat="46.50195" lon="-1.43989">
        <ele>60.3</ele>
        <time>2021-09-21T09:32:56Z</time>
      </trkpt>
      <trkpt lat="46.50196" lon="-1.43991">
        <ele>60.3</ele>
        <time>2021-09-21T09:32:57Z</time>
      </trkpt>
      <trkpt lat="46.50196" lon="-1.43992">
        <ele>60.3</ele>
        <time>2021-09-21T09:32:58Z</time>
      </trkpt>
      <trkpt lat="46.50197" lon="-1.43994">
        <ele>60.3</ele>
        <time>2021-09-21T09:32:59Z</time>
      </trkpt>
      <trkpt lat="46.50198" lon="-1.43996">
        <ele>60.3</ele>
        <time>2021-09-21T09:33:00Z</time>
      </trkpt>
      <trkpt lat="46.50198" lon="-1.43997">
        <ele>60.3</ele>
        <time>2021-09-21T09:33:01Z</time>
      </trkpt>
      <trkpt lat="46.50199" lon="-1.43999">
        <ele>60.3</ele>
        <time>2021-09-21T09:33:02Z</time>
      </trkpt>
      <trkpt lat="46.502" lon="-1.44001">
        <ele>60.3</ele>
        <time>2021-09-21T09:33:03Z</time>
      </trkpt>
      <trkpt lat="46.502" lon="-1.44003">
        <ele>60.3</ele>
        <time>2021-09-21T09:33:04Z</time>
      </trkpt>
      <trkpt lat="46.50201" lon="-1.44004">
        <ele>60.3</ele>
        <time>2021-09-21T09:33:05Z</time>
      </trkpt>
      <trkpt lat="46.50202" lon="-1.44006">
        <ele>60.3</ele>
        <time>2021-09-21T09:33:06Z</time>
      </trkpt>
      <trkpt lat="46.50202" lon="-1.44008">
        <ele>60.3</ele>
        <time>2021-09-21T09:33:07Z</time>
      </trkpt>
      <trkpt lat="46.50203" lon="-1.44009">
        <ele>60.3</ele>
        <time>2021-09-21T09:33:08Z</time>
      </trkpt>
      <trkpt lat="46.50204" lon="-1.44011">
        <ele>60.3</ele>
        <time>2021-09-21T09:33:09Z</time>
      </trkpt>
      <trkpt lat="46.50204" lon="-1.44013">
        <ele>60.3</ele>
        <time>2021-09-21T09:33:10Z</time>
      </trkpt>
      <trkpt lat="46.50205" lon="-1.44015">
        <ele>60.2</ele>
        <time>2021-09-21T09:33:11Z</time>
      </trkpt>
      <trkpt lat="46.50206" lon="-1.44016">
        <ele>60.2</ele>
        <time>2021-09-21T09:33:12Z</time>
      </trkpt>
      <trkpt lat="46.50206" lon="-1.44018">
        <ele>60.2</ele>
        <time>2021-09-21T09:33:13Z</time>
      </trkpt>
      <trkpt lat="46.50207" lon="-1.44019">
        <ele>60.2</ele>
        <time>2021-09-21T09:33:14Z</time>
      </trkpt>
      <trkpt lat="46.50208" lon="-1.44021">
        <ele>60.2</ele>
        <time>2021-09-21T09:33:15Z</time>
      </trkpt>
      <trkpt lat="46.50208" lon="-1.44023">
        <ele>60.2</ele>
        <time>2021-09-21T09:33:16Z</time>
      </trkpt>
      <trkpt lat="46.50209" lon="-1.44024">
        <ele>60.2</ele>
        <time>2021-09-21T09:33:17Z</time>
      </trkpt>
      <trkpt lat="46.5021" lon="-1.44026">
        <ele>60.2</ele>
        <time>2021-09-21T09:33:18Z</time>
      </trkpt>
      <trkpt lat="46.50211" lon="-1.44027">
        <ele>60.2</ele>
        <time>2021-09-21T09:33:19Z</time>
      </trkpt>
      <trkpt lat="46.50211" lon="-1.44029">
        <ele>60.1</ele>
        <time>2021-09-21T09:33:20Z</time>
      </trkpt>
      <trkpt lat="46.50212" lon="-1.4403">
        <ele>60.1</ele>
        <time>2021-09-21T09:33:21Z</time>
      </trkpt>
      <trkpt lat="46.50213" lon="-1.44032">
        <ele>60.1</ele>
        <time>2021-09-21T09:33:22Z</time>
      </trkpt>
      <trkpt lat="46.50214" lon="-1.44033">
        <ele>60.1</ele>
        <time>2021-09-21T09:33:23Z</time>
      </trkpt>
      <trkpt lat="46.50215" lon="-1.44035">
        <ele>60.1</ele>
        <time>2021-09-21T09:33:24Z</time>
      </trkpt>
      <trkpt lat="46.50216" lon="-1.44037">
        <ele>60</ele>
        <time>2021-09-21T09:33:25Z</time>
      </trkpt>
      <trkpt lat="46.50217" lon="-1.44039">
        <ele>60</ele>
        <time>2021-09-21T09:33:26Z</time>
      </trkpt>
      <trkpt lat="46.50217" lon="-1.4404">
        <ele>60</ele>
        <time>2021-09-21T09:33:27Z</time>
      </trkpt>
      <trkpt lat="46.50218" lon="-1.44042">
        <ele>60</ele>
        <time>2021-09-21T09:33:28Z</time>
      </trkpt>
      <trkpt lat="46.50219" lon="-1.44043">
        <ele>60</ele>
        <time>2021-09-21T09:33:29Z</time>
      </trkpt>
      <trkpt lat="46.50219" lon="-1.44045">
        <ele>59.9</ele>
        <time>2021-09-21T09:33:30Z</time>
      </trkpt>
      <trkpt lat="46.5022" lon="-1.44046">
        <ele>59.9</ele>
        <time>2021-09-21T09:33:31Z</time>
      </trkpt>
      <trkpt lat="46.5022" lon="-1.44047">
        <ele>59.9</ele>
        <time>2021-09-21T09:33:32Z</time>
      </trkpt>
      <trkpt lat="46.50221" lon="-1.44049">
        <ele>59.9</ele>
        <time>2021-09-21T09:33:33Z</time>
      </trkpt>
      <trkpt lat="46.50222" lon="-1.4405">
        <ele>59.9</ele>
        <time>2021-09-21T09:33:34Z</time>
      </trkpt>
      <trkpt lat="46.50222" lon="-1.44052">
        <ele>59.9</ele>
        <time>2021-09-21T09:33:35Z</time>
      </trkpt>
      <trkpt lat="46.50223" lon="-1.44053">
        <ele>59.8</ele>
        <time>2021-09-21T09:33:36Z</time>
      </trkpt>
      <trkpt lat="46.50223" lon="-1.44055">
        <ele>59.8</ele>
        <time>2021-09-21T09:33:37Z</time>
      </trkpt>
      <trkpt lat="46.50224" lon="-1.44056">
        <ele>59.8</ele>
        <time>2021-09-21T09:33:38Z</time>
      </trkpt>
      <trkpt lat="46.50225" lon="-1.44057">
        <ele>59.8</ele>
        <time>2021-09-21T09:33:39Z</time>
      </trkpt>
      <trkpt lat="46.50225" lon="-1.44059">
        <ele>59.8</ele>
        <time>2021-09-21T09:33:40Z</time>
      </trkpt>
      <trkpt lat="46.50226" lon="-1.4406">
        <ele>59.8</ele>
        <time>2021-09-21T09:33:41Z</time>
      </trkpt>
      <trkpt lat="46.50226" lon="-1.44062">
        <ele>59.7</ele>
        <time>2021-09-21T09:33:42Z</time>
      </trkpt>
      <trkpt lat="46.50227" lon="-1.44063">
        <ele>59.7</ele>
        <time>2021-09-21T09:33:43Z</time>
      </trkpt>
      <trkpt lat="46.50228" lon="-1.44065">
        <ele>59.7</ele>
        <time>2021-09-21T09:33:44Z</time>
      </trkpt>
      <trkpt lat="46.50228" lon="-1.44066">
        <ele>59.7</ele>
        <time>2021-09-21T09:33:45Z</time>
      </trkpt>
      <trkpt lat="46.50229" lon="-1.44067">
        <ele>59.7</ele>
        <time>2021-09-21T09:33:46Z</time>
      </trkpt>
      <trkpt lat="46.50229" lon="-1.44069">
        <ele>59.7</ele>
        <time>2021-09-21T09:33:47Z</time>
      </trkpt>
      <trkpt lat="46.5023" lon="-1.4407">
        <ele>59.6</ele>
        <time>2021-09-21T09:33:48Z</time>
      </trkpt>
      <trkpt lat="46.50231" lon="-1.44072">
        <ele>59.6</ele>
        <time>2021-09-21T09:33:49Z</time>
      </trkpt>
      <trkpt lat="46.50231" lon="-1.44073">
        <ele>59.6</ele>
        <time>2021-09-21T09:33:50Z</time>
      </trkpt>
      <trkpt lat="46.50232" lon="-1.44075">
        <ele>59.6</ele>
        <time>2021-09-21T09:33:51Z</time>
      </trkpt>
      <trkpt lat="46.50232" lon="-1.44076">
        <ele>59.6</ele>
        <time>2021-09-21T09:33:52Z</time>
      </trkpt>
      <trkpt lat="46.50233" lon="-1.44077">
        <ele>59.6</ele>
        <time>2021-09-21T09:33:53Z</time>
      </trkpt>
      <trkpt lat="46.50234" lon="-1.44079">
        <ele>59.5</ele>
        <time>2021-09-21T09:33:54Z</time>
      </trkpt>
      <trkpt lat="46.50234" lon="-1.4408">
        <ele>59.5</ele>
        <time>2021-09-21T09:33:55Z</time>
      </trkpt>
      <trkpt lat="46.50235" lon="-1.44082">
        <ele>59.5</ele>
        <time>2021-09-21T09:33:56Z</time>
      </trkpt>
      <trkpt lat="46.50235" lon="-1.44083">
        <ele>59.5</ele>
        <time>2021-09-21T09:33:57Z</time>
      </trkpt>
      <trkpt lat="46.50236" lon="-1.44084">
        <ele>59.5</ele>
        <time>2021-09-21T09:33:58Z</time>
      </trkpt>
      <trkpt lat="46.50237" lon="-1.44086">
        <ele>59.4</ele>
        <time>2021-09-21T09:33:59Z</time>
      </trkpt>
      <trkpt lat="46.50237" lon="-1.44087">
        <ele>59.4</ele>
        <time>2021-09-21T09:34:00Z</time>
      </trkpt>
      <trkpt lat="46.50238" lon="-1.44089">
        <ele>59.4</ele>
        <time>2021-09-21T09:34:01Z</time>
      </trkpt>
      <trkpt lat="46.50238" lon="-1.4409">
        <ele>59.4</ele>
        <time>2021-09-21T09:34:02Z</time>
      </trkpt>
      <trkpt lat="46.50239" lon="-1.44092">
        <ele>59.4</ele>
        <time>2021-09-21T09:34:03Z</time>
      </trkpt>
      <trkpt lat="46.5024" lon="-1.44093">
        <ele>59.4</ele>
        <time>2021-09-21T09:34:04Z</time>
      </trkpt>
      <trkpt lat="46.5024" lon="-1.44094">
        <ele>59.3</ele>
        <time>2021-09-21T09:34:05Z</time>
      </trkpt>
      <trkpt lat="46.50241" lon="-1.44096">
        <ele>59.3</ele>
        <time>2021-09-21T09:34:06Z</time>
      </trkpt>
      <trkpt lat="46.50241" lon="-1.44097">
        <ele>59.3</ele>
        <time>2021-09-21T09:34:07Z</time>
      </trkpt>
      <trkpt lat="46.50242" lon="-1.44099">
        <ele>59.3</ele>
        <time>2021-09-21T09:34:08Z</time>
      </trkpt>
      <trkpt lat="46.50243" lon="-1.441">
        <ele>59.3</ele>
        <time>2021-09-21T09:34:09Z</time>
      </trkpt>
      <trkpt lat="46.50243" lon="-1.44102">
        <ele>59.2</ele>
        <time>2021-09-21T09:34:10Z</time>
      </trkpt>
      <trkpt lat="46.50244" lon="-1.44103">
        <ele>59.2</ele>
        <time>2021-09-21T09:34:11Z</time>
      </trkpt>
      <trkpt lat="46.50245" lon="-1.44104">
        <ele>59.1</ele>
        <time>2021-09-21T09:34:12Z</time>
      </trkpt>
      <trkpt lat="46.50245" lon="-1.44106">
        <ele>59.1</ele>
        <time>2021-09-21T09:34:13Z</time>
      </trkpt>
      <trkpt lat="46.50246" lon="-1.44107">
        <ele>59.1</ele>
        <time>2021-09-21T09:34:14Z</time>
      </trkpt>
      <trkpt lat="46.50246" lon="-1.44109">
        <ele>59</ele>
        <time>2021-09-21T09:34:15Z</time>
      </trkpt>
      <trkpt lat="46.50247" lon="-1.4411">
        <ele>59</ele>
        <time>2021-09-21T09:34:16Z</time>
      </trkpt>
      <trkpt lat="46.50248" lon="-1.44112">
        <ele>59</ele>
        <time>2021-09-21T09:34:17Z</time>
      </trkpt>
      <trkpt lat="46.50248" lon="-1.44113">
        <ele>59</ele>
        <time>2021-09-21T09:34:18Z</time>
      </trkpt>
      <trkpt lat="46.50249" lon="-1.44114">
        <ele>58.9</ele>
        <time>2021-09-21T09:34:19Z</time>
      </trkpt>
      <trkpt lat="46.50249" lon="-1.44116">
        <ele>58.9</ele>
        <time>2021-09-21T09:34:20Z</time>
      </trkpt>
      <trkpt lat="46.5025" lon="-1.44117">
        <ele>58.9</ele>
        <time>2021-09-21T09:34:21Z</time>
      </trkpt>
      <trkpt lat="46.50251" lon="-1.44119">
        <ele>58.8</ele>
        <time>2021-09-21T09:34:22Z</time>
      </trkpt>
      <trkpt lat="46.50251" lon="-1.4412">
        <ele>58.8</ele>
        <time>2021-09-21T09:34:23Z</time>
      </trkpt>
      <trkpt lat="46.50252" lon="-1.44122">
        <ele>58.8</ele>
        <time>2021-09-21T09:34:24Z</time>
      </trkpt>
      <trkpt lat="46.50252" lon="-1.44123">
        <ele>58.7</ele>
        <time>2021-09-21T09:34:25Z</time>
      </trkpt>
      <trkpt lat="46.50252" lon="-1.44125">
        <ele>58.7</ele>
        <time>2021-09-21T09:34:26Z</time>
      </trkpt>
      <trkpt lat="46.50252" lon="-1.44127">
        <ele>58.6</ele>
        <time>2021-09-21T09:34:27Z</time>
      </trkpt>
      <trkpt lat="46.50251" lon="-1.44129">
        <ele>58.6</ele>
        <time>2021-09-21T09:34:28Z</time>
      </trkpt>
      <trkpt lat="46.50251" lon="-1.4413">
        <ele>58.5</ele>
        <time>2021-09-21T09:34:29Z</time>
      </trkpt>
      <trkpt lat="46.50251" lon="-1.44131">
        <ele>58.5</ele>
        <time>2021-09-21T09:34:30Z</time>
      </trkpt>
      <trkpt lat="46.50251" lon="-1.44132">
        <ele>58.5</ele>
        <time>2021-09-21T09:34:31Z</time>
      </trkpt>
      <trkpt lat="46.5025" lon="-1.44133">
        <ele>58.5</ele>
        <time>2021-09-21T09:34:32Z</time>
      </trkpt>
      <trkpt lat="46.5025" lon="-1.44134">
        <ele>58.5</ele>
        <time>2021-09-21T09:34:33Z</time>
      </trkpt>
      <trkpt lat="46.5025" lon="-1.44135">
        <ele>58.5</ele>
        <time>2021-09-21T09:34:34Z</time>
      </trkpt>
      <trkpt lat="46.50249" lon="-1.44136">
        <ele>58.5</ele>
        <time>2021-09-21T09:34:35Z</time>
      </trkpt>
      <trkpt lat="46.50249" lon="-1.44137">
        <ele>58.5</ele>
        <time>2021-09-21T09:34:36Z</time>
      </trkpt>
      <trkpt lat="46.50249" lon="-1.44138">
        <ele>58.5</ele>
        <time>2021-09-21T09:34:37Z</time>
      </trkpt>
      <trkpt lat="46.50249" lon="-1.44139">
        <ele>58.5</ele>
        <time>2021-09-21T09:34:38Z</time>
      </trkpt>
      <trkpt lat="46.50248" lon="-1.44142">
        <ele>58.4</ele>
        <time>2021-09-21T09:34:39Z</time>
      </trkpt>
      <trkpt lat="46.50248" lon="-1.44144">
        <ele>58.4</ele>
        <time>2021-09-21T09:34:40Z</time>
      </trkpt>
      <trkpt lat="46.50247" lon="-1.44146">
        <ele>58.4</ele>
        <time>2021-09-21T09:34:41Z</time>
      </trkpt>
      <trkpt lat="46.50247" lon="-1.44147">
        <ele>58.4</ele>
        <time>2021-09-21T09:34:42Z</time>
      </trkpt>
      <trkpt lat="46.50246" lon="-1.44149">
        <ele>58.4</ele>
        <time>2021-09-21T09:34:43Z</time>
      </trkpt>
      <trkpt lat="46.50246" lon="-1.44151">
        <ele>58.4</ele>
        <time>2021-09-21T09:34:44Z</time>
      </trkpt>
      <trkpt lat="46.50246" lon="-1.44152">
        <ele>58.3</ele>
        <time>2021-09-21T09:34:45Z</time>
      </trkpt>
      <trkpt lat="46.50245" lon="-1.44154">
        <ele>58.3</ele>
        <time>2021-09-21T09:34:46Z</time>
      </trkpt>
      <trkpt lat="46.50245" lon="-1.44155">
        <ele>58.3</ele>
        <time>2021-09-21T09:34:47Z</time>
      </trkpt>
      <trkpt lat="46.50245" lon="-1.44157">
        <ele>58.3</ele>
        <time>2021-09-21T09:34:48Z</time>
      </trkpt>
      <trkpt lat="46.50244" lon="-1.44158">
        <ele>58.3</ele>
        <time>2021-09-21T09:34:49Z</time>
      </trkpt>
      <trkpt lat="46.50244" lon="-1.4416">
        <ele>58.3</ele>
        <time>2021-09-21T09:34:50Z</time>
      </trkpt>
      <trkpt lat="46.50244" lon="-1.44161">
        <ele>58.3</ele>
        <time>2021-09-21T09:34:51Z</time>
      </trkpt>
      <trkpt lat="46.50243" lon="-1.44163">
        <ele>58.3</ele>
        <time>2021-09-21T09:34:52Z</time>
      </trkpt>
      <trkpt lat="46.50243" lon="-1.44165">
        <ele>58.3</ele>
        <time>2021-09-21T09:34:53Z</time>
      </trkpt>
      <trkpt lat="46.50243" lon="-1.44166">
        <ele>58.3</ele>
        <time>2021-09-21T09:34:54Z</time>
      </trkpt>
      <trkpt lat="46.50243" lon="-1.44168">
        <ele>58.3</ele>
        <time>2021-09-21T09:34:55Z</time>
      </trkpt>
      <trkpt lat="46.50244" lon="-1.44169">
        <ele>58.3</ele>
        <time>2021-09-21T09:34:56Z</time>
      </trkpt>
      <trkpt lat="46.50244" lon="-1.44171">
        <ele>58.3</ele>
        <time>2021-09-21T09:34:57Z</time>
      </trkpt>
      <trkpt lat="46.50245" lon="-1.44172">
        <ele>58.3</ele>
        <time>2021-09-21T09:34:58Z</time>
      </trkpt>
      <trkpt lat="46.50245" lon="-1.44174">
        <ele>58.3</ele>
        <time>2021-09-21T09:34:59Z</time>
      </trkpt>
      <trkpt lat="46.50246" lon="-1.44175">
        <ele>58.3</ele>
        <time>2021-09-21T09:35:00Z</time>
      </trkpt>
      <trkpt lat="46.50247" lon="-1.44177">
        <ele>58.3</ele>
        <time>2021-09-21T09:35:01Z</time>
      </trkpt>
      <trkpt lat="46.50248" lon="-1.44178">
        <ele>58.3</ele>
        <time>2021-09-21T09:35:02Z</time>
      </trkpt>
      <trkpt lat="46.50249" lon="-1.44179">
        <ele>58.3</ele>
        <time>2021-09-21T09:35:03Z</time>
      </trkpt>
      <trkpt lat="46.5025" lon="-1.44179">
        <ele>58.3</ele>
        <time>2021-09-21T09:35:04Z</time>
      </trkpt>
      <trkpt lat="46.50251" lon="-1.4418">
        <ele>58.3</ele>
        <time>2021-09-21T09:35:05Z</time>
      </trkpt>
      <trkpt lat="46.50252" lon="-1.4418">
        <ele>58.3</ele>
        <time>2021-09-21T09:35:06Z</time>
      </trkpt>
      <trkpt lat="46.50253" lon="-1.44181">
        <ele>58.3</ele>
        <time>2021-09-21T09:35:07Z</time>
      </trkpt>
      <trkpt lat="46.50255" lon="-1.44181">
        <ele>58.3</ele>
        <time>2021-09-21T09:35:08Z</time>
      </trkpt>
      <trkpt lat="46.50256" lon="-1.44181">
        <ele>58.3</ele>
        <time>2021-09-21T09:35:09Z</time>
      </trkpt>
      <trkpt lat="46.50257" lon="-1.44182">
        <ele>58.3</ele>
        <time>2021-09-21T09:35:10Z</time>
      </trkpt>
      <trkpt lat="46.50258" lon="-1.44182">
        <ele>58.3</ele>
        <time>2021-09-21T09:35:11Z</time>
      </trkpt>
      <trkpt lat="46.50258" lon="-1.44183">
        <ele>58.3</ele>
        <time>2021-09-21T09:35:12Z</time>
      </trkpt>
      <trkpt lat="46.50259" lon="-1.44183">
        <ele>58.4</ele>
        <time>2021-09-21T09:35:13Z</time>
      </trkpt>
      <trkpt lat="46.5026" lon="-1.44184">
        <ele>58.4</ele>
        <time>2021-09-21T09:35:14Z</time>
      </trkpt>
      <trkpt lat="46.50261" lon="-1.44185">
        <ele>58.4</ele>
        <time>2021-09-21T09:35:15Z</time>
      </trkpt>
      <trkpt lat="46.50261" lon="-1.44185">
        <ele>58.4</ele>
        <time>2021-09-21T09:35:16Z</time>
      </trkpt>
      <trkpt lat="46.50262" lon="-1.44186">
        <ele>58.4</ele>
        <time>2021-09-21T09:35:17Z</time>
      </trkpt>
      <trkpt lat="46.50263" lon="-1.44187">
        <ele>58.4</ele>
        <time>2021-09-21T09:35:18Z</time>
      </trkpt>
      <trkpt lat="46.50263" lon="-1.44187">
        <ele>58.4</ele>
        <time>2021-09-21T09:35:19Z</time>
      </trkpt>
      <trkpt lat="46.50264" lon="-1.44188">
        <ele>58.4</ele>
        <time>2021-09-21T09:35:20Z</time>
      </trkpt>
      <trkpt lat="46.50265" lon="-1.44189">
        <ele>58.5</ele>
        <time>2021-09-21T09:35:21Z</time>
      </trkpt>
      <trkpt lat="46.50265" lon="-1.44189">
        <ele>58.5</ele>
        <time>2021-09-21T09:35:22Z</time>
      </trkpt>
      <trkpt lat="46.50266" lon="-1.4419">
        <ele>58.5</ele>
        <time>2021-09-21T09:35:23Z</time>
      </trkpt>
      <trkpt lat="46.50267" lon="-1.44191">
        <ele>58.5</ele>
        <time>2021-09-21T09:35:24Z</time>
      </trkpt>
      <trkpt lat="46.50268" lon="-1.44192">
        <ele>58.5</ele>
        <time>2021-09-21T09:35:25Z</time>
      </trkpt>
      <trkpt lat="46.50268" lon="-1.44192">
        <ele>58.5</ele>
        <time>2021-09-21T09:35:26Z</time>
      </trkpt>
      <trkpt lat="46.50269" lon="-1.44194">
        <ele>58.5</ele>
        <time>2021-09-21T09:35:27Z</time>
      </trkpt>
      <trkpt lat="46.50269" lon="-1.44195">
        <ele>58.5</ele>
        <time>2021-09-21T09:35:28Z</time>
      </trkpt>
      <trkpt lat="46.5027" lon="-1.44196">
        <ele>58.6</ele>
        <time>2021-09-21T09:35:29Z</time>
      </trkpt>
      <trkpt lat="46.5027" lon="-1.44197">
        <ele>58.6</ele>
        <time>2021-09-21T09:35:30Z</time>
      </trkpt>
      <trkpt lat="46.50271" lon="-1.44199">
        <ele>58.6</ele>
        <time>2021-09-21T09:35:31Z</time>
      </trkpt>
      <trkpt lat="46.50271" lon="-1.442">
        <ele>58.6</ele>
        <time>2021-09-21T09:35:32Z</time>
      </trkpt>
      <trkpt lat="46.50271" lon="-1.44201">
        <ele>58.6</ele>
        <time>2021-09-21T09:35:33Z</time>
      </trkpt>
      <trkpt lat="46.50271" lon="-1.44203">
        <ele>58.6</ele>
        <time>2021-09-21T09:35:34Z</time>
      </trkpt>
      <trkpt lat="46.50271" lon="-1.44204">
        <ele>58.6</ele>
        <time>2021-09-21T09:35:35Z</time>
      </trkpt>
      <trkpt lat="46.50271" lon="-1.44206">
        <ele>58.6</ele>
        <time>2021-09-21T09:35:36Z</time>
      </trkpt>
      <trkpt lat="46.50271" lon="-1.44207">
        <ele>58.6</ele>
        <time>2021-09-21T09:35:37Z</time>
      </trkpt>
      <trkpt lat="46.50272" lon="-1.44209">
        <ele>58.7</ele>
        <time>2021-09-21T09:35:38Z</time>
      </trkpt>
      <trkpt lat="46.50272" lon="-1.4421">
        <ele>58.7</ele>
        <time>2021-09-21T09:35:39Z</time>
      </trkpt>
      <trkpt lat="46.50273" lon="-1.4421">
        <ele>58.7</ele>
        <time>2021-09-21T09:35:40Z</time>
      </trkpt>
      <trkpt lat="46.50274" lon="-1.44211">
        <ele>58.7</ele>
        <time>2021-09-21T09:35:41Z</time>
      </trkpt>
      <trkpt lat="46.50274" lon="-1.44211">
        <ele>58.7</ele>
        <time>2021-09-21T09:35:42Z</time>
      </trkpt>
      <trkpt lat="46.50275" lon="-1.44212">
        <ele>58.7</ele>
        <time>2021-09-21T09:35:43Z</time>
      </trkpt>
      <trkpt lat="46.50276" lon="-1.44213">
        <ele>58.7</ele>
        <time>2021-09-21T09:35:44Z</time>
      </trkpt>
      <trkpt lat="46.50276" lon="-1.44213">
        <ele>58.7</ele>
        <time>2021-09-21T09:35:45Z</time>
      </trkpt>
      <trkpt lat="46.50277" lon="-1.44214">
        <ele>58.7</ele>
        <time>2021-09-21T09:35:46Z</time>
      </trkpt>
      <trkpt lat="46.50278" lon="-1.44214">
        <ele>58.7</ele>
        <time>2021-09-21T09:35:47Z</time>
      </trkpt>
      <trkpt lat="46.50278" lon="-1.44215">
        <ele>58.7</ele>
        <time>2021-09-21T09:35:48Z</time>
      </trkpt>
      <trkpt lat="46.50279" lon="-1.44215">
        <ele>58.7</ele>
        <time>2021-09-21T09:35:49Z</time>
      </trkpt>
      <trkpt lat="46.5028" lon="-1.44216">
        <ele>58.8</ele>
        <time>2021-09-21T09:35:50Z</time>
      </trkpt>
      <trkpt lat="46.5028" lon="-1.44217">
        <ele>58.8</ele>
        <time>2021-09-21T09:35:51Z</time>
      </trkpt>
      <trkpt lat="46.50281" lon="-1.44217">
        <ele>58.9</ele>
        <time>2021-09-21T09:35:52Z</time>
      </trkpt>
      <trkpt lat="46.50282" lon="-1.44218">
        <ele>58.9</ele>
        <time>2021-09-21T09:35:53Z</time>
      </trkpt>
      <trkpt lat="46.50282" lon="-1.44218">
        <ele>58.9</ele>
        <time>2021-09-21T09:35:54Z</time>
      </trkpt>
      <trkpt lat="46.50283" lon="-1.44219">
        <ele>58.9</ele>
        <time>2021-09-21T09:35:55Z</time>
      </trkpt>
      <trkpt lat="46.50284" lon="-1.44219">
        <ele>58.9</ele>
        <time>2021-09-21T09:35:56Z</time>
      </trkpt>
      <trkpt lat="46.50284" lon="-1.4422">
        <ele>59</ele>
        <time>2021-09-21T09:35:57Z</time>
      </trkpt>
      <trkpt lat="46.50285" lon="-1.44221">
        <ele>59</ele>
        <time>2021-09-21T09:35:58Z</time>
      </trkpt>
      <trkpt lat="46.50286" lon="-1.44221">
        <ele>59</ele>
        <time>2021-09-21T09:35:59Z</time>
      </trkpt>
      <trkpt lat="46.50287" lon="-1.44221">
        <ele>59</ele>
        <time>2021-09-21T09:36:00Z</time>
      </trkpt>
      <trkpt lat="46.50288" lon="-1.4422">
        <ele>59</ele>
        <time>2021-09-21T09:36:01Z</time>
      </trkpt>
      <trkpt lat="46.50289" lon="-1.4422">
        <ele>59.1</ele>
        <time>2021-09-21T09:36:02Z</time>
      </trkpt>
      <trkpt lat="46.5029" lon="-1.44219">
        <ele>59.1</ele>
        <time>2021-09-21T09:36:03Z</time>
      </trkpt>
      <trkpt lat="46.50291" lon="-1.44218">
        <ele>59.1</ele>
        <time>2021-09-21T09:36:04Z</time>
      </trkpt>
      <trkpt lat="46.50292" lon="-1.44217">
        <ele>59.1</ele>
        <time>2021-09-21T09:36:05Z</time>
      </trkpt>
      <trkpt lat="46.50293" lon="-1.44217">
        <ele>59.2</ele>
        <time>2021-09-21T09:36:06Z</time>
      </trkpt>
      <trkpt lat="46.50294" lon="-1.44216">
        <ele>59.2</ele>
        <time>2021-09-21T09:36:07Z</time>
      </trkpt>
      <trkpt lat="46.50295" lon="-1.44215">
        <ele>59.2</ele>
        <time>2021-09-21T09:36:08Z</time>
      </trkpt>
      <trkpt lat="46.50296" lon="-1.44215">
        <ele>59.3</ele>
        <time>2021-09-21T09:36:09Z</time>
      </trkpt>
      <trkpt lat="46.50298" lon="-1.44214">
        <ele>59.3</ele>
        <time>2021-09-21T09:36:10Z</time>
      </trkpt>
      <trkpt lat="46.50299" lon="-1.44214">
        <ele>59.3</ele>
        <time>2021-09-21T09:36:11Z</time>
      </trkpt>
      <trkpt lat="46.503" lon="-1.44214">
        <ele>59.3</ele>
        <time>2021-09-21T09:36:12Z</time>
      </trkpt>
      <trkpt lat="46.50301" lon="-1.44214">
        <ele>59.3</ele>
        <time>2021-09-21T09:36:13Z</time>
      </trkpt>
      <trkpt lat="46.50302" lon="-1.44215">
        <ele>59.3</ele>
        <time>2021-09-21T09:36:14Z</time>
      </trkpt>
      <trkpt lat="46.50303" lon="-1.44215">
        <ele>59.3</ele>
        <time>2021-09-21T09:36:15Z</time>
      </trkpt>
      <trkpt lat="46.50304" lon="-1.44216">
        <ele>59.3</ele>
        <time>2021-09-21T09:36:16Z</time>
      </trkpt>
      <trkpt lat="46.50305" lon="-1.44217">
        <ele>59.3</ele>
        <time>2021-09-21T09:36:17Z</time>
      </trkpt>
      <trkpt lat="46.50306" lon="-1.44218">
        <ele>59.3</ele>
        <time>2021-09-21T09:36:18Z</time>
      </trkpt>
      <trkpt lat="46.50307" lon="-1.44219">
        <ele>59.4</ele>
        <time>2021-09-21T09:36:19Z</time>
      </trkpt>
      <trkpt lat="46.50308" lon="-1.4422">
        <ele>59.4</ele>
        <time>2021-09-21T09:36:20Z</time>
      </trkpt>
      <trkpt lat="46.50309" lon="-1.44221">
        <ele>59.4</ele>
        <time>2021-09-21T09:36:21Z</time>
      </trkpt>
      <trkpt lat="46.5031" lon="-1.44222">
        <ele>59.4</ele>
        <time>2021-09-21T09:36:22Z</time>
      </trkpt>
      <trkpt lat="46.5031" lon="-1.44224">
        <ele>59.4</ele>
        <time>2021-09-21T09:36:23Z</time>
      </trkpt>
      <trkpt lat="46.50311" lon="-1.44225">
        <ele>59.4</ele>
        <time>2021-09-21T09:36:24Z</time>
      </trkpt>
      <trkpt lat="46.50312" lon="-1.44227">
        <ele>59.4</ele>
        <time>2021-09-21T09:36:25Z</time>
      </trkpt>
      <trkpt lat="46.50312" lon="-1.44228">
        <ele>59.4</ele>
        <time>2021-09-21T09:36:26Z</time>
      </trkpt>
      <trkpt lat="46.50313" lon="-1.4423">
        <ele>59.4</ele>
        <time>2021-09-21T09:36:27Z</time>
      </trkpt>
      <trkpt lat="46.50314" lon="-1.44231">
        <ele>59.4</ele>
        <time>2021-09-21T09:36:28Z</time>
      </trkpt>
      <trkpt lat="46.50314" lon="-1.44232">
        <ele>59.4</ele>
        <time>2021-09-21T09:36:29Z</time>
      </trkpt>
      <trkpt lat="46.50315" lon="-1.44234">
        <ele>59.4</ele>
        <time>2021-09-21T09:36:30Z</time>
      </trkpt>
      <trkpt lat="46.50315" lon="-1.44235">
        <ele>59.4</ele>
        <time>2021-09-21T09:36:31Z</time>
      </trkpt>
      <trkpt lat="46.50316" lon="-1.44237">
        <ele>59.4</ele>
        <time>2021-09-21T09:36:32Z</time>
      </trkpt>
      <trkpt lat="46.50316" lon="-1.44238">
        <ele>59.4</ele>
        <time>2021-09-21T09:36:33Z</time>
      </trkpt>
      <trkpt lat="46.50317" lon="-1.44239">
        <ele>59.4</ele>
        <time>2021-09-21T09:36:34Z</time>
      </trkpt>
      <trkpt lat="46.50317" lon="-1.4424">
        <ele>59.4</ele>
        <time>2021-09-21T09:36:35Z</time>
      </trkpt>
      <trkpt lat="46.50318" lon="-1.44241">
        <ele>59.4</ele>
        <time>2021-09-21T09:36:36Z</time>
      </trkpt>
      <trkpt lat="46.50318" lon="-1.44242">
        <ele>59.4</ele>
        <time>2021-09-21T09:36:37Z</time>
      </trkpt>
      <trkpt lat="46.50319" lon="-1.44243">
        <ele>59.4</ele>
        <time>2021-09-21T09:36:38Z</time>
      </trkpt>
      <trkpt lat="46.50319" lon="-1.44244">
        <ele>59.4</ele>
        <time>2021-09-21T09:36:39Z</time>
      </trkpt>
      <trkpt lat="46.5032" lon="-1.44245">
        <ele>59.4</ele>
        <time>2021-09-21T09:36:40Z</time>
      </trkpt>
      <trkpt lat="46.5032" lon="-1.44247">
        <ele>59.4</ele>
        <time>2021-09-21T09:36:41Z</time>
      </trkpt>
      <trkpt lat="46.50321" lon="-1.44248">
        <ele>59.4</ele>
        <time>2021-09-21T09:36:42Z</time>
      </trkpt>
      <trkpt lat="46.50321" lon="-1.44249">
        <ele>59.4</ele>
        <time>2021-09-21T09:36:43Z</time>
      </trkpt>
      <trkpt lat="46.50322" lon="-1.44251">
        <ele>59.4</ele>
        <time>2021-09-21T09:36:44Z</time>
      </trkpt>
      <trkpt lat="46.50323" lon="-1.44252">
        <ele>59.4</ele>
        <time>2021-09-21T09:36:45Z</time>
      </trkpt>
      <trkpt lat="46.50323" lon="-1.44253">
        <ele>59.5</ele>
        <time>2021-09-21T09:36:46Z</time>
      </trkpt>
      <trkpt lat="46.50324" lon="-1.44255">
        <ele>59.5</ele>
        <time>2021-09-21T09:36:47Z</time>
      </trkpt>
      <trkpt lat="46.50325" lon="-1.44256">
        <ele>59.5</ele>
        <time>2021-09-21T09:36:48Z</time>
      </trkpt>
      <trkpt lat="46.50326" lon="-1.44258">
        <ele>59.5</ele>
        <time>2021-09-21T09:36:49Z</time>
      </trkpt>
      <trkpt lat="46.50326" lon="-1.4426">
        <ele>59.5</ele>
        <time>2021-09-21T09:36:50Z</time>
      </trkpt>
      <trkpt lat="46.50327" lon="-1.44261">
        <ele>59.5</ele>
        <time>2021-09-21T09:36:51Z</time>
      </trkpt>
      <trkpt lat="46.50328" lon="-1.44263">
        <ele>59.5</ele>
        <time>2021-09-21T09:36:52Z</time>
      </trkpt>
      <trkpt lat="46.50329" lon="-1.44264">
        <ele>59.6</ele>
        <time>2021-09-21T09:36:53Z</time>
      </trkpt>
      <trkpt lat="46.5033" lon="-1.44266">
        <ele>59.6</ele>
        <time>2021-09-21T09:36:54Z</time>
      </trkpt>
      <trkpt lat="46.5033" lon="-1.44267">
        <ele>59.6</ele>
        <time>2021-09-21T09:36:55Z</time>
      </trkpt>
      <trkpt lat="46.50331" lon="-1.44269">
        <ele>59.6</ele>
        <time>2021-09-21T09:36:56Z</time>
      </trkpt>
      <trkpt lat="46.50332" lon="-1.4427">
        <ele>59.6</ele>
        <time>2021-09-21T09:36:57Z</time>
      </trkpt>
      <trkpt lat="46.50333" lon="-1.44272">
        <ele>59.6</ele>
        <time>2021-09-21T09:36:58Z</time>
      </trkpt>
      <trkpt lat="46.50334" lon="-1.44273">
        <ele>59.6</ele>
        <time>2021-09-21T09:36:59Z</time>
      </trkpt>
      <trkpt lat="46.50335" lon="-1.44274">
        <ele>59.7</ele>
        <time>2021-09-21T09:37:00Z</time>
      </trkpt>
      <trkpt lat="46.50336" lon="-1.44276">
        <ele>59.7</ele>
        <time>2021-09-21T09:37:01Z</time>
      </trkpt>
      <trkpt lat="46.50337" lon="-1.44277">
        <ele>59.7</ele>
        <time>2021-09-21T09:37:02Z</time>
      </trkpt>
      <trkpt lat="46.50338" lon="-1.44278">
        <ele>59.7</ele>
        <time>2021-09-21T09:37:03Z</time>
      </trkpt>
      <trkpt lat="46.50339" lon="-1.44279">
        <ele>59.7</ele>
        <time>2021-09-21T09:37:04Z</time>
      </trkpt>
      <trkpt lat="46.5034" lon="-1.44281">
        <ele>59.8</ele>
        <time>2021-09-21T09:37:05Z</time>
      </trkpt>
      <trkpt lat="46.50341" lon="-1.44282">
        <ele>59.8</ele>
        <time>2021-09-21T09:37:06Z</time>
      </trkpt>
      <trkpt lat="46.50342" lon="-1.44283">
        <ele>59.8</ele>
        <time>2021-09-21T09:37:07Z</time>
      </trkpt>
      <trkpt lat="46.50343" lon="-1.44284">
        <ele>59.8</ele>
        <time>2021-09-21T09:37:08Z</time>
      </trkpt>
      <trkpt lat="46.50344" lon="-1.44286">
        <ele>59.8</ele>
        <time>2021-09-21T09:37:09Z</time>
      </trkpt>
      <trkpt lat="46.50345" lon="-1.44287">
        <ele>59.8</ele>
        <time>2021-09-21T09:37:10Z</time>
      </trkpt>
      <trkpt lat="46.50346" lon="-1.44288">
        <ele>59.9</ele>
        <time>2021-09-21T09:37:11Z</time>
      </trkpt>
      <trkpt lat="46.50347" lon="-1.44289">
        <ele>59.9</ele>
        <time>2021-09-21T09:37:12Z</time>
      </trkpt>
      <trkpt lat="46.50348" lon="-1.4429">
        <ele>59.9</ele>
        <time>2021-09-21T09:37:13Z</time>
      </trkpt>
      <trkpt lat="46.50349" lon="-1.44292">
        <ele>59.9</ele>
        <time>2021-09-21T09:37:14Z</time>
      </trkpt>
      <trkpt lat="46.5035" lon="-1.44293">
        <ele>59.9</ele>
        <time>2021-09-21T09:37:15Z</time>
      </trkpt>
      <trkpt lat="46.50351" lon="-1.44294">
        <ele>60</ele>
        <time>2021-09-21T09:37:16Z</time>
      </trkpt>
      <trkpt lat="46.50352" lon="-1.44295">
        <ele>60</ele>
        <time>2021-09-21T09:37:17Z</time>
      </trkpt>
      <trkpt lat="46.50353" lon="-1.44296">
        <ele>60</ele>
        <time>2021-09-21T09:37:18Z</time>
      </trkpt>
      <trkpt lat="46.50353" lon="-1.44297">
        <ele>60</ele>
        <time>2021-09-21T09:37:19Z</time>
      </trkpt>
      <trkpt lat="46.50354" lon="-1.44298">
        <ele>60</ele>
        <time>2021-09-21T09:37:20Z</time>
      </trkpt>
      <trkpt lat="46.50355" lon="-1.44299">
        <ele>60</ele>
        <time>2021-09-21T09:37:21Z</time>
      </trkpt>
      <trkpt lat="46.50357" lon="-1.443">
        <ele>60.1</ele>
        <time>2021-09-21T09:37:22Z</time>
      </trkpt>
      <trkpt lat="46.50358" lon="-1.44301">
        <ele>60.1</ele>
        <time>2021-09-21T09:37:23Z</time>
      </trkpt>
      <trkpt lat="46.50359" lon="-1.44301">
        <ele>60.1</ele>
        <time>2021-09-21T09:37:24Z</time>
      </trkpt>
      <trkpt lat="46.5036" lon="-1.44302">
        <ele>60.1</ele>
        <time>2021-09-21T09:37:25Z</time>
      </trkpt>
      <trkpt lat="46.50361" lon="-1.44303">
        <ele>60.1</ele>
        <time>2021-09-21T09:37:26Z</time>
      </trkpt>
      <trkpt lat="46.50362" lon="-1.44303">
        <ele>60.2</ele>
        <time>2021-09-21T09:37:27Z</time>
      </trkpt>
      <trkpt lat="46.50363" lon="-1.44304">
        <ele>60.2</ele>
        <time>2021-09-21T09:37:28Z</time>
      </trkpt>
      <trkpt lat="46.50364" lon="-1.44304">
        <ele>60.2</ele>
        <time>2021-09-21T09:37:29Z</time>
      </trkpt>
      <trkpt lat="46.50366" lon="-1.44305">
        <ele>60.2</ele>
        <time>2021-09-21T09:37:30Z</time>
      </trkpt>
      <trkpt lat="46.50367" lon="-1.44305">
        <ele>60.2</ele>
        <time>2021-09-21T09:37:31Z</time>
      </trkpt>
      <trkpt lat="46.50368" lon="-1.44306">
        <ele>60.2</ele>
        <time>2021-09-21T09:37:32Z</time>
      </trkpt>
      <trkpt lat="46.50369" lon="-1.44306">
        <ele>60.3</ele>
        <time>2021-09-21T09:37:33Z</time>
      </trkpt>
      <trkpt lat="46.5037" lon="-1.44307">
        <ele>60.3</ele>
        <time>2021-09-21T09:37:34Z</time>
      </trkpt>
      <trkpt lat="46.50371" lon="-1.44308">
        <ele>60.3</ele>
        <time>2021-09-21T09:37:35Z</time>
      </trkpt>
      <trkpt lat="46.50372" lon="-1.44309">
        <ele>60.3</ele>
        <time>2021-09-21T09:37:36Z</time>
      </trkpt>
      <trkpt lat="46.50373" lon="-1.44309">
        <ele>60.3</ele>
        <time>2021-09-21T09:37:37Z</time>
      </trkpt>
      <trkpt lat="46.50374" lon="-1.4431">
        <ele>60.4</ele>
        <time>2021-09-21T09:37:38Z</time>
      </trkpt>
      <trkpt lat="46.50375" lon="-1.44311">
        <ele>60.4</ele>
        <time>2021-09-21T09:37:39Z</time>
      </trkpt>
      <trkpt lat="46.50377" lon="-1.44312">
        <ele>60.4</ele>
        <time>2021-09-21T09:37:40Z</time>
      </trkpt>
      <trkpt lat="46.50378" lon="-1.44313">
        <ele>60.4</ele>
        <time>2021-09-21T09:37:41Z</time>
      </trkpt>
      <trkpt lat="46.50379" lon="-1.44313">
        <ele>60.4</ele>
        <time>2021-09-21T09:37:42Z</time>
      </trkpt>
      <trkpt lat="46.5038" lon="-1.44314">
        <ele>60.4</ele>
        <time>2021-09-21T09:37:43Z</time>
      </trkpt>
      <trkpt lat="46.50381" lon="-1.44315">
        <ele>60.5</ele>
        <time>2021-09-21T09:37:44Z</time>
      </trkpt>
      <trkpt lat="46.50382" lon="-1.44315">
        <ele>60.5</ele>
        <time>2021-09-21T09:37:45Z</time>
      </trkpt>
      <trkpt lat="46.50383" lon="-1.44316">
        <ele>60.5</ele>
        <time>2021-09-21T09:37:46Z</time>
      </trkpt>
      <trkpt lat="46.50384" lon="-1.44317">
        <ele>60.5</ele>
        <time>2021-09-21T09:37:47Z</time>
      </trkpt>
      <trkpt lat="46.50385" lon="-1.44317">
        <ele>60.5</ele>
        <time>2021-09-21T09:37:48Z</time>
      </trkpt>
      <trkpt lat="46.50387" lon="-1.44318">
        <ele>60.6</ele>
        <time>2021-09-21T09:37:49Z</time>
      </trkpt>
      <trkpt lat="46.50388" lon="-1.44318">
        <ele>60.6</ele>
        <time>2021-09-21T09:37:50Z</time>
      </trkpt>
      <trkpt lat="46.50389" lon="-1.44319">
        <ele>60.6</ele>
        <time>2021-09-21T09:37:51Z</time>
      </trkpt>
      <trkpt lat="46.5039" lon="-1.4432">
        <ele>60.6</ele>
        <time>2021-09-21T09:37:52Z</time>
      </trkpt>
      <trkpt lat="46.50391" lon="-1.4432">
        <ele>60.7</ele>
        <time>2021-09-21T09:37:53Z</time>
      </trkpt>
      <trkpt lat="46.50393" lon="-1.44321">
        <ele>60.7</ele>
        <time>2021-09-21T09:37:54Z</time>
      </trkpt>
      <trkpt lat="46.50394" lon="-1.44322">
        <ele>60.7</ele>
        <time>2021-09-21T09:37:55Z</time>
      </trkpt>
      <trkpt lat="46.50395" lon="-1.44322">
        <ele>60.7</ele>
        <time>2021-09-21T09:37:56Z</time>
      </trkpt>
      <trkpt lat="46.50396" lon="-1.44323">
        <ele>60.8</ele>
        <time>2021-09-21T09:37:57Z</time>
      </trkpt>
      <trkpt lat="46.50399" lon="-1.44324">
        <ele>60.8</ele>
        <time>2021-09-21T09:37:58Z</time>
      </trkpt>
      <trkpt lat="46.504" lon="-1.44325">
        <ele>60.8</ele>
        <time>2021-09-21T09:37:59Z</time>
      </trkpt>
      <trkpt lat="46.50401" lon="-1.44325">
        <ele>60.8</ele>
        <time>2021-09-21T09:38:00Z</time>
      </trkpt>
      <trkpt lat="46.50402" lon="-1.44325">
        <ele>60.8</ele>
        <time>2021-09-21T09:38:01Z</time>
      </trkpt>
      <trkpt lat="46.50403" lon="-1.44326">
        <ele>60.9</ele>
        <time>2021-09-21T09:38:02Z</time>
      </trkpt>
      <trkpt lat="46.50404" lon="-1.44326">
        <ele>60.9</ele>
        <time>2021-09-21T09:38:03Z</time>
      </trkpt>
      <trkpt lat="46.50405" lon="-1.44327">
        <ele>60.9</ele>
        <time>2021-09-21T09:38:04Z</time>
      </trkpt>
      <trkpt lat="46.50406" lon="-1.44327">
        <ele>60.9</ele>
        <time>2021-09-21T09:38:05Z</time>
      </trkpt>
      <trkpt lat="46.50406" lon="-1.44327">
        <ele>60.9</ele>
        <time>2021-09-21T09:38:06Z</time>
      </trkpt>
      <trkpt lat="46.50407" lon="-1.44328">
        <ele>61</ele>
        <time>2021-09-21T09:38:07Z</time>
      </trkpt>
      <trkpt lat="46.50408" lon="-1.44328">
        <ele>61</ele>
        <time>2021-09-21T09:38:08Z</time>
      </trkpt>
      <trkpt lat="46.50409" lon="-1.44328">
        <ele>61</ele>
        <time>2021-09-21T09:38:09Z</time>
      </trkpt>
      <trkpt lat="46.5041" lon="-1.44329">
        <ele>61</ele>
        <time>2021-09-21T09:38:10Z</time>
      </trkpt>
      <trkpt lat="46.50411" lon="-1.44329">
        <ele>61</ele>
        <time>2021-09-21T09:38:11Z</time>
      </trkpt>
      <trkpt lat="46.50412" lon="-1.4433">
        <ele>61</ele>
        <time>2021-09-21T09:38:12Z</time>
      </trkpt>
      <trkpt lat="46.50413" lon="-1.4433">
        <ele>61.1</ele>
        <time>2021-09-21T09:38:13Z</time>
      </trkpt>
      <trkpt lat="46.50414" lon="-1.4433">
        <ele>61.1</ele>
        <time>2021-09-21T09:38:14Z</time>
      </trkpt>
      <trkpt lat="46.50415" lon="-1.44331">
        <ele>61.1</ele>
        <time>2021-09-21T09:38:15Z</time>
      </trkpt>
      <trkpt lat="46.50416" lon="-1.44331">
        <ele>61.1</ele>
        <time>2021-09-21T09:38:16Z</time>
      </trkpt>
      <trkpt lat="46.50417" lon="-1.44332">
        <ele>61.1</ele>
        <time>2021-09-21T09:38:17Z</time>
      </trkpt>
      <trkpt lat="46.50418" lon="-1.44332">
        <ele>61.2</ele>
        <time>2021-09-21T09:38:18Z</time>
      </trkpt>
      <trkpt lat="46.50419" lon="-1.44332">
        <ele>61.2</ele>
        <time>2021-09-21T09:38:19Z</time>
      </trkpt>
      <trkpt lat="46.5042" lon="-1.44331">
        <ele>61.2</ele>
        <time>2021-09-21T09:38:20Z</time>
      </trkpt>
      <trkpt lat="46.50422" lon="-1.44331">
        <ele>61.2</ele>
        <time>2021-09-21T09:38:21Z</time>
      </trkpt>
      <trkpt lat="46.50423" lon="-1.4433">
        <ele>61.2</ele>
        <time>2021-09-21T09:38:22Z</time>
      </trkpt>
      <trkpt lat="46.50424" lon="-1.44329">
        <ele>61.2</ele>
        <time>2021-09-21T09:38:23Z</time>
      </trkpt>
      <trkpt lat="46.50425" lon="-1.44328">
        <ele>61.2</ele>
        <time>2021-09-21T09:38:24Z</time>
      </trkpt>
      <trkpt lat="46.50426" lon="-1.44327">
        <ele>61.3</ele>
        <time>2021-09-21T09:38:25Z</time>
      </trkpt>
      <trkpt lat="46.50426" lon="-1.44326">
        <ele>61.3</ele>
        <time>2021-09-21T09:38:26Z</time>
      </trkpt>
      <trkpt lat="46.50427" lon="-1.44325">
        <ele>61.3</ele>
        <time>2021-09-21T09:38:27Z</time>
      </trkpt>
      <trkpt lat="46.50428" lon="-1.44324">
        <ele>61.3</ele>
        <time>2021-09-21T09:38:28Z</time>
      </trkpt>
      <trkpt lat="46.50429" lon="-1.44322">
        <ele>61.3</ele>
        <time>2021-09-21T09:38:29Z</time>
      </trkpt>
      <trkpt lat="46.5043" lon="-1.44321">
        <ele>61.3</ele>
        <time>2021-09-21T09:38:30Z</time>
      </trkpt>
      <trkpt lat="46.5043" lon="-1.4432">
        <ele>61.4</ele>
        <time>2021-09-21T09:38:31Z</time>
      </trkpt>
      <trkpt lat="46.50431" lon="-1.44318">
        <ele>61.4</ele>
        <time>2021-09-21T09:38:32Z</time>
      </trkpt>
      <trkpt lat="46.50432" lon="-1.44317">
        <ele>61.4</ele>
        <time>2021-09-21T09:38:33Z</time>
      </trkpt>
      <trkpt lat="46.50432" lon="-1.44315">
        <ele>61.4</ele>
        <time>2021-09-21T09:38:34Z</time>
      </trkpt>
      <trkpt lat="46.50433" lon="-1.44314">
        <ele>61.4</ele>
        <time>2021-09-21T09:38:35Z</time>
      </trkpt>
      <trkpt lat="46.50433" lon="-1.44312">
        <ele>61.5</ele>
        <time>2021-09-21T09:38:36Z</time>
      </trkpt>
      <trkpt lat="46.50434" lon="-1.44311">
        <ele>61.5</ele>
        <time>2021-09-21T09:38:37Z</time>
      </trkpt>
      <trkpt lat="46.50435" lon="-1.44309">
        <ele>61.5</ele>
        <time>2021-09-21T09:38:38Z</time>
      </trkpt>
      <trkpt lat="46.50435" lon="-1.44308">
        <ele>61.6</ele>
        <time>2021-09-21T09:38:39Z</time>
      </trkpt>
      <trkpt lat="46.50436" lon="-1.44306">
        <ele>61.6</ele>
        <time>2021-09-21T09:38:40Z</time>
      </trkpt>
      <trkpt lat="46.50436" lon="-1.44305">
        <ele>61.6</ele>
        <time>2021-09-21T09:38:41Z</time>
      </trkpt>
      <trkpt lat="46.50437" lon="-1.44304">
        <ele>61.7</ele>
        <time>2021-09-21T09:38:42Z</time>
      </trkpt>
      <trkpt lat="46.50437" lon="-1.44302">
        <ele>61.7</ele>
        <time>2021-09-21T09:38:43Z</time>
      </trkpt>
      <trkpt lat="46.50438" lon="-1.44301">
        <ele>61.7</ele>
        <time>2021-09-21T09:38:44Z</time>
      </trkpt>
      <trkpt lat="46.50438" lon="-1.443">
        <ele>61.7</ele>
        <time>2021-09-21T09:38:45Z</time>
      </trkpt>
      <trkpt lat="46.50439" lon="-1.44299">
        <ele>61.8</ele>
        <time>2021-09-21T09:38:46Z</time>
      </trkpt>
      <trkpt lat="46.5044" lon="-1.44298">
        <ele>61.8</ele>
        <time>2021-09-21T09:38:47Z</time>
      </trkpt>
      <trkpt lat="46.5044" lon="-1.44297">
        <ele>61.8</ele>
        <time>2021-09-21T09:38:48Z</time>
      </trkpt>
      <trkpt lat="46.50441" lon="-1.44297">
        <ele>61.8</ele>
        <time>2021-09-21T09:38:49Z</time>
      </trkpt>
      <trkpt lat="46.50442" lon="-1.44296">
        <ele>61.9</ele>
        <time>2021-09-21T09:38:50Z</time>
      </trkpt>
      <trkpt lat="46.50443" lon="-1.44296">
        <ele>61.9</ele>
        <time>2021-09-21T09:38:51Z</time>
      </trkpt>
      <trkpt lat="46.50443" lon="-1.44296">
        <ele>61.9</ele>
        <time>2021-09-21T09:38:52Z</time>
      </trkpt>
      <trkpt lat="46.50444" lon="-1.44296">
        <ele>61.9</ele>
        <time>2021-09-21T09:38:53Z</time>
      </trkpt>
      <trkpt lat="46.50445" lon="-1.44296">
        <ele>61.9</ele>
        <time>2021-09-21T09:38:54Z</time>
      </trkpt>
      <trkpt lat="46.50445" lon="-1.44296">
        <ele>61.9</ele>
        <time>2021-09-21T09:38:55Z</time>
      </trkpt>
      <trkpt lat="46.50445" lon="-1.44297">
        <ele>62</ele>
        <time>2021-09-21T09:38:56Z</time>
      </trkpt>
      <trkpt lat="46.50445" lon="-1.44297">
        <ele>62</ele>
        <time>2021-09-21T09:38:57Z</time>
      </trkpt>
      <trkpt lat="46.50445" lon="-1.44297">
        <ele>62</ele>
        <time>2021-09-21T09:38:58Z</time>
      </trkpt>
      <trkpt lat="46.50445" lon="-1.44297">
        <ele>62</ele>
        <time>2021-09-21T09:38:59Z</time>
      </trkpt>
      <trkpt lat="46.50444" lon="-1.44297">
        <ele>62</ele>
        <time>2021-09-21T09:39:00Z</time>
      </trkpt>
      <trkpt lat="46.50444" lon="-1.44296">
        <ele>62</ele>
        <time>2021-09-21T09:39:01Z</time>
      </trkpt>
      <trkpt lat="46.50444" lon="-1.44296">
        <ele>62</ele>
        <time>2021-09-21T09:39:02Z</time>
      </trkpt>
      <trkpt lat="46.50443" lon="-1.44295">
        <ele>62</ele>
        <time>2021-09-21T09:39:03Z</time>
      </trkpt>
      <trkpt lat="46.50443" lon="-1.44294">
        <ele>62</ele>
        <time>2021-09-21T09:39:04Z</time>
      </trkpt>
      <trkpt lat="46.50442" lon="-1.44293">
        <ele>62</ele>
        <time>2021-09-21T09:39:05Z</time>
      </trkpt>
      <trkpt lat="46.50442" lon="-1.44292">
        <ele>62.1</ele>
        <time>2021-09-21T09:39:06Z</time>
      </trkpt>
      <trkpt lat="46.50442" lon="-1.4429">
        <ele>62.1</ele>
        <time>2021-09-21T09:39:07Z</time>
      </trkpt>
      <trkpt lat="46.50442" lon="-1.44289">
        <ele>62.1</ele>
        <time>2021-09-21T09:39:08Z</time>
      </trkpt>
      <trkpt lat="46.50442" lon="-1.44287">
        <ele>62.1</ele>
        <time>2021-09-21T09:39:09Z</time>
      </trkpt>
      <trkpt lat="46.50442" lon="-1.44286">
        <ele>62.1</ele>
        <time>2021-09-21T09:39:10Z</time>
      </trkpt>
      <trkpt lat="46.50442" lon="-1.44284">
        <ele>62.1</ele>
        <time>2021-09-21T09:39:11Z</time>
      </trkpt>
      <trkpt lat="46.50442" lon="-1.44283">
        <ele>62.2</ele>
        <time>2021-09-21T09:39:12Z</time>
      </trkpt>
      <trkpt lat="46.50443" lon="-1.44282">
        <ele>62.2</ele>
        <time>2021-09-21T09:39:13Z</time>
      </trkpt>
      <trkpt lat="46.50444" lon="-1.44281">
        <ele>62.2</ele>
        <time>2021-09-21T09:39:14Z</time>
      </trkpt>
      <trkpt lat="46.50444" lon="-1.44279">
        <ele>62.2</ele>
        <time>2021-09-21T09:39:15Z</time>
      </trkpt>
      <trkpt lat="46.50445" lon="-1.44278">
        <ele>62.2</ele>
        <time>2021-09-21T09:39:16Z</time>
      </trkpt>
      <trkpt lat="46.50445" lon="-1.44277">
        <ele>62.2</ele>
        <time>2021-09-21T09:39:17Z</time>
      </trkpt>
      <trkpt lat="46.50446" lon="-1.44276">
        <ele>62.3</ele>
        <time>2021-09-21T09:39:18Z</time>
      </trkpt>
      <trkpt lat="46.50446" lon="-1.44274">
        <ele>62.3</ele>
        <time>2021-09-21T09:39:19Z</time>
      </trkpt>
      <trkpt lat="46.50446" lon="-1.44273">
        <ele>62.3</ele>
        <time>2021-09-21T09:39:20Z</time>
      </trkpt>
      <trkpt lat="46.50447" lon="-1.44272">
        <ele>62.3</ele>
        <time>2021-09-21T09:39:21Z</time>
      </trkpt>
      <trkpt lat="46.50447" lon="-1.4427">
        <ele>62.3</ele>
        <time>2021-09-21T09:39:22Z</time>
      </trkpt>
      <trkpt lat="46.50447" lon="-1.44269">
        <ele>62.3</ele>
        <time>2021-09-21T09:39:23Z</time>
      </trkpt>
      <trkpt lat="46.50447" lon="-1.44268">
        <ele>62.3</ele>
        <time>2021-09-21T09:39:24Z</time>
      </trkpt>
      <trkpt lat="46.50448" lon="-1.44266">
        <ele>62.4</ele>
        <time>2021-09-21T09:39:25Z</time>
      </trkpt>
      <trkpt lat="46.50448" lon="-1.44265">
        <ele>62.4</ele>
        <time>2021-09-21T09:39:26Z</time>
      </trkpt>
      <trkpt lat="46.50448" lon="-1.44263">
        <ele>62.4</ele>
        <time>2021-09-21T09:39:27Z</time>
      </trkpt>
      <trkpt lat="46.50448" lon="-1.44262">
        <ele>62.4</ele>
        <time>2021-09-21T09:39:28Z</time>
      </trkpt>
      <trkpt lat="46.50449" lon="-1.44261">
        <ele>62.4</ele>
        <time>2021-09-21T09:39:29Z</time>
      </trkpt>
      <trkpt lat="46.50449" lon="-1.44259">
        <ele>62.4</ele>
        <time>2021-09-21T09:39:30Z</time>
      </trkpt>
      <trkpt lat="46.50449" lon="-1.44258">
        <ele>62.4</ele>
        <time>2021-09-21T09:39:31Z</time>
      </trkpt>
      <trkpt lat="46.5045" lon="-1.44256">
        <ele>62.5</ele>
        <time>2021-09-21T09:39:32Z</time>
      </trkpt>
      <trkpt lat="46.5045" lon="-1.44255">
        <ele>62.5</ele>
        <time>2021-09-21T09:39:33Z</time>
      </trkpt>
      <trkpt lat="46.50451" lon="-1.44253">
        <ele>62.5</ele>
        <time>2021-09-21T09:39:34Z</time>
      </trkpt>
      <trkpt lat="46.50451" lon="-1.44252">
        <ele>62.5</ele>
        <time>2021-09-21T09:39:35Z</time>
      </trkpt>
      <trkpt lat="46.50452" lon="-1.4425">
        <ele>62.5</ele>
        <time>2021-09-21T09:39:36Z</time>
      </trkpt>
      <trkpt lat="46.50452" lon="-1.44249">
        <ele>62.6</ele>
        <time>2021-09-21T09:39:37Z</time>
      </trkpt>
      <trkpt lat="46.50453" lon="-1.44247">
        <ele>62.6</ele>
        <time>2021-09-21T09:39:38Z</time>
      </trkpt>
      <trkpt lat="46.50453" lon="-1.44246">
        <ele>62.6</ele>
        <time>2021-09-21T09:39:39Z</time>
      </trkpt>
      <trkpt lat="46.50454" lon="-1.44244">
        <ele>62.6</ele>
        <time>2021-09-21T09:39:40Z</time>
      </trkpt>
      <trkpt lat="46.50454" lon="-1.44243">
        <ele>62.7</ele>
        <time>2021-09-21T09:39:41Z</time>
      </trkpt>
      <trkpt lat="46.50455" lon="-1.44241">
        <ele>62.7</ele>
        <time>2021-09-21T09:39:42Z</time>
      </trkpt>
      <trkpt lat="46.50455" lon="-1.44239">
        <ele>62.7</ele>
        <time>2021-09-21T09:39:43Z</time>
      </trkpt>
      <trkpt lat="46.50456" lon="-1.44238">
        <ele>62.7</ele>
        <time>2021-09-21T09:39:44Z</time>
      </trkpt>
      <trkpt lat="46.50456" lon="-1.44236">
        <ele>62.8</ele>
        <time>2021-09-21T09:39:45Z</time>
      </trkpt>
      <trkpt lat="46.50457" lon="-1.44235">
        <ele>62.8</ele>
        <time>2021-09-21T09:39:46Z</time>
      </trkpt>
      <trkpt lat="46.50458" lon="-1.44233">
        <ele>62.8</ele>
        <time>2021-09-21T09:39:47Z</time>
      </trkpt>
      <trkpt lat="46.50458" lon="-1.44231">
        <ele>62.8</ele>
        <time>2021-09-21T09:39:48Z</time>
      </trkpt>
      <trkpt lat="46.50459" lon="-1.4423">
        <ele>62.9</ele>
        <time>2021-09-21T09:39:49Z</time>
      </trkpt>
      <trkpt lat="46.50459" lon="-1.44228">
        <ele>62.9</ele>
        <time>2021-09-21T09:39:50Z</time>
      </trkpt>
      <trkpt lat="46.5046" lon="-1.44227">
        <ele>62.9</ele>
        <time>2021-09-21T09:39:51Z</time>
      </trkpt>
      <trkpt lat="46.5046" lon="-1.44225">
        <ele>63</ele>
        <time>2021-09-21T09:39:52Z</time>
      </trkpt>
      <trkpt lat="46.50461" lon="-1.44223">
        <ele>63</ele>
        <time>2021-09-21T09:39:53Z</time>
      </trkpt>
      <trkpt lat="46.50461" lon="-1.44222">
        <ele>63</ele>
        <time>2021-09-21T09:39:54Z</time>
      </trkpt>
      <trkpt lat="46.50462" lon="-1.4422">
        <ele>63</ele>
        <time>2021-09-21T09:39:55Z</time>
      </trkpt>
      <trkpt lat="46.50463" lon="-1.44218">
        <ele>63</ele>
        <time>2021-09-21T09:39:56Z</time>
      </trkpt>
      <trkpt lat="46.50463" lon="-1.44217">
        <ele>63.1</ele>
        <time>2021-09-21T09:39:57Z</time>
      </trkpt>
      <trkpt lat="46.50464" lon="-1.44215">
        <ele>63.1</ele>
        <time>2021-09-21T09:39:58Z</time>
      </trkpt>
      <trkpt lat="46.50464" lon="-1.44214">
        <ele>63.1</ele>
        <time>2021-09-21T09:39:59Z</time>
      </trkpt>
      <trkpt lat="46.50465" lon="-1.44212">
        <ele>63.1</ele>
        <time>2021-09-21T09:40:00Z</time>
      </trkpt>
      <trkpt lat="46.50465" lon="-1.4421">
        <ele>63.1</ele>
        <time>2021-09-21T09:40:01Z</time>
      </trkpt>
      <trkpt lat="46.50466" lon="-1.44209">
        <ele>63.2</ele>
        <time>2021-09-21T09:40:02Z</time>
      </trkpt>
      <trkpt lat="46.50466" lon="-1.44207">
        <ele>63.2</ele>
        <time>2021-09-21T09:40:03Z</time>
      </trkpt>
      <trkpt lat="46.50467" lon="-1.44206">
        <ele>63.2</ele>
        <time>2021-09-21T09:40:04Z</time>
      </trkpt>
      <trkpt lat="46.50467" lon="-1.44204">
        <ele>63.2</ele>
        <time>2021-09-21T09:40:05Z</time>
      </trkpt>
      <trkpt lat="46.50468" lon="-1.44203">
        <ele>63.2</ele>
        <time>2021-09-21T09:40:06Z</time>
      </trkpt>
      <trkpt lat="46.50468" lon="-1.44201">
        <ele>63.3</ele>
        <time>2021-09-21T09:40:07Z</time>
      </trkpt>
      <trkpt lat="46.50469" lon="-1.442">
        <ele>63.3</ele>
        <time>2021-09-21T09:40:08Z</time>
      </trkpt>
      <trkpt lat="46.50469" lon="-1.44198">
        <ele>63.3</ele>
        <time>2021-09-21T09:40:09Z</time>
      </trkpt>
      <trkpt lat="46.5047" lon="-1.44196">
        <ele>63.3</ele>
        <time>2021-09-21T09:40:10Z</time>
      </trkpt>
      <trkpt lat="46.50471" lon="-1.44195">
        <ele>63.4</ele>
        <time>2021-09-21T09:40:11Z</time>
      </trkpt>
      <trkpt lat="46.50471" lon="-1.44193">
        <ele>63.4</ele>
        <time>2021-09-21T09:40:12Z</time>
      </trkpt>
      <trkpt lat="46.50472" lon="-1.44191">
        <ele>63.5</ele>
        <time>2021-09-21T09:40:13Z</time>
      </trkpt>
      <trkpt lat="46.50473" lon="-1.44189">
        <ele>63.5</ele>
        <time>2021-09-21T09:40:14Z</time>
      </trkpt>
      <trkpt lat="46.50473" lon="-1.44188">
        <ele>63.5</ele>
        <time>2021-09-21T09:40:15Z</time>
      </trkpt>
      <trkpt lat="46.50474" lon="-1.44186">
        <ele>63.6</ele>
        <time>2021-09-21T09:40:16Z</time>
      </trkpt>
      <trkpt lat="46.50474" lon="-1.44184">
        <ele>63.6</ele>
        <time>2021-09-21T09:40:17Z</time>
      </trkpt>
      <trkpt lat="46.50475" lon="-1.44182">
        <ele>63.6</ele>
        <time>2021-09-21T09:40:18Z</time>
      </trkpt>
      <trkpt lat="46.50475" lon="-1.44181">
        <ele>63.7</ele>
        <time>2021-09-21T09:40:19Z</time>
      </trkpt>
      <trkpt lat="46.50475" lon="-1.44179">
        <ele>63.7</ele>
        <time>2021-09-21T09:40:20Z</time>
      </trkpt>
      <trkpt lat="46.50476" lon="-1.44178">
        <ele>63.7</ele>
        <time>2021-09-21T09:40:21Z</time>
      </trkpt>
      <trkpt lat="46.50476" lon="-1.44176">
        <ele>63.7</ele>
        <time>2021-09-21T09:40:22Z</time>
      </trkpt>
      <trkpt lat="46.50476" lon="-1.44175">
        <ele>63.8</ele>
        <time>2021-09-21T09:40:23Z</time>
      </trkpt>
      <trkpt lat="46.50477" lon="-1.44173">
        <ele>63.8</ele>
        <time>2021-09-21T09:40:24Z</time>
      </trkpt>
      <trkpt lat="46.50477" lon="-1.44172">
        <ele>63.8</ele>
        <time>2021-09-21T09:40:25Z</time>
      </trkpt>
      <trkpt lat="46.50477" lon="-1.4417">
        <ele>63.9</ele>
        <time>2021-09-21T09:40:26Z</time>
      </trkpt>
      <trkpt lat="46.50478" lon="-1.44169">
        <ele>63.9</ele>
        <time>2021-09-21T09:40:27Z</time>
      </trkpt>
      <trkpt lat="46.50478" lon="-1.44167">
        <ele>63.9</ele>
        <time>2021-09-21T09:40:28Z</time>
      </trkpt>
      <trkpt lat="46.50479" lon="-1.44165">
        <ele>64</ele>
        <time>2021-09-21T09:40:29Z</time>
      </trkpt>
      <trkpt lat="46.50479" lon="-1.44164">
        <ele>64</ele>
        <time>2021-09-21T09:40:30Z</time>
      </trkpt>
      <trkpt lat="46.5048" lon="-1.44162">
        <ele>64</ele>
        <time>2021-09-21T09:40:31Z</time>
      </trkpt>
      <trkpt lat="46.5048" lon="-1.4416">
        <ele>64.1</ele>
        <time>2021-09-21T09:40:32Z</time>
      </trkpt>
      <trkpt lat="46.50481" lon="-1.44159">
        <ele>64.1</ele>
        <time>2021-09-21T09:40:33Z</time>
      </trkpt>
      <trkpt lat="46.50482" lon="-1.44157">
        <ele>64.1</ele>
        <time>2021-09-21T09:40:34Z</time>
      </trkpt>
      <trkpt lat="46.50482" lon="-1.44155">
        <ele>64.2</ele>
        <time>2021-09-21T09:40:35Z</time>
      </trkpt>
      <trkpt lat="46.50483" lon="-1.44154">
        <ele>64.2</ele>
        <time>2021-09-21T09:40:36Z</time>
      </trkpt>
      <trkpt lat="46.50484" lon="-1.44152">
        <ele>64.2</ele>
        <time>2021-09-21T09:40:37Z</time>
      </trkpt>
      <trkpt lat="46.50484" lon="-1.44151">
        <ele>64.3</ele>
        <time>2021-09-21T09:40:38Z</time>
      </trkpt>
      <trkpt lat="46.50485" lon="-1.44149">
        <ele>64.3</ele>
        <time>2021-09-21T09:40:39Z</time>
      </trkpt>
      <trkpt lat="46.50486" lon="-1.44147">
        <ele>64.3</ele>
        <time>2021-09-21T09:40:40Z</time>
      </trkpt>
      <trkpt lat="46.50486" lon="-1.44146">
        <ele>64.4</ele>
        <time>2021-09-21T09:40:41Z</time>
      </trkpt>
      <trkpt lat="46.50487" lon="-1.44144">
        <ele>64.4</ele>
        <time>2021-09-21T09:40:42Z</time>
      </trkpt>
      <trkpt lat="46.50487" lon="-1.44142">
        <ele>64.4</ele>
        <time>2021-09-21T09:40:43Z</time>
      </trkpt>
      <trkpt lat="46.50488" lon="-1.44141">
        <ele>64.5</ele>
        <time>2021-09-21T09:40:44Z</time>
      </trkpt>
      <trkpt lat="46.50488" lon="-1.44139">
        <ele>64.5</ele>
        <time>2021-09-21T09:40:45Z</time>
      </trkpt>
      <trkpt lat="46.50488" lon="-1.44137">
        <ele>64.5</ele>
        <time>2021-09-21T09:40:46Z</time>
      </trkpt>
      <trkpt lat="46.50489" lon="-1.44136">
        <ele>64.6</ele>
        <time>2021-09-21T09:40:47Z</time>
      </trkpt>
      <trkpt lat="46.50489" lon="-1.44134">
        <ele>64.6</ele>
        <time>2021-09-21T09:40:48Z</time>
      </trkpt>
      <trkpt lat="46.5049" lon="-1.44133">
        <ele>64.7</ele>
        <time>2021-09-21T09:40:49Z</time>
      </trkpt>
      <trkpt lat="46.5049" lon="-1.44131">
        <ele>64.7</ele>
        <time>2021-09-21T09:40:50Z</time>
      </trkpt>
      <trkpt lat="46.50491" lon="-1.4413">
        <ele>64.7</ele>
        <time>2021-09-21T09:40:51Z</time>
      </trkpt>
      <trkpt lat="46.50491" lon="-1.44128">
        <ele>64.8</ele>
        <time>2021-09-21T09:40:52Z</time>
      </trkpt>
      <trkpt lat="46.50492" lon="-1.44127">
        <ele>64.8</ele>
        <time>2021-09-21T09:40:53Z</time>
      </trkpt>
      <trkpt lat="46.50492" lon="-1.44126">
        <ele>64.9</ele>
        <time>2021-09-21T09:40:54Z</time>
      </trkpt>
      <trkpt lat="46.50493" lon="-1.44125">
        <ele>64.9</ele>
        <time>2021-09-21T09:40:55Z</time>
      </trkpt>
      <trkpt lat="46.50494" lon="-1.44124">
        <ele>64.9</ele>
        <time>2021-09-21T09:40:56Z</time>
      </trkpt>
      <trkpt lat="46.50494" lon="-1.44123">
        <ele>65</ele>
        <time>2021-09-21T09:40:57Z</time>
      </trkpt>
      <trkpt lat="46.50495" lon="-1.44122">
        <ele>65</ele>
        <time>2021-09-21T09:40:58Z</time>
      </trkpt>
      <trkpt lat="46.50496" lon="-1.44121">
        <ele>65.1</ele>
        <time>2021-09-21T09:40:59Z</time>
      </trkpt>
      <trkpt lat="46.50497" lon="-1.4412">
        <ele>65.1</ele>
        <time>2021-09-21T09:41:00Z</time>
      </trkpt>
      <trkpt lat="46.50498" lon="-1.4412">
        <ele>65.2</ele>
        <time>2021-09-21T09:41:01Z</time>
      </trkpt>
      <trkpt lat="46.50499" lon="-1.44119">
        <ele>65.2</ele>
        <time>2021-09-21T09:41:02Z</time>
      </trkpt>
      <trkpt lat="46.505" lon="-1.44118">
        <ele>65.3</ele>
        <time>2021-09-21T09:41:03Z</time>
      </trkpt>
      <trkpt lat="46.50501" lon="-1.44118">
        <ele>65.3</ele>
        <time>2021-09-21T09:41:04Z</time>
      </trkpt>
      <trkpt lat="46.50502" lon="-1.44117">
        <ele>65.4</ele>
        <time>2021-09-21T09:41:05Z</time>
      </trkpt>
      <trkpt lat="46.50503" lon="-1.44117">
        <ele>65.4</ele>
        <time>2021-09-21T09:41:06Z</time>
      </trkpt>
      <trkpt lat="46.50504" lon="-1.44117">
        <ele>65.5</ele>
        <time>2021-09-21T09:41:07Z</time>
      </trkpt>
      <trkpt lat="46.50505" lon="-1.44117">
        <ele>65.5</ele>
        <time>2021-09-21T09:41:08Z</time>
      </trkpt>
      <trkpt lat="46.50506" lon="-1.44116">
        <ele>65.6</ele>
        <time>2021-09-21T09:41:09Z</time>
      </trkpt>
      <trkpt lat="46.50508" lon="-1.44116">
        <ele>65.6</ele>
        <time>2021-09-21T09:41:10Z</time>
      </trkpt>
      <trkpt lat="46.50509" lon="-1.44116">
        <ele>65.7</ele>
        <time>2021-09-21T09:41:11Z</time>
      </trkpt>
      <trkpt lat="46.5051" lon="-1.44116">
        <ele>65.7</ele>
        <time>2021-09-21T09:41:12Z</time>
      </trkpt>
      <trkpt lat="46.50511" lon="-1.44116">
        <ele>65.7</ele>
        <time>2021-09-21T09:41:13Z</time>
      </trkpt>
      <trkpt lat="46.50512" lon="-1.44116">
        <ele>65.8</ele>
        <time>2021-09-21T09:41:14Z</time>
      </trkpt>
      <trkpt lat="46.50513" lon="-1.44116">
        <ele>65.8</ele>
        <time>2021-09-21T09:41:15Z</time>
      </trkpt>
      <trkpt lat="46.50514" lon="-1.44116">
        <ele>65.9</ele>
        <time>2021-09-21T09:41:16Z</time>
      </trkpt>
      <trkpt lat="46.50515" lon="-1.44116">
        <ele>65.9</ele>
        <time>2021-09-21T09:41:17Z</time>
      </trkpt>
      <trkpt lat="46.50516" lon="-1.44116">
        <ele>66</ele>
        <time>2021-09-21T09:41:18Z</time>
      </trkpt>
      <trkpt lat="46.50517" lon="-1.44117">
        <ele>66</ele>
        <time>2021-09-21T09:41:19Z</time>
      </trkpt>
      <trkpt lat="46.50519" lon="-1.44117">
        <ele>66.1</ele>
        <time>2021-09-21T09:41:20Z</time>
      </trkpt>
      <trkpt lat="46.5052" lon="-1.44117">
        <ele>66.1</ele>
        <time>2021-09-21T09:41:21Z</time>
      </trkpt>
      <trkpt lat="46.50521" lon="-1.44117">
        <ele>66.2</ele>
        <time>2021-09-21T09:41:22Z</time>
      </trkpt>
      <trkpt lat="46.50522" lon="-1.44118">
        <ele>66.2</ele>
        <time>2021-09-21T09:41:23Z</time>
      </trkpt>
      <trkpt lat="46.50523" lon="-1.44118">
        <ele>66.3</ele>
        <time>2021-09-21T09:41:24Z</time>
      </trkpt>
      <trkpt lat="46.50524" lon="-1.44118">
        <ele>66.3</ele>
        <time>2021-09-21T09:41:25Z</time>
      </trkpt>
      <trkpt lat="46.50525" lon="-1.44119">
        <ele>66.4</ele>
        <time>2021-09-21T09:41:26Z</time>
      </trkpt>
      <trkpt lat="46.50526" lon="-1.44119">
        <ele>66.4</ele>
        <time>2021-09-21T09:41:27Z</time>
      </trkpt>
      <trkpt lat="46.50528" lon="-1.44119">
        <ele>66.5</ele>
        <time>2021-09-21T09:41:28Z</time>
      </trkpt>
      <trkpt lat="46.50529" lon="-1.4412">
        <ele>66.5</ele>
        <time>2021-09-21T09:41:29Z</time>
      </trkpt>
      <trkpt lat="46.5053" lon="-1.4412">
        <ele>66.6</ele>
        <time>2021-09-21T09:41:30Z</time>
      </trkpt>
      <trkpt lat="46.50531" lon="-1.4412">
        <ele>66.6</ele>
        <time>2021-09-21T09:41:31Z</time>
      </trkpt>
      <trkpt lat="46.50532" lon="-1.44121">
        <ele>66.6</ele>
        <time>2021-09-21T09:41:32Z</time>
      </trkpt>
      <trkpt lat="46.50534" lon="-1.44121">
        <ele>66.7</ele>
        <time>2021-09-21T09:41:33Z</time>
      </trkpt>
      <trkpt lat="46.50535" lon="-1.44121">
        <ele>66.7</ele>
        <time>2021-09-21T09:41:34Z</time>
      </trkpt>
      <trkpt lat="46.50537" lon="-1.44121">
        <ele>66.8</ele>
        <time>2021-09-21T09:41:35Z</time>
      </trkpt>
      <trkpt lat="46.50538" lon="-1.44121">
        <ele>66.8</ele>
        <time>2021-09-21T09:41:36Z</time>
      </trkpt>
      <trkpt lat="46.50539" lon="-1.44121">
        <ele>66.8</ele>
        <time>2021-09-21T09:41:37Z</time>
      </trkpt>
      <trkpt lat="46.50541" lon="-1.44121">
        <ele>66.9</ele>
        <time>2021-09-21T09:41:38Z</time>
      </trkpt>
      <trkpt lat="46.50542" lon="-1.44121">
        <ele>66.9</ele>
        <time>2021-09-21T09:41:39Z</time>
      </trkpt>
      <trkpt lat="46.50543" lon="-1.44121">
        <ele>67</ele>
        <time>2021-09-21T09:41:40Z</time>
      </trkpt>
      <trkpt lat="46.50545" lon="-1.4412">
        <ele>67</ele>
        <time>2021-09-21T09:41:41Z</time>
      </trkpt>
      <trkpt lat="46.50546" lon="-1.44119">
        <ele>67.1</ele>
        <time>2021-09-21T09:41:42Z</time>
      </trkpt>
      <trkpt lat="46.50547" lon="-1.44118">
        <ele>67.1</ele>
        <time>2021-09-21T09:41:43Z</time>
      </trkpt>
      <trkpt lat="46.50548" lon="-1.44117">
        <ele>67.1</ele>
        <time>2021-09-21T09:41:44Z</time>
      </trkpt>
      <trkpt lat="46.50549" lon="-1.44116">
        <ele>67.2</ele>
        <time>2021-09-21T09:41:45Z</time>
      </trkpt>
      <trkpt lat="46.5055" lon="-1.44115">
        <ele>67.3</ele>
        <time>2021-09-21T09:41:46Z</time>
      </trkpt>
      <trkpt lat="46.50551" lon="-1.44114">
        <ele>67.3</ele>
        <time>2021-09-21T09:41:47Z</time>
      </trkpt>
      <trkpt lat="46.50552" lon="-1.44113">
        <ele>67.4</ele>
        <time>2021-09-21T09:41:48Z</time>
      </trkpt>
      <trkpt lat="46.50553" lon="-1.44112">
        <ele>67.4</ele>
        <time>2021-09-21T09:41:49Z</time>
      </trkpt>
      <trkpt lat="46.50554" lon="-1.44111">
        <ele>67.5</ele>
        <time>2021-09-21T09:41:50Z</time>
      </trkpt>
      <trkpt lat="46.50554" lon="-1.4411">
        <ele>67.5</ele>
        <time>2021-09-21T09:41:51Z</time>
      </trkpt>
      <trkpt lat="46.50555" lon="-1.44108">
        <ele>67.6</ele>
        <time>2021-09-21T09:41:52Z</time>
      </trkpt>
      <trkpt lat="46.50556" lon="-1.44107">
        <ele>67.6</ele>
        <time>2021-09-21T09:41:53Z</time>
      </trkpt>
      <trkpt lat="46.50557" lon="-1.44106">
        <ele>67.7</ele>
        <time>2021-09-21T09:41:54Z</time>
      </trkpt>
      <trkpt lat="46.50557" lon="-1.44104">
        <ele>67.8</ele>
        <time>2021-09-21T09:41:55Z</time>
      </trkpt>
      <trkpt lat="46.50558" lon="-1.44103">
        <ele>67.8</ele>
        <time>2021-09-21T09:41:56Z</time>
      </trkpt>
      <trkpt lat="46.50559" lon="-1.44102">
        <ele>67.9</ele>
        <time>2021-09-21T09:41:57Z</time>
      </trkpt>
      <trkpt lat="46.50559" lon="-1.441">
        <ele>67.9</ele>
        <time>2021-09-21T09:41:58Z</time>
      </trkpt>
      <trkpt lat="46.5056" lon="-1.44099">
        <ele>68</ele>
        <time>2021-09-21T09:41:59Z</time>
      </trkpt>
      <trkpt lat="46.50561" lon="-1.44097">
        <ele>68.1</ele>
        <time>2021-09-21T09:42:00Z</time>
      </trkpt>
      <trkpt lat="46.50561" lon="-1.44096">
        <ele>68.1</ele>
        <time>2021-09-21T09:42:01Z</time>
      </trkpt>
      <trkpt lat="46.50562" lon="-1.44094">
        <ele>68.2</ele>
        <time>2021-09-21T09:42:02Z</time>
      </trkpt>
      <trkpt lat="46.50563" lon="-1.44093">
        <ele>68.2</ele>
        <time>2021-09-21T09:42:03Z</time>
      </trkpt>
      <trkpt lat="46.50563" lon="-1.44091">
        <ele>68.3</ele>
        <time>2021-09-21T09:42:04Z</time>
      </trkpt>
      <trkpt lat="46.50564" lon="-1.4409">
        <ele>68.4</ele>
        <time>2021-09-21T09:42:05Z</time>
      </trkpt>
      <trkpt lat="46.50565" lon="-1.44088">
        <ele>68.4</ele>
        <time>2021-09-21T09:42:06Z</time>
      </trkpt>
      <trkpt lat="46.50565" lon="-1.44087">
        <ele>68.5</ele>
        <time>2021-09-21T09:42:07Z</time>
      </trkpt>
      <trkpt lat="46.50566" lon="-1.44085">
        <ele>68.5</ele>
        <time>2021-09-21T09:42:08Z</time>
      </trkpt>
      <trkpt lat="46.50566" lon="-1.44084">
        <ele>68.6</ele>
        <time>2021-09-21T09:42:09Z</time>
      </trkpt>
      <trkpt lat="46.50567" lon="-1.44082">
        <ele>68.6</ele>
        <time>2021-09-21T09:42:10Z</time>
      </trkpt>
      <trkpt lat="46.50568" lon="-1.44081">
        <ele>68.7</ele>
        <time>2021-09-21T09:42:11Z</time>
      </trkpt>
      <trkpt lat="46.50568" lon="-1.44079">
        <ele>68.7</ele>
        <time>2021-09-21T09:42:12Z</time>
      </trkpt>
      <trkpt lat="46.50569" lon="-1.44078">
        <ele>68.8</ele>
        <time>2021-09-21T09:42:13Z</time>
      </trkpt>
      <trkpt lat="46.50569" lon="-1.44076">
        <ele>68.8</ele>
        <time>2021-09-21T09:42:14Z</time>
      </trkpt>
      <trkpt lat="46.5057" lon="-1.44075">
        <ele>68.9</ele>
        <time>2021-09-21T09:42:15Z</time>
      </trkpt>
      <trkpt lat="46.5057" lon="-1.44073">
        <ele>68.9</ele>
        <time>2021-09-21T09:42:16Z</time>
      </trkpt>
      <trkpt lat="46.50571" lon="-1.44072">
        <ele>69</ele>
        <time>2021-09-21T09:42:17Z</time>
      </trkpt>
      <trkpt lat="46.50571" lon="-1.4407">
        <ele>69</ele>
        <time>2021-09-21T09:42:18Z</time>
      </trkpt>
      <trkpt lat="46.50571" lon="-1.44069">
        <ele>69.1</ele>
        <time>2021-09-21T09:42:19Z</time>
      </trkpt>
      <trkpt lat="46.50572" lon="-1.44067">
        <ele>69.1</ele>
        <time>2021-09-21T09:42:20Z</time>
      </trkpt>
      <trkpt lat="46.50572" lon="-1.44066">
        <ele>69.1</ele>
        <time>2021-09-21T09:42:21Z</time>
      </trkpt>
      <trkpt lat="46.50573" lon="-1.44064">
        <ele>69.2</ele>
        <time>2021-09-21T09:42:22Z</time>
      </trkpt>
      <trkpt lat="46.50573" lon="-1.44063">
        <ele>69.2</ele>
        <time>2021-09-21T09:42:23Z</time>
      </trkpt>
      <trkpt lat="46.50574" lon="-1.44061">
        <ele>69.3</ele>
        <time>2021-09-21T09:42:24Z</time>
      </trkpt>
      <trkpt lat="46.50574" lon="-1.4406">
        <ele>69.3</ele>
        <time>2021-09-21T09:42:25Z</time>
      </trkpt>
      <trkpt lat="46.50574" lon="-1.44058">
        <ele>69.3</ele>
        <time>2021-09-21T09:42:26Z</time>
      </trkpt>
      <trkpt lat="46.50575" lon="-1.44056">
        <ele>69.4</ele>
        <time>2021-09-21T09:42:27Z</time>
      </trkpt>
      <trkpt lat="46.50575" lon="-1.44055">
        <ele>69.4</ele>
        <time>2021-09-21T09:42:28Z</time>
      </trkpt>
      <trkpt lat="46.50576" lon="-1.44053">
        <ele>69.5</ele>
        <time>2021-09-21T09:42:29Z</time>
      </trkpt>
      <trkpt lat="46.50576" lon="-1.44051">
        <ele>69.5</ele>
        <time>2021-09-21T09:42:30Z</time>
      </trkpt>
      <trkpt lat="46.50576" lon="-1.4405">
        <ele>69.5</ele>
        <time>2021-09-21T09:42:31Z</time>
      </trkpt>
      <trkpt lat="46.50577" lon="-1.44048">
        <ele>69.6</ele>
        <time>2021-09-21T09:42:32Z</time>
      </trkpt>
      <trkpt lat="46.50577" lon="-1.44046">
        <ele>69.6</ele>
        <time>2021-09-21T09:42:33Z</time>
      </trkpt>
      <trkpt lat="46.50577" lon="-1.44045">
        <ele>69.6</ele>
        <time>2021-09-21T09:42:34Z</time>
      </trkpt>
      <trkpt lat="46.50578" lon="-1.44043">
        <ele>69.7</ele>
        <time>2021-09-21T09:42:35Z</time>
      </trkpt>
      <trkpt lat="46.50578" lon="-1.44041">
        <ele>69.7</ele>
        <time>2021-09-21T09:42:36Z</time>
      </trkpt>
      <trkpt lat="46.50578" lon="-1.4404">
        <ele>69.8</ele>
        <time>2021-09-21T09:42:37Z</time>
      </trkpt>
      <trkpt lat="46.50579" lon="-1.44038">
        <ele>69.8</ele>
        <time>2021-09-21T09:42:38Z</time>
      </trkpt>
      <trkpt lat="46.50579" lon="-1.44037">
        <ele>69.8</ele>
        <time>2021-09-21T09:42:39Z</time>
      </trkpt>
      <trkpt lat="46.50579" lon="-1.44035">
        <ele>69.9</ele>
        <time>2021-09-21T09:42:40Z</time>
      </trkpt>
      <trkpt lat="46.5058" lon="-1.44034">
        <ele>69.9</ele>
        <time>2021-09-21T09:42:41Z</time>
      </trkpt>
      <trkpt lat="46.5058" lon="-1.44033">
        <ele>69.9</ele>
        <time>2021-09-21T09:42:42Z</time>
      </trkpt>
      <trkpt lat="46.5058" lon="-1.44031">
        <ele>70</ele>
        <time>2021-09-21T09:42:43Z</time>
      </trkpt>
      <trkpt lat="46.5058" lon="-1.4403">
        <ele>70</ele>
        <time>2021-09-21T09:42:44Z</time>
      </trkpt>
      <trkpt lat="46.50581" lon="-1.44029">
        <ele>70</ele>
        <time>2021-09-21T09:42:45Z</time>
      </trkpt>
      <trkpt lat="46.50581" lon="-1.44027">
        <ele>70</ele>
        <time>2021-09-21T09:42:46Z</time>
      </trkpt>
      <trkpt lat="46.50581" lon="-1.44026">
        <ele>70.1</ele>
        <time>2021-09-21T09:42:47Z</time>
      </trkpt>
      <trkpt lat="46.50581" lon="-1.44025">
        <ele>70.1</ele>
        <time>2021-09-21T09:42:48Z</time>
      </trkpt>
      <trkpt lat="46.50582" lon="-1.44023">
        <ele>70.1</ele>
        <time>2021-09-21T09:42:49Z</time>
      </trkpt>
      <trkpt lat="46.50582" lon="-1.44022">
        <ele>70.2</ele>
        <time>2021-09-21T09:42:50Z</time>
      </trkpt>
      <trkpt lat="46.50582" lon="-1.4402">
        <ele>70.2</ele>
        <time>2021-09-21T09:42:51Z</time>
      </trkpt>
      <trkpt lat="46.50583" lon="-1.44019">
        <ele>70.2</ele>
        <time>2021-09-21T09:42:52Z</time>
      </trkpt>
      <trkpt lat="46.50583" lon="-1.44017">
        <ele>70.3</ele>
        <time>2021-09-21T09:42:53Z</time>
      </trkpt>
      <trkpt lat="46.50583" lon="-1.44016">
        <ele>70.3</ele>
        <time>2021-09-21T09:42:54Z</time>
      </trkpt>
      <trkpt lat="46.50584" lon="-1.44014">
        <ele>70.3</ele>
        <time>2021-09-21T09:42:55Z</time>
      </trkpt>
      <trkpt lat="46.50584" lon="-1.44013">
        <ele>70.4</ele>
        <time>2021-09-21T09:42:56Z</time>
      </trkpt>
      <trkpt lat="46.50585" lon="-1.44011">
        <ele>70.4</ele>
        <time>2021-09-21T09:42:57Z</time>
      </trkpt>
      <trkpt lat="46.50585" lon="-1.44009">
        <ele>70.5</ele>
        <time>2021-09-21T09:42:58Z</time>
      </trkpt>
      <trkpt lat="46.50586" lon="-1.44007">
        <ele>70.5</ele>
        <time>2021-09-21T09:42:59Z</time>
      </trkpt>
      <trkpt lat="46.50586" lon="-1.44006">
        <ele>70.5</ele>
        <time>2021-09-21T09:43:00Z</time>
      </trkpt>
      <trkpt lat="46.50587" lon="-1.44004">
        <ele>70.6</ele>
        <time>2021-09-21T09:43:01Z</time>
      </trkpt>
      <trkpt lat="46.50587" lon="-1.44002">
        <ele>70.6</ele>
        <time>2021-09-21T09:43:02Z</time>
      </trkpt>
      <trkpt lat="46.50588" lon="-1.44">
        <ele>70.6</ele>
        <time>2021-09-21T09:43:03Z</time>
      </trkpt>
      <trkpt lat="46.50589" lon="-1.43998">
        <ele>70.7</ele>
        <time>2021-09-21T09:43:04Z</time>
      </trkpt>
      <trkpt lat="46.50589" lon="-1.43996">
        <ele>70.7</ele>
        <time>2021-09-21T09:43:05Z</time>
      </trkpt>
      <trkpt lat="46.5059" lon="-1.43995">
        <ele>70.8</ele>
        <time>2021-09-21T09:43:06Z</time>
      </trkpt>
      <trkpt lat="46.5059" lon="-1.43993">
        <ele>70.8</ele>
        <time>2021-09-21T09:43:07Z</time>
      </trkpt>
      <trkpt lat="46.50591" lon="-1.43991">
        <ele>70.8</ele>
        <time>2021-09-21T09:43:08Z</time>
      </trkpt>
      <trkpt lat="46.50592" lon="-1.43989">
        <ele>70.9</ele>
        <time>2021-09-21T09:43:09Z</time>
      </trkpt>
      <trkpt lat="46.50592" lon="-1.43987">
        <ele>70.9</ele>
        <time>2021-09-21T09:43:10Z</time>
      </trkpt>
      <trkpt lat="46.50593" lon="-1.43986">
        <ele>70.9</ele>
        <time>2021-09-21T09:43:11Z</time>
      </trkpt>
      <trkpt lat="46.50593" lon="-1.43984">
        <ele>71</ele>
        <time>2021-09-21T09:43:12Z</time>
      </trkpt>
      <trkpt lat="46.50594" lon="-1.43982">
        <ele>71</ele>
        <time>2021-09-21T09:43:13Z</time>
      </trkpt>
      <trkpt lat="46.50594" lon="-1.43981">
        <ele>71</ele>
        <time>2021-09-21T09:43:14Z</time>
      </trkpt>
      <trkpt lat="46.50595" lon="-1.43979">
        <ele>71.1</ele>
        <time>2021-09-21T09:43:15Z</time>
      </trkpt>
      <trkpt lat="46.50595" lon="-1.43978">
        <ele>71.1</ele>
        <time>2021-09-21T09:43:16Z</time>
      </trkpt>
      <trkpt lat="46.50596" lon="-1.43976">
        <ele>71.1</ele>
        <time>2021-09-21T09:43:17Z</time>
      </trkpt>
      <trkpt lat="46.50597" lon="-1.43974">
        <ele>71.2</ele>
        <time>2021-09-21T09:43:18Z</time>
      </trkpt>
      <trkpt lat="46.50597" lon="-1.43973">
        <ele>71.2</ele>
        <time>2021-09-21T09:43:19Z</time>
      </trkpt>
      <trkpt lat="46.50598" lon="-1.43971">
        <ele>71.2</ele>
        <time>2021-09-21T09:43:20Z</time>
      </trkpt>
      <trkpt lat="46.50598" lon="-1.4397">
        <ele>71.3</ele>
        <time>2021-09-21T09:43:21Z</time>
      </trkpt>
      <trkpt lat="46.50599" lon="-1.43968">
        <ele>71.3</ele>
        <time>2021-09-21T09:43:22Z</time>
      </trkpt>
      <trkpt lat="46.506" lon="-1.43967">
        <ele>71.3</ele>
        <time>2021-09-21T09:43:23Z</time>
      </trkpt>
      <trkpt lat="46.506" lon="-1.43965">
        <ele>71.4</ele>
        <time>2021-09-21T09:43:24Z</time>
      </trkpt>
      <trkpt lat="46.50601" lon="-1.43964">
        <ele>71.4</ele>
        <time>2021-09-21T09:43:25Z</time>
      </trkpt>
      <trkpt lat="46.50602" lon="-1.43962">
        <ele>71.4</ele>
        <time>2021-09-21T09:43:26Z</time>
      </trkpt>
      <trkpt lat="46.50602" lon="-1.43961">
        <ele>71.5</ele>
        <time>2021-09-21T09:43:27Z</time>
      </trkpt>
      <trkpt lat="46.50603" lon="-1.4396">
        <ele>71.5</ele>
        <time>2021-09-21T09:43:28Z</time>
      </trkpt>
      <trkpt lat="46.50604" lon="-1.43958">
        <ele>71.5</ele>
        <time>2021-09-21T09:43:29Z</time>
      </trkpt>
      <trkpt lat="46.50604" lon="-1.43957">
        <ele>71.5</ele>
        <time>2021-09-21T09:43:30Z</time>
      </trkpt>
      <trkpt lat="46.50605" lon="-1.43955">
        <ele>71.6</ele>
        <time>2021-09-21T09:43:31Z</time>
      </trkpt>
      <trkpt lat="46.50606" lon="-1.43954">
        <ele>71.6</ele>
        <time>2021-09-21T09:43:32Z</time>
      </trkpt>
      <trkpt lat="46.50606" lon="-1.43952">
        <ele>71.6</ele>
        <time>2021-09-21T09:43:33Z</time>
      </trkpt>
      <trkpt lat="46.50607" lon="-1.43951">
        <ele>71.6</ele>
        <time>2021-09-21T09:43:34Z</time>
      </trkpt>
      <trkpt lat="46.50608" lon="-1.4395">
        <ele>71.6</ele>
        <time>2021-09-21T09:43:35Z</time>
      </trkpt>
      <trkpt lat="46.50608" lon="-1.43948">
        <ele>71.6</ele>
        <time>2021-09-21T09:43:36Z</time>
      </trkpt>
      <trkpt lat="46.50609" lon="-1.43947">
        <ele>71.6</ele>
        <time>2021-09-21T09:43:37Z</time>
      </trkpt>
      <trkpt lat="46.50609" lon="-1.43946">
        <ele>71.7</ele>
        <time>2021-09-21T09:43:38Z</time>
      </trkpt>
      <trkpt lat="46.5061" lon="-1.43945">
        <ele>71.7</ele>
        <time>2021-09-21T09:43:39Z</time>
      </trkpt>
      <trkpt lat="46.5061" lon="-1.43943">
        <ele>71.7</ele>
        <time>2021-09-21T09:43:40Z</time>
      </trkpt>
      <trkpt lat="46.5061" lon="-1.43942">
        <ele>71.7</ele>
        <time>2021-09-21T09:43:41Z</time>
      </trkpt>
      <trkpt lat="46.50611" lon="-1.43941">
        <ele>71.7</ele>
        <time>2021-09-21T09:43:42Z</time>
      </trkpt>
      <trkpt lat="46.50611" lon="-1.4394">
        <ele>71.7</ele>
        <time>2021-09-21T09:43:43Z</time>
      </trkpt>
      <trkpt lat="46.50611" lon="-1.43938">
        <ele>71.7</ele>
        <time>2021-09-21T09:43:44Z</time>
      </trkpt>
      <trkpt lat="46.50611" lon="-1.43937">
        <ele>71.7</ele>
        <time>2021-09-21T09:43:45Z</time>
      </trkpt>
      <trkpt lat="46.50611" lon="-1.43936">
        <ele>71.7</ele>
        <time>2021-09-21T09:43:46Z</time>
      </trkpt>
      <trkpt lat="46.50611" lon="-1.43934">
        <ele>71.8</ele>
        <time>2021-09-21T09:43:47Z</time>
      </trkpt>
      <trkpt lat="46.50611" lon="-1.43933">
        <ele>71.8</ele>
        <time>2021-09-21T09:43:48Z</time>
      </trkpt>
      <trkpt lat="46.50611" lon="-1.43931">
        <ele>71.8</ele>
        <time>2021-09-21T09:43:49Z</time>
      </trkpt>
      <trkpt lat="46.50611" lon="-1.4393">
        <ele>71.9</ele>
        <time>2021-09-21T09:43:50Z</time>
      </trkpt>
      <trkpt lat="46.50611" lon="-1.43928">
        <ele>71.9</ele>
        <time>2021-09-21T09:43:51Z</time>
      </trkpt>
      <trkpt lat="46.50611" lon="-1.43926">
        <ele>71.9</ele>
        <time>2021-09-21T09:43:52Z</time>
      </trkpt>
      <trkpt lat="46.50611" lon="-1.43924">
        <ele>72</ele>
        <time>2021-09-21T09:43:53Z</time>
      </trkpt>
      <trkpt lat="46.50611" lon="-1.43923">
        <ele>71.9</ele>
        <time>2021-09-21T09:43:54Z</time>
      </trkpt>
      <trkpt lat="46.5061" lon="-1.43921">
        <ele>71.9</ele>
        <time>2021-09-21T09:43:55Z</time>
      </trkpt>
      <trkpt lat="46.5061" lon="-1.4392">
        <ele>71.9</ele>
        <time>2021-09-21T09:43:56Z</time>
      </trkpt>
      <trkpt lat="46.5061" lon="-1.43918">
        <ele>71.9</ele>
        <time>2021-09-21T09:43:57Z</time>
      </trkpt>
      <trkpt lat="46.5061" lon="-1.43917">
        <ele>71.9</ele>
        <time>2021-09-21T09:43:58Z</time>
      </trkpt>
      <trkpt lat="46.5061" lon="-1.43915">
        <ele>71.9</ele>
        <time>2021-09-21T09:43:59Z</time>
      </trkpt>
      <trkpt lat="46.50609" lon="-1.43914">
        <ele>71.8</ele>
        <time>2021-09-21T09:44:00Z</time>
      </trkpt>
      <trkpt lat="46.50609" lon="-1.43913">
        <ele>71.8</ele>
        <time>2021-09-21T09:44:01Z</time>
      </trkpt>
      <trkpt lat="46.50608" lon="-1.43911">
        <ele>71.8</ele>
        <time>2021-09-21T09:44:02Z</time>
      </trkpt>
      <trkpt lat="46.50608" lon="-1.4391">
        <ele>71.8</ele>
        <time>2021-09-21T09:44:03Z</time>
      </trkpt>
      <trkpt lat="46.50607" lon="-1.43909">
        <ele>71.8</ele>
        <time>2021-09-21T09:44:04Z</time>
      </trkpt>
      <trkpt lat="46.50606" lon="-1.43908">
        <ele>71.7</ele>
        <time>2021-09-21T09:44:05Z</time>
      </trkpt>
      <trkpt lat="46.50605" lon="-1.43906">
        <ele>71.7</ele>
        <time>2021-09-21T09:44:06Z</time>
      </trkpt>
      <trkpt lat="46.50605" lon="-1.43905">
        <ele>71.7</ele>
        <time>2021-09-21T09:44:07Z</time>
      </trkpt>
      <trkpt lat="46.50604" lon="-1.43904">
        <ele>71.7</ele>
        <time>2021-09-21T09:44:08Z</time>
      </trkpt>
      <trkpt lat="46.50603" lon="-1.43903">
        <ele>71.6</ele>
        <time>2021-09-21T09:44:09Z</time>
      </trkpt>
      <trkpt lat="46.50602" lon="-1.43901">
        <ele>71.6</ele>
        <time>2021-09-21T09:44:10Z</time>
      </trkpt>
      <trkpt lat="46.50602" lon="-1.439">
        <ele>71.6</ele>
        <time>2021-09-21T09:44:11Z</time>
      </trkpt>
      <trkpt lat="46.50601" lon="-1.43899">
        <ele>71.5</ele>
        <time>2021-09-21T09:44:12Z</time>
      </trkpt>
      <trkpt lat="46.50601" lon="-1.43898">
        <ele>71.5</ele>
        <time>2021-09-21T09:44:13Z</time>
      </trkpt>
      <trkpt lat="46.50601" lon="-1.43897">
        <ele>71.5</ele>
        <time>2021-09-21T09:44:14Z</time>
      </trkpt>
      <trkpt lat="46.506" lon="-1.43895">
        <ele>71.4</ele>
        <time>2021-09-21T09:44:15Z</time>
      </trkpt>
      <trkpt lat="46.506" lon="-1.43894">
        <ele>71.4</ele>
        <time>2021-09-21T09:44:16Z</time>
      </trkpt>
      <trkpt lat="46.506" lon="-1.43893">
        <ele>71.4</ele>
        <time>2021-09-21T09:44:17Z</time>
      </trkpt>
      <trkpt lat="46.50599" lon="-1.43892">
        <ele>71.4</ele>
        <time>2021-09-21T09:44:18Z</time>
      </trkpt>
      <trkpt lat="46.50599" lon="-1.43891">
        <ele>71.3</ele>
        <time>2021-09-21T09:44:19Z</time>
      </trkpt>
      <trkpt lat="46.50599" lon="-1.43889">
        <ele>71.3</ele>
        <time>2021-09-21T09:44:20Z</time>
      </trkpt>
      <trkpt lat="46.50599" lon="-1.43888">
        <ele>71.2</ele>
        <time>2021-09-21T09:44:21Z</time>
      </trkpt>
      <trkpt lat="46.50598" lon="-1.43887">
        <ele>71.2</ele>
        <time>2021-09-21T09:44:22Z</time>
      </trkpt>
      <trkpt lat="46.50598" lon="-1.43886">
        <ele>71.2</ele>
        <time>2021-09-21T09:44:23Z</time>
      </trkpt>
      <trkpt lat="46.50598" lon="-1.43884">
        <ele>71.1</ele>
        <time>2021-09-21T09:44:24Z</time>
      </trkpt>
      <trkpt lat="46.50597" lon="-1.43883">
        <ele>71.1</ele>
        <time>2021-09-21T09:44:25Z</time>
      </trkpt>
      <trkpt lat="46.50597" lon="-1.43882">
        <ele>71</ele>
        <time>2021-09-21T09:44:26Z</time>
      </trkpt>
      <trkpt lat="46.50596" lon="-1.4388">
        <ele>71</ele>
        <time>2021-09-21T09:44:27Z</time>
      </trkpt>
      <trkpt lat="46.50596" lon="-1.43879">
        <ele>71</ele>
        <time>2021-09-21T09:44:28Z</time>
      </trkpt>
      <trkpt lat="46.50596" lon="-1.43878">
        <ele>70.9</ele>
        <time>2021-09-21T09:44:29Z</time>
      </trkpt>
      <trkpt lat="46.50595" lon="-1.43876">
        <ele>70.9</ele>
        <time>2021-09-21T09:44:30Z</time>
      </trkpt>
      <trkpt lat="46.50595" lon="-1.43875">
        <ele>70.8</ele>
        <time>2021-09-21T09:44:31Z</time>
      </trkpt>
      <trkpt lat="46.50594" lon="-1.43874">
        <ele>70.7</ele>
        <time>2021-09-21T09:44:32Z</time>
      </trkpt>
      <trkpt lat="46.50594" lon="-1.43872">
        <ele>70.7</ele>
        <time>2021-09-21T09:44:33Z</time>
      </trkpt>
      <trkpt lat="46.50593" lon="-1.43871">
        <ele>70.6</ele>
        <time>2021-09-21T09:44:34Z</time>
      </trkpt>
      <trkpt lat="46.50593" lon="-1.43869">
        <ele>70.6</ele>
        <time>2021-09-21T09:44:35Z</time>
      </trkpt>
      <trkpt lat="46.50592" lon="-1.43868">
        <ele>70.5</ele>
        <time>2021-09-21T09:44:36Z</time>
      </trkpt>
      <trkpt lat="46.50592" lon="-1.43866">
        <ele>70.5</ele>
        <time>2021-09-21T09:44:37Z</time>
      </trkpt>
      <trkpt lat="46.50592" lon="-1.43865">
        <ele>70.4</ele>
        <time>2021-09-21T09:44:38Z</time>
      </trkpt>
      <trkpt lat="46.50591" lon="-1.43863">
        <ele>70.4</ele>
        <time>2021-09-21T09:44:39Z</time>
      </trkpt>
      <trkpt lat="46.50591" lon="-1.43862">
        <ele>70.3</ele>
        <time>2021-09-21T09:44:40Z</time>
      </trkpt>
      <trkpt lat="46.50591" lon="-1.4386">
        <ele>70.2</ele>
        <time>2021-09-21T09:44:41Z</time>
      </trkpt>
      <trkpt lat="46.50591" lon="-1.43859">
        <ele>70.1</ele>
        <time>2021-09-21T09:44:42Z</time>
      </trkpt>
      <trkpt lat="46.50591" lon="-1.43857">
        <ele>70.1</ele>
        <time>2021-09-21T09:44:43Z</time>
      </trkpt>
      <trkpt lat="46.50591" lon="-1.43856">
        <ele>70</ele>
        <time>2021-09-21T09:44:44Z</time>
      </trkpt>
      <trkpt lat="46.50591" lon="-1.43854">
        <ele>69.9</ele>
        <time>2021-09-21T09:44:45Z</time>
      </trkpt>
      <trkpt lat="46.50591" lon="-1.43853">
        <ele>69.9</ele>
        <time>2021-09-21T09:44:46Z</time>
      </trkpt>
      <trkpt lat="46.50591" lon="-1.43851">
        <ele>69.8</ele>
        <time>2021-09-21T09:44:47Z</time>
      </trkpt>
      <trkpt lat="46.50591" lon="-1.4385">
        <ele>69.7</ele>
        <time>2021-09-21T09:44:48Z</time>
      </trkpt>
      <trkpt lat="46.50591" lon="-1.43848">
        <ele>69.6</ele>
        <time>2021-09-21T09:44:49Z</time>
      </trkpt>
      <trkpt lat="46.50591" lon="-1.43846">
        <ele>69.6</ele>
        <time>2021-09-21T09:44:50Z</time>
      </trkpt>
      <trkpt lat="46.50591" lon="-1.43845">
        <ele>69.5</ele>
        <time>2021-09-21T09:44:51Z</time>
      </trkpt>
      <trkpt lat="46.50592" lon="-1.43843">
        <ele>69.4</ele>
        <time>2021-09-21T09:44:52Z</time>
      </trkpt>
      <trkpt lat="46.50592" lon="-1.43842">
        <ele>69.3</ele>
        <time>2021-09-21T09:44:53Z</time>
      </trkpt>
      <trkpt lat="46.50592" lon="-1.4384">
        <ele>69.2</ele>
        <time>2021-09-21T09:44:54Z</time>
      </trkpt>
      <trkpt lat="46.50593" lon="-1.43838">
        <ele>69.1</ele>
        <time>2021-09-21T09:44:55Z</time>
      </trkpt>
      <trkpt lat="46.50593" lon="-1.43837">
        <ele>69.1</ele>
        <time>2021-09-21T09:44:56Z</time>
      </trkpt>
      <trkpt lat="46.50594" lon="-1.43835">
        <ele>69</ele>
        <time>2021-09-21T09:44:57Z</time>
      </trkpt>
      <trkpt lat="46.50595" lon="-1.43832">
        <ele>68.8</ele>
        <time>2021-09-21T09:44:58Z</time>
      </trkpt>
      <trkpt lat="46.50596" lon="-1.43831">
        <ele>68.7</ele>
        <time>2021-09-21T09:44:59Z</time>
      </trkpt>
      <trkpt lat="46.50597" lon="-1.4383">
        <ele>68.6</ele>
        <time>2021-09-21T09:45:00Z</time>
      </trkpt>
      <trkpt lat="46.50598" lon="-1.43829">
        <ele>68.5</ele>
        <time>2021-09-21T09:45:01Z</time>
      </trkpt>
      <trkpt lat="46.50598" lon="-1.43827">
        <ele>68.5</ele>
        <time>2021-09-21T09:45:02Z</time>
      </trkpt>
      <trkpt lat="46.50599" lon="-1.43826">
        <ele>68.4</ele>
        <time>2021-09-21T09:45:03Z</time>
      </trkpt>
      <trkpt lat="46.506" lon="-1.43825">
        <ele>68.3</ele>
        <time>2021-09-21T09:45:04Z</time>
      </trkpt>
      <trkpt lat="46.50601" lon="-1.43824">
        <ele>68.2</ele>
        <time>2021-09-21T09:45:05Z</time>
      </trkpt>
      <trkpt lat="46.50601" lon="-1.43822">
        <ele>68.1</ele>
        <time>2021-09-21T09:45:06Z</time>
      </trkpt>
      <trkpt lat="46.50602" lon="-1.43821">
        <ele>68</ele>
        <time>2021-09-21T09:45:07Z</time>
      </trkpt>
      <trkpt lat="46.50603" lon="-1.4382">
        <ele>68</ele>
        <time>2021-09-21T09:45:08Z</time>
      </trkpt>
      <trkpt lat="46.50604" lon="-1.43819">
        <ele>67.9</ele>
        <time>2021-09-21T09:45:09Z</time>
      </trkpt>
      <trkpt lat="46.50605" lon="-1.43817">
        <ele>67.8</ele>
        <time>2021-09-21T09:45:10Z</time>
      </trkpt>
      <trkpt lat="46.50605" lon="-1.43816">
        <ele>67.7</ele>
        <time>2021-09-21T09:45:11Z</time>
      </trkpt>
      <trkpt lat="46.50606" lon="-1.43815">
        <ele>67.6</ele>
        <time>2021-09-21T09:45:12Z</time>
      </trkpt>
      <trkpt lat="46.50607" lon="-1.43814">
        <ele>67.5</ele>
        <time>2021-09-21T09:45:13Z</time>
      </trkpt>
      <trkpt lat="46.50608" lon="-1.43812">
        <ele>67.5</ele>
        <time>2021-09-21T09:45:14Z</time>
      </trkpt>
      <trkpt lat="46.50609" lon="-1.43811">
        <ele>67.4</ele>
        <time>2021-09-21T09:45:15Z</time>
      </trkpt>
      <trkpt lat="46.50609" lon="-1.4381">
        <ele>67.3</ele>
        <time>2021-09-21T09:45:16Z</time>
      </trkpt>
      <trkpt lat="46.5061" lon="-1.43809">
        <ele>67.2</ele>
        <time>2021-09-21T09:45:17Z</time>
      </trkpt>
      <trkpt lat="46.50611" lon="-1.43807">
        <ele>67.1</ele>
        <time>2021-09-21T09:45:18Z</time>
      </trkpt>
      <trkpt lat="46.50612" lon="-1.43806">
        <ele>67</ele>
        <time>2021-09-21T09:45:19Z</time>
      </trkpt>
      <trkpt lat="46.50613" lon="-1.43805">
        <ele>67</ele>
        <time>2021-09-21T09:45:20Z</time>
      </trkpt>
      <trkpt lat="46.50613" lon="-1.43804">
        <ele>66.9</ele>
        <time>2021-09-21T09:45:21Z</time>
      </trkpt>
      <trkpt lat="46.50614" lon="-1.43802">
        <ele>66.8</ele>
        <time>2021-09-21T09:45:22Z</time>
      </trkpt>
      <trkpt lat="46.50615" lon="-1.43801">
        <ele>66.7</ele>
        <time>2021-09-21T09:45:23Z</time>
      </trkpt>
      <trkpt lat="46.50616" lon="-1.438">
        <ele>66.6</ele>
        <time>2021-09-21T09:45:24Z</time>
      </trkpt>
      <trkpt lat="46.50617" lon="-1.43799">
        <ele>66.5</ele>
        <time>2021-09-21T09:45:25Z</time>
      </trkpt>
      <trkpt lat="46.50617" lon="-1.43797">
        <ele>66.5</ele>
        <time>2021-09-21T09:45:26Z</time>
      </trkpt>
      <trkpt lat="46.50618" lon="-1.43796">
        <ele>66.4</ele>
        <time>2021-09-21T09:45:27Z</time>
      </trkpt>
      <trkpt lat="46.50619" lon="-1.43795">
        <ele>66.3</ele>
        <time>2021-09-21T09:45:28Z</time>
      </trkpt>
      <trkpt lat="46.5062" lon="-1.43794">
        <ele>66.2</ele>
        <time>2021-09-21T09:45:29Z</time>
      </trkpt>
      <trkpt lat="46.50621" lon="-1.43792">
        <ele>66.1</ele>
        <time>2021-09-21T09:45:30Z</time>
      </trkpt>
      <trkpt lat="46.50621" lon="-1.43791">
        <ele>66</ele>
        <time>2021-09-21T09:45:31Z</time>
      </trkpt>
      <trkpt lat="46.50622" lon="-1.4379">
        <ele>66</ele>
        <time>2021-09-21T09:45:32Z</time>
      </trkpt>
      <trkpt lat="46.50623" lon="-1.43789">
        <ele>65.9</ele>
        <time>2021-09-21T09:45:33Z</time>
      </trkpt>
      <trkpt lat="46.50624" lon="-1.43788">
        <ele>65.8</ele>
        <time>2021-09-21T09:45:34Z</time>
      </trkpt>
      <trkpt lat="46.50625" lon="-1.43786">
        <ele>65.7</ele>
        <time>2021-09-21T09:45:35Z</time>
      </trkpt>
      <trkpt lat="46.50625" lon="-1.43785">
        <ele>65.6</ele>
        <time>2021-09-21T09:45:36Z</time>
      </trkpt>
      <trkpt lat="46.50626" lon="-1.43784">
        <ele>65.6</ele>
        <time>2021-09-21T09:45:37Z</time>
      </trkpt>
      <trkpt lat="46.50627" lon="-1.43783">
        <ele>65.5</ele>
        <time>2021-09-21T09:45:38Z</time>
      </trkpt>
      <trkpt lat="46.50628" lon="-1.43781">
        <ele>65.4</ele>
        <time>2021-09-21T09:45:39Z</time>
      </trkpt>
      <trkpt lat="46.50628" lon="-1.4378">
        <ele>65.3</ele>
        <time>2021-09-21T09:45:40Z</time>
      </trkpt>
      <trkpt lat="46.50629" lon="-1.43779">
        <ele>65.3</ele>
        <time>2021-09-21T09:45:41Z</time>
      </trkpt>
      <trkpt lat="46.5063" lon="-1.43778">
        <ele>65.2</ele>
        <time>2021-09-21T09:45:42Z</time>
      </trkpt>
      <trkpt lat="46.50631" lon="-1.43776">
        <ele>65.1</ele>
        <time>2021-09-21T09:45:43Z</time>
      </trkpt>
      <trkpt lat="46.50632" lon="-1.43775">
        <ele>65.1</ele>
        <time>2021-09-21T09:45:44Z</time>
      </trkpt>
      <trkpt lat="46.50632" lon="-1.43774">
        <ele>65</ele>
        <time>2021-09-21T09:45:45Z</time>
      </trkpt>
      <trkpt lat="46.50633" lon="-1.43773">
        <ele>65</ele>
        <time>2021-09-21T09:45:46Z</time>
      </trkpt>
      <trkpt lat="46.50634" lon="-1.43771">
        <ele>64.9</ele>
        <time>2021-09-21T09:45:47Z</time>
      </trkpt>
      <trkpt lat="46.50635" lon="-1.4377">
        <ele>64.9</ele>
        <time>2021-09-21T09:45:48Z</time>
      </trkpt>
      <trkpt lat="46.50636" lon="-1.43769">
        <ele>64.8</ele>
        <time>2021-09-21T09:45:49Z</time>
      </trkpt>
      <trkpt lat="46.50636" lon="-1.43768">
        <ele>64.8</ele>
        <time>2021-09-21T09:45:50Z</time>
      </trkpt>
      <trkpt lat="46.50637" lon="-1.43766">
        <ele>64.8</ele>
        <time>2021-09-21T09:45:51Z</time>
      </trkpt>
      <trkpt lat="46.50638" lon="-1.43765">
        <ele>64.7</ele>
        <time>2021-09-21T09:45:52Z</time>
      </trkpt>
      <trkpt lat="46.50639" lon="-1.43764">
        <ele>64.7</ele>
        <time>2021-09-21T09:45:53Z</time>
      </trkpt>
      <trkpt lat="46.5064" lon="-1.43763">
        <ele>64.7</ele>
        <time>2021-09-21T09:45:54Z</time>
      </trkpt>
      <trkpt lat="46.5064" lon="-1.43761">
        <ele>64.6</ele>
        <time>2021-09-21T09:45:55Z</time>
      </trkpt>
      <trkpt lat="46.50641" lon="-1.4376">
        <ele>64.6</ele>
        <time>2021-09-21T09:45:56Z</time>
      </trkpt>
      <trkpt lat="46.50642" lon="-1.43759">
        <ele>64.6</ele>
        <time>2021-09-21T09:45:57Z</time>
      </trkpt>
      <trkpt lat="46.50643" lon="-1.43758">
        <ele>64.6</ele>
        <time>2021-09-21T09:45:58Z</time>
      </trkpt>
      <trkpt lat="46.50643" lon="-1.43756">
        <ele>64.5</ele>
        <time>2021-09-21T09:45:59Z</time>
      </trkpt>
      <trkpt lat="46.50643" lon="-1.43754">
        <ele>64.5</ele>
        <time>2021-09-21T09:46:00Z</time>
      </trkpt>
      <trkpt lat="46.50644" lon="-1.43752">
        <ele>64.5</ele>
        <time>2021-09-21T09:46:01Z</time>
      </trkpt>
      <trkpt lat="46.50644" lon="-1.4375">
        <ele>64.5</ele>
        <time>2021-09-21T09:46:02Z</time>
      </trkpt>
      <trkpt lat="46.50645" lon="-1.43748">
        <ele>64.4</ele>
        <time>2021-09-21T09:46:03Z</time>
      </trkpt>
      <trkpt lat="46.50645" lon="-1.43746">
        <ele>64.4</ele>
        <time>2021-09-21T09:46:04Z</time>
      </trkpt>
      <trkpt lat="46.50645" lon="-1.43744">
        <ele>64.4</ele>
        <time>2021-09-21T09:46:05Z</time>
      </trkpt>
      <trkpt lat="46.50646" lon="-1.43742">
        <ele>64.4</ele>
        <time>2021-09-21T09:46:06Z</time>
      </trkpt>
      <trkpt lat="46.50646" lon="-1.4374">
        <ele>64.4</ele>
        <time>2021-09-21T09:46:07Z</time>
      </trkpt>
      <trkpt lat="46.50647" lon="-1.43739">
        <ele>64.3</ele>
        <time>2021-09-21T09:46:08Z</time>
      </trkpt>
      <trkpt lat="46.50647" lon="-1.43737">
        <ele>64.3</ele>
        <time>2021-09-21T09:46:09Z</time>
      </trkpt>
      <trkpt lat="46.50648" lon="-1.43735">
        <ele>64.3</ele>
        <time>2021-09-21T09:46:10Z</time>
      </trkpt>
      <trkpt lat="46.50648" lon="-1.43733">
        <ele>64.3</ele>
        <time>2021-09-21T09:46:11Z</time>
      </trkpt>
      <trkpt lat="46.50649" lon="-1.43732">
        <ele>64.2</ele>
        <time>2021-09-21T09:46:12Z</time>
      </trkpt>
      <trkpt lat="46.50649" lon="-1.4373">
        <ele>64.2</ele>
        <time>2021-09-21T09:46:13Z</time>
      </trkpt>
      <trkpt lat="46.5065" lon="-1.43729">
        <ele>64.2</ele>
        <time>2021-09-21T09:46:14Z</time>
      </trkpt>
      <trkpt lat="46.5065" lon="-1.43727">
        <ele>64.1</ele>
        <time>2021-09-21T09:46:15Z</time>
      </trkpt>
      <trkpt lat="46.50651" lon="-1.43726">
        <ele>64.1</ele>
        <time>2021-09-21T09:46:16Z</time>
      </trkpt>
      <trkpt lat="46.50651" lon="-1.43725">
        <ele>64.1</ele>
        <time>2021-09-21T09:46:17Z</time>
      </trkpt>
      <trkpt lat="46.50652" lon="-1.43723">
        <ele>64</ele>
        <time>2021-09-21T09:46:18Z</time>
      </trkpt>
      <trkpt lat="46.50652" lon="-1.43722">
        <ele>64</ele>
        <time>2021-09-21T09:46:19Z</time>
      </trkpt>
      <trkpt lat="46.50653" lon="-1.43721">
        <ele>63.9</ele>
        <time>2021-09-21T09:46:20Z</time>
      </trkpt>
      <trkpt lat="46.50653" lon="-1.43719">
        <ele>63.9</ele>
        <time>2021-09-21T09:46:21Z</time>
      </trkpt>
      <trkpt lat="46.50653" lon="-1.43718">
        <ele>63.9</ele>
        <time>2021-09-21T09:46:22Z</time>
      </trkpt>
      <trkpt lat="46.50654" lon="-1.43717">
        <ele>63.8</ele>
        <time>2021-09-21T09:46:23Z</time>
      </trkpt>
      <trkpt lat="46.50654" lon="-1.43715">
        <ele>63.8</ele>
        <time>2021-09-21T09:46:24Z</time>
      </trkpt>
      <trkpt lat="46.50655" lon="-1.43714">
        <ele>63.7</ele>
        <time>2021-09-21T09:46:25Z</time>
      </trkpt>
      <trkpt lat="46.50655" lon="-1.43712">
        <ele>63.7</ele>
        <time>2021-09-21T09:46:26Z</time>
      </trkpt>
      <trkpt lat="46.50656" lon="-1.43711">
        <ele>63.6</ele>
        <time>2021-09-21T09:46:27Z</time>
      </trkpt>
      <trkpt lat="46.50656" lon="-1.43709">
        <ele>63.6</ele>
        <time>2021-09-21T09:46:28Z</time>
      </trkpt>
      <trkpt lat="46.50657" lon="-1.43707">
        <ele>63.5</ele>
        <time>2021-09-21T09:46:29Z</time>
      </trkpt>
      <trkpt lat="46.50657" lon="-1.43706">
        <ele>63.5</ele>
        <time>2021-09-21T09:46:30Z</time>
      </trkpt>
      <trkpt lat="46.50657" lon="-1.43704">
        <ele>63.4</ele>
        <time>2021-09-21T09:46:31Z</time>
      </trkpt>
      <trkpt lat="46.50658" lon="-1.43702">
        <ele>63.4</ele>
        <time>2021-09-21T09:46:32Z</time>
      </trkpt>
      <trkpt lat="46.50658" lon="-1.43701">
        <ele>63.3</ele>
        <time>2021-09-21T09:46:33Z</time>
      </trkpt>
      <trkpt lat="46.50659" lon="-1.43699">
        <ele>63.3</ele>
        <time>2021-09-21T09:46:34Z</time>
      </trkpt>
      <trkpt lat="46.50659" lon="-1.43697">
        <ele>63.2</ele>
        <time>2021-09-21T09:46:35Z</time>
      </trkpt>
      <trkpt lat="46.50659" lon="-1.43695">
        <ele>63.2</ele>
        <time>2021-09-21T09:46:36Z</time>
      </trkpt>
      <trkpt lat="46.5066" lon="-1.43693">
        <ele>63.1</ele>
        <time>2021-09-21T09:46:37Z</time>
      </trkpt>
      <trkpt lat="46.5066" lon="-1.43692">
        <ele>63.1</ele>
        <time>2021-09-21T09:46:38Z</time>
      </trkpt>
      <trkpt lat="46.50661" lon="-1.4369">
        <ele>63</ele>
        <time>2021-09-21T09:46:39Z</time>
      </trkpt>
      <trkpt lat="46.50661" lon="-1.43688">
        <ele>63</ele>
        <time>2021-09-21T09:46:40Z</time>
      </trkpt>
      <trkpt lat="46.50661" lon="-1.43687">
        <ele>62.9</ele>
        <time>2021-09-21T09:46:41Z</time>
      </trkpt>
      <trkpt lat="46.50662" lon="-1.43685">
        <ele>62.9</ele>
        <time>2021-09-21T09:46:42Z</time>
      </trkpt>
      <trkpt lat="46.50662" lon="-1.43683">
        <ele>62.8</ele>
        <time>2021-09-21T09:46:43Z</time>
      </trkpt>
      <trkpt lat="46.50663" lon="-1.43682">
        <ele>62.8</ele>
        <time>2021-09-21T09:46:44Z</time>
      </trkpt>
      <trkpt lat="46.50663" lon="-1.4368">
        <ele>62.7</ele>
        <time>2021-09-21T09:46:45Z</time>
      </trkpt>
      <trkpt lat="46.50664" lon="-1.43679">
        <ele>62.7</ele>
        <time>2021-09-21T09:46:46Z</time>
      </trkpt>
      <trkpt lat="46.50664" lon="-1.43677">
        <ele>62.6</ele>
        <time>2021-09-21T09:46:47Z</time>
      </trkpt>
      <trkpt lat="46.50665" lon="-1.43676">
        <ele>62.6</ele>
        <time>2021-09-21T09:46:48Z</time>
      </trkpt>
      <trkpt lat="46.50665" lon="-1.43674">
        <ele>62.5</ele>
        <time>2021-09-21T09:46:49Z</time>
      </trkpt>
      <trkpt lat="46.50666" lon="-1.43672">
        <ele>62.5</ele>
        <time>2021-09-21T09:46:50Z</time>
      </trkpt>
      <trkpt lat="46.50666" lon="-1.43671">
        <ele>62.4</ele>
        <time>2021-09-21T09:46:51Z</time>
      </trkpt>
      <trkpt lat="46.50666" lon="-1.43669">
        <ele>62.4</ele>
        <time>2021-09-21T09:46:52Z</time>
      </trkpt>
      <trkpt lat="46.50667" lon="-1.43668">
        <ele>62.3</ele>
        <time>2021-09-21T09:46:53Z</time>
      </trkpt>
      <trkpt lat="46.50667" lon="-1.43666">
        <ele>62.3</ele>
        <time>2021-09-21T09:46:54Z</time>
      </trkpt>
      <trkpt lat="46.50668" lon="-1.43665">
        <ele>62.2</ele>
        <time>2021-09-21T09:46:55Z</time>
      </trkpt>
      <trkpt lat="46.50668" lon="-1.43663">
        <ele>62.2</ele>
        <time>2021-09-21T09:46:56Z</time>
      </trkpt>
      <trkpt lat="46.50668" lon="-1.43662">
        <ele>62.1</ele>
        <time>2021-09-21T09:46:57Z</time>
      </trkpt>
      <trkpt lat="46.50669" lon="-1.4366">
        <ele>62.1</ele>
        <time>2021-09-21T09:46:58Z</time>
      </trkpt>
      <trkpt lat="46.50669" lon="-1.43658">
        <ele>62.1</ele>
        <time>2021-09-21T09:46:59Z</time>
      </trkpt>
      <trkpt lat="46.5067" lon="-1.43657">
        <ele>62</ele>
        <time>2021-09-21T09:47:00Z</time>
      </trkpt>
      <trkpt lat="46.5067" lon="-1.43655">
        <ele>62</ele>
        <time>2021-09-21T09:47:01Z</time>
      </trkpt>
      <trkpt lat="46.5067" lon="-1.43653">
        <ele>61.9</ele>
        <time>2021-09-21T09:47:02Z</time>
      </trkpt>
      <trkpt lat="46.5067" lon="-1.43652">
        <ele>61.9</ele>
        <time>2021-09-21T09:47:03Z</time>
      </trkpt>
      <trkpt lat="46.50671" lon="-1.4365">
        <ele>61.8</ele>
        <time>2021-09-21T09:47:04Z</time>
      </trkpt>
      <trkpt lat="46.50671" lon="-1.43648">
        <ele>61.8</ele>
        <time>2021-09-21T09:47:05Z</time>
      </trkpt>
      <trkpt lat="46.50671" lon="-1.43647">
        <ele>61.8</ele>
        <time>2021-09-21T09:47:06Z</time>
      </trkpt>
      <trkpt lat="46.50671" lon="-1.43645">
        <ele>61.7</ele>
        <time>2021-09-21T09:47:07Z</time>
      </trkpt>
      <trkpt lat="46.50672" lon="-1.43643">
        <ele>61.7</ele>
        <time>2021-09-21T09:47:08Z</time>
      </trkpt>
      <trkpt lat="46.50672" lon="-1.43641">
        <ele>61.7</ele>
        <time>2021-09-21T09:47:09Z</time>
      </trkpt>
      <trkpt lat="46.50672" lon="-1.4364">
        <ele>61.6</ele>
        <time>2021-09-21T09:47:10Z</time>
      </trkpt>
      <trkpt lat="46.50672" lon="-1.43638">
        <ele>61.6</ele>
        <time>2021-09-21T09:47:11Z</time>
      </trkpt>
      <trkpt lat="46.50672" lon="-1.43636">
        <ele>61.5</ele>
        <time>2021-09-21T09:47:12Z</time>
      </trkpt>
      <trkpt lat="46.50672" lon="-1.43634">
        <ele>61.5</ele>
        <time>2021-09-21T09:47:13Z</time>
      </trkpt>
      <trkpt lat="46.50672" lon="-1.43632">
        <ele>61.5</ele>
        <time>2021-09-21T09:47:14Z</time>
      </trkpt>
      <trkpt lat="46.50672" lon="-1.43631">
        <ele>61.4</ele>
        <time>2021-09-21T09:47:15Z</time>
      </trkpt>
      <trkpt lat="46.50672" lon="-1.43629">
        <ele>61.4</ele>
        <time>2021-09-21T09:47:16Z</time>
      </trkpt>
      <trkpt lat="46.50672" lon="-1.43627">
        <ele>61.4</ele>
        <time>2021-09-21T09:47:17Z</time>
      </trkpt>
      <trkpt lat="46.50672" lon="-1.43625">
        <ele>61.3</ele>
        <time>2021-09-21T09:47:18Z</time>
      </trkpt>
      <trkpt lat="46.50672" lon="-1.43623">
        <ele>61.3</ele>
        <time>2021-09-21T09:47:19Z</time>
      </trkpt>
      <trkpt lat="46.50672" lon="-1.43622">
        <ele>61.3</ele>
        <time>2021-09-21T09:47:20Z</time>
      </trkpt>
      <trkpt lat="46.50672" lon="-1.4362">
        <ele>61.2</ele>
        <time>2021-09-21T09:47:21Z</time>
      </trkpt>
      <trkpt lat="46.50672" lon="-1.43618">
        <ele>61.2</ele>
        <time>2021-09-21T09:47:22Z</time>
      </trkpt>
      <trkpt lat="46.50672" lon="-1.43617">
        <ele>61.2</ele>
        <time>2021-09-21T09:47:23Z</time>
      </trkpt>
      <trkpt lat="46.50672" lon="-1.43615">
        <ele>61.2</ele>
        <time>2021-09-21T09:47:24Z</time>
      </trkpt>
      <trkpt lat="46.50672" lon="-1.43613">
        <ele>61.1</ele>
        <time>2021-09-21T09:47:25Z</time>
      </trkpt>
      <trkpt lat="46.50672" lon="-1.43612">
        <ele>61.1</ele>
        <time>2021-09-21T09:47:26Z</time>
      </trkpt>
      <trkpt lat="46.50672" lon="-1.4361">
        <ele>61.1</ele>
        <time>2021-09-21T09:47:27Z</time>
      </trkpt>
      <trkpt lat="46.50672" lon="-1.43608">
        <ele>61.1</ele>
        <time>2021-09-21T09:47:28Z</time>
      </trkpt>
      <trkpt lat="46.50672" lon="-1.43607">
        <ele>61</ele>
        <time>2021-09-21T09:47:29Z</time>
      </trkpt>
      <trkpt lat="46.50673" lon="-1.43605">
        <ele>61</ele>
        <time>2021-09-21T09:47:30Z</time>
      </trkpt>
      <trkpt lat="46.50673" lon="-1.43604">
        <ele>61</ele>
        <time>2021-09-21T09:47:31Z</time>
      </trkpt>
      <trkpt lat="46.50673" lon="-1.43602">
        <ele>61</ele>
        <time>2021-09-21T09:47:32Z</time>
      </trkpt>
      <trkpt lat="46.50673" lon="-1.43601">
        <ele>60.9</ele>
        <time>2021-09-21T09:47:33Z</time>
      </trkpt>
      <trkpt lat="46.50673" lon="-1.43599">
        <ele>60.9</ele>
        <time>2021-09-21T09:47:34Z</time>
      </trkpt>
      <trkpt lat="46.50674" lon="-1.43598">
        <ele>60.9</ele>
        <time>2021-09-21T09:47:35Z</time>
      </trkpt>
      <trkpt lat="46.50674" lon="-1.43596">
        <ele>60.9</ele>
        <time>2021-09-21T09:47:36Z</time>
      </trkpt>
      <trkpt lat="46.50674" lon="-1.43594">
        <ele>60.9</ele>
        <time>2021-09-21T09:47:37Z</time>
      </trkpt>
      <trkpt lat="46.50674" lon="-1.43593">
        <ele>60.8</ele>
        <time>2021-09-21T09:47:38Z</time>
      </trkpt>
      <trkpt lat="46.50674" lon="-1.43591">
        <ele>60.8</ele>
        <time>2021-09-21T09:47:39Z</time>
      </trkpt>
      <trkpt lat="46.50674" lon="-1.43589">
        <ele>60.8</ele>
        <time>2021-09-21T09:47:40Z</time>
      </trkpt>
      <trkpt lat="46.50674" lon="-1.43588">
        <ele>60.8</ele>
        <time>2021-09-21T09:47:41Z</time>
      </trkpt>
      <trkpt lat="46.50674" lon="-1.43586">
        <ele>60.8</ele>
        <time>2021-09-21T09:47:42Z</time>
      </trkpt>
      <trkpt lat="46.50674" lon="-1.43584">
        <ele>60.8</ele>
        <time>2021-09-21T09:47:43Z</time>
      </trkpt>
      <trkpt lat="46.50674" lon="-1.43582">
        <ele>60.8</ele>
        <time>2021-09-21T09:47:44Z</time>
      </trkpt>
      <trkpt lat="46.50674" lon="-1.4358">
        <ele>60.8</ele>
        <time>2021-09-21T09:47:45Z</time>
      </trkpt>
      <trkpt lat="46.50674" lon="-1.43579">
        <ele>60.7</ele>
        <time>2021-09-21T09:47:46Z</time>
      </trkpt>
      <trkpt lat="46.50675" lon="-1.43577">
        <ele>60.7</ele>
        <time>2021-09-21T09:47:47Z</time>
      </trkpt>
      <trkpt lat="46.50675" lon="-1.43575">
        <ele>60.7</ele>
        <time>2021-09-21T09:47:48Z</time>
      </trkpt>
      <trkpt lat="46.50675" lon="-1.43574">
        <ele>60.7</ele>
        <time>2021-09-21T09:47:49Z</time>
      </trkpt>
      <trkpt lat="46.50676" lon="-1.43572">
        <ele>60.7</ele>
        <time>2021-09-21T09:47:50Z</time>
      </trkpt>
      <trkpt lat="46.50676" lon="-1.43571">
        <ele>60.7</ele>
        <time>2021-09-21T09:47:51Z</time>
      </trkpt>
      <trkpt lat="46.50677" lon="-1.43569">
        <ele>60.7</ele>
        <time>2021-09-21T09:47:52Z</time>
      </trkpt>
      <trkpt lat="46.50677" lon="-1.43568">
        <ele>60.7</ele>
        <time>2021-09-21T09:47:53Z</time>
      </trkpt>
      <trkpt lat="46.50678" lon="-1.43566">
        <ele>60.7</ele>
        <time>2021-09-21T09:47:54Z</time>
      </trkpt>
      <trkpt lat="46.50679" lon="-1.43565">
        <ele>60.6</ele>
        <time>2021-09-21T09:47:55Z</time>
      </trkpt>
      <trkpt lat="46.50679" lon="-1.43563">
        <ele>60.6</ele>
        <time>2021-09-21T09:47:56Z</time>
      </trkpt>
      <trkpt lat="46.5068" lon="-1.43561">
        <ele>60.6</ele>
        <time>2021-09-21T09:47:57Z</time>
      </trkpt>
      <trkpt lat="46.5068" lon="-1.4356">
        <ele>60.6</ele>
        <time>2021-09-21T09:47:58Z</time>
      </trkpt>
      <trkpt lat="46.50681" lon="-1.43558">
        <ele>60.6</ele>
        <time>2021-09-21T09:47:59Z</time>
      </trkpt>
      <trkpt lat="46.50681" lon="-1.43556">
        <ele>60.6</ele>
        <time>2021-09-21T09:48:00Z</time>
      </trkpt>
      <trkpt lat="46.50682" lon="-1.43554">
        <ele>60.5</ele>
        <time>2021-09-21T09:48:01Z</time>
      </trkpt>
      <trkpt lat="46.50682" lon="-1.43552">
        <ele>60.5</ele>
        <time>2021-09-21T09:48:02Z</time>
      </trkpt>
      <trkpt lat="46.50683" lon="-1.43551">
        <ele>60.5</ele>
        <time>2021-09-21T09:48:03Z</time>
      </trkpt>
      <trkpt lat="46.50683" lon="-1.43549">
        <ele>60.5</ele>
        <time>2021-09-21T09:48:04Z</time>
      </trkpt>
      <trkpt lat="46.50683" lon="-1.43547">
        <ele>60.5</ele>
        <time>2021-09-21T09:48:05Z</time>
      </trkpt>
      <trkpt lat="46.50684" lon="-1.43545">
        <ele>60.5</ele>
        <time>2021-09-21T09:48:06Z</time>
      </trkpt>
      <trkpt lat="46.50684" lon="-1.43543">
        <ele>60.4</ele>
        <time>2021-09-21T09:48:07Z</time>
      </trkpt>
      <trkpt lat="46.50684" lon="-1.43542">
        <ele>60.4</ele>
        <time>2021-09-21T09:48:08Z</time>
      </trkpt>
      <trkpt lat="46.50685" lon="-1.4354">
        <ele>60.4</ele>
        <time>2021-09-21T09:48:09Z</time>
      </trkpt>
      <trkpt lat="46.50685" lon="-1.43538">
        <ele>60.4</ele>
        <time>2021-09-21T09:48:10Z</time>
      </trkpt>
      <trkpt lat="46.50685" lon="-1.43537">
        <ele>60.4</ele>
        <time>2021-09-21T09:48:11Z</time>
      </trkpt>
      <trkpt lat="46.50685" lon="-1.43535">
        <ele>60.4</ele>
        <time>2021-09-21T09:48:12Z</time>
      </trkpt>
      <trkpt lat="46.50686" lon="-1.43534">
        <ele>60.3</ele>
        <time>2021-09-21T09:48:13Z</time>
      </trkpt>
      <trkpt lat="46.50686" lon="-1.43533">
        <ele>60.3</ele>
        <time>2021-09-21T09:48:14Z</time>
      </trkpt>
      <trkpt lat="46.50686" lon="-1.43531">
        <ele>60.3</ele>
        <time>2021-09-21T09:48:15Z</time>
      </trkpt>
      <trkpt lat="46.50686" lon="-1.4353">
        <ele>60.3</ele>
        <time>2021-09-21T09:48:16Z</time>
      </trkpt>
      <trkpt lat="46.50687" lon="-1.43528">
        <ele>60.3</ele>
        <time>2021-09-21T09:48:17Z</time>
      </trkpt>
      <trkpt lat="46.50688" lon="-1.43527">
        <ele>60.2</ele>
        <time>2021-09-21T09:48:18Z</time>
      </trkpt>
      <trkpt lat="46.50688" lon="-1.43525">
        <ele>60.2</ele>
        <time>2021-09-21T09:48:19Z</time>
      </trkpt>
      <trkpt lat="46.50689" lon="-1.43524">
        <ele>60.2</ele>
        <time>2021-09-21T09:48:20Z</time>
      </trkpt>
      <trkpt lat="46.5069" lon="-1.43522">
        <ele>60.2</ele>
        <time>2021-09-21T09:48:21Z</time>
      </trkpt>
      <trkpt lat="46.5069" lon="-1.43521">
        <ele>60.2</ele>
        <time>2021-09-21T09:48:22Z</time>
      </trkpt>
      <trkpt lat="46.50691" lon="-1.43519">
        <ele>60.1</ele>
        <time>2021-09-21T09:48:23Z</time>
      </trkpt>
      <trkpt lat="46.50692" lon="-1.43518">
        <ele>60.1</ele>
        <time>2021-09-21T09:48:24Z</time>
      </trkpt>
      <trkpt lat="46.50692" lon="-1.43516">
        <ele>60.1</ele>
        <time>2021-09-21T09:48:25Z</time>
      </trkpt>
      <trkpt lat="46.50693" lon="-1.43514">
        <ele>60.1</ele>
        <time>2021-09-21T09:48:26Z</time>
      </trkpt>
      <trkpt lat="46.50694" lon="-1.43513">
        <ele>60.1</ele>
        <time>2021-09-21T09:48:27Z</time>
      </trkpt>
      <trkpt lat="46.50694" lon="-1.43511">
        <ele>60</ele>
        <time>2021-09-21T09:48:28Z</time>
      </trkpt>
      <trkpt lat="46.50695" lon="-1.43509">
        <ele>60</ele>
        <time>2021-09-21T09:48:29Z</time>
      </trkpt>
      <trkpt lat="46.50695" lon="-1.43507">
        <ele>60</ele>
        <time>2021-09-21T09:48:30Z</time>
      </trkpt>
      <trkpt lat="46.50696" lon="-1.43506">
        <ele>60</ele>
        <time>2021-09-21T09:48:31Z</time>
      </trkpt>
      <trkpt lat="46.50696" lon="-1.43504">
        <ele>60</ele>
        <time>2021-09-21T09:48:32Z</time>
      </trkpt>
      <trkpt lat="46.50696" lon="-1.43502">
        <ele>60</ele>
        <time>2021-09-21T09:48:33Z</time>
      </trkpt>
      <trkpt lat="46.50696" lon="-1.435">
        <ele>60</ele>
        <time>2021-09-21T09:48:34Z</time>
      </trkpt>
      <trkpt lat="46.50696" lon="-1.43499">
        <ele>59.9</ele>
        <time>2021-09-21T09:48:35Z</time>
      </trkpt>
      <trkpt lat="46.50696" lon="-1.43497">
        <ele>59.9</ele>
        <time>2021-09-21T09:48:36Z</time>
      </trkpt>
      <trkpt lat="46.50696" lon="-1.43496">
        <ele>59.9</ele>
        <time>2021-09-21T09:48:37Z</time>
      </trkpt>
      <trkpt lat="46.50696" lon="-1.43494">
        <ele>59.9</ele>
        <time>2021-09-21T09:48:38Z</time>
      </trkpt>
      <trkpt lat="46.50696" lon="-1.43492">
        <ele>59.9</ele>
        <time>2021-09-21T09:48:39Z</time>
      </trkpt>
      <trkpt lat="46.50697" lon="-1.4349">
        <ele>59.9</ele>
        <time>2021-09-21T09:48:40Z</time>
      </trkpt>
      <trkpt lat="46.50697" lon="-1.43488">
        <ele>59.9</ele>
        <time>2021-09-21T09:48:41Z</time>
      </trkpt>
      <trkpt lat="46.50697" lon="-1.43486">
        <ele>59.8</ele>
        <time>2021-09-21T09:48:42Z</time>
      </trkpt>
      <trkpt lat="46.50697" lon="-1.43484">
        <ele>59.8</ele>
        <time>2021-09-21T09:48:43Z</time>
      </trkpt>
      <trkpt lat="46.50697" lon="-1.43483">
        <ele>59.8</ele>
        <time>2021-09-21T09:48:44Z</time>
      </trkpt>
      <trkpt lat="46.50697" lon="-1.43481">
        <ele>59.8</ele>
        <time>2021-09-21T09:48:45Z</time>
      </trkpt>
      <trkpt lat="46.50698" lon="-1.43479">
        <ele>59.8</ele>
        <time>2021-09-21T09:48:46Z</time>
      </trkpt>
      <trkpt lat="46.50698" lon="-1.43477">
        <ele>59.8</ele>
        <time>2021-09-21T09:48:47Z</time>
      </trkpt>
      <trkpt lat="46.50698" lon="-1.43476">
        <ele>59.8</ele>
        <time>2021-09-21T09:48:48Z</time>
      </trkpt>
      <trkpt lat="46.50698" lon="-1.43474">
        <ele>59.8</ele>
        <time>2021-09-21T09:48:49Z</time>
      </trkpt>
      <trkpt lat="46.50698" lon="-1.43473">
        <ele>59.8</ele>
        <time>2021-09-21T09:48:50Z</time>
      </trkpt>
      <trkpt lat="46.50698" lon="-1.43472">
        <ele>59.8</ele>
        <time>2021-09-21T09:48:51Z</time>
      </trkpt>
      <trkpt lat="46.50698" lon="-1.43472">
        <ele>59.8</ele>
        <time>2021-09-21T09:48:52Z</time>
      </trkpt>
      <trkpt lat="46.50698" lon="-1.43471">
        <ele>59.8</ele>
        <time>2021-09-21T09:48:53Z</time>
      </trkpt>
      <trkpt lat="46.50698" lon="-1.43471">
        <ele>59.8</ele>
        <time>2021-09-21T09:48:54Z</time>
      </trkpt>
      <trkpt lat="46.50698" lon="-1.43471">
        <ele>59.8</ele>
        <time>2021-09-21T09:48:55Z</time>
      </trkpt>
      <trkpt lat="46.50698" lon="-1.4347">
        <ele>59.8</ele>
        <time>2021-09-21T09:48:56Z</time>
      </trkpt>
      <trkpt lat="46.50699" lon="-1.4347">
        <ele>59.8</ele>
        <time>2021-09-21T09:48:57Z</time>
      </trkpt>
      <trkpt lat="46.50699" lon="-1.43469">
        <ele>59.8</ele>
        <time>2021-09-21T09:48:58Z</time>
      </trkpt>
      <trkpt lat="46.507" lon="-1.43467">
        <ele>59.8</ele>
        <time>2021-09-21T09:48:59Z</time>
      </trkpt>
      <trkpt lat="46.507" lon="-1.43466">
        <ele>59.9</ele>
        <time>2021-09-21T09:49:00Z</time>
      </trkpt>
      <trkpt lat="46.50701" lon="-1.43464">
        <ele>59.9</ele>
        <time>2021-09-21T09:49:01Z</time>
      </trkpt>
      <trkpt lat="46.50701" lon="-1.43463">
        <ele>59.9</ele>
        <time>2021-09-21T09:49:02Z</time>
      </trkpt>
      <trkpt lat="46.50702" lon="-1.43461">
        <ele>59.8</ele>
        <time>2021-09-21T09:49:03Z</time>
      </trkpt>
      <trkpt lat="46.50703" lon="-1.4346">
        <ele>59.8</ele>
        <time>2021-09-21T09:49:04Z</time>
      </trkpt>
      <trkpt lat="46.50703" lon="-1.43459">
        <ele>59.8</ele>
        <time>2021-09-21T09:49:05Z</time>
      </trkpt>
      <trkpt lat="46.50704" lon="-1.43457">
        <ele>59.9</ele>
        <time>2021-09-21T09:49:06Z</time>
      </trkpt>
      <trkpt lat="46.50704" lon="-1.43456">
        <ele>59.9</ele>
        <time>2021-09-21T09:49:07Z</time>
      </trkpt>
      <trkpt lat="46.50705" lon="-1.43455">
        <ele>59.9</ele>
        <time>2021-09-21T09:49:08Z</time>
      </trkpt>
      <trkpt lat="46.50705" lon="-1.43454">
        <ele>59.8</ele>
        <time>2021-09-21T09:49:09Z</time>
      </trkpt>
      <trkpt lat="46.50706" lon="-1.43452">
        <ele>59.8</ele>
        <time>2021-09-21T09:49:10Z</time>
      </trkpt>
      <trkpt lat="46.50706" lon="-1.43451">
        <ele>59.8</ele>
        <time>2021-09-21T09:49:11Z</time>
      </trkpt>
      <trkpt lat="46.50706" lon="-1.4345">
        <ele>59.8</ele>
        <time>2021-09-21T09:49:12Z</time>
      </trkpt>
      <trkpt lat="46.50707" lon="-1.43448">
        <ele>59.9</ele>
        <time>2021-09-21T09:49:13Z</time>
      </trkpt>
      <trkpt lat="46.50707" lon="-1.43447">
        <ele>59.9</ele>
        <time>2021-09-21T09:49:14Z</time>
      </trkpt>
      <trkpt lat="46.50708" lon="-1.43445">
        <ele>59.8</ele>
        <time>2021-09-21T09:49:15Z</time>
      </trkpt>
      <trkpt lat="46.50708" lon="-1.43443">
        <ele>59.8</ele>
        <time>2021-09-21T09:49:16Z</time>
      </trkpt>
      <trkpt lat="46.50709" lon="-1.43442">
        <ele>59.9</ele>
        <time>2021-09-21T09:49:17Z</time>
      </trkpt>
      <trkpt lat="46.5071" lon="-1.4344">
        <ele>59.9</ele>
        <time>2021-09-21T09:49:18Z</time>
      </trkpt>
      <trkpt lat="46.5071" lon="-1.43438">
        <ele>59.9</ele>
        <time>2021-09-21T09:49:19Z</time>
      </trkpt>
      <trkpt lat="46.50711" lon="-1.43437">
        <ele>59.9</ele>
        <time>2021-09-21T09:49:20Z</time>
      </trkpt>
      <trkpt lat="46.50711" lon="-1.43435">
        <ele>59.9</ele>
        <time>2021-09-21T09:49:21Z</time>
      </trkpt>
      <trkpt lat="46.50712" lon="-1.43434">
        <ele>59.9</ele>
        <time>2021-09-21T09:49:22Z</time>
      </trkpt>
      <trkpt lat="46.50712" lon="-1.43432">
        <ele>59.9</ele>
        <time>2021-09-21T09:49:23Z</time>
      </trkpt>
      <trkpt lat="46.50713" lon="-1.43431">
        <ele>59.9</ele>
        <time>2021-09-21T09:49:24Z</time>
      </trkpt>
      <trkpt lat="46.50713" lon="-1.4343">
        <ele>59.9</ele>
        <time>2021-09-21T09:49:25Z</time>
      </trkpt>
      <trkpt lat="46.50714" lon="-1.43429">
        <ele>59.9</ele>
        <time>2021-09-21T09:49:26Z</time>
      </trkpt>
      <trkpt lat="46.50714" lon="-1.43428">
        <ele>59.8</ele>
        <time>2021-09-21T09:49:27Z</time>
      </trkpt>
      <trkpt lat="46.50714" lon="-1.43427">
        <ele>59.8</ele>
        <time>2021-09-21T09:49:28Z</time>
      </trkpt>
      <trkpt lat="46.50715" lon="-1.43426">
        <ele>59.8</ele>
        <time>2021-09-21T09:49:29Z</time>
      </trkpt>
      <trkpt lat="46.50715" lon="-1.43424">
        <ele>59.9</ele>
        <time>2021-09-21T09:49:30Z</time>
      </trkpt>
      <trkpt lat="46.50716" lon="-1.43423">
        <ele>59.9</ele>
        <time>2021-09-21T09:49:31Z</time>
      </trkpt>
      <trkpt lat="46.50717" lon="-1.43421">
        <ele>59.8</ele>
        <time>2021-09-21T09:49:32Z</time>
      </trkpt>
      <trkpt lat="46.50717" lon="-1.4342">
        <ele>59.8</ele>
        <time>2021-09-21T09:49:33Z</time>
      </trkpt>
      <trkpt lat="46.50718" lon="-1.43418">
        <ele>59.8</ele>
        <time>2021-09-21T09:49:34Z</time>
      </trkpt>
      <trkpt lat="46.50719" lon="-1.43416">
        <ele>59.8</ele>
        <time>2021-09-21T09:49:35Z</time>
      </trkpt>
      <trkpt lat="46.50719" lon="-1.43414">
        <ele>59.9</ele>
        <time>2021-09-21T09:49:36Z</time>
      </trkpt>
      <trkpt lat="46.5072" lon="-1.43412">
        <ele>59.8</ele>
        <time>2021-09-21T09:49:37Z</time>
      </trkpt>
      <trkpt lat="46.50721" lon="-1.4341">
        <ele>59.9</ele>
        <time>2021-09-21T09:49:38Z</time>
      </trkpt>
      <trkpt lat="46.50722" lon="-1.43408">
        <ele>59.9</ele>
        <time>2021-09-21T09:49:39Z</time>
      </trkpt>
      <trkpt lat="46.50723" lon="-1.43406">
        <ele>60</ele>
        <time>2021-09-21T09:49:40Z</time>
      </trkpt>
      <trkpt lat="46.50723" lon="-1.43404">
        <ele>60</ele>
        <time>2021-09-21T09:49:41Z</time>
      </trkpt>
      <trkpt lat="46.50724" lon="-1.43402">
        <ele>60</ele>
        <time>2021-09-21T09:49:42Z</time>
      </trkpt>
      <trkpt lat="46.50725" lon="-1.434">
        <ele>60.2</ele>
        <time>2021-09-21T09:49:43Z</time>
      </trkpt>
      <trkpt lat="46.50726" lon="-1.43398">
        <ele>60.1</ele>
        <time>2021-09-21T09:49:44Z</time>
      </trkpt>
      <trkpt lat="46.50727" lon="-1.43396">
        <ele>60.3</ele>
        <time>2021-09-21T09:49:45Z</time>
      </trkpt>
      <trkpt lat="46.50727" lon="-1.43394">
        <ele>60.3</ele>
        <time>2021-09-21T09:49:46Z</time>
      </trkpt>
      <trkpt lat="46.50728" lon="-1.43393">
        <ele>60.4</ele>
        <time>2021-09-21T09:49:47Z</time>
      </trkpt>
      <trkpt lat="46.50729" lon="-1.43391">
        <ele>60.4</ele>
        <time>2021-09-21T09:49:48Z</time>
      </trkpt>
      <trkpt lat="46.50729" lon="-1.43389">
        <ele>60.4</ele>
        <time>2021-09-21T09:49:49Z</time>
      </trkpt>
      <trkpt lat="46.5073" lon="-1.43387">
        <ele>60.5</ele>
        <time>2021-09-21T09:49:50Z</time>
      </trkpt>
      <trkpt lat="46.50731" lon="-1.43386">
        <ele>60.5</ele>
        <time>2021-09-21T09:49:51Z</time>
      </trkpt>
      <trkpt lat="46.50731" lon="-1.43384">
        <ele>60.4</ele>
        <time>2021-09-21T09:49:52Z</time>
      </trkpt>
      <trkpt lat="46.50732" lon="-1.43382">
        <ele>60.4</ele>
        <time>2021-09-21T09:49:53Z</time>
      </trkpt>
      <trkpt lat="46.50733" lon="-1.43381">
        <ele>60.5</ele>
        <time>2021-09-21T09:49:54Z</time>
      </trkpt>
      <trkpt lat="46.50733" lon="-1.43379">
        <ele>60.3</ele>
        <time>2021-09-21T09:49:55Z</time>
      </trkpt>
      <trkpt lat="46.50734" lon="-1.43377">
        <ele>60.3</ele>
        <time>2021-09-21T09:49:56Z</time>
      </trkpt>
      <trkpt lat="46.50734" lon="-1.43375">
        <ele>60.1</ele>
        <time>2021-09-21T09:49:57Z</time>
      </trkpt>
      <trkpt lat="46.50735" lon="-1.43374">
        <ele>60.1</ele>
        <time>2021-09-21T09:49:58Z</time>
      </trkpt>
      <trkpt lat="46.50735" lon="-1.43372">
        <ele>60.1</ele>
        <time>2021-09-21T09:49:59Z</time>
      </trkpt>
      <trkpt lat="46.50735" lon="-1.4337">
        <ele>59.7</ele>
        <time>2021-09-21T09:50:00Z</time>
      </trkpt>
      <trkpt lat="46.50736" lon="-1.43369">
        <ele>59.7</ele>
        <time>2021-09-21T09:50:01Z</time>
      </trkpt>
      <trkpt lat="46.50736" lon="-1.43367">
        <ele>59.3</ele>
        <time>2021-09-21T09:50:02Z</time>
      </trkpt>
      <trkpt lat="46.50737" lon="-1.43366">
        <ele>59.3</ele>
        <time>2021-09-21T09:50:03Z</time>
      </trkpt>
      <trkpt lat="46.50737" lon="-1.43364">
        <ele>59.3</ele>
        <time>2021-09-21T09:50:04Z</time>
      </trkpt>
      <trkpt lat="46.50738" lon="-1.43362">
        <ele>59</ele>
        <time>2021-09-21T09:50:05Z</time>
      </trkpt>
      <trkpt lat="46.50738" lon="-1.43361">
        <ele>59</ele>
        <time>2021-09-21T09:50:06Z</time>
      </trkpt>
      <trkpt lat="46.50739" lon="-1.43359">
        <ele>59</ele>
        <time>2021-09-21T09:50:07Z</time>
      </trkpt>
      <trkpt lat="46.50739" lon="-1.43357">
        <ele>58.5</ele>
        <time>2021-09-21T09:50:08Z</time>
      </trkpt>
      <trkpt lat="46.5074" lon="-1.43356">
        <ele>58.5</ele>
        <time>2021-09-21T09:50:09Z</time>
      </trkpt>
      <trkpt lat="46.5074" lon="-1.43354">
        <ele>58.1</ele>
        <time>2021-09-21T09:50:10Z</time>
      </trkpt>
      <trkpt lat="46.50741" lon="-1.43353">
        <ele>58.4</ele>
        <time>2021-09-21T09:50:11Z</time>
      </trkpt>
      <trkpt lat="46.50741" lon="-1.43351">
        <ele>58.4</ele>
        <time>2021-09-21T09:50:12Z</time>
      </trkpt>
      <trkpt lat="46.50742" lon="-1.4335">
        <ele>58.1</ele>
        <time>2021-09-21T09:50:13Z</time>
      </trkpt>
      <trkpt lat="46.50742" lon="-1.43348">
        <ele>58.1</ele>
        <time>2021-09-21T09:50:14Z</time>
      </trkpt>
      <trkpt lat="46.50743" lon="-1.43346">
        <ele>58.1</ele>
        <time>2021-09-21T09:50:15Z</time>
      </trkpt>
      <trkpt lat="46.50743" lon="-1.43345">
        <ele>58.3</ele>
        <time>2021-09-21T09:50:16Z</time>
      </trkpt>
      <trkpt lat="46.50744" lon="-1.43343">
        <ele>58.3</ele>
        <time>2021-09-21T09:50:17Z</time>
      </trkpt>
      <trkpt lat="46.50745" lon="-1.43342">
        <ele>58.3</ele>
        <time>2021-09-21T09:50:18Z</time>
      </trkpt>
      <trkpt lat="46.50745" lon="-1.4334">
        <ele>58.3</ele>
        <time>2021-09-21T09:50:19Z</time>
      </trkpt>
      <trkpt lat="46.50746" lon="-1.43339">
        <ele>58.3</ele>
        <time>2021-09-21T09:50:20Z</time>
      </trkpt>
      <trkpt lat="46.50747" lon="-1.43337">
        <ele>58.8</ele>
        <time>2021-09-21T09:50:21Z</time>
      </trkpt>
      <trkpt lat="46.50748" lon="-1.43336">
        <ele>58.8</ele>
        <time>2021-09-21T09:50:22Z</time>
      </trkpt>
      <trkpt lat="46.50748" lon="-1.43334">
        <ele>58.8</ele>
        <time>2021-09-21T09:50:23Z</time>
      </trkpt>
      <trkpt lat="46.50749" lon="-1.43333">
        <ele>59.4</ele>
        <time>2021-09-21T09:50:24Z</time>
      </trkpt>
      <trkpt lat="46.50751" lon="-1.43331">
        <ele>59.4</ele>
        <time>2021-09-21T09:50:25Z</time>
      </trkpt>
      <trkpt lat="46.50752" lon="-1.4333">
        <ele>59.4</ele>
        <time>2021-09-21T09:50:26Z</time>
      </trkpt>
      <trkpt lat="46.50753" lon="-1.43329">
        <ele>59.8</ele>
        <time>2021-09-21T09:50:27Z</time>
      </trkpt>
      <trkpt lat="46.50754" lon="-1.43327">
        <ele>59.8</ele>
        <time>2021-09-21T09:50:28Z</time>
      </trkpt>
      <trkpt lat="46.50755" lon="-1.43326">
        <ele>59.9</ele>
        <time>2021-09-21T09:50:29Z</time>
      </trkpt>
      <trkpt lat="46.50756" lon="-1.43324">
        <ele>60.1</ele>
        <time>2021-09-21T09:50:30Z</time>
      </trkpt>
      <trkpt lat="46.50757" lon="-1.43322">
        <ele>60.2</ele>
        <time>2021-09-21T09:50:31Z</time>
      </trkpt>
      <trkpt lat="46.50758" lon="-1.4332">
        <ele>59.9</ele>
        <time>2021-09-21T09:50:32Z</time>
      </trkpt>
      <trkpt lat="46.50758" lon="-1.43318">
        <ele>60.2</ele>
        <time>2021-09-21T09:50:33Z</time>
      </trkpt>
      <trkpt lat="46.50759" lon="-1.43316">
        <ele>60.2</ele>
        <time>2021-09-21T09:50:34Z</time>
      </trkpt>
      <trkpt lat="46.50759" lon="-1.43314">
        <ele>59.9</ele>
        <time>2021-09-21T09:50:35Z</time>
      </trkpt>
      <trkpt lat="46.5076" lon="-1.43312">
        <ele>59.4</ele>
        <time>2021-09-21T09:50:36Z</time>
      </trkpt>
      <trkpt lat="46.5076" lon="-1.43309">
        <ele>59.4</ele>
        <time>2021-09-21T09:50:37Z</time>
      </trkpt>
      <trkpt lat="46.50761" lon="-1.43307">
        <ele>59.4</ele>
        <time>2021-09-21T09:50:38Z</time>
      </trkpt>
      <trkpt lat="46.50761" lon="-1.43306">
        <ele>59</ele>
        <time>2021-09-21T09:50:39Z</time>
      </trkpt>
      <trkpt lat="46.50761" lon="-1.43304">
        <ele>59</ele>
        <time>2021-09-21T09:50:40Z</time>
      </trkpt>
      <trkpt lat="46.50762" lon="-1.43302">
        <ele>58.4</ele>
        <time>2021-09-21T09:50:41Z</time>
      </trkpt>
      <trkpt lat="46.50762" lon="-1.43301">
        <ele>58.4</ele>
        <time>2021-09-21T09:50:42Z</time>
      </trkpt>
      <trkpt lat="46.50763" lon="-1.43299">
        <ele>58.4</ele>
        <time>2021-09-21T09:50:43Z</time>
      </trkpt>
      <trkpt lat="46.50763" lon="-1.43298">
        <ele>57.9</ele>
        <time>2021-09-21T09:50:44Z</time>
      </trkpt>
      <trkpt lat="46.50764" lon="-1.43297">
        <ele>57.9</ele>
        <time>2021-09-21T09:50:45Z</time>
      </trkpt>
      <trkpt lat="46.50764" lon="-1.43296">
        <ele>58.1</ele>
        <time>2021-09-21T09:50:46Z</time>
      </trkpt>
      <trkpt lat="46.50765" lon="-1.43294">
        <ele>58.1</ele>
        <time>2021-09-21T09:50:47Z</time>
      </trkpt>
      <trkpt lat="46.50766" lon="-1.43293">
        <ele>57.7</ele>
        <time>2021-09-21T09:50:48Z</time>
      </trkpt>
      <trkpt lat="46.50766" lon="-1.43292">
        <ele>57.7</ele>
        <time>2021-09-21T09:50:49Z</time>
      </trkpt>
      <trkpt lat="46.50767" lon="-1.43291">
        <ele>58.1</ele>
        <time>2021-09-21T09:50:50Z</time>
      </trkpt>
      <trkpt lat="46.50768" lon="-1.4329">
        <ele>58.1</ele>
        <time>2021-09-21T09:50:51Z</time>
      </trkpt>
      <trkpt lat="46.50769" lon="-1.43289">
        <ele>57.8</ele>
        <time>2021-09-21T09:50:52Z</time>
      </trkpt>
      <trkpt lat="46.50769" lon="-1.43288">
        <ele>57.8</ele>
        <time>2021-09-21T09:50:53Z</time>
      </trkpt>
      <trkpt lat="46.5077" lon="-1.43288">
        <ele>58.2</ele>
        <time>2021-09-21T09:50:54Z</time>
      </trkpt>
      <trkpt lat="46.50771" lon="-1.43287">
        <ele>58.2</ele>
        <time>2021-09-21T09:50:55Z</time>
      </trkpt>
      <trkpt lat="46.50772" lon="-1.43286">
        <ele>58.1</ele>
        <time>2021-09-21T09:50:56Z</time>
      </trkpt>
      <trkpt lat="46.50773" lon="-1.43284">
        <ele>58.6</ele>
        <time>2021-09-21T09:50:57Z</time>
      </trkpt>
      <trkpt lat="46.50774" lon="-1.43283">
        <ele>58.6</ele>
        <time>2021-09-21T09:50:58Z</time>
      </trkpt>
      <trkpt lat="46.50775" lon="-1.43282">
        <ele>58.6</ele>
        <time>2021-09-21T09:50:59Z</time>
      </trkpt>
      <trkpt lat="46.50776" lon="-1.43281">
        <ele>59.1</ele>
        <time>2021-09-21T09:51:00Z</time>
      </trkpt>
      <trkpt lat="46.50777" lon="-1.4328">
        <ele>59.1</ele>
        <time>2021-09-21T09:51:01Z</time>
      </trkpt>
      <trkpt lat="46.50779" lon="-1.43279">
        <ele>59.1</ele>
        <time>2021-09-21T09:51:02Z</time>
      </trkpt>
      <trkpt lat="46.5078" lon="-1.43278">
        <ele>59.6</ele>
        <time>2021-09-21T09:51:03Z</time>
      </trkpt>
      <trkpt lat="46.50781" lon="-1.43277">
        <ele>59.6</ele>
        <time>2021-09-21T09:51:04Z</time>
      </trkpt>
      <trkpt lat="46.50782" lon="-1.43276">
        <ele>59.6</ele>
        <time>2021-09-21T09:51:05Z</time>
      </trkpt>
      <trkpt lat="46.50782" lon="-1.43274">
        <ele>60.1</ele>
        <time>2021-09-21T09:51:06Z</time>
      </trkpt>
      <trkpt lat="46.50783" lon="-1.43273">
        <ele>60.1</ele>
        <time>2021-09-21T09:51:07Z</time>
      </trkpt>
      <trkpt lat="46.50784" lon="-1.43272">
        <ele>60.2</ele>
        <time>2021-09-21T09:51:08Z</time>
      </trkpt>
      <trkpt lat="46.50785" lon="-1.43271">
        <ele>60.6</ele>
        <time>2021-09-21T09:51:09Z</time>
      </trkpt>
      <trkpt lat="46.50786" lon="-1.43269">
        <ele>60.6</ele>
        <time>2021-09-21T09:51:10Z</time>
      </trkpt>
      <trkpt lat="46.50786" lon="-1.43268">
        <ele>60.7</ele>
        <time>2021-09-21T09:51:11Z</time>
      </trkpt>
      <trkpt lat="46.50787" lon="-1.43267">
        <ele>60.7</ele>
        <time>2021-09-21T09:51:12Z</time>
      </trkpt>
      <trkpt lat="46.50787" lon="-1.43265">
        <ele>60.7</ele>
        <time>2021-09-21T09:51:13Z</time>
      </trkpt>
      <trkpt lat="46.50788" lon="-1.43264">
        <ele>61.1</ele>
        <time>2021-09-21T09:51:14Z</time>
      </trkpt>
      <trkpt lat="46.50788" lon="-1.43262">
        <ele>61.1</ele>
        <time>2021-09-21T09:51:15Z</time>
      </trkpt>
      <trkpt lat="46.50789" lon="-1.43261">
        <ele>61.1</ele>
        <time>2021-09-21T09:51:16Z</time>
      </trkpt>
      <trkpt lat="46.50789" lon="-1.43259">
        <ele>61.1</ele>
        <time>2021-09-21T09:51:17Z</time>
      </trkpt>
      <trkpt lat="46.5079" lon="-1.43258">
        <ele>61.1</ele>
        <time>2021-09-21T09:51:18Z</time>
      </trkpt>
      <trkpt lat="46.5079" lon="-1.43256">
        <ele>61.1</ele>
        <time>2021-09-21T09:51:19Z</time>
      </trkpt>
      <trkpt lat="46.5079" lon="-1.43255">
        <ele>61.1</ele>
        <time>2021-09-21T09:51:20Z</time>
      </trkpt>
      <trkpt lat="46.50791" lon="-1.43253">
        <ele>61.4</ele>
        <time>2021-09-21T09:51:21Z</time>
      </trkpt>
      <trkpt lat="46.50791" lon="-1.43251">
        <ele>61.4</ele>
        <time>2021-09-21T09:51:22Z</time>
      </trkpt>
      <trkpt lat="46.50791" lon="-1.4325">
        <ele>61.4</ele>
        <time>2021-09-21T09:51:23Z</time>
      </trkpt>
      <trkpt lat="46.50792" lon="-1.43248">
        <ele>61.4</ele>
        <time>2021-09-21T09:51:24Z</time>
      </trkpt>
      <trkpt lat="46.50792" lon="-1.43247">
        <ele>61.4</ele>
        <time>2021-09-21T09:51:25Z</time>
      </trkpt>
      <trkpt lat="46.50793" lon="-1.43245">
        <ele>61.5</ele>
        <time>2021-09-21T09:51:26Z</time>
      </trkpt>
      <trkpt lat="46.50793" lon="-1.43243">
        <ele>61.5</ele>
        <time>2021-09-21T09:51:27Z</time>
      </trkpt>
      <trkpt lat="46.50794" lon="-1.43242">
        <ele>61.7</ele>
        <time>2021-09-21T09:51:28Z</time>
      </trkpt>
      <trkpt lat="46.50794" lon="-1.4324">
        <ele>61.7</ele>
        <time>2021-09-21T09:51:29Z</time>
      </trkpt>
      <trkpt lat="46.50795" lon="-1.43238">
        <ele>61.7</ele>
        <time>2021-09-21T09:51:30Z</time>
      </trkpt>
      <trkpt lat="46.50795" lon="-1.43237">
        <ele>61.7</ele>
        <time>2021-09-21T09:51:31Z</time>
      </trkpt>
      <trkpt lat="46.50796" lon="-1.43235">
        <ele>61.7</ele>
        <time>2021-09-21T09:51:32Z</time>
      </trkpt>
      <trkpt lat="46.50796" lon="-1.43233">
        <ele>61.6</ele>
        <time>2021-09-21T09:51:33Z</time>
      </trkpt>
      <trkpt lat="46.50797" lon="-1.43232">
        <ele>61.8</ele>
        <time>2021-09-21T09:51:34Z</time>
      </trkpt>
      <trkpt lat="46.50797" lon="-1.4323">
        <ele>61.8</ele>
        <time>2021-09-21T09:51:35Z</time>
      </trkpt>
      <trkpt lat="46.50798" lon="-1.43228">
        <ele>61.8</ele>
        <time>2021-09-21T09:51:36Z</time>
      </trkpt>
      <trkpt lat="46.50798" lon="-1.43226">
        <ele>61.8</ele>
        <time>2021-09-21T09:51:37Z</time>
      </trkpt>
      <trkpt lat="46.50799" lon="-1.43224">
        <ele>61.7</ele>
        <time>2021-09-21T09:51:38Z</time>
      </trkpt>
      <trkpt lat="46.50799" lon="-1.43223">
        <ele>61.7</ele>
        <time>2021-09-21T09:51:39Z</time>
      </trkpt>
      <trkpt lat="46.508" lon="-1.43221">
        <ele>61.8</ele>
        <time>2021-09-21T09:51:40Z</time>
      </trkpt>
      <trkpt lat="46.508" lon="-1.43219">
        <ele>61.8</ele>
        <time>2021-09-21T09:51:41Z</time>
      </trkpt>
      <trkpt lat="46.508" lon="-1.43217">
        <ele>61.8</ele>
        <time>2021-09-21T09:51:42Z</time>
      </trkpt>
      <trkpt lat="46.50801" lon="-1.43215">
        <ele>61.8</ele>
        <time>2021-09-21T09:51:43Z</time>
      </trkpt>
      <trkpt lat="46.50801" lon="-1.43214">
        <ele>61.8</ele>
        <time>2021-09-21T09:51:44Z</time>
      </trkpt>
      <trkpt lat="46.50802" lon="-1.43212">
        <ele>61.7</ele>
        <time>2021-09-21T09:51:45Z</time>
      </trkpt>
      <trkpt lat="46.50802" lon="-1.4321">
        <ele>61.8</ele>
        <time>2021-09-21T09:51:46Z</time>
      </trkpt>
      <trkpt lat="46.50803" lon="-1.43208">
        <ele>61.7</ele>
        <time>2021-09-21T09:51:47Z</time>
      </trkpt>
      <trkpt lat="46.50803" lon="-1.43206">
        <ele>61.7</ele>
        <time>2021-09-21T09:51:48Z</time>
      </trkpt>
      <trkpt lat="46.50804" lon="-1.43205">
        <ele>61.7</ele>
        <time>2021-09-21T09:51:49Z</time>
      </trkpt>
      <trkpt lat="46.50804" lon="-1.43203">
        <ele>61.6</ele>
        <time>2021-09-21T09:51:50Z</time>
      </trkpt>
      <trkpt lat="46.50805" lon="-1.43201">
        <ele>61.6</ele>
        <time>2021-09-21T09:51:51Z</time>
      </trkpt>
      <trkpt lat="46.50805" lon="-1.432">
        <ele>61.5</ele>
        <time>2021-09-21T09:51:52Z</time>
      </trkpt>
      <trkpt lat="46.50805" lon="-1.43198">
        <ele>61.6</ele>
        <time>2021-09-21T09:51:53Z</time>
      </trkpt>
      <trkpt lat="46.50806" lon="-1.43197">
        <ele>61.6</ele>
        <time>2021-09-21T09:51:54Z</time>
      </trkpt>
      <trkpt lat="46.50806" lon="-1.43195">
        <ele>61.5</ele>
        <time>2021-09-21T09:51:55Z</time>
      </trkpt>
      <trkpt lat="46.50807" lon="-1.43194">
        <ele>61.5</ele>
        <time>2021-09-21T09:51:56Z</time>
      </trkpt>
      <trkpt lat="46.50807" lon="-1.43192">
        <ele>61.5</ele>
        <time>2021-09-21T09:51:57Z</time>
      </trkpt>
      <trkpt lat="46.50808" lon="-1.43191">
        <ele>61.4</ele>
        <time>2021-09-21T09:51:58Z</time>
      </trkpt>
      <trkpt lat="46.50808" lon="-1.4319">
        <ele>61.4</ele>
        <time>2021-09-21T09:51:59Z</time>
      </trkpt>
      <trkpt lat="46.50809" lon="-1.43188">
        <ele>61.4</ele>
        <time>2021-09-21T09:52:00Z</time>
      </trkpt>
      <trkpt lat="46.5081" lon="-1.43187">
        <ele>61.3</ele>
        <time>2021-09-21T09:52:01Z</time>
      </trkpt>
      <trkpt lat="46.50811" lon="-1.43185">
        <ele>61.3</ele>
        <time>2021-09-21T09:52:02Z</time>
      </trkpt>
      <trkpt lat="46.50812" lon="-1.43184">
        <ele>61.4</ele>
        <time>2021-09-21T09:52:03Z</time>
      </trkpt>
      <trkpt lat="46.50813" lon="-1.43182">
        <ele>61.2</ele>
        <time>2021-09-21T09:52:04Z</time>
      </trkpt>
      <trkpt lat="46.50813" lon="-1.43181">
        <ele>61.2</ele>
        <time>2021-09-21T09:52:05Z</time>
      </trkpt>
      <trkpt lat="46.50814" lon="-1.43179">
        <ele>61.3</ele>
        <time>2021-09-21T09:52:06Z</time>
      </trkpt>
      <trkpt lat="46.50815" lon="-1.43178">
        <ele>61.2</ele>
        <time>2021-09-21T09:52:07Z</time>
      </trkpt>
      <trkpt lat="46.50816" lon="-1.43176">
        <ele>61.2</ele>
        <time>2021-09-21T09:52:08Z</time>
      </trkpt>
      <trkpt lat="46.50816" lon="-1.43175">
        <ele>61.2</ele>
        <time>2021-09-21T09:52:09Z</time>
      </trkpt>
      <trkpt lat="46.50817" lon="-1.43174">
        <ele>61.1</ele>
        <time>2021-09-21T09:52:10Z</time>
      </trkpt>
      <trkpt lat="46.50817" lon="-1.43173">
        <ele>61.1</ele>
        <time>2021-09-21T09:52:11Z</time>
      </trkpt>
      <trkpt lat="46.50817" lon="-1.43172">
        <ele>61.1</ele>
        <time>2021-09-21T09:52:12Z</time>
      </trkpt>
      <trkpt lat="46.50818" lon="-1.43171">
        <ele>61.1</ele>
        <time>2021-09-21T09:52:13Z</time>
      </trkpt>
      <trkpt lat="46.50818" lon="-1.43169">
        <ele>61</ele>
        <time>2021-09-21T09:52:14Z</time>
      </trkpt>
      <trkpt lat="46.50818" lon="-1.43168">
        <ele>61</ele>
        <time>2021-09-21T09:52:15Z</time>
      </trkpt>
      <trkpt lat="46.50819" lon="-1.43167">
        <ele>61</ele>
        <time>2021-09-21T09:52:16Z</time>
      </trkpt>
      <trkpt lat="46.5082" lon="-1.43166">
        <ele>61</ele>
        <time>2021-09-21T09:52:17Z</time>
      </trkpt>
      <trkpt lat="46.5082" lon="-1.43165">
        <ele>61</ele>
        <time>2021-09-21T09:52:18Z</time>
      </trkpt>
      <trkpt lat="46.50821" lon="-1.43164">
        <ele>61</ele>
        <time>2021-09-21T09:52:19Z</time>
      </trkpt>
      <trkpt lat="46.50822" lon="-1.43163">
        <ele>61</ele>
        <time>2021-09-21T09:52:20Z</time>
      </trkpt>
      <trkpt lat="46.50824" lon="-1.43162">
        <ele>61.1</ele>
        <time>2021-09-21T09:52:21Z</time>
      </trkpt>
      <trkpt lat="46.50825" lon="-1.43161">
        <ele>61.1</ele>
        <time>2021-09-21T09:52:22Z</time>
      </trkpt>
      <trkpt lat="46.50826" lon="-1.4316">
        <ele>61</ele>
        <time>2021-09-21T09:52:23Z</time>
      </trkpt>
      <trkpt lat="46.50827" lon="-1.43159">
        <ele>61.1</ele>
        <time>2021-09-21T09:52:24Z</time>
      </trkpt>
      <trkpt lat="46.50828" lon="-1.43158">
        <ele>61.1</ele>
        <time>2021-09-21T09:52:25Z</time>
      </trkpt>
      <trkpt lat="46.50829" lon="-1.43157">
        <ele>61.3</ele>
        <time>2021-09-21T09:52:26Z</time>
      </trkpt>
      <trkpt lat="46.5083" lon="-1.43156">
        <ele>61.2</ele>
        <time>2021-09-21T09:52:27Z</time>
      </trkpt>
      <trkpt lat="46.50831" lon="-1.43155">
        <ele>61.2</ele>
        <time>2021-09-21T09:52:28Z</time>
      </trkpt>
      <trkpt lat="46.50833" lon="-1.43154">
        <ele>61.4</ele>
        <time>2021-09-21T09:52:29Z</time>
      </trkpt>
      <trkpt lat="46.50834" lon="-1.43153">
        <ele>61.3</ele>
        <time>2021-09-21T09:52:30Z</time>
      </trkpt>
      <trkpt lat="46.50835" lon="-1.43152">
        <ele>61.3</ele>
        <time>2021-09-21T09:52:31Z</time>
      </trkpt>
      <trkpt lat="46.50836" lon="-1.4315">
        <ele>61.5</ele>
        <time>2021-09-21T09:52:32Z</time>
      </trkpt>
      <trkpt lat="46.50837" lon="-1.43149">
        <ele>61.5</ele>
        <time>2021-09-21T09:52:33Z</time>
      </trkpt>
      <trkpt lat="46.50838" lon="-1.43148">
        <ele>61.6</ele>
        <time>2021-09-21T09:52:34Z</time>
      </trkpt>
      <trkpt lat="46.50839" lon="-1.43147">
        <ele>61.6</ele>
        <time>2021-09-21T09:52:35Z</time>
      </trkpt>
      <trkpt lat="46.5084" lon="-1.43145">
        <ele>61.6</ele>
        <time>2021-09-21T09:52:36Z</time>
      </trkpt>
      <trkpt lat="46.50841" lon="-1.43144">
        <ele>61.6</ele>
        <time>2021-09-21T09:52:37Z</time>
      </trkpt>
      <trkpt lat="46.50842" lon="-1.43143">
        <ele>61.7</ele>
        <time>2021-09-21T09:52:38Z</time>
      </trkpt>
      <trkpt lat="46.50843" lon="-1.43141">
        <ele>61.7</ele>
        <time>2021-09-21T09:52:39Z</time>
      </trkpt>
      <trkpt lat="46.50843" lon="-1.4314">
        <ele>61.7</ele>
        <time>2021-09-21T09:52:40Z</time>
      </trkpt>
      <trkpt lat="46.50844" lon="-1.43138">
        <ele>61.8</ele>
        <time>2021-09-21T09:52:41Z</time>
      </trkpt>
      <trkpt lat="46.50845" lon="-1.43137">
        <ele>61.8</ele>
        <time>2021-09-21T09:52:42Z</time>
      </trkpt>
      <trkpt lat="46.50846" lon="-1.43135">
        <ele>61.8</ele>
        <time>2021-09-21T09:52:43Z</time>
      </trkpt>
      <trkpt lat="46.50847" lon="-1.43133">
        <ele>62</ele>
        <time>2021-09-21T09:52:44Z</time>
      </trkpt>
      <trkpt lat="46.50848" lon="-1.43132">
        <ele>62</ele>
        <time>2021-09-21T09:52:45Z</time>
      </trkpt>
      <trkpt lat="46.50848" lon="-1.4313">
        <ele>62</ele>
        <time>2021-09-21T09:52:46Z</time>
      </trkpt>
      <trkpt lat="46.50849" lon="-1.43129">
        <ele>62</ele>
        <time>2021-09-21T09:52:47Z</time>
      </trkpt>
      <trkpt lat="46.5085" lon="-1.43127">
        <ele>62.1</ele>
        <time>2021-09-21T09:52:48Z</time>
      </trkpt>
      <trkpt lat="46.50851" lon="-1.43125">
        <ele>62.1</ele>
        <time>2021-09-21T09:52:49Z</time>
      </trkpt>
      <trkpt lat="46.50851" lon="-1.43124">
        <ele>62.1</ele>
        <time>2021-09-21T09:52:50Z</time>
      </trkpt>
      <trkpt lat="46.50852" lon="-1.43122">
        <ele>62.1</ele>
        <time>2021-09-21T09:52:51Z</time>
      </trkpt>
      <trkpt lat="46.50853" lon="-1.4312">
        <ele>62.2</ele>
        <time>2021-09-21T09:52:52Z</time>
      </trkpt>
      <trkpt lat="46.50853" lon="-1.43119">
        <ele>62.2</ele>
        <time>2021-09-21T09:52:53Z</time>
      </trkpt>
      <trkpt lat="46.50854" lon="-1.43117">
        <ele>62.2</ele>
        <time>2021-09-21T09:52:54Z</time>
      </trkpt>
      <trkpt lat="46.50855" lon="-1.43116">
        <ele>62.2</ele>
        <time>2021-09-21T09:52:55Z</time>
      </trkpt>
      <trkpt lat="46.50855" lon="-1.43114">
        <ele>62.2</ele>
        <time>2021-09-21T09:52:56Z</time>
      </trkpt>
      <trkpt lat="46.50856" lon="-1.43113">
        <ele>62.3</ele>
        <time>2021-09-21T09:52:57Z</time>
      </trkpt>
      <trkpt lat="46.50856" lon="-1.43111">
        <ele>62.3</ele>
        <time>2021-09-21T09:52:58Z</time>
      </trkpt>
      <trkpt lat="46.50857" lon="-1.4311">
        <ele>62.3</ele>
        <time>2021-09-21T09:52:59Z</time>
      </trkpt>
      <trkpt lat="46.50858" lon="-1.43108">
        <ele>62.3</ele>
        <time>2021-09-21T09:53:00Z</time>
      </trkpt>
      <trkpt lat="46.50859" lon="-1.43106">
        <ele>62.4</ele>
        <time>2021-09-21T09:53:01Z</time>
      </trkpt>
      <trkpt lat="46.50859" lon="-1.43104">
        <ele>62.4</ele>
        <time>2021-09-21T09:53:02Z</time>
      </trkpt>
      <trkpt lat="46.5086" lon="-1.43102">
        <ele>62.4</ele>
        <time>2021-09-21T09:53:03Z</time>
      </trkpt>
      <trkpt lat="46.50861" lon="-1.431">
        <ele>62.4</ele>
        <time>2021-09-21T09:53:04Z</time>
      </trkpt>
      <trkpt lat="46.50862" lon="-1.43098">
        <ele>62.5</ele>
        <time>2021-09-21T09:53:05Z</time>
      </trkpt>
      <trkpt lat="46.50863" lon="-1.43096">
        <ele>62.5</ele>
        <time>2021-09-21T09:53:06Z</time>
      </trkpt>
      <trkpt lat="46.50864" lon="-1.43094">
        <ele>62.5</ele>
        <time>2021-09-21T09:53:07Z</time>
      </trkpt>
      <trkpt lat="46.50864" lon="-1.43092">
        <ele>62.5</ele>
        <time>2021-09-21T09:53:08Z</time>
      </trkpt>
      <trkpt lat="46.50865" lon="-1.4309">
        <ele>62.5</ele>
        <time>2021-09-21T09:53:09Z</time>
      </trkpt>
      <trkpt lat="46.50866" lon="-1.43088">
        <ele>62.5</ele>
        <time>2021-09-21T09:53:10Z</time>
      </trkpt>
      <trkpt lat="46.50867" lon="-1.43086">
        <ele>62.5</ele>
        <time>2021-09-21T09:53:11Z</time>
      </trkpt>
      <trkpt lat="46.50867" lon="-1.43085">
        <ele>62.6</ele>
        <time>2021-09-21T09:53:12Z</time>
      </trkpt>
      <trkpt lat="46.50868" lon="-1.43083">
        <ele>62.5</ele>
        <time>2021-09-21T09:53:13Z</time>
      </trkpt>
      <trkpt lat="46.50868" lon="-1.43081">
        <ele>62.5</ele>
        <time>2021-09-21T09:53:14Z</time>
      </trkpt>
      <trkpt lat="46.50869" lon="-1.43079">
        <ele>62.5</ele>
        <time>2021-09-21T09:53:15Z</time>
      </trkpt>
      <trkpt lat="46.50869" lon="-1.43077">
        <ele>62.5</ele>
        <time>2021-09-21T09:53:16Z</time>
      </trkpt>
      <trkpt lat="46.5087" lon="-1.43076">
        <ele>62.5</ele>
        <time>2021-09-21T09:53:17Z</time>
      </trkpt>
      <trkpt lat="46.5087" lon="-1.43074">
        <ele>62.6</ele>
        <time>2021-09-21T09:53:18Z</time>
      </trkpt>
      <trkpt lat="46.50871" lon="-1.43072">
        <ele>62.6</ele>
        <time>2021-09-21T09:53:19Z</time>
      </trkpt>
      <trkpt lat="46.50871" lon="-1.43071">
        <ele>62.6</ele>
        <time>2021-09-21T09:53:20Z</time>
      </trkpt>
      <trkpt lat="46.50872" lon="-1.43069">
        <ele>62.6</ele>
        <time>2021-09-21T09:53:21Z</time>
      </trkpt>
      <trkpt lat="46.50872" lon="-1.43067">
        <ele>62.6</ele>
        <time>2021-09-21T09:53:22Z</time>
      </trkpt>
      <trkpt lat="46.50873" lon="-1.43066">
        <ele>62.6</ele>
        <time>2021-09-21T09:53:23Z</time>
      </trkpt>
      <trkpt lat="46.50873" lon="-1.43064">
        <ele>62.6</ele>
        <time>2021-09-21T09:53:24Z</time>
      </trkpt>
      <trkpt lat="46.50874" lon="-1.43062">
        <ele>62.6</ele>
        <time>2021-09-21T09:53:25Z</time>
      </trkpt>
      <trkpt lat="46.50874" lon="-1.4306">
        <ele>62.6</ele>
        <time>2021-09-21T09:53:26Z</time>
      </trkpt>
      <trkpt lat="46.50875" lon="-1.43059">
        <ele>62.6</ele>
        <time>2021-09-21T09:53:27Z</time>
      </trkpt>
      <trkpt lat="46.50875" lon="-1.43057">
        <ele>62.6</ele>
        <time>2021-09-21T09:53:28Z</time>
      </trkpt>
      <trkpt lat="46.50876" lon="-1.43055">
        <ele>62.6</ele>
        <time>2021-09-21T09:53:29Z</time>
      </trkpt>
      <trkpt lat="46.50876" lon="-1.43054">
        <ele>62.6</ele>
        <time>2021-09-21T09:53:30Z</time>
      </trkpt>
      <trkpt lat="46.50876" lon="-1.43052">
        <ele>62.7</ele>
        <time>2021-09-21T09:53:31Z</time>
      </trkpt>
      <trkpt lat="46.50877" lon="-1.4305">
        <ele>62.7</ele>
        <time>2021-09-21T09:53:32Z</time>
      </trkpt>
      <trkpt lat="46.50877" lon="-1.43049">
        <ele>62.6</ele>
        <time>2021-09-21T09:53:33Z</time>
      </trkpt>
      <trkpt lat="46.50878" lon="-1.43047">
        <ele>62.7</ele>
        <time>2021-09-21T09:53:34Z</time>
      </trkpt>
      <trkpt lat="46.50878" lon="-1.43046">
        <ele>62.7</ele>
        <time>2021-09-21T09:53:35Z</time>
      </trkpt>
      <trkpt lat="46.50879" lon="-1.43044">
        <ele>62.7</ele>
        <time>2021-09-21T09:53:36Z</time>
      </trkpt>
      <trkpt lat="46.50879" lon="-1.43043">
        <ele>62.7</ele>
        <time>2021-09-21T09:53:37Z</time>
      </trkpt>
      <trkpt lat="46.5088" lon="-1.43042">
        <ele>62.7</ele>
        <time>2021-09-21T09:53:38Z</time>
      </trkpt>
      <trkpt lat="46.5088" lon="-1.4304">
        <ele>62.7</ele>
        <time>2021-09-21T09:53:39Z</time>
      </trkpt>
      <trkpt lat="46.50881" lon="-1.43039">
        <ele>62.7</ele>
        <time>2021-09-21T09:53:40Z</time>
      </trkpt>
      <trkpt lat="46.50881" lon="-1.43038">
        <ele>62.7</ele>
        <time>2021-09-21T09:53:41Z</time>
      </trkpt>
      <trkpt lat="46.50882" lon="-1.43036">
        <ele>62.7</ele>
        <time>2021-09-21T09:53:42Z</time>
      </trkpt>
      <trkpt lat="46.50882" lon="-1.43035">
        <ele>62.8</ele>
        <time>2021-09-21T09:53:43Z</time>
      </trkpt>
      <trkpt lat="46.50883" lon="-1.43034">
        <ele>62.8</ele>
        <time>2021-09-21T09:53:44Z</time>
      </trkpt>
      <trkpt lat="46.50883" lon="-1.43032">
        <ele>62.8</ele>
        <time>2021-09-21T09:53:45Z</time>
      </trkpt>
      <trkpt lat="46.50884" lon="-1.43031">
        <ele>62.8</ele>
        <time>2021-09-21T09:53:46Z</time>
      </trkpt>
      <trkpt lat="46.50884" lon="-1.43029">
        <ele>62.8</ele>
        <time>2021-09-21T09:53:47Z</time>
      </trkpt>
      <trkpt lat="46.50884" lon="-1.43028">
        <ele>62.8</ele>
        <time>2021-09-21T09:53:48Z</time>
      </trkpt>
      <trkpt lat="46.50885" lon="-1.43026">
        <ele>62.8</ele>
        <time>2021-09-21T09:53:49Z</time>
      </trkpt>
      <trkpt lat="46.50885" lon="-1.43024">
        <ele>62.8</ele>
        <time>2021-09-21T09:53:50Z</time>
      </trkpt>
      <trkpt lat="46.50885" lon="-1.43023">
        <ele>62.8</ele>
        <time>2021-09-21T09:53:51Z</time>
      </trkpt>
      <trkpt lat="46.50886" lon="-1.43021">
        <ele>62.8</ele>
        <time>2021-09-21T09:53:52Z</time>
      </trkpt>
      <trkpt lat="46.50886" lon="-1.43019">
        <ele>62.8</ele>
        <time>2021-09-21T09:53:53Z</time>
      </trkpt>
      <trkpt lat="46.50886" lon="-1.43018">
        <ele>62.8</ele>
        <time>2021-09-21T09:53:54Z</time>
      </trkpt>
      <trkpt lat="46.50887" lon="-1.43016">
        <ele>62.8</ele>
        <time>2021-09-21T09:53:55Z</time>
      </trkpt>
      <trkpt lat="46.50887" lon="-1.43015">
        <ele>62.8</ele>
        <time>2021-09-21T09:53:56Z</time>
      </trkpt>
      <trkpt lat="46.50887" lon="-1.43013">
        <ele>62.8</ele>
        <time>2021-09-21T09:53:57Z</time>
      </trkpt>
      <trkpt lat="46.50887" lon="-1.43012">
        <ele>62.8</ele>
        <time>2021-09-21T09:53:58Z</time>
      </trkpt>
      <trkpt lat="46.50888" lon="-1.4301">
        <ele>62.8</ele>
        <time>2021-09-21T09:53:59Z</time>
      </trkpt>
      <trkpt lat="46.50888" lon="-1.43008">
        <ele>62.9</ele>
        <time>2021-09-21T09:54:00Z</time>
      </trkpt>
      <trkpt lat="46.50888" lon="-1.43007">
        <ele>62.9</ele>
        <time>2021-09-21T09:54:01Z</time>
      </trkpt>
      <trkpt lat="46.50889" lon="-1.43005">
        <ele>62.9</ele>
        <time>2021-09-21T09:54:02Z</time>
      </trkpt>
      <trkpt lat="46.50889" lon="-1.43003">
        <ele>62.9</ele>
        <time>2021-09-21T09:54:03Z</time>
      </trkpt>
      <trkpt lat="46.5089" lon="-1.43">
        <ele>62.9</ele>
        <time>2021-09-21T09:54:04Z</time>
      </trkpt>
      <trkpt lat="46.5089" lon="-1.42998">
        <ele>62.9</ele>
        <time>2021-09-21T09:54:05Z</time>
      </trkpt>
      <trkpt lat="46.50891" lon="-1.42996">
        <ele>63</ele>
        <time>2021-09-21T09:54:06Z</time>
      </trkpt>
      <trkpt lat="46.50891" lon="-1.42994">
        <ele>63</ele>
        <time>2021-09-21T09:54:07Z</time>
      </trkpt>
      <trkpt lat="46.50892" lon="-1.42992">
        <ele>63</ele>
        <time>2021-09-21T09:54:08Z</time>
      </trkpt>
      <trkpt lat="46.50893" lon="-1.42991">
        <ele>63</ele>
        <time>2021-09-21T09:54:09Z</time>
      </trkpt>
      <trkpt lat="46.50893" lon="-1.42989">
        <ele>63</ele>
        <time>2021-09-21T09:54:10Z</time>
      </trkpt>
      <trkpt lat="46.50893" lon="-1.42988">
        <ele>63</ele>
        <time>2021-09-21T09:54:11Z</time>
      </trkpt>
      <trkpt lat="46.50894" lon="-1.42987">
        <ele>63</ele>
        <time>2021-09-21T09:54:12Z</time>
      </trkpt>
      <trkpt lat="46.50894" lon="-1.42985">
        <ele>63</ele>
        <time>2021-09-21T09:54:13Z</time>
      </trkpt>
      <trkpt lat="46.50894" lon="-1.42984">
        <ele>63</ele>
        <time>2021-09-21T09:54:14Z</time>
      </trkpt>
      <trkpt lat="46.50895" lon="-1.42983">
        <ele>63</ele>
        <time>2021-09-21T09:54:15Z</time>
      </trkpt>
      <trkpt lat="46.50895" lon="-1.42982">
        <ele>63</ele>
        <time>2021-09-21T09:54:16Z</time>
      </trkpt>
      <trkpt lat="46.50895" lon="-1.4298">
        <ele>63</ele>
        <time>2021-09-21T09:54:17Z</time>
      </trkpt>
      <trkpt lat="46.50894" lon="-1.42979">
        <ele>63</ele>
        <time>2021-09-21T09:54:18Z</time>
      </trkpt>
      <trkpt lat="46.50894" lon="-1.42977">
        <ele>63</ele>
        <time>2021-09-21T09:54:19Z</time>
      </trkpt>
      <trkpt lat="46.50894" lon="-1.42975">
        <ele>63</ele>
        <time>2021-09-21T09:54:20Z</time>
      </trkpt>
      <trkpt lat="46.50893" lon="-1.42974">
        <ele>63</ele>
        <time>2021-09-21T09:54:21Z</time>
      </trkpt>
      <trkpt lat="46.50893" lon="-1.42972">
        <ele>63</ele>
        <time>2021-09-21T09:54:22Z</time>
      </trkpt>
      <trkpt lat="46.50892" lon="-1.4297">
        <ele>62.9</ele>
        <time>2021-09-21T09:54:23Z</time>
      </trkpt>
      <trkpt lat="46.50892" lon="-1.42969">
        <ele>62.9</ele>
        <time>2021-09-21T09:54:24Z</time>
      </trkpt>
      <trkpt lat="46.50891" lon="-1.42967">
        <ele>62.9</ele>
        <time>2021-09-21T09:54:25Z</time>
      </trkpt>
      <trkpt lat="46.50891" lon="-1.42965">
        <ele>62.9</ele>
        <time>2021-09-21T09:54:26Z</time>
      </trkpt>
      <trkpt lat="46.5089" lon="-1.42964">
        <ele>62.9</ele>
        <time>2021-09-21T09:54:27Z</time>
      </trkpt>
      <trkpt lat="46.5089" lon="-1.42962">
        <ele>62.9</ele>
        <time>2021-09-21T09:54:28Z</time>
      </trkpt>
      <trkpt lat="46.50889" lon="-1.42961">
        <ele>62.9</ele>
        <time>2021-09-21T09:54:29Z</time>
      </trkpt>
      <trkpt lat="46.50889" lon="-1.42959">
        <ele>62.8</ele>
        <time>2021-09-21T09:54:30Z</time>
      </trkpt>
      <trkpt lat="46.50888" lon="-1.42958">
        <ele>62.8</ele>
        <time>2021-09-21T09:54:31Z</time>
      </trkpt>
      <trkpt lat="46.50888" lon="-1.42956">
        <ele>62.8</ele>
        <time>2021-09-21T09:54:32Z</time>
      </trkpt>
      <trkpt lat="46.50887" lon="-1.42955">
        <ele>62.8</ele>
        <time>2021-09-21T09:54:33Z</time>
      </trkpt>
      <trkpt lat="46.50887" lon="-1.42953">
        <ele>62.8</ele>
        <time>2021-09-21T09:54:34Z</time>
      </trkpt>
      <trkpt lat="46.50887" lon="-1.42952">
        <ele>62.8</ele>
        <time>2021-09-21T09:54:35Z</time>
      </trkpt>
      <trkpt lat="46.50886" lon="-1.42951">
        <ele>62.8</ele>
        <time>2021-09-21T09:54:36Z</time>
      </trkpt>
      <trkpt lat="46.50886" lon="-1.42949">
        <ele>62.8</ele>
        <time>2021-09-21T09:54:37Z</time>
      </trkpt>
      <trkpt lat="46.50885" lon="-1.42948">
        <ele>62.7</ele>
        <time>2021-09-21T09:54:38Z</time>
      </trkpt>
      <trkpt lat="46.50885" lon="-1.42947">
        <ele>62.7</ele>
        <time>2021-09-21T09:54:39Z</time>
      </trkpt>
      <trkpt lat="46.50884" lon="-1.42945">
        <ele>62.7</ele>
        <time>2021-09-21T09:54:40Z</time>
      </trkpt>
      <trkpt lat="46.50884" lon="-1.42944">
        <ele>62.7</ele>
        <time>2021-09-21T09:54:41Z</time>
      </trkpt>
      <trkpt lat="46.50883" lon="-1.42943">
        <ele>62.7</ele>
        <time>2021-09-21T09:54:42Z</time>
      </trkpt>
      <trkpt lat="46.50883" lon="-1.42941">
        <ele>62.7</ele>
        <time>2021-09-21T09:54:43Z</time>
      </trkpt>
      <trkpt lat="46.50883" lon="-1.4294">
        <ele>62.7</ele>
        <time>2021-09-21T09:54:44Z</time>
      </trkpt>
      <trkpt lat="46.50882" lon="-1.42938">
        <ele>62.7</ele>
        <time>2021-09-21T09:54:45Z</time>
      </trkpt>
      <trkpt lat="46.50882" lon="-1.42937">
        <ele>62.6</ele>
        <time>2021-09-21T09:54:46Z</time>
      </trkpt>
      <trkpt lat="46.50881" lon="-1.42935">
        <ele>62.6</ele>
        <time>2021-09-21T09:54:47Z</time>
      </trkpt>
      <trkpt lat="46.50881" lon="-1.42934">
        <ele>62.6</ele>
        <time>2021-09-21T09:54:48Z</time>
      </trkpt>
      <trkpt lat="46.5088" lon="-1.42932">
        <ele>62.6</ele>
        <time>2021-09-21T09:54:49Z</time>
      </trkpt>
      <trkpt lat="46.5088" lon="-1.4293">
        <ele>62.6</ele>
        <time>2021-09-21T09:54:50Z</time>
      </trkpt>
      <trkpt lat="46.50879" lon="-1.42928">
        <ele>62.6</ele>
        <time>2021-09-21T09:54:51Z</time>
      </trkpt>
      <trkpt lat="46.50879" lon="-1.42926">
        <ele>62.6</ele>
        <time>2021-09-21T09:54:52Z</time>
      </trkpt>
      <trkpt lat="46.50878" lon="-1.42925">
        <ele>62.5</ele>
        <time>2021-09-21T09:54:53Z</time>
      </trkpt>
      <trkpt lat="46.50878" lon="-1.42923">
        <ele>62.5</ele>
        <time>2021-09-21T09:54:54Z</time>
      </trkpt>
      <trkpt lat="46.50877" lon="-1.42921">
        <ele>62.5</ele>
        <time>2021-09-21T09:54:55Z</time>
      </trkpt>
      <trkpt lat="46.50877" lon="-1.4292">
        <ele>62.5</ele>
        <time>2021-09-21T09:54:56Z</time>
      </trkpt>
      <trkpt lat="46.50876" lon="-1.42918">
        <ele>62.5</ele>
        <time>2021-09-21T09:54:57Z</time>
      </trkpt>
      <trkpt lat="46.50876" lon="-1.42916">
        <ele>62.5</ele>
        <time>2021-09-21T09:54:58Z</time>
      </trkpt>
      <trkpt lat="46.50875" lon="-1.42915">
        <ele>62.5</ele>
        <time>2021-09-21T09:54:59Z</time>
      </trkpt>
      <trkpt lat="46.50875" lon="-1.42913">
        <ele>62.4</ele>
        <time>2021-09-21T09:55:00Z</time>
      </trkpt>
      <trkpt lat="46.50874" lon="-1.42912">
        <ele>62.4</ele>
        <time>2021-09-21T09:55:01Z</time>
      </trkpt>
      <trkpt lat="46.50874" lon="-1.4291">
        <ele>62.4</ele>
        <time>2021-09-21T09:55:02Z</time>
      </trkpt>
      <trkpt lat="46.50873" lon="-1.42909">
        <ele>62.4</ele>
        <time>2021-09-21T09:55:03Z</time>
      </trkpt>
      <trkpt lat="46.50872" lon="-1.42907">
        <ele>62.4</ele>
        <time>2021-09-21T09:55:04Z</time>
      </trkpt>
      <trkpt lat="46.50872" lon="-1.42905">
        <ele>62.4</ele>
        <time>2021-09-21T09:55:05Z</time>
      </trkpt>
      <trkpt lat="46.50871" lon="-1.42904">
        <ele>62.4</ele>
        <time>2021-09-21T09:55:06Z</time>
      </trkpt>
      <trkpt lat="46.50871" lon="-1.42902">
        <ele>62.3</ele>
        <time>2021-09-21T09:55:07Z</time>
      </trkpt>
      <trkpt lat="46.5087" lon="-1.42901">
        <ele>62.3</ele>
        <time>2021-09-21T09:55:08Z</time>
      </trkpt>
      <trkpt lat="46.5087" lon="-1.42899">
        <ele>62.3</ele>
        <time>2021-09-21T09:55:09Z</time>
      </trkpt>
      <trkpt lat="46.50869" lon="-1.42898">
        <ele>62.3</ele>
        <time>2021-09-21T09:55:10Z</time>
      </trkpt>
      <trkpt lat="46.50869" lon="-1.42896">
        <ele>62.3</ele>
        <time>2021-09-21T09:55:11Z</time>
      </trkpt>
      <trkpt lat="46.50868" lon="-1.42894">
        <ele>62.3</ele>
        <time>2021-09-21T09:55:12Z</time>
      </trkpt>
      <trkpt lat="46.50868" lon="-1.42893">
        <ele>62.3</ele>
        <time>2021-09-21T09:55:13Z</time>
      </trkpt>
      <trkpt lat="46.50867" lon="-1.42891">
        <ele>62.2</ele>
        <time>2021-09-21T09:55:14Z</time>
      </trkpt>
      <trkpt lat="46.50867" lon="-1.42889">
        <ele>62.2</ele>
        <time>2021-09-21T09:55:15Z</time>
      </trkpt>
      <trkpt lat="46.50866" lon="-1.42888">
        <ele>62.2</ele>
        <time>2021-09-21T09:55:16Z</time>
      </trkpt>
      <trkpt lat="46.50866" lon="-1.42886">
        <ele>62.2</ele>
        <time>2021-09-21T09:55:17Z</time>
      </trkpt>
      <trkpt lat="46.50865" lon="-1.42884">
        <ele>62.2</ele>
        <time>2021-09-21T09:55:18Z</time>
      </trkpt>
      <trkpt lat="46.50865" lon="-1.42883">
        <ele>62.2</ele>
        <time>2021-09-21T09:55:19Z</time>
      </trkpt>
      <trkpt lat="46.50865" lon="-1.42881">
        <ele>62.2</ele>
        <time>2021-09-21T09:55:20Z</time>
      </trkpt>
      <trkpt lat="46.50864" lon="-1.42879">
        <ele>62.1</ele>
        <time>2021-09-21T09:55:21Z</time>
      </trkpt>
      <trkpt lat="46.50864" lon="-1.42878">
        <ele>62.1</ele>
        <time>2021-09-21T09:55:22Z</time>
      </trkpt>
      <trkpt lat="46.50863" lon="-1.42876">
        <ele>62.1</ele>
        <time>2021-09-21T09:55:23Z</time>
      </trkpt>
      <trkpt lat="46.50863" lon="-1.42874">
        <ele>62.1</ele>
        <time>2021-09-21T09:55:24Z</time>
      </trkpt>
      <trkpt lat="46.50863" lon="-1.42873">
        <ele>62.1</ele>
        <time>2021-09-21T09:55:25Z</time>
      </trkpt>
      <trkpt lat="46.50862" lon="-1.42871">
        <ele>62.1</ele>
        <time>2021-09-21T09:55:26Z</time>
      </trkpt>
      <trkpt lat="46.50862" lon="-1.4287">
        <ele>62.1</ele>
        <time>2021-09-21T09:55:27Z</time>
      </trkpt>
      <trkpt lat="46.50862" lon="-1.42868">
        <ele>62.1</ele>
        <time>2021-09-21T09:55:28Z</time>
      </trkpt>
      <trkpt lat="46.50861" lon="-1.42867">
        <ele>62.1</ele>
        <time>2021-09-21T09:55:29Z</time>
      </trkpt>
      <trkpt lat="46.50861" lon="-1.42865">
        <ele>62</ele>
        <time>2021-09-21T09:55:30Z</time>
      </trkpt>
      <trkpt lat="46.50861" lon="-1.42864">
        <ele>62</ele>
        <time>2021-09-21T09:55:31Z</time>
      </trkpt>
      <trkpt lat="46.5086" lon="-1.42862">
        <ele>62</ele>
        <time>2021-09-21T09:55:32Z</time>
      </trkpt>
      <trkpt lat="46.5086" lon="-1.4286">
        <ele>62</ele>
        <time>2021-09-21T09:55:33Z</time>
      </trkpt>
      <trkpt lat="46.5086" lon="-1.42859">
        <ele>62</ele>
        <time>2021-09-21T09:55:34Z</time>
      </trkpt>
      <trkpt lat="46.5086" lon="-1.42857">
        <ele>62</ele>
        <time>2021-09-21T09:55:35Z</time>
      </trkpt>
      <trkpt lat="46.5086" lon="-1.42856">
        <ele>62</ele>
        <time>2021-09-21T09:55:36Z</time>
      </trkpt>
      <trkpt lat="46.5086" lon="-1.42854">
        <ele>62</ele>
        <time>2021-09-21T09:55:37Z</time>
      </trkpt>
      <trkpt lat="46.5086" lon="-1.42853">
        <ele>61.9</ele>
        <time>2021-09-21T09:55:38Z</time>
      </trkpt>
      <trkpt lat="46.5086" lon="-1.42851">
        <ele>61.9</ele>
        <time>2021-09-21T09:55:39Z</time>
      </trkpt>
      <trkpt lat="46.5086" lon="-1.4285">
        <ele>61.9</ele>
        <time>2021-09-21T09:55:40Z</time>
      </trkpt>
      <trkpt lat="46.5086" lon="-1.42848">
        <ele>61.9</ele>
        <time>2021-09-21T09:55:41Z</time>
      </trkpt>
      <trkpt lat="46.5086" lon="-1.42846">
        <ele>61.9</ele>
        <time>2021-09-21T09:55:42Z</time>
      </trkpt>
      <trkpt lat="46.50861" lon="-1.42845">
        <ele>61.9</ele>
        <time>2021-09-21T09:55:43Z</time>
      </trkpt>
      <trkpt lat="46.50861" lon="-1.42843">
        <ele>61.9</ele>
        <time>2021-09-21T09:55:44Z</time>
      </trkpt>
      <trkpt lat="46.50861" lon="-1.42842">
        <ele>61.8</ele>
        <time>2021-09-21T09:55:45Z</time>
      </trkpt>
      <trkpt lat="46.50862" lon="-1.4284">
        <ele>61.8</ele>
        <time>2021-09-21T09:55:46Z</time>
      </trkpt>
      <trkpt lat="46.50862" lon="-1.42839">
        <ele>61.8</ele>
        <time>2021-09-21T09:55:47Z</time>
      </trkpt>
      <trkpt lat="46.50863" lon="-1.42837">
        <ele>61.8</ele>
        <time>2021-09-21T09:55:48Z</time>
      </trkpt>
      <trkpt lat="46.50863" lon="-1.42836">
        <ele>61.9</ele>
        <time>2021-09-21T09:55:49Z</time>
      </trkpt>
      <trkpt lat="46.50864" lon="-1.42835">
        <ele>61.9</ele>
        <time>2021-09-21T09:55:50Z</time>
      </trkpt>
      <trkpt lat="46.50864" lon="-1.42833">
        <ele>61.9</ele>
        <time>2021-09-21T09:55:51Z</time>
      </trkpt>
      <trkpt lat="46.50865" lon="-1.42832">
        <ele>61.9</ele>
        <time>2021-09-21T09:55:52Z</time>
      </trkpt>
      <trkpt lat="46.50866" lon="-1.42831">
        <ele>61.8</ele>
        <time>2021-09-21T09:55:53Z</time>
      </trkpt>
      <trkpt lat="46.50867" lon="-1.4283">
        <ele>62.1</ele>
        <time>2021-09-21T09:55:54Z</time>
      </trkpt>
      <trkpt lat="46.50868" lon="-1.42829">
        <ele>62.1</ele>
        <time>2021-09-21T09:55:55Z</time>
      </trkpt>
      <trkpt lat="46.50869" lon="-1.42829">
        <ele>62.2</ele>
        <time>2021-09-21T09:55:56Z</time>
      </trkpt>
      <trkpt lat="46.50869" lon="-1.42828">
        <ele>62.2</ele>
        <time>2021-09-21T09:55:57Z</time>
      </trkpt>
      <trkpt lat="46.5087" lon="-1.42827">
        <ele>62.2</ele>
        <time>2021-09-21T09:55:58Z</time>
      </trkpt>
      <trkpt lat="46.50871" lon="-1.42827">
        <ele>62.3</ele>
        <time>2021-09-21T09:55:59Z</time>
      </trkpt>
      <trkpt lat="46.50872" lon="-1.42827">
        <ele>62.3</ele>
        <time>2021-09-21T09:56:00Z</time>
      </trkpt>
      <trkpt lat="46.50874" lon="-1.42826">
        <ele>62.3</ele>
        <time>2021-09-21T09:56:01Z</time>
      </trkpt>
      <trkpt lat="46.50875" lon="-1.42827">
        <ele>62.4</ele>
        <time>2021-09-21T09:56:02Z</time>
      </trkpt>
      <trkpt lat="46.50876" lon="-1.42827">
        <ele>62.4</ele>
        <time>2021-09-21T09:56:03Z</time>
      </trkpt>
      <trkpt lat="46.50877" lon="-1.42827">
        <ele>62.5</ele>
        <time>2021-09-21T09:56:04Z</time>
      </trkpt>
      <trkpt lat="46.50878" lon="-1.42827">
        <ele>62.5</ele>
        <time>2021-09-21T09:56:05Z</time>
      </trkpt>
      <trkpt lat="46.50879" lon="-1.42828">
        <ele>62.5</ele>
        <time>2021-09-21T09:56:06Z</time>
      </trkpt>
      <trkpt lat="46.5088" lon="-1.42828">
        <ele>62.6</ele>
        <time>2021-09-21T09:56:07Z</time>
      </trkpt>
      <trkpt lat="46.50881" lon="-1.42829">
        <ele>62.6</ele>
        <time>2021-09-21T09:56:08Z</time>
      </trkpt>
      <trkpt lat="46.50882" lon="-1.42829">
        <ele>62.7</ele>
        <time>2021-09-21T09:56:09Z</time>
      </trkpt>
      <trkpt lat="46.50883" lon="-1.4283">
        <ele>62.7</ele>
        <time>2021-09-21T09:56:10Z</time>
      </trkpt>
      <trkpt lat="46.50884" lon="-1.4283">
        <ele>62.7</ele>
        <time>2021-09-21T09:56:11Z</time>
      </trkpt>
      <trkpt lat="46.50885" lon="-1.42831">
        <ele>62.8</ele>
        <time>2021-09-21T09:56:12Z</time>
      </trkpt>
      <trkpt lat="46.50886" lon="-1.42831">
        <ele>62.8</ele>
        <time>2021-09-21T09:56:13Z</time>
      </trkpt>
      <trkpt lat="46.50887" lon="-1.42832">
        <ele>62.8</ele>
        <time>2021-09-21T09:56:14Z</time>
      </trkpt>
      <trkpt lat="46.50888" lon="-1.42832">
        <ele>62.9</ele>
        <time>2021-09-21T09:56:15Z</time>
      </trkpt>
      <trkpt lat="46.50889" lon="-1.42833">
        <ele>62.9</ele>
        <time>2021-09-21T09:56:16Z</time>
      </trkpt>
      <trkpt lat="46.5089" lon="-1.42833">
        <ele>63</ele>
        <time>2021-09-21T09:56:17Z</time>
      </trkpt>
      <trkpt lat="46.50891" lon="-1.42833">
        <ele>63</ele>
        <time>2021-09-21T09:56:18Z</time>
      </trkpt>
      <trkpt lat="46.50892" lon="-1.42834">
        <ele>63</ele>
        <time>2021-09-21T09:56:19Z</time>
      </trkpt>
      <trkpt lat="46.50893" lon="-1.42834">
        <ele>63.1</ele>
        <time>2021-09-21T09:56:20Z</time>
      </trkpt>
      <trkpt lat="46.50894" lon="-1.42835">
        <ele>63.1</ele>
        <time>2021-09-21T09:56:21Z</time>
      </trkpt>
      <trkpt lat="46.50895" lon="-1.42835">
        <ele>63.2</ele>
        <time>2021-09-21T09:56:22Z</time>
      </trkpt>
      <trkpt lat="46.50897" lon="-1.42836">
        <ele>63.2</ele>
        <time>2021-09-21T09:56:23Z</time>
      </trkpt>
      <trkpt lat="46.50898" lon="-1.42836">
        <ele>63.3</ele>
        <time>2021-09-21T09:56:24Z</time>
      </trkpt>
      <trkpt lat="46.50899" lon="-1.42836">
        <ele>63.3</ele>
        <time>2021-09-21T09:56:25Z</time>
      </trkpt>
      <trkpt lat="46.50901" lon="-1.42837">
        <ele>63.4</ele>
        <time>2021-09-21T09:56:26Z</time>
      </trkpt>
      <trkpt lat="46.50902" lon="-1.42837">
        <ele>63.4</ele>
        <time>2021-09-21T09:56:27Z</time>
      </trkpt>
      <trkpt lat="46.50903" lon="-1.42838">
        <ele>63.5</ele>
        <time>2021-09-21T09:56:28Z</time>
      </trkpt>
      <trkpt lat="46.50905" lon="-1.42838">
        <ele>63.5</ele>
        <time>2021-09-21T09:56:29Z</time>
      </trkpt>
      <trkpt lat="46.50906" lon="-1.42839">
        <ele>63.6</ele>
        <time>2021-09-21T09:56:30Z</time>
      </trkpt>
      <trkpt lat="46.50907" lon="-1.42839">
        <ele>63.6</ele>
        <time>2021-09-21T09:56:31Z</time>
      </trkpt>
      <trkpt lat="46.50908" lon="-1.42839">
        <ele>63.7</ele>
        <time>2021-09-21T09:56:32Z</time>
      </trkpt>
      <trkpt lat="46.5091" lon="-1.42839">
        <ele>63.7</ele>
        <time>2021-09-21T09:56:33Z</time>
      </trkpt>
      <trkpt lat="46.50911" lon="-1.4284">
        <ele>63.7</ele>
        <time>2021-09-21T09:56:34Z</time>
      </trkpt>
      <trkpt lat="46.50912" lon="-1.4284">
        <ele>63.8</ele>
        <time>2021-09-21T09:56:35Z</time>
      </trkpt>
      <trkpt lat="46.50913" lon="-1.4284">
        <ele>63.8</ele>
        <time>2021-09-21T09:56:36Z</time>
      </trkpt>
      <trkpt lat="46.50914" lon="-1.4284">
        <ele>63.8</ele>
        <time>2021-09-21T09:56:37Z</time>
      </trkpt>
      <trkpt lat="46.50915" lon="-1.4284">
        <ele>63.9</ele>
        <time>2021-09-21T09:56:38Z</time>
      </trkpt>
      <trkpt lat="46.50916" lon="-1.42839">
        <ele>63.9</ele>
        <time>2021-09-21T09:56:39Z</time>
      </trkpt>
      <trkpt lat="46.50917" lon="-1.42839">
        <ele>63.9</ele>
        <time>2021-09-21T09:56:40Z</time>
      </trkpt>
      <trkpt lat="46.50918" lon="-1.42839">
        <ele>64</ele>
        <time>2021-09-21T09:56:41Z</time>
      </trkpt>
      <trkpt lat="46.50919" lon="-1.42838">
        <ele>64</ele>
        <time>2021-09-21T09:56:42Z</time>
      </trkpt>
      <trkpt lat="46.5092" lon="-1.42837">
        <ele>64</ele>
        <time>2021-09-21T09:56:43Z</time>
      </trkpt>
      <trkpt lat="46.50921" lon="-1.42836">
        <ele>64.8</ele>
        <time>2021-09-21T09:56:44Z</time>
      </trkpt>
      <trkpt lat="46.50922" lon="-1.42835">
        <ele>64.9</ele>
        <time>2021-09-21T09:56:45Z</time>
      </trkpt>
      <trkpt lat="46.50922" lon="-1.42834">
        <ele>64.9</ele>
        <time>2021-09-21T09:56:46Z</time>
      </trkpt>
      <trkpt lat="46.50923" lon="-1.42832">
        <ele>65</ele>
        <time>2021-09-21T09:56:47Z</time>
      </trkpt>
      <trkpt lat="46.50924" lon="-1.4283">
        <ele>65</ele>
        <time>2021-09-21T09:56:48Z</time>
      </trkpt>
      <trkpt lat="46.50924" lon="-1.42829">
        <ele>65.1</ele>
        <time>2021-09-21T09:56:49Z</time>
      </trkpt>
      <trkpt lat="46.50925" lon="-1.42827">
        <ele>65.1</ele>
        <time>2021-09-21T09:56:50Z</time>
      </trkpt>
      <trkpt lat="46.50925" lon="-1.42825">
        <ele>65.2</ele>
        <time>2021-09-21T09:56:51Z</time>
      </trkpt>
      <trkpt lat="46.50926" lon="-1.42824">
        <ele>65.5</ele>
        <time>2021-09-21T09:56:52Z</time>
      </trkpt>
      <trkpt lat="46.50926" lon="-1.42822">
        <ele>65.6</ele>
        <time>2021-09-21T09:56:53Z</time>
      </trkpt>
      <trkpt lat="46.50926" lon="-1.4282">
        <ele>65.6</ele>
        <time>2021-09-21T09:56:54Z</time>
      </trkpt>
      <trkpt lat="46.50926" lon="-1.42819">
        <ele>65.7</ele>
        <time>2021-09-21T09:56:55Z</time>
      </trkpt>
      <trkpt lat="46.50927" lon="-1.42817">
        <ele>65.7</ele>
        <time>2021-09-21T09:56:56Z</time>
      </trkpt>
      <trkpt lat="46.50927" lon="-1.42815">
        <ele>65.8</ele>
        <time>2021-09-21T09:56:57Z</time>
      </trkpt>
      <trkpt lat="46.50927" lon="-1.42813">
        <ele>65.8</ele>
        <time>2021-09-21T09:56:58Z</time>
      </trkpt>
      <trkpt lat="46.50927" lon="-1.42812">
        <ele>65.9</ele>
        <time>2021-09-21T09:56:59Z</time>
      </trkpt>
      <trkpt lat="46.50928" lon="-1.4281">
        <ele>66</ele>
        <time>2021-09-21T09:57:00Z</time>
      </trkpt>
      <trkpt lat="46.50928" lon="-1.42808">
        <ele>66</ele>
        <time>2021-09-21T09:57:01Z</time>
      </trkpt>
      <trkpt lat="46.50928" lon="-1.42806">
        <ele>66</ele>
        <time>2021-09-21T09:57:02Z</time>
      </trkpt>
      <trkpt lat="46.50929" lon="-1.42805">
        <ele>66.1</ele>
        <time>2021-09-21T09:57:03Z</time>
      </trkpt>
      <trkpt lat="46.50929" lon="-1.42803">
        <ele>66.1</ele>
        <time>2021-09-21T09:57:04Z</time>
      </trkpt>
      <trkpt lat="46.50929" lon="-1.42801">
        <ele>66.2</ele>
        <time>2021-09-21T09:57:05Z</time>
      </trkpt>
      <trkpt lat="46.50929" lon="-1.428">
        <ele>66.2</ele>
        <time>2021-09-21T09:57:06Z</time>
      </trkpt>
      <trkpt lat="46.5093" lon="-1.42798">
        <ele>66.2</ele>
        <time>2021-09-21T09:57:07Z</time>
      </trkpt>
      <trkpt lat="46.5093" lon="-1.42796">
        <ele>66.3</ele>
        <time>2021-09-21T09:57:08Z</time>
      </trkpt>
      <trkpt lat="46.50931" lon="-1.42795">
        <ele>66.3</ele>
        <time>2021-09-21T09:57:09Z</time>
      </trkpt>
      <trkpt lat="46.50931" lon="-1.42793">
        <ele>66.3</ele>
        <time>2021-09-21T09:57:10Z</time>
      </trkpt>
      <trkpt lat="46.50931" lon="-1.42791">
        <ele>66.4</ele>
        <time>2021-09-21T09:57:11Z</time>
      </trkpt>
      <trkpt lat="46.50932" lon="-1.4279">
        <ele>66.4</ele>
        <time>2021-09-21T09:57:12Z</time>
      </trkpt>
      <trkpt lat="46.50932" lon="-1.42788">
        <ele>66.4</ele>
        <time>2021-09-21T09:57:13Z</time>
      </trkpt>
      <trkpt lat="46.50933" lon="-1.42786">
        <ele>66.5</ele>
        <time>2021-09-21T09:57:14Z</time>
      </trkpt>
      <trkpt lat="46.50933" lon="-1.42785">
        <ele>66.5</ele>
        <time>2021-09-21T09:57:15Z</time>
      </trkpt>
      <trkpt lat="46.50934" lon="-1.42783">
        <ele>66.5</ele>
        <time>2021-09-21T09:57:16Z</time>
      </trkpt>
      <trkpt lat="46.50934" lon="-1.42781">
        <ele>66.6</ele>
        <time>2021-09-21T09:57:17Z</time>
      </trkpt>
      <trkpt lat="46.50934" lon="-1.42779">
        <ele>66.6</ele>
        <time>2021-09-21T09:57:18Z</time>
      </trkpt>
      <trkpt lat="46.50935" lon="-1.42777">
        <ele>66.6</ele>
        <time>2021-09-21T09:57:19Z</time>
      </trkpt>
      <trkpt lat="46.50935" lon="-1.42775">
        <ele>66.7</ele>
        <time>2021-09-21T09:57:20Z</time>
      </trkpt>
      <trkpt lat="46.50936" lon="-1.42773">
        <ele>66.7</ele>
        <time>2021-09-21T09:57:21Z</time>
      </trkpt>
      <trkpt lat="46.50936" lon="-1.42771">
        <ele>66.7</ele>
        <time>2021-09-21T09:57:22Z</time>
      </trkpt>
      <trkpt lat="46.50936" lon="-1.42769">
        <ele>66.8</ele>
        <time>2021-09-21T09:57:23Z</time>
      </trkpt>
      <trkpt lat="46.50937" lon="-1.42767">
        <ele>66.8</ele>
        <time>2021-09-21T09:57:24Z</time>
      </trkpt>
      <trkpt lat="46.50937" lon="-1.42765">
        <ele>66.8</ele>
        <time>2021-09-21T09:57:25Z</time>
      </trkpt>
      <trkpt lat="46.50938" lon="-1.42763">
        <ele>66.8</ele>
        <time>2021-09-21T09:57:26Z</time>
      </trkpt>
      <trkpt lat="46.50938" lon="-1.42762">
        <ele>66.9</ele>
        <time>2021-09-21T09:57:27Z</time>
      </trkpt>
      <trkpt lat="46.50938" lon="-1.4276">
        <ele>66.9</ele>
        <time>2021-09-21T09:57:28Z</time>
      </trkpt>
      <trkpt lat="46.50939" lon="-1.42759">
        <ele>66.9</ele>
        <time>2021-09-21T09:57:29Z</time>
      </trkpt>
      <trkpt lat="46.50939" lon="-1.42757">
        <ele>66.9</ele>
        <time>2021-09-21T09:57:30Z</time>
      </trkpt>
      <trkpt lat="46.5094" lon="-1.42755">
        <ele>66.9</ele>
        <time>2021-09-21T09:57:31Z</time>
      </trkpt>
      <trkpt lat="46.5094" lon="-1.42754">
        <ele>67</ele>
        <time>2021-09-21T09:57:32Z</time>
      </trkpt>
      <trkpt lat="46.50941" lon="-1.42752">
        <ele>67</ele>
        <time>2021-09-21T09:57:33Z</time>
      </trkpt>
      <trkpt lat="46.50941" lon="-1.42751">
        <ele>67</ele>
        <time>2021-09-21T09:57:34Z</time>
      </trkpt>
      <trkpt lat="46.50941" lon="-1.4275">
        <ele>67</ele>
        <time>2021-09-21T09:57:35Z</time>
      </trkpt>
      <trkpt lat="46.50942" lon="-1.42748">
        <ele>67</ele>
        <time>2021-09-21T09:57:36Z</time>
      </trkpt>
      <trkpt lat="46.50942" lon="-1.42747">
        <ele>67</ele>
        <time>2021-09-21T09:57:37Z</time>
      </trkpt>
      <trkpt lat="46.50943" lon="-1.42745">
        <ele>67.1</ele>
        <time>2021-09-21T09:57:38Z</time>
      </trkpt>
      <trkpt lat="46.50943" lon="-1.42744">
        <ele>67.1</ele>
        <time>2021-09-21T09:57:39Z</time>
      </trkpt>
      <trkpt lat="46.50944" lon="-1.42742">
        <ele>67.1</ele>
        <time>2021-09-21T09:57:40Z</time>
      </trkpt>
      <trkpt lat="46.50944" lon="-1.42741">
        <ele>67.1</ele>
        <time>2021-09-21T09:57:41Z</time>
      </trkpt>
      <trkpt lat="46.50945" lon="-1.42739">
        <ele>67.1</ele>
        <time>2021-09-21T09:57:42Z</time>
      </trkpt>
      <trkpt lat="46.50945" lon="-1.42738">
        <ele>67.1</ele>
        <time>2021-09-21T09:57:43Z</time>
      </trkpt>
      <trkpt lat="46.50946" lon="-1.42736">
        <ele>67.1</ele>
        <time>2021-09-21T09:57:44Z</time>
      </trkpt>
      <trkpt lat="46.50946" lon="-1.42735">
        <ele>67.2</ele>
        <time>2021-09-21T09:57:45Z</time>
      </trkpt>
      <trkpt lat="46.50947" lon="-1.42733">
        <ele>67.2</ele>
        <time>2021-09-21T09:57:46Z</time>
      </trkpt>
      <trkpt lat="46.50948" lon="-1.42732">
        <ele>67.2</ele>
        <time>2021-09-21T09:57:47Z</time>
      </trkpt>
      <trkpt lat="46.50948" lon="-1.4273">
        <ele>67.2</ele>
        <time>2021-09-21T09:57:48Z</time>
      </trkpt>
      <trkpt lat="46.50949" lon="-1.42728">
        <ele>67.2</ele>
        <time>2021-09-21T09:57:49Z</time>
      </trkpt>
      <trkpt lat="46.50949" lon="-1.42727">
        <ele>67.2</ele>
        <time>2021-09-21T09:57:50Z</time>
      </trkpt>
      <trkpt lat="46.5095" lon="-1.42725">
        <ele>67.3</ele>
        <time>2021-09-21T09:57:51Z</time>
      </trkpt>
      <trkpt lat="46.50951" lon="-1.42723">
        <ele>67.3</ele>
        <time>2021-09-21T09:57:52Z</time>
      </trkpt>
      <trkpt lat="46.50952" lon="-1.42721">
        <ele>67.3</ele>
        <time>2021-09-21T09:57:53Z</time>
      </trkpt>
      <trkpt lat="46.50952" lon="-1.42719">
        <ele>67.3</ele>
        <time>2021-09-21T09:57:54Z</time>
      </trkpt>
      <trkpt lat="46.50953" lon="-1.42718">
        <ele>67.3</ele>
        <time>2021-09-21T09:57:55Z</time>
      </trkpt>
      <trkpt lat="46.50954" lon="-1.42716">
        <ele>67.3</ele>
        <time>2021-09-21T09:57:56Z</time>
      </trkpt>
      <trkpt lat="46.50955" lon="-1.42714">
        <ele>67.4</ele>
        <time>2021-09-21T09:57:57Z</time>
      </trkpt>
      <trkpt lat="46.50956" lon="-1.42712">
        <ele>67.4</ele>
        <time>2021-09-21T09:57:58Z</time>
      </trkpt>
      <trkpt lat="46.50956" lon="-1.42711">
        <ele>67.4</ele>
        <time>2021-09-21T09:57:59Z</time>
      </trkpt>
      <trkpt lat="46.50957" lon="-1.42709">
        <ele>67.4</ele>
        <time>2021-09-21T09:58:00Z</time>
      </trkpt>
      <trkpt lat="46.50958" lon="-1.42707">
        <ele>67.4</ele>
        <time>2021-09-21T09:58:01Z</time>
      </trkpt>
      <trkpt lat="46.50958" lon="-1.42706">
        <ele>67.4</ele>
        <time>2021-09-21T09:58:02Z</time>
      </trkpt>
      <trkpt lat="46.50959" lon="-1.42705">
        <ele>67.4</ele>
        <time>2021-09-21T09:58:03Z</time>
      </trkpt>
      <trkpt lat="46.50959" lon="-1.42703">
        <ele>67.5</ele>
        <time>2021-09-21T09:58:04Z</time>
      </trkpt>
      <trkpt lat="46.5096" lon="-1.42702">
        <ele>67.5</ele>
        <time>2021-09-21T09:58:05Z</time>
      </trkpt>
      <trkpt lat="46.50961" lon="-1.42701">
        <ele>67.5</ele>
        <time>2021-09-21T09:58:06Z</time>
      </trkpt>
      <trkpt lat="46.50961" lon="-1.427">
        <ele>67.5</ele>
        <time>2021-09-21T09:58:07Z</time>
      </trkpt>
      <trkpt lat="46.50962" lon="-1.42698">
        <ele>67.5</ele>
        <time>2021-09-21T09:58:08Z</time>
      </trkpt>
      <trkpt lat="46.50963" lon="-1.42697">
        <ele>67.5</ele>
        <time>2021-09-21T09:58:09Z</time>
      </trkpt>
      <trkpt lat="46.50963" lon="-1.42696">
        <ele>67.5</ele>
        <time>2021-09-21T09:58:10Z</time>
      </trkpt>
      <trkpt lat="46.50964" lon="-1.42694">
        <ele>67.6</ele>
        <time>2021-09-21T09:58:11Z</time>
      </trkpt>
      <trkpt lat="46.50965" lon="-1.42693">
        <ele>67.6</ele>
        <time>2021-09-21T09:58:12Z</time>
      </trkpt>
      <trkpt lat="46.50966" lon="-1.42692">
        <ele>67.6</ele>
        <time>2021-09-21T09:58:13Z</time>
      </trkpt>
      <trkpt lat="46.50966" lon="-1.4269">
        <ele>67.6</ele>
        <time>2021-09-21T09:58:14Z</time>
      </trkpt>
      <trkpt lat="46.50967" lon="-1.42688">
        <ele>67.6</ele>
        <time>2021-09-21T09:58:15Z</time>
      </trkpt>
      <trkpt lat="46.50968" lon="-1.42687">
        <ele>67.7</ele>
        <time>2021-09-21T09:58:16Z</time>
      </trkpt>
      <trkpt lat="46.50969" lon="-1.42685">
        <ele>67.7</ele>
        <time>2021-09-21T09:58:17Z</time>
      </trkpt>
      <trkpt lat="46.5097" lon="-1.42683">
        <ele>67.7</ele>
        <time>2021-09-21T09:58:18Z</time>
      </trkpt>
      <trkpt lat="46.50971" lon="-1.42682">
        <ele>67.7</ele>
        <time>2021-09-21T09:58:19Z</time>
      </trkpt>
      <trkpt lat="46.50972" lon="-1.4268">
        <ele>67.8</ele>
        <time>2021-09-21T09:58:20Z</time>
      </trkpt>
      <trkpt lat="46.50973" lon="-1.42678">
        <ele>67.8</ele>
        <time>2021-09-21T09:58:21Z</time>
      </trkpt>
      <trkpt lat="46.50974" lon="-1.42676">
        <ele>67.8</ele>
        <time>2021-09-21T09:58:22Z</time>
      </trkpt>
      <trkpt lat="46.50975" lon="-1.42674">
        <ele>67.8</ele>
        <time>2021-09-21T09:58:23Z</time>
      </trkpt>
      <trkpt lat="46.50975" lon="-1.42672">
        <ele>67.9</ele>
        <time>2021-09-21T09:58:24Z</time>
      </trkpt>
      <trkpt lat="46.50976" lon="-1.4267">
        <ele>67.9</ele>
        <time>2021-09-21T09:58:25Z</time>
      </trkpt>
      <trkpt lat="46.50976" lon="-1.42668">
        <ele>67.9</ele>
        <time>2021-09-21T09:58:26Z</time>
      </trkpt>
      <trkpt lat="46.50977" lon="-1.42666">
        <ele>68</ele>
        <time>2021-09-21T09:58:27Z</time>
      </trkpt>
      <trkpt lat="46.50977" lon="-1.42665">
        <ele>68</ele>
        <time>2021-09-21T09:58:28Z</time>
      </trkpt>
      <trkpt lat="46.50978" lon="-1.42663">
        <ele>68</ele>
        <time>2021-09-21T09:58:29Z</time>
      </trkpt>
      <trkpt lat="46.50978" lon="-1.42661">
        <ele>68.1</ele>
        <time>2021-09-21T09:58:30Z</time>
      </trkpt>
      <trkpt lat="46.50979" lon="-1.42659">
        <ele>68.1</ele>
        <time>2021-09-21T09:58:31Z</time>
      </trkpt>
      <trkpt lat="46.5098" lon="-1.42658">
        <ele>68.2</ele>
        <time>2021-09-21T09:58:32Z</time>
      </trkpt>
      <trkpt lat="46.5098" lon="-1.42656">
        <ele>68.2</ele>
        <time>2021-09-21T09:58:33Z</time>
      </trkpt>
      <trkpt lat="46.50981" lon="-1.42655">
        <ele>68.2</ele>
        <time>2021-09-21T09:58:34Z</time>
      </trkpt>
      <trkpt lat="46.50982" lon="-1.42653">
        <ele>68.3</ele>
        <time>2021-09-21T09:58:35Z</time>
      </trkpt>
      <trkpt lat="46.50982" lon="-1.42652">
        <ele>68.3</ele>
        <time>2021-09-21T09:58:36Z</time>
      </trkpt>
      <trkpt lat="46.50983" lon="-1.4265">
        <ele>68.3</ele>
        <time>2021-09-21T09:58:37Z</time>
      </trkpt>
      <trkpt lat="46.50984" lon="-1.42649">
        <ele>68.4</ele>
        <time>2021-09-21T09:58:38Z</time>
      </trkpt>
      <trkpt lat="46.50984" lon="-1.42647">
        <ele>68.4</ele>
        <time>2021-09-21T09:58:39Z</time>
      </trkpt>
      <trkpt lat="46.50985" lon="-1.42646">
        <ele>68.5</ele>
        <time>2021-09-21T09:58:40Z</time>
      </trkpt>
      <trkpt lat="46.50986" lon="-1.42645">
        <ele>68.5</ele>
        <time>2021-09-21T09:58:41Z</time>
      </trkpt>
      <trkpt lat="46.50987" lon="-1.42643">
        <ele>68.6</ele>
        <time>2021-09-21T09:58:42Z</time>
      </trkpt>
      <trkpt lat="46.50987" lon="-1.42642">
        <ele>68.6</ele>
        <time>2021-09-21T09:58:43Z</time>
      </trkpt>
      <trkpt lat="46.50988" lon="-1.4264">
        <ele>68.7</ele>
        <time>2021-09-21T09:58:44Z</time>
      </trkpt>
      <trkpt lat="46.50989" lon="-1.42639">
        <ele>68.7</ele>
        <time>2021-09-21T09:58:45Z</time>
      </trkpt>
      <trkpt lat="46.5099" lon="-1.42637">
        <ele>68.8</ele>
        <time>2021-09-21T09:58:46Z</time>
      </trkpt>
      <trkpt lat="46.5099" lon="-1.42636">
        <ele>68.8</ele>
        <time>2021-09-21T09:58:47Z</time>
      </trkpt>
      <trkpt lat="46.50991" lon="-1.42635">
        <ele>68.9</ele>
        <time>2021-09-21T09:58:48Z</time>
      </trkpt>
      <trkpt lat="46.50992" lon="-1.42633">
        <ele>68.9</ele>
        <time>2021-09-21T09:58:49Z</time>
      </trkpt>
      <trkpt lat="46.50992" lon="-1.42632">
        <ele>69</ele>
        <time>2021-09-21T09:58:50Z</time>
      </trkpt>
      <trkpt lat="46.50993" lon="-1.4263">
        <ele>69</ele>
        <time>2021-09-21T09:58:51Z</time>
      </trkpt>
      <trkpt lat="46.50994" lon="-1.42629">
        <ele>69.1</ele>
        <time>2021-09-21T09:58:52Z</time>
      </trkpt>
      <trkpt lat="46.50994" lon="-1.42627">
        <ele>69.1</ele>
        <time>2021-09-21T09:58:53Z</time>
      </trkpt>
      <trkpt lat="46.50995" lon="-1.42626">
        <ele>69.2</ele>
        <time>2021-09-21T09:58:54Z</time>
      </trkpt>
      <trkpt lat="46.50996" lon="-1.42625">
        <ele>69.2</ele>
        <time>2021-09-21T09:58:55Z</time>
      </trkpt>
      <trkpt lat="46.50996" lon="-1.42623">
        <ele>69.3</ele>
        <time>2021-09-21T09:58:56Z</time>
      </trkpt>
      <trkpt lat="46.50997" lon="-1.42622">
        <ele>69.3</ele>
        <time>2021-09-21T09:58:57Z</time>
      </trkpt>
      <trkpt lat="46.50998" lon="-1.4262">
        <ele>69.4</ele>
        <time>2021-09-21T09:58:58Z</time>
      </trkpt>
      <trkpt lat="46.50998" lon="-1.42619">
        <ele>69.4</ele>
        <time>2021-09-21T09:58:59Z</time>
      </trkpt>
      <trkpt lat="46.50999" lon="-1.42617">
        <ele>69.5</ele>
        <time>2021-09-21T09:59:00Z</time>
      </trkpt>
      <trkpt lat="46.50999" lon="-1.42616">
        <ele>69.5</ele>
        <time>2021-09-21T09:59:01Z</time>
      </trkpt>
      <trkpt lat="46.51" lon="-1.42614">
        <ele>69.6</ele>
        <time>2021-09-21T09:59:02Z</time>
      </trkpt>
      <trkpt lat="46.51" lon="-1.42613">
        <ele>69.6</ele>
        <time>2021-09-21T09:59:03Z</time>
      </trkpt>
      <trkpt lat="46.51001" lon="-1.42611">
        <ele>69.7</ele>
        <time>2021-09-21T09:59:04Z</time>
      </trkpt>
      <trkpt lat="46.51002" lon="-1.4261">
        <ele>69.7</ele>
        <time>2021-09-21T09:59:05Z</time>
      </trkpt>
      <trkpt lat="46.51002" lon="-1.42608">
        <ele>69.8</ele>
        <time>2021-09-21T09:59:06Z</time>
      </trkpt>
      <trkpt lat="46.51003" lon="-1.42607">
        <ele>69.8</ele>
        <time>2021-09-21T09:59:07Z</time>
      </trkpt>
      <trkpt lat="46.51004" lon="-1.42606">
        <ele>69.9</ele>
        <time>2021-09-21T09:59:08Z</time>
      </trkpt>
      <trkpt lat="46.51004" lon="-1.42604">
        <ele>69.9</ele>
        <time>2021-09-21T09:59:09Z</time>
      </trkpt>
      <trkpt lat="46.51005" lon="-1.42603">
        <ele>69.9</ele>
        <time>2021-09-21T09:59:10Z</time>
      </trkpt>
      <trkpt lat="46.51005" lon="-1.42601">
        <ele>70</ele>
        <time>2021-09-21T09:59:11Z</time>
      </trkpt>
      <trkpt lat="46.51006" lon="-1.426">
        <ele>70</ele>
        <time>2021-09-21T09:59:12Z</time>
      </trkpt>
      <trkpt lat="46.51007" lon="-1.42599">
        <ele>70.1</ele>
        <time>2021-09-21T09:59:13Z</time>
      </trkpt>
      <trkpt lat="46.51007" lon="-1.42597">
        <ele>70.1</ele>
        <time>2021-09-21T09:59:14Z</time>
      </trkpt>
      <trkpt lat="46.51008" lon="-1.42596">
        <ele>70.2</ele>
        <time>2021-09-21T09:59:15Z</time>
      </trkpt>
      <trkpt lat="46.51009" lon="-1.42594">
        <ele>70.2</ele>
        <time>2021-09-21T09:59:16Z</time>
      </trkpt>
      <trkpt lat="46.5101" lon="-1.42593">
        <ele>70.3</ele>
        <time>2021-09-21T09:59:17Z</time>
      </trkpt>
      <trkpt lat="46.5101" lon="-1.42591">
        <ele>70.3</ele>
        <time>2021-09-21T09:59:18Z</time>
      </trkpt>
      <trkpt lat="46.51011" lon="-1.4259">
        <ele>70.4</ele>
        <time>2021-09-21T09:59:19Z</time>
      </trkpt>
      <trkpt lat="46.51012" lon="-1.42589">
        <ele>70.4</ele>
        <time>2021-09-21T09:59:20Z</time>
      </trkpt>
      <trkpt lat="46.51012" lon="-1.42587">
        <ele>70.4</ele>
        <time>2021-09-21T09:59:21Z</time>
      </trkpt>
      <trkpt lat="46.51013" lon="-1.42586">
        <ele>70.5</ele>
        <time>2021-09-21T09:59:22Z</time>
      </trkpt>
      <trkpt lat="46.51014" lon="-1.42584">
        <ele>70.5</ele>
        <time>2021-09-21T09:59:23Z</time>
      </trkpt>
      <trkpt lat="46.51015" lon="-1.42583">
        <ele>70.5</ele>
        <time>2021-09-21T09:59:24Z</time>
      </trkpt>
      <trkpt lat="46.51015" lon="-1.42581">
        <ele>70.6</ele>
        <time>2021-09-21T09:59:25Z</time>
      </trkpt>
      <trkpt lat="46.51016" lon="-1.4258">
        <ele>70.6</ele>
        <time>2021-09-21T09:59:26Z</time>
      </trkpt>
      <trkpt lat="46.51017" lon="-1.42578">
        <ele>70.6</ele>
        <time>2021-09-21T09:59:27Z</time>
      </trkpt>
      <trkpt lat="46.51018" lon="-1.42577">
        <ele>70.7</ele>
        <time>2021-09-21T09:59:28Z</time>
      </trkpt>
      <trkpt lat="46.51018" lon="-1.42575">
        <ele>70.7</ele>
        <time>2021-09-21T09:59:29Z</time>
      </trkpt>
      <trkpt lat="46.51019" lon="-1.42574">
        <ele>70.8</ele>
        <time>2021-09-21T09:59:30Z</time>
      </trkpt>
      <trkpt lat="46.5102" lon="-1.42572">
        <ele>70.8</ele>
        <time>2021-09-21T09:59:31Z</time>
      </trkpt>
      <trkpt lat="46.51021" lon="-1.42571">
        <ele>70.8</ele>
        <time>2021-09-21T09:59:32Z</time>
      </trkpt>
      <trkpt lat="46.51021" lon="-1.42569">
        <ele>70.8</ele>
        <time>2021-09-21T09:59:33Z</time>
      </trkpt>
      <trkpt lat="46.51022" lon="-1.42568">
        <ele>70.9</ele>
        <time>2021-09-21T09:59:34Z</time>
      </trkpt>
      <trkpt lat="46.51023" lon="-1.42566">
        <ele>70.9</ele>
        <time>2021-09-21T09:59:35Z</time>
      </trkpt>
      <trkpt lat="46.51024" lon="-1.42565">
        <ele>70.9</ele>
        <time>2021-09-21T09:59:36Z</time>
      </trkpt>
      <trkpt lat="46.51024" lon="-1.42564">
        <ele>70.9</ele>
        <time>2021-09-21T09:59:37Z</time>
      </trkpt>
      <trkpt lat="46.51025" lon="-1.42562">
        <ele>71</ele>
        <time>2021-09-21T09:59:38Z</time>
      </trkpt>
      <trkpt lat="46.51026" lon="-1.42561">
        <ele>71</ele>
        <time>2021-09-21T09:59:39Z</time>
      </trkpt>
      <trkpt lat="46.51027" lon="-1.4256">
        <ele>71</ele>
        <time>2021-09-21T09:59:40Z</time>
      </trkpt>
      <trkpt lat="46.51028" lon="-1.42558">
        <ele>71</ele>
        <time>2021-09-21T09:59:41Z</time>
      </trkpt>
      <trkpt lat="46.51029" lon="-1.42557">
        <ele>71.1</ele>
        <time>2021-09-21T09:59:42Z</time>
      </trkpt>
      <trkpt lat="46.51029" lon="-1.42556">
        <ele>71.1</ele>
        <time>2021-09-21T09:59:43Z</time>
      </trkpt>
      <trkpt lat="46.5103" lon="-1.42555">
        <ele>71.1</ele>
        <time>2021-09-21T09:59:44Z</time>
      </trkpt>
      <trkpt lat="46.51031" lon="-1.42554">
        <ele>71.1</ele>
        <time>2021-09-21T09:59:45Z</time>
      </trkpt>
      <trkpt lat="46.51032" lon="-1.42552">
        <ele>71.1</ele>
        <time>2021-09-21T09:59:46Z</time>
      </trkpt>
      <trkpt lat="46.51033" lon="-1.42551">
        <ele>71.2</ele>
        <time>2021-09-21T09:59:47Z</time>
      </trkpt>
      <trkpt lat="46.51034" lon="-1.4255">
        <ele>71.2</ele>
        <time>2021-09-21T09:59:48Z</time>
      </trkpt>
      <trkpt lat="46.51035" lon="-1.42549">
        <ele>71.2</ele>
        <time>2021-09-21T09:59:49Z</time>
      </trkpt>
      <trkpt lat="46.51036" lon="-1.42548">
        <ele>71.2</ele>
        <time>2021-09-21T09:59:50Z</time>
      </trkpt>
      <trkpt lat="46.51037" lon="-1.42547">
        <ele>71.3</ele>
        <time>2021-09-21T09:59:51Z</time>
      </trkpt>
      <trkpt lat="46.51038" lon="-1.42546">
        <ele>71.3</ele>
        <time>2021-09-21T09:59:52Z</time>
      </trkpt>
      <trkpt lat="46.51039" lon="-1.42545">
        <ele>71.3</ele>
        <time>2021-09-21T09:59:53Z</time>
      </trkpt>
      <trkpt lat="46.5104" lon="-1.42543">
        <ele>71.3</ele>
        <time>2021-09-21T09:59:54Z</time>
      </trkpt>
      <trkpt lat="46.51041" lon="-1.42542">
        <ele>71.3</ele>
        <time>2021-09-21T09:59:55Z</time>
      </trkpt>
      <trkpt lat="46.51042" lon="-1.42541">
        <ele>71.3</ele>
        <time>2021-09-21T09:59:56Z</time>
      </trkpt>
      <trkpt lat="46.51043" lon="-1.4254">
        <ele>71.3</ele>
        <time>2021-09-21T09:59:57Z</time>
      </trkpt>
      <trkpt lat="46.51044" lon="-1.42539">
        <ele>71.4</ele>
        <time>2021-09-21T09:59:58Z</time>
      </trkpt>
      <trkpt lat="46.51045" lon="-1.42539">
        <ele>71.4</ele>
        <time>2021-09-21T09:59:59Z</time>
      </trkpt>
      <trkpt lat="46.51046" lon="-1.42538">
        <ele>71.4</ele>
        <time>2021-09-21T10:00:00Z</time>
      </trkpt>
      <trkpt lat="46.51047" lon="-1.42537">
        <ele>71.4</ele>
        <time>2021-09-21T10:00:01Z</time>
      </trkpt>
      <trkpt lat="46.51048" lon="-1.42536">
        <ele>71.4</ele>
        <time>2021-09-21T10:00:02Z</time>
      </trkpt>
      <trkpt lat="46.5105" lon="-1.42535">
        <ele>71.4</ele>
        <time>2021-09-21T10:00:03Z</time>
      </trkpt>
      <trkpt lat="46.51051" lon="-1.42534">
        <ele>71.4</ele>
        <time>2021-09-21T10:00:04Z</time>
      </trkpt>
      <trkpt lat="46.51052" lon="-1.42534">
        <ele>71.4</ele>
        <time>2021-09-21T10:00:05Z</time>
      </trkpt>
      <trkpt lat="46.51053" lon="-1.42533">
        <ele>71.4</ele>
        <time>2021-09-21T10:00:06Z</time>
      </trkpt>
      <trkpt lat="46.51055" lon="-1.42532">
        <ele>71.4</ele>
        <time>2021-09-21T10:00:07Z</time>
      </trkpt>
      <trkpt lat="46.51056" lon="-1.42531">
        <ele>71.4</ele>
        <time>2021-09-21T10:00:08Z</time>
      </trkpt>
      <trkpt lat="46.51057" lon="-1.4253">
        <ele>71.4</ele>
        <time>2021-09-21T10:00:09Z</time>
      </trkpt>
      <trkpt lat="46.51059" lon="-1.42529">
        <ele>71.4</ele>
        <time>2021-09-21T10:00:10Z</time>
      </trkpt>
      <trkpt lat="46.5106" lon="-1.42528">
        <ele>71.4</ele>
        <time>2021-09-21T10:00:11Z</time>
      </trkpt>
      <trkpt lat="46.51061" lon="-1.42527">
        <ele>71.4</ele>
        <time>2021-09-21T10:00:12Z</time>
      </trkpt>
      <trkpt lat="46.51062" lon="-1.42526">
        <ele>71.4</ele>
        <time>2021-09-21T10:00:13Z</time>
      </trkpt>
      <trkpt lat="46.51064" lon="-1.42525">
        <ele>71.4</ele>
        <time>2021-09-21T10:00:14Z</time>
      </trkpt>
      <trkpt lat="46.51065" lon="-1.42524">
        <ele>71.4</ele>
        <time>2021-09-21T10:00:15Z</time>
      </trkpt>
      <trkpt lat="46.51066" lon="-1.42523">
        <ele>71.4</ele>
        <time>2021-09-21T10:00:16Z</time>
      </trkpt>
      <trkpt lat="46.51067" lon="-1.42523">
        <ele>71.3</ele>
        <time>2021-09-21T10:00:17Z</time>
      </trkpt>
      <trkpt lat="46.51068" lon="-1.42522">
        <ele>71.3</ele>
        <time>2021-09-21T10:00:18Z</time>
      </trkpt>
      <trkpt lat="46.51068" lon="-1.42521">
        <ele>71.3</ele>
        <time>2021-09-21T10:00:19Z</time>
      </trkpt>
      <trkpt lat="46.51069" lon="-1.4252">
        <ele>71.3</ele>
        <time>2021-09-21T10:00:20Z</time>
      </trkpt>
      <trkpt lat="46.5107" lon="-1.4252">
        <ele>71.3</ele>
        <time>2021-09-21T10:00:21Z</time>
      </trkpt>
      <trkpt lat="46.5107" lon="-1.42519">
        <ele>71.3</ele>
        <time>2021-09-21T10:00:22Z</time>
      </trkpt>
      <trkpt lat="46.5107" lon="-1.42519">
        <ele>71.3</ele>
        <time>2021-09-21T10:00:23Z</time>
      </trkpt>
      <trkpt lat="46.51071" lon="-1.42519">
        <ele>71.3</ele>
        <time>2021-09-21T10:00:24Z</time>
      </trkpt>
      <trkpt lat="46.51071" lon="-1.42518">
        <ele>71.2</ele>
        <time>2021-09-21T10:00:25Z</time>
      </trkpt>
      <trkpt lat="46.51071" lon="-1.42518">
        <ele>71.2</ele>
        <time>2021-09-21T10:00:26Z</time>
      </trkpt>
      <trkpt lat="46.51072" lon="-1.42518">
        <ele>71.2</ele>
        <time>2021-09-21T10:00:27Z</time>
      </trkpt>
      <trkpt lat="46.51072" lon="-1.42517">
        <ele>71.2</ele>
        <time>2021-09-21T10:00:28Z</time>
      </trkpt>
      <trkpt lat="46.51073" lon="-1.42517">
        <ele>71.2</ele>
        <time>2021-09-21T10:00:29Z</time>
      </trkpt>
      <trkpt lat="46.51073" lon="-1.42516">
        <ele>71.2</ele>
        <time>2021-09-21T10:00:30Z</time>
      </trkpt>
      <trkpt lat="46.51074" lon="-1.42515">
        <ele>71.2</ele>
        <time>2021-09-21T10:00:31Z</time>
      </trkpt>
      <trkpt lat="46.51075" lon="-1.42515">
        <ele>71.1</ele>
        <time>2021-09-21T10:00:32Z</time>
      </trkpt>
      <trkpt lat="46.51076" lon="-1.42513">
        <ele>71.1</ele>
        <time>2021-09-21T10:00:33Z</time>
      </trkpt>
      <trkpt lat="46.51078" lon="-1.42512">
        <ele>71</ele>
        <time>2021-09-21T10:00:34Z</time>
      </trkpt>
      <trkpt lat="46.51079" lon="-1.42511">
        <ele>71</ele>
        <time>2021-09-21T10:00:35Z</time>
      </trkpt>
      <trkpt lat="46.5108" lon="-1.4251">
        <ele>71</ele>
        <time>2021-09-21T10:00:36Z</time>
      </trkpt>
      <trkpt lat="46.51082" lon="-1.42509">
        <ele>70.9</ele>
        <time>2021-09-21T10:00:37Z</time>
      </trkpt>
      <trkpt lat="46.51083" lon="-1.42508">
        <ele>70.9</ele>
        <time>2021-09-21T10:00:38Z</time>
      </trkpt>
      <trkpt lat="46.51084" lon="-1.42507">
        <ele>70.8</ele>
        <time>2021-09-21T10:00:39Z</time>
      </trkpt>
      <trkpt lat="46.51085" lon="-1.42505">
        <ele>70.8</ele>
        <time>2021-09-21T10:00:40Z</time>
      </trkpt>
      <trkpt lat="46.51087" lon="-1.42504">
        <ele>70.8</ele>
        <time>2021-09-21T10:00:41Z</time>
      </trkpt>
      <trkpt lat="46.51088" lon="-1.42503">
        <ele>70.7</ele>
        <time>2021-09-21T10:00:42Z</time>
      </trkpt>
      <trkpt lat="46.51089" lon="-1.42502">
        <ele>70.7</ele>
        <time>2021-09-21T10:00:43Z</time>
      </trkpt>
      <trkpt lat="46.5109" lon="-1.42501">
        <ele>70.6</ele>
        <time>2021-09-21T10:00:44Z</time>
      </trkpt>
      <trkpt lat="46.51091" lon="-1.425">
        <ele>70.5</ele>
        <time>2021-09-21T10:00:45Z</time>
      </trkpt>
      <trkpt lat="46.51092" lon="-1.42499">
        <ele>70.5</ele>
        <time>2021-09-21T10:00:46Z</time>
      </trkpt>
      <trkpt lat="46.51093" lon="-1.42498">
        <ele>70.4</ele>
        <time>2021-09-21T10:00:47Z</time>
      </trkpt>
      <trkpt lat="46.51094" lon="-1.42497">
        <ele>70.4</ele>
        <time>2021-09-21T10:00:48Z</time>
      </trkpt>
      <trkpt lat="46.51095" lon="-1.42496">
        <ele>70.3</ele>
        <time>2021-09-21T10:00:49Z</time>
      </trkpt>
      <trkpt lat="46.51096" lon="-1.42495">
        <ele>70.3</ele>
        <time>2021-09-21T10:00:50Z</time>
      </trkpt>
      <trkpt lat="46.51097" lon="-1.42494">
        <ele>70.2</ele>
        <time>2021-09-21T10:00:51Z</time>
      </trkpt>
      <trkpt lat="46.51098" lon="-1.42493">
        <ele>70.1</ele>
        <time>2021-09-21T10:00:52Z</time>
      </trkpt>
      <trkpt lat="46.51099" lon="-1.42492">
        <ele>70.1</ele>
        <time>2021-09-21T10:00:53Z</time>
      </trkpt>
      <trkpt lat="46.511" lon="-1.42491">
        <ele>70</ele>
        <time>2021-09-21T10:00:54Z</time>
      </trkpt>
      <trkpt lat="46.51102" lon="-1.4249">
        <ele>70</ele>
        <time>2021-09-21T10:00:55Z</time>
      </trkpt>
      <trkpt lat="46.51103" lon="-1.42489">
        <ele>69.9</ele>
        <time>2021-09-21T10:00:56Z</time>
      </trkpt>
      <trkpt lat="46.51104" lon="-1.42488">
        <ele>69.8</ele>
        <time>2021-09-21T10:00:57Z</time>
      </trkpt>
      <trkpt lat="46.51105" lon="-1.42486">
        <ele>69.8</ele>
        <time>2021-09-21T10:00:58Z</time>
      </trkpt>
      <trkpt lat="46.51106" lon="-1.42485">
        <ele>69.7</ele>
        <time>2021-09-21T10:00:59Z</time>
      </trkpt>
      <trkpt lat="46.51107" lon="-1.42484">
        <ele>69.6</ele>
        <time>2021-09-21T10:01:00Z</time>
      </trkpt>
      <trkpt lat="46.51108" lon="-1.42483">
        <ele>69.6</ele>
        <time>2021-09-21T10:01:01Z</time>
      </trkpt>
      <trkpt lat="46.5111" lon="-1.42482">
        <ele>69.5</ele>
        <time>2021-09-21T10:01:02Z</time>
      </trkpt>
      <trkpt lat="46.51111" lon="-1.42481">
        <ele>69.4</ele>
        <time>2021-09-21T10:01:03Z</time>
      </trkpt>
      <trkpt lat="46.51112" lon="-1.4248">
        <ele>69.4</ele>
        <time>2021-09-21T10:01:04Z</time>
      </trkpt>
      <trkpt lat="46.51113" lon="-1.42479">
        <ele>69.3</ele>
        <time>2021-09-21T10:01:05Z</time>
      </trkpt>
      <trkpt lat="46.51114" lon="-1.42478">
        <ele>69.2</ele>
        <time>2021-09-21T10:01:06Z</time>
      </trkpt>
      <trkpt lat="46.51116" lon="-1.42477">
        <ele>69.1</ele>
        <time>2021-09-21T10:01:07Z</time>
      </trkpt>
      <trkpt lat="46.51117" lon="-1.42476">
        <ele>69.1</ele>
        <time>2021-09-21T10:01:08Z</time>
      </trkpt>
      <trkpt lat="46.51118" lon="-1.42475">
        <ele>69</ele>
        <time>2021-09-21T10:01:09Z</time>
      </trkpt>
      <trkpt lat="46.51119" lon="-1.42474">
        <ele>68.9</ele>
        <time>2021-09-21T10:01:10Z</time>
      </trkpt>
      <trkpt lat="46.5112" lon="-1.42473">
        <ele>68.9</ele>
        <time>2021-09-21T10:01:11Z</time>
      </trkpt>
      <trkpt lat="46.51121" lon="-1.42472">
        <ele>68.8</ele>
        <time>2021-09-21T10:01:12Z</time>
      </trkpt>
      <trkpt lat="46.51123" lon="-1.42471">
        <ele>68.8</ele>
        <time>2021-09-21T10:01:13Z</time>
      </trkpt>
      <trkpt lat="46.51124" lon="-1.4247">
        <ele>68.7</ele>
        <time>2021-09-21T10:01:14Z</time>
      </trkpt>
      <trkpt lat="46.51125" lon="-1.42469">
        <ele>68.6</ele>
        <time>2021-09-21T10:01:15Z</time>
      </trkpt>
      <trkpt lat="46.51126" lon="-1.42468">
        <ele>68.6</ele>
        <time>2021-09-21T10:01:16Z</time>
      </trkpt>
      <trkpt lat="46.51127" lon="-1.42467">
        <ele>68.5</ele>
        <time>2021-09-21T10:01:17Z</time>
      </trkpt>
      <trkpt lat="46.51129" lon="-1.42467">
        <ele>68.5</ele>
        <time>2021-09-21T10:01:18Z</time>
      </trkpt>
      <trkpt lat="46.5113" lon="-1.42466">
        <ele>68.4</ele>
        <time>2021-09-21T10:01:19Z</time>
      </trkpt>
      <trkpt lat="46.51131" lon="-1.42465">
        <ele>68.4</ele>
        <time>2021-09-21T10:01:20Z</time>
      </trkpt>
      <trkpt lat="46.51132" lon="-1.42464">
        <ele>68.3</ele>
        <time>2021-09-21T10:01:21Z</time>
      </trkpt>
      <trkpt lat="46.51133" lon="-1.42463">
        <ele>68.3</ele>
        <time>2021-09-21T10:01:22Z</time>
      </trkpt>
      <trkpt lat="46.51134" lon="-1.42462">
        <ele>68.3</ele>
        <time>2021-09-21T10:01:23Z</time>
      </trkpt>
      <trkpt lat="46.51136" lon="-1.42461">
        <ele>68.2</ele>
        <time>2021-09-21T10:01:24Z</time>
      </trkpt>
      <trkpt lat="46.51137" lon="-1.4246">
        <ele>68.2</ele>
        <time>2021-09-21T10:01:25Z</time>
      </trkpt>
      <trkpt lat="46.51138" lon="-1.42459">
        <ele>68.1</ele>
        <time>2021-09-21T10:01:26Z</time>
      </trkpt>
      <trkpt lat="46.51139" lon="-1.42458">
        <ele>68.1</ele>
        <time>2021-09-21T10:01:27Z</time>
      </trkpt>
      <trkpt lat="46.5114" lon="-1.42457">
        <ele>68.1</ele>
        <time>2021-09-21T10:01:28Z</time>
      </trkpt>
      <trkpt lat="46.51141" lon="-1.42456">
        <ele>68</ele>
        <time>2021-09-21T10:01:29Z</time>
      </trkpt>
      <trkpt lat="46.51142" lon="-1.42454">
        <ele>68</ele>
        <time>2021-09-21T10:01:30Z</time>
      </trkpt>
      <trkpt lat="46.51143" lon="-1.42453">
        <ele>67.9</ele>
        <time>2021-09-21T10:01:31Z</time>
      </trkpt>
      <trkpt lat="46.51144" lon="-1.42452">
        <ele>67.9</ele>
        <time>2021-09-21T10:01:32Z</time>
      </trkpt>
      <trkpt lat="46.51145" lon="-1.42451">
        <ele>67.9</ele>
        <time>2021-09-21T10:01:33Z</time>
      </trkpt>
      <trkpt lat="46.51146" lon="-1.4245">
        <ele>67.8</ele>
        <time>2021-09-21T10:01:34Z</time>
      </trkpt>
      <trkpt lat="46.51147" lon="-1.42449">
        <ele>67.8</ele>
        <time>2021-09-21T10:01:35Z</time>
      </trkpt>
      <trkpt lat="46.51147" lon="-1.42448">
        <ele>67.8</ele>
        <time>2021-09-21T10:01:36Z</time>
      </trkpt>
      <trkpt lat="46.51148" lon="-1.42447">
        <ele>67.8</ele>
        <time>2021-09-21T10:01:37Z</time>
      </trkpt>
      <trkpt lat="46.51149" lon="-1.42446">
        <ele>67.7</ele>
        <time>2021-09-21T10:01:38Z</time>
      </trkpt>
      <trkpt lat="46.51149" lon="-1.42445">
        <ele>67.7</ele>
        <time>2021-09-21T10:01:39Z</time>
      </trkpt>
      <trkpt lat="46.5115" lon="-1.42444">
        <ele>67.7</ele>
        <time>2021-09-21T10:01:40Z</time>
      </trkpt>
      <trkpt lat="46.51151" lon="-1.42443">
        <ele>67.7</ele>
        <time>2021-09-21T10:01:41Z</time>
      </trkpt>
      <trkpt lat="46.51151" lon="-1.42443">
        <ele>67.7</ele>
        <time>2021-09-21T10:01:42Z</time>
      </trkpt>
      <trkpt lat="46.51152" lon="-1.42442">
        <ele>67.6</ele>
        <time>2021-09-21T10:01:43Z</time>
      </trkpt>
      <trkpt lat="46.51152" lon="-1.42441">
        <ele>67.6</ele>
        <time>2021-09-21T10:01:44Z</time>
      </trkpt>
      <trkpt lat="46.51153" lon="-1.42439">
        <ele>67.6</ele>
        <time>2021-09-21T10:01:45Z</time>
      </trkpt>
      <trkpt lat="46.51154" lon="-1.42438">
        <ele>67.6</ele>
        <time>2021-09-21T10:01:46Z</time>
      </trkpt>
      <trkpt lat="46.51155" lon="-1.42437">
        <ele>67.5</ele>
        <time>2021-09-21T10:01:47Z</time>
      </trkpt>
      <trkpt lat="46.51156" lon="-1.42436">
        <ele>67.5</ele>
        <time>2021-09-21T10:01:48Z</time>
      </trkpt>
      <trkpt lat="46.51157" lon="-1.42434">
        <ele>67.5</ele>
        <time>2021-09-21T10:01:49Z</time>
      </trkpt>
      <trkpt lat="46.51158" lon="-1.42433">
        <ele>67.4</ele>
        <time>2021-09-21T10:01:50Z</time>
      </trkpt>
      <trkpt lat="46.51159" lon="-1.42431">
        <ele>67.4</ele>
        <time>2021-09-21T10:01:51Z</time>
      </trkpt>
      <trkpt lat="46.5116" lon="-1.4243">
        <ele>67.4</ele>
        <time>2021-09-21T10:01:52Z</time>
      </trkpt>
      <trkpt lat="46.51161" lon="-1.42429">
        <ele>67.3</ele>
        <time>2021-09-21T10:01:53Z</time>
      </trkpt>
      <trkpt lat="46.51162" lon="-1.42427">
        <ele>67.3</ele>
        <time>2021-09-21T10:01:54Z</time>
      </trkpt>
      <trkpt lat="46.51163" lon="-1.42426">
        <ele>67.3</ele>
        <time>2021-09-21T10:01:55Z</time>
      </trkpt>
      <trkpt lat="46.51164" lon="-1.42424">
        <ele>67.2</ele>
        <time>2021-09-21T10:01:56Z</time>
      </trkpt>
      <trkpt lat="46.51165" lon="-1.42423">
        <ele>67.2</ele>
        <time>2021-09-21T10:01:57Z</time>
      </trkpt>
      <trkpt lat="46.51166" lon="-1.42422">
        <ele>67.2</ele>
        <time>2021-09-21T10:01:58Z</time>
      </trkpt>
      <trkpt lat="46.51167" lon="-1.4242">
        <ele>67.1</ele>
        <time>2021-09-21T10:01:59Z</time>
      </trkpt>
      <trkpt lat="46.51167" lon="-1.42419">
        <ele>67.1</ele>
        <time>2021-09-21T10:02:00Z</time>
      </trkpt>
      <trkpt lat="46.51168" lon="-1.42418">
        <ele>67</ele>
        <time>2021-09-21T10:02:01Z</time>
      </trkpt>
      <trkpt lat="46.51169" lon="-1.42416">
        <ele>67</ele>
        <time>2021-09-21T10:02:02Z</time>
      </trkpt>
      <trkpt lat="46.5117" lon="-1.42415">
        <ele>67</ele>
        <time>2021-09-21T10:02:03Z</time>
      </trkpt>
      <trkpt lat="46.51171" lon="-1.42414">
        <ele>66.9</ele>
        <time>2021-09-21T10:02:04Z</time>
      </trkpt>
      <trkpt lat="46.51172" lon="-1.42412">
        <ele>66.9</ele>
        <time>2021-09-21T10:02:05Z</time>
      </trkpt>
      <trkpt lat="46.51173" lon="-1.42411">
        <ele>66.9</ele>
        <time>2021-09-21T10:02:06Z</time>
      </trkpt>
      <trkpt lat="46.51174" lon="-1.4241">
        <ele>66.8</ele>
        <time>2021-09-21T10:02:07Z</time>
      </trkpt>
      <trkpt lat="46.51175" lon="-1.42409">
        <ele>66.8</ele>
        <time>2021-09-21T10:02:08Z</time>
      </trkpt>
      <trkpt lat="46.51176" lon="-1.42407">
        <ele>66.7</ele>
        <time>2021-09-21T10:02:09Z</time>
      </trkpt>
      <trkpt lat="46.51177" lon="-1.42406">
        <ele>66.7</ele>
        <time>2021-09-21T10:02:10Z</time>
      </trkpt>
      <trkpt lat="46.51178" lon="-1.42405">
        <ele>66.7</ele>
        <time>2021-09-21T10:02:11Z</time>
      </trkpt>
      <trkpt lat="46.51179" lon="-1.42403">
        <ele>66.6</ele>
        <time>2021-09-21T10:02:12Z</time>
      </trkpt>
      <trkpt lat="46.5118" lon="-1.42402">
        <ele>66.6</ele>
        <time>2021-09-21T10:02:13Z</time>
      </trkpt>
      <trkpt lat="46.51182" lon="-1.42401">
        <ele>66.6</ele>
        <time>2021-09-21T10:02:14Z</time>
      </trkpt>
      <trkpt lat="46.51183" lon="-1.424">
        <ele>66.6</ele>
        <time>2021-09-21T10:02:15Z</time>
      </trkpt>
      <trkpt lat="46.51184" lon="-1.42398">
        <ele>66.5</ele>
        <time>2021-09-21T10:02:16Z</time>
      </trkpt>
      <trkpt lat="46.51185" lon="-1.42397">
        <ele>66.5</ele>
        <time>2021-09-21T10:02:17Z</time>
      </trkpt>
      <trkpt lat="46.51186" lon="-1.42396">
        <ele>66.5</ele>
        <time>2021-09-21T10:02:18Z</time>
      </trkpt>
      <trkpt lat="46.51187" lon="-1.42395">
        <ele>66.5</ele>
        <time>2021-09-21T10:02:19Z</time>
      </trkpt>
      <trkpt lat="46.51188" lon="-1.42393">
        <ele>66.5</ele>
        <time>2021-09-21T10:02:20Z</time>
      </trkpt>
      <trkpt lat="46.51189" lon="-1.42392">
        <ele>66.4</ele>
        <time>2021-09-21T10:02:21Z</time>
      </trkpt>
      <trkpt lat="46.5119" lon="-1.42391">
        <ele>66.4</ele>
        <time>2021-09-21T10:02:22Z</time>
      </trkpt>
      <trkpt lat="46.5119" lon="-1.4239">
        <ele>66.4</ele>
        <time>2021-09-21T10:02:23Z</time>
      </trkpt>
      <trkpt lat="46.51191" lon="-1.42389">
        <ele>66.4</ele>
        <time>2021-09-21T10:02:24Z</time>
      </trkpt>
      <trkpt lat="46.51192" lon="-1.42388">
        <ele>66.4</ele>
        <time>2021-09-21T10:02:25Z</time>
      </trkpt>
      <trkpt lat="46.51193" lon="-1.42387">
        <ele>66.3</ele>
        <time>2021-09-21T10:02:26Z</time>
      </trkpt>
      <trkpt lat="46.51194" lon="-1.42385">
        <ele>66.3</ele>
        <time>2021-09-21T10:02:27Z</time>
      </trkpt>
      <trkpt lat="46.51195" lon="-1.42384">
        <ele>66.3</ele>
        <time>2021-09-21T10:02:28Z</time>
      </trkpt>
      <trkpt lat="46.51196" lon="-1.42383">
        <ele>66.3</ele>
        <time>2021-09-21T10:02:29Z</time>
      </trkpt>
      <trkpt lat="46.51197" lon="-1.42382">
        <ele>66.3</ele>
        <time>2021-09-21T10:02:30Z</time>
      </trkpt>
      <trkpt lat="46.51198" lon="-1.42381">
        <ele>66.3</ele>
        <time>2021-09-21T10:02:31Z</time>
      </trkpt>
      <trkpt lat="46.51199" lon="-1.42379">
        <ele>66.2</ele>
        <time>2021-09-21T10:02:32Z</time>
      </trkpt>
      <trkpt lat="46.512" lon="-1.42378">
        <ele>66.2</ele>
        <time>2021-09-21T10:02:33Z</time>
      </trkpt>
      <trkpt lat="46.51201" lon="-1.42376">
        <ele>66.2</ele>
        <time>2021-09-21T10:02:34Z</time>
      </trkpt>
      <trkpt lat="46.51202" lon="-1.42375">
        <ele>66.2</ele>
        <time>2021-09-21T10:02:35Z</time>
      </trkpt>
      <trkpt lat="46.51203" lon="-1.42374">
        <ele>66.1</ele>
        <time>2021-09-21T10:02:36Z</time>
      </trkpt>
      <trkpt lat="46.51204" lon="-1.42372">
        <ele>66.1</ele>
        <time>2021-09-21T10:02:37Z</time>
      </trkpt>
      <trkpt lat="46.51205" lon="-1.42371">
        <ele>66.1</ele>
        <time>2021-09-21T10:02:38Z</time>
      </trkpt>
      <trkpt lat="46.51206" lon="-1.42369">
        <ele>66</ele>
        <time>2021-09-21T10:02:39Z</time>
      </trkpt>
      <trkpt lat="46.51208" lon="-1.42368">
        <ele>66</ele>
        <time>2021-09-21T10:02:40Z</time>
      </trkpt>
      <trkpt lat="46.51209" lon="-1.42366">
        <ele>65.9</ele>
        <time>2021-09-21T10:02:41Z</time>
      </trkpt>
      <trkpt lat="46.5121" lon="-1.42365">
        <ele>65.9</ele>
        <time>2021-09-21T10:02:42Z</time>
      </trkpt>
      <trkpt lat="46.51211" lon="-1.42363">
        <ele>65.9</ele>
        <time>2021-09-21T10:02:43Z</time>
      </trkpt>
      <trkpt lat="46.51212" lon="-1.42362">
        <ele>65.8</ele>
        <time>2021-09-21T10:02:44Z</time>
      </trkpt>
      <trkpt lat="46.51213" lon="-1.4236">
        <ele>65.7</ele>
        <time>2021-09-21T10:02:45Z</time>
      </trkpt>
      <trkpt lat="46.51214" lon="-1.42359">
        <ele>65.7</ele>
        <time>2021-09-21T10:02:46Z</time>
      </trkpt>
      <trkpt lat="46.51215" lon="-1.42358">
        <ele>65.6</ele>
        <time>2021-09-21T10:02:47Z</time>
      </trkpt>
      <trkpt lat="46.51216" lon="-1.42356">
        <ele>65.6</ele>
        <time>2021-09-21T10:02:48Z</time>
      </trkpt>
      <trkpt lat="46.51217" lon="-1.42355">
        <ele>65.5</ele>
        <time>2021-09-21T10:02:49Z</time>
      </trkpt>
      <trkpt lat="46.51218" lon="-1.42354">
        <ele>65.5</ele>
        <time>2021-09-21T10:02:50Z</time>
      </trkpt>
      <trkpt lat="46.51219" lon="-1.42353">
        <ele>65.4</ele>
        <time>2021-09-21T10:02:51Z</time>
      </trkpt>
      <trkpt lat="46.5122" lon="-1.42352">
        <ele>65.4</ele>
        <time>2021-09-21T10:02:52Z</time>
      </trkpt>
      <trkpt lat="46.51221" lon="-1.4235">
        <ele>65.3</ele>
        <time>2021-09-21T10:02:53Z</time>
      </trkpt>
      <trkpt lat="46.51222" lon="-1.42349">
        <ele>65.3</ele>
        <time>2021-09-21T10:02:54Z</time>
      </trkpt>
      <trkpt lat="46.51223" lon="-1.42348">
        <ele>65.2</ele>
        <time>2021-09-21T10:02:55Z</time>
      </trkpt>
      <trkpt lat="46.51224" lon="-1.42347">
        <ele>65.2</ele>
        <time>2021-09-21T10:02:56Z</time>
      </trkpt>
      <trkpt lat="46.51225" lon="-1.42346">
        <ele>65.1</ele>
        <time>2021-09-21T10:02:57Z</time>
      </trkpt>
      <trkpt lat="46.51226" lon="-1.42345">
        <ele>65.1</ele>
        <time>2021-09-21T10:02:58Z</time>
      </trkpt>
      <trkpt lat="46.51227" lon="-1.42344">
        <ele>65</ele>
        <time>2021-09-21T10:02:59Z</time>
      </trkpt>
      <trkpt lat="46.51228" lon="-1.42343">
        <ele>65</ele>
        <time>2021-09-21T10:03:00Z</time>
      </trkpt>
      <trkpt lat="46.5123" lon="-1.42342">
        <ele>64.9</ele>
        <time>2021-09-21T10:03:01Z</time>
      </trkpt>
      <trkpt lat="46.51231" lon="-1.4234">
        <ele>64.9</ele>
        <time>2021-09-21T10:03:02Z</time>
      </trkpt>
      <trkpt lat="46.51232" lon="-1.42339">
        <ele>64.8</ele>
        <time>2021-09-21T10:03:03Z</time>
      </trkpt>
      <trkpt lat="46.51233" lon="-1.42338">
        <ele>64.8</ele>
        <time>2021-09-21T10:03:04Z</time>
      </trkpt>
      <trkpt lat="46.51234" lon="-1.42337">
        <ele>64.8</ele>
        <time>2021-09-21T10:03:05Z</time>
      </trkpt>
      <trkpt lat="46.51235" lon="-1.42336">
        <ele>64.7</ele>
        <time>2021-09-21T10:03:06Z</time>
      </trkpt>
      <trkpt lat="46.51235" lon="-1.42335">
        <ele>64.7</ele>
        <time>2021-09-21T10:03:07Z</time>
      </trkpt>
      <trkpt lat="46.51236" lon="-1.42334">
        <ele>64.7</ele>
        <time>2021-09-21T10:03:08Z</time>
      </trkpt>
      <trkpt lat="46.51237" lon="-1.42333">
        <ele>64.6</ele>
        <time>2021-09-21T10:03:09Z</time>
      </trkpt>
      <trkpt lat="46.51238" lon="-1.42332">
        <ele>64.6</ele>
        <time>2021-09-21T10:03:10Z</time>
      </trkpt>
      <trkpt lat="46.51238" lon="-1.4233">
        <ele>64.6</ele>
        <time>2021-09-21T10:03:11Z</time>
      </trkpt>
      <trkpt lat="46.51239" lon="-1.42329">
        <ele>64.6</ele>
        <time>2021-09-21T10:03:12Z</time>
      </trkpt>
      <trkpt lat="46.5124" lon="-1.42328">
        <ele>64.6</ele>
        <time>2021-09-21T10:03:13Z</time>
      </trkpt>
      <trkpt lat="46.5124" lon="-1.42327">
        <ele>64.5</ele>
        <time>2021-09-21T10:03:14Z</time>
      </trkpt>
      <trkpt lat="46.51241" lon="-1.42325">
        <ele>64.5</ele>
        <time>2021-09-21T10:03:15Z</time>
      </trkpt>
      <trkpt lat="46.51242" lon="-1.42324">
        <ele>64.5</ele>
        <time>2021-09-21T10:03:16Z</time>
      </trkpt>
      <trkpt lat="46.51243" lon="-1.42323">
        <ele>64.5</ele>
        <time>2021-09-21T10:03:17Z</time>
      </trkpt>
      <trkpt lat="46.51244" lon="-1.42321">
        <ele>64.4</ele>
        <time>2021-09-21T10:03:18Z</time>
      </trkpt>
      <trkpt lat="46.51245" lon="-1.4232">
        <ele>64.4</ele>
        <time>2021-09-21T10:03:19Z</time>
      </trkpt>
      <trkpt lat="46.51245" lon="-1.42318">
        <ele>64.4</ele>
        <time>2021-09-21T10:03:20Z</time>
      </trkpt>
      <trkpt lat="46.51246" lon="-1.42317">
        <ele>64.4</ele>
        <time>2021-09-21T10:03:21Z</time>
      </trkpt>
      <trkpt lat="46.51247" lon="-1.42315">
        <ele>64.4</ele>
        <time>2021-09-21T10:03:22Z</time>
      </trkpt>
      <trkpt lat="46.51249" lon="-1.42314">
        <ele>64.3</ele>
        <time>2021-09-21T10:03:23Z</time>
      </trkpt>
      <trkpt lat="46.5125" lon="-1.42313">
        <ele>64.3</ele>
        <time>2021-09-21T10:03:24Z</time>
      </trkpt>
      <trkpt lat="46.51251" lon="-1.42311">
        <ele>64.3</ele>
        <time>2021-09-21T10:03:25Z</time>
      </trkpt>
      <trkpt lat="46.51252" lon="-1.4231">
        <ele>64.3</ele>
        <time>2021-09-21T10:03:26Z</time>
      </trkpt>
      <trkpt lat="46.51253" lon="-1.42309">
        <ele>64.3</ele>
        <time>2021-09-21T10:03:27Z</time>
      </trkpt>
      <trkpt lat="46.51254" lon="-1.42308">
        <ele>64.2</ele>
        <time>2021-09-21T10:03:28Z</time>
      </trkpt>
      <trkpt lat="46.51255" lon="-1.42306">
        <ele>64.2</ele>
        <time>2021-09-21T10:03:29Z</time>
      </trkpt>
      <trkpt lat="46.51256" lon="-1.42305">
        <ele>64.2</ele>
        <time>2021-09-21T10:03:30Z</time>
      </trkpt>
      <trkpt lat="46.51257" lon="-1.42304">
        <ele>64.2</ele>
        <time>2021-09-21T10:03:31Z</time>
      </trkpt>
      <trkpt lat="46.51258" lon="-1.42303">
        <ele>64.2</ele>
        <time>2021-09-21T10:03:32Z</time>
      </trkpt>
      <trkpt lat="46.51259" lon="-1.42302">
        <ele>64.2</ele>
        <time>2021-09-21T10:03:33Z</time>
      </trkpt>
      <trkpt lat="46.5126" lon="-1.42301">
        <ele>64.1</ele>
        <time>2021-09-21T10:03:34Z</time>
      </trkpt>
      <trkpt lat="46.51261" lon="-1.423">
        <ele>64.1</ele>
        <time>2021-09-21T10:03:35Z</time>
      </trkpt>
      <trkpt lat="46.51262" lon="-1.42299">
        <ele>64.1</ele>
        <time>2021-09-21T10:03:36Z</time>
      </trkpt>
      <trkpt lat="46.51263" lon="-1.42298">
        <ele>64.1</ele>
        <time>2021-09-21T10:03:37Z</time>
      </trkpt>
      <trkpt lat="46.51264" lon="-1.42296">
        <ele>64.1</ele>
        <time>2021-09-21T10:03:38Z</time>
      </trkpt>
      <trkpt lat="46.51265" lon="-1.42295">
        <ele>64</ele>
        <time>2021-09-21T10:03:39Z</time>
      </trkpt>
      <trkpt lat="46.51265" lon="-1.42294">
        <ele>64</ele>
        <time>2021-09-21T10:03:40Z</time>
      </trkpt>
      <trkpt lat="46.51266" lon="-1.42293">
        <ele>64</ele>
        <time>2021-09-21T10:03:41Z</time>
      </trkpt>
      <trkpt lat="46.51267" lon="-1.42292">
        <ele>64</ele>
        <time>2021-09-21T10:03:42Z</time>
      </trkpt>
      <trkpt lat="46.51268" lon="-1.42291">
        <ele>64</ele>
        <time>2021-09-21T10:03:43Z</time>
      </trkpt>
      <trkpt lat="46.51268" lon="-1.4229">
        <ele>63.9</ele>
        <time>2021-09-21T10:03:44Z</time>
      </trkpt>
      <trkpt lat="46.51269" lon="-1.42289">
        <ele>63.9</ele>
        <time>2021-09-21T10:03:45Z</time>
      </trkpt>
      <trkpt lat="46.5127" lon="-1.42288">
        <ele>63.9</ele>
        <time>2021-09-21T10:03:46Z</time>
      </trkpt>
      <trkpt lat="46.51271" lon="-1.42287">
        <ele>63.9</ele>
        <time>2021-09-21T10:03:47Z</time>
      </trkpt>
      <trkpt lat="46.51271" lon="-1.42286">
        <ele>63.9</ele>
        <time>2021-09-21T10:03:48Z</time>
      </trkpt>
      <trkpt lat="46.51272" lon="-1.42285">
        <ele>63.8</ele>
        <time>2021-09-21T10:03:49Z</time>
      </trkpt>
      <trkpt lat="46.51273" lon="-1.42284">
        <ele>63.8</ele>
        <time>2021-09-21T10:03:50Z</time>
      </trkpt>
      <trkpt lat="46.51273" lon="-1.42283">
        <ele>63.8</ele>
        <time>2021-09-21T10:03:51Z</time>
      </trkpt>
      <trkpt lat="46.51274" lon="-1.42282">
        <ele>63.8</ele>
        <time>2021-09-21T10:03:52Z</time>
      </trkpt>
      <trkpt lat="46.51274" lon="-1.42281">
        <ele>63.8</ele>
        <time>2021-09-21T10:03:53Z</time>
      </trkpt>
      <trkpt lat="46.51275" lon="-1.4228">
        <ele>63.8</ele>
        <time>2021-09-21T10:03:54Z</time>
      </trkpt>
      <trkpt lat="46.51276" lon="-1.42279">
        <ele>63.7</ele>
        <time>2021-09-21T10:03:55Z</time>
      </trkpt>
      <trkpt lat="46.51276" lon="-1.42279">
        <ele>63.7</ele>
        <time>2021-09-21T10:03:56Z</time>
      </trkpt>
      <trkpt lat="46.51277" lon="-1.42278">
        <ele>63.7</ele>
        <time>2021-09-21T10:03:57Z</time>
      </trkpt>
      <trkpt lat="46.51277" lon="-1.42277">
        <ele>63.7</ele>
        <time>2021-09-21T10:03:58Z</time>
      </trkpt>
      <trkpt lat="46.51278" lon="-1.42276">
        <ele>63.7</ele>
        <time>2021-09-21T10:03:59Z</time>
      </trkpt>
      <trkpt lat="46.51279" lon="-1.42275">
        <ele>63.6</ele>
        <time>2021-09-21T10:04:00Z</time>
      </trkpt>
      <trkpt lat="46.51279" lon="-1.42274">
        <ele>63.6</ele>
        <time>2021-09-21T10:04:01Z</time>
      </trkpt>
      <trkpt lat="46.5128" lon="-1.42273">
        <ele>63.6</ele>
        <time>2021-09-21T10:04:02Z</time>
      </trkpt>
      <trkpt lat="46.51281" lon="-1.42271">
        <ele>63.6</ele>
        <time>2021-09-21T10:04:03Z</time>
      </trkpt>
      <trkpt lat="46.51281" lon="-1.4227">
        <ele>63.6</ele>
        <time>2021-09-21T10:04:04Z</time>
      </trkpt>
      <trkpt lat="46.51282" lon="-1.4227">
        <ele>63.6</ele>
        <time>2021-09-21T10:04:05Z</time>
      </trkpt>
      <trkpt lat="46.51282" lon="-1.42269">
        <ele>63.5</ele>
        <time>2021-09-21T10:04:06Z</time>
      </trkpt>
      <trkpt lat="46.51283" lon="-1.42268">
        <ele>63.5</ele>
        <time>2021-09-21T10:04:07Z</time>
      </trkpt>
      <trkpt lat="46.51283" lon="-1.42268">
        <ele>63.5</ele>
        <time>2021-09-21T10:04:08Z</time>
      </trkpt>
      <trkpt lat="46.51283" lon="-1.42267">
        <ele>63.5</ele>
        <time>2021-09-21T10:04:09Z</time>
      </trkpt>
      <trkpt lat="46.51284" lon="-1.42267">
        <ele>63.5</ele>
        <time>2021-09-21T10:04:10Z</time>
      </trkpt>
      <trkpt lat="46.51284" lon="-1.42267">
        <ele>63.5</ele>
        <time>2021-09-21T10:04:11Z</time>
      </trkpt>
      <trkpt lat="46.51284" lon="-1.42267">
        <ele>63.5</ele>
        <time>2021-09-21T10:04:12Z</time>
      </trkpt>
      <trkpt lat="46.51284" lon="-1.42267">
        <ele>63.5</ele>
        <time>2021-09-21T10:04:13Z</time>
      </trkpt>
      <trkpt lat="46.51284" lon="-1.42267">
        <ele>63.5</ele>
        <time>2021-09-21T10:04:14Z</time>
      </trkpt>
      <trkpt lat="46.51284" lon="-1.42267">
        <ele>63.5</ele>
        <time>2021-09-21T10:04:15Z</time>
      </trkpt>
      <trkpt lat="46.51284" lon="-1.42267">
        <ele>63.5</ele>
        <time>2021-09-21T10:04:16Z</time>
      </trkpt>
      <trkpt lat="46.51284" lon="-1.42267">
        <ele>63.5</ele>
        <time>2021-09-21T10:04:17Z</time>
      </trkpt>
      <trkpt lat="46.51284" lon="-1.42267">
        <ele>63.5</ele>
        <time>2021-09-21T10:04:18Z</time>
      </trkpt>
      <trkpt lat="46.51284" lon="-1.42266">
        <ele>63.5</ele>
        <time>2021-09-21T10:04:19Z</time>
      </trkpt>
      <trkpt lat="46.51284" lon="-1.42266">
        <ele>63.5</ele>
        <time>2021-09-21T10:04:20Z</time>
      </trkpt>
      <trkpt lat="46.51285" lon="-1.42265">
        <ele>63.5</ele>
        <time>2021-09-21T10:04:21Z</time>
      </trkpt>
      <trkpt lat="46.51285" lon="-1.42265">
        <ele>63.5</ele>
        <time>2021-09-21T10:04:22Z</time>
      </trkpt>
      <trkpt lat="46.51286" lon="-1.42264">
        <ele>63.5</ele>
        <time>2021-09-21T10:04:23Z</time>
      </trkpt>
      <trkpt lat="46.51286" lon="-1.42263">
        <ele>63.5</ele>
        <time>2021-09-21T10:04:24Z</time>
      </trkpt>
      <trkpt lat="46.51287" lon="-1.42262">
        <ele>63.5</ele>
        <time>2021-09-21T10:04:25Z</time>
      </trkpt>
      <trkpt lat="46.51288" lon="-1.42261">
        <ele>63.4</ele>
        <time>2021-09-21T10:04:26Z</time>
      </trkpt>
      <trkpt lat="46.51288" lon="-1.42259">
        <ele>63.4</ele>
        <time>2021-09-21T10:04:27Z</time>
      </trkpt>
      <trkpt lat="46.51289" lon="-1.42258">
        <ele>63.4</ele>
        <time>2021-09-21T10:04:28Z</time>
      </trkpt>
      <trkpt lat="46.5129" lon="-1.42256">
        <ele>63.4</ele>
        <time>2021-09-21T10:04:29Z</time>
      </trkpt>
      <trkpt lat="46.51291" lon="-1.42255">
        <ele>63.4</ele>
        <time>2021-09-21T10:04:30Z</time>
      </trkpt>
      <trkpt lat="46.51293" lon="-1.42252">
        <ele>63.3</ele>
        <time>2021-09-21T10:04:31Z</time>
      </trkpt>
      <trkpt lat="46.51295" lon="-1.42251">
        <ele>63.3</ele>
        <time>2021-09-21T10:04:32Z</time>
      </trkpt>
      <trkpt lat="46.51296" lon="-1.42249">
        <ele>63.3</ele>
        <time>2021-09-21T10:04:33Z</time>
      </trkpt>
      <trkpt lat="46.51297" lon="-1.42248">
        <ele>63.3</ele>
        <time>2021-09-21T10:04:34Z</time>
      </trkpt>
      <trkpt lat="46.51298" lon="-1.42247">
        <ele>63.2</ele>
        <time>2021-09-21T10:04:35Z</time>
      </trkpt>
      <trkpt lat="46.51299" lon="-1.42246">
        <ele>63.2</ele>
        <time>2021-09-21T10:04:36Z</time>
      </trkpt>
      <trkpt lat="46.513" lon="-1.42244">
        <ele>63.2</ele>
        <time>2021-09-21T10:04:37Z</time>
      </trkpt>
      <trkpt lat="46.51301" lon="-1.42243">
        <ele>63.2</ele>
        <time>2021-09-21T10:04:38Z</time>
      </trkpt>
      <trkpt lat="46.51302" lon="-1.42242">
        <ele>63.2</ele>
        <time>2021-09-21T10:04:39Z</time>
      </trkpt>
      <trkpt lat="46.51303" lon="-1.42241">
        <ele>63.2</ele>
        <time>2021-09-21T10:04:40Z</time>
      </trkpt>
      <trkpt lat="46.51304" lon="-1.42239">
        <ele>63.1</ele>
        <time>2021-09-21T10:04:41Z</time>
      </trkpt>
      <trkpt lat="46.51305" lon="-1.42238">
        <ele>63.1</ele>
        <time>2021-09-21T10:04:42Z</time>
      </trkpt>
      <trkpt lat="46.51306" lon="-1.42237">
        <ele>63.1</ele>
        <time>2021-09-21T10:04:43Z</time>
      </trkpt>
      <trkpt lat="46.51307" lon="-1.42235">
        <ele>63.1</ele>
        <time>2021-09-21T10:04:44Z</time>
      </trkpt>
      <trkpt lat="46.51308" lon="-1.42234">
        <ele>63.1</ele>
        <time>2021-09-21T10:04:45Z</time>
      </trkpt>
      <trkpt lat="46.51309" lon="-1.42233">
        <ele>63.1</ele>
        <time>2021-09-21T10:04:46Z</time>
      </trkpt>
      <trkpt lat="46.5131" lon="-1.42231">
        <ele>63.1</ele>
        <time>2021-09-21T10:04:47Z</time>
      </trkpt>
      <trkpt lat="46.51312" lon="-1.42229">
        <ele>63.1</ele>
        <time>2021-09-21T10:04:48Z</time>
      </trkpt>
      <trkpt lat="46.51313" lon="-1.42228">
        <ele>63.1</ele>
        <time>2021-09-21T10:04:49Z</time>
      </trkpt>
      <trkpt lat="46.51314" lon="-1.42226">
        <ele>63.1</ele>
        <time>2021-09-21T10:04:50Z</time>
      </trkpt>
      <trkpt lat="46.51315" lon="-1.42224">
        <ele>63</ele>
        <time>2021-09-21T10:04:51Z</time>
      </trkpt>
      <trkpt lat="46.51317" lon="-1.42223">
        <ele>63</ele>
        <time>2021-09-21T10:04:52Z</time>
      </trkpt>
      <trkpt lat="46.51318" lon="-1.42221">
        <ele>63</ele>
        <time>2021-09-21T10:04:53Z</time>
      </trkpt>
      <trkpt lat="46.51319" lon="-1.4222">
        <ele>63</ele>
        <time>2021-09-21T10:04:54Z</time>
      </trkpt>
      <trkpt lat="46.5132" lon="-1.42218">
        <ele>63</ele>
        <time>2021-09-21T10:04:55Z</time>
      </trkpt>
      <trkpt lat="46.51321" lon="-1.42217">
        <ele>63</ele>
        <time>2021-09-21T10:04:56Z</time>
      </trkpt>
      <trkpt lat="46.51322" lon="-1.42216">
        <ele>63</ele>
        <time>2021-09-21T10:04:57Z</time>
      </trkpt>
      <trkpt lat="46.51323" lon="-1.42215">
        <ele>63</ele>
        <time>2021-09-21T10:04:58Z</time>
      </trkpt>
      <trkpt lat="46.51324" lon="-1.42214">
        <ele>62.9</ele>
        <time>2021-09-21T10:04:59Z</time>
      </trkpt>
      <trkpt lat="46.51325" lon="-1.42213">
        <ele>62.9</ele>
        <time>2021-09-21T10:05:00Z</time>
      </trkpt>
      <trkpt lat="46.51326" lon="-1.42212">
        <ele>62.9</ele>
        <time>2021-09-21T10:05:01Z</time>
      </trkpt>
      <trkpt lat="46.51327" lon="-1.42211">
        <ele>62.9</ele>
        <time>2021-09-21T10:05:02Z</time>
      </trkpt>
      <trkpt lat="46.51328" lon="-1.4221">
        <ele>62.9</ele>
        <time>2021-09-21T10:05:03Z</time>
      </trkpt>
      <trkpt lat="46.51329" lon="-1.42209">
        <ele>62.8</ele>
        <time>2021-09-21T10:05:04Z</time>
      </trkpt>
      <trkpt lat="46.5133" lon="-1.42208">
        <ele>62.8</ele>
        <time>2021-09-21T10:05:05Z</time>
      </trkpt>
      <trkpt lat="46.51331" lon="-1.42208">
        <ele>62.8</ele>
        <time>2021-09-21T10:05:06Z</time>
      </trkpt>
      <trkpt lat="46.51332" lon="-1.42207">
        <ele>62.8</ele>
        <time>2021-09-21T10:05:07Z</time>
      </trkpt>
      <trkpt lat="46.51333" lon="-1.42206">
        <ele>62.7</ele>
        <time>2021-09-21T10:05:08Z</time>
      </trkpt>
      <trkpt lat="46.51334" lon="-1.42205">
        <ele>62.7</ele>
        <time>2021-09-21T10:05:09Z</time>
      </trkpt>
      <trkpt lat="46.51335" lon="-1.42204">
        <ele>62.7</ele>
        <time>2021-09-21T10:05:10Z</time>
      </trkpt>
      <trkpt lat="46.51336" lon="-1.42203">
        <ele>62.6</ele>
        <time>2021-09-21T10:05:11Z</time>
      </trkpt>
      <trkpt lat="46.51338" lon="-1.42202">
        <ele>62.6</ele>
        <time>2021-09-21T10:05:12Z</time>
      </trkpt>
      <trkpt lat="46.51339" lon="-1.42202">
        <ele>62.6</ele>
        <time>2021-09-21T10:05:13Z</time>
      </trkpt>
      <trkpt lat="46.5134" lon="-1.42201">
        <ele>62.5</ele>
        <time>2021-09-21T10:05:14Z</time>
      </trkpt>
      <trkpt lat="46.51341" lon="-1.422">
        <ele>62.5</ele>
        <time>2021-09-21T10:05:15Z</time>
      </trkpt>
      <trkpt lat="46.51343" lon="-1.42199">
        <ele>62.5</ele>
        <time>2021-09-21T10:05:16Z</time>
      </trkpt>
      <trkpt lat="46.51344" lon="-1.42198">
        <ele>62.5</ele>
        <time>2021-09-21T10:05:17Z</time>
      </trkpt>
      <trkpt lat="46.51345" lon="-1.42197">
        <ele>62.4</ele>
        <time>2021-09-21T10:05:18Z</time>
      </trkpt>
      <trkpt lat="46.51346" lon="-1.42196">
        <ele>62.4</ele>
        <time>2021-09-21T10:05:19Z</time>
      </trkpt>
      <trkpt lat="46.51348" lon="-1.42195">
        <ele>62.4</ele>
        <time>2021-09-21T10:05:20Z</time>
      </trkpt>
      <trkpt lat="46.51349" lon="-1.42194">
        <ele>62.4</ele>
        <time>2021-09-21T10:05:21Z</time>
      </trkpt>
      <trkpt lat="46.5135" lon="-1.42194">
        <ele>62.4</ele>
        <time>2021-09-21T10:05:22Z</time>
      </trkpt>
      <trkpt lat="46.51351" lon="-1.42193">
        <ele>62.4</ele>
        <time>2021-09-21T10:05:23Z</time>
      </trkpt>
      <trkpt lat="46.51353" lon="-1.42192">
        <ele>62.3</ele>
        <time>2021-09-21T10:05:24Z</time>
      </trkpt>
      <trkpt lat="46.51354" lon="-1.42191">
        <ele>62.3</ele>
        <time>2021-09-21T10:05:25Z</time>
      </trkpt>
      <trkpt lat="46.51355" lon="-1.4219">
        <ele>62.3</ele>
        <time>2021-09-21T10:05:26Z</time>
      </trkpt>
      <trkpt lat="46.51356" lon="-1.42189">
        <ele>62.3</ele>
        <time>2021-09-21T10:05:27Z</time>
      </trkpt>
      <trkpt lat="46.51357" lon="-1.42188">
        <ele>62.3</ele>
        <time>2021-09-21T10:05:28Z</time>
      </trkpt>
      <trkpt lat="46.51358" lon="-1.42187">
        <ele>62.3</ele>
        <time>2021-09-21T10:05:29Z</time>
      </trkpt>
      <trkpt lat="46.5136" lon="-1.42186">
        <ele>62.3</ele>
        <time>2021-09-21T10:05:30Z</time>
      </trkpt>
      <trkpt lat="46.51361" lon="-1.42185">
        <ele>62.3</ele>
        <time>2021-09-21T10:05:31Z</time>
      </trkpt>
      <trkpt lat="46.51362" lon="-1.42184">
        <ele>62.3</ele>
        <time>2021-09-21T10:05:32Z</time>
      </trkpt>
      <trkpt lat="46.51363" lon="-1.42183">
        <ele>62.3</ele>
        <time>2021-09-21T10:05:33Z</time>
      </trkpt>
      <trkpt lat="46.51364" lon="-1.42182">
        <ele>62.3</ele>
        <time>2021-09-21T10:05:34Z</time>
      </trkpt>
      <trkpt lat="46.51365" lon="-1.42181">
        <ele>62.3</ele>
        <time>2021-09-21T10:05:35Z</time>
      </trkpt>
      <trkpt lat="46.51366" lon="-1.42179">
        <ele>62.3</ele>
        <time>2021-09-21T10:05:36Z</time>
      </trkpt>
      <trkpt lat="46.51367" lon="-1.42178">
        <ele>62.3</ele>
        <time>2021-09-21T10:05:37Z</time>
      </trkpt>
      <trkpt lat="46.51368" lon="-1.42177">
        <ele>62.3</ele>
        <time>2021-09-21T10:05:38Z</time>
      </trkpt>
      <trkpt lat="46.5137" lon="-1.42176">
        <ele>62.3</ele>
        <time>2021-09-21T10:05:39Z</time>
      </trkpt>
      <trkpt lat="46.51371" lon="-1.42175">
        <ele>62.3</ele>
        <time>2021-09-21T10:05:40Z</time>
      </trkpt>
      <trkpt lat="46.51372" lon="-1.42174">
        <ele>62.3</ele>
        <time>2021-09-21T10:05:41Z</time>
      </trkpt>
      <trkpt lat="46.51373" lon="-1.42173">
        <ele>62.3</ele>
        <time>2021-09-21T10:05:42Z</time>
      </trkpt>
      <trkpt lat="46.51374" lon="-1.42171">
        <ele>62.3</ele>
        <time>2021-09-21T10:05:43Z</time>
      </trkpt>
      <trkpt lat="46.51375" lon="-1.4217">
        <ele>62.3</ele>
        <time>2021-09-21T10:05:44Z</time>
      </trkpt>
      <trkpt lat="46.51376" lon="-1.42169">
        <ele>62.3</ele>
        <time>2021-09-21T10:05:45Z</time>
      </trkpt>
      <trkpt lat="46.51377" lon="-1.42168">
        <ele>62.3</ele>
        <time>2021-09-21T10:05:46Z</time>
      </trkpt>
      <trkpt lat="46.51379" lon="-1.42167">
        <ele>62.3</ele>
        <time>2021-09-21T10:05:47Z</time>
      </trkpt>
      <trkpt lat="46.5138" lon="-1.42166">
        <ele>62.3</ele>
        <time>2021-09-21T10:05:48Z</time>
      </trkpt>
      <trkpt lat="46.51381" lon="-1.42164">
        <ele>62.2</ele>
        <time>2021-09-21T10:05:49Z</time>
      </trkpt>
      <trkpt lat="46.51382" lon="-1.42163">
        <ele>62.2</ele>
        <time>2021-09-21T10:05:50Z</time>
      </trkpt>
      <trkpt lat="46.51383" lon="-1.42162">
        <ele>62.2</ele>
        <time>2021-09-21T10:05:51Z</time>
      </trkpt>
      <trkpt lat="46.51384" lon="-1.42161">
        <ele>62.2</ele>
        <time>2021-09-21T10:05:52Z</time>
      </trkpt>
      <trkpt lat="46.51385" lon="-1.4216">
        <ele>62.2</ele>
        <time>2021-09-21T10:05:53Z</time>
      </trkpt>
      <trkpt lat="46.51386" lon="-1.42159">
        <ele>62.2</ele>
        <time>2021-09-21T10:05:54Z</time>
      </trkpt>
      <trkpt lat="46.51387" lon="-1.42158">
        <ele>62.2</ele>
        <time>2021-09-21T10:05:55Z</time>
      </trkpt>
      <trkpt lat="46.51389" lon="-1.42157">
        <ele>62.1</ele>
        <time>2021-09-21T10:05:56Z</time>
      </trkpt>
      <trkpt lat="46.5139" lon="-1.42156">
        <ele>62.1</ele>
        <time>2021-09-21T10:05:57Z</time>
      </trkpt>
      <trkpt lat="46.51391" lon="-1.42155">
        <ele>62.1</ele>
        <time>2021-09-21T10:05:58Z</time>
      </trkpt>
      <trkpt lat="46.51392" lon="-1.42153">
        <ele>62.1</ele>
        <time>2021-09-21T10:05:59Z</time>
      </trkpt>
      <trkpt lat="46.51393" lon="-1.42152">
        <ele>62.1</ele>
        <time>2021-09-21T10:06:00Z</time>
      </trkpt>
      <trkpt lat="46.51394" lon="-1.42151">
        <ele>62.1</ele>
        <time>2021-09-21T10:06:01Z</time>
      </trkpt>
      <trkpt lat="46.51395" lon="-1.4215">
        <ele>62.1</ele>
        <time>2021-09-21T10:06:02Z</time>
      </trkpt>
      <trkpt lat="46.51396" lon="-1.42149">
        <ele>62</ele>
        <time>2021-09-21T10:06:03Z</time>
      </trkpt>
      <trkpt lat="46.51398" lon="-1.42148">
        <ele>62</ele>
        <time>2021-09-21T10:06:04Z</time>
      </trkpt>
      <trkpt lat="46.51399" lon="-1.42147">
        <ele>62</ele>
        <time>2021-09-21T10:06:05Z</time>
      </trkpt>
      <trkpt lat="46.514" lon="-1.42146">
        <ele>62</ele>
        <time>2021-09-21T10:06:06Z</time>
      </trkpt>
      <trkpt lat="46.51401" lon="-1.42145">
        <ele>62</ele>
        <time>2021-09-21T10:06:07Z</time>
      </trkpt>
      <trkpt lat="46.51402" lon="-1.42144">
        <ele>62</ele>
        <time>2021-09-21T10:06:08Z</time>
      </trkpt>
      <trkpt lat="46.51403" lon="-1.42143">
        <ele>61.9</ele>
        <time>2021-09-21T10:06:09Z</time>
      </trkpt>
      <trkpt lat="46.51404" lon="-1.42142">
        <ele>61.9</ele>
        <time>2021-09-21T10:06:10Z</time>
      </trkpt>
      <trkpt lat="46.51405" lon="-1.42141">
        <ele>61.9</ele>
        <time>2021-09-21T10:06:11Z</time>
      </trkpt>
      <trkpt lat="46.51406" lon="-1.4214">
        <ele>61.9</ele>
        <time>2021-09-21T10:06:12Z</time>
      </trkpt>
      <trkpt lat="46.51407" lon="-1.42139">
        <ele>61.9</ele>
        <time>2021-09-21T10:06:13Z</time>
      </trkpt>
      <trkpt lat="46.51409" lon="-1.42138">
        <ele>61.9</ele>
        <time>2021-09-21T10:06:14Z</time>
      </trkpt>
      <trkpt lat="46.5141" lon="-1.42137">
        <ele>61.8</ele>
        <time>2021-09-21T10:06:15Z</time>
      </trkpt>
      <trkpt lat="46.51411" lon="-1.42136">
        <ele>61.8</ele>
        <time>2021-09-21T10:06:16Z</time>
      </trkpt>
      <trkpt lat="46.51412" lon="-1.42135">
        <ele>61.8</ele>
        <time>2021-09-21T10:06:17Z</time>
      </trkpt>
      <trkpt lat="46.51413" lon="-1.42135">
        <ele>61.8</ele>
        <time>2021-09-21T10:06:18Z</time>
      </trkpt>
      <trkpt lat="46.51414" lon="-1.42134">
        <ele>61.8</ele>
        <time>2021-09-21T10:06:19Z</time>
      </trkpt>
      <trkpt lat="46.51415" lon="-1.42133">
        <ele>61.8</ele>
        <time>2021-09-21T10:06:20Z</time>
      </trkpt>
      <trkpt lat="46.51416" lon="-1.42132">
        <ele>61.7</ele>
        <time>2021-09-21T10:06:21Z</time>
      </trkpt>
      <trkpt lat="46.51417" lon="-1.42131">
        <ele>61.7</ele>
        <time>2021-09-21T10:06:22Z</time>
      </trkpt>
      <trkpt lat="46.51418" lon="-1.4213">
        <ele>61.7</ele>
        <time>2021-09-21T10:06:23Z</time>
      </trkpt>
      <trkpt lat="46.5142" lon="-1.42129">
        <ele>61.7</ele>
        <time>2021-09-21T10:06:24Z</time>
      </trkpt>
      <trkpt lat="46.51421" lon="-1.42128">
        <ele>61.7</ele>
        <time>2021-09-21T10:06:25Z</time>
      </trkpt>
      <trkpt lat="46.51422" lon="-1.42128">
        <ele>61.6</ele>
        <time>2021-09-21T10:06:26Z</time>
      </trkpt>
      <trkpt lat="46.51423" lon="-1.42127">
        <ele>61.6</ele>
        <time>2021-09-21T10:06:27Z</time>
      </trkpt>
      <trkpt lat="46.51424" lon="-1.42126">
        <ele>61.6</ele>
        <time>2021-09-21T10:06:28Z</time>
      </trkpt>
      <trkpt lat="46.51425" lon="-1.42125">
        <ele>61.6</ele>
        <time>2021-09-21T10:06:29Z</time>
      </trkpt>
      <trkpt lat="46.51426" lon="-1.42124">
        <ele>61.6</ele>
        <time>2021-09-21T10:06:30Z</time>
      </trkpt>
      <trkpt lat="46.51427" lon="-1.42123">
        <ele>61.5</ele>
        <time>2021-09-21T10:06:31Z</time>
      </trkpt>
      <trkpt lat="46.51428" lon="-1.42122">
        <ele>61.5</ele>
        <time>2021-09-21T10:06:32Z</time>
      </trkpt>
      <trkpt lat="46.5143" lon="-1.42121">
        <ele>61.5</ele>
        <time>2021-09-21T10:06:33Z</time>
      </trkpt>
      <trkpt lat="46.51431" lon="-1.4212">
        <ele>61.5</ele>
        <time>2021-09-21T10:06:34Z</time>
      </trkpt>
      <trkpt lat="46.51432" lon="-1.42119">
        <ele>61.5</ele>
        <time>2021-09-21T10:06:35Z</time>
      </trkpt>
      <trkpt lat="46.51433" lon="-1.42118">
        <ele>61.5</ele>
        <time>2021-09-21T10:06:36Z</time>
      </trkpt>
      <trkpt lat="46.51434" lon="-1.42117">
        <ele>61.4</ele>
        <time>2021-09-21T10:06:37Z</time>
      </trkpt>
      <trkpt lat="46.51435" lon="-1.42116">
        <ele>61.4</ele>
        <time>2021-09-21T10:06:38Z</time>
      </trkpt>
      <trkpt lat="46.51437" lon="-1.42115">
        <ele>61.4</ele>
        <time>2021-09-21T10:06:39Z</time>
      </trkpt>
      <trkpt lat="46.51438" lon="-1.42114">
        <ele>61.4</ele>
        <time>2021-09-21T10:06:40Z</time>
      </trkpt>
      <trkpt lat="46.51439" lon="-1.42113">
        <ele>61.3</ele>
        <time>2021-09-21T10:06:41Z</time>
      </trkpt>
      <trkpt lat="46.5144" lon="-1.42112">
        <ele>61.3</ele>
        <time>2021-09-21T10:06:42Z</time>
      </trkpt>
      <trkpt lat="46.51441" lon="-1.42111">
        <ele>61.3</ele>
        <time>2021-09-21T10:06:43Z</time>
      </trkpt>
      <trkpt lat="46.51442" lon="-1.42109">
        <ele>61.3</ele>
        <time>2021-09-21T10:06:44Z</time>
      </trkpt>
      <trkpt lat="46.51444" lon="-1.42108">
        <ele>61.3</ele>
        <time>2021-09-21T10:06:45Z</time>
      </trkpt>
      <trkpt lat="46.51445" lon="-1.42107">
        <ele>61.2</ele>
        <time>2021-09-21T10:06:46Z</time>
      </trkpt>
      <trkpt lat="46.51446" lon="-1.42106">
        <ele>61.2</ele>
        <time>2021-09-21T10:06:47Z</time>
      </trkpt>
      <trkpt lat="46.51447" lon="-1.42105">
        <ele>61.2</ele>
        <time>2021-09-21T10:06:48Z</time>
      </trkpt>
      <trkpt lat="46.51448" lon="-1.42104">
        <ele>61.2</ele>
        <time>2021-09-21T10:06:49Z</time>
      </trkpt>
      <trkpt lat="46.51449" lon="-1.42103">
        <ele>61.1</ele>
        <time>2021-09-21T10:06:50Z</time>
      </trkpt>
      <trkpt lat="46.51451" lon="-1.42102">
        <ele>61.1</ele>
        <time>2021-09-21T10:06:51Z</time>
      </trkpt>
      <trkpt lat="46.51452" lon="-1.42102">
        <ele>61.1</ele>
        <time>2021-09-21T10:06:52Z</time>
      </trkpt>
      <trkpt lat="46.51453" lon="-1.42101">
        <ele>61.1</ele>
        <time>2021-09-21T10:06:53Z</time>
      </trkpt>
      <trkpt lat="46.51454" lon="-1.421">
        <ele>61.1</ele>
        <time>2021-09-21T10:06:54Z</time>
      </trkpt>
      <trkpt lat="46.51455" lon="-1.421">
        <ele>61.1</ele>
        <time>2021-09-21T10:06:55Z</time>
      </trkpt>
      <trkpt lat="46.51456" lon="-1.42099">
        <ele>61.1</ele>
        <time>2021-09-21T10:06:56Z</time>
      </trkpt>
      <trkpt lat="46.51457" lon="-1.42098">
        <ele>61</ele>
        <time>2021-09-21T10:06:57Z</time>
      </trkpt>
      <trkpt lat="46.51458" lon="-1.42098">
        <ele>61</ele>
        <time>2021-09-21T10:06:58Z</time>
      </trkpt>
      <trkpt lat="46.51459" lon="-1.42097">
        <ele>61</ele>
        <time>2021-09-21T10:06:59Z</time>
      </trkpt>
      <trkpt lat="46.5146" lon="-1.42097">
        <ele>61</ele>
        <time>2021-09-21T10:07:00Z</time>
      </trkpt>
      <trkpt lat="46.51462" lon="-1.42096">
        <ele>61</ele>
        <time>2021-09-21T10:07:01Z</time>
      </trkpt>
      <trkpt lat="46.51463" lon="-1.42096">
        <ele>61</ele>
        <time>2021-09-21T10:07:02Z</time>
      </trkpt>
      <trkpt lat="46.51464" lon="-1.42095">
        <ele>61</ele>
        <time>2021-09-21T10:07:03Z</time>
      </trkpt>
      <trkpt lat="46.51465" lon="-1.42095">
        <ele>60.9</ele>
        <time>2021-09-21T10:07:04Z</time>
      </trkpt>
      <trkpt lat="46.51467" lon="-1.42094">
        <ele>60.9</ele>
        <time>2021-09-21T10:07:05Z</time>
      </trkpt>
      <trkpt lat="46.51468" lon="-1.42094">
        <ele>60.9</ele>
        <time>2021-09-21T10:07:06Z</time>
      </trkpt>
      <trkpt lat="46.51469" lon="-1.42093">
        <ele>60.9</ele>
        <time>2021-09-21T10:07:07Z</time>
      </trkpt>
      <trkpt lat="46.51471" lon="-1.42092">
        <ele>60.9</ele>
        <time>2021-09-21T10:07:08Z</time>
      </trkpt>
      <trkpt lat="46.51472" lon="-1.42092">
        <ele>60.9</ele>
        <time>2021-09-21T10:07:09Z</time>
      </trkpt>
      <trkpt lat="46.51474" lon="-1.42091">
        <ele>60.8</ele>
        <time>2021-09-21T10:07:10Z</time>
      </trkpt>
      <trkpt lat="46.51476" lon="-1.42091">
        <ele>60.8</ele>
        <time>2021-09-21T10:07:11Z</time>
      </trkpt>
      <trkpt lat="46.51477" lon="-1.42091">
        <ele>60.8</ele>
        <time>2021-09-21T10:07:12Z</time>
      </trkpt>
      <trkpt lat="46.51478" lon="-1.42091">
        <ele>60.8</ele>
        <time>2021-09-21T10:07:13Z</time>
      </trkpt>
      <trkpt lat="46.51479" lon="-1.42091">
        <ele>60.7</ele>
        <time>2021-09-21T10:07:14Z</time>
      </trkpt>
      <trkpt lat="46.51479" lon="-1.42091">
        <ele>60.7</ele>
        <time>2021-09-21T10:07:15Z</time>
      </trkpt>
      <trkpt lat="46.5148" lon="-1.42091">
        <ele>60.7</ele>
        <time>2021-09-21T10:07:16Z</time>
      </trkpt>
      <trkpt lat="46.51481" lon="-1.42091">
        <ele>60.7</ele>
        <time>2021-09-21T10:07:17Z</time>
      </trkpt>
      <trkpt lat="46.51482" lon="-1.42091">
        <ele>60.7</ele>
        <time>2021-09-21T10:07:18Z</time>
      </trkpt>
      <trkpt lat="46.51482" lon="-1.42091">
        <ele>60.6</ele>
        <time>2021-09-21T10:07:19Z</time>
      </trkpt>
      <trkpt lat="46.51483" lon="-1.42091">
        <ele>60.6</ele>
        <time>2021-09-21T10:07:20Z</time>
      </trkpt>
      <trkpt lat="46.51484" lon="-1.42091">
        <ele>60.6</ele>
        <time>2021-09-21T10:07:21Z</time>
      </trkpt>
      <trkpt lat="46.51485" lon="-1.42091">
        <ele>60.6</ele>
        <time>2021-09-21T10:07:22Z</time>
      </trkpt>
      <trkpt lat="46.51486" lon="-1.4209">
        <ele>60.5</ele>
        <time>2021-09-21T10:07:23Z</time>
      </trkpt>
      <trkpt lat="46.51488" lon="-1.4209">
        <ele>60.5</ele>
        <time>2021-09-21T10:07:24Z</time>
      </trkpt>
      <trkpt lat="46.51489" lon="-1.4209">
        <ele>60.5</ele>
        <time>2021-09-21T10:07:25Z</time>
      </trkpt>
      <trkpt lat="46.5149" lon="-1.4209">
        <ele>60.4</ele>
        <time>2021-09-21T10:07:26Z</time>
      </trkpt>
      <trkpt lat="46.51491" lon="-1.42089">
        <ele>60.4</ele>
        <time>2021-09-21T10:07:27Z</time>
      </trkpt>
      <trkpt lat="46.51493" lon="-1.42089">
        <ele>60.4</ele>
        <time>2021-09-21T10:07:28Z</time>
      </trkpt>
      <trkpt lat="46.51494" lon="-1.42089">
        <ele>60.4</ele>
        <time>2021-09-21T10:07:29Z</time>
      </trkpt>
      <trkpt lat="46.51495" lon="-1.42088">
        <ele>60.3</ele>
        <time>2021-09-21T10:07:30Z</time>
      </trkpt>
      <trkpt lat="46.51497" lon="-1.42088">
        <ele>60.3</ele>
        <time>2021-09-21T10:07:31Z</time>
      </trkpt>
      <trkpt lat="46.51498" lon="-1.42088">
        <ele>60.3</ele>
        <time>2021-09-21T10:07:32Z</time>
      </trkpt>
      <trkpt lat="46.51499" lon="-1.42088">
        <ele>60.2</ele>
        <time>2021-09-21T10:07:33Z</time>
      </trkpt>
      <trkpt lat="46.515" lon="-1.42087">
        <ele>60.2</ele>
        <time>2021-09-21T10:07:34Z</time>
      </trkpt>
      <trkpt lat="46.51501" lon="-1.42087">
        <ele>60.2</ele>
        <time>2021-09-21T10:07:35Z</time>
      </trkpt>
      <trkpt lat="46.51503" lon="-1.42087">
        <ele>60.2</ele>
        <time>2021-09-21T10:07:36Z</time>
      </trkpt>
      <trkpt lat="46.51504" lon="-1.42087">
        <ele>60.2</ele>
        <time>2021-09-21T10:07:37Z</time>
      </trkpt>
      <trkpt lat="46.51505" lon="-1.42086">
        <ele>60.2</ele>
        <time>2021-09-21T10:07:38Z</time>
      </trkpt>
      <trkpt lat="46.51506" lon="-1.42086">
        <ele>60.1</ele>
        <time>2021-09-21T10:07:39Z</time>
      </trkpt>
      <trkpt lat="46.51508" lon="-1.42086">
        <ele>60.1</ele>
        <time>2021-09-21T10:07:40Z</time>
      </trkpt>
      <trkpt lat="46.51509" lon="-1.42086">
        <ele>60.1</ele>
        <time>2021-09-21T10:07:41Z</time>
      </trkpt>
      <trkpt lat="46.5151" lon="-1.42085">
        <ele>60.1</ele>
        <time>2021-09-21T10:07:42Z</time>
      </trkpt>
      <trkpt lat="46.51511" lon="-1.42085">
        <ele>60.1</ele>
        <time>2021-09-21T10:07:43Z</time>
      </trkpt>
      <trkpt lat="46.51513" lon="-1.42085">
        <ele>60.1</ele>
        <time>2021-09-21T10:07:44Z</time>
      </trkpt>
      <trkpt lat="46.51514" lon="-1.42084">
        <ele>60</ele>
        <time>2021-09-21T10:07:45Z</time>
      </trkpt>
      <trkpt lat="46.51515" lon="-1.42084">
        <ele>60</ele>
        <time>2021-09-21T10:07:46Z</time>
      </trkpt>
      <trkpt lat="46.51516" lon="-1.42084">
        <ele>60</ele>
        <time>2021-09-21T10:07:47Z</time>
      </trkpt>
      <trkpt lat="46.51517" lon="-1.42083">
        <ele>60</ele>
        <time>2021-09-21T10:07:48Z</time>
      </trkpt>
      <trkpt lat="46.51519" lon="-1.42083">
        <ele>60</ele>
        <time>2021-09-21T10:07:49Z</time>
      </trkpt>
      <trkpt lat="46.5152" lon="-1.42082">
        <ele>59.9</ele>
        <time>2021-09-21T10:07:50Z</time>
      </trkpt>
      <trkpt lat="46.51521" lon="-1.42082">
        <ele>59.9</ele>
        <time>2021-09-21T10:07:51Z</time>
      </trkpt>
      <trkpt lat="46.51522" lon="-1.42081">
        <ele>59.9</ele>
        <time>2021-09-21T10:07:52Z</time>
      </trkpt>
      <trkpt lat="46.51523" lon="-1.4208">
        <ele>59.9</ele>
        <time>2021-09-21T10:07:53Z</time>
      </trkpt>
      <trkpt lat="46.51524" lon="-1.4208">
        <ele>59.9</ele>
        <time>2021-09-21T10:07:54Z</time>
      </trkpt>
      <trkpt lat="46.51526" lon="-1.42079">
        <ele>59.9</ele>
        <time>2021-09-21T10:07:55Z</time>
      </trkpt>
      <trkpt lat="46.51527" lon="-1.42079">
        <ele>59.8</ele>
        <time>2021-09-21T10:07:56Z</time>
      </trkpt>
      <trkpt lat="46.51528" lon="-1.42078">
        <ele>59.8</ele>
        <time>2021-09-21T10:07:57Z</time>
      </trkpt>
      <trkpt lat="46.51529" lon="-1.42078">
        <ele>59.8</ele>
        <time>2021-09-21T10:07:58Z</time>
      </trkpt>
      <trkpt lat="46.5153" lon="-1.42077">
        <ele>59.8</ele>
        <time>2021-09-21T10:07:59Z</time>
      </trkpt>
      <trkpt lat="46.51532" lon="-1.42077">
        <ele>59.8</ele>
        <time>2021-09-21T10:08:00Z</time>
      </trkpt>
      <trkpt lat="46.51533" lon="-1.42076">
        <ele>59.8</ele>
        <time>2021-09-21T10:08:01Z</time>
      </trkpt>
      <trkpt lat="46.51534" lon="-1.42076">
        <ele>59.7</ele>
        <time>2021-09-21T10:08:02Z</time>
      </trkpt>
      <trkpt lat="46.51535" lon="-1.42075">
        <ele>59.7</ele>
        <time>2021-09-21T10:08:03Z</time>
      </trkpt>
      <trkpt lat="46.51536" lon="-1.42075">
        <ele>59.7</ele>
        <time>2021-09-21T10:08:04Z</time>
      </trkpt>
      <trkpt lat="46.51537" lon="-1.42075">
        <ele>59.7</ele>
        <time>2021-09-21T10:08:05Z</time>
      </trkpt>
      <trkpt lat="46.51538" lon="-1.42074">
        <ele>59.6</ele>
        <time>2021-09-21T10:08:06Z</time>
      </trkpt>
      <trkpt lat="46.51539" lon="-1.42074">
        <ele>59.6</ele>
        <time>2021-09-21T10:08:07Z</time>
      </trkpt>
      <trkpt lat="46.51539" lon="-1.42073">
        <ele>59.6</ele>
        <time>2021-09-21T10:08:08Z</time>
      </trkpt>
      <trkpt lat="46.5154" lon="-1.42072">
        <ele>59.6</ele>
        <time>2021-09-21T10:08:09Z</time>
      </trkpt>
      <trkpt lat="46.51541" lon="-1.42072">
        <ele>59.6</ele>
        <time>2021-09-21T10:08:10Z</time>
      </trkpt>
      <trkpt lat="46.51541" lon="-1.42071">
        <ele>59.6</ele>
        <time>2021-09-21T10:08:11Z</time>
      </trkpt>
      <trkpt lat="46.51543" lon="-1.42071">
        <ele>59.5</ele>
        <time>2021-09-21T10:08:12Z</time>
      </trkpt>
      <trkpt lat="46.51544" lon="-1.4207">
        <ele>59.5</ele>
        <time>2021-09-21T10:08:13Z</time>
      </trkpt>
      <trkpt lat="46.51545" lon="-1.4207">
        <ele>59.5</ele>
        <time>2021-09-21T10:08:14Z</time>
      </trkpt>
      <trkpt lat="46.51546" lon="-1.42069">
        <ele>59.4</ele>
        <time>2021-09-21T10:08:15Z</time>
      </trkpt>
      <trkpt lat="46.51548" lon="-1.42069">
        <ele>59.4</ele>
        <time>2021-09-21T10:08:16Z</time>
      </trkpt>
      <trkpt lat="46.51549" lon="-1.42068">
        <ele>59.4</ele>
        <time>2021-09-21T10:08:17Z</time>
      </trkpt>
      <trkpt lat="46.5155" lon="-1.42067">
        <ele>59.3</ele>
        <time>2021-09-21T10:08:18Z</time>
      </trkpt>
      <trkpt lat="46.51552" lon="-1.42067">
        <ele>59.3</ele>
        <time>2021-09-21T10:08:19Z</time>
      </trkpt>
      <trkpt lat="46.51553" lon="-1.42066">
        <ele>59.2</ele>
        <time>2021-09-21T10:08:20Z</time>
      </trkpt>
      <trkpt lat="46.51554" lon="-1.42065">
        <ele>59.2</ele>
        <time>2021-09-21T10:08:21Z</time>
      </trkpt>
      <trkpt lat="46.51556" lon="-1.42064">
        <ele>59.2</ele>
        <time>2021-09-21T10:08:22Z</time>
      </trkpt>
      <trkpt lat="46.51557" lon="-1.42064">
        <ele>59.1</ele>
        <time>2021-09-21T10:08:23Z</time>
      </trkpt>
      <trkpt lat="46.51558" lon="-1.42063">
        <ele>59.1</ele>
        <time>2021-09-21T10:08:24Z</time>
      </trkpt>
      <trkpt lat="46.51559" lon="-1.42063">
        <ele>59.1</ele>
        <time>2021-09-21T10:08:25Z</time>
      </trkpt>
      <trkpt lat="46.5156" lon="-1.42062">
        <ele>59.1</ele>
        <time>2021-09-21T10:08:26Z</time>
      </trkpt>
      <trkpt lat="46.51561" lon="-1.42062">
        <ele>59.1</ele>
        <time>2021-09-21T10:08:27Z</time>
      </trkpt>
      <trkpt lat="46.51563" lon="-1.42061">
        <ele>59.1</ele>
        <time>2021-09-21T10:08:28Z</time>
      </trkpt>
      <trkpt lat="46.51564" lon="-1.42061">
        <ele>59</ele>
        <time>2021-09-21T10:08:29Z</time>
      </trkpt>
      <trkpt lat="46.51565" lon="-1.4206">
        <ele>59</ele>
        <time>2021-09-21T10:08:30Z</time>
      </trkpt>
      <trkpt lat="46.51566" lon="-1.4206">
        <ele>59</ele>
        <time>2021-09-21T10:08:31Z</time>
      </trkpt>
      <trkpt lat="46.51567" lon="-1.42059">
        <ele>59</ele>
        <time>2021-09-21T10:08:32Z</time>
      </trkpt>
      <trkpt lat="46.51567" lon="-1.42059">
        <ele>59</ele>
        <time>2021-09-21T10:08:33Z</time>
      </trkpt>
      <trkpt lat="46.51568" lon="-1.42059">
        <ele>59</ele>
        <time>2021-09-21T10:08:34Z</time>
      </trkpt>
      <trkpt lat="46.51569" lon="-1.42058">
        <ele>59</ele>
        <time>2021-09-21T10:08:35Z</time>
      </trkpt>
      <trkpt lat="46.5157" lon="-1.42058">
        <ele>59</ele>
        <time>2021-09-21T10:08:36Z</time>
      </trkpt>
      <trkpt lat="46.51571" lon="-1.42058">
        <ele>59</ele>
        <time>2021-09-21T10:08:37Z</time>
      </trkpt>
      <trkpt lat="46.51572" lon="-1.42057">
        <ele>59</ele>
        <time>2021-09-21T10:08:38Z</time>
      </trkpt>
      <trkpt lat="46.51573" lon="-1.42057">
        <ele>59</ele>
        <time>2021-09-21T10:08:39Z</time>
      </trkpt>
      <trkpt lat="46.51574" lon="-1.42057">
        <ele>58.9</ele>
        <time>2021-09-21T10:08:40Z</time>
      </trkpt>
      <trkpt lat="46.51575" lon="-1.42056">
        <ele>58.9</ele>
        <time>2021-09-21T10:08:41Z</time>
      </trkpt>
      <trkpt lat="46.51575" lon="-1.42056">
        <ele>58.9</ele>
        <time>2021-09-21T10:08:42Z</time>
      </trkpt>
      <trkpt lat="46.51576" lon="-1.42055">
        <ele>58.9</ele>
        <time>2021-09-21T10:08:43Z</time>
      </trkpt>
      <trkpt lat="46.51577" lon="-1.42055">
        <ele>58.9</ele>
        <time>2021-09-21T10:08:44Z</time>
      </trkpt>
      <trkpt lat="46.51578" lon="-1.42054">
        <ele>58.9</ele>
        <time>2021-09-21T10:08:45Z</time>
      </trkpt>
      <trkpt lat="46.5158" lon="-1.42053">
        <ele>58.9</ele>
        <time>2021-09-21T10:08:46Z</time>
      </trkpt>
      <trkpt lat="46.51581" lon="-1.42053">
        <ele>58.9</ele>
        <time>2021-09-21T10:08:47Z</time>
      </trkpt>
      <trkpt lat="46.51582" lon="-1.42052">
        <ele>58.8</ele>
        <time>2021-09-21T10:08:48Z</time>
      </trkpt>
      <trkpt lat="46.51583" lon="-1.42051">
        <ele>58.8</ele>
        <time>2021-09-21T10:08:49Z</time>
      </trkpt>
      <trkpt lat="46.51584" lon="-1.4205">
        <ele>58.8</ele>
        <time>2021-09-21T10:08:50Z</time>
      </trkpt>
      <trkpt lat="46.51586" lon="-1.4205">
        <ele>58.8</ele>
        <time>2021-09-21T10:08:51Z</time>
      </trkpt>
      <trkpt lat="46.51587" lon="-1.42049">
        <ele>58.8</ele>
        <time>2021-09-21T10:08:52Z</time>
      </trkpt>
      <trkpt lat="46.51588" lon="-1.42048">
        <ele>58.7</ele>
        <time>2021-09-21T10:08:53Z</time>
      </trkpt>
      <trkpt lat="46.5159" lon="-1.42048">
        <ele>58.7</ele>
        <time>2021-09-21T10:08:54Z</time>
      </trkpt>
      <trkpt lat="46.51591" lon="-1.42047">
        <ele>58.7</ele>
        <time>2021-09-21T10:08:55Z</time>
      </trkpt>
      <trkpt lat="46.51592" lon="-1.42047">
        <ele>58.7</ele>
        <time>2021-09-21T10:08:56Z</time>
      </trkpt>
      <trkpt lat="46.51594" lon="-1.42046">
        <ele>58.6</ele>
        <time>2021-09-21T10:08:57Z</time>
      </trkpt>
      <trkpt lat="46.51595" lon="-1.42046">
        <ele>58.6</ele>
        <time>2021-09-21T10:08:58Z</time>
      </trkpt>
      <trkpt lat="46.51596" lon="-1.42045">
        <ele>58.6</ele>
        <time>2021-09-21T10:08:59Z</time>
      </trkpt>
      <trkpt lat="46.51598" lon="-1.42045">
        <ele>58.6</ele>
        <time>2021-09-21T10:09:00Z</time>
      </trkpt>
      <trkpt lat="46.51599" lon="-1.42045">
        <ele>58.5</ele>
        <time>2021-09-21T10:09:01Z</time>
      </trkpt>
      <trkpt lat="46.516" lon="-1.42044">
        <ele>58.5</ele>
        <time>2021-09-21T10:09:02Z</time>
      </trkpt>
      <trkpt lat="46.51602" lon="-1.42044">
        <ele>58.5</ele>
        <time>2021-09-21T10:09:03Z</time>
      </trkpt>
      <trkpt lat="46.51603" lon="-1.42043">
        <ele>58.5</ele>
        <time>2021-09-21T10:09:04Z</time>
      </trkpt>
      <trkpt lat="46.51604" lon="-1.42043">
        <ele>58.4</ele>
        <time>2021-09-21T10:09:05Z</time>
      </trkpt>
      <trkpt lat="46.51605" lon="-1.42042">
        <ele>58.4</ele>
        <time>2021-09-21T10:09:06Z</time>
      </trkpt>
      <trkpt lat="46.51606" lon="-1.42042">
        <ele>58.4</ele>
        <time>2021-09-21T10:09:07Z</time>
      </trkpt>
      <trkpt lat="46.51607" lon="-1.42041">
        <ele>58.4</ele>
        <time>2021-09-21T10:09:08Z</time>
      </trkpt>
      <trkpt lat="46.51609" lon="-1.4204">
        <ele>58.3</ele>
        <time>2021-09-21T10:09:09Z</time>
      </trkpt>
      <trkpt lat="46.5161" lon="-1.4204">
        <ele>58.3</ele>
        <time>2021-09-21T10:09:10Z</time>
      </trkpt>
      <trkpt lat="46.51611" lon="-1.42039">
        <ele>58.3</ele>
        <time>2021-09-21T10:09:11Z</time>
      </trkpt>
      <trkpt lat="46.51612" lon="-1.42039">
        <ele>58.3</ele>
        <time>2021-09-21T10:09:12Z</time>
      </trkpt>
      <trkpt lat="46.51613" lon="-1.42038">
        <ele>58.3</ele>
        <time>2021-09-21T10:09:13Z</time>
      </trkpt>
      <trkpt lat="46.51614" lon="-1.42037">
        <ele>58.2</ele>
        <time>2021-09-21T10:09:14Z</time>
      </trkpt>
      <trkpt lat="46.51615" lon="-1.42036">
        <ele>58.2</ele>
        <time>2021-09-21T10:09:15Z</time>
      </trkpt>
      <trkpt lat="46.51616" lon="-1.42036">
        <ele>58.2</ele>
        <time>2021-09-21T10:09:16Z</time>
      </trkpt>
      <trkpt lat="46.51617" lon="-1.42035">
        <ele>58.2</ele>
        <time>2021-09-21T10:09:17Z</time>
      </trkpt>
      <trkpt lat="46.51618" lon="-1.42034">
        <ele>58.1</ele>
        <time>2021-09-21T10:09:18Z</time>
      </trkpt>
      <trkpt lat="46.51619" lon="-1.42034">
        <ele>58.1</ele>
        <time>2021-09-21T10:09:19Z</time>
      </trkpt>
      <trkpt lat="46.5162" lon="-1.42033">
        <ele>58.1</ele>
        <time>2021-09-21T10:09:20Z</time>
      </trkpt>
      <trkpt lat="46.51621" lon="-1.42032">
        <ele>58.1</ele>
        <time>2021-09-21T10:09:21Z</time>
      </trkpt>
      <trkpt lat="46.51623" lon="-1.42032">
        <ele>58</ele>
        <time>2021-09-21T10:09:22Z</time>
      </trkpt>
      <trkpt lat="46.51624" lon="-1.42031">
        <ele>58</ele>
        <time>2021-09-21T10:09:23Z</time>
      </trkpt>
      <trkpt lat="46.51625" lon="-1.4203">
        <ele>58</ele>
        <time>2021-09-21T10:09:24Z</time>
      </trkpt>
      <trkpt lat="46.51626" lon="-1.4203">
        <ele>57.9</ele>
        <time>2021-09-21T10:09:25Z</time>
      </trkpt>
      <trkpt lat="46.51627" lon="-1.42029">
        <ele>57.9</ele>
        <time>2021-09-21T10:09:26Z</time>
      </trkpt>
      <trkpt lat="46.51629" lon="-1.42028">
        <ele>57.9</ele>
        <time>2021-09-21T10:09:27Z</time>
      </trkpt>
      <trkpt lat="46.5163" lon="-1.42028">
        <ele>57.9</ele>
        <time>2021-09-21T10:09:28Z</time>
      </trkpt>
      <trkpt lat="46.51631" lon="-1.42027">
        <ele>57.8</ele>
        <time>2021-09-21T10:09:29Z</time>
      </trkpt>
      <trkpt lat="46.51632" lon="-1.42027">
        <ele>57.8</ele>
        <time>2021-09-21T10:09:30Z</time>
      </trkpt>
      <trkpt lat="46.51634" lon="-1.42026">
        <ele>57.8</ele>
        <time>2021-09-21T10:09:31Z</time>
      </trkpt>
      <trkpt lat="46.51635" lon="-1.42026">
        <ele>57.8</ele>
        <time>2021-09-21T10:09:32Z</time>
      </trkpt>
      <trkpt lat="46.51636" lon="-1.42025">
        <ele>57.8</ele>
        <time>2021-09-21T10:09:33Z</time>
      </trkpt>
      <trkpt lat="46.51638" lon="-1.42025">
        <ele>57.7</ele>
        <time>2021-09-21T10:09:34Z</time>
      </trkpt>
      <trkpt lat="46.51639" lon="-1.42024">
        <ele>57.7</ele>
        <time>2021-09-21T10:09:35Z</time>
      </trkpt>
      <trkpt lat="46.5164" lon="-1.42024">
        <ele>57.7</ele>
        <time>2021-09-21T10:09:36Z</time>
      </trkpt>
      <trkpt lat="46.51641" lon="-1.42023">
        <ele>57.7</ele>
        <time>2021-09-21T10:09:37Z</time>
      </trkpt>
      <trkpt lat="46.51643" lon="-1.42023">
        <ele>57.7</ele>
        <time>2021-09-21T10:09:38Z</time>
      </trkpt>
      <trkpt lat="46.51644" lon="-1.42022">
        <ele>57.7</ele>
        <time>2021-09-21T10:09:39Z</time>
      </trkpt>
      <trkpt lat="46.51645" lon="-1.42022">
        <ele>57.7</ele>
        <time>2021-09-21T10:09:40Z</time>
      </trkpt>
      <trkpt lat="46.51647" lon="-1.42021">
        <ele>57.7</ele>
        <time>2021-09-21T10:09:41Z</time>
      </trkpt>
      <trkpt lat="46.51648" lon="-1.42021">
        <ele>57.7</ele>
        <time>2021-09-21T10:09:42Z</time>
      </trkpt>
      <trkpt lat="46.51649" lon="-1.4202">
        <ele>57.6</ele>
        <time>2021-09-21T10:09:43Z</time>
      </trkpt>
      <trkpt lat="46.5165" lon="-1.4202">
        <ele>57.6</ele>
        <time>2021-09-21T10:09:44Z</time>
      </trkpt>
      <trkpt lat="46.51652" lon="-1.42019">
        <ele>57.6</ele>
        <time>2021-09-21T10:09:45Z</time>
      </trkpt>
      <trkpt lat="46.51653" lon="-1.42019">
        <ele>57.6</ele>
        <time>2021-09-21T10:09:46Z</time>
      </trkpt>
      <trkpt lat="46.51654" lon="-1.42018">
        <ele>57.6</ele>
        <time>2021-09-21T10:09:47Z</time>
      </trkpt>
      <trkpt lat="46.51655" lon="-1.42017">
        <ele>57.6</ele>
        <time>2021-09-21T10:09:48Z</time>
      </trkpt>
      <trkpt lat="46.51656" lon="-1.42017">
        <ele>57.6</ele>
        <time>2021-09-21T10:09:49Z</time>
      </trkpt>
      <trkpt lat="46.51658" lon="-1.42016">
        <ele>57.6</ele>
        <time>2021-09-21T10:09:50Z</time>
      </trkpt>
      <trkpt lat="46.51659" lon="-1.42016">
        <ele>57.6</ele>
        <time>2021-09-21T10:09:51Z</time>
      </trkpt>
      <trkpt lat="46.5166" lon="-1.42015">
        <ele>57.6</ele>
        <time>2021-09-21T10:09:52Z</time>
      </trkpt>
      <trkpt lat="46.51661" lon="-1.42014">
        <ele>57.5</ele>
        <time>2021-09-21T10:09:53Z</time>
      </trkpt>
      <trkpt lat="46.51662" lon="-1.42014">
        <ele>57.5</ele>
        <time>2021-09-21T10:09:54Z</time>
      </trkpt>
      <trkpt lat="46.51663" lon="-1.42013">
        <ele>57.5</ele>
        <time>2021-09-21T10:09:55Z</time>
      </trkpt>
      <trkpt lat="46.51664" lon="-1.42013">
        <ele>57.5</ele>
        <time>2021-09-21T10:09:56Z</time>
      </trkpt>
      <trkpt lat="46.51666" lon="-1.42012">
        <ele>57.4</ele>
        <time>2021-09-21T10:09:57Z</time>
      </trkpt>
      <trkpt lat="46.51667" lon="-1.42011">
        <ele>57.4</ele>
        <time>2021-09-21T10:09:58Z</time>
      </trkpt>
      <trkpt lat="46.51668" lon="-1.42011">
        <ele>57.4</ele>
        <time>2021-09-21T10:09:59Z</time>
      </trkpt>
      <trkpt lat="46.51669" lon="-1.4201">
        <ele>57.4</ele>
        <time>2021-09-21T10:10:00Z</time>
      </trkpt>
      <trkpt lat="46.5167" lon="-1.42009">
        <ele>57.4</ele>
        <time>2021-09-21T10:10:01Z</time>
      </trkpt>
      <trkpt lat="46.51671" lon="-1.42009">
        <ele>57.3</ele>
        <time>2021-09-21T10:10:02Z</time>
      </trkpt>
      <trkpt lat="46.51672" lon="-1.42008">
        <ele>57.3</ele>
        <time>2021-09-21T10:10:03Z</time>
      </trkpt>
      <trkpt lat="46.51673" lon="-1.42007">
        <ele>57.3</ele>
        <time>2021-09-21T10:10:04Z</time>
      </trkpt>
      <trkpt lat="46.51674" lon="-1.42007">
        <ele>57.3</ele>
        <time>2021-09-21T10:10:05Z</time>
      </trkpt>
      <trkpt lat="46.51676" lon="-1.42006">
        <ele>57.2</ele>
        <time>2021-09-21T10:10:06Z</time>
      </trkpt>
      <trkpt lat="46.51677" lon="-1.42005">
        <ele>57.2</ele>
        <time>2021-09-21T10:10:07Z</time>
      </trkpt>
      <trkpt lat="46.51678" lon="-1.42005">
        <ele>57.2</ele>
        <time>2021-09-21T10:10:08Z</time>
      </trkpt>
      <trkpt lat="46.51679" lon="-1.42004">
        <ele>57.2</ele>
        <time>2021-09-21T10:10:09Z</time>
      </trkpt>
      <trkpt lat="46.5168" lon="-1.42004">
        <ele>57.2</ele>
        <time>2021-09-21T10:10:10Z</time>
      </trkpt>
      <trkpt lat="46.51681" lon="-1.42003">
        <ele>57.2</ele>
        <time>2021-09-21T10:10:11Z</time>
      </trkpt>
      <trkpt lat="46.51683" lon="-1.42003">
        <ele>57.2</ele>
        <time>2021-09-21T10:10:12Z</time>
      </trkpt>
      <trkpt lat="46.51684" lon="-1.42002">
        <ele>57.1</ele>
        <time>2021-09-21T10:10:13Z</time>
      </trkpt>
      <trkpt lat="46.51685" lon="-1.42001">
        <ele>57.1</ele>
        <time>2021-09-21T10:10:14Z</time>
      </trkpt>
      <trkpt lat="46.51686" lon="-1.42001">
        <ele>57.1</ele>
        <time>2021-09-21T10:10:15Z</time>
      </trkpt>
      <trkpt lat="46.51687" lon="-1.42">
        <ele>57.1</ele>
        <time>2021-09-21T10:10:16Z</time>
      </trkpt>
      <trkpt lat="46.51689" lon="-1.42">
        <ele>57.1</ele>
        <time>2021-09-21T10:10:17Z</time>
      </trkpt>
      <trkpt lat="46.5169" lon="-1.41999">
        <ele>57.1</ele>
        <time>2021-09-21T10:10:18Z</time>
      </trkpt>
      <trkpt lat="46.51691" lon="-1.41999">
        <ele>57.1</ele>
        <time>2021-09-21T10:10:19Z</time>
      </trkpt>
      <trkpt lat="46.51692" lon="-1.41998">
        <ele>57</ele>
        <time>2021-09-21T10:10:20Z</time>
      </trkpt>
      <trkpt lat="46.51693" lon="-1.41998">
        <ele>57</ele>
        <time>2021-09-21T10:10:21Z</time>
      </trkpt>
      <trkpt lat="46.51695" lon="-1.41997">
        <ele>57</ele>
        <time>2021-09-21T10:10:22Z</time>
      </trkpt>
      <trkpt lat="46.51696" lon="-1.41997">
        <ele>57</ele>
        <time>2021-09-21T10:10:23Z</time>
      </trkpt>
      <trkpt lat="46.51697" lon="-1.41996">
        <ele>57</ele>
        <time>2021-09-21T10:10:24Z</time>
      </trkpt>
      <trkpt lat="46.51698" lon="-1.41995">
        <ele>56.9</ele>
        <time>2021-09-21T10:10:25Z</time>
      </trkpt>
      <trkpt lat="46.51699" lon="-1.41995">
        <ele>56.9</ele>
        <time>2021-09-21T10:10:26Z</time>
      </trkpt>
      <trkpt lat="46.517" lon="-1.41994">
        <ele>56.9</ele>
        <time>2021-09-21T10:10:27Z</time>
      </trkpt>
      <trkpt lat="46.51701" lon="-1.41994">
        <ele>56.9</ele>
        <time>2021-09-21T10:10:28Z</time>
      </trkpt>
      <trkpt lat="46.51702" lon="-1.41993">
        <ele>56.9</ele>
        <time>2021-09-21T10:10:29Z</time>
      </trkpt>
      <trkpt lat="46.51703" lon="-1.41993">
        <ele>56.8</ele>
        <time>2021-09-21T10:10:30Z</time>
      </trkpt>
      <trkpt lat="46.51704" lon="-1.41992">
        <ele>56.8</ele>
        <time>2021-09-21T10:10:31Z</time>
      </trkpt>
      <trkpt lat="46.51704" lon="-1.41992">
        <ele>56.8</ele>
        <time>2021-09-21T10:10:32Z</time>
      </trkpt>
      <trkpt lat="46.51705" lon="-1.41991">
        <ele>56.8</ele>
        <time>2021-09-21T10:10:33Z</time>
      </trkpt>
      <trkpt lat="46.51706" lon="-1.41991">
        <ele>56.8</ele>
        <time>2021-09-21T10:10:34Z</time>
      </trkpt>
      <trkpt lat="46.51707" lon="-1.4199">
        <ele>56.8</ele>
        <time>2021-09-21T10:10:35Z</time>
      </trkpt>
      <trkpt lat="46.51708" lon="-1.4199">
        <ele>56.8</ele>
        <time>2021-09-21T10:10:36Z</time>
      </trkpt>
      <trkpt lat="46.51708" lon="-1.4199">
        <ele>56.7</ele>
        <time>2021-09-21T10:10:37Z</time>
      </trkpt>
      <trkpt lat="46.51709" lon="-1.41989">
        <ele>56.7</ele>
        <time>2021-09-21T10:10:38Z</time>
      </trkpt>
      <trkpt lat="46.5171" lon="-1.41989">
        <ele>56.7</ele>
        <time>2021-09-21T10:10:39Z</time>
      </trkpt>
      <trkpt lat="46.51711" lon="-1.41989">
        <ele>56.7</ele>
        <time>2021-09-21T10:10:40Z</time>
      </trkpt>
      <trkpt lat="46.51712" lon="-1.41988">
        <ele>56.7</ele>
        <time>2021-09-21T10:10:41Z</time>
      </trkpt>
      <trkpt lat="46.51713" lon="-1.41988">
        <ele>56.7</ele>
        <time>2021-09-21T10:10:42Z</time>
      </trkpt>
      <trkpt lat="46.51714" lon="-1.41988">
        <ele>56.6</ele>
        <time>2021-09-21T10:10:43Z</time>
      </trkpt>
      <trkpt lat="46.51715" lon="-1.41988">
        <ele>56.6</ele>
        <time>2021-09-21T10:10:44Z</time>
      </trkpt>
      <trkpt lat="46.51716" lon="-1.41987">
        <ele>56.6</ele>
        <time>2021-09-21T10:10:45Z</time>
      </trkpt>
      <trkpt lat="46.51717" lon="-1.41987">
        <ele>56.6</ele>
        <time>2021-09-21T10:10:46Z</time>
      </trkpt>
      <trkpt lat="46.51718" lon="-1.41987">
        <ele>56.6</ele>
        <time>2021-09-21T10:10:47Z</time>
      </trkpt>
      <trkpt lat="46.51719" lon="-1.41986">
        <ele>56.5</ele>
        <time>2021-09-21T10:10:48Z</time>
      </trkpt>
      <trkpt lat="46.5172" lon="-1.41986">
        <ele>56.5</ele>
        <time>2021-09-21T10:10:49Z</time>
      </trkpt>
      <trkpt lat="46.51722" lon="-1.41985">
        <ele>56.5</ele>
        <time>2021-09-21T10:10:50Z</time>
      </trkpt>
      <trkpt lat="46.51723" lon="-1.41984">
        <ele>56.5</ele>
        <time>2021-09-21T10:10:51Z</time>
      </trkpt>
      <trkpt lat="46.51724" lon="-1.41984">
        <ele>56.5</ele>
        <time>2021-09-21T10:10:52Z</time>
      </trkpt>
      <trkpt lat="46.51725" lon="-1.41983">
        <ele>56.4</ele>
        <time>2021-09-21T10:10:53Z</time>
      </trkpt>
      <trkpt lat="46.51726" lon="-1.41983">
        <ele>56.4</ele>
        <time>2021-09-21T10:10:54Z</time>
      </trkpt>
      <trkpt lat="46.51726" lon="-1.41982">
        <ele>56.4</ele>
        <time>2021-09-21T10:10:55Z</time>
      </trkpt>
      <trkpt lat="46.51726" lon="-1.41982">
        <ele>56.4</ele>
        <time>2021-09-21T10:10:56Z</time>
      </trkpt>
      <trkpt lat="46.51727" lon="-1.41982">
        <ele>56.4</ele>
        <time>2021-09-21T10:10:57Z</time>
      </trkpt>
      <trkpt lat="46.51727" lon="-1.41982">
        <ele>56.4</ele>
        <time>2021-09-21T10:10:58Z</time>
      </trkpt>
      <trkpt lat="46.51728" lon="-1.41981">
        <ele>56.4</ele>
        <time>2021-09-21T10:10:59Z</time>
      </trkpt>
      <trkpt lat="46.51729" lon="-1.4198">
        <ele>56.4</ele>
        <time>2021-09-21T10:11:00Z</time>
      </trkpt>
      <trkpt lat="46.51731" lon="-1.4198">
        <ele>56.3</ele>
        <time>2021-09-21T10:11:01Z</time>
      </trkpt>
      <trkpt lat="46.51732" lon="-1.41979">
        <ele>56.3</ele>
        <time>2021-09-21T10:11:02Z</time>
      </trkpt>
      <trkpt lat="46.51733" lon="-1.41978">
        <ele>56.3</ele>
        <time>2021-09-21T10:11:03Z</time>
      </trkpt>
      <trkpt lat="46.51735" lon="-1.41976">
        <ele>56.3</ele>
        <time>2021-09-21T10:11:04Z</time>
      </trkpt>
      <trkpt lat="46.51736" lon="-1.41975">
        <ele>56.2</ele>
        <time>2021-09-21T10:11:05Z</time>
      </trkpt>
      <trkpt lat="46.51738" lon="-1.41974">
        <ele>56.2</ele>
        <time>2021-09-21T10:11:06Z</time>
      </trkpt>
      <trkpt lat="46.51739" lon="-1.41973">
        <ele>56.2</ele>
        <time>2021-09-21T10:11:07Z</time>
      </trkpt>
      <trkpt lat="46.51741" lon="-1.41972">
        <ele>56.2</ele>
        <time>2021-09-21T10:11:08Z</time>
      </trkpt>
      <trkpt lat="46.51742" lon="-1.41971">
        <ele>56.2</ele>
        <time>2021-09-21T10:11:09Z</time>
      </trkpt>
      <trkpt lat="46.51744" lon="-1.41971">
        <ele>56.1</ele>
        <time>2021-09-21T10:11:10Z</time>
      </trkpt>
      <trkpt lat="46.51745" lon="-1.4197">
        <ele>56.1</ele>
        <time>2021-09-21T10:11:11Z</time>
      </trkpt>
      <trkpt lat="46.51746" lon="-1.41969">
        <ele>56.1</ele>
        <time>2021-09-21T10:11:12Z</time>
      </trkpt>
      <trkpt lat="46.51747" lon="-1.41969">
        <ele>56.1</ele>
        <time>2021-09-21T10:11:13Z</time>
      </trkpt>
      <trkpt lat="46.51749" lon="-1.41968">
        <ele>56.1</ele>
        <time>2021-09-21T10:11:14Z</time>
      </trkpt>
      <trkpt lat="46.5175" lon="-1.41968">
        <ele>56</ele>
        <time>2021-09-21T10:11:15Z</time>
      </trkpt>
      <trkpt lat="46.51751" lon="-1.41967">
        <ele>56</ele>
        <time>2021-09-21T10:11:16Z</time>
      </trkpt>
      <trkpt lat="46.51752" lon="-1.41967">
        <ele>56</ele>
        <time>2021-09-21T10:11:17Z</time>
      </trkpt>
      <trkpt lat="46.51753" lon="-1.41966">
        <ele>56</ele>
        <time>2021-09-21T10:11:18Z</time>
      </trkpt>
      <trkpt lat="46.51754" lon="-1.41966">
        <ele>56</ele>
        <time>2021-09-21T10:11:19Z</time>
      </trkpt>
      <trkpt lat="46.51756" lon="-1.41965">
        <ele>56</ele>
        <time>2021-09-21T10:11:20Z</time>
      </trkpt>
      <trkpt lat="46.51757" lon="-1.41965">
        <ele>55.9</ele>
        <time>2021-09-21T10:11:21Z</time>
      </trkpt>
      <trkpt lat="46.51758" lon="-1.41964">
        <ele>55.9</ele>
        <time>2021-09-21T10:11:22Z</time>
      </trkpt>
      <trkpt lat="46.51759" lon="-1.41964">
        <ele>55.9</ele>
        <time>2021-09-21T10:11:23Z</time>
      </trkpt>
      <trkpt lat="46.51761" lon="-1.41963">
        <ele>55.9</ele>
        <time>2021-09-21T10:11:24Z</time>
      </trkpt>
      <trkpt lat="46.51762" lon="-1.41962">
        <ele>55.8</ele>
        <time>2021-09-21T10:11:25Z</time>
      </trkpt>
      <trkpt lat="46.51763" lon="-1.41962">
        <ele>55.8</ele>
        <time>2021-09-21T10:11:26Z</time>
      </trkpt>
      <trkpt lat="46.51764" lon="-1.41961">
        <ele>55.8</ele>
        <time>2021-09-21T10:11:27Z</time>
      </trkpt>
      <trkpt lat="46.51766" lon="-1.4196">
        <ele>55.7</ele>
        <time>2021-09-21T10:11:28Z</time>
      </trkpt>
      <trkpt lat="46.51767" lon="-1.4196">
        <ele>55.7</ele>
        <time>2021-09-21T10:11:29Z</time>
      </trkpt>
      <trkpt lat="46.51768" lon="-1.41959">
        <ele>55.7</ele>
        <time>2021-09-21T10:11:30Z</time>
      </trkpt>
      <trkpt lat="46.51769" lon="-1.41958">
        <ele>55.7</ele>
        <time>2021-09-21T10:11:31Z</time>
      </trkpt>
      <trkpt lat="46.51771" lon="-1.41957">
        <ele>55.6</ele>
        <time>2021-09-21T10:11:32Z</time>
      </trkpt>
      <trkpt lat="46.51772" lon="-1.41957">
        <ele>55.6</ele>
        <time>2021-09-21T10:11:33Z</time>
      </trkpt>
      <trkpt lat="46.51773" lon="-1.41956">
        <ele>55.6</ele>
        <time>2021-09-21T10:11:34Z</time>
      </trkpt>
      <trkpt lat="46.51775" lon="-1.41955">
        <ele>55.6</ele>
        <time>2021-09-21T10:11:35Z</time>
      </trkpt>
      <trkpt lat="46.51776" lon="-1.41955">
        <ele>55.5</ele>
        <time>2021-09-21T10:11:36Z</time>
      </trkpt>
      <trkpt lat="46.51777" lon="-1.41954">
        <ele>55.5</ele>
        <time>2021-09-21T10:11:37Z</time>
      </trkpt>
      <trkpt lat="46.51778" lon="-1.41954">
        <ele>55.5</ele>
        <time>2021-09-21T10:11:38Z</time>
      </trkpt>
      <trkpt lat="46.51779" lon="-1.41953">
        <ele>55.5</ele>
        <time>2021-09-21T10:11:39Z</time>
      </trkpt>
      <trkpt lat="46.51781" lon="-1.41953">
        <ele>55.5</ele>
        <time>2021-09-21T10:11:40Z</time>
      </trkpt>
      <trkpt lat="46.51782" lon="-1.41952">
        <ele>55.5</ele>
        <time>2021-09-21T10:11:41Z</time>
      </trkpt>
      <trkpt lat="46.51783" lon="-1.41951">
        <ele>55.5</ele>
        <time>2021-09-21T10:11:42Z</time>
      </trkpt>
      <trkpt lat="46.51784" lon="-1.41951">
        <ele>55.5</ele>
        <time>2021-09-21T10:11:43Z</time>
      </trkpt>
      <trkpt lat="46.51785" lon="-1.41951">
        <ele>55.5</ele>
        <time>2021-09-21T10:11:44Z</time>
      </trkpt>
      <trkpt lat="46.51786" lon="-1.4195">
        <ele>55.5</ele>
        <time>2021-09-21T10:11:45Z</time>
      </trkpt>
      <trkpt lat="46.51787" lon="-1.4195">
        <ele>55.5</ele>
        <time>2021-09-21T10:11:46Z</time>
      </trkpt>
      <trkpt lat="46.51789" lon="-1.41949">
        <ele>55.4</ele>
        <time>2021-09-21T10:11:47Z</time>
      </trkpt>
      <trkpt lat="46.5179" lon="-1.41949">
        <ele>55.4</ele>
        <time>2021-09-21T10:11:48Z</time>
      </trkpt>
      <trkpt lat="46.51791" lon="-1.41948">
        <ele>55.4</ele>
        <time>2021-09-21T10:11:49Z</time>
      </trkpt>
      <trkpt lat="46.51792" lon="-1.41948">
        <ele>55.4</ele>
        <time>2021-09-21T10:11:50Z</time>
      </trkpt>
      <trkpt lat="46.51793" lon="-1.41947">
        <ele>55.4</ele>
        <time>2021-09-21T10:11:51Z</time>
      </trkpt>
      <trkpt lat="46.51794" lon="-1.41947">
        <ele>55.3</ele>
        <time>2021-09-21T10:11:52Z</time>
      </trkpt>
      <trkpt lat="46.51796" lon="-1.41946">
        <ele>55.3</ele>
        <time>2021-09-21T10:11:53Z</time>
      </trkpt>
      <trkpt lat="46.51797" lon="-1.41946">
        <ele>55.3</ele>
        <time>2021-09-21T10:11:54Z</time>
      </trkpt>
      <trkpt lat="46.51798" lon="-1.41945">
        <ele>55.2</ele>
        <time>2021-09-21T10:11:55Z</time>
      </trkpt>
      <trkpt lat="46.51799" lon="-1.41944">
        <ele>55.2</ele>
        <time>2021-09-21T10:11:56Z</time>
      </trkpt>
      <trkpt lat="46.51801" lon="-1.41944">
        <ele>55.2</ele>
        <time>2021-09-21T10:11:57Z</time>
      </trkpt>
      <trkpt lat="46.51802" lon="-1.41943">
        <ele>55.1</ele>
        <time>2021-09-21T10:11:58Z</time>
      </trkpt>
      <trkpt lat="46.51803" lon="-1.41943">
        <ele>55.1</ele>
        <time>2021-09-21T10:11:59Z</time>
      </trkpt>
      <trkpt lat="46.51805" lon="-1.41942">
        <ele>55</ele>
        <time>2021-09-21T10:12:00Z</time>
      </trkpt>
      <trkpt lat="46.51806" lon="-1.41941">
        <ele>55</ele>
        <time>2021-09-21T10:12:01Z</time>
      </trkpt>
      <trkpt lat="46.51807" lon="-1.41941">
        <ele>55</ele>
        <time>2021-09-21T10:12:02Z</time>
      </trkpt>
      <trkpt lat="46.51809" lon="-1.4194">
        <ele>54.9</ele>
        <time>2021-09-21T10:12:03Z</time>
      </trkpt>
      <trkpt lat="46.5181" lon="-1.41939">
        <ele>54.9</ele>
        <time>2021-09-21T10:12:04Z</time>
      </trkpt>
      <trkpt lat="46.51811" lon="-1.41939">
        <ele>54.8</ele>
        <time>2021-09-21T10:12:05Z</time>
      </trkpt>
      <trkpt lat="46.51813" lon="-1.41938">
        <ele>54.8</ele>
        <time>2021-09-21T10:12:06Z</time>
      </trkpt>
      <trkpt lat="46.51814" lon="-1.41938">
        <ele>54.7</ele>
        <time>2021-09-21T10:12:07Z</time>
      </trkpt>
      <trkpt lat="46.51815" lon="-1.41937">
        <ele>54.7</ele>
        <time>2021-09-21T10:12:08Z</time>
      </trkpt>
      <trkpt lat="46.51817" lon="-1.41936">
        <ele>54.6</ele>
        <time>2021-09-21T10:12:09Z</time>
      </trkpt>
      <trkpt lat="46.51818" lon="-1.41936">
        <ele>54.6</ele>
        <time>2021-09-21T10:12:10Z</time>
      </trkpt>
      <trkpt lat="46.51819" lon="-1.41935">
        <ele>54.6</ele>
        <time>2021-09-21T10:12:11Z</time>
      </trkpt>
      <trkpt lat="46.51821" lon="-1.41934">
        <ele>54.5</ele>
        <time>2021-09-21T10:12:12Z</time>
      </trkpt>
      <trkpt lat="46.51822" lon="-1.41934">
        <ele>54.5</ele>
        <time>2021-09-21T10:12:13Z</time>
      </trkpt>
      <trkpt lat="46.51823" lon="-1.41933">
        <ele>54.4</ele>
        <time>2021-09-21T10:12:14Z</time>
      </trkpt>
      <trkpt lat="46.51825" lon="-1.41933">
        <ele>54.4</ele>
        <time>2021-09-21T10:12:15Z</time>
      </trkpt>
      <trkpt lat="46.51826" lon="-1.41932">
        <ele>54.3</ele>
        <time>2021-09-21T10:12:16Z</time>
      </trkpt>
      <trkpt lat="46.51827" lon="-1.41931">
        <ele>54.3</ele>
        <time>2021-09-21T10:12:17Z</time>
      </trkpt>
      <trkpt lat="46.51829" lon="-1.41931">
        <ele>54.2</ele>
        <time>2021-09-21T10:12:18Z</time>
      </trkpt>
      <trkpt lat="46.5183" lon="-1.4193">
        <ele>54.2</ele>
        <time>2021-09-21T10:12:19Z</time>
      </trkpt>
      <trkpt lat="46.51831" lon="-1.4193">
        <ele>54.1</ele>
        <time>2021-09-21T10:12:20Z</time>
      </trkpt>
      <trkpt lat="46.51832" lon="-1.41929">
        <ele>54.1</ele>
        <time>2021-09-21T10:12:21Z</time>
      </trkpt>
      <trkpt lat="46.51833" lon="-1.41929">
        <ele>54</ele>
        <time>2021-09-21T10:12:22Z</time>
      </trkpt>
      <trkpt lat="46.51834" lon="-1.41928">
        <ele>54</ele>
        <time>2021-09-21T10:12:23Z</time>
      </trkpt>
      <trkpt lat="46.51836" lon="-1.41928">
        <ele>54</ele>
        <time>2021-09-21T10:12:24Z</time>
      </trkpt>
      <trkpt lat="46.51837" lon="-1.41928">
        <ele>53.9</ele>
        <time>2021-09-21T10:12:25Z</time>
      </trkpt>
      <trkpt lat="46.51838" lon="-1.41927">
        <ele>53.9</ele>
        <time>2021-09-21T10:12:26Z</time>
      </trkpt>
      <trkpt lat="46.51839" lon="-1.41927">
        <ele>53.8</ele>
        <time>2021-09-21T10:12:27Z</time>
      </trkpt>
      <trkpt lat="46.5184" lon="-1.41926">
        <ele>53.8</ele>
        <time>2021-09-21T10:12:28Z</time>
      </trkpt>
      <trkpt lat="46.51841" lon="-1.41926">
        <ele>53.8</ele>
        <time>2021-09-21T10:12:29Z</time>
      </trkpt>
      <trkpt lat="46.51842" lon="-1.41926">
        <ele>53.7</ele>
        <time>2021-09-21T10:12:30Z</time>
      </trkpt>
      <trkpt lat="46.51843" lon="-1.41925">
        <ele>53.7</ele>
        <time>2021-09-21T10:12:31Z</time>
      </trkpt>
      <trkpt lat="46.51844" lon="-1.41925">
        <ele>53.7</ele>
        <time>2021-09-21T10:12:32Z</time>
      </trkpt>
      <trkpt lat="46.51845" lon="-1.41925">
        <ele>53.7</ele>
        <time>2021-09-21T10:12:33Z</time>
      </trkpt>
      <trkpt lat="46.51846" lon="-1.41924">
        <ele>53.6</ele>
        <time>2021-09-21T10:12:34Z</time>
      </trkpt>
      <trkpt lat="46.51847" lon="-1.41924">
        <ele>53.6</ele>
        <time>2021-09-21T10:12:35Z</time>
      </trkpt>
      <trkpt lat="46.51848" lon="-1.41924">
        <ele>53.6</ele>
        <time>2021-09-21T10:12:36Z</time>
      </trkpt>
      <trkpt lat="46.51848" lon="-1.41923">
        <ele>53.6</ele>
        <time>2021-09-21T10:12:37Z</time>
      </trkpt>
      <trkpt lat="46.51849" lon="-1.41923">
        <ele>53.5</ele>
        <time>2021-09-21T10:12:38Z</time>
      </trkpt>
      <trkpt lat="46.5185" lon="-1.41922">
        <ele>53.5</ele>
        <time>2021-09-21T10:12:39Z</time>
      </trkpt>
      <trkpt lat="46.51851" lon="-1.41922">
        <ele>53.5</ele>
        <time>2021-09-21T10:12:40Z</time>
      </trkpt>
      <trkpt lat="46.51852" lon="-1.41921">
        <ele>53.5</ele>
        <time>2021-09-21T10:12:41Z</time>
      </trkpt>
      <trkpt lat="46.51853" lon="-1.41921">
        <ele>53.4</ele>
        <time>2021-09-21T10:12:42Z</time>
      </trkpt>
      <trkpt lat="46.51854" lon="-1.4192">
        <ele>53.4</ele>
        <time>2021-09-21T10:12:43Z</time>
      </trkpt>
      <trkpt lat="46.51855" lon="-1.4192">
        <ele>53.4</ele>
        <time>2021-09-21T10:12:44Z</time>
      </trkpt>
      <trkpt lat="46.51856" lon="-1.41919">
        <ele>53.3</ele>
        <time>2021-09-21T10:12:45Z</time>
      </trkpt>
      <trkpt lat="46.51857" lon="-1.41919">
        <ele>53.3</ele>
        <time>2021-09-21T10:12:46Z</time>
      </trkpt>
      <trkpt lat="46.51858" lon="-1.41918">
        <ele>53.3</ele>
        <time>2021-09-21T10:12:47Z</time>
      </trkpt>
      <trkpt lat="46.51859" lon="-1.41917">
        <ele>53.2</ele>
        <time>2021-09-21T10:12:48Z</time>
      </trkpt>
      <trkpt lat="46.5186" lon="-1.41917">
        <ele>53.2</ele>
        <time>2021-09-21T10:12:49Z</time>
      </trkpt>
      <trkpt lat="46.51861" lon="-1.41916">
        <ele>53.2</ele>
        <time>2021-09-21T10:12:50Z</time>
      </trkpt>
    </trkseg>
  </trk>
</gpx>